<?xml version="1.0" encoding="UTF-8" standalone="no" ?>
<gpx xmlns="http://www.topografix.com/GPX/1/1" xmlns:xsi="http://www.w3.org/2001/XMLSchema-instance" xsi:schemaLocation="http://www.topografix.com/GPX/1/1 http://www.topografix.com/GPX/1/1/gpx.xsd" version="1.1" creator="VisuGPX - https://www.visugpx.com">
  <metadata>
    <name>BkPk Charente</name>
  </metadata>
  <trk>
    <name><![CDATA[TCVTT.v5.5]]></name>
    <extensions>
      <line xmlns="http://www.topografix.com/GPX/gpx_style/0/2">
        <color>0000FF</color>
        <width>4</width>
      </line>
    </extensions>
    <trkseg>
      <trkpt lat="45.6562" lon="0.55445">
        <ele>132.3046875</ele>
        <time>2018-08-01T07:24:20Z</time>
      </trkpt>
      <trkpt lat="45.65626" lon="0.55448">
        <ele>132.21875</ele>
      </trkpt>
      <trkpt lat="45.65631" lon="0.5545">
        <ele>132.13671875</ele>
      </trkpt>
      <trkpt lat="45.65631" lon="0.55458">
        <ele>132.359375</ele>
      </trkpt>
      <trkpt lat="45.65631" lon="0.55469">
        <ele>132.67578125</ele>
      </trkpt>
      <trkpt lat="45.65633" lon="0.55478">
        <ele>132.93359375</ele>
      </trkpt>
      <trkpt lat="45.65638" lon="0.55482">
        <ele>133.046875</ele>
        <time>2018-08-01T07:24:21Z</time>
      </trkpt>
      <trkpt lat="45.65642" lon="0.55485">
        <ele>133.125</ele>
        <time>2018-08-01T07:24:22Z</time>
      </trkpt>
      <trkpt lat="45.65645" lon="0.55488">
        <ele>133.234375</ele>
        <time>2018-08-01T07:24:23Z</time>
      </trkpt>
      <trkpt lat="45.65667" lon="0.55506">
        <ele>134.2578125</ele>
        <time>2018-08-01T07:24:29Z</time>
      </trkpt>
      <trkpt lat="45.65699" lon="0.55533">
        <ele>137.18359375</ele>
        <time>2018-08-01T07:24:39Z</time>
      </trkpt>
      <trkpt lat="45.65711" lon="0.55554">
        <ele>139.1328125</ele>
        <time>2018-08-01T07:24:47Z</time>
      </trkpt>
      <trkpt lat="45.65713" lon="0.55571">
        <ele>140.44921875</ele>
        <time>2018-08-01T07:24:53Z</time>
      </trkpt>
      <trkpt lat="45.65717" lon="0.55602">
        <ele>142.33984375</ele>
        <time>2018-08-01T07:25:03Z</time>
      </trkpt>
      <trkpt lat="45.65734" lon="0.55621">
        <ele>143.0234375</ele>
        <time>2018-08-01T07:25:10Z</time>
      </trkpt>
      <trkpt lat="45.65758" lon="0.5564">
        <ele>143.90625</ele>
        <time>2018-08-01T07:25:19Z</time>
      </trkpt>
      <trkpt lat="45.65783" lon="0.55653">
        <ele>144.30078125</ele>
        <time>2018-08-01T07:25:28Z</time>
      </trkpt>
      <trkpt lat="45.65803" lon="0.55663">
        <ele>144.16015625</ele>
        <time>2018-08-01T07:25:34Z</time>
      </trkpt>
      <trkpt lat="45.65836" lon="0.55675">
        <ele>143.3671875</ele>
        <time>2018-08-01T07:25:44Z</time>
      </trkpt>
      <trkpt lat="45.6587" lon="0.5568">
        <ele>141.90234375</ele>
        <time>2018-08-01T07:25:53Z</time>
      </trkpt>
      <trkpt lat="45.65878" lon="0.55682">
        <ele>141.6875</ele>
        <time>2018-08-01T07:25:55Z</time>
      </trkpt>
      <trkpt lat="45.65883" lon="0.55683">
        <ele>141.51953125</ele>
        <time>2018-08-01T07:25:56Z</time>
      </trkpt>
      <trkpt lat="45.65902" lon="0.55685">
        <ele>140.4375</ele>
        <time>2018-08-01T07:26:02Z</time>
      </trkpt>
      <trkpt lat="45.65923" lon="0.55698">
        <ele>140.0546875</ele>
        <time>2018-08-01T07:26:09Z</time>
      </trkpt>
      <trkpt lat="45.65945" lon="0.55726">
        <ele>140.9453125</ele>
        <time>2018-08-01T07:26:17Z</time>
      </trkpt>
      <trkpt lat="45.65962" lon="0.55752">
        <ele>141.79296875</ele>
        <time>2018-08-01T07:26:25Z</time>
      </trkpt>
      <trkpt lat="45.65973" lon="0.55781">
        <ele>143.42578125</ele>
        <time>2018-08-01T07:26:33Z</time>
      </trkpt>
      <trkpt lat="45.65981" lon="0.55819">
        <ele>145.0078125</ele>
        <time>2018-08-01T07:26:43Z</time>
      </trkpt>
      <trkpt lat="45.65985" lon="0.55839">
        <ele>145.38671875</ele>
        <time>2018-08-01T07:26:48Z</time>
      </trkpt>
      <trkpt lat="45.65995" lon="0.55867">
        <ele>145.24609375</ele>
        <time>2018-08-01T07:26:55Z</time>
      </trkpt>
      <trkpt lat="45.66004" lon="0.55894">
        <ele>144.67578125</ele>
        <time>2018-08-01T07:27:02Z</time>
      </trkpt>
      <trkpt lat="45.66011" lon="0.55921">
        <ele>144.30078125</ele>
        <time>2018-08-01T07:27:09Z</time>
      </trkpt>
      <trkpt lat="45.66016" lon="0.55942">
        <ele>144.03125</ele>
        <time>2018-08-01T07:27:14Z</time>
      </trkpt>
      <trkpt lat="45.66021" lon="0.55963">
        <ele>143.7734375</ele>
        <time>2018-08-01T07:27:19Z</time>
      </trkpt>
      <trkpt lat="45.66034" lon="0.55996">
        <ele>142.296875</ele>
        <time>2018-08-01T07:27:25Z</time>
      </trkpt>
      <trkpt lat="45.6604" lon="0.56009">
        <ele>141.5625</ele>
        <time>2018-08-01T07:27:27Z</time>
      </trkpt>
      <trkpt lat="45.66043" lon="0.56016">
        <ele>141.15234375</ele>
        <time>2018-08-01T07:27:28Z</time>
      </trkpt>
      <trkpt lat="45.66047" lon="0.56022">
        <ele>140.67578125</ele>
        <time>2018-08-01T07:27:29Z</time>
      </trkpt>
      <trkpt lat="45.6605" lon="0.56027">
        <ele>140.21484375</ele>
        <time>2018-08-01T07:27:30Z</time>
      </trkpt>
      <trkpt lat="45.66055" lon="0.56032">
        <ele>139.796875</ele>
        <time>2018-08-01T07:27:31Z</time>
      </trkpt>
      <trkpt lat="45.66058" lon="0.56036">
        <ele>139.453125</ele>
        <time>2018-08-01T07:27:32Z</time>
      </trkpt>
      <trkpt lat="45.66062" lon="0.56041">
        <ele>139.12890625</ele>
        <time>2018-08-01T07:27:33Z</time>
      </trkpt>
      <trkpt lat="45.66065" lon="0.56047">
        <ele>138.87890625</ele>
        <time>2018-08-01T07:27:34Z</time>
      </trkpt>
      <trkpt lat="45.66067" lon="0.56054">
        <ele>138.7109375</ele>
        <time>2018-08-01T07:27:35Z</time>
      </trkpt>
      <trkpt lat="45.66069" lon="0.56062">
        <ele>138.62109375</ele>
        <time>2018-08-01T07:27:36Z</time>
      </trkpt>
      <trkpt lat="45.66071" lon="0.56072">
        <ele>138.47265625</ele>
        <time>2018-08-01T07:27:37Z</time>
      </trkpt>
      <trkpt lat="45.66074" lon="0.56081">
        <ele>138.1171875</ele>
        <time>2018-08-01T07:27:38Z</time>
      </trkpt>
      <trkpt lat="45.66078" lon="0.5609">
        <ele>137.609375</ele>
        <time>2018-08-01T07:27:39Z</time>
      </trkpt>
      <trkpt lat="45.66094" lon="0.56119">
        <ele>135.62890625</ele>
        <time>2018-08-01T07:27:42Z</time>
      </trkpt>
      <trkpt lat="45.6611" lon="0.56148">
        <ele>133.4765625</ele>
        <time>2018-08-01T07:27:45Z</time>
      </trkpt>
      <trkpt lat="45.66137" lon="0.56209">
        <ele>130.4453125</ele>
        <time>2018-08-01T07:27:51Z</time>
      </trkpt>
      <trkpt lat="45.66144" lon="0.56231">
        <ele>129.51953125</ele>
        <time>2018-08-01T07:27:53Z</time>
      </trkpt>
      <trkpt lat="45.66152" lon="0.56261">
        <ele>128.3671875</ele>
        <time>2018-08-01T07:27:56Z</time>
      </trkpt>
      <trkpt lat="45.66152" lon="0.56271">
        <ele>128.1328125</ele>
        <time>2018-08-01T07:27:57Z</time>
      </trkpt>
      <trkpt lat="45.66152" lon="0.56282">
        <ele>127.95703125</ele>
        <time>2018-08-01T07:27:58Z</time>
      </trkpt>
      <trkpt lat="45.6615" lon="0.56304">
        <ele>127.9296875</ele>
        <time>2018-08-01T07:28:00Z</time>
      </trkpt>
      <trkpt lat="45.66144" lon="0.5634">
        <ele>129.4921875</ele>
        <time>2018-08-01T07:28:03Z</time>
      </trkpt>
      <trkpt lat="45.66141" lon="0.56352">
        <ele>129.75390625</ele>
        <time>2018-08-01T07:28:04Z</time>
      </trkpt>
      <trkpt lat="45.66137" lon="0.56363">
        <ele>130.859375</ele>
        <time>2018-08-01T07:28:05Z</time>
      </trkpt>
      <trkpt lat="45.66132" lon="0.56374">
        <ele>132.05859375</ele>
        <time>2018-08-01T07:28:06Z</time>
      </trkpt>
      <trkpt lat="45.66127" lon="0.56382">
        <ele>132.57421875</ele>
        <time>2018-08-01T07:28:07Z</time>
      </trkpt>
      <trkpt lat="45.6612" lon="0.56387">
        <ele>132.54296875</ele>
        <time>2018-08-01T07:28:08Z</time>
      </trkpt>
      <trkpt lat="45.66114" lon="0.56392">
        <ele>132.23828125</ele>
        <time>2018-08-01T07:28:09Z</time>
      </trkpt>
      <trkpt lat="45.66108" lon="0.56396">
        <ele>131.78515625</ele>
        <time>2018-08-01T07:28:10Z</time>
      </trkpt>
      <trkpt lat="45.66097" lon="0.56402">
        <ele>131.50390625</ele>
        <time>2018-08-01T07:28:12Z</time>
      </trkpt>
      <trkpt lat="45.66092" lon="0.56403">
        <ele>131.25390625</ele>
        <time>2018-08-01T07:28:13Z</time>
      </trkpt>
      <trkpt lat="45.66088" lon="0.56404">
        <ele>130.99609375</ele>
        <time>2018-08-01T07:28:14Z</time>
      </trkpt>
      <trkpt lat="45.66076" lon="0.56402">
        <ele>129.99609375</ele>
        <time>2018-08-01T07:28:19Z</time>
      </trkpt>
      <trkpt lat="45.66069" lon="0.56403">
        <ele>129.48828125</ele>
        <time>2018-08-01T07:28:24Z</time>
      </trkpt>
      <trkpt lat="45.6607" lon="0.56405">
        <ele>129.59375</ele>
        <time>2018-08-01T07:28:25Z</time>
      </trkpt>
      <trkpt lat="45.66063" lon="0.56409">
        <ele>129.0859375</ele>
        <time>2018-08-01T07:28:43Z</time>
      </trkpt>
      <trkpt lat="45.66065" lon="0.56408">
        <ele>129.19140625</ele>
        <time>2018-08-01T07:29:08Z</time>
      </trkpt>
      <trkpt lat="45.66064" lon="0.56411">
        <ele>129.1796875</ele>
        <time>2018-08-01T07:29:35Z</time>
      </trkpt>
      <trkpt lat="45.66064" lon="0.56409">
        <ele>129.1015625</ele>
        <time>2018-08-01T07:30:07Z</time>
      </trkpt>
      <trkpt lat="45.66064" lon="0.56409">
        <ele>129.09375</ele>
        <time>2018-08-01T07:30:18Z</time>
      </trkpt>
      <trkpt lat="45.66063" lon="0.56412">
        <ele>129.34765625</ele>
        <time>2018-08-01T07:30:32Z</time>
      </trkpt>
      <trkpt lat="45.66062" lon="0.56412">
        <ele>129.1875</ele>
        <time>2018-08-01T07:30:34Z</time>
      </trkpt>
      <trkpt lat="45.66046" lon="0.56408">
        <ele>127.9453125</ele>
        <time>2018-08-01T07:30:42Z</time>
      </trkpt>
      <trkpt lat="45.6603" lon="0.56404">
        <ele>127.81640625</ele>
        <time>2018-08-01T07:30:48Z</time>
      </trkpt>
      <trkpt lat="45.66008" lon="0.56396">
        <ele>127.84765625</ele>
        <time>2018-08-01T07:30:56Z</time>
      </trkpt>
      <trkpt lat="45.65984" lon="0.56387">
        <ele>128.06640625</ele>
        <time>2018-08-01T07:31:03Z</time>
      </trkpt>
      <trkpt lat="45.6596" lon="0.56371">
        <ele>128.21484375</ele>
        <time>2018-08-01T07:31:10Z</time>
      </trkpt>
      <trkpt lat="45.65934" lon="0.56347">
        <ele>128.56640625</ele>
        <time>2018-08-01T07:31:18Z</time>
      </trkpt>
      <trkpt lat="45.65931" lon="0.56343">
        <ele>128.78125</ele>
        <time>2018-08-01T07:31:19Z</time>
      </trkpt>
      <trkpt lat="45.65913" lon="0.56312">
        <ele>130.06640625</ele>
        <time>2018-08-01T07:31:26Z</time>
      </trkpt>
      <trkpt lat="45.65902" lon="0.56286">
        <ele>131.28515625</ele>
        <time>2018-08-01T07:31:32Z</time>
      </trkpt>
      <trkpt lat="45.65888" lon="0.5625">
        <ele>132.87890625</ele>
        <time>2018-08-01T07:31:39Z</time>
      </trkpt>
      <trkpt lat="45.65883" lon="0.56238">
        <ele>133.41796875</ele>
        <time>2018-08-01T07:31:41Z</time>
      </trkpt>
      <trkpt lat="45.65881" lon="0.56233">
        <ele>133.72265625</ele>
        <time>2018-08-01T07:31:42Z</time>
      </trkpt>
      <trkpt lat="45.65879" lon="0.56228">
        <ele>134.01171875</ele>
        <time>2018-08-01T07:31:43Z</time>
      </trkpt>
      <trkpt lat="45.65877" lon="0.56223">
        <ele>134.27734375</ele>
        <time>2018-08-01T07:31:44Z</time>
      </trkpt>
      <trkpt lat="45.65876" lon="0.56217">
        <ele>134.7578125</ele>
        <time>2018-08-01T07:31:45Z</time>
      </trkpt>
      <trkpt lat="45.65874" lon="0.5621">
        <ele>135.16015625</ele>
        <time>2018-08-01T07:31:46Z</time>
      </trkpt>
      <trkpt lat="45.65873" lon="0.56204">
        <ele>135.5859375</ele>
        <time>2018-08-01T07:31:47Z</time>
      </trkpt>
      <trkpt lat="45.65863" lon="0.56155">
        <ele>138.11328125</ele>
        <time>2018-08-01T07:31:55Z</time>
      </trkpt>
      <trkpt lat="45.6586" lon="0.56124">
        <ele>140.16796875</ele>
        <time>2018-08-01T07:32:01Z</time>
      </trkpt>
      <trkpt lat="45.6585" lon="0.56092">
        <ele>140.546875</ele>
        <time>2018-08-01T07:32:07Z</time>
      </trkpt>
      <trkpt lat="45.65843" lon="0.56068">
        <ele>140.8125</ele>
        <time>2018-08-01T07:32:12Z</time>
      </trkpt>
      <trkpt lat="45.65833" lon="0.56043">
        <ele>140.84765625</ele>
        <time>2018-08-01T07:32:18Z</time>
      </trkpt>
      <trkpt lat="45.65824" lon="0.5603">
        <ele>140.046875</ele>
        <time>2018-08-01T07:32:21Z</time>
      </trkpt>
      <trkpt lat="45.65805" lon="0.56009">
        <ele>138.31640625</ele>
        <time>2018-08-01T07:32:26Z</time>
      </trkpt>
      <trkpt lat="45.65801" lon="0.56005">
        <ele>138.078125</ele>
        <time>2018-08-01T07:32:27Z</time>
      </trkpt>
      <trkpt lat="45.65797" lon="0.56">
        <ele>137.7890625</ele>
        <time>2018-08-01T07:32:28Z</time>
      </trkpt>
      <trkpt lat="45.65785" lon="0.55988">
        <ele>137.07421875</ele>
        <time>2018-08-01T07:32:31Z</time>
      </trkpt>
      <trkpt lat="45.65766" lon="0.5597">
        <ele>136.35546875</ele>
        <time>2018-08-01T07:32:36Z</time>
      </trkpt>
      <trkpt lat="45.65761" lon="0.55967">
        <ele>136.26171875</ele>
        <time>2018-08-01T07:32:37Z</time>
      </trkpt>
      <trkpt lat="45.65729" lon="0.55944">
        <ele>136.6640625</ele>
        <time>2018-08-01T07:32:44Z</time>
      </trkpt>
      <trkpt lat="45.65706" lon="0.55936">
        <ele>136.1484375</ele>
        <time>2018-08-01T07:32:49Z</time>
      </trkpt>
      <trkpt lat="45.657" lon="0.55936">
        <ele>135.875</ele>
        <time>2018-08-01T07:32:50Z</time>
      </trkpt>
      <trkpt lat="45.65664" lon="0.55928">
        <ele>134.83203125</ele>
        <time>2018-08-01T07:32:57Z</time>
      </trkpt>
      <trkpt lat="45.65659" lon="0.55927">
        <ele>134.953125</ele>
        <time>2018-08-01T07:32:58Z</time>
      </trkpt>
      <trkpt lat="45.65628" lon="0.55923">
        <ele>135.0546875</ele>
        <time>2018-08-01T07:33:05Z</time>
      </trkpt>
      <trkpt lat="45.65604" lon="0.5593">
        <ele>133.609375</ele>
        <time>2018-08-01T07:33:11Z</time>
      </trkpt>
      <trkpt lat="45.65588" lon="0.55936">
        <ele>133.55859375</ele>
        <time>2018-08-01T07:33:15Z</time>
      </trkpt>
      <trkpt lat="45.65578" lon="0.5594">
        <ele>133.4453125</ele>
        <time>2018-08-01T07:33:17Z</time>
      </trkpt>
      <trkpt lat="45.65569" lon="0.55945">
        <ele>133.1015625</ele>
        <time>2018-08-01T07:33:19Z</time>
      </trkpt>
      <trkpt lat="45.65554" lon="0.55953">
        <ele>132.4609375</ele>
        <time>2018-08-01T07:33:22Z</time>
      </trkpt>
      <trkpt lat="45.6555" lon="0.55956">
        <ele>132.3671875</ele>
        <time>2018-08-01T07:33:23Z</time>
      </trkpt>
      <trkpt lat="45.65545" lon="0.55959">
        <ele>132.7109375</ele>
        <time>2018-08-01T07:33:24Z</time>
      </trkpt>
      <trkpt lat="45.6552" lon="0.55982">
        <ele>134.4921875</ele>
        <time>2018-08-01T07:33:30Z</time>
      </trkpt>
      <trkpt lat="45.65503" lon="0.55999">
        <ele>133.91796875</ele>
        <time>2018-08-01T07:33:34Z</time>
      </trkpt>
      <trkpt lat="45.65499" lon="0.56003">
        <ele>133.75</ele>
        <time>2018-08-01T07:33:35Z</time>
      </trkpt>
      <trkpt lat="45.65495" lon="0.56007">
        <ele>133.71484375</ele>
        <time>2018-08-01T07:33:36Z</time>
      </trkpt>
      <trkpt lat="45.65491" lon="0.56011">
        <ele>133.85546875</ele>
        <time>2018-08-01T07:33:37Z</time>
      </trkpt>
      <trkpt lat="45.65487" lon="0.56014">
        <ele>134.33203125</ele>
        <time>2018-08-01T07:33:38Z</time>
      </trkpt>
      <trkpt lat="45.65483" lon="0.56018">
        <ele>134.8125</ele>
        <time>2018-08-01T07:33:39Z</time>
      </trkpt>
      <trkpt lat="45.65472" lon="0.5603">
        <ele>135.96875</ele>
        <time>2018-08-01T07:33:42Z</time>
      </trkpt>
      <trkpt lat="45.6547" lon="0.56035">
        <ele>135.9609375</ele>
        <time>2018-08-01T07:33:43Z</time>
      </trkpt>
      <trkpt lat="45.65466" lon="0.56039">
        <ele>135.9921875</ele>
        <time>2018-08-01T07:33:44Z</time>
      </trkpt>
      <trkpt lat="45.65449" lon="0.56065">
        <ele>133.9609375</ele>
        <time>2018-08-01T07:33:49Z</time>
      </trkpt>
      <trkpt lat="45.65447" lon="0.56069">
        <ele>133.38671875</ele>
        <time>2018-08-01T07:33:50Z</time>
      </trkpt>
      <trkpt lat="45.65444" lon="0.56074">
        <ele>132.4609375</ele>
        <time>2018-08-01T07:33:51Z</time>
      </trkpt>
      <trkpt lat="45.65441" lon="0.56078">
        <ele>131.8125</ele>
        <time>2018-08-01T07:33:52Z</time>
      </trkpt>
      <trkpt lat="45.65438" lon="0.56083">
        <ele>132.375</ele>
        <time>2018-08-01T07:33:53Z</time>
      </trkpt>
      <trkpt lat="45.65435" lon="0.56089">
        <ele>133.1953125</ele>
        <time>2018-08-01T07:33:54Z</time>
      </trkpt>
      <trkpt lat="45.65431" lon="0.56093">
        <ele>133.9140625</ele>
        <time>2018-08-01T07:33:55Z</time>
      </trkpt>
      <trkpt lat="45.65427" lon="0.56098">
        <ele>134.49609375</ele>
        <time>2018-08-01T07:33:56Z</time>
      </trkpt>
      <trkpt lat="45.65421" lon="0.56106">
        <ele>135.3984375</ele>
        <time>2018-08-01T07:33:58Z</time>
      </trkpt>
      <trkpt lat="45.65417" lon="0.5611">
        <ele>135.6875</ele>
        <time>2018-08-01T07:33:59Z</time>
      </trkpt>
      <trkpt lat="45.65414" lon="0.56113">
        <ele>136.015625</ele>
        <time>2018-08-01T07:34:00Z</time>
      </trkpt>
      <trkpt lat="45.65411" lon="0.56117">
        <ele>136.12890625</ele>
        <time>2018-08-01T07:34:01Z</time>
      </trkpt>
      <trkpt lat="45.65408" lon="0.56121">
        <ele>135.98046875</ele>
        <time>2018-08-01T07:34:02Z</time>
      </trkpt>
      <trkpt lat="45.65405" lon="0.56126">
        <ele>135.54296875</ele>
        <time>2018-08-01T07:34:03Z</time>
      </trkpt>
      <trkpt lat="45.65402" lon="0.56131">
        <ele>135.01953125</ele>
        <time>2018-08-01T07:34:04Z</time>
      </trkpt>
      <trkpt lat="45.65398" lon="0.56137">
        <ele>134.7578125</ele>
        <time>2018-08-01T07:34:05Z</time>
      </trkpt>
      <trkpt lat="45.65393" lon="0.56148">
        <ele>134.31640625</ele>
        <time>2018-08-01T07:34:07Z</time>
      </trkpt>
      <trkpt lat="45.6539" lon="0.56153">
        <ele>134.01171875</ele>
        <time>2018-08-01T07:34:08Z</time>
      </trkpt>
      <trkpt lat="45.65369" lon="0.56194">
        <ele>134.51953125</ele>
        <time>2018-08-01T07:34:15Z</time>
      </trkpt>
      <trkpt lat="45.65366" lon="0.562">
        <ele>134.98828125</ele>
        <time>2018-08-01T07:34:16Z</time>
      </trkpt>
      <trkpt lat="45.65364" lon="0.56205">
        <ele>135.1796875</ele>
        <time>2018-08-01T07:34:17Z</time>
      </trkpt>
      <trkpt lat="45.65352" lon="0.56241">
        <ele>134.57421875</ele>
        <time>2018-08-01T07:34:23Z</time>
      </trkpt>
      <trkpt lat="45.65341" lon="0.56273">
        <ele>134.625</ele>
        <time>2018-08-01T07:34:28Z</time>
      </trkpt>
      <trkpt lat="45.65338" lon="0.56278">
        <ele>134.73828125</ele>
        <time>2018-08-01T07:34:29Z</time>
      </trkpt>
      <trkpt lat="45.65335" lon="0.56284">
        <ele>134.65234375</ele>
        <time>2018-08-01T07:34:30Z</time>
      </trkpt>
      <trkpt lat="45.65333" lon="0.56292">
        <ele>134.25390625</ele>
        <time>2018-08-01T07:34:31Z</time>
      </trkpt>
      <trkpt lat="45.65331" lon="0.56299">
        <ele>133.8515625</ele>
        <time>2018-08-01T07:34:32Z</time>
      </trkpt>
      <trkpt lat="45.65329" lon="0.56305">
        <ele>133.8984375</ele>
        <time>2018-08-01T07:34:33Z</time>
      </trkpt>
      <trkpt lat="45.65328" lon="0.5631">
        <ele>134.25</ele>
        <time>2018-08-01T07:34:34Z</time>
      </trkpt>
      <trkpt lat="45.65319" lon="0.56345">
        <ele>136.0859375</ele>
        <time>2018-08-01T07:34:40Z</time>
      </trkpt>
      <trkpt lat="45.65313" lon="0.56383">
        <ele>136.1484375</ele>
        <time>2018-08-01T07:34:46Z</time>
      </trkpt>
      <trkpt lat="45.65305" lon="0.5642">
        <ele>136.0859375</ele>
        <time>2018-08-01T07:34:51Z</time>
      </trkpt>
      <trkpt lat="45.65304" lon="0.56427">
        <ele>135.93359375</ele>
        <time>2018-08-01T07:34:52Z</time>
      </trkpt>
      <trkpt lat="45.65301" lon="0.56462">
        <ele>134.9296875</ele>
        <time>2018-08-01T07:34:57Z</time>
      </trkpt>
      <trkpt lat="45.65298" lon="0.56496">
        <ele>134.0546875</ele>
        <time>2018-08-01T07:35:02Z</time>
      </trkpt>
      <trkpt lat="45.65297" lon="0.56502">
        <ele>133.94921875</ele>
        <time>2018-08-01T07:35:03Z</time>
      </trkpt>
      <trkpt lat="45.65295" lon="0.56507">
        <ele>133.91796875</ele>
        <time>2018-08-01T07:35:04Z</time>
      </trkpt>
      <trkpt lat="45.65294" lon="0.56514">
        <ele>133.78515625</ele>
        <time>2018-08-01T07:35:05Z</time>
      </trkpt>
      <trkpt lat="45.65293" lon="0.5652">
        <ele>133.68359375</ele>
        <time>2018-08-01T07:35:06Z</time>
      </trkpt>
      <trkpt lat="45.65291" lon="0.56526">
        <ele>133.80078125</ele>
        <time>2018-08-01T07:35:07Z</time>
      </trkpt>
      <trkpt lat="45.6529" lon="0.56533">
        <ele>133.9609375</ele>
        <time>2018-08-01T07:35:08Z</time>
      </trkpt>
      <trkpt lat="45.65289" lon="0.5654">
        <ele>134.1328125</ele>
        <time>2018-08-01T07:35:09Z</time>
      </trkpt>
      <trkpt lat="45.65287" lon="0.56579">
        <ele>134.33984375</ele>
        <time>2018-08-01T07:35:15Z</time>
      </trkpt>
      <trkpt lat="45.65288" lon="0.56593">
        <ele>133.72265625</ele>
        <time>2018-08-01T07:35:17Z</time>
      </trkpt>
      <trkpt lat="45.65288" lon="0.566">
        <ele>133.4765625</ele>
        <time>2018-08-01T07:35:18Z</time>
      </trkpt>
      <trkpt lat="45.65288" lon="0.56607">
        <ele>133.2578125</ele>
        <time>2018-08-01T07:35:19Z</time>
      </trkpt>
      <trkpt lat="45.65288" lon="0.56613">
        <ele>133.08203125</ele>
        <time>2018-08-01T07:35:20Z</time>
      </trkpt>
      <trkpt lat="45.65288" lon="0.56618">
        <ele>132.921875</ele>
        <time>2018-08-01T07:35:21Z</time>
      </trkpt>
      <trkpt lat="45.6529" lon="0.5665">
        <ele>132.4375</ele>
        <time>2018-08-01T07:35:26Z</time>
      </trkpt>
      <trkpt lat="45.65301" lon="0.56703">
        <ele>132.01171875</ele>
        <time>2018-08-01T07:35:33Z</time>
      </trkpt>
      <trkpt lat="45.65301" lon="0.5671">
        <ele>132.0078125</ele>
        <time>2018-08-01T07:35:34Z</time>
      </trkpt>
      <trkpt lat="45.65302" lon="0.56718">
        <ele>132</ele>
        <time>2018-08-01T07:35:35Z</time>
      </trkpt>
      <trkpt lat="45.65303" lon="0.5674">
        <ele>131.99609375</ele>
        <time>2018-08-01T07:35:38Z</time>
      </trkpt>
      <trkpt lat="45.65303" lon="0.56748">
        <ele>132.0390625</ele>
        <time>2018-08-01T07:35:39Z</time>
      </trkpt>
      <trkpt lat="45.65301" lon="0.56797">
        <ele>132.49609375</ele>
        <time>2018-08-01T07:35:46Z</time>
      </trkpt>
      <trkpt lat="45.65301" lon="0.56803">
        <ele>132.73046875</ele>
        <time>2018-08-01T07:35:47Z</time>
      </trkpt>
      <trkpt lat="45.65303" lon="0.56819">
        <ele>133.37109375</ele>
        <time>2018-08-01T07:35:49Z</time>
      </trkpt>
      <trkpt lat="45.65305" lon="0.56868">
        <ele>135.23828125</ele>
        <time>2018-08-01T07:35:56Z</time>
      </trkpt>
      <trkpt lat="45.65305" lon="0.56874">
        <ele>135.4921875</ele>
        <time>2018-08-01T07:35:57Z</time>
      </trkpt>
      <trkpt lat="45.65305" lon="0.56881">
        <ele>135.75</ele>
        <time>2018-08-01T07:35:58Z</time>
      </trkpt>
      <trkpt lat="45.65304" lon="0.56888">
        <ele>136.09375</ele>
        <time>2018-08-01T07:35:59Z</time>
      </trkpt>
      <trkpt lat="45.65304" lon="0.56895">
        <ele>136.41796875</ele>
        <time>2018-08-01T07:36:00Z</time>
      </trkpt>
      <trkpt lat="45.65304" lon="0.56901">
        <ele>136.7265625</ele>
        <time>2018-08-01T07:36:01Z</time>
      </trkpt>
      <trkpt lat="45.65304" lon="0.56908">
        <ele>137.015625</ele>
        <time>2018-08-01T07:36:02Z</time>
      </trkpt>
      <trkpt lat="45.65303" lon="0.56915">
        <ele>137.4296875</ele>
        <time>2018-08-01T07:36:03Z</time>
      </trkpt>
      <trkpt lat="45.65302" lon="0.56936">
        <ele>138.75</ele>
        <time>2018-08-01T07:36:06Z</time>
      </trkpt>
      <trkpt lat="45.65305" lon="0.56976">
        <ele>140.32421875</ele>
        <time>2018-08-01T07:36:12Z</time>
      </trkpt>
      <trkpt lat="45.65306" lon="0.56991">
        <ele>141.13671875</ele>
        <time>2018-08-01T07:36:14Z</time>
      </trkpt>
      <trkpt lat="45.65307" lon="0.56999">
        <ele>141.37109375</ele>
        <time>2018-08-01T07:36:15Z</time>
      </trkpt>
      <trkpt lat="45.65309" lon="0.57006">
        <ele>141.53125</ele>
        <time>2018-08-01T07:36:16Z</time>
      </trkpt>
      <trkpt lat="45.65316" lon="0.57046">
        <ele>141.2421875</ele>
        <time>2018-08-01T07:36:22Z</time>
      </trkpt>
      <trkpt lat="45.65318" lon="0.57052">
        <ele>140.9921875</ele>
        <time>2018-08-01T07:36:23Z</time>
      </trkpt>
      <trkpt lat="45.6532" lon="0.57059">
        <ele>140.69921875</ele>
        <time>2018-08-01T07:36:24Z</time>
      </trkpt>
      <trkpt lat="45.65337" lon="0.57104">
        <ele>138.35546875</ele>
        <time>2018-08-01T07:36:31Z</time>
      </trkpt>
      <trkpt lat="45.65356" lon="0.57139">
        <ele>137.41796875</ele>
        <time>2018-08-01T07:36:38Z</time>
      </trkpt>
      <trkpt lat="45.65371" lon="0.57166">
        <ele>137.10546875</ele>
        <time>2018-08-01T07:36:44Z</time>
      </trkpt>
      <trkpt lat="45.65384" lon="0.57186">
        <ele>135.24609375</ele>
        <time>2018-08-01T07:36:49Z</time>
      </trkpt>
      <trkpt lat="45.65401" lon="0.57208">
        <ele>137.24609375</ele>
        <time>2018-08-01T07:36:55Z</time>
      </trkpt>
      <trkpt lat="45.65422" lon="0.57229">
        <ele>136.78125</ele>
        <time>2018-08-01T07:37:01Z</time>
      </trkpt>
      <trkpt lat="45.65439" lon="0.57248">
        <ele>135.45703125</ele>
        <time>2018-08-01T07:37:07Z</time>
      </trkpt>
      <trkpt lat="45.6546" lon="0.57264">
        <ele>136.4453125</ele>
        <time>2018-08-01T07:37:13Z</time>
      </trkpt>
      <trkpt lat="45.65478" lon="0.57279">
        <ele>136.85546875</ele>
        <time>2018-08-01T07:37:19Z</time>
      </trkpt>
      <trkpt lat="45.65495" lon="0.57291">
        <ele>136.26953125</ele>
        <time>2018-08-01T07:37:24Z</time>
      </trkpt>
      <trkpt lat="45.65542" lon="0.57314">
        <ele>136.17578125</ele>
        <time>2018-08-01T07:37:37Z</time>
      </trkpt>
      <trkpt lat="45.65567" lon="0.57332">
        <ele>137.01171875</ele>
        <time>2018-08-01T07:37:46Z</time>
      </trkpt>
      <trkpt lat="45.65592" lon="0.57358">
        <ele>137.98046875</ele>
        <time>2018-08-01T07:37:55Z</time>
      </trkpt>
      <trkpt lat="45.65603" lon="0.57385">
        <ele>137.8984375</ele>
        <time>2018-08-01T07:38:02Z</time>
      </trkpt>
      <trkpt lat="45.65605" lon="0.57415">
        <ele>138.13671875</ele>
        <time>2018-08-01T07:38:09Z</time>
      </trkpt>
      <trkpt lat="45.65598" lon="0.57446">
        <ele>138.875</ele>
        <time>2018-08-01T07:38:16Z</time>
      </trkpt>
      <trkpt lat="45.65591" lon="0.57474">
        <ele>140.03125</ele>
        <time>2018-08-01T07:38:22Z</time>
      </trkpt>
      <trkpt lat="45.65584" lon="0.575">
        <ele>141.17578125</ele>
        <time>2018-08-01T07:38:29Z</time>
      </trkpt>
      <trkpt lat="45.65578" lon="0.57522">
        <ele>142.203125</ele>
        <time>2018-08-01T07:38:34Z</time>
      </trkpt>
      <trkpt lat="45.65576" lon="0.57552">
        <ele>142.3671875</ele>
        <time>2018-08-01T07:38:40Z</time>
      </trkpt>
      <trkpt lat="45.65578" lon="0.5757">
        <ele>141.921875</ele>
        <time>2018-08-01T07:38:44Z</time>
      </trkpt>
      <trkpt lat="45.65579" lon="0.57574">
        <ele>141.70703125</ele>
        <time>2018-08-01T07:38:45Z</time>
      </trkpt>
      <trkpt lat="45.6558" lon="0.57579">
        <ele>141.484375</ele>
        <time>2018-08-01T07:38:46Z</time>
      </trkpt>
      <trkpt lat="45.65582" lon="0.57584">
        <ele>141.05859375</ele>
        <time>2018-08-01T07:38:47Z</time>
      </trkpt>
      <trkpt lat="45.65584" lon="0.5759">
        <ele>140.703125</ele>
        <time>2018-08-01T07:38:48Z</time>
      </trkpt>
      <trkpt lat="45.65591" lon="0.57606">
        <ele>139.42578125</ele>
        <time>2018-08-01T07:38:51Z</time>
      </trkpt>
      <trkpt lat="45.65609" lon="0.57642">
        <ele>136.83984375</ele>
        <time>2018-08-01T07:38:58Z</time>
      </trkpt>
      <trkpt lat="45.65617" lon="0.57657">
        <ele>137.37109375</ele>
        <time>2018-08-01T07:39:01Z</time>
      </trkpt>
      <trkpt lat="45.65625" lon="0.57672">
        <ele>137.70703125</ele>
        <time>2018-08-01T07:39:04Z</time>
      </trkpt>
      <trkpt lat="45.65637" lon="0.57699">
        <ele>138.08984375</ele>
        <time>2018-08-01T07:39:09Z</time>
      </trkpt>
      <trkpt lat="45.65637" lon="0.57705">
        <ele>138.40625</ele>
        <time>2018-08-01T07:39:10Z</time>
      </trkpt>
      <trkpt lat="45.65636" lon="0.57739">
        <ele>141.078125</ele>
        <time>2018-08-01T07:39:16Z</time>
      </trkpt>
      <trkpt lat="45.6564" lon="0.57773">
        <ele>142.16015625</ele>
        <time>2018-08-01T07:39:22Z</time>
      </trkpt>
      <trkpt lat="45.65642" lon="0.57779">
        <ele>142.015625</ele>
        <time>2018-08-01T07:39:23Z</time>
      </trkpt>
      <trkpt lat="45.65646" lon="0.57784">
        <ele>141.62109375</ele>
        <time>2018-08-01T07:39:24Z</time>
      </trkpt>
      <trkpt lat="45.65649" lon="0.57787">
        <ele>141.09765625</ele>
        <time>2018-08-01T07:39:25Z</time>
      </trkpt>
      <trkpt lat="45.65653" lon="0.5779">
        <ele>140.421875</ele>
        <time>2018-08-01T07:39:26Z</time>
      </trkpt>
      <trkpt lat="45.65658" lon="0.57792">
        <ele>139.63671875</ele>
        <time>2018-08-01T07:39:27Z</time>
      </trkpt>
      <trkpt lat="45.65663" lon="0.57794">
        <ele>138.75</ele>
        <time>2018-08-01T07:39:28Z</time>
      </trkpt>
      <trkpt lat="45.65668" lon="0.57796">
        <ele>138.34375</ele>
        <time>2018-08-01T07:39:29Z</time>
      </trkpt>
      <trkpt lat="45.65673" lon="0.57798">
        <ele>137.87109375</ele>
        <time>2018-08-01T07:39:30Z</time>
      </trkpt>
      <trkpt lat="45.65684" lon="0.57804">
        <ele>137.1328125</ele>
        <time>2018-08-01T07:39:32Z</time>
      </trkpt>
      <trkpt lat="45.65714" lon="0.57821">
        <ele>135.17578125</ele>
        <time>2018-08-01T07:39:37Z</time>
      </trkpt>
      <trkpt lat="45.65719" lon="0.57827">
        <ele>135.0625</ele>
        <time>2018-08-01T07:39:38Z</time>
      </trkpt>
      <trkpt lat="45.65723" lon="0.57834">
        <ele>135.421875</ele>
        <time>2018-08-01T07:39:39Z</time>
      </trkpt>
      <trkpt lat="45.65727" lon="0.57842">
        <ele>135.80859375</ele>
        <time>2018-08-01T07:39:40Z</time>
      </trkpt>
      <trkpt lat="45.65729" lon="0.5785">
        <ele>136.19140625</ele>
        <time>2018-08-01T07:39:41Z</time>
      </trkpt>
      <trkpt lat="45.65732" lon="0.5786">
        <ele>136.671875</ele>
        <time>2018-08-01T07:39:42Z</time>
      </trkpt>
      <trkpt lat="45.65733" lon="0.57868">
        <ele>137.2265625</ele>
        <time>2018-08-01T07:39:43Z</time>
      </trkpt>
      <trkpt lat="45.65735" lon="0.57877">
        <ele>137.77734375</ele>
        <time>2018-08-01T07:39:44Z</time>
      </trkpt>
      <trkpt lat="45.65742" lon="0.57926">
        <ele>140.42578125</ele>
        <time>2018-08-01T07:39:50Z</time>
      </trkpt>
      <trkpt lat="45.65745" lon="0.5795">
        <ele>141.375</ele>
        <time>2018-08-01T07:39:53Z</time>
      </trkpt>
      <trkpt lat="45.65749" lon="0.57987">
        <ele>143.19921875</ele>
        <time>2018-08-01T07:39:58Z</time>
      </trkpt>
      <trkpt lat="45.6575" lon="0.57994">
        <ele>143.59375</ele>
        <time>2018-08-01T07:39:59Z</time>
      </trkpt>
      <trkpt lat="45.65753" lon="0.58">
        <ele>143.98828125</ele>
        <time>2018-08-01T07:40:00Z</time>
      </trkpt>
      <trkpt lat="45.65757" lon="0.58002">
        <ele>144.15234375</ele>
        <time>2018-08-01T07:40:01Z</time>
      </trkpt>
      <trkpt lat="45.65762" lon="0.58002">
        <ele>144.1953125</ele>
        <time>2018-08-01T07:40:02Z</time>
      </trkpt>
      <trkpt lat="45.65766" lon="0.58">
        <ele>144.11328125</ele>
        <time>2018-08-01T07:40:03Z</time>
      </trkpt>
      <trkpt lat="45.65768" lon="0.57997">
        <ele>143.875</ele>
        <time>2018-08-01T07:40:04Z</time>
      </trkpt>
      <trkpt lat="45.65771" lon="0.57994">
        <ele>143.61328125</ele>
        <time>2018-08-01T07:40:05Z</time>
      </trkpt>
      <trkpt lat="45.65789" lon="0.57974">
        <ele>143.921875</ele>
        <time>2018-08-01T07:40:11Z</time>
      </trkpt>
      <trkpt lat="45.65792" lon="0.5797">
        <ele>144.07421875</ele>
        <time>2018-08-01T07:40:12Z</time>
      </trkpt>
      <trkpt lat="45.65795" lon="0.57966">
        <ele>144.171875</ele>
        <time>2018-08-01T07:40:13Z</time>
      </trkpt>
      <trkpt lat="45.65797" lon="0.57962">
        <ele>144.109375</ele>
        <time>2018-08-01T07:40:14Z</time>
      </trkpt>
      <trkpt lat="45.65799" lon="0.57958">
        <ele>144.1484375</ele>
        <time>2018-08-01T07:40:15Z</time>
      </trkpt>
      <trkpt lat="45.65803" lon="0.57953">
        <ele>144.18359375</ele>
        <time>2018-08-01T07:40:16Z</time>
      </trkpt>
      <trkpt lat="45.65806" lon="0.57948">
        <ele>144.28515625</ele>
        <time>2018-08-01T07:40:17Z</time>
      </trkpt>
      <trkpt lat="45.65824" lon="0.57908">
        <ele>142.453125</ele>
        <time>2018-08-01T07:40:24Z</time>
      </trkpt>
      <trkpt lat="45.65825" lon="0.57902">
        <ele>141.890625</ele>
        <time>2018-08-01T07:40:25Z</time>
      </trkpt>
      <trkpt lat="45.65827" lon="0.57895">
        <ele>141.28125</ele>
        <time>2018-08-01T07:40:26Z</time>
      </trkpt>
      <trkpt lat="45.65833" lon="0.57852">
        <ele>136.875</ele>
        <time>2018-08-01T07:40:32Z</time>
      </trkpt>
      <trkpt lat="45.65835" lon="0.57845">
        <ele>136.34375</ele>
        <time>2018-08-01T07:40:33Z</time>
      </trkpt>
      <trkpt lat="45.65838" lon="0.57838">
        <ele>135.84765625</ele>
        <time>2018-08-01T07:40:34Z</time>
      </trkpt>
      <trkpt lat="45.65842" lon="0.57833">
        <ele>135.41015625</ele>
        <time>2018-08-01T07:40:35Z</time>
      </trkpt>
      <trkpt lat="45.65846" lon="0.57829">
        <ele>135.046875</ele>
        <time>2018-08-01T07:40:36Z</time>
      </trkpt>
      <trkpt lat="45.65851" lon="0.57825">
        <ele>134.7109375</ele>
        <time>2018-08-01T07:40:37Z</time>
      </trkpt>
      <trkpt lat="45.65856" lon="0.57822">
        <ele>134.45703125</ele>
        <time>2018-08-01T07:40:38Z</time>
      </trkpt>
      <trkpt lat="45.65862" lon="0.57821">
        <ele>134.29296875</ele>
        <time>2018-08-01T07:40:39Z</time>
      </trkpt>
      <trkpt lat="45.65867" lon="0.57821">
        <ele>134.21875</ele>
        <time>2018-08-01T07:40:40Z</time>
      </trkpt>
      <trkpt lat="45.65872" lon="0.57821">
        <ele>134.23046875</ele>
        <time>2018-08-01T07:40:41Z</time>
      </trkpt>
      <trkpt lat="45.65877" lon="0.57823">
        <ele>134.3125</ele>
        <time>2018-08-01T07:40:42Z</time>
      </trkpt>
      <trkpt lat="45.65887" lon="0.57827">
        <ele>134.4921875</ele>
        <time>2018-08-01T07:40:44Z</time>
      </trkpt>
      <trkpt lat="45.65891" lon="0.57829">
        <ele>134.515625</ele>
        <time>2018-08-01T07:40:45Z</time>
      </trkpt>
      <trkpt lat="45.65904" lon="0.57839">
        <ele>134.5703125</ele>
        <time>2018-08-01T07:40:48Z</time>
      </trkpt>
      <trkpt lat="45.65927" lon="0.57857">
        <ele>134.2734375</ele>
        <time>2018-08-01T07:40:53Z</time>
      </trkpt>
      <trkpt lat="45.65956" lon="0.57885">
        <ele>135.7421875</ele>
        <time>2018-08-01T07:40:59Z</time>
      </trkpt>
      <trkpt lat="45.65991" lon="0.57929">
        <ele>136.69921875</ele>
        <time>2018-08-01T07:41:07Z</time>
      </trkpt>
      <trkpt lat="45.66024" lon="0.57972">
        <ele>140.34375</ele>
        <time>2018-08-01T07:41:15Z</time>
      </trkpt>
      <trkpt lat="45.66062" lon="0.58021">
        <ele>144.58984375</ele>
        <time>2018-08-01T07:41:24Z</time>
      </trkpt>
      <trkpt lat="45.66079" lon="0.58047">
        <ele>148.87109375</ele>
        <time>2018-08-01T07:41:29Z</time>
      </trkpt>
      <trkpt lat="45.66085" lon="0.58057">
        <ele>150.03125</ele>
        <time>2018-08-01T07:41:31Z</time>
      </trkpt>
      <trkpt lat="45.66093" lon="0.58073">
        <ele>151.203125</ele>
        <time>2018-08-01T07:41:34Z</time>
      </trkpt>
      <trkpt lat="45.66095" lon="0.58079">
        <ele>151.44140625</ele>
        <time>2018-08-01T07:41:35Z</time>
      </trkpt>
      <trkpt lat="45.66099" lon="0.58096">
        <ele>152.1953125</ele>
        <time>2018-08-01T07:41:38Z</time>
      </trkpt>
      <trkpt lat="45.66099" lon="0.58102">
        <ele>152.1171875</ele>
        <time>2018-08-01T07:41:39Z</time>
      </trkpt>
      <trkpt lat="45.66099" lon="0.58108">
        <ele>151.9140625</ele>
        <time>2018-08-01T07:41:40Z</time>
      </trkpt>
      <trkpt lat="45.66099" lon="0.58114">
        <ele>151.5859375</ele>
        <time>2018-08-01T07:41:41Z</time>
      </trkpt>
      <trkpt lat="45.66098" lon="0.58119">
        <ele>151.203125</ele>
        <time>2018-08-01T07:41:42Z</time>
      </trkpt>
      <trkpt lat="45.66097" lon="0.58124">
        <ele>150.86328125</ele>
        <time>2018-08-01T07:41:43Z</time>
      </trkpt>
      <trkpt lat="45.66083" lon="0.58162">
        <ele>148.453125</ele>
        <time>2018-08-01T07:41:51Z</time>
      </trkpt>
      <trkpt lat="45.66073" lon="0.58186">
        <ele>147.21875</ele>
        <time>2018-08-01T07:41:56Z</time>
      </trkpt>
      <trkpt lat="45.66058" lon="0.58224">
        <ele>146.82421875</ele>
        <time>2018-08-01T07:42:04Z</time>
      </trkpt>
      <trkpt lat="45.66047" lon="0.58257">
        <ele>146.97265625</ele>
        <time>2018-08-01T07:42:11Z</time>
      </trkpt>
      <trkpt lat="45.66035" lon="0.58303">
        <ele>146.96484375</ele>
        <time>2018-08-01T07:42:19Z</time>
      </trkpt>
      <trkpt lat="45.66031" lon="0.58345">
        <ele>147.12109375</ele>
        <time>2018-08-01T07:42:26Z</time>
      </trkpt>
      <trkpt lat="45.66032" lon="0.5838">
        <ele>147.76171875</ele>
        <time>2018-08-01T07:42:33Z</time>
      </trkpt>
      <trkpt lat="45.66039" lon="0.5841">
        <ele>148.8359375</ele>
        <time>2018-08-01T07:42:39Z</time>
      </trkpt>
      <trkpt lat="45.66047" lon="0.58434">
        <ele>148.66015625</ele>
        <time>2018-08-01T07:42:44Z</time>
      </trkpt>
      <trkpt lat="45.66056" lon="0.58451">
        <ele>148.33203125</ele>
        <time>2018-08-01T07:42:50Z</time>
      </trkpt>
      <trkpt lat="45.66069" lon="0.58466">
        <ele>148.1796875</ele>
        <time>2018-08-01T07:42:55Z</time>
      </trkpt>
      <trkpt lat="45.66095" lon="0.58503">
        <ele>149.1875</ele>
        <time>2018-08-01T07:43:05Z</time>
      </trkpt>
      <trkpt lat="45.66112" lon="0.58524">
        <ele>150.5390625</ele>
        <time>2018-08-01T07:43:12Z</time>
      </trkpt>
      <trkpt lat="45.66129" lon="0.58547">
        <ele>152.48828125</ele>
        <time>2018-08-01T07:43:19Z</time>
      </trkpt>
      <trkpt lat="45.66145" lon="0.5857">
        <ele>154.48046875</ele>
        <time>2018-08-01T07:43:26Z</time>
      </trkpt>
      <trkpt lat="45.66152" lon="0.58595">
        <ele>154</ele>
        <time>2018-08-01T07:43:32Z</time>
      </trkpt>
      <trkpt lat="45.66154" lon="0.58609">
        <ele>153.3671875</ele>
        <time>2018-08-01T07:43:34Z</time>
      </trkpt>
      <trkpt lat="45.66156" lon="0.58616">
        <ele>153.12109375</ele>
        <time>2018-08-01T07:43:35Z</time>
      </trkpt>
      <trkpt lat="45.66159" lon="0.58625">
        <ele>152.90625</ele>
        <time>2018-08-01T07:43:36Z</time>
      </trkpt>
      <trkpt lat="45.6617" lon="0.58656">
        <ele>149.98046875</ele>
        <time>2018-08-01T07:43:39Z</time>
      </trkpt>
      <trkpt lat="45.66174" lon="0.58667">
        <ele>148.67578125</ele>
        <time>2018-08-01T07:43:40Z</time>
      </trkpt>
      <trkpt lat="45.66189" lon="0.587">
        <ele>145.234375</ele>
        <time>2018-08-01T07:43:43Z</time>
      </trkpt>
      <trkpt lat="45.66224" lon="0.58717">
        <ele>144.96875</ele>
        <time>2018-08-01T07:43:48Z</time>
      </trkpt>
      <trkpt lat="45.66248" lon="0.58717">
        <ele>144.05078125</ele>
        <time>2018-08-01T07:43:52Z</time>
      </trkpt>
      <trkpt lat="45.6626" lon="0.58714">
        <ele>144.05078125</ele>
        <time>2018-08-01T07:43:54Z</time>
      </trkpt>
      <trkpt lat="45.66273" lon="0.58706">
        <ele>144.546875</ele>
        <time>2018-08-01T07:43:57Z</time>
      </trkpt>
      <trkpt lat="45.66276" lon="0.58704">
        <ele>144.50390625</ele>
        <time>2018-08-01T07:43:58Z</time>
      </trkpt>
      <trkpt lat="45.66295" lon="0.58693">
        <ele>143.6953125</ele>
        <time>2018-08-01T07:44:05Z</time>
      </trkpt>
      <trkpt lat="45.66305" lon="0.58685">
        <ele>143.16796875</ele>
        <time>2018-08-01T07:44:08Z</time>
      </trkpt>
      <trkpt lat="45.66316" lon="0.58674">
        <ele>143.09765625</ele>
        <time>2018-08-01T07:44:11Z</time>
      </trkpt>
      <trkpt lat="45.66326" lon="0.58665">
        <ele>142.703125</ele>
        <time>2018-08-01T07:44:13Z</time>
      </trkpt>
      <trkpt lat="45.6634" lon="0.58643">
        <ele>143.4609375</ele>
        <time>2018-08-01T07:44:17Z</time>
      </trkpt>
      <trkpt lat="45.66343" lon="0.58639">
        <ele>143.5078125</ele>
        <time>2018-08-01T07:44:18Z</time>
      </trkpt>
      <trkpt lat="45.66367" lon="0.58611">
        <ele>143.47265625</ele>
        <time>2018-08-01T07:44:26Z</time>
      </trkpt>
      <trkpt lat="45.66381" lon="0.58595">
        <ele>143.40234375</ele>
        <time>2018-08-01T07:44:31Z</time>
      </trkpt>
      <trkpt lat="45.66386" lon="0.58585">
        <ele>143.91015625</ele>
        <time>2018-08-01T07:44:35Z</time>
      </trkpt>
      <trkpt lat="45.66392" lon="0.58573">
        <ele>145.109375</ele>
        <time>2018-08-01T07:44:42Z</time>
      </trkpt>
      <trkpt lat="45.66393" lon="0.58567">
        <ele>146.14453125</ele>
        <time>2018-08-01T07:44:56Z</time>
      </trkpt>
      <trkpt lat="45.66396" lon="0.58567">
        <ele>145.97265625</ele>
        <time>2018-08-01T07:45:12Z</time>
      </trkpt>
      <trkpt lat="45.66403" lon="0.5856">
        <ele>146.84765625</ele>
        <time>2018-08-01T07:45:22Z</time>
      </trkpt>
      <trkpt lat="45.66406" lon="0.58552">
        <ele>148.10546875</ele>
        <time>2018-08-01T07:45:25Z</time>
      </trkpt>
      <trkpt lat="45.66416" lon="0.58538">
        <ele>149.96484375</ele>
        <time>2018-08-01T07:45:30Z</time>
      </trkpt>
      <trkpt lat="45.66427" lon="0.58522">
        <ele>151.796875</ele>
        <time>2018-08-01T07:45:36Z</time>
      </trkpt>
      <trkpt lat="45.66444" lon="0.58513">
        <ele>151.62109375</ele>
        <time>2018-08-01T07:45:42Z</time>
      </trkpt>
      <trkpt lat="45.66462" lon="0.58507">
        <ele>150.53515625</ele>
        <time>2018-08-01T07:45:48Z</time>
      </trkpt>
      <trkpt lat="45.66477" lon="0.58507">
        <ele>148.984375</ele>
        <time>2018-08-01T07:45:52Z</time>
      </trkpt>
      <trkpt lat="45.66493" lon="0.58508">
        <ele>147.0078125</ele>
        <time>2018-08-01T07:45:56Z</time>
      </trkpt>
      <trkpt lat="45.66509" lon="0.58505">
        <ele>146.078125</ele>
        <time>2018-08-01T07:46:01Z</time>
      </trkpt>
      <trkpt lat="45.66523" lon="0.58487">
        <ele>147.4453125</ele>
        <time>2018-08-01T07:46:07Z</time>
      </trkpt>
      <trkpt lat="45.66532" lon="0.58465">
        <ele>149.578125</ele>
        <time>2018-08-01T07:46:14Z</time>
      </trkpt>
      <trkpt lat="45.66536" lon="0.58441">
        <ele>152.76171875</ele>
        <time>2018-08-01T07:46:20Z</time>
      </trkpt>
      <trkpt lat="45.66538" lon="0.58423">
        <ele>155.18359375</ele>
        <time>2018-08-01T07:46:24Z</time>
      </trkpt>
      <trkpt lat="45.66542" lon="0.5841">
        <ele>156.6640625</ele>
        <time>2018-08-01T07:46:28Z</time>
      </trkpt>
      <trkpt lat="45.66557" lon="0.58382">
        <ele>159.61328125</ele>
        <time>2018-08-01T07:46:36Z</time>
      </trkpt>
      <trkpt lat="45.66565" lon="0.58373">
        <ele>160.66015625</ele>
        <time>2018-08-01T07:46:40Z</time>
      </trkpt>
      <trkpt lat="45.66579" lon="0.58373">
        <ele>160.21484375</ele>
        <time>2018-08-01T07:46:46Z</time>
      </trkpt>
      <trkpt lat="45.66593" lon="0.58382">
        <ele>158.40234375</ele>
        <time>2018-08-01T07:46:52Z</time>
      </trkpt>
      <trkpt lat="45.66597" lon="0.58383">
        <ele>158.10546875</ele>
        <time>2018-08-01T07:46:54Z</time>
      </trkpt>
      <trkpt lat="45.66613" lon="0.58374">
        <ele>159.296875</ele>
        <time>2018-08-01T07:47:02Z</time>
      </trkpt>
      <trkpt lat="45.66624" lon="0.58362">
        <ele>161.45703125</ele>
        <time>2018-08-01T07:47:07Z</time>
      </trkpt>
      <trkpt lat="45.66639" lon="0.5835">
        <ele>163.7578125</ele>
        <time>2018-08-01T07:47:14Z</time>
      </trkpt>
      <trkpt lat="45.66656" lon="0.58344">
        <ele>165.5859375</ele>
        <time>2018-08-01T07:47:19Z</time>
      </trkpt>
      <trkpt lat="45.66676" lon="0.58334">
        <ele>169.80078125</ele>
        <time>2018-08-01T07:47:25Z</time>
      </trkpt>
      <trkpt lat="45.66696" lon="0.58344">
        <ele>170.9453125</ele>
        <time>2018-08-01T07:47:31Z</time>
      </trkpt>
      <trkpt lat="45.66708" lon="0.58348">
        <ele>171.66796875</ele>
        <time>2018-08-01T07:47:35Z</time>
      </trkpt>
      <trkpt lat="45.66715" lon="0.58354">
        <ele>171.52734375</ele>
        <time>2018-08-01T07:47:38Z</time>
      </trkpt>
      <trkpt lat="45.66733" lon="0.58365">
        <ele>170.7421875</ele>
        <time>2018-08-01T07:47:44Z</time>
      </trkpt>
      <trkpt lat="45.66754" lon="0.58375">
        <ele>170.75</ele>
        <time>2018-08-01T07:47:50Z</time>
      </trkpt>
      <trkpt lat="45.6677" lon="0.5838">
        <ele>171.328125</ele>
        <time>2018-08-01T07:47:56Z</time>
      </trkpt>
      <trkpt lat="45.66783" lon="0.58382">
        <ele>172.5234375</ele>
        <time>2018-08-01T07:48:03Z</time>
      </trkpt>
      <trkpt lat="45.66789" lon="0.58384">
        <ele>173.04296875</ele>
        <time>2018-08-01T07:48:06Z</time>
      </trkpt>
      <trkpt lat="45.66802" lon="0.58389">
        <ele>173.9453125</ele>
        <time>2018-08-01T07:48:13Z</time>
      </trkpt>
      <trkpt lat="45.66804" lon="0.5839">
        <ele>173.95703125</ele>
        <time>2018-08-01T07:48:14Z</time>
      </trkpt>
      <trkpt lat="45.6682" lon="0.584">
        <ele>174.74609375</ele>
        <time>2018-08-01T07:48:23Z</time>
      </trkpt>
      <trkpt lat="45.66833" lon="0.58409">
        <ele>175.07421875</ele>
        <time>2018-08-01T07:48:31Z</time>
      </trkpt>
      <trkpt lat="45.66836" lon="0.58411">
        <ele>174.9375</ele>
        <time>2018-08-01T07:48:33Z</time>
      </trkpt>
      <trkpt lat="45.66847" lon="0.58414">
        <ele>175.00390625</ele>
        <time>2018-08-01T07:48:41Z</time>
      </trkpt>
      <trkpt lat="45.66861" lon="0.5841">
        <ele>176.05859375</ele>
        <time>2018-08-01T07:48:48Z</time>
      </trkpt>
      <trkpt lat="45.66876" lon="0.58401">
        <ele>177.953125</ele>
        <time>2018-08-01T07:48:57Z</time>
      </trkpt>
      <trkpt lat="45.66893" lon="0.58398">
        <ele>178.01953125</ele>
        <time>2018-08-01T07:49:03Z</time>
      </trkpt>
      <trkpt lat="45.66905" lon="0.584">
        <ele>176.8203125</ele>
        <time>2018-08-01T07:49:05Z</time>
      </trkpt>
      <trkpt lat="45.66919" lon="0.58402">
        <ele>175.34765625</ele>
        <time>2018-08-01T07:49:07Z</time>
      </trkpt>
      <trkpt lat="45.66927" lon="0.58403">
        <ele>174.66796875</ele>
        <time>2018-08-01T07:49:08Z</time>
      </trkpt>
      <trkpt lat="45.66948" lon="0.58403">
        <ele>174.59375</ele>
        <time>2018-08-01T07:49:11Z</time>
      </trkpt>
      <trkpt lat="45.66961" lon="0.58401">
        <ele>176.20703125</ele>
        <time>2018-08-01T07:49:13Z</time>
      </trkpt>
      <trkpt lat="45.66969" lon="0.58406">
        <ele>176.890625</ele>
        <time>2018-08-01T07:49:15Z</time>
      </trkpt>
      <trkpt lat="45.66972" lon="0.58411">
        <ele>176.91015625</ele>
        <time>2018-08-01T07:49:16Z</time>
      </trkpt>
      <trkpt lat="45.66972" lon="0.58416">
        <ele>176.79296875</ele>
        <time>2018-08-01T07:49:17Z</time>
      </trkpt>
      <trkpt lat="45.66971" lon="0.58419">
        <ele>176.4453125</ele>
        <time>2018-08-01T07:49:18Z</time>
      </trkpt>
      <trkpt lat="45.66969" lon="0.58422">
        <ele>176.07421875</ele>
        <time>2018-08-01T07:49:19Z</time>
      </trkpt>
      <trkpt lat="45.66967" lon="0.58424">
        <ele>175.62109375</ele>
        <time>2018-08-01T07:49:20Z</time>
      </trkpt>
      <trkpt lat="45.66964" lon="0.58426">
        <ele>175.0859375</ele>
        <time>2018-08-01T07:49:21Z</time>
      </trkpt>
      <trkpt lat="45.66949" lon="0.58439">
        <ele>172.2109375</ele>
        <time>2018-08-01T07:49:26Z</time>
      </trkpt>
      <trkpt lat="45.6694" lon="0.58457">
        <ele>169.62890625</ele>
        <time>2018-08-01T07:49:31Z</time>
      </trkpt>
      <trkpt lat="45.66934" lon="0.58477">
        <ele>168.98046875</ele>
        <time>2018-08-01T07:49:35Z</time>
      </trkpt>
      <trkpt lat="45.66922" lon="0.58512">
        <ele>167.62109375</ele>
        <time>2018-08-01T07:49:42Z</time>
      </trkpt>
      <trkpt lat="45.66921" lon="0.58519">
        <ele>167.27734375</ele>
        <time>2018-08-01T07:49:43Z</time>
      </trkpt>
      <trkpt lat="45.66918" lon="0.58541">
        <ele>167.27734375</ele>
        <time>2018-08-01T07:49:46Z</time>
      </trkpt>
      <trkpt lat="45.66918" lon="0.58547">
        <ele>167.4609375</ele>
        <time>2018-08-01T07:49:47Z</time>
      </trkpt>
      <trkpt lat="45.6692" lon="0.58554">
        <ele>167.96875</ele>
        <time>2018-08-01T07:49:48Z</time>
      </trkpt>
      <trkpt lat="45.66922" lon="0.58564">
        <ele>168.453125</ele>
        <time>2018-08-01T07:49:49Z</time>
      </trkpt>
      <trkpt lat="45.66924" lon="0.58572">
        <ele>169.0078125</ele>
        <time>2018-08-01T07:49:50Z</time>
      </trkpt>
      <trkpt lat="45.66926" lon="0.58579">
        <ele>169.43359375</ele>
        <time>2018-08-01T07:49:51Z</time>
      </trkpt>
      <trkpt lat="45.66946" lon="0.5862">
        <ele>171.81640625</ele>
        <time>2018-08-01T07:49:59Z</time>
      </trkpt>
      <trkpt lat="45.66968" lon="0.58645">
        <ele>172.33203125</ele>
        <time>2018-08-01T07:50:06Z</time>
      </trkpt>
      <trkpt lat="45.66971" lon="0.58645">
        <ele>172.62109375</ele>
        <time>2018-08-01T07:50:07Z</time>
      </trkpt>
      <trkpt lat="45.66974" lon="0.58644">
        <ele>173.0390625</ele>
        <time>2018-08-01T07:50:08Z</time>
      </trkpt>
      <trkpt lat="45.66975" lon="0.58643">
        <ele>173.20703125</ele>
        <time>2018-08-01T07:50:09Z</time>
      </trkpt>
      <trkpt lat="45.66975" lon="0.58642">
        <ele>173.3046875</ele>
        <time>2018-08-01T07:50:10Z</time>
      </trkpt>
      <trkpt lat="45.66975" lon="0.58641">
        <ele>173.40625</ele>
        <time>2018-08-01T07:50:11Z</time>
      </trkpt>
      <trkpt lat="45.66975" lon="0.58639">
        <ele>173.52734375</ele>
        <time>2018-08-01T07:50:12Z</time>
      </trkpt>
      <trkpt lat="45.66976" lon="0.58638">
        <ele>173.70703125</ele>
        <time>2018-08-01T07:50:13Z</time>
      </trkpt>
      <trkpt lat="45.66976" lon="0.58635">
        <ele>173.9375</ele>
        <time>2018-08-01T07:50:14Z</time>
      </trkpt>
      <trkpt lat="45.66976" lon="0.58633">
        <ele>174.1484375</ele>
        <time>2018-08-01T07:50:15Z</time>
      </trkpt>
      <trkpt lat="45.66976" lon="0.58631">
        <ele>174.3125</ele>
        <time>2018-08-01T07:50:16Z</time>
      </trkpt>
      <trkpt lat="45.66976" lon="0.58629">
        <ele>174.34765625</ele>
        <time>2018-08-01T07:50:17Z</time>
      </trkpt>
      <trkpt lat="45.66977" lon="0.58627">
        <ele>174.40625</ele>
        <time>2018-08-01T07:50:18Z</time>
      </trkpt>
      <trkpt lat="45.66977" lon="0.58625">
        <ele>174.4921875</ele>
        <time>2018-08-01T07:50:19Z</time>
      </trkpt>
      <trkpt lat="45.66978" lon="0.58623">
        <ele>174.60546875</ele>
        <time>2018-08-01T07:50:20Z</time>
      </trkpt>
      <trkpt lat="45.66986" lon="0.5861">
        <ele>175.50390625</ele>
        <time>2018-08-01T07:50:27Z</time>
      </trkpt>
      <trkpt lat="45.66996" lon="0.586">
        <ele>176.734375</ele>
        <time>2018-08-01T07:50:35Z</time>
      </trkpt>
      <trkpt lat="45.67007" lon="0.58594">
        <ele>178.4765625</ele>
        <time>2018-08-01T07:50:43Z</time>
      </trkpt>
      <trkpt lat="45.67019" lon="0.58585">
        <ele>180.296875</ele>
        <time>2018-08-01T07:50:51Z</time>
      </trkpt>
      <trkpt lat="45.67029" lon="0.58579">
        <ele>181.91796875</ele>
        <time>2018-08-01T07:50:59Z</time>
      </trkpt>
      <trkpt lat="45.67042" lon="0.5857">
        <ele>183.50390625</ele>
        <time>2018-08-01T07:51:07Z</time>
      </trkpt>
      <trkpt lat="45.67052" lon="0.58559">
        <ele>184.57421875</ele>
        <time>2018-08-01T07:51:16Z</time>
      </trkpt>
      <trkpt lat="45.67054" lon="0.58557">
        <ele>184.76171875</ele>
        <time>2018-08-01T07:51:18Z</time>
      </trkpt>
      <trkpt lat="45.67055" lon="0.58556">
        <ele>184.890625</ele>
        <time>2018-08-01T07:51:19Z</time>
      </trkpt>
      <trkpt lat="45.67065" lon="0.58547">
        <ele>185.7734375</ele>
        <time>2018-08-01T07:51:26Z</time>
      </trkpt>
      <trkpt lat="45.67073" lon="0.58538">
        <ele>186.43359375</ele>
        <time>2018-08-01T07:51:32Z</time>
      </trkpt>
      <trkpt lat="45.67075" lon="0.58535">
        <ele>186.67578125</ele>
        <time>2018-08-01T07:51:34Z</time>
      </trkpt>
      <trkpt lat="45.67076" lon="0.58535">
        <ele>186.765625</ele>
        <time>2018-08-01T07:51:35Z</time>
      </trkpt>
      <trkpt lat="45.67089" lon="0.58528">
        <ele>188.0546875</ele>
        <time>2018-08-01T07:51:44Z</time>
      </trkpt>
      <trkpt lat="45.67098" lon="0.58521">
        <ele>189.01953125</ele>
        <time>2018-08-01T07:51:51Z</time>
      </trkpt>
      <trkpt lat="45.67112" lon="0.58514">
        <ele>190.953125</ele>
        <time>2018-08-01T07:52:00Z</time>
      </trkpt>
      <trkpt lat="45.67127" lon="0.58508">
        <ele>192.8203125</ele>
        <time>2018-08-01T07:52:08Z</time>
      </trkpt>
      <trkpt lat="45.67142" lon="0.58506">
        <ele>194.6484375</ele>
        <time>2018-08-01T07:52:16Z</time>
      </trkpt>
      <trkpt lat="45.67159" lon="0.58506">
        <ele>196.50390625</ele>
        <time>2018-08-01T07:52:26Z</time>
      </trkpt>
      <trkpt lat="45.6717" lon="0.58507">
        <ele>197.30859375</ele>
        <time>2018-08-01T07:52:32Z</time>
      </trkpt>
      <trkpt lat="45.67172" lon="0.58507">
        <ele>197.48046875</ele>
        <time>2018-08-01T07:52:33Z</time>
      </trkpt>
      <trkpt lat="45.67174" lon="0.58507">
        <ele>197.62890625</ele>
        <time>2018-08-01T07:52:34Z</time>
      </trkpt>
      <trkpt lat="45.67176" lon="0.58506">
        <ele>197.78515625</ele>
        <time>2018-08-01T07:52:35Z</time>
      </trkpt>
      <trkpt lat="45.67178" lon="0.58506">
        <ele>197.94921875</ele>
        <time>2018-08-01T07:52:36Z</time>
      </trkpt>
      <trkpt lat="45.6718" lon="0.58506">
        <ele>198.109375</ele>
        <time>2018-08-01T07:52:37Z</time>
      </trkpt>
      <trkpt lat="45.67182" lon="0.58506">
        <ele>198.28125</ele>
        <time>2018-08-01T07:52:38Z</time>
      </trkpt>
      <trkpt lat="45.67183" lon="0.58505">
        <ele>198.44140625</ele>
        <time>2018-08-01T07:52:39Z</time>
      </trkpt>
      <trkpt lat="45.67185" lon="0.58506">
        <ele>198.578125</ele>
        <time>2018-08-01T07:52:40Z</time>
      </trkpt>
      <trkpt lat="45.67187" lon="0.58506">
        <ele>198.703125</ele>
        <time>2018-08-01T07:52:41Z</time>
      </trkpt>
      <trkpt lat="45.67189" lon="0.58505">
        <ele>198.83984375</ele>
        <time>2018-08-01T07:52:42Z</time>
      </trkpt>
      <trkpt lat="45.67203" lon="0.58506">
        <ele>199.88671875</ele>
        <time>2018-08-01T07:52:49Z</time>
      </trkpt>
      <trkpt lat="45.67219" lon="0.58508">
        <ele>200.87109375</ele>
        <time>2018-08-01T07:52:58Z</time>
      </trkpt>
      <trkpt lat="45.67232" lon="0.58508">
        <ele>200.67578125</ele>
        <time>2018-08-01T07:53:05Z</time>
      </trkpt>
      <trkpt lat="45.6725" lon="0.58509">
        <ele>200.453125</ele>
        <time>2018-08-01T07:53:15Z</time>
      </trkpt>
      <trkpt lat="45.67266" lon="0.58509">
        <ele>200.26953125</ele>
        <time>2018-08-01T07:53:24Z</time>
      </trkpt>
      <trkpt lat="45.67285" lon="0.58509">
        <ele>198.6796875</ele>
        <time>2018-08-01T07:53:35Z</time>
      </trkpt>
      <trkpt lat="45.67297" lon="0.58507">
        <ele>197.27734375</ele>
        <time>2018-08-01T07:53:42Z</time>
      </trkpt>
      <trkpt lat="45.67307" lon="0.58497">
        <ele>196.296875</ele>
        <time>2018-08-01T07:53:49Z</time>
      </trkpt>
      <trkpt lat="45.67309" lon="0.5847">
        <ele>196.9765625</ele>
        <time>2018-08-01T07:53:58Z</time>
      </trkpt>
      <trkpt lat="45.67306" lon="0.58442">
        <ele>198.24609375</ele>
        <time>2018-08-01T07:54:07Z</time>
      </trkpt>
      <trkpt lat="45.673" lon="0.5841">
        <ele>200.01953125</ele>
        <time>2018-08-01T07:54:17Z</time>
      </trkpt>
      <trkpt lat="45.67293" lon="0.58379">
        <ele>201.51953125</ele>
        <time>2018-08-01T07:54:27Z</time>
      </trkpt>
      <trkpt lat="45.67287" lon="0.58351">
        <ele>202.6796875</ele>
        <time>2018-08-01T07:54:36Z</time>
      </trkpt>
      <trkpt lat="45.67281" lon="0.58321">
        <ele>202.94921875</ele>
        <time>2018-08-01T07:54:45Z</time>
      </trkpt>
      <trkpt lat="45.67275" lon="0.58296">
        <ele>202.97265625</ele>
        <time>2018-08-01T07:54:52Z</time>
      </trkpt>
      <trkpt lat="45.67269" lon="0.5827">
        <ele>204.56640625</ele>
        <time>2018-08-01T07:54:59Z</time>
      </trkpt>
      <trkpt lat="45.67266" lon="0.5824">
        <ele>206.171875</ele>
        <time>2018-08-01T07:55:06Z</time>
      </trkpt>
      <trkpt lat="45.67265" lon="0.58237">
        <ele>206.5625</ele>
        <time>2018-08-01T07:55:07Z</time>
      </trkpt>
      <trkpt lat="45.67265" lon="0.58232">
        <ele>206.890625</ele>
        <time>2018-08-01T07:55:08Z</time>
      </trkpt>
      <trkpt lat="45.67265" lon="0.58227">
        <ele>207.1484375</ele>
        <time>2018-08-01T07:55:09Z</time>
      </trkpt>
      <trkpt lat="45.67266" lon="0.58223">
        <ele>207.12109375</ele>
        <time>2018-08-01T07:55:10Z</time>
      </trkpt>
      <trkpt lat="45.67269" lon="0.58218">
        <ele>206.85546875</ele>
        <time>2018-08-01T07:55:11Z</time>
      </trkpt>
      <trkpt lat="45.67273" lon="0.58213">
        <ele>206.6484375</ele>
        <time>2018-08-01T07:55:12Z</time>
      </trkpt>
      <trkpt lat="45.67276" lon="0.58206">
        <ele>206.76171875</ele>
        <time>2018-08-01T07:55:13Z</time>
      </trkpt>
      <trkpt lat="45.67279" lon="0.58198">
        <ele>206.8671875</ele>
        <time>2018-08-01T07:55:14Z</time>
      </trkpt>
      <trkpt lat="45.67283" lon="0.58191">
        <ele>206.9140625</ele>
        <time>2018-08-01T07:55:15Z</time>
      </trkpt>
      <trkpt lat="45.67292" lon="0.58175">
        <ele>207.015625</ele>
        <time>2018-08-01T07:55:17Z</time>
      </trkpt>
      <trkpt lat="45.67307" lon="0.58153">
        <ele>206.9453125</ele>
        <time>2018-08-01T07:55:20Z</time>
      </trkpt>
      <trkpt lat="45.67311" lon="0.58149">
        <ele>206.77734375</ele>
        <time>2018-08-01T07:55:21Z</time>
      </trkpt>
      <trkpt lat="45.67316" lon="0.58148">
        <ele>206.39453125</ele>
        <time>2018-08-01T07:55:22Z</time>
      </trkpt>
      <trkpt lat="45.67321" lon="0.5815">
        <ele>205.77734375</ele>
        <time>2018-08-01T07:55:23Z</time>
      </trkpt>
      <trkpt lat="45.67325" lon="0.58155">
        <ele>205.0625</ele>
        <time>2018-08-01T07:55:24Z</time>
      </trkpt>
      <trkpt lat="45.67329" lon="0.58161">
        <ele>204.4140625</ele>
        <time>2018-08-01T07:55:25Z</time>
      </trkpt>
      <trkpt lat="45.67333" lon="0.58167">
        <ele>204.30859375</ele>
        <time>2018-08-01T07:55:26Z</time>
      </trkpt>
      <trkpt lat="45.67352" lon="0.58197">
        <ele>205.25390625</ele>
        <time>2018-08-01T07:55:31Z</time>
      </trkpt>
      <trkpt lat="45.67356" lon="0.58199">
        <ele>205.73046875</ele>
        <time>2018-08-01T07:55:32Z</time>
      </trkpt>
      <trkpt lat="45.6736" lon="0.582">
        <ele>206.1484375</ele>
        <time>2018-08-01T07:55:33Z</time>
      </trkpt>
      <trkpt lat="45.67364" lon="0.58198">
        <ele>206.48046875</ele>
        <time>2018-08-01T07:55:34Z</time>
      </trkpt>
      <trkpt lat="45.67367" lon="0.58197">
        <ele>206.74609375</ele>
        <time>2018-08-01T07:55:35Z</time>
      </trkpt>
      <trkpt lat="45.6737" lon="0.58194">
        <ele>206.96875</ele>
        <time>2018-08-01T07:55:36Z</time>
      </trkpt>
      <trkpt lat="45.67373" lon="0.58191">
        <ele>207.17578125</ele>
        <time>2018-08-01T07:55:37Z</time>
      </trkpt>
      <trkpt lat="45.67376" lon="0.58188">
        <ele>207.375</ele>
        <time>2018-08-01T07:55:38Z</time>
      </trkpt>
      <trkpt lat="45.67402" lon="0.58168">
        <ele>209.5546875</ele>
        <time>2018-08-01T07:55:46Z</time>
      </trkpt>
      <trkpt lat="45.67426" lon="0.58149">
        <ele>211.9140625</ele>
        <time>2018-08-01T07:55:54Z</time>
      </trkpt>
      <trkpt lat="45.67444" lon="0.58137">
        <ele>213.8671875</ele>
        <time>2018-08-01T07:56:02Z</time>
      </trkpt>
      <trkpt lat="45.67454" lon="0.58128">
        <ele>215.3359375</ele>
        <time>2018-08-01T07:56:09Z</time>
      </trkpt>
      <trkpt lat="45.67462" lon="0.58124">
        <ele>216.35546875</ele>
        <time>2018-08-01T07:56:14Z</time>
      </trkpt>
      <trkpt lat="45.67472" lon="0.58122">
        <ele>217.94140625</ele>
        <time>2018-08-01T07:56:21Z</time>
      </trkpt>
      <trkpt lat="45.67485" lon="0.58125">
        <ele>220.12109375</ele>
        <time>2018-08-01T07:56:28Z</time>
      </trkpt>
      <trkpt lat="45.67494" lon="0.58128">
        <ele>221.71484375</ele>
        <time>2018-08-01T07:56:35Z</time>
      </trkpt>
      <trkpt lat="45.67506" lon="0.58131">
        <ele>223.92578125</ele>
        <time>2018-08-01T07:56:41Z</time>
      </trkpt>
      <trkpt lat="45.67515" lon="0.58136">
        <ele>225.609375</ele>
        <time>2018-08-01T07:56:47Z</time>
      </trkpt>
      <trkpt lat="45.67517" lon="0.58137">
        <ele>225.87109375</ele>
        <time>2018-08-01T07:56:48Z</time>
      </trkpt>
      <trkpt lat="45.67519" lon="0.58137">
        <ele>226.16015625</ele>
        <time>2018-08-01T07:56:49Z</time>
      </trkpt>
      <trkpt lat="45.6752" lon="0.58138">
        <ele>226.3828125</ele>
        <time>2018-08-01T07:56:50Z</time>
      </trkpt>
      <trkpt lat="45.67522" lon="0.58139">
        <ele>226.6796875</ele>
        <time>2018-08-01T07:56:51Z</time>
      </trkpt>
      <trkpt lat="45.67523" lon="0.58139">
        <ele>226.953125</ele>
        <time>2018-08-01T07:56:52Z</time>
      </trkpt>
      <trkpt lat="45.67525" lon="0.5814">
        <ele>227.203125</ele>
        <time>2018-08-01T07:56:53Z</time>
      </trkpt>
      <trkpt lat="45.67526" lon="0.5814">
        <ele>227.4453125</ele>
        <time>2018-08-01T07:56:54Z</time>
      </trkpt>
      <trkpt lat="45.67538" lon="0.58143">
        <ele>229.48046875</ele>
        <time>2018-08-01T07:57:02Z</time>
      </trkpt>
      <trkpt lat="45.6755" lon="0.58149">
        <ele>231.33984375</ele>
        <time>2018-08-01T07:57:10Z</time>
      </trkpt>
      <trkpt lat="45.67566" lon="0.58157">
        <ele>232.3359375</ele>
        <time>2018-08-01T07:57:19Z</time>
      </trkpt>
      <trkpt lat="45.67585" lon="0.58162">
        <ele>233.671875</ele>
        <time>2018-08-01T07:57:29Z</time>
      </trkpt>
      <trkpt lat="45.67601" lon="0.58167">
        <ele>234.66796875</ele>
        <time>2018-08-01T07:57:36Z</time>
      </trkpt>
      <trkpt lat="45.67623" lon="0.58173">
        <ele>235.9140625</ele>
        <time>2018-08-01T07:57:46Z</time>
      </trkpt>
      <trkpt lat="45.6765" lon="0.58181">
        <ele>236.9609375</ele>
        <time>2018-08-01T07:57:56Z</time>
      </trkpt>
      <trkpt lat="45.67676" lon="0.58187">
        <ele>237.453125</ele>
        <time>2018-08-01T07:58:05Z</time>
      </trkpt>
      <trkpt lat="45.67698" lon="0.58193">
        <ele>237.55859375</ele>
        <time>2018-08-01T07:58:12Z</time>
      </trkpt>
      <trkpt lat="45.67728" lon="0.58199">
        <ele>237.93359375</ele>
        <time>2018-08-01T07:58:21Z</time>
      </trkpt>
      <trkpt lat="45.67751" lon="0.58206">
        <ele>237.93359375</ele>
        <time>2018-08-01T07:58:28Z</time>
      </trkpt>
      <trkpt lat="45.67769" lon="0.58214">
        <ele>237.92578125</ele>
        <time>2018-08-01T07:58:35Z</time>
      </trkpt>
      <trkpt lat="45.67797" lon="0.58223">
        <ele>238.125</ele>
        <time>2018-08-01T07:58:44Z</time>
      </trkpt>
      <trkpt lat="45.67813" lon="0.5823">
        <ele>238.16796875</ele>
        <time>2018-08-01T07:58:50Z</time>
      </trkpt>
      <trkpt lat="45.6783" lon="0.58236">
        <ele>238.32421875</ele>
        <time>2018-08-01T07:58:57Z</time>
      </trkpt>
      <trkpt lat="45.67832" lon="0.58235">
        <ele>238.390625</ele>
        <time>2018-08-01T07:58:58Z</time>
      </trkpt>
      <trkpt lat="45.67833" lon="0.58233">
        <ele>238.5</ele>
        <time>2018-08-01T07:58:59Z</time>
      </trkpt>
      <trkpt lat="45.67834" lon="0.58231">
        <ele>238.63671875</ele>
        <time>2018-08-01T07:59:00Z</time>
      </trkpt>
      <trkpt lat="45.67835" lon="0.58228">
        <ele>238.79296875</ele>
        <time>2018-08-01T07:59:01Z</time>
      </trkpt>
      <trkpt lat="45.67836" lon="0.58225">
        <ele>238.953125</ele>
        <time>2018-08-01T07:59:02Z</time>
      </trkpt>
      <trkpt lat="45.67846" lon="0.58193">
        <ele>240.6875</ele>
        <time>2018-08-01T07:59:12Z</time>
      </trkpt>
      <trkpt lat="45.67856" lon="0.58158">
        <ele>242.2890625</ele>
        <time>2018-08-01T07:59:22Z</time>
      </trkpt>
      <trkpt lat="45.67865" lon="0.58127">
        <ele>243.5625</ele>
        <time>2018-08-01T07:59:32Z</time>
      </trkpt>
      <trkpt lat="45.6787" lon="0.58111">
        <ele>244.328125</ele>
        <time>2018-08-01T07:59:39Z</time>
      </trkpt>
      <trkpt lat="45.67873" lon="0.5809">
        <ele>245.4296875</ele>
        <time>2018-08-01T07:59:46Z</time>
      </trkpt>
      <trkpt lat="45.67879" lon="0.58063">
        <ele>246.796875</ele>
        <time>2018-08-01T07:59:52Z</time>
      </trkpt>
      <trkpt lat="45.67882" lon="0.58036">
        <ele>248.16796875</ele>
      </trkpt>
      <trkpt lat="45.67887" lon="0.58009">
        <ele>249.4140625</ele>
      </trkpt>
      <trkpt lat="45.67891" lon="0.57985">
        <ele>250.2578125</ele>
      </trkpt>
      <trkpt lat="45.67893" lon="0.5797">
        <ele>250.8046875</ele>
      </trkpt>
      <trkpt lat="45.67896" lon="0.57944">
        <ele>251.171875</ele>
      </trkpt>
      <trkpt lat="45.67901" lon="0.57918">
        <ele>251.52734375</ele>
      </trkpt>
      <trkpt lat="45.67905" lon="0.57893">
        <ele>251.53125</ele>
      </trkpt>
      <trkpt lat="45.67909" lon="0.57875">
        <ele>251.54296875</ele>
      </trkpt>
      <trkpt lat="45.67916" lon="0.57849">
        <ele>251.953125</ele>
      </trkpt>
      <trkpt lat="45.67922" lon="0.57829">
        <ele>252.5859375</ele>
      </trkpt>
      <trkpt lat="45.67927" lon="0.57809">
        <ele>253.0859375</ele>
      </trkpt>
      <trkpt lat="45.67933" lon="0.5779">
        <ele>253.4375</ele>
      </trkpt>
      <trkpt lat="45.67939" lon="0.57769">
        <ele>253.47265625</ele>
      </trkpt>
      <trkpt lat="45.67947" lon="0.57742">
        <ele>253.5390625</ele>
      </trkpt>
      <trkpt lat="45.67956" lon="0.57712">
        <ele>253.2890625</ele>
      </trkpt>
      <trkpt lat="45.67962" lon="0.57692">
        <ele>253.21484375</ele>
      </trkpt>
      <trkpt lat="45.67966" lon="0.57679">
        <ele>253.23828125</ele>
      </trkpt>
      <trkpt lat="45.67971" lon="0.57661">
        <ele>253.3671875</ele>
      </trkpt>
      <trkpt lat="45.67973" lon="0.57645">
        <ele>253.2890625</ele>
      </trkpt>
      <trkpt lat="45.67976" lon="0.5763">
        <ele>253.30859375</ele>
      </trkpt>
      <trkpt lat="45.67978" lon="0.57611">
        <ele>253.51953125</ele>
      </trkpt>
      <trkpt lat="45.67981" lon="0.57569">
        <ele>253.83984375</ele>
      </trkpt>
      <trkpt lat="45.67986" lon="0.57503">
        <ele>254.43359375</ele>
      </trkpt>
      <trkpt lat="45.67988" lon="0.5748">
        <ele>254.6015625</ele>
      </trkpt>
      <trkpt lat="45.67993" lon="0.5752">
        <ele>254.90234375</ele>
      </trkpt>
      <trkpt lat="45.67999" lon="0.57551">
        <ele>255.25390625</ele>
      </trkpt>
      <trkpt lat="45.68005" lon="0.57588">
        <ele>255.76953125</ele>
      </trkpt>
      <trkpt lat="45.68011" lon="0.5763">
        <ele>256.46875</ele>
      </trkpt>
      <trkpt lat="45.68016" lon="0.57664">
        <ele>257.2734375</ele>
      </trkpt>
      <trkpt lat="45.68022" lon="0.57707">
        <ele>258.171875</ele>
      </trkpt>
      <trkpt lat="45.68027" lon="0.57741">
        <ele>258.73046875</ele>
      </trkpt>
      <trkpt lat="45.68031" lon="0.57772">
        <ele>258.640625</ele>
      </trkpt>
      <trkpt lat="45.68037" lon="0.57788">
        <ele>258.6796875</ele>
      </trkpt>
      <trkpt lat="45.6804" lon="0.57795">
        <ele>258.69140625</ele>
      </trkpt>
      <trkpt lat="45.68046" lon="0.57804">
        <ele>258.6328125</ele>
      </trkpt>
      <trkpt lat="45.68052" lon="0.57812">
        <ele>258.53515625</ele>
      </trkpt>
      <trkpt lat="45.68072" lon="0.57828">
        <ele>258.1015625</ele>
      </trkpt>
      <trkpt lat="45.68085" lon="0.57839">
        <ele>257.69921875</ele>
      </trkpt>
      <trkpt lat="45.68109" lon="0.57857">
        <ele>256.7421875</ele>
      </trkpt>
      <trkpt lat="45.68131" lon="0.57875">
        <ele>255.25</ele>
      </trkpt>
      <trkpt lat="45.68147" lon="0.57887">
        <ele>254.02734375</ele>
      </trkpt>
      <trkpt lat="45.6817" lon="0.57905">
        <ele>252.484375</ele>
      </trkpt>
      <trkpt lat="45.68186" lon="0.57916">
        <ele>252.13671875</ele>
      </trkpt>
      <trkpt lat="45.68195" lon="0.57924">
        <ele>251.8984375</ele>
      </trkpt>
      <trkpt lat="45.68205" lon="0.57933">
        <ele>251.59375</ele>
      </trkpt>
      <trkpt lat="45.6821" lon="0.5794">
        <ele>251.26953125</ele>
        <time>2018-08-01T08:01:41Z</time>
      </trkpt>
      <trkpt lat="45.68215" lon="0.57946">
        <ele>251.0234375</ele>
        <time>2018-08-01T08:01:42Z</time>
      </trkpt>
      <trkpt lat="45.68219" lon="0.57952">
        <ele>250.74609375</ele>
        <time>2018-08-01T08:01:43Z</time>
      </trkpt>
      <trkpt lat="45.68223" lon="0.57959">
        <ele>250.4375</ele>
        <time>2018-08-01T08:01:44Z</time>
      </trkpt>
      <trkpt lat="45.68227" lon="0.57966">
        <ele>250.125</ele>
        <time>2018-08-01T08:01:45Z</time>
      </trkpt>
      <trkpt lat="45.68231" lon="0.57974">
        <ele>249.77734375</ele>
        <time>2018-08-01T08:01:46Z</time>
      </trkpt>
      <trkpt lat="45.68235" lon="0.57982">
        <ele>249.40625</ele>
        <time>2018-08-01T08:01:47Z</time>
      </trkpt>
      <trkpt lat="45.68238" lon="0.5799">
        <ele>249.00390625</ele>
        <time>2018-08-01T08:01:48Z</time>
      </trkpt>
      <trkpt lat="45.68241" lon="0.58">
        <ele>248.546875</ele>
        <time>2018-08-01T08:01:49Z</time>
      </trkpt>
      <trkpt lat="45.68244" lon="0.58008">
        <ele>248.13671875</ele>
        <time>2018-08-01T08:01:50Z</time>
      </trkpt>
      <trkpt lat="45.68248" lon="0.58015">
        <ele>247.859375</ele>
        <time>2018-08-01T08:01:51Z</time>
      </trkpt>
      <trkpt lat="45.68254" lon="0.58019">
        <ele>247.71484375</ele>
        <time>2018-08-01T08:01:52Z</time>
      </trkpt>
      <trkpt lat="45.68259" lon="0.58022">
        <ele>247.67578125</ele>
        <time>2018-08-01T08:01:53Z</time>
      </trkpt>
      <trkpt lat="45.68264" lon="0.58023">
        <ele>247.69140625</ele>
        <time>2018-08-01T08:01:54Z</time>
      </trkpt>
      <trkpt lat="45.68269" lon="0.58024">
        <ele>247.75390625</ele>
        <time>2018-08-01T08:01:55Z</time>
      </trkpt>
      <trkpt lat="45.68274" lon="0.58024">
        <ele>247.76171875</ele>
        <time>2018-08-01T08:01:56Z</time>
      </trkpt>
      <trkpt lat="45.68283" lon="0.58024">
        <ele>247.58203125</ele>
        <time>2018-08-01T08:01:58Z</time>
      </trkpt>
      <trkpt lat="45.68303" lon="0.58025">
        <ele>247.16796875</ele>
        <time>2018-08-01T08:02:03Z</time>
      </trkpt>
      <trkpt lat="45.68332" lon="0.58026">
        <ele>246.48046875</ele>
        <time>2018-08-01T08:02:10Z</time>
      </trkpt>
      <trkpt lat="45.68342" lon="0.58027">
        <ele>245.85546875</ele>
        <time>2018-08-01T08:02:12Z</time>
      </trkpt>
      <trkpt lat="45.68348" lon="0.58028">
        <ele>245.51953125</ele>
        <time>2018-08-01T08:02:13Z</time>
      </trkpt>
      <trkpt lat="45.68373" lon="0.58031">
        <ele>243.97265625</ele>
        <time>2018-08-01T08:02:17Z</time>
      </trkpt>
      <trkpt lat="45.68387" lon="0.58033">
        <ele>243.234375</ele>
        <time>2018-08-01T08:02:19Z</time>
      </trkpt>
      <trkpt lat="45.68409" lon="0.58032">
        <ele>242.87890625</ele>
        <time>2018-08-01T08:02:22Z</time>
      </trkpt>
      <trkpt lat="45.68442" lon="0.58026">
        <ele>242.7890625</ele>
        <time>2018-08-01T08:02:27Z</time>
      </trkpt>
      <trkpt lat="45.68448" lon="0.58026">
        <ele>243.0390625</ele>
        <time>2018-08-01T08:02:28Z</time>
      </trkpt>
      <trkpt lat="45.68454" lon="0.58027">
        <ele>243.2265625</ele>
        <time>2018-08-01T08:02:29Z</time>
      </trkpt>
      <trkpt lat="45.685" lon="0.58045">
        <ele>244.0625</ele>
        <time>2018-08-01T08:02:37Z</time>
      </trkpt>
      <trkpt lat="45.6851" lon="0.58049">
        <ele>243.83984375</ele>
        <time>2018-08-01T08:02:39Z</time>
      </trkpt>
      <trkpt lat="45.68554" lon="0.58078">
        <ele>242.78125</ele>
        <time>2018-08-01T08:02:48Z</time>
      </trkpt>
      <trkpt lat="45.68584" lon="0.58101">
        <ele>241.41796875</ele>
        <time>2018-08-01T08:02:54Z</time>
      </trkpt>
      <trkpt lat="45.68631" lon="0.58141">
        <ele>239.734375</ele>
        <time>2018-08-01T08:03:03Z</time>
      </trkpt>
      <trkpt lat="45.68637" lon="0.58144">
        <ele>239.390625</ele>
        <time>2018-08-01T08:03:04Z</time>
      </trkpt>
      <trkpt lat="45.68643" lon="0.58148">
        <ele>239.03515625</ele>
        <time>2018-08-01T08:03:05Z</time>
      </trkpt>
      <trkpt lat="45.6866" lon="0.58163">
        <ele>237.875</ele>
        <time>2018-08-01T08:03:08Z</time>
      </trkpt>
      <trkpt lat="45.68666" lon="0.58167">
        <ele>237.5703125</ele>
        <time>2018-08-01T08:03:09Z</time>
      </trkpt>
      <trkpt lat="45.68673" lon="0.58171">
        <ele>237.265625</ele>
        <time>2018-08-01T08:03:10Z</time>
      </trkpt>
      <trkpt lat="45.68735" lon="0.58202">
        <ele>233.96484375</ele>
        <time>2018-08-01T08:03:19Z</time>
      </trkpt>
      <trkpt lat="45.68757" lon="0.58218">
        <ele>232.96875</ele>
        <time>2018-08-01T08:03:22Z</time>
      </trkpt>
      <trkpt lat="45.68792" lon="0.58251">
        <ele>231.4765625</ele>
        <time>2018-08-01T08:03:27Z</time>
      </trkpt>
      <trkpt lat="45.68809" lon="0.58268">
        <ele>231.14453125</ele>
        <time>2018-08-01T08:03:30Z</time>
      </trkpt>
      <trkpt lat="45.68817" lon="0.58279">
        <ele>230.76171875</ele>
        <time>2018-08-01T08:03:32Z</time>
      </trkpt>
      <trkpt lat="45.68821" lon="0.58286">
        <ele>230.47265625</ele>
        <time>2018-08-01T08:03:33Z</time>
      </trkpt>
      <trkpt lat="45.68833" lon="0.58306">
        <ele>229.6015625</ele>
        <time>2018-08-01T08:03:36Z</time>
      </trkpt>
      <trkpt lat="45.68842" lon="0.58313">
        <ele>229.41796875</ele>
        <time>2018-08-01T08:03:39Z</time>
      </trkpt>
      <trkpt lat="45.68844" lon="0.58318">
        <ele>229.15234375</ele>
        <time>2018-08-01T08:03:40Z</time>
      </trkpt>
      <trkpt lat="45.68842" lon="0.58324">
        <ele>228.64453125</ele>
        <time>2018-08-01T08:03:42Z</time>
      </trkpt>
      <trkpt lat="45.68845" lon="0.58336">
        <ele>227.8828125</ele>
        <time>2018-08-01T08:03:47Z</time>
      </trkpt>
      <trkpt lat="45.68849" lon="0.58364">
        <ele>225.83984375</ele>
        <time>2018-08-01T08:03:48Z</time>
      </trkpt>
      <trkpt lat="45.68852" lon="0.58377">
        <ele>224.81640625</ele>
        <time>2018-08-01T08:03:49Z</time>
      </trkpt>
      <trkpt lat="45.68863" lon="0.58413">
        <ele>221.67578125</ele>
        <time>2018-08-01T08:03:55Z</time>
      </trkpt>
      <trkpt lat="45.6887" lon="0.58426">
        <ele>220.5546875</ele>
      </trkpt>
      <trkpt lat="45.68875" lon="0.58438">
        <ele>219.44921875</ele>
      </trkpt>
      <trkpt lat="45.68879" lon="0.58451">
        <ele>218.28515625</ele>
      </trkpt>
      <trkpt lat="45.68881" lon="0.58456">
        <ele>217.8203125</ele>
      </trkpt>
      <trkpt lat="45.68883" lon="0.58468">
        <ele>216.57421875</ele>
      </trkpt>
      <trkpt lat="45.68888" lon="0.58499">
        <ele>212.88671875</ele>
      </trkpt>
      <trkpt lat="45.68888" lon="0.58513">
        <ele>211.42578125</ele>
      </trkpt>
      <trkpt lat="45.68888" lon="0.58523">
        <ele>210.34765625</ele>
      </trkpt>
      <trkpt lat="45.68877" lon="0.58571">
        <ele>206.58203125</ele>
      </trkpt>
      <trkpt lat="45.68874" lon="0.58588">
        <ele>205.01171875</ele>
      </trkpt>
      <trkpt lat="45.68867" lon="0.58627">
        <ele>201.26953125</ele>
      </trkpt>
      <trkpt lat="45.68865" lon="0.5865">
        <ele>199.38671875</ele>
      </trkpt>
      <trkpt lat="45.68863" lon="0.58674">
        <ele>197.51171875</ele>
      </trkpt>
      <trkpt lat="45.68859" lon="0.58694">
        <ele>195.984375</ele>
      </trkpt>
      <trkpt lat="45.68855" lon="0.58714">
        <ele>194.23828125</ele>
      </trkpt>
      <trkpt lat="45.68851" lon="0.58732">
        <ele>192.6875</ele>
      </trkpt>
      <trkpt lat="45.68849" lon="0.58741">
        <ele>191.94921875</ele>
      </trkpt>
      <trkpt lat="45.68854" lon="0.5875">
        <ele>190.890625</ele>
      </trkpt>
      <trkpt lat="45.68858" lon="0.58756">
        <ele>190.08203125</ele>
      </trkpt>
      <trkpt lat="45.68887" lon="0.5875">
        <ele>189.45703125</ele>
      </trkpt>
      <trkpt lat="45.68894" lon="0.58757">
        <ele>189.02734375</ele>
      </trkpt>
      <trkpt lat="45.68899" lon="0.58764">
        <ele>188.62890625</ele>
      </trkpt>
      <trkpt lat="45.68902" lon="0.58776">
        <ele>188.01171875</ele>
      </trkpt>
      <trkpt lat="45.68903" lon="0.58784">
        <ele>187.54296875</ele>
      </trkpt>
      <trkpt lat="45.68902" lon="0.58793">
        <ele>186.9765625</ele>
      </trkpt>
      <trkpt lat="45.68881" lon="0.5886">
        <ele>188.55859375</ele>
      </trkpt>
      <trkpt lat="45.68869" lon="0.58891">
        <ele>190.51171875</ele>
      </trkpt>
      <trkpt lat="45.68862" lon="0.58913">
        <ele>191.7265625</ele>
      </trkpt>
      <trkpt lat="45.68857" lon="0.58926">
        <ele>192.5546875</ele>
      </trkpt>
      <trkpt lat="45.68854" lon="0.58954">
        <ele>194.8203125</ele>
      </trkpt>
      <trkpt lat="45.68852" lon="0.58973">
        <ele>195.921875</ele>
      </trkpt>
      <trkpt lat="45.68857" lon="0.58995">
        <ele>197.60546875</ele>
      </trkpt>
      <trkpt lat="45.68866" lon="0.59018">
        <ele>200.13671875</ele>
      </trkpt>
      <trkpt lat="45.68878" lon="0.59046">
        <ele>201.71484375</ele>
      </trkpt>
      <trkpt lat="45.68887" lon="0.59066">
        <ele>202.5</ele>
      </trkpt>
      <trkpt lat="45.68902" lon="0.59106">
        <ele>203.15625</ele>
      </trkpt>
      <trkpt lat="45.68909" lon="0.59124">
        <ele>203.453125</ele>
      </trkpt>
      <trkpt lat="45.68922" lon="0.59159">
        <ele>204.2890625</ele>
      </trkpt>
      <trkpt lat="45.6894" lon="0.59208">
        <ele>203.859375</ele>
      </trkpt>
      <trkpt lat="45.68954" lon="0.59238">
        <ele>202.2265625</ele>
      </trkpt>
      <trkpt lat="45.68963" lon="0.59255">
        <ele>200.90625</ele>
      </trkpt>
      <trkpt lat="45.68968" lon="0.5926">
        <ele>200.51953125</ele>
      </trkpt>
      <trkpt lat="45.68974" lon="0.59262">
        <ele>200.3359375</ele>
      </trkpt>
      <trkpt lat="45.68983" lon="0.59259">
        <ele>200.4765625</ele>
      </trkpt>
      <trkpt lat="45.68994" lon="0.59249">
        <ele>201.328125</ele>
      </trkpt>
      <trkpt lat="45.69006" lon="0.59233">
        <ele>204.01171875</ele>
      </trkpt>
      <trkpt lat="45.69012" lon="0.59227">
        <ele>205.08203125</ele>
      </trkpt>
      <trkpt lat="45.69015" lon="0.59223">
        <ele>205.65234375</ele>
      </trkpt>
      <trkpt lat="45.69021" lon="0.59218">
        <ele>206.59765625</ele>
      </trkpt>
      <trkpt lat="45.6903" lon="0.59209">
        <ele>208</ele>
      </trkpt>
      <trkpt lat="45.69039" lon="0.592">
        <ele>209.296875</ele>
      </trkpt>
      <trkpt lat="45.69051" lon="0.59191">
        <ele>210.75</ele>
      </trkpt>
      <trkpt lat="45.69062" lon="0.59182">
        <ele>211.80078125</ele>
      </trkpt>
      <trkpt lat="45.69068" lon="0.59177">
        <ele>212.35546875</ele>
      </trkpt>
      <trkpt lat="45.69084" lon="0.59168">
        <ele>213.5</ele>
      </trkpt>
      <trkpt lat="45.6911" lon="0.59154">
        <ele>215.453125</ele>
      </trkpt>
      <trkpt lat="45.69132" lon="0.59142">
        <ele>217.05859375</ele>
      </trkpt>
      <trkpt lat="45.69139" lon="0.59136">
        <ele>217.640625</ele>
      </trkpt>
      <trkpt lat="45.69143" lon="0.59132">
        <ele>217.98828125</ele>
      </trkpt>
      <trkpt lat="45.69145" lon="0.59128">
        <ele>218.08203125</ele>
      </trkpt>
      <trkpt lat="45.69145" lon="0.59122">
        <ele>218.0234375</ele>
      </trkpt>
      <trkpt lat="45.69148" lon="0.5911">
        <ele>217.953125</ele>
      </trkpt>
      <trkpt lat="45.69152" lon="0.5908">
        <ele>217.62890625</ele>
      </trkpt>
      <trkpt lat="45.69152" lon="0.59072">
        <ele>217.37890625</ele>
      </trkpt>
      <trkpt lat="45.69156" lon="0.59066">
        <ele>217.203125</ele>
      </trkpt>
      <trkpt lat="45.69161" lon="0.59053">
        <ele>216.84765625</ele>
      </trkpt>
      <trkpt lat="45.69168" lon="0.59039">
        <ele>216.55078125</ele>
      </trkpt>
      <trkpt lat="45.69175" lon="0.59027">
        <ele>216.42578125</ele>
      </trkpt>
      <trkpt lat="45.69179" lon="0.59018">
        <ele>216.2421875</ele>
      </trkpt>
      <trkpt lat="45.69184" lon="0.59012">
        <ele>216.0625</ele>
      </trkpt>
      <trkpt lat="45.69187" lon="0.59008">
        <ele>215.96875</ele>
      </trkpt>
      <trkpt lat="45.69197" lon="0.58997">
        <ele>215.859375</ele>
      </trkpt>
      <trkpt lat="45.69211" lon="0.58978">
        <ele>215.609375</ele>
      </trkpt>
      <trkpt lat="45.69226" lon="0.58959">
        <ele>215.2890625</ele>
      </trkpt>
      <trkpt lat="45.69237" lon="0.58939">
        <ele>214.3203125</ele>
      </trkpt>
      <trkpt lat="45.69245" lon="0.58925">
        <ele>213.55859375</ele>
      </trkpt>
      <trkpt lat="45.69248" lon="0.58918">
        <ele>213.05859375</ele>
      </trkpt>
      <trkpt lat="45.69254" lon="0.58909">
        <ele>212.421875</ele>
      </trkpt>
      <trkpt lat="45.69259" lon="0.589">
        <ele>212.203125</ele>
      </trkpt>
      <trkpt lat="45.69264" lon="0.58897">
        <ele>212.2578125</ele>
      </trkpt>
      <trkpt lat="45.69273" lon="0.58894">
        <ele>212.53515625</ele>
      </trkpt>
      <trkpt lat="45.69287" lon="0.58894">
        <ele>213.58984375</ele>
      </trkpt>
      <trkpt lat="45.69293" lon="0.58896">
        <ele>214.11328125</ele>
      </trkpt>
      <trkpt lat="45.69309" lon="0.58901">
        <ele>215.43359375</ele>
      </trkpt>
      <trkpt lat="45.69314" lon="0.58901">
        <ele>215.76953125</ele>
      </trkpt>
      <trkpt lat="45.69318" lon="0.589">
        <ele>216.00390625</ele>
      </trkpt>
      <trkpt lat="45.69329" lon="0.58896">
        <ele>216.76171875</ele>
      </trkpt>
      <trkpt lat="45.69345" lon="0.58872">
        <ele>217.78515625</ele>
      </trkpt>
      <trkpt lat="45.69356" lon="0.58846">
        <ele>218.640625</ele>
      </trkpt>
      <trkpt lat="45.69363" lon="0.58832">
        <ele>219.3984375</ele>
      </trkpt>
      <trkpt lat="45.69369" lon="0.5881">
        <ele>219.93359375</ele>
      </trkpt>
      <trkpt lat="45.69371" lon="0.5879">
        <ele>220.12109375</ele>
      </trkpt>
      <trkpt lat="45.69371" lon="0.58771">
        <ele>220.625</ele>
      </trkpt>
      <trkpt lat="45.69372" lon="0.5875">
        <ele>221.203125</ele>
      </trkpt>
      <trkpt lat="45.69372" lon="0.58692">
        <ele>224.5</ele>
      </trkpt>
      <trkpt lat="45.69371" lon="0.58647">
        <ele>226.7890625</ele>
      </trkpt>
      <trkpt lat="45.69375" lon="0.58647">
        <ele>226.9140625</ele>
        <time>2018-08-01T08:06:46Z</time>
      </trkpt>
      <trkpt lat="45.69381" lon="0.58648">
        <ele>227.01171875</ele>
        <time>2018-08-01T08:06:47Z</time>
      </trkpt>
      <trkpt lat="45.69387" lon="0.58651">
        <ele>227.06640625</ele>
        <time>2018-08-01T08:06:48Z</time>
      </trkpt>
      <trkpt lat="45.69391" lon="0.58652">
        <ele>227.17578125</ele>
        <time>2018-08-01T08:06:49Z</time>
      </trkpt>
      <trkpt lat="45.69399" lon="0.58655">
        <ele>227.25</ele>
        <time>2018-08-01T08:06:50Z</time>
      </trkpt>
      <trkpt lat="45.69398" lon="0.58662">
        <ele>226.85546875</ele>
        <time>2018-08-01T08:06:54Z</time>
      </trkpt>
      <trkpt lat="45.69398" lon="0.58667">
        <ele>226.57421875</ele>
        <time>2018-08-01T08:06:55Z</time>
      </trkpt>
      <trkpt lat="45.69393" lon="0.58679">
        <ele>225.7734375</ele>
        <time>2018-08-01T08:07:01Z</time>
      </trkpt>
      <trkpt lat="45.69392" lon="0.58689">
        <ele>225.2265625</ele>
        <time>2018-08-01T08:07:05Z</time>
      </trkpt>
      <trkpt lat="45.69392" lon="0.58694">
        <ele>224.953125</ele>
      </trkpt>
      <trkpt lat="45.69401" lon="0.58702">
        <ele>224.984375</ele>
        <time>2018-08-01T08:07:06Z</time>
      </trkpt>
      <trkpt lat="45.69408" lon="0.58709">
        <ele>225.0703125</ele>
        <time>2018-08-01T08:07:07Z</time>
      </trkpt>
      <trkpt lat="45.69414" lon="0.58716">
        <ele>225.16015625</ele>
        <time>2018-08-01T08:07:09Z</time>
      </trkpt>
      <trkpt lat="45.69418" lon="0.58719">
        <ele>225.25390625</ele>
        <time>2018-08-01T08:07:10Z</time>
      </trkpt>
      <trkpt lat="45.69434" lon="0.58733">
        <ele>225.9140625</ele>
        <time>2018-08-01T08:07:14Z</time>
      </trkpt>
      <trkpt lat="45.6944" lon="0.58743">
        <ele>226.12890625</ele>
        <time>2018-08-01T08:07:15Z</time>
      </trkpt>
      <trkpt lat="45.6945" lon="0.58766">
        <ele>226.984375</ele>
        <time>2018-08-01T08:07:22Z</time>
      </trkpt>
      <trkpt lat="45.69465" lon="0.588">
        <ele>228.0234375</ele>
        <time>2018-08-01T08:07:26Z</time>
      </trkpt>
      <trkpt lat="45.69474" lon="0.58822">
        <ele>229.14453125</ele>
        <time>2018-08-01T08:07:35Z</time>
      </trkpt>
      <trkpt lat="45.69484" lon="0.58846">
        <ele>230.32421875</ele>
        <time>2018-08-01T08:07:44Z</time>
      </trkpt>
      <trkpt lat="45.69492" lon="0.5886">
        <ele>231.1953125</ele>
        <time>2018-08-01T08:07:51Z</time>
      </trkpt>
      <trkpt lat="45.69505" lon="0.58886">
        <ele>232.73046875</ele>
        <time>2018-08-01T08:08:02Z</time>
      </trkpt>
      <trkpt lat="45.69521" lon="0.58896">
        <ele>233.74609375</ele>
        <time>2018-08-01T08:08:10Z</time>
      </trkpt>
      <trkpt lat="45.69533" lon="0.58904">
        <ele>234.3828125</ele>
        <time>2018-08-01T08:08:17Z</time>
      </trkpt>
      <trkpt lat="45.69546" lon="0.58911">
        <ele>234.9140625</ele>
        <time>2018-08-01T08:08:25Z</time>
      </trkpt>
      <trkpt lat="45.69557" lon="0.58918">
        <ele>235.73046875</ele>
        <time>2018-08-01T08:08:32Z</time>
      </trkpt>
      <trkpt lat="45.6957" lon="0.58928">
        <ele>236.84765625</ele>
        <time>2018-08-01T08:08:41Z</time>
      </trkpt>
      <trkpt lat="45.6958" lon="0.58938">
        <ele>237.765625</ele>
        <time>2018-08-01T08:08:48Z</time>
      </trkpt>
      <trkpt lat="45.69591" lon="0.5895">
        <ele>238.77734375</ele>
        <time>2018-08-01T08:08:56Z</time>
      </trkpt>
      <trkpt lat="45.69607" lon="0.58967">
        <ele>240.21484375</ele>
        <time>2018-08-01T08:09:06Z</time>
      </trkpt>
      <trkpt lat="45.69632" lon="0.58986">
        <ele>242.421875</ele>
        <time>2018-08-01T08:09:17Z</time>
      </trkpt>
      <trkpt lat="45.6965" lon="0.59">
        <ele>244.10546875</ele>
        <time>2018-08-01T08:09:25Z</time>
      </trkpt>
      <trkpt lat="45.69664" lon="0.5901">
        <ele>245.30078125</ele>
        <time>2018-08-01T08:09:32Z</time>
      </trkpt>
      <trkpt lat="45.69681" lon="0.59024">
        <ele>246.4296875</ele>
        <time>2018-08-01T08:09:39Z</time>
      </trkpt>
      <trkpt lat="45.69694" lon="0.59036">
        <ele>247.1484375</ele>
        <time>2018-08-01T08:09:45Z</time>
      </trkpt>
      <trkpt lat="45.69707" lon="0.59049">
        <ele>247.86328125</ele>
        <time>2018-08-01T08:09:51Z</time>
      </trkpt>
      <trkpt lat="45.69723" lon="0.59067">
        <ele>248.52734375</ele>
        <time>2018-08-01T08:09:58Z</time>
      </trkpt>
      <trkpt lat="45.69741" lon="0.59086">
        <ele>249.19140625</ele>
        <time>2018-08-01T08:10:05Z</time>
      </trkpt>
      <trkpt lat="45.6977" lon="0.59106">
        <ele>250.37109375</ele>
        <time>2018-08-01T08:10:16Z</time>
      </trkpt>
      <trkpt lat="45.69796" lon="0.59124">
        <ele>250.94140625</ele>
        <time>2018-08-01T08:10:26Z</time>
      </trkpt>
      <trkpt lat="45.69824" lon="0.59143">
        <ele>251.42578125</ele>
        <time>2018-08-01T08:10:37Z</time>
      </trkpt>
      <trkpt lat="45.69847" lon="0.59159">
        <ele>251.16015625</ele>
        <time>2018-08-01T08:10:46Z</time>
      </trkpt>
      <trkpt lat="45.69858" lon="0.59167">
        <ele>251.0546875</ele>
        <time>2018-08-01T08:10:52Z</time>
      </trkpt>
      <trkpt lat="45.69865" lon="0.59188">
        <ele>250.6875</ele>
        <time>2018-08-01T08:10:59Z</time>
      </trkpt>
      <trkpt lat="45.69866" lon="0.59187">
        <ele>250.69921875</ele>
        <time>2018-08-01T08:11:12Z</time>
      </trkpt>
      <trkpt lat="45.69866" lon="0.59188">
        <ele>250.70703125</ele>
        <time>2018-08-01T08:11:27Z</time>
      </trkpt>
      <trkpt lat="45.69865" lon="0.59187">
        <ele>250.68359375</ele>
        <time>2018-08-01T08:11:56Z</time>
      </trkpt>
      <trkpt lat="45.69866" lon="0.5919">
        <ele>250.69921875</ele>
        <time>2018-08-01T08:12:17Z</time>
      </trkpt>
      <trkpt lat="45.69872" lon="0.59212">
        <ele>250.82421875</ele>
        <time>2018-08-01T08:12:27Z</time>
      </trkpt>
      <trkpt lat="45.69882" lon="0.59238">
        <ele>250.98828125</ele>
        <time>2018-08-01T08:12:36Z</time>
      </trkpt>
      <trkpt lat="45.69893" lon="0.59259">
        <ele>250.01953125</ele>
        <time>2018-08-01T08:12:43Z</time>
      </trkpt>
      <trkpt lat="45.69904" lon="0.59287">
        <ele>249.26171875</ele>
        <time>2018-08-01T08:12:51Z</time>
      </trkpt>
      <trkpt lat="45.69909" lon="0.59303">
        <ele>249.07421875</ele>
        <time>2018-08-01T08:12:55Z</time>
      </trkpt>
      <trkpt lat="45.69912" lon="0.59309">
        <ele>249.0546875</ele>
        <time>2018-08-01T08:12:56Z</time>
      </trkpt>
      <trkpt lat="45.69914" lon="0.59314">
        <ele>249.0390625</ele>
        <time>2018-08-01T08:12:57Z</time>
      </trkpt>
      <trkpt lat="45.69927" lon="0.59347">
        <ele>249.11328125</ele>
        <time>2018-08-01T08:13:03Z</time>
      </trkpt>
      <trkpt lat="45.69938" lon="0.5938">
        <ele>248.98828125</ele>
        <time>2018-08-01T08:13:09Z</time>
      </trkpt>
      <trkpt lat="45.69945" lon="0.59404">
        <ele>248.9453125</ele>
        <time>2018-08-01T08:13:14Z</time>
      </trkpt>
      <trkpt lat="45.69946" lon="0.59409">
        <ele>248.9609375</ele>
        <time>2018-08-01T08:13:15Z</time>
      </trkpt>
      <trkpt lat="45.6995" lon="0.59432">
        <ele>247.48828125</ele>
        <time>2018-08-01T08:13:19Z</time>
      </trkpt>
      <trkpt lat="45.69951" lon="0.59437">
        <ele>247.1796875</ele>
        <time>2018-08-01T08:13:20Z</time>
      </trkpt>
      <trkpt lat="45.69953" lon="0.59442">
        <ele>246.8984375</ele>
        <time>2018-08-01T08:13:21Z</time>
      </trkpt>
      <trkpt lat="45.69958" lon="0.59453">
        <ele>246.34765625</ele>
        <time>2018-08-01T08:13:23Z</time>
      </trkpt>
      <trkpt lat="45.69961" lon="0.5946">
        <ele>246.0546875</ele>
        <time>2018-08-01T08:13:24Z</time>
      </trkpt>
      <trkpt lat="45.69967" lon="0.59475">
        <ele>244.41796875</ele>
        <time>2018-08-01T08:13:26Z</time>
      </trkpt>
      <trkpt lat="45.69982" lon="0.59511">
        <ele>240.33203125</ele>
        <time>2018-08-01T08:13:32Z</time>
      </trkpt>
      <trkpt lat="45.69985" lon="0.59517">
        <ele>239.69140625</ele>
        <time>2018-08-01T08:13:33Z</time>
      </trkpt>
      <trkpt lat="45.69988" lon="0.59522">
        <ele>239.19921875</ele>
        <time>2018-08-01T08:13:34Z</time>
      </trkpt>
      <trkpt lat="45.69995" lon="0.59529">
        <ele>238.13671875</ele>
        <time>2018-08-01T08:13:36Z</time>
      </trkpt>
      <trkpt lat="45.69997" lon="0.59532">
        <ele>237.43359375</ele>
        <time>2018-08-01T08:13:37Z</time>
      </trkpt>
      <trkpt lat="45.69998" lon="0.59535">
        <ele>236.9375</ele>
        <time>2018-08-01T08:13:38Z</time>
      </trkpt>
      <trkpt lat="45.69997" lon="0.59538">
        <ele>236.62109375</ele>
        <time>2018-08-01T08:13:39Z</time>
      </trkpt>
      <trkpt lat="45.69995" lon="0.5954">
        <ele>236.52734375</ele>
        <time>2018-08-01T08:13:40Z</time>
      </trkpt>
      <trkpt lat="45.69992" lon="0.5954">
        <ele>236.59375</ele>
        <time>2018-08-01T08:13:41Z</time>
      </trkpt>
      <trkpt lat="45.69989" lon="0.59539">
        <ele>236.546875</ele>
        <time>2018-08-01T08:13:42Z</time>
      </trkpt>
      <trkpt lat="45.69985" lon="0.59538">
        <ele>236.4375</ele>
        <time>2018-08-01T08:13:43Z</time>
      </trkpt>
      <trkpt lat="45.69981" lon="0.59539">
        <ele>236.05859375</ele>
        <time>2018-08-01T08:13:44Z</time>
      </trkpt>
      <trkpt lat="45.69965" lon="0.59538">
        <ele>235.16796875</ele>
        <time>2018-08-01T08:13:47Z</time>
      </trkpt>
      <trkpt lat="45.69959" lon="0.59536">
        <ele>235.06640625</ele>
        <time>2018-08-01T08:13:48Z</time>
      </trkpt>
      <trkpt lat="45.69938" lon="0.59526">
        <ele>235.00390625</ele>
        <time>2018-08-01T08:13:51Z</time>
      </trkpt>
      <trkpt lat="45.6993" lon="0.59523">
        <ele>234.66015625</ele>
        <time>2018-08-01T08:13:52Z</time>
      </trkpt>
      <trkpt lat="45.69914" lon="0.59518">
        <ele>234.12109375</ele>
        <time>2018-08-01T08:13:54Z</time>
      </trkpt>
      <trkpt lat="45.69907" lon="0.59516">
        <ele>233.796875</ele>
        <time>2018-08-01T08:13:55Z</time>
      </trkpt>
      <trkpt lat="45.699" lon="0.59516">
        <ele>233.28125</ele>
        <time>2018-08-01T08:13:56Z</time>
      </trkpt>
      <trkpt lat="45.69892" lon="0.59517">
        <ele>232.42578125</ele>
        <time>2018-08-01T08:13:57Z</time>
      </trkpt>
      <trkpt lat="45.69886" lon="0.59518">
        <ele>231.5703125</ele>
        <time>2018-08-01T08:13:58Z</time>
      </trkpt>
      <trkpt lat="45.69879" lon="0.59519">
        <ele>230.9453125</ele>
        <time>2018-08-01T08:13:59Z</time>
      </trkpt>
      <trkpt lat="45.69872" lon="0.5952">
        <ele>230.515625</ele>
        <time>2018-08-01T08:14:00Z</time>
      </trkpt>
      <trkpt lat="45.69838" lon="0.5953">
        <ele>227.375</ele>
        <time>2018-08-01T08:14:06Z</time>
      </trkpt>
      <trkpt lat="45.69834" lon="0.59531">
        <ele>227.01171875</ele>
        <time>2018-08-01T08:14:07Z</time>
      </trkpt>
      <trkpt lat="45.69802" lon="0.59536">
        <ele>225.27734375</ele>
        <time>2018-08-01T08:14:13Z</time>
      </trkpt>
      <trkpt lat="45.6979" lon="0.59542">
        <ele>223.8046875</ele>
        <time>2018-08-01T08:14:16Z</time>
      </trkpt>
      <trkpt lat="45.69789" lon="0.59544">
        <ele>223.37890625</ele>
        <time>2018-08-01T08:14:17Z</time>
      </trkpt>
      <trkpt lat="45.69787" lon="0.59554">
        <ele>221.3984375</ele>
        <time>2018-08-01T08:14:19Z</time>
      </trkpt>
      <trkpt lat="45.69786" lon="0.59562">
        <ele>219.8515625</ele>
        <time>2018-08-01T08:14:20Z</time>
      </trkpt>
      <trkpt lat="45.69783" lon="0.59571">
        <ele>217.91015625</ele>
        <time>2018-08-01T08:16:14Z</time>
      </trkpt>
      <trkpt lat="45.69778" lon="0.59569">
        <ele>218.1875</ele>
        <time>2018-08-01T08:16:16Z</time>
      </trkpt>
      <trkpt lat="45.69776" lon="0.5957">
        <ele>218.078125</ele>
        <time>2018-08-01T08:16:17Z</time>
      </trkpt>
      <trkpt lat="45.69776" lon="0.59578">
        <ele>216.74609375</ele>
        <time>2018-08-01T08:16:20Z</time>
      </trkpt>
      <trkpt lat="45.69776" lon="0.59582">
        <ele>216.3125</ele>
        <time>2018-08-01T08:16:21Z</time>
      </trkpt>
      <trkpt lat="45.69781" lon="0.5959">
        <ele>215.578125</ele>
        <time>2018-08-01T08:16:23Z</time>
      </trkpt>
      <trkpt lat="45.69788" lon="0.59604">
        <ele>214.14453125</ele>
        <time>2018-08-01T08:16:26Z</time>
      </trkpt>
      <trkpt lat="45.69791" lon="0.5961">
        <ele>213.546875</ele>
        <time>2018-08-01T08:16:27Z</time>
      </trkpt>
      <trkpt lat="45.69802" lon="0.59635">
        <ele>211.01171875</ele>
        <time>2018-08-01T08:16:30Z</time>
      </trkpt>
      <trkpt lat="45.69812" lon="0.59684">
        <ele>205.89453125</ele>
        <time>2018-08-01T08:16:35Z</time>
      </trkpt>
      <trkpt lat="45.69813" lon="0.59707">
        <ele>203.9453125</ele>
        <time>2018-08-01T08:16:37Z</time>
      </trkpt>
      <trkpt lat="45.69812" lon="0.5977">
        <ele>199.33203125</ele>
        <time>2018-08-01T08:16:42Z</time>
      </trkpt>
      <trkpt lat="45.6981" lon="0.59818">
        <ele>196.15625</ele>
        <time>2018-08-01T08:16:47Z</time>
      </trkpt>
      <trkpt lat="45.69811" lon="0.59845">
        <ele>194.234375</ele>
        <time>2018-08-01T08:16:50Z</time>
      </trkpt>
      <trkpt lat="45.69811" lon="0.59854">
        <ele>193.62109375</ele>
        <time>2018-08-01T08:16:51Z</time>
      </trkpt>
      <trkpt lat="45.69823" lon="0.59886">
        <ele>191.4765625</ele>
        <time>2018-08-01T08:16:55Z</time>
      </trkpt>
      <trkpt lat="45.69829" lon="0.59899">
        <ele>190.8203125</ele>
        <time>2018-08-01T08:16:58Z</time>
      </trkpt>
      <trkpt lat="45.69836" lon="0.59912">
        <ele>190.42578125</ele>
        <time>2018-08-01T08:17:03Z</time>
      </trkpt>
      <trkpt lat="45.6985" lon="0.59926">
        <ele>190.8125</ele>
        <time>2018-08-01T08:17:09Z</time>
      </trkpt>
      <trkpt lat="45.69868" lon="0.59933">
        <ele>191.97265625</ele>
        <time>2018-08-01T08:17:16Z</time>
      </trkpt>
      <trkpt lat="45.69876" lon="0.59937">
        <ele>192.4140625</ele>
        <time>2018-08-01T08:17:19Z</time>
      </trkpt>
      <trkpt lat="45.69889" lon="0.59949">
        <ele>192.6171875</ele>
        <time>2018-08-01T08:17:26Z</time>
      </trkpt>
      <trkpt lat="45.69901" lon="0.59958">
        <ele>192.28515625</ele>
        <time>2018-08-01T08:17:32Z</time>
      </trkpt>
      <trkpt lat="45.69908" lon="0.59969">
        <ele>191.75</ele>
        <time>2018-08-01T08:17:39Z</time>
      </trkpt>
      <trkpt lat="45.69917" lon="0.59986">
        <ele>190.95703125</ele>
        <time>2018-08-01T08:17:45Z</time>
      </trkpt>
      <trkpt lat="45.69933" lon="0.60011">
        <ele>189.51171875</ele>
        <time>2018-08-01T08:17:51Z</time>
      </trkpt>
      <trkpt lat="45.69937" lon="0.60019">
        <ele>188.99609375</ele>
        <time>2018-08-01T08:17:53Z</time>
      </trkpt>
      <trkpt lat="45.69945" lon="0.6004">
        <ele>187.265625</ele>
        <time>2018-08-01T08:17:58Z</time>
      </trkpt>
      <trkpt lat="45.69951" lon="0.6006">
        <ele>185.7734375</ele>
        <time>2018-08-01T08:18:01Z</time>
      </trkpt>
      <trkpt lat="45.69955" lon="0.60074">
        <ele>184.69921875</ele>
        <time>2018-08-01T08:18:03Z</time>
      </trkpt>
      <trkpt lat="45.69957" lon="0.6008">
        <ele>184.390625</ele>
        <time>2018-08-01T08:18:04Z</time>
      </trkpt>
      <trkpt lat="45.69959" lon="0.60106">
        <ele>183.140625</ele>
        <time>2018-08-01T08:18:08Z</time>
      </trkpt>
      <trkpt lat="45.69959" lon="0.60111">
        <ele>182.9140625</ele>
        <time>2018-08-01T08:18:09Z</time>
      </trkpt>
      <trkpt lat="45.69961" lon="0.60126">
        <ele>182.19921875</ele>
        <time>2018-08-01T08:18:13Z</time>
      </trkpt>
      <trkpt lat="45.69962" lon="0.60137">
        <ele>182.078125</ele>
        <time>2018-08-01T08:18:16Z</time>
      </trkpt>
      <trkpt lat="45.69965" lon="0.60151">
        <ele>182.35546875</ele>
        <time>2018-08-01T08:18:21Z</time>
      </trkpt>
      <trkpt lat="45.6997" lon="0.60165">
        <ele>182.90234375</ele>
        <time>2018-08-01T08:18:26Z</time>
      </trkpt>
      <trkpt lat="45.69971" lon="0.6017">
        <ele>183.125</ele>
        <time>2018-08-01T08:18:29Z</time>
      </trkpt>
      <trkpt lat="45.69971" lon="0.6018">
        <ele>183.41796875</ele>
        <time>2018-08-01T08:18:34Z</time>
      </trkpt>
      <trkpt lat="45.69973" lon="0.60184">
        <ele>183.75</ele>
        <time>2018-08-01T08:18:41Z</time>
      </trkpt>
      <trkpt lat="45.69975" lon="0.60192">
        <ele>184.67578125</ele>
        <time>2018-08-01T08:18:53Z</time>
      </trkpt>
      <trkpt lat="45.6998" lon="0.6021">
        <ele>186.9140625</ele>
        <time>2018-08-01T08:19:01Z</time>
      </trkpt>
      <trkpt lat="45.69983" lon="0.60217">
        <ele>187.96875</ele>
        <time>2018-08-01T08:19:05Z</time>
      </trkpt>
      <trkpt lat="45.69986" lon="0.60224">
        <ele>189.11328125</ele>
        <time>2018-08-01T08:19:09Z</time>
      </trkpt>
      <trkpt lat="45.69994" lon="0.60246">
        <ele>192.23046875</ele>
        <time>2018-08-01T08:19:18Z</time>
      </trkpt>
      <trkpt lat="45.70002" lon="0.60259">
        <ele>193.40625</ele>
        <time>2018-08-01T08:19:24Z</time>
      </trkpt>
      <trkpt lat="45.70004" lon="0.60264">
        <ele>193.83984375</ele>
        <time>2018-08-01T08:19:32Z</time>
      </trkpt>
      <trkpt lat="45.70003" lon="0.60266">
        <ele>193.7109375</ele>
        <time>2018-08-01T08:19:34Z</time>
      </trkpt>
      <trkpt lat="45.69994" lon="0.6028">
        <ele>192.78125</ele>
        <time>2018-08-01T08:19:42Z</time>
      </trkpt>
      <trkpt lat="45.69982" lon="0.60295">
        <ele>191.91015625</ele>
        <time>2018-08-01T08:19:50Z</time>
      </trkpt>
      <trkpt lat="45.69974" lon="0.60315">
        <ele>191.8515625</ele>
        <time>2018-08-01T08:19:57Z</time>
      </trkpt>
      <trkpt lat="45.69979" lon="0.60347">
        <ele>192.88671875</ele>
        <time>2018-08-01T08:20:07Z</time>
      </trkpt>
      <trkpt lat="45.69984" lon="0.60378">
        <ele>194.9609375</ele>
        <time>2018-08-01T08:20:17Z</time>
      </trkpt>
      <trkpt lat="45.69991" lon="0.60409">
        <ele>197.1328125</ele>
        <time>2018-08-01T08:20:26Z</time>
      </trkpt>
      <trkpt lat="45.69997" lon="0.60447">
        <ele>199.0078125</ele>
        <time>2018-08-01T08:20:35Z</time>
      </trkpt>
      <trkpt lat="45.69994" lon="0.60478">
        <ele>200.23046875</ele>
        <time>2018-08-01T08:20:43Z</time>
      </trkpt>
      <trkpt lat="45.69987" lon="0.60506">
        <ele>200.67578125</ele>
        <time>2018-08-01T08:20:51Z</time>
      </trkpt>
      <trkpt lat="45.69978" lon="0.60539">
        <ele>200.984375</ele>
        <time>2018-08-01T08:20:58Z</time>
      </trkpt>
      <trkpt lat="45.6997" lon="0.60567">
        <ele>201.0859375</ele>
        <time>2018-08-01T08:21:03Z</time>
      </trkpt>
      <trkpt lat="45.69968" lon="0.60572">
        <ele>201.0546875</ele>
        <time>2018-08-01T08:21:04Z</time>
      </trkpt>
      <trkpt lat="45.69958" lon="0.6059">
        <ele>200.640625</ele>
        <time>2018-08-01T08:21:07Z</time>
      </trkpt>
      <trkpt lat="45.69955" lon="0.60597">
        <ele>200.44921875</ele>
        <time>2018-08-01T08:21:08Z</time>
      </trkpt>
      <trkpt lat="45.69947" lon="0.60622">
        <ele>199.75390625</ele>
        <time>2018-08-01T08:21:11Z</time>
      </trkpt>
      <trkpt lat="45.69946" lon="0.60631">
        <ele>199.55078125</ele>
        <time>2018-08-01T08:21:12Z</time>
      </trkpt>
      <trkpt lat="45.69945" lon="0.6064">
        <ele>199.3671875</ele>
        <time>2018-08-01T08:21:13Z</time>
      </trkpt>
      <trkpt lat="45.69945" lon="0.60649">
        <ele>199.2421875</ele>
        <time>2018-08-01T08:21:14Z</time>
      </trkpt>
      <trkpt lat="45.69946" lon="0.60658">
        <ele>199.1796875</ele>
        <time>2018-08-01T08:21:15Z</time>
      </trkpt>
      <trkpt lat="45.69947" lon="0.60667">
        <ele>199.12890625</ele>
        <time>2018-08-01T08:21:16Z</time>
      </trkpt>
      <trkpt lat="45.69948" lon="0.60676">
        <ele>199.06640625</ele>
        <time>2018-08-01T08:21:17Z</time>
      </trkpt>
      <trkpt lat="45.69948" lon="0.60684">
        <ele>198.96484375</ele>
        <time>2018-08-01T08:21:18Z</time>
      </trkpt>
      <trkpt lat="45.69947" lon="0.60692">
        <ele>198.71484375</ele>
        <time>2018-08-01T08:21:19Z</time>
      </trkpt>
      <trkpt lat="45.69944" lon="0.607">
        <ele>198.30078125</ele>
        <time>2018-08-01T08:21:20Z</time>
      </trkpt>
      <trkpt lat="45.6994" lon="0.60707">
        <ele>197.79296875</ele>
        <time>2018-08-01T08:21:21Z</time>
      </trkpt>
      <trkpt lat="45.69935" lon="0.60713">
        <ele>197.2265625</ele>
        <time>2018-08-01T08:21:22Z</time>
      </trkpt>
      <trkpt lat="45.6993" lon="0.6072">
        <ele>196.640625</ele>
        <time>2018-08-01T08:21:23Z</time>
      </trkpt>
      <trkpt lat="45.69895" lon="0.60756">
        <ele>193.77734375</ele>
        <time>2018-08-01T08:21:29Z</time>
      </trkpt>
      <trkpt lat="45.69864" lon="0.60801">
        <ele>193.80078125</ele>
        <time>2018-08-01T08:21:35Z</time>
      </trkpt>
      <trkpt lat="45.69837" lon="0.60851">
        <ele>192.87109375</ele>
        <time>2018-08-01T08:21:41Z</time>
      </trkpt>
      <trkpt lat="45.69817" lon="0.60883">
        <ele>191.3828125</ele>
        <time>2018-08-01T08:21:45Z</time>
      </trkpt>
      <trkpt lat="45.69811" lon="0.60891">
        <ele>190.69921875</ele>
        <time>2018-08-01T08:21:46Z</time>
      </trkpt>
      <trkpt lat="45.69804" lon="0.60898">
        <ele>189.9921875</ele>
        <time>2018-08-01T08:21:47Z</time>
      </trkpt>
      <trkpt lat="45.69793" lon="0.60911">
        <ele>188.78515625</ele>
        <time>2018-08-01T08:21:49Z</time>
      </trkpt>
      <trkpt lat="45.69789" lon="0.60919">
        <ele>188.34375</ele>
        <time>2018-08-01T08:21:50Z</time>
      </trkpt>
      <trkpt lat="45.69786" lon="0.60927">
        <ele>188.01171875</ele>
        <time>2018-08-01T08:21:51Z</time>
      </trkpt>
      <trkpt lat="45.69783" lon="0.60936">
        <ele>187.74609375</ele>
        <time>2018-08-01T08:21:52Z</time>
      </trkpt>
      <trkpt lat="45.69782" lon="0.60945">
        <ele>187.5859375</ele>
        <time>2018-08-01T08:21:53Z</time>
      </trkpt>
      <trkpt lat="45.69781" lon="0.60954">
        <ele>187.4921875</ele>
        <time>2018-08-01T08:21:54Z</time>
      </trkpt>
      <trkpt lat="45.6978" lon="0.60963">
        <ele>187.46875</ele>
        <time>2018-08-01T08:21:55Z</time>
      </trkpt>
      <trkpt lat="45.6978" lon="0.60972">
        <ele>187.66015625</ele>
        <time>2018-08-01T08:21:56Z</time>
      </trkpt>
      <trkpt lat="45.69781" lon="0.60983">
        <ele>187.94921875</ele>
        <time>2018-08-01T08:21:57Z</time>
      </trkpt>
      <trkpt lat="45.69782" lon="0.60992">
        <ele>188.3046875</ele>
        <time>2018-08-01T08:21:58Z</time>
      </trkpt>
      <trkpt lat="45.69784" lon="0.61002">
        <ele>188.734375</ele>
        <time>2018-08-01T08:21:59Z</time>
      </trkpt>
      <trkpt lat="45.69787" lon="0.61019">
        <ele>189.59375</ele>
        <time>2018-08-01T08:22:01Z</time>
      </trkpt>
      <trkpt lat="45.69801" lon="0.61082">
        <ele>191.69921875</ele>
        <time>2018-08-01T08:22:09Z</time>
      </trkpt>
      <trkpt lat="45.69805" lon="0.6111">
        <ele>191.7109375</ele>
        <time>2018-08-01T08:22:13Z</time>
      </trkpt>
      <trkpt lat="45.6981" lon="0.61139">
        <ele>191.4765625</ele>
        <time>2018-08-01T08:22:18Z</time>
      </trkpt>
      <trkpt lat="45.6981" lon="0.61145">
        <ele>191.3125</ele>
        <time>2018-08-01T08:22:19Z</time>
      </trkpt>
      <trkpt lat="45.69811" lon="0.61151">
        <ele>191.14453125</ele>
        <time>2018-08-01T08:22:20Z</time>
      </trkpt>
      <trkpt lat="45.69809" lon="0.61188">
        <ele>189.62890625</ele>
        <time>2018-08-01T08:22:27Z</time>
      </trkpt>
      <trkpt lat="45.69806" lon="0.61213">
        <ele>188.5546875</ele>
        <time>2018-08-01T08:22:31Z</time>
      </trkpt>
      <trkpt lat="45.69807" lon="0.61219">
        <ele>188.37109375</ele>
        <time>2018-08-01T08:22:32Z</time>
      </trkpt>
      <trkpt lat="45.69808" lon="0.61225">
        <ele>188.21484375</ele>
        <time>2018-08-01T08:22:33Z</time>
      </trkpt>
      <trkpt lat="45.6981" lon="0.61231">
        <ele>188.0625</ele>
        <time>2018-08-01T08:22:34Z</time>
      </trkpt>
      <trkpt lat="45.69813" lon="0.61237">
        <ele>187.875</ele>
        <time>2018-08-01T08:22:35Z</time>
      </trkpt>
      <trkpt lat="45.69816" lon="0.61243">
        <ele>187.4375</ele>
        <time>2018-08-01T08:22:36Z</time>
      </trkpt>
      <trkpt lat="45.6982" lon="0.61248">
        <ele>186.8203125</ele>
        <time>2018-08-01T08:22:37Z</time>
      </trkpt>
      <trkpt lat="45.69825" lon="0.61252">
        <ele>186.3203125</ele>
        <time>2018-08-01T08:22:38Z</time>
      </trkpt>
      <trkpt lat="45.6983" lon="0.61255">
        <ele>185.87109375</ele>
        <time>2018-08-01T08:22:39Z</time>
      </trkpt>
      <trkpt lat="45.69836" lon="0.61258">
        <ele>185.46875</ele>
        <time>2018-08-01T08:22:40Z</time>
      </trkpt>
      <trkpt lat="45.69841" lon="0.6126">
        <ele>185.12890625</ele>
        <time>2018-08-01T08:22:41Z</time>
      </trkpt>
      <trkpt lat="45.69854" lon="0.61264">
        <ele>184.40234375</ele>
        <time>2018-08-01T08:22:43Z</time>
      </trkpt>
      <trkpt lat="45.6986" lon="0.61266">
        <ele>184.03125</ele>
        <time>2018-08-01T08:22:44Z</time>
      </trkpt>
      <trkpt lat="45.69867" lon="0.61268">
        <ele>183.640625</ele>
        <time>2018-08-01T08:22:45Z</time>
      </trkpt>
      <trkpt lat="45.69874" lon="0.61269">
        <ele>183.44140625</ele>
        <time>2018-08-01T08:22:46Z</time>
      </trkpt>
      <trkpt lat="45.69897" lon="0.61273">
        <ele>183.08203125</ele>
        <time>2018-08-01T08:22:49Z</time>
      </trkpt>
      <trkpt lat="45.69904" lon="0.61276">
        <ele>182.91015625</ele>
        <time>2018-08-01T08:22:50Z</time>
      </trkpt>
      <trkpt lat="45.69911" lon="0.61279">
        <ele>182.5703125</ele>
        <time>2018-08-01T08:22:51Z</time>
      </trkpt>
      <trkpt lat="45.69934" lon="0.61294">
        <ele>181.13671875</ele>
        <time>2018-08-01T08:22:54Z</time>
      </trkpt>
      <trkpt lat="45.69941" lon="0.61302">
        <ele>180.296875</ele>
        <time>2018-08-01T08:22:55Z</time>
      </trkpt>
      <trkpt lat="45.69948" lon="0.6131">
        <ele>179.296875</ele>
        <time>2018-08-01T08:22:56Z</time>
      </trkpt>
      <trkpt lat="45.69956" lon="0.61319">
        <ele>178.24609375</ele>
        <time>2018-08-01T08:22:57Z</time>
      </trkpt>
      <trkpt lat="45.69962" lon="0.61327">
        <ele>177.28515625</ele>
        <time>2018-08-01T08:22:58Z</time>
      </trkpt>
      <trkpt lat="45.69969" lon="0.61334">
        <ele>176.51171875</ele>
        <time>2018-08-01T08:22:59Z</time>
      </trkpt>
      <trkpt lat="45.69977" lon="0.6134">
        <ele>175.97265625</ele>
        <time>2018-08-01T08:23:00Z</time>
      </trkpt>
      <trkpt lat="45.69986" lon="0.61346">
        <ele>175.5078125</ele>
        <time>2018-08-01T08:23:01Z</time>
      </trkpt>
      <trkpt lat="45.70001" lon="0.61359">
        <ele>174.33203125</ele>
        <time>2018-08-01T08:23:03Z</time>
      </trkpt>
      <trkpt lat="45.70008" lon="0.61368">
        <ele>173.37109375</ele>
        <time>2018-08-01T08:23:04Z</time>
      </trkpt>
      <trkpt lat="45.70013" lon="0.61379">
        <ele>172.17578125</ele>
        <time>2018-08-01T08:23:05Z</time>
      </trkpt>
      <trkpt lat="45.70025" lon="0.61411">
        <ele>168.1484375</ele>
        <time>2018-08-01T08:23:08Z</time>
      </trkpt>
      <trkpt lat="45.70027" lon="0.61422">
        <ele>166.44140625</ele>
        <time>2018-08-01T08:23:09Z</time>
      </trkpt>
      <trkpt lat="45.70029" lon="0.61434">
        <ele>164.5546875</ele>
        <time>2018-08-01T08:23:10Z</time>
      </trkpt>
      <trkpt lat="45.70031" lon="0.61459">
        <ele>160.65234375</ele>
        <time>2018-08-01T08:23:12Z</time>
      </trkpt>
      <trkpt lat="45.70033" lon="0.61471">
        <ele>159.45703125</ele>
        <time>2018-08-01T08:23:13Z</time>
      </trkpt>
      <trkpt lat="45.70036" lon="0.61483">
        <ele>158.62890625</ele>
        <time>2018-08-01T08:23:14Z</time>
      </trkpt>
      <trkpt lat="45.7004" lon="0.61494">
        <ele>157.796875</ele>
        <time>2018-08-01T08:23:15Z</time>
      </trkpt>
      <trkpt lat="45.70045" lon="0.61506">
        <ele>156.953125</ele>
        <time>2018-08-01T08:23:16Z</time>
      </trkpt>
      <trkpt lat="45.7005" lon="0.61516">
        <ele>156.15234375</ele>
        <time>2018-08-01T08:23:17Z</time>
      </trkpt>
      <trkpt lat="45.70055" lon="0.61524">
        <ele>156.12109375</ele>
        <time>2018-08-01T08:23:18Z</time>
      </trkpt>
      <trkpt lat="45.70061" lon="0.6153">
        <ele>156.27734375</ele>
        <time>2018-08-01T08:23:19Z</time>
      </trkpt>
      <trkpt lat="45.70067" lon="0.61535">
        <ele>156.37890625</ele>
        <time>2018-08-01T08:23:20Z</time>
      </trkpt>
      <trkpt lat="45.70073" lon="0.61538">
        <ele>156.4375</ele>
        <time>2018-08-01T08:23:21Z</time>
      </trkpt>
      <trkpt lat="45.70078" lon="0.61541">
        <ele>156.49609375</ele>
        <time>2018-08-01T08:23:22Z</time>
      </trkpt>
      <trkpt lat="45.70093" lon="0.61548">
        <ele>156.69140625</ele>
        <time>2018-08-01T08:23:25Z</time>
      </trkpt>
      <trkpt lat="45.70104" lon="0.61554">
        <ele>156.9375</ele>
        <time>2018-08-01T08:23:28Z</time>
      </trkpt>
      <trkpt lat="45.70115" lon="0.61571">
        <ele>158.0234375</ele>
        <time>2018-08-01T08:23:33Z</time>
      </trkpt>
      <trkpt lat="45.70133" lon="0.61595">
        <ele>159.8828125</ele>
        <time>2018-08-01T08:23:40Z</time>
      </trkpt>
      <trkpt lat="45.70154" lon="0.61623">
        <ele>161.6796875</ele>
        <time>2018-08-01T08:23:48Z</time>
      </trkpt>
      <trkpt lat="45.70169" lon="0.61643">
        <ele>163.09765625</ele>
        <time>2018-08-01T08:23:54Z</time>
      </trkpt>
      <trkpt lat="45.70183" lon="0.61668">
        <ele>164.9140625</ele>
        <time>2018-08-01T08:24:00Z</time>
      </trkpt>
      <trkpt lat="45.70195" lon="0.61705">
        <ele>167.51171875</ele>
        <time>2018-08-01T08:24:09Z</time>
      </trkpt>
      <trkpt lat="45.70209" lon="0.61725">
        <ele>169.03515625</ele>
        <time>2018-08-01T08:24:16Z</time>
      </trkpt>
      <trkpt lat="45.70228" lon="0.61725">
        <ele>170.08984375</ele>
        <time>2018-08-01T08:24:23Z</time>
      </trkpt>
      <trkpt lat="45.70258" lon="0.61714">
        <ele>171.67578125</ele>
        <time>2018-08-01T08:24:33Z</time>
      </trkpt>
      <trkpt lat="45.70293" lon="0.61696">
        <ele>174.01953125</ele>
        <time>2018-08-01T08:24:45Z</time>
      </trkpt>
      <trkpt lat="45.70315" lon="0.61684">
        <ele>175.76171875</ele>
        <time>2018-08-01T08:24:53Z</time>
      </trkpt>
      <trkpt lat="45.70331" lon="0.61678">
        <ele>177.02734375</ele>
        <time>2018-08-01T08:24:59Z</time>
      </trkpt>
      <trkpt lat="45.70348" lon="0.61672">
        <ele>178.734375</ele>
        <time>2018-08-01T08:25:07Z</time>
      </trkpt>
      <trkpt lat="45.70364" lon="0.61672">
        <ele>180.65625</ele>
        <time>2018-08-01T08:25:14Z</time>
      </trkpt>
      <trkpt lat="45.70365" lon="0.61675">
        <ele>181.0078125</ele>
        <time>2018-08-01T08:25:15Z</time>
      </trkpt>
      <trkpt lat="45.70366" lon="0.61678">
        <ele>181.34765625</ele>
        <time>2018-08-01T08:25:16Z</time>
      </trkpt>
      <trkpt lat="45.70366" lon="0.6168">
        <ele>181.61328125</ele>
        <time>2018-08-01T08:25:17Z</time>
      </trkpt>
      <trkpt lat="45.70366" lon="0.61683">
        <ele>181.8125</ele>
        <time>2018-08-01T08:25:18Z</time>
      </trkpt>
      <trkpt lat="45.70365" lon="0.61686">
        <ele>181.9296875</ele>
        <time>2018-08-01T08:25:19Z</time>
      </trkpt>
      <trkpt lat="45.70364" lon="0.61688">
        <ele>181.953125</ele>
        <time>2018-08-01T08:25:20Z</time>
      </trkpt>
      <trkpt lat="45.70361" lon="0.61707">
        <ele>182.5625</ele>
        <time>2018-08-01T08:25:27Z</time>
      </trkpt>
      <trkpt lat="45.70366" lon="0.61719">
        <ele>183.78515625</ele>
        <time>2018-08-01T08:25:31Z</time>
      </trkpt>
      <trkpt lat="45.70368" lon="0.6172">
        <ele>184.0859375</ele>
        <time>2018-08-01T08:25:32Z</time>
      </trkpt>
      <trkpt lat="45.7037" lon="0.61721">
        <ele>184.3828125</ele>
        <time>2018-08-01T08:25:33Z</time>
      </trkpt>
      <trkpt lat="45.70391" lon="0.61726">
        <ele>187.671875</ele>
        <time>2018-08-01T08:25:44Z</time>
      </trkpt>
      <trkpt lat="45.70406" lon="0.61728">
        <ele>190.1328125</ele>
        <time>2018-08-01T08:25:53Z</time>
      </trkpt>
      <trkpt lat="45.70421" lon="0.61731">
        <ele>192.6484375</ele>
        <time>2018-08-01T08:26:03Z</time>
      </trkpt>
      <trkpt lat="45.70434" lon="0.61735">
        <ele>195.0390625</ele>
        <time>2018-08-01T08:26:12Z</time>
      </trkpt>
      <trkpt lat="45.70442" lon="0.61736">
        <ele>196.36328125</ele>
        <time>2018-08-01T08:26:17Z</time>
      </trkpt>
      <trkpt lat="45.70454" lon="0.61736">
        <ele>198.2578125</ele>
        <time>2018-08-01T08:26:26Z</time>
      </trkpt>
      <trkpt lat="45.70468" lon="0.61735">
        <ele>200.3515625</ele>
        <time>2018-08-01T08:26:35Z</time>
      </trkpt>
      <trkpt lat="45.7048" lon="0.61736">
        <ele>202.33203125</ele>
        <time>2018-08-01T08:26:43Z</time>
      </trkpt>
      <trkpt lat="45.70492" lon="0.61735">
        <ele>204.19140625</ele>
        <time>2018-08-01T08:26:51Z</time>
      </trkpt>
      <trkpt lat="45.705" lon="0.61737">
        <ele>205.42578125</ele>
        <time>2018-08-01T08:26:57Z</time>
      </trkpt>
      <trkpt lat="45.7051" lon="0.61737">
        <ele>206.75390625</ele>
        <time>2018-08-01T08:27:04Z</time>
      </trkpt>
      <trkpt lat="45.7052" lon="0.61739">
        <ele>208.23828125</ele>
        <time>2018-08-01T08:27:10Z</time>
      </trkpt>
      <trkpt lat="45.7053" lon="0.61741">
        <ele>209.640625</ele>
        <time>2018-08-01T08:27:16Z</time>
      </trkpt>
      <trkpt lat="45.70543" lon="0.61744">
        <ele>211.49609375</ele>
        <time>2018-08-01T08:27:23Z</time>
      </trkpt>
      <trkpt lat="45.70554" lon="0.61745">
        <ele>212.53515625</ele>
        <time>2018-08-01T08:27:29Z</time>
      </trkpt>
      <trkpt lat="45.70569" lon="0.61748">
        <ele>213.56640625</ele>
        <time>2018-08-01T08:27:37Z</time>
      </trkpt>
      <trkpt lat="45.7058" lon="0.6175">
        <ele>214.3515625</ele>
        <time>2018-08-01T08:27:43Z</time>
      </trkpt>
      <trkpt lat="45.70593" lon="0.61755">
        <ele>215.40234375</ele>
        <time>2018-08-01T08:27:50Z</time>
      </trkpt>
      <trkpt lat="45.70609" lon="0.61762">
        <ele>216.6796875</ele>
        <time>2018-08-01T08:27:59Z</time>
      </trkpt>
      <trkpt lat="45.7061" lon="0.61762">
        <ele>216.73046875</ele>
        <time>2018-08-01T08:28:00Z</time>
      </trkpt>
      <trkpt lat="45.70612" lon="0.61763">
        <ele>216.82421875</ele>
        <time>2018-08-01T08:28:01Z</time>
      </trkpt>
      <trkpt lat="45.70614" lon="0.61763">
        <ele>216.9296875</ele>
        <time>2018-08-01T08:28:02Z</time>
      </trkpt>
      <trkpt lat="45.70616" lon="0.61764">
        <ele>217.0078125</ele>
        <time>2018-08-01T08:28:03Z</time>
      </trkpt>
      <trkpt lat="45.70618" lon="0.61764">
        <ele>217.05859375</ele>
        <time>2018-08-01T08:28:04Z</time>
      </trkpt>
      <trkpt lat="45.7062" lon="0.61765">
        <ele>217.16015625</ele>
        <time>2018-08-01T08:28:05Z</time>
      </trkpt>
      <trkpt lat="45.70635" lon="0.61769">
        <ele>217.90234375</ele>
        <time>2018-08-01T08:28:13Z</time>
      </trkpt>
      <trkpt lat="45.70639" lon="0.6177">
        <ele>218.08203125</ele>
        <time>2018-08-01T08:28:15Z</time>
      </trkpt>
      <trkpt lat="45.70641" lon="0.6177">
        <ele>218.1796875</ele>
        <time>2018-08-01T08:28:16Z</time>
      </trkpt>
      <trkpt lat="45.70661" lon="0.61774">
        <ele>219.0625</ele>
        <time>2018-08-01T08:28:25Z</time>
      </trkpt>
      <trkpt lat="45.70678" lon="0.61778">
        <ele>219.5859375</ele>
        <time>2018-08-01T08:28:32Z</time>
      </trkpt>
      <trkpt lat="45.70694" lon="0.61784">
        <ele>220.40625</ele>
        <time>2018-08-01T08:28:39Z</time>
      </trkpt>
      <trkpt lat="45.70713" lon="0.61792">
        <ele>221.5859375</ele>
        <time>2018-08-01T08:28:47Z</time>
      </trkpt>
      <trkpt lat="45.70726" lon="0.61797">
        <ele>222.12109375</ele>
        <time>2018-08-01T08:28:53Z</time>
      </trkpt>
      <trkpt lat="45.70742" lon="0.61801">
        <ele>222.50390625</ele>
        <time>2018-08-01T08:29:00Z</time>
      </trkpt>
      <trkpt lat="45.70753" lon="0.61806">
        <ele>222.8828125</ele>
        <time>2018-08-01T08:29:04Z</time>
      </trkpt>
      <trkpt lat="45.70755" lon="0.61807">
        <ele>223.0078125</ele>
        <time>2018-08-01T08:29:05Z</time>
      </trkpt>
      <trkpt lat="45.70757" lon="0.61808">
        <ele>223.125</ele>
        <time>2018-08-01T08:29:06Z</time>
      </trkpt>
      <trkpt lat="45.70759" lon="0.61809">
        <ele>223.21484375</ele>
        <time>2018-08-01T08:29:07Z</time>
      </trkpt>
      <trkpt lat="45.70762" lon="0.61811">
        <ele>223.34375</ele>
        <time>2018-08-01T08:29:08Z</time>
      </trkpt>
      <trkpt lat="45.70764" lon="0.61812">
        <ele>223.44921875</ele>
        <time>2018-08-01T08:29:09Z</time>
      </trkpt>
      <trkpt lat="45.70767" lon="0.61813">
        <ele>223.55078125</ele>
        <time>2018-08-01T08:29:10Z</time>
      </trkpt>
      <trkpt lat="45.70769" lon="0.61814">
        <ele>223.64453125</ele>
        <time>2018-08-01T08:29:11Z</time>
      </trkpt>
      <trkpt lat="45.70771" lon="0.61816">
        <ele>223.8125</ele>
        <time>2018-08-01T08:29:12Z</time>
      </trkpt>
      <trkpt lat="45.70774" lon="0.61818">
        <ele>223.9140625</ele>
        <time>2018-08-01T08:29:13Z</time>
      </trkpt>
      <trkpt lat="45.70777" lon="0.61819">
        <ele>224.0234375</ele>
        <time>2018-08-01T08:29:14Z</time>
      </trkpt>
      <trkpt lat="45.70779" lon="0.61821">
        <ele>224.12890625</ele>
        <time>2018-08-01T08:29:15Z</time>
      </trkpt>
      <trkpt lat="45.70782" lon="0.61823">
        <ele>224.22265625</ele>
        <time>2018-08-01T08:29:16Z</time>
      </trkpt>
      <trkpt lat="45.70801" lon="0.61832">
        <ele>224.71484375</ele>
        <time>2018-08-01T08:29:23Z</time>
      </trkpt>
      <trkpt lat="45.70813" lon="0.61838">
        <ele>225.01171875</ele>
        <time>2018-08-01T08:29:28Z</time>
      </trkpt>
      <trkpt lat="45.70832" lon="0.61846">
        <ele>225.35546875</ele>
        <time>2018-08-01T08:29:35Z</time>
      </trkpt>
      <trkpt lat="45.70846" lon="0.61852">
        <ele>225.328125</ele>
        <time>2018-08-01T08:29:40Z</time>
      </trkpt>
      <trkpt lat="45.70868" lon="0.61856">
        <ele>224.9296875</ele>
        <time>2018-08-01T08:29:46Z</time>
      </trkpt>
      <trkpt lat="45.70894" lon="0.61858">
        <ele>223.92578125</ele>
        <time>2018-08-01T08:29:52Z</time>
      </trkpt>
      <trkpt lat="45.70923" lon="0.61861">
        <ele>222.54296875</ele>
        <time>2018-08-01T08:29:59Z</time>
      </trkpt>
      <trkpt lat="45.70936" lon="0.61859">
        <ele>221.625</ele>
        <time>2018-08-01T08:30:02Z</time>
      </trkpt>
      <trkpt lat="45.70943" lon="0.61859">
        <ele>221.09375</ele>
        <time>2018-08-01T08:30:03Z</time>
      </trkpt>
      <trkpt lat="45.70949" lon="0.61858">
        <ele>220.37890625</ele>
        <time>2018-08-01T08:30:04Z</time>
      </trkpt>
      <trkpt lat="45.70956" lon="0.61856">
        <ele>219.625</ele>
        <time>2018-08-01T08:30:05Z</time>
      </trkpt>
      <trkpt lat="45.70964" lon="0.61855">
        <ele>218.87890625</ele>
        <time>2018-08-01T08:30:06Z</time>
      </trkpt>
      <trkpt lat="45.70972" lon="0.61853">
        <ele>218.09765625</ele>
        <time>2018-08-01T08:30:07Z</time>
      </trkpt>
      <trkpt lat="45.70979" lon="0.61854">
        <ele>217.44921875</ele>
        <time>2018-08-01T08:30:08Z</time>
      </trkpt>
      <trkpt lat="45.70986" lon="0.61856">
        <ele>216.94921875</ele>
        <time>2018-08-01T08:30:09Z</time>
      </trkpt>
      <trkpt lat="45.70994" lon="0.61859">
        <ele>216.59765625</ele>
        <time>2018-08-01T08:30:10Z</time>
      </trkpt>
      <trkpt lat="45.71" lon="0.61863">
        <ele>216.4296875</ele>
        <time>2018-08-01T08:30:11Z</time>
      </trkpt>
      <trkpt lat="45.71006" lon="0.61868">
        <ele>216.4375</ele>
        <time>2018-08-01T08:30:12Z</time>
      </trkpt>
      <trkpt lat="45.71011" lon="0.61875">
        <ele>216.5625</ele>
        <time>2018-08-01T08:30:13Z</time>
      </trkpt>
      <trkpt lat="45.71017" lon="0.61881">
        <ele>216.78125</ele>
        <time>2018-08-01T08:30:14Z</time>
      </trkpt>
      <trkpt lat="45.71022" lon="0.61888">
        <ele>217.046875</ele>
        <time>2018-08-01T08:30:15Z</time>
      </trkpt>
      <trkpt lat="45.71041" lon="0.61912">
        <ele>218.0859375</ele>
        <time>2018-08-01T08:30:19Z</time>
      </trkpt>
      <trkpt lat="45.71046" lon="0.61918">
        <ele>218.32421875</ele>
        <time>2018-08-01T08:30:20Z</time>
      </trkpt>
      <trkpt lat="45.71055" lon="0.61928">
        <ele>219.28125</ele>
        <time>2018-08-01T08:30:22Z</time>
      </trkpt>
      <trkpt lat="45.71078" lon="0.61953">
        <ele>222.453125</ele>
        <time>2018-08-01T08:30:28Z</time>
      </trkpt>
      <trkpt lat="45.711" lon="0.61977">
        <ele>226.03515625</ele>
        <time>2018-08-01T08:30:35Z</time>
      </trkpt>
      <trkpt lat="45.71112" lon="0.6199">
        <ele>228.4453125</ele>
        <time>2018-08-01T08:30:41Z</time>
      </trkpt>
      <trkpt lat="45.71123" lon="0.62">
        <ele>230.578125</ele>
        <time>2018-08-01T08:30:47Z</time>
      </trkpt>
      <trkpt lat="45.71139" lon="0.62012">
        <ele>233.08984375</ele>
        <time>2018-08-01T08:30:55Z</time>
      </trkpt>
      <trkpt lat="45.71154" lon="0.62017">
        <ele>234.5859375</ele>
        <time>2018-08-01T08:31:03Z</time>
      </trkpt>
      <trkpt lat="45.71157" lon="0.62017">
        <ele>234.7578125</ele>
        <time>2018-08-01T08:31:04Z</time>
      </trkpt>
      <trkpt lat="45.71176" lon="0.62017">
        <ele>234.86328125</ele>
        <time>2018-08-01T08:31:11Z</time>
      </trkpt>
      <trkpt lat="45.71191" lon="0.62017">
        <ele>234.89453125</ele>
        <time>2018-08-01T08:31:17Z</time>
      </trkpt>
      <trkpt lat="45.71206" lon="0.62021">
        <ele>235.34375</ele>
        <time>2018-08-01T08:31:23Z</time>
      </trkpt>
      <trkpt lat="45.71227" lon="0.62033">
        <ele>236.515625</ele>
        <time>2018-08-01T08:31:30Z</time>
      </trkpt>
      <trkpt lat="45.71253" lon="0.6205">
        <ele>238.015625</ele>
        <time>2018-08-01T08:31:40Z</time>
      </trkpt>
      <trkpt lat="45.71278" lon="0.6206">
        <ele>238.703125</ele>
        <time>2018-08-01T08:31:49Z</time>
      </trkpt>
      <trkpt lat="45.71299" lon="0.62069">
        <ele>238.77734375</ele>
        <time>2018-08-01T08:31:57Z</time>
      </trkpt>
      <trkpt lat="45.71321" lon="0.62074">
        <ele>238.30859375</ele>
        <time>2018-08-01T08:32:05Z</time>
      </trkpt>
      <trkpt lat="45.71338" lon="0.62077">
        <ele>237.31640625</ele>
        <time>2018-08-01T08:32:11Z</time>
      </trkpt>
      <trkpt lat="45.71359" lon="0.62084">
        <ele>236.2890625</ele>
        <time>2018-08-01T08:32:18Z</time>
      </trkpt>
      <trkpt lat="45.71371" lon="0.62091">
        <ele>236.0859375</ele>
        <time>2018-08-01T08:32:21Z</time>
      </trkpt>
      <trkpt lat="45.71379" lon="0.62097">
        <ele>236.13671875</ele>
        <time>2018-08-01T08:32:23Z</time>
      </trkpt>
      <trkpt lat="45.71384" lon="0.62101">
        <ele>236.31640625</ele>
        <time>2018-08-01T08:32:24Z</time>
      </trkpt>
      <trkpt lat="45.71388" lon="0.62105">
        <ele>236.58203125</ele>
        <time>2018-08-01T08:32:25Z</time>
      </trkpt>
      <trkpt lat="45.71393" lon="0.6211">
        <ele>236.90625</ele>
        <time>2018-08-01T08:32:26Z</time>
      </trkpt>
      <trkpt lat="45.71402" lon="0.62119">
        <ele>237.6015625</ele>
        <time>2018-08-01T08:32:28Z</time>
      </trkpt>
      <trkpt lat="45.71413" lon="0.62129">
        <ele>238.28515625</ele>
        <time>2018-08-01T08:32:30Z</time>
      </trkpt>
      <trkpt lat="45.71443" lon="0.6215">
        <ele>238.83984375</ele>
        <time>2018-08-01T08:32:36Z</time>
      </trkpt>
      <trkpt lat="45.71453" lon="0.62157">
        <ele>239.4140625</ele>
        <time>2018-08-01T08:32:39Z</time>
      </trkpt>
      <trkpt lat="45.71457" lon="0.62162">
        <ele>239.77734375</ele>
        <time>2018-08-01T08:32:41Z</time>
      </trkpt>
      <trkpt lat="45.71461" lon="0.62166">
        <ele>240.05078125</ele>
        <time>2018-08-01T08:32:43Z</time>
      </trkpt>
      <trkpt lat="45.71467" lon="0.62173">
        <ele>240.50390625</ele>
        <time>2018-08-01T08:32:46Z</time>
      </trkpt>
      <trkpt lat="45.7147" lon="0.62175">
        <ele>240.6328125</ele>
        <time>2018-08-01T08:32:47Z</time>
      </trkpt>
      <trkpt lat="45.71488" lon="0.62183">
        <ele>240.96875</ele>
        <time>2018-08-01T08:32:53Z</time>
      </trkpt>
      <trkpt lat="45.71509" lon="0.6218">
        <ele>240.41015625</ele>
        <time>2018-08-01T08:32:58Z</time>
      </trkpt>
      <trkpt lat="45.71513" lon="0.62179">
        <ele>240.26171875</ele>
        <time>2018-08-01T08:32:59Z</time>
      </trkpt>
      <trkpt lat="45.71518" lon="0.62177">
        <ele>240.09765625</ele>
        <time>2018-08-01T08:33:00Z</time>
      </trkpt>
      <trkpt lat="45.71523" lon="0.62176">
        <ele>239.93359375</ele>
        <time>2018-08-01T08:33:01Z</time>
      </trkpt>
      <trkpt lat="45.71528" lon="0.62175">
        <ele>239.79296875</ele>
        <time>2018-08-01T08:33:02Z</time>
      </trkpt>
      <trkpt lat="45.71556" lon="0.62168">
        <ele>238.9765625</ele>
        <time>2018-08-01T08:33:07Z</time>
      </trkpt>
      <trkpt lat="45.71562" lon="0.62165">
        <ele>238.71875</ele>
        <time>2018-08-01T08:33:08Z</time>
      </trkpt>
      <trkpt lat="45.71568" lon="0.62163">
        <ele>238.47265625</ele>
        <time>2018-08-01T08:33:09Z</time>
      </trkpt>
      <trkpt lat="45.716" lon="0.62153">
        <ele>237.3828125</ele>
        <time>2018-08-01T08:33:14Z</time>
      </trkpt>
      <trkpt lat="45.71607" lon="0.62152">
        <ele>237.29296875</ele>
        <time>2018-08-01T08:33:15Z</time>
      </trkpt>
      <trkpt lat="45.71648" lon="0.62142">
        <ele>237.30859375</ele>
        <time>2018-08-01T08:33:21Z</time>
      </trkpt>
      <trkpt lat="45.71655" lon="0.6214">
        <ele>237.34375</ele>
        <time>2018-08-01T08:33:22Z</time>
      </trkpt>
      <trkpt lat="45.71703" lon="0.62131">
        <ele>236.23828125</ele>
        <time>2018-08-01T08:33:29Z</time>
      </trkpt>
      <trkpt lat="45.7173" lon="0.62136">
        <ele>235.3125</ele>
        <time>2018-08-01T08:33:33Z</time>
      </trkpt>
      <trkpt lat="45.71754" lon="0.62147">
        <ele>234.1953125</ele>
        <time>2018-08-01T08:33:37Z</time>
      </trkpt>
      <trkpt lat="45.71759" lon="0.6215">
        <ele>233.9609375</ele>
        <time>2018-08-01T08:33:38Z</time>
      </trkpt>
      <trkpt lat="45.71803" lon="0.62166">
        <ele>230.9375</ele>
        <time>2018-08-01T08:33:45Z</time>
      </trkpt>
      <trkpt lat="45.71817" lon="0.62172">
        <ele>229.9921875</ele>
        <time>2018-08-01T08:33:47Z</time>
      </trkpt>
      <trkpt lat="45.71825" lon="0.62176">
        <ele>229.6484375</ele>
        <time>2018-08-01T08:33:48Z</time>
      </trkpt>
      <trkpt lat="45.71839" lon="0.62188">
        <ele>228.97265625</ele>
        <time>2018-08-01T08:33:50Z</time>
      </trkpt>
      <trkpt lat="45.71853" lon="0.62202">
        <ele>228.49609375</ele>
        <time>2018-08-01T08:33:52Z</time>
      </trkpt>
      <trkpt lat="45.71901" lon="0.62232">
        <ele>227.65625</ele>
        <time>2018-08-01T08:33:58Z</time>
      </trkpt>
      <trkpt lat="45.71939" lon="0.62259">
        <ele>228.43359375</ele>
        <time>2018-08-01T08:34:03Z</time>
      </trkpt>
      <trkpt lat="45.71967" lon="0.6228">
        <ele>230.40625</ele>
        <time>2018-08-01T08:34:07Z</time>
      </trkpt>
      <trkpt lat="45.72012" lon="0.62306">
        <ele>231.55078125</ele>
        <time>2018-08-01T08:34:14Z</time>
      </trkpt>
      <trkpt lat="45.72018" lon="0.62309">
        <ele>231.42578125</ele>
        <time>2018-08-01T08:34:15Z</time>
      </trkpt>
      <trkpt lat="45.72055" lon="0.62324">
        <ele>230.640625</ele>
        <time>2018-08-01T08:34:22Z</time>
      </trkpt>
      <trkpt lat="45.72063" lon="0.6233">
        <ele>230.4609375</ele>
        <time>2018-08-01T08:34:24Z</time>
      </trkpt>
      <trkpt lat="45.72088" lon="0.62352">
        <ele>230.55859375</ele>
        <time>2018-08-01T08:34:30Z</time>
      </trkpt>
      <trkpt lat="45.72093" lon="0.62357">
        <ele>230.46484375</ele>
        <time>2018-08-01T08:34:31Z</time>
      </trkpt>
      <trkpt lat="45.72098" lon="0.62362">
        <ele>230.3671875</ele>
        <time>2018-08-01T08:34:32Z</time>
      </trkpt>
      <trkpt lat="45.72104" lon="0.62368">
        <ele>230.30859375</ele>
        <time>2018-08-01T08:34:33Z</time>
      </trkpt>
      <trkpt lat="45.72109" lon="0.62375">
        <ele>230.38671875</ele>
        <time>2018-08-01T08:34:34Z</time>
      </trkpt>
      <trkpt lat="45.72115" lon="0.62381">
        <ele>230.42578125</ele>
        <time>2018-08-01T08:34:35Z</time>
      </trkpt>
      <trkpt lat="45.72121" lon="0.62386">
        <ele>230.4296875</ele>
        <time>2018-08-01T08:34:36Z</time>
      </trkpt>
      <trkpt lat="45.72134" lon="0.62395">
        <ele>230.35546875</ele>
        <time>2018-08-01T08:34:38Z</time>
      </trkpt>
      <trkpt lat="45.7214" lon="0.62398">
        <ele>230.28515625</ele>
        <time>2018-08-01T08:34:39Z</time>
      </trkpt>
      <trkpt lat="45.72146" lon="0.62399">
        <ele>230.203125</ele>
        <time>2018-08-01T08:34:40Z</time>
      </trkpt>
      <trkpt lat="45.72171" lon="0.62406">
        <ele>230.43359375</ele>
        <time>2018-08-01T08:34:45Z</time>
      </trkpt>
      <trkpt lat="45.72182" lon="0.62397">
        <ele>230.83984375</ele>
        <time>2018-08-01T08:34:50Z</time>
      </trkpt>
      <trkpt lat="45.72187" lon="0.62397">
        <ele>231.015625</ele>
        <time>2018-08-01T08:35:25Z</time>
      </trkpt>
      <trkpt lat="45.72191" lon="0.62399">
        <ele>231.17578125</ele>
        <time>2018-08-01T08:35:27Z</time>
      </trkpt>
      <trkpt lat="45.72214" lon="0.624">
        <ele>232</ele>
        <time>2018-08-01T08:35:36Z</time>
      </trkpt>
      <trkpt lat="45.7223" lon="0.62396">
        <ele>232.6328125</ele>
        <time>2018-08-01T08:35:42Z</time>
      </trkpt>
      <trkpt lat="45.72233" lon="0.62396">
        <ele>232.7421875</ele>
        <time>2018-08-01T08:35:43Z</time>
      </trkpt>
      <trkpt lat="45.72237" lon="0.62396">
        <ele>232.87890625</ele>
        <time>2018-08-01T08:35:45Z</time>
      </trkpt>
      <trkpt lat="45.72246" lon="0.6239">
        <ele>233.3125</ele>
        <time>2018-08-01T08:35:50Z</time>
      </trkpt>
      <trkpt lat="45.72254" lon="0.62393">
        <ele>233.58203125</ele>
        <time>2018-08-01T08:35:55Z</time>
      </trkpt>
      <trkpt lat="45.72264" lon="0.62395">
        <ele>233.9921875</ele>
        <time>2018-08-01T08:36:01Z</time>
      </trkpt>
      <trkpt lat="45.72279" lon="0.62392">
        <ele>234.3515625</ele>
        <time>2018-08-01T08:36:08Z</time>
      </trkpt>
      <trkpt lat="45.72292" lon="0.6239">
        <ele>234.546875</ele>
        <time>2018-08-01T08:36:14Z</time>
      </trkpt>
      <trkpt lat="45.72294" lon="0.6239">
        <ele>234.5703125</ele>
        <time>2018-08-01T08:36:15Z</time>
      </trkpt>
      <trkpt lat="45.7231" lon="0.6239">
        <ele>234.7265625</ele>
        <time>2018-08-01T08:36:22Z</time>
      </trkpt>
      <trkpt lat="45.72332" lon="0.62385">
        <ele>235.28125</ele>
        <time>2018-08-01T08:36:30Z</time>
      </trkpt>
      <trkpt lat="45.72339" lon="0.62383">
        <ele>235.52734375</ele>
        <time>2018-08-01T08:36:33Z</time>
      </trkpt>
      <trkpt lat="45.72345" lon="0.62379">
        <ele>235.80859375</ele>
        <time>2018-08-01T08:36:37Z</time>
      </trkpt>
      <trkpt lat="45.72356" lon="0.62371">
        <ele>236.44140625</ele>
        <time>2018-08-01T08:36:42Z</time>
      </trkpt>
      <trkpt lat="45.72359" lon="0.62369">
        <ele>236.61328125</ele>
        <time>2018-08-01T08:36:43Z</time>
      </trkpt>
      <trkpt lat="45.72364" lon="0.62368">
        <ele>236.765625</ele>
        <time>2018-08-01T08:36:45Z</time>
      </trkpt>
      <trkpt lat="45.72374" lon="0.62363">
        <ele>237.21875</ele>
        <time>2018-08-01T08:36:50Z</time>
      </trkpt>
      <trkpt lat="45.72392" lon="0.62352">
        <ele>237.9375</ele>
        <time>2018-08-01T08:36:58Z</time>
      </trkpt>
      <trkpt lat="45.72412" lon="0.62337">
        <ele>238.765625</ele>
        <time>2018-08-01T08:37:05Z</time>
      </trkpt>
      <trkpt lat="45.72439" lon="0.62299">
        <ele>240.7890625</ele>
        <time>2018-08-01T08:37:16Z</time>
      </trkpt>
      <trkpt lat="45.72458" lon="0.62259">
        <ele>242.94921875</ele>
        <time>2018-08-01T08:37:27Z</time>
      </trkpt>
      <trkpt lat="45.7247" lon="0.62221">
        <ele>244.76171875</ele>
        <time>2018-08-01T08:37:37Z</time>
      </trkpt>
      <trkpt lat="45.72477" lon="0.62179">
        <ele>246.51953125</ele>
        <time>2018-08-01T08:37:47Z</time>
      </trkpt>
      <trkpt lat="45.72479" lon="0.62171">
        <ele>246.734375</ele>
        <time>2018-08-01T08:37:49Z</time>
      </trkpt>
      <trkpt lat="45.72481" lon="0.62169">
        <ele>246.84375</ele>
        <time>2018-08-01T08:37:50Z</time>
      </trkpt>
      <trkpt lat="45.72483" lon="0.62171">
        <ele>246.90234375</ele>
        <time>2018-08-01T08:37:51Z</time>
      </trkpt>
      <trkpt lat="45.72485" lon="0.62173">
        <ele>246.9140625</ele>
        <time>2018-08-01T08:37:52Z</time>
      </trkpt>
      <trkpt lat="45.72486" lon="0.62177">
        <ele>246.90625</ele>
        <time>2018-08-01T08:37:53Z</time>
      </trkpt>
      <trkpt lat="45.72501" lon="0.62214">
        <ele>245.21875</ele>
        <time>2018-08-01T08:38:01Z</time>
      </trkpt>
      <trkpt lat="45.72522" lon="0.62256">
        <ele>242.734375</ele>
        <time>2018-08-01T08:38:08Z</time>
      </trkpt>
      <trkpt lat="45.72527" lon="0.62262">
        <ele>242.4296875</ele>
        <time>2018-08-01T08:38:09Z</time>
      </trkpt>
      <trkpt lat="45.72532" lon="0.62266">
        <ele>242.18359375</ele>
        <time>2018-08-01T08:38:10Z</time>
      </trkpt>
      <trkpt lat="45.72538" lon="0.6227">
        <ele>241.9921875</ele>
        <time>2018-08-01T08:38:11Z</time>
      </trkpt>
      <trkpt lat="45.72545" lon="0.62273">
        <ele>241.81640625</ele>
        <time>2018-08-01T08:38:12Z</time>
      </trkpt>
      <trkpt lat="45.72551" lon="0.62278">
        <ele>241.4453125</ele>
        <time>2018-08-01T08:38:13Z</time>
      </trkpt>
      <trkpt lat="45.72557" lon="0.62284">
        <ele>240.92578125</ele>
        <time>2018-08-01T08:38:14Z</time>
      </trkpt>
      <trkpt lat="45.72561" lon="0.62292">
        <ele>240.37890625</ele>
        <time>2018-08-01T08:38:15Z</time>
      </trkpt>
      <trkpt lat="45.72566" lon="0.623">
        <ele>239.8359375</ele>
        <time>2018-08-01T08:38:16Z</time>
      </trkpt>
      <trkpt lat="45.72599" lon="0.62355">
        <ele>236.06640625</ele>
        <time>2018-08-01T08:38:23Z</time>
      </trkpt>
      <trkpt lat="45.72623" lon="0.624">
        <ele>233.078125</ele>
        <time>2018-08-01T08:38:29Z</time>
      </trkpt>
      <trkpt lat="45.72639" lon="0.6243">
        <ele>231.63671875</ele>
        <time>2018-08-01T08:38:35Z</time>
      </trkpt>
      <trkpt lat="45.72649" lon="0.62445">
        <ele>230.8046875</ele>
        <time>2018-08-01T08:38:39Z</time>
      </trkpt>
      <trkpt lat="45.72662" lon="0.62466">
        <ele>229.48046875</ele>
        <time>2018-08-01T08:38:43Z</time>
      </trkpt>
      <trkpt lat="45.72674" lon="0.62488">
        <ele>227.35546875</ele>
        <time>2018-08-01T08:38:49Z</time>
      </trkpt>
      <trkpt lat="45.72684" lon="0.62514">
        <ele>225.27734375</ele>
        <time>2018-08-01T08:38:55Z</time>
      </trkpt>
      <trkpt lat="45.72695" lon="0.62532">
        <ele>223.59765625</ele>
        <time>2018-08-01T08:39:00Z</time>
      </trkpt>
      <trkpt lat="45.72704" lon="0.62551">
        <ele>221.6796875</ele>
        <time>2018-08-01T08:39:05Z</time>
      </trkpt>
      <trkpt lat="45.72705" lon="0.62554">
        <ele>221.30859375</ele>
        <time>2018-08-01T08:39:06Z</time>
      </trkpt>
      <trkpt lat="45.72713" lon="0.62571">
        <ele>219.26171875</ele>
        <time>2018-08-01T08:39:11Z</time>
      </trkpt>
      <trkpt lat="45.72717" lon="0.6258">
        <ele>217.7890625</ele>
        <time>2018-08-01T08:39:13Z</time>
      </trkpt>
      <trkpt lat="45.72721" lon="0.62588">
        <ele>216.37109375</ele>
        <time>2018-08-01T08:39:15Z</time>
      </trkpt>
      <trkpt lat="45.72727" lon="0.62592">
        <ele>214.93359375</ele>
        <time>2018-08-01T08:39:19Z</time>
      </trkpt>
      <trkpt lat="45.72733" lon="0.62598">
        <ele>213.34765625</ele>
        <time>2018-08-01T08:39:28Z</time>
      </trkpt>
      <trkpt lat="45.72734" lon="0.626">
        <ele>212.9140625</ele>
        <time>2018-08-01T08:39:30Z</time>
      </trkpt>
      <trkpt lat="45.72736" lon="0.62629">
        <ele>209.7890625</ele>
        <time>2018-08-01T08:39:39Z</time>
      </trkpt>
      <trkpt lat="45.72735" lon="0.62659">
        <ele>208.7109375</ele>
        <time>2018-08-01T08:39:45Z</time>
      </trkpt>
      <trkpt lat="45.72733" lon="0.6267">
        <ele>208.51171875</ele>
        <time>2018-08-01T08:39:47Z</time>
      </trkpt>
      <trkpt lat="45.72729" lon="0.62682">
        <ele>208.484375</ele>
        <time>2018-08-01T08:39:49Z</time>
      </trkpt>
      <trkpt lat="45.72726" lon="0.62687">
        <ele>208.42578125</ele>
        <time>2018-08-01T08:39:50Z</time>
      </trkpt>
      <trkpt lat="45.72718" lon="0.62698">
        <ele>207.91796875</ele>
        <time>2018-08-01T08:39:52Z</time>
      </trkpt>
      <trkpt lat="45.72702" lon="0.62716">
        <ele>207.9453125</ele>
        <time>2018-08-01T08:39:55Z</time>
      </trkpt>
      <trkpt lat="45.72682" lon="0.62733">
        <ele>208.45703125</ele>
        <time>2018-08-01T08:39:58Z</time>
      </trkpt>
      <trkpt lat="45.72652" lon="0.62753">
        <ele>208.96484375</ele>
        <time>2018-08-01T08:40:02Z</time>
      </trkpt>
      <trkpt lat="45.7262" lon="0.62774">
        <ele>207.82421875</ele>
        <time>2018-08-01T08:40:06Z</time>
      </trkpt>
      <trkpt lat="45.72613" lon="0.62781">
        <ele>206.83203125</ele>
        <time>2018-08-01T08:40:07Z</time>
      </trkpt>
      <trkpt lat="45.72607" lon="0.62788">
        <ele>205.57421875</ele>
        <time>2018-08-01T08:40:08Z</time>
      </trkpt>
      <trkpt lat="45.72593" lon="0.62803">
        <ele>203.72265625</ele>
        <time>2018-08-01T08:40:10Z</time>
      </trkpt>
      <trkpt lat="45.72558" lon="0.62842">
        <ele>200.65625</ele>
        <time>2018-08-01T08:40:15Z</time>
      </trkpt>
      <trkpt lat="45.72552" lon="0.62851">
        <ele>199.42578125</ele>
        <time>2018-08-01T08:40:16Z</time>
      </trkpt>
      <trkpt lat="45.72548" lon="0.62862">
        <ele>198.28125</ele>
        <time>2018-08-01T08:40:17Z</time>
      </trkpt>
      <trkpt lat="45.72547" lon="0.62874">
        <ele>196.6171875</ele>
        <time>2018-08-01T08:40:18Z</time>
      </trkpt>
      <trkpt lat="45.72549" lon="0.62888">
        <ele>194.6328125</ele>
        <time>2018-08-01T08:40:19Z</time>
      </trkpt>
      <trkpt lat="45.72551" lon="0.62902">
        <ele>192.6171875</ele>
        <time>2018-08-01T08:40:20Z</time>
      </trkpt>
      <trkpt lat="45.72554" lon="0.62916">
        <ele>192.0703125</ele>
        <time>2018-08-01T08:40:21Z</time>
      </trkpt>
      <trkpt lat="45.72564" lon="0.62966">
        <ele>193.98046875</ele>
        <time>2018-08-01T08:40:25Z</time>
      </trkpt>
      <trkpt lat="45.72565" lon="0.62976">
        <ele>195.34765625</ele>
        <time>2018-08-01T08:40:26Z</time>
      </trkpt>
      <trkpt lat="45.72566" lon="0.62984">
        <ele>196.3515625</ele>
        <time>2018-08-01T08:40:27Z</time>
      </trkpt>
      <trkpt lat="45.72567" lon="0.62989">
        <ele>197.15234375</ele>
        <time>2018-08-01T08:40:28Z</time>
      </trkpt>
      <trkpt lat="45.72568" lon="0.62993">
        <ele>197.80078125</ele>
        <time>2018-08-01T08:40:29Z</time>
      </trkpt>
      <trkpt lat="45.7257" lon="0.62995">
        <ele>198.2734375</ele>
        <time>2018-08-01T08:40:30Z</time>
      </trkpt>
      <trkpt lat="45.72571" lon="0.62996">
        <ele>198.640625</ele>
        <time>2018-08-01T08:40:31Z</time>
      </trkpt>
      <trkpt lat="45.72572" lon="0.62997">
        <ele>198.99609375</ele>
        <time>2018-08-01T08:40:32Z</time>
      </trkpt>
      <trkpt lat="45.72573" lon="0.62999">
        <ele>199.33203125</ele>
        <time>2018-08-01T08:40:33Z</time>
      </trkpt>
      <trkpt lat="45.72573" lon="0.63001">
        <ele>199.70703125</ele>
        <time>2018-08-01T08:40:34Z</time>
      </trkpt>
      <trkpt lat="45.72574" lon="0.63004">
        <ele>200.15234375</ele>
        <time>2018-08-01T08:40:35Z</time>
      </trkpt>
      <trkpt lat="45.72576" lon="0.63016">
        <ele>202.03515625</ele>
        <time>2018-08-01T08:40:40Z</time>
      </trkpt>
      <trkpt lat="45.72576" lon="0.63019">
        <ele>202.3984375</ele>
        <time>2018-08-01T08:40:41Z</time>
      </trkpt>
      <trkpt lat="45.72579" lon="0.63036">
        <ele>205.1015625</ele>
        <time>2018-08-01T08:40:49Z</time>
      </trkpt>
      <trkpt lat="45.72587" lon="0.63054">
        <ele>209.00390625</ele>
        <time>2018-08-01T08:40:58Z</time>
      </trkpt>
      <trkpt lat="45.72589" lon="0.63057">
        <ele>209.83984375</ele>
        <time>2018-08-01T08:41:04Z</time>
      </trkpt>
      <trkpt lat="45.72592" lon="0.63067">
        <ele>211.85546875</ele>
        <time>2018-08-01T08:41:14Z</time>
      </trkpt>
      <trkpt lat="45.72592" lon="0.6307">
        <ele>212.32421875</ele>
        <time>2018-08-01T08:41:16Z</time>
      </trkpt>
      <trkpt lat="45.72592" lon="0.63077">
        <ele>212.6953125</ele>
        <time>2018-08-01T08:41:23Z</time>
      </trkpt>
      <trkpt lat="45.72591" lon="0.63079">
        <ele>212.62109375</ele>
        <time>2018-08-01T08:41:36Z</time>
      </trkpt>
      <trkpt lat="45.72592" lon="0.6308">
        <ele>212.98828125</ele>
        <time>2018-08-01T08:41:40Z</time>
      </trkpt>
      <trkpt lat="45.72595" lon="0.63086">
        <ele>213.65234375</ele>
        <time>2018-08-01T08:41:44Z</time>
      </trkpt>
      <trkpt lat="45.726" lon="0.63098">
        <ele>214.875</ele>
        <time>2018-08-01T08:41:51Z</time>
      </trkpt>
      <trkpt lat="45.72605" lon="0.63108">
        <ele>215.9296875</ele>
        <time>2018-08-01T08:41:58Z</time>
      </trkpt>
      <trkpt lat="45.72606" lon="0.63112">
        <ele>216.125</ele>
        <time>2018-08-01T08:42:00Z</time>
      </trkpt>
      <trkpt lat="45.7261" lon="0.6313">
        <ele>216.92578125</ele>
        <time>2018-08-01T08:42:08Z</time>
      </trkpt>
      <trkpt lat="45.7261" lon="0.63132">
        <ele>217.01953125</ele>
        <time>2018-08-01T08:42:09Z</time>
      </trkpt>
      <trkpt lat="45.72612" lon="0.63149">
        <ele>217.5</ele>
        <time>2018-08-01T08:42:17Z</time>
      </trkpt>
      <trkpt lat="45.72612" lon="0.6316">
        <ele>217.703125</ele>
        <time>2018-08-01T08:42:25Z</time>
      </trkpt>
      <trkpt lat="45.72611" lon="0.63164">
        <ele>217.703125</ele>
        <time>2018-08-01T08:42:28Z</time>
      </trkpt>
      <trkpt lat="45.72613" lon="0.63182">
        <ele>218.26171875</ele>
        <time>2018-08-01T08:42:38Z</time>
      </trkpt>
      <trkpt lat="45.72616" lon="0.63193">
        <ele>218.9453125</ele>
        <time>2018-08-01T08:42:47Z</time>
      </trkpt>
      <trkpt lat="45.72616" lon="0.63203">
        <ele>219.37890625</ele>
        <time>2018-08-01T08:42:54Z</time>
      </trkpt>
      <trkpt lat="45.72615" lon="0.63211">
        <ele>219.50390625</ele>
        <time>2018-08-01T08:43:04Z</time>
      </trkpt>
      <trkpt lat="45.72615" lon="0.6322">
        <ele>219.78125</ele>
        <time>2018-08-01T08:43:11Z</time>
      </trkpt>
      <trkpt lat="45.7261" lon="0.63225">
        <ele>219.35546875</ele>
        <time>2018-08-01T08:43:19Z</time>
      </trkpt>
      <trkpt lat="45.72596" lon="0.63235">
        <ele>219.05078125</ele>
        <time>2018-08-01T08:43:28Z</time>
      </trkpt>
      <trkpt lat="45.72586" lon="0.63243">
        <ele>219.90234375</ele>
        <time>2018-08-01T08:43:34Z</time>
      </trkpt>
      <trkpt lat="45.72575" lon="0.63251">
        <ele>220.99609375</ele>
        <time>2018-08-01T08:43:41Z</time>
      </trkpt>
      <trkpt lat="45.7257" lon="0.63257">
        <ele>221.5625</ele>
        <time>2018-08-01T08:43:48Z</time>
      </trkpt>
      <trkpt lat="45.72564" lon="0.63265">
        <ele>222.41015625</ele>
        <time>2018-08-01T08:43:58Z</time>
      </trkpt>
      <trkpt lat="45.7256" lon="0.63274">
        <ele>223.14453125</ele>
        <time>2018-08-01T08:44:08Z</time>
      </trkpt>
      <trkpt lat="45.72563" lon="0.63278">
        <ele>223.390625</ele>
        <time>2018-08-01T08:44:18Z</time>
      </trkpt>
      <trkpt lat="45.72565" lon="0.63281">
        <ele>223.57421875</ele>
        <time>2018-08-01T08:44:29Z</time>
      </trkpt>
      <trkpt lat="45.72578" lon="0.63296">
        <ele>224.52734375</ele>
        <time>2018-08-01T08:44:37Z</time>
      </trkpt>
      <trkpt lat="45.72595" lon="0.63313">
        <ele>226.00390625</ele>
        <time>2018-08-01T08:44:45Z</time>
      </trkpt>
      <trkpt lat="45.72615" lon="0.63325">
        <ele>227.6875</ele>
        <time>2018-08-01T08:44:52Z</time>
      </trkpt>
      <trkpt lat="45.72629" lon="0.63337">
        <ele>229.26953125</ele>
        <time>2018-08-01T08:44:58Z</time>
      </trkpt>
      <trkpt lat="45.72641" lon="0.63344">
        <ele>230.1875</ele>
        <time>2018-08-01T08:45:03Z</time>
      </trkpt>
      <trkpt lat="45.72654" lon="0.6335">
        <ele>230.89453125</ele>
        <time>2018-08-01T08:45:08Z</time>
      </trkpt>
      <trkpt lat="45.72668" lon="0.63353">
        <ele>232.08203125</ele>
        <time>2018-08-01T08:45:14Z</time>
      </trkpt>
      <trkpt lat="45.72683" lon="0.63357">
        <ele>233.69140625</ele>
        <time>2018-08-01T08:45:20Z</time>
      </trkpt>
      <trkpt lat="45.72687" lon="0.63356">
        <ele>233.98046875</ele>
        <time>2018-08-01T08:45:29Z</time>
      </trkpt>
      <trkpt lat="45.72688" lon="0.63354">
        <ele>233.90625</ele>
        <time>2018-08-01T08:45:31Z</time>
      </trkpt>
      <trkpt lat="45.7269" lon="0.63352">
        <ele>234.00390625</ele>
        <time>2018-08-01T08:45:33Z</time>
      </trkpt>
      <trkpt lat="45.72701" lon="0.63347">
        <ele>234.72265625</ele>
        <time>2018-08-01T08:45:40Z</time>
      </trkpt>
      <trkpt lat="45.72705" lon="0.63346">
        <ele>235.0859375</ele>
        <time>2018-08-01T08:45:42Z</time>
      </trkpt>
      <trkpt lat="45.72709" lon="0.63349">
        <ele>235.56640625</ele>
        <time>2018-08-01T08:45:45Z</time>
      </trkpt>
      <trkpt lat="45.72724" lon="0.6335">
        <ele>236.91015625</ele>
        <time>2018-08-01T08:45:52Z</time>
      </trkpt>
      <trkpt lat="45.72726" lon="0.63349">
        <ele>237.06640625</ele>
        <time>2018-08-01T08:45:54Z</time>
      </trkpt>
      <trkpt lat="45.72736" lon="0.63346">
        <ele>237.90625</ele>
        <time>2018-08-01T08:46:01Z</time>
      </trkpt>
      <trkpt lat="45.72743" lon="0.63341">
        <ele>238.53515625</ele>
        <time>2018-08-01T08:46:07Z</time>
      </trkpt>
      <trkpt lat="45.72753" lon="0.63338">
        <ele>239.42578125</ele>
        <time>2018-08-01T08:46:14Z</time>
      </trkpt>
      <trkpt lat="45.72766" lon="0.6335">
        <ele>240.67578125</ele>
        <time>2018-08-01T08:46:22Z</time>
      </trkpt>
      <trkpt lat="45.72773" lon="0.63361">
        <ele>241.6953125</ele>
        <time>2018-08-01T08:46:29Z</time>
      </trkpt>
      <trkpt lat="45.72781" lon="0.63372">
        <ele>242.72265625</ele>
        <time>2018-08-01T08:46:36Z</time>
      </trkpt>
      <trkpt lat="45.72784" lon="0.63376">
        <ele>243.07421875</ele>
        <time>2018-08-01T08:46:38Z</time>
      </trkpt>
      <trkpt lat="45.7279" lon="0.63379">
        <ele>243.6796875</ele>
        <time>2018-08-01T08:46:42Z</time>
      </trkpt>
      <trkpt lat="45.72799" lon="0.63374">
        <ele>244.30859375</ele>
        <time>2018-08-01T08:46:49Z</time>
      </trkpt>
      <trkpt lat="45.72803" lon="0.63344">
        <ele>243.95703125</ele>
        <time>2018-08-01T08:50:02Z</time>
      </trkpt>
      <trkpt lat="45.728" lon="0.63325">
        <ele>243.52734375</ele>
        <time>2018-08-01T08:50:07Z</time>
      </trkpt>
      <trkpt lat="45.728" lon="0.63321">
        <ele>243.484375</ele>
        <time>2018-08-01T08:50:08Z</time>
      </trkpt>
      <trkpt lat="45.72803" lon="0.63296">
        <ele>243.40234375</ele>
        <time>2018-08-01T08:50:14Z</time>
      </trkpt>
      <trkpt lat="45.72803" lon="0.63275">
        <ele>242.68359375</ele>
        <time>2018-08-01T08:50:19Z</time>
      </trkpt>
      <trkpt lat="45.72805" lon="0.63256">
        <ele>242.1484375</ele>
        <time>2018-08-01T08:50:24Z</time>
      </trkpt>
      <trkpt lat="45.72808" lon="0.63246">
        <ele>242.0546875</ele>
        <time>2018-08-01T08:50:28Z</time>
      </trkpt>
      <trkpt lat="45.7281" lon="0.63238">
        <ele>241.88671875</ele>
        <time>2018-08-01T08:50:30Z</time>
      </trkpt>
      <trkpt lat="45.72813" lon="0.63217">
        <ele>240.68359375</ele>
        <time>2018-08-01T08:50:35Z</time>
      </trkpt>
      <trkpt lat="45.72814" lon="0.63207">
        <ele>240.12109375</ele>
        <time>2018-08-01T08:50:37Z</time>
      </trkpt>
      <trkpt lat="45.72822" lon="0.63189">
        <ele>239.26953125</ele>
        <time>2018-08-01T08:50:42Z</time>
      </trkpt>
      <trkpt lat="45.72836" lon="0.63155">
        <ele>235.8125</ele>
        <time>2018-08-01T08:50:49Z</time>
      </trkpt>
      <trkpt lat="45.72842" lon="0.63143">
        <ele>234.37890625</ele>
        <time>2018-08-01T08:50:52Z</time>
      </trkpt>
      <trkpt lat="45.72852" lon="0.6313">
        <ele>232.72265625</ele>
        <time>2018-08-01T08:50:56Z</time>
      </trkpt>
      <trkpt lat="45.72859" lon="0.6312">
        <ele>231.5625</ele>
        <time>2018-08-01T08:50:59Z</time>
      </trkpt>
      <trkpt lat="45.72869" lon="0.63115">
        <ele>230.875</ele>
        <time>2018-08-01T08:51:03Z</time>
      </trkpt>
      <trkpt lat="45.72882" lon="0.63108">
        <ele>230.1640625</ele>
        <time>2018-08-01T08:51:07Z</time>
      </trkpt>
      <trkpt lat="45.72902" lon="0.631">
        <ele>230.046875</ele>
        <time>2018-08-01T08:51:12Z</time>
      </trkpt>
      <trkpt lat="45.72923" lon="0.631">
        <ele>230.60546875</ele>
        <time>2018-08-01T08:51:18Z</time>
      </trkpt>
      <trkpt lat="45.72937" lon="0.63109">
        <ele>231.296875</ele>
        <time>2018-08-01T08:51:23Z</time>
      </trkpt>
      <trkpt lat="45.72947" lon="0.63111">
        <ele>231.359375</ele>
        <time>2018-08-01T08:51:28Z</time>
      </trkpt>
      <trkpt lat="45.72955" lon="0.63101">
        <ele>231.1875</ele>
        <time>2018-08-01T08:51:39Z</time>
      </trkpt>
      <trkpt lat="45.72962" lon="0.6309">
        <ele>231.1328125</ele>
        <time>2018-08-01T08:51:49Z</time>
      </trkpt>
      <trkpt lat="45.72964" lon="0.63084">
        <ele>231.11328125</ele>
        <time>2018-08-01T08:51:58Z</time>
      </trkpt>
      <trkpt lat="45.72964" lon="0.63083">
        <ele>231.10546875</ele>
        <time>2018-08-01T08:51:59Z</time>
      </trkpt>
      <trkpt lat="45.72972" lon="0.63074">
        <ele>231.2890625</ele>
        <time>2018-08-01T08:52:06Z</time>
      </trkpt>
      <trkpt lat="45.72976" lon="0.63067">
        <ele>231.80078125</ele>
        <time>2018-08-01T08:52:10Z</time>
      </trkpt>
      <trkpt lat="45.72979" lon="0.63065">
        <ele>232.046875</ele>
        <time>2018-08-01T08:52:12Z</time>
      </trkpt>
      <trkpt lat="45.72992" lon="0.63071">
        <ele>232.1484375</ele>
        <time>2018-08-01T08:52:19Z</time>
      </trkpt>
      <trkpt lat="45.73" lon="0.63076">
        <ele>232.2421875</ele>
        <time>2018-08-01T08:52:25Z</time>
      </trkpt>
      <trkpt lat="45.73017" lon="0.63077">
        <ele>232.7109375</ele>
        <time>2018-08-01T08:52:32Z</time>
      </trkpt>
      <trkpt lat="45.73032" lon="0.63075">
        <ele>233.33203125</ele>
        <time>2018-08-01T08:52:39Z</time>
      </trkpt>
      <trkpt lat="45.73044" lon="0.63073">
        <ele>233.86328125</ele>
        <time>2018-08-01T08:52:45Z</time>
      </trkpt>
      <trkpt lat="45.73046" lon="0.63072">
        <ele>233.98046875</ele>
        <time>2018-08-01T08:52:46Z</time>
      </trkpt>
      <trkpt lat="45.73063" lon="0.63056">
        <ele>234.71875</ele>
        <time>2018-08-01T08:52:54Z</time>
      </trkpt>
      <trkpt lat="45.73073" lon="0.63043">
        <ele>235.37109375</ele>
        <time>2018-08-01T08:53:00Z</time>
      </trkpt>
      <trkpt lat="45.73081" lon="0.63037">
        <ele>235.703125</ele>
        <time>2018-08-01T08:53:06Z</time>
      </trkpt>
      <trkpt lat="45.73082" lon="0.63034">
        <ele>235.8671875</ele>
        <time>2018-08-01T08:53:10Z</time>
      </trkpt>
      <trkpt lat="45.73089" lon="0.6303">
        <ele>236.12890625</ele>
        <time>2018-08-01T08:53:19Z</time>
      </trkpt>
      <trkpt lat="45.73096" lon="0.63027">
        <ele>236.33984375</ele>
        <time>2018-08-01T08:53:25Z</time>
      </trkpt>
      <trkpt lat="45.73111" lon="0.63023">
        <ele>236.87890625</ele>
        <time>2018-08-01T08:53:32Z</time>
      </trkpt>
      <trkpt lat="45.73126" lon="0.63022">
        <ele>237.50390625</ele>
        <time>2018-08-01T08:53:38Z</time>
      </trkpt>
      <trkpt lat="45.73145" lon="0.63019">
        <ele>238.37890625</ele>
        <time>2018-08-01T08:53:44Z</time>
      </trkpt>
      <trkpt lat="45.7316" lon="0.63018">
        <ele>238.99609375</ele>
        <time>2018-08-01T08:53:49Z</time>
      </trkpt>
      <trkpt lat="45.73174" lon="0.63021">
        <ele>239.046875</ele>
        <time>2018-08-01T08:53:54Z</time>
      </trkpt>
      <trkpt lat="45.73178" lon="0.63019">
        <ele>239.23828125</ele>
        <time>2018-08-01T08:53:56Z</time>
      </trkpt>
      <trkpt lat="45.73179" lon="0.63014">
        <ele>239.515625</ele>
        <time>2018-08-01T08:53:58Z</time>
      </trkpt>
      <trkpt lat="45.73181" lon="0.63006">
        <ele>239.94921875</ele>
        <time>2018-08-01T08:54:05Z</time>
      </trkpt>
      <trkpt lat="45.73189" lon="0.63003">
        <ele>240.17578125</ele>
        <time>2018-08-01T08:54:14Z</time>
      </trkpt>
      <trkpt lat="45.73202" lon="0.62996">
        <ele>240.63671875</ele>
        <time>2018-08-01T08:54:23Z</time>
      </trkpt>
      <trkpt lat="45.73204" lon="0.62995">
        <ele>240.6953125</ele>
        <time>2018-08-01T08:54:24Z</time>
      </trkpt>
      <trkpt lat="45.73207" lon="0.6299">
        <ele>240.91796875</ele>
        <time>2018-08-01T08:54:27Z</time>
      </trkpt>
      <trkpt lat="45.73219" lon="0.62974">
        <ele>241.4765625</ele>
        <time>2018-08-01T08:54:37Z</time>
      </trkpt>
      <trkpt lat="45.73224" lon="0.62962">
        <ele>241.78515625</ele>
        <time>2018-08-01T08:54:45Z</time>
      </trkpt>
      <trkpt lat="45.73232" lon="0.62946">
        <ele>242.2265625</ele>
        <time>2018-08-01T08:54:54Z</time>
      </trkpt>
      <trkpt lat="45.73238" lon="0.62938">
        <ele>242.3984375</ele>
        <time>2018-08-01T08:55:02Z</time>
      </trkpt>
      <trkpt lat="45.73243" lon="0.62923">
        <ele>242.85546875</ele>
        <time>2018-08-01T08:55:10Z</time>
      </trkpt>
      <trkpt lat="45.73248" lon="0.62907">
        <ele>243.33984375</ele>
        <time>2018-08-01T08:55:16Z</time>
      </trkpt>
      <trkpt lat="45.73249" lon="0.62904">
        <ele>243.4375</ele>
        <time>2018-08-01T08:55:17Z</time>
      </trkpt>
      <trkpt lat="45.73252" lon="0.62895">
        <ele>243.72265625</ele>
        <time>2018-08-01T08:55:21Z</time>
      </trkpt>
      <trkpt lat="45.73259" lon="0.62875">
        <ele>244.32421875</ele>
        <time>2018-08-01T08:55:28Z</time>
      </trkpt>
      <trkpt lat="45.7326" lon="0.62872">
        <ele>244.40625</ele>
        <time>2018-08-01T08:55:29Z</time>
      </trkpt>
      <trkpt lat="45.73265" lon="0.62858">
        <ele>244.8046875</ele>
        <time>2018-08-01T08:55:33Z</time>
      </trkpt>
      <trkpt lat="45.73278" lon="0.62834">
        <ele>245.48046875</ele>
        <time>2018-08-01T08:55:39Z</time>
      </trkpt>
      <trkpt lat="45.73282" lon="0.62827">
        <ele>245.7265625</ele>
        <time>2018-08-01T08:55:41Z</time>
      </trkpt>
      <trkpt lat="45.73296" lon="0.62796">
        <ele>246.94140625</ele>
        <time>2018-08-01T08:55:48Z</time>
      </trkpt>
      <trkpt lat="45.73309" lon="0.62768">
        <ele>247.984375</ele>
        <time>2018-08-01T08:55:54Z</time>
      </trkpt>
      <trkpt lat="45.73317" lon="0.62751">
        <ele>248.578125</ele>
        <time>2018-08-01T08:55:57Z</time>
      </trkpt>
      <trkpt lat="45.73332" lon="0.62721">
        <ele>249.2890625</ele>
        <time>2018-08-01T08:56:03Z</time>
      </trkpt>
      <trkpt lat="45.73347" lon="0.62699">
        <ele>249.91015625</ele>
        <time>2018-08-01T08:56:08Z</time>
      </trkpt>
      <trkpt lat="45.73353" lon="0.62696">
        <ele>250.09375</ele>
        <time>2018-08-01T08:56:10Z</time>
      </trkpt>
      <trkpt lat="45.73369" lon="0.62682">
        <ele>250.8359375</ele>
        <time>2018-08-01T08:56:15Z</time>
      </trkpt>
      <trkpt lat="45.73385" lon="0.62665">
        <ele>251.3359375</ele>
        <time>2018-08-01T08:56:20Z</time>
      </trkpt>
      <trkpt lat="45.73398" lon="0.62648">
        <ele>251.66015625</ele>
        <time>2018-08-01T08:56:26Z</time>
      </trkpt>
      <trkpt lat="45.73407" lon="0.6263">
        <ele>251.9765625</ele>
        <time>2018-08-01T08:56:31Z</time>
      </trkpt>
      <trkpt lat="45.73413" lon="0.62616">
        <ele>252.12890625</ele>
        <time>2018-08-01T08:56:35Z</time>
      </trkpt>
      <trkpt lat="45.73428" lon="0.62611">
        <ele>252.26953125</ele>
        <time>2018-08-01T08:56:41Z</time>
      </trkpt>
      <trkpt lat="45.73431" lon="0.62611">
        <ele>252.28515625</ele>
        <time>2018-08-01T08:56:42Z</time>
      </trkpt>
      <trkpt lat="45.73452" lon="0.62614">
        <ele>252.5390625</ele>
        <time>2018-08-01T08:56:48Z</time>
      </trkpt>
      <trkpt lat="45.7347" lon="0.62596">
        <ele>253.19921875</ele>
        <time>2018-08-01T08:56:55Z</time>
      </trkpt>
      <trkpt lat="45.73479" lon="0.62567">
        <ele>253.68359375</ele>
        <time>2018-08-01T08:57:01Z</time>
      </trkpt>
      <trkpt lat="45.7349" lon="0.6254">
        <ele>253.38671875</ele>
        <time>2018-08-01T08:57:07Z</time>
      </trkpt>
      <trkpt lat="45.73489" lon="0.62512">
        <ele>252.8671875</ele>
        <time>2018-08-01T08:57:48Z</time>
      </trkpt>
      <trkpt lat="45.73476" lon="0.62505">
        <ele>252.4921875</ele>
        <time>2018-08-01T08:57:54Z</time>
      </trkpt>
      <trkpt lat="45.73475" lon="0.62502">
        <ele>252.42578125</ele>
        <time>2018-08-01T08:57:58Z</time>
      </trkpt>
      <trkpt lat="45.73468" lon="0.62498">
        <ele>252.23828125</ele>
        <time>2018-08-01T08:58:12Z</time>
      </trkpt>
      <trkpt lat="45.73455" lon="0.6249">
        <ele>251.83984375</ele>
        <time>2018-08-01T08:58:17Z</time>
      </trkpt>
      <trkpt lat="45.73438" lon="0.62471">
        <ele>251.21484375</ele>
        <time>2018-08-01T08:58:22Z</time>
      </trkpt>
      <trkpt lat="45.73421" lon="0.62451">
        <ele>250.3359375</ele>
        <time>2018-08-01T08:58:27Z</time>
      </trkpt>
      <trkpt lat="45.73399" lon="0.62435">
        <ele>249.37890625</ele>
        <time>2018-08-01T08:58:32Z</time>
      </trkpt>
      <trkpt lat="45.73379" lon="0.6242">
        <ele>248.43359375</ele>
        <time>2018-08-01T08:58:37Z</time>
      </trkpt>
      <trkpt lat="45.7338" lon="0.62413">
        <ele>248.234375</ele>
        <time>2018-08-01T08:58:40Z</time>
      </trkpt>
      <trkpt lat="45.73385" lon="0.62403">
        <ele>247.96875</ele>
        <time>2018-08-01T08:58:44Z</time>
      </trkpt>
      <trkpt lat="45.7339" lon="0.62395">
        <ele>247.7890625</ele>
        <time>2018-08-01T08:58:47Z</time>
      </trkpt>
      <trkpt lat="45.734" lon="0.62372">
        <ele>247.140625</ele>
        <time>2018-08-01T08:58:54Z</time>
      </trkpt>
      <trkpt lat="45.73409" lon="0.62358">
        <ele>246.78515625</ele>
        <time>2018-08-01T08:58:59Z</time>
      </trkpt>
      <trkpt lat="45.73425" lon="0.62337">
        <ele>245.91015625</ele>
        <time>2018-08-01T08:59:05Z</time>
      </trkpt>
      <trkpt lat="45.73427" lon="0.62333">
        <ele>245.6328125</ele>
        <time>2018-08-01T08:59:06Z</time>
      </trkpt>
      <trkpt lat="45.73447" lon="0.62304">
        <ele>243.765625</ele>
        <time>2018-08-01T08:59:13Z</time>
      </trkpt>
      <trkpt lat="45.73453" lon="0.62294">
        <ele>243.28125</ele>
        <time>2018-08-01T08:59:15Z</time>
      </trkpt>
      <trkpt lat="45.73474" lon="0.62269">
        <ele>243.05859375</ele>
        <time>2018-08-01T08:59:22Z</time>
      </trkpt>
      <trkpt lat="45.73476" lon="0.62266">
        <ele>243.0546875</ele>
        <time>2018-08-01T08:59:23Z</time>
      </trkpt>
      <trkpt lat="45.7349" lon="0.62252">
        <ele>243.1796875</ele>
        <time>2018-08-01T08:59:30Z</time>
      </trkpt>
      <trkpt lat="45.73495" lon="0.62237">
        <ele>243.234375</ele>
        <time>2018-08-01T08:59:35Z</time>
      </trkpt>
      <trkpt lat="45.73503" lon="0.62215">
        <ele>243.796875</ele>
        <time>2018-08-01T08:59:43Z</time>
      </trkpt>
      <trkpt lat="45.735" lon="0.62194">
        <ele>243.765625</ele>
        <time>2018-08-01T08:59:50Z</time>
      </trkpt>
      <trkpt lat="45.735" lon="0.62191">
        <ele>243.78125</ele>
        <time>2018-08-01T08:59:51Z</time>
      </trkpt>
      <trkpt lat="45.73495" lon="0.62168">
        <ele>243.875</ele>
        <time>2018-08-01T08:59:57Z</time>
      </trkpt>
      <trkpt lat="45.73494" lon="0.62164">
        <ele>243.9375</ele>
        <time>2018-08-01T08:59:58Z</time>
      </trkpt>
      <trkpt lat="45.73491" lon="0.62149">
        <ele>244.26953125</ele>
        <time>2018-08-01T09:00:01Z</time>
      </trkpt>
      <trkpt lat="45.73491" lon="0.62144">
        <ele>244.4296875</ele>
        <time>2018-08-01T09:00:02Z</time>
      </trkpt>
      <trkpt lat="45.73491" lon="0.62138">
        <ele>244.62890625</ele>
        <time>2018-08-01T09:00:04Z</time>
      </trkpt>
      <trkpt lat="45.73487" lon="0.62122">
        <ele>244.85546875</ele>
        <time>2018-08-01T09:00:07Z</time>
      </trkpt>
      <trkpt lat="45.73486" lon="0.62116">
        <ele>244.8984375</ele>
        <time>2018-08-01T09:00:08Z</time>
      </trkpt>
      <trkpt lat="45.73486" lon="0.62108">
        <ele>245.0625</ele>
        <time>2018-08-01T09:00:10Z</time>
      </trkpt>
      <trkpt lat="45.73487" lon="0.62082">
        <ele>245.5859375</ele>
        <time>2018-08-01T09:00:17Z</time>
      </trkpt>
      <trkpt lat="45.73484" lon="0.62061">
        <ele>245.86328125</ele>
        <time>2018-08-01T09:00:23Z</time>
      </trkpt>
      <trkpt lat="45.73481" lon="0.62048">
        <ele>245.98828125</ele>
        <time>2018-08-01T09:00:27Z</time>
      </trkpt>
      <trkpt lat="45.7348" lon="0.62026">
        <ele>246.41015625</ele>
        <time>2018-08-01T09:00:34Z</time>
      </trkpt>
      <trkpt lat="45.73479" lon="0.62013">
        <ele>246.140625</ele>
        <time>2018-08-01T09:00:37Z</time>
      </trkpt>
      <trkpt lat="45.7348" lon="0.61982">
        <ele>243.859375</ele>
        <time>2018-08-01T09:00:43Z</time>
      </trkpt>
      <trkpt lat="45.73483" lon="0.61952">
        <ele>240.92578125</ele>
        <time>2018-08-01T09:00:48Z</time>
      </trkpt>
      <trkpt lat="45.73495" lon="0.61923">
        <ele>236.890625</ele>
        <time>2018-08-01T09:00:52Z</time>
      </trkpt>
      <trkpt lat="45.735" lon="0.61917">
        <ele>236.15234375</ele>
        <time>2018-08-01T09:00:53Z</time>
      </trkpt>
      <trkpt lat="45.73525" lon="0.61899">
        <ele>234.84375</ele>
        <time>2018-08-01T09:00:57Z</time>
      </trkpt>
      <trkpt lat="45.73537" lon="0.61887">
        <ele>233.94140625</ele>
        <time>2018-08-01T09:00:59Z</time>
      </trkpt>
      <trkpt lat="45.7354" lon="0.6188">
        <ele>233.30078125</ele>
        <time>2018-08-01T09:01:00Z</time>
      </trkpt>
      <trkpt lat="45.7355" lon="0.61858">
        <ele>231.08984375</ele>
        <time>2018-08-01T09:01:03Z</time>
      </trkpt>
      <trkpt lat="45.73554" lon="0.6185">
        <ele>230.5703125</ele>
        <time>2018-08-01T09:01:04Z</time>
      </trkpt>
      <trkpt lat="45.73559" lon="0.61829">
        <ele>229.8671875</ele>
        <time>2018-08-01T09:01:07Z</time>
      </trkpt>
      <trkpt lat="45.73557" lon="0.61812">
        <ele>228.8046875</ele>
        <time>2018-08-01T09:01:10Z</time>
      </trkpt>
      <trkpt lat="45.73551" lon="0.618">
        <ele>227.58203125</ele>
        <time>2018-08-01T09:01:14Z</time>
      </trkpt>
      <trkpt lat="45.73549" lon="0.61795">
        <ele>227.1796875</ele>
        <time>2018-08-01T09:01:16Z</time>
      </trkpt>
      <trkpt lat="45.73544" lon="0.61785">
        <ele>227.0078125</ele>
        <time>2018-08-01T09:01:23Z</time>
      </trkpt>
      <trkpt lat="45.73539" lon="0.61783">
        <ele>227.05859375</ele>
        <time>2018-08-01T09:01:32Z</time>
      </trkpt>
      <trkpt lat="45.73535" lon="0.61781">
        <ele>227.125</ele>
        <time>2018-08-01T09:01:40Z</time>
      </trkpt>
      <trkpt lat="45.73534" lon="0.61781">
        <ele>227.140625</ele>
        <time>2018-08-01T09:01:41Z</time>
      </trkpt>
      <trkpt lat="45.73525" lon="0.61776">
        <ele>227.44921875</ele>
        <time>2018-08-01T09:01:47Z</time>
      </trkpt>
      <trkpt lat="45.73514" lon="0.61761">
        <ele>228.62890625</ele>
        <time>2018-08-01T09:01:54Z</time>
      </trkpt>
      <trkpt lat="45.7351" lon="0.61759">
        <ele>228.96484375</ele>
        <time>2018-08-01T09:01:56Z</time>
      </trkpt>
      <trkpt lat="45.73506" lon="0.61752">
        <ele>229.77734375</ele>
        <time>2018-08-01T09:02:00Z</time>
      </trkpt>
      <trkpt lat="45.73504" lon="0.61748">
        <ele>230.21875</ele>
        <time>2018-08-01T09:02:02Z</time>
      </trkpt>
      <trkpt lat="45.73497" lon="0.61742">
        <ele>231.30859375</ele>
        <time>2018-08-01T09:02:07Z</time>
      </trkpt>
      <trkpt lat="45.73492" lon="0.61735">
        <ele>232.80859375</ele>
        <time>2018-08-01T09:02:12Z</time>
      </trkpt>
      <trkpt lat="45.73485" lon="0.61729">
        <ele>234.53515625</ele>
        <time>2018-08-01T09:02:17Z</time>
      </trkpt>
      <trkpt lat="45.73477" lon="0.61721">
        <ele>236.6171875</ele>
        <time>2018-08-01T09:02:24Z</time>
      </trkpt>
      <trkpt lat="45.73466" lon="0.61712">
        <ele>239.046875</ele>
        <time>2018-08-01T09:02:32Z</time>
      </trkpt>
      <trkpt lat="45.73462" lon="0.61708">
        <ele>240.1484375</ele>
        <time>2018-08-01T09:02:39Z</time>
      </trkpt>
      <trkpt lat="45.73457" lon="0.61707">
        <ele>240.75390625</ele>
        <time>2018-08-01T09:02:49Z</time>
      </trkpt>
      <trkpt lat="45.73452" lon="0.61706">
        <ele>241.3359375</ele>
        <time>2018-08-01T09:02:58Z</time>
      </trkpt>
      <trkpt lat="45.73449" lon="0.61702">
        <ele>242.26171875</ele>
        <time>2018-08-01T09:03:07Z</time>
      </trkpt>
      <trkpt lat="45.73445" lon="0.61694">
        <ele>243.734375</ele>
        <time>2018-08-01T09:03:18Z</time>
      </trkpt>
      <trkpt lat="45.73443" lon="0.61689">
        <ele>244.63671875</ele>
        <time>2018-08-01T09:03:29Z</time>
      </trkpt>
      <trkpt lat="45.7344" lon="0.61684">
        <ele>245.66796875</ele>
        <time>2018-08-01T09:03:41Z</time>
      </trkpt>
      <trkpt lat="45.73439" lon="0.61683">
        <ele>245.7890625</ele>
        <time>2018-08-01T09:03:42Z</time>
      </trkpt>
      <trkpt lat="45.73434" lon="0.61679">
        <ele>246.29296875</ele>
        <time>2018-08-01T09:03:46Z</time>
      </trkpt>
      <trkpt lat="45.7344" lon="0.61668">
        <ele>246.30078125</ele>
        <time>2018-08-01T09:03:53Z</time>
      </trkpt>
      <trkpt lat="45.73449" lon="0.61658">
        <ele>246.07421875</ele>
        <time>2018-08-01T09:04:01Z</time>
      </trkpt>
      <trkpt lat="45.73455" lon="0.6165">
        <ele>246.171875</ele>
        <time>2018-08-01T09:04:06Z</time>
      </trkpt>
      <trkpt lat="45.73469" lon="0.61635">
        <ele>246.41015625</ele>
        <time>2018-08-01T09:04:15Z</time>
      </trkpt>
      <trkpt lat="45.73484" lon="0.61632">
        <ele>246.0078125</ele>
        <time>2018-08-01T09:04:22Z</time>
      </trkpt>
      <trkpt lat="45.73503" lon="0.6163">
        <ele>244.46875</ele>
        <time>2018-08-01T09:04:28Z</time>
      </trkpt>
      <trkpt lat="45.73519" lon="0.61624">
        <ele>242.83203125</ele>
        <time>2018-08-01T09:04:32Z</time>
      </trkpt>
      <trkpt lat="45.73536" lon="0.61624">
        <ele>240.78125</ele>
        <time>2018-08-01T09:04:36Z</time>
      </trkpt>
      <trkpt lat="45.73541" lon="0.61624">
        <ele>240.15234375</ele>
        <time>2018-08-01T09:04:37Z</time>
      </trkpt>
      <trkpt lat="45.73548" lon="0.61622">
        <ele>239.52734375</ele>
        <time>2018-08-01T09:04:38Z</time>
      </trkpt>
      <trkpt lat="45.73554" lon="0.61619">
        <ele>238.85546875</ele>
        <time>2018-08-01T09:04:39Z</time>
      </trkpt>
      <trkpt lat="45.73562" lon="0.61614">
        <ele>238.2890625</ele>
        <time>2018-08-01T09:04:40Z</time>
      </trkpt>
      <trkpt lat="45.7357" lon="0.61609">
        <ele>237.6015625</ele>
        <time>2018-08-01T09:04:41Z</time>
      </trkpt>
      <trkpt lat="45.73578" lon="0.61603">
        <ele>237.10546875</ele>
        <time>2018-08-01T09:04:42Z</time>
      </trkpt>
      <trkpt lat="45.73586" lon="0.61597">
        <ele>236.65625</ele>
        <time>2018-08-01T09:04:43Z</time>
      </trkpt>
      <trkpt lat="45.73614" lon="0.61576">
        <ele>235.140625</ele>
        <time>2018-08-01T09:04:47Z</time>
      </trkpt>
      <trkpt lat="45.7362" lon="0.61569">
        <ele>234.4765625</ele>
        <time>2018-08-01T09:04:48Z</time>
      </trkpt>
      <trkpt lat="45.73627" lon="0.61562">
        <ele>233.71484375</ele>
        <time>2018-08-01T09:04:49Z</time>
      </trkpt>
      <trkpt lat="45.73632" lon="0.61555">
        <ele>233.08203125</ele>
        <time>2018-08-01T09:04:50Z</time>
      </trkpt>
      <trkpt lat="45.73636" lon="0.61547">
        <ele>232.609375</ele>
        <time>2018-08-01T09:04:51Z</time>
      </trkpt>
      <trkpt lat="45.73639" lon="0.61539">
        <ele>232.32421875</ele>
        <time>2018-08-01T09:04:52Z</time>
      </trkpt>
      <trkpt lat="45.73641" lon="0.61532">
        <ele>232.1875</ele>
        <time>2018-08-01T09:04:53Z</time>
      </trkpt>
      <trkpt lat="45.73642" lon="0.61527">
        <ele>232.0625</ele>
        <time>2018-08-01T09:04:54Z</time>
      </trkpt>
      <trkpt lat="45.73644" lon="0.61523">
        <ele>231.90625</ele>
        <time>2018-08-01T09:04:55Z</time>
      </trkpt>
      <trkpt lat="45.73646" lon="0.61519">
        <ele>231.66015625</ele>
        <time>2018-08-01T09:04:56Z</time>
      </trkpt>
      <trkpt lat="45.7365" lon="0.61517">
        <ele>231.1640625</ele>
        <time>2018-08-01T09:04:57Z</time>
      </trkpt>
      <trkpt lat="45.73654" lon="0.61517">
        <ele>230.56640625</ele>
        <time>2018-08-01T09:04:58Z</time>
      </trkpt>
      <trkpt lat="45.73658" lon="0.61518">
        <ele>230.0078125</ele>
        <time>2018-08-01T09:04:59Z</time>
      </trkpt>
      <trkpt lat="45.73662" lon="0.6152">
        <ele>229.82421875</ele>
        <time>2018-08-01T09:05:00Z</time>
      </trkpt>
      <trkpt lat="45.73666" lon="0.61523">
        <ele>229.62890625</ele>
        <time>2018-08-01T09:05:01Z</time>
      </trkpt>
      <trkpt lat="45.73684" lon="0.61535">
        <ele>229.03125</ele>
        <time>2018-08-01T09:05:04Z</time>
      </trkpt>
      <trkpt lat="45.73692" lon="0.61538">
        <ele>228.8515625</ele>
        <time>2018-08-01T09:05:05Z</time>
      </trkpt>
      <trkpt lat="45.73708" lon="0.61542">
        <ele>228.5390625</ele>
        <time>2018-08-01T09:05:07Z</time>
      </trkpt>
      <trkpt lat="45.73715" lon="0.61545">
        <ele>228.66796875</ele>
        <time>2018-08-01T09:05:08Z</time>
      </trkpt>
      <trkpt lat="45.73719" lon="0.61549">
        <ele>229.484375</ele>
        <time>2018-08-01T09:05:09Z</time>
      </trkpt>
      <trkpt lat="45.73723" lon="0.61554">
        <ele>230.05078125</ele>
        <time>2018-08-01T09:05:10Z</time>
      </trkpt>
      <trkpt lat="45.73726" lon="0.61558">
        <ele>230.55078125</ele>
        <time>2018-08-01T09:05:11Z</time>
      </trkpt>
      <trkpt lat="45.73728" lon="0.61562">
        <ele>230.9921875</ele>
        <time>2018-08-01T09:05:12Z</time>
      </trkpt>
      <trkpt lat="45.7373" lon="0.61565">
        <ele>231.328125</ele>
        <time>2018-08-01T09:05:13Z</time>
      </trkpt>
      <trkpt lat="45.73732" lon="0.61567">
        <ele>231.64453125</ele>
        <time>2018-08-01T09:05:14Z</time>
      </trkpt>
      <trkpt lat="45.73745" lon="0.61585">
        <ele>233.0859375</ele>
        <time>2018-08-01T09:05:21Z</time>
      </trkpt>
      <trkpt lat="45.73761" lon="0.61602">
        <ele>234.453125</ele>
        <time>2018-08-01T09:05:28Z</time>
      </trkpt>
      <trkpt lat="45.7379" lon="0.61633">
        <ele>234.8203125</ele>
        <time>2018-08-01T09:05:39Z</time>
      </trkpt>
      <trkpt lat="45.73812" lon="0.61648">
        <ele>234.71875</ele>
        <time>2018-08-01T09:05:47Z</time>
      </trkpt>
      <trkpt lat="45.73834" lon="0.61649">
        <ele>235.16796875</ele>
        <time>2018-08-01T09:05:54Z</time>
      </trkpt>
      <trkpt lat="45.73852" lon="0.61645">
        <ele>235.328125</ele>
        <time>2018-08-01T09:06:00Z</time>
      </trkpt>
      <trkpt lat="45.73865" lon="0.61638">
        <ele>235.6875</ele>
        <time>2018-08-01T09:06:05Z</time>
      </trkpt>
      <trkpt lat="45.7387" lon="0.61632">
        <ele>235.99609375</ele>
        <time>2018-08-01T09:06:10Z</time>
      </trkpt>
      <trkpt lat="45.73871" lon="0.61631">
        <ele>236.0546875</ele>
        <time>2018-08-01T09:06:11Z</time>
      </trkpt>
      <trkpt lat="45.73874" lon="0.61629">
        <ele>236.09765625</ele>
        <time>2018-08-01T09:06:12Z</time>
      </trkpt>
      <trkpt lat="45.73889" lon="0.61617">
        <ele>237.2265625</ele>
        <time>2018-08-01T09:06:18Z</time>
      </trkpt>
      <trkpt lat="45.739" lon="0.61591">
        <ele>239.83203125</ele>
        <time>2018-08-01T09:06:25Z</time>
      </trkpt>
      <trkpt lat="45.73905" lon="0.6157">
        <ele>241.62109375</ele>
        <time>2018-08-01T09:06:32Z</time>
      </trkpt>
      <trkpt lat="45.73918" lon="0.61548">
        <ele>242.89453125</ele>
        <time>2018-08-01T09:06:40Z</time>
      </trkpt>
      <trkpt lat="45.73935" lon="0.61533">
        <ele>244.203125</ele>
        <time>2018-08-01T09:06:48Z</time>
      </trkpt>
      <trkpt lat="45.7396" lon="0.61511">
        <ele>246.0625</ele>
        <time>2018-08-01T09:06:59Z</time>
      </trkpt>
      <trkpt lat="45.73983" lon="0.61486">
        <ele>247.78515625</ele>
        <time>2018-08-01T09:07:10Z</time>
      </trkpt>
      <trkpt lat="45.73997" lon="0.61467">
        <ele>249.0625</ele>
        <time>2018-08-01T09:07:18Z</time>
      </trkpt>
      <trkpt lat="45.74013" lon="0.61434">
        <ele>249.46484375</ele>
        <time>2018-08-01T09:07:29Z</time>
      </trkpt>
      <trkpt lat="45.74017" lon="0.61413">
        <ele>249.4609375</ele>
        <time>2018-08-01T09:07:33Z</time>
      </trkpt>
      <trkpt lat="45.74019" lon="0.61406">
        <ele>249.4921875</ele>
        <time>2018-08-01T09:07:34Z</time>
      </trkpt>
      <trkpt lat="45.74022" lon="0.614">
        <ele>249.40234375</ele>
        <time>2018-08-01T09:07:35Z</time>
      </trkpt>
      <trkpt lat="45.74025" lon="0.61393">
        <ele>249.375</ele>
        <time>2018-08-01T09:07:36Z</time>
      </trkpt>
      <trkpt lat="45.74029" lon="0.61387">
        <ele>249.35546875</ele>
        <time>2018-08-01T09:07:37Z</time>
      </trkpt>
      <trkpt lat="45.74033" lon="0.61381">
        <ele>249.328125</ele>
        <time>2018-08-01T09:07:38Z</time>
      </trkpt>
      <trkpt lat="45.74044" lon="0.61363">
        <ele>249.3046875</ele>
        <time>2018-08-01T09:07:41Z</time>
      </trkpt>
      <trkpt lat="45.74049" lon="0.61358">
        <ele>249.30859375</ele>
        <time>2018-08-01T09:07:42Z</time>
      </trkpt>
      <trkpt lat="45.74053" lon="0.61354">
        <ele>249.3125</ele>
        <time>2018-08-01T09:07:43Z</time>
      </trkpt>
      <trkpt lat="45.74079" lon="0.61338">
        <ele>249.80859375</ele>
        <time>2018-08-01T09:07:50Z</time>
      </trkpt>
      <trkpt lat="45.74107" lon="0.61332">
        <ele>250.59765625</ele>
        <time>2018-08-01T09:07:58Z</time>
      </trkpt>
      <trkpt lat="45.7411" lon="0.61333">
        <ele>250.5625</ele>
        <time>2018-08-01T09:07:59Z</time>
      </trkpt>
      <trkpt lat="45.74136" lon="0.61337">
        <ele>250.16015625</ele>
        <time>2018-08-01T09:08:07Z</time>
      </trkpt>
      <trkpt lat="45.74153" lon="0.61325">
        <ele>250.42578125</ele>
        <time>2018-08-01T09:08:13Z</time>
      </trkpt>
      <trkpt lat="45.74173" lon="0.61302">
        <ele>251.13671875</ele>
        <time>2018-08-01T09:08:21Z</time>
      </trkpt>
      <trkpt lat="45.74176" lon="0.613">
        <ele>251.0859375</ele>
        <time>2018-08-01T09:08:22Z</time>
      </trkpt>
      <trkpt lat="45.7418" lon="0.613">
        <ele>251.00390625</ele>
        <time>2018-08-01T09:08:23Z</time>
      </trkpt>
      <trkpt lat="45.742" lon="0.61299">
        <ele>250.3125</ele>
        <time>2018-08-01T09:08:29Z</time>
      </trkpt>
      <trkpt lat="45.74225" lon="0.61291">
        <ele>249.95703125</ele>
        <time>2018-08-01T09:08:35Z</time>
      </trkpt>
      <trkpt lat="45.74229" lon="0.61289">
        <ele>249.94921875</ele>
        <time>2018-08-01T09:08:36Z</time>
      </trkpt>
      <trkpt lat="45.74239" lon="0.61284">
        <ele>249.9453125</ele>
        <time>2018-08-01T09:08:38Z</time>
      </trkpt>
      <trkpt lat="45.74265" lon="0.61275">
        <ele>249.82421875</ele>
        <time>2018-08-01T09:08:43Z</time>
      </trkpt>
      <trkpt lat="45.7427" lon="0.61274">
        <ele>249.8203125</ele>
        <time>2018-08-01T09:08:44Z</time>
      </trkpt>
      <trkpt lat="45.74275" lon="0.61274">
        <ele>249.9921875</ele>
        <time>2018-08-01T09:08:45Z</time>
      </trkpt>
      <trkpt lat="45.7428" lon="0.61275">
        <ele>250.1484375</ele>
        <time>2018-08-01T09:08:46Z</time>
      </trkpt>
      <trkpt lat="45.74285" lon="0.61276">
        <ele>250.28515625</ele>
        <time>2018-08-01T09:08:47Z</time>
      </trkpt>
      <trkpt lat="45.74305" lon="0.61281">
        <ele>250.97265625</ele>
        <time>2018-08-01T09:08:51Z</time>
      </trkpt>
      <trkpt lat="45.7431" lon="0.61282">
        <ele>251.16796875</ele>
        <time>2018-08-01T09:08:52Z</time>
      </trkpt>
      <trkpt lat="45.74341" lon="0.61283">
        <ele>253.19140625</ele>
        <time>2018-08-01T09:09:00Z</time>
      </trkpt>
      <trkpt lat="45.74359" lon="0.6128">
        <ele>254.4453125</ele>
        <time>2018-08-01T09:09:06Z</time>
      </trkpt>
      <trkpt lat="45.74378" lon="0.61275">
        <ele>255.78125</ele>
        <time>2018-08-01T09:09:13Z</time>
      </trkpt>
      <trkpt lat="45.74396" lon="0.61269">
        <ele>256.70703125</ele>
        <time>2018-08-01T09:09:19Z</time>
      </trkpt>
      <trkpt lat="45.74422" lon="0.61258">
        <ele>258.01953125</ele>
        <time>2018-08-01T09:09:28Z</time>
      </trkpt>
      <trkpt lat="45.74447" lon="0.6125">
        <ele>259.0625</ele>
        <time>2018-08-01T09:09:37Z</time>
      </trkpt>
      <trkpt lat="45.7447" lon="0.61249">
        <ele>260.1328125</ele>
        <time>2018-08-01T09:09:46Z</time>
      </trkpt>
      <trkpt lat="45.74492" lon="0.61255">
        <ele>261.3046875</ele>
        <time>2018-08-01T09:09:55Z</time>
      </trkpt>
      <trkpt lat="45.74509" lon="0.6125">
        <ele>261.77734375</ele>
        <time>2018-08-01T09:10:02Z</time>
      </trkpt>
      <trkpt lat="45.74529" lon="0.61234">
        <ele>262.2265625</ele>
        <time>2018-08-01T09:10:11Z</time>
      </trkpt>
      <trkpt lat="45.74553" lon="0.61219">
        <ele>262.8125</ele>
        <time>2018-08-01T09:10:21Z</time>
      </trkpt>
      <trkpt lat="45.74571" lon="0.61209">
        <ele>263.09375</ele>
        <time>2018-08-01T09:10:29Z</time>
      </trkpt>
      <trkpt lat="45.74593" lon="0.61194">
        <ele>263.140625</ele>
        <time>2018-08-01T09:10:38Z</time>
      </trkpt>
      <trkpt lat="45.74615" lon="0.61182">
        <ele>263.90625</ele>
        <time>2018-08-01T09:10:47Z</time>
      </trkpt>
      <trkpt lat="45.74637" lon="0.6117">
        <ele>265.29296875</ele>
        <time>2018-08-01T09:10:55Z</time>
      </trkpt>
      <trkpt lat="45.74666" lon="0.61157">
        <ele>266.9765625</ele>
        <time>2018-08-01T09:11:05Z</time>
      </trkpt>
      <trkpt lat="45.74686" lon="0.61149">
        <ele>268.06640625</ele>
        <time>2018-08-01T09:11:12Z</time>
      </trkpt>
      <trkpt lat="45.74709" lon="0.61139">
        <ele>269.57421875</ele>
        <time>2018-08-01T09:11:21Z</time>
      </trkpt>
      <trkpt lat="45.74728" lon="0.61129">
        <ele>270.8359375</ele>
        <time>2018-08-01T09:11:29Z</time>
      </trkpt>
      <trkpt lat="45.74743" lon="0.61117">
        <ele>271.87109375</ele>
        <time>2018-08-01T09:11:37Z</time>
      </trkpt>
      <trkpt lat="45.74756" lon="0.61111">
        <ele>272.65625</ele>
        <time>2018-08-01T09:11:44Z</time>
      </trkpt>
      <trkpt lat="45.74757" lon="0.6111">
        <ele>272.76953125</ele>
        <time>2018-08-01T09:11:45Z</time>
      </trkpt>
      <trkpt lat="45.74759" lon="0.6111">
        <ele>272.85546875</ele>
        <time>2018-08-01T09:11:46Z</time>
      </trkpt>
      <trkpt lat="45.74761" lon="0.61109">
        <ele>272.96875</ele>
        <time>2018-08-01T09:11:47Z</time>
      </trkpt>
      <trkpt lat="45.74763" lon="0.61109">
        <ele>273.06640625</ele>
        <time>2018-08-01T09:11:48Z</time>
      </trkpt>
      <trkpt lat="45.74765" lon="0.61109">
        <ele>273.1796875</ele>
        <time>2018-08-01T09:11:49Z</time>
      </trkpt>
      <trkpt lat="45.74767" lon="0.61108">
        <ele>273.2890625</ele>
        <time>2018-08-01T09:11:50Z</time>
      </trkpt>
      <trkpt lat="45.74774" lon="0.61106">
        <ele>273.578125</ele>
        <time>2018-08-01T09:11:54Z</time>
      </trkpt>
      <trkpt lat="45.74776" lon="0.61105">
        <ele>273.64453125</ele>
        <time>2018-08-01T09:11:55Z</time>
      </trkpt>
      <trkpt lat="45.74778" lon="0.61105">
        <ele>273.71875</ele>
        <time>2018-08-01T09:11:56Z</time>
      </trkpt>
      <trkpt lat="45.7478" lon="0.61104">
        <ele>273.7890625</ele>
        <time>2018-08-01T09:11:57Z</time>
      </trkpt>
      <trkpt lat="45.74782" lon="0.61102">
        <ele>273.86328125</ele>
        <time>2018-08-01T09:11:58Z</time>
      </trkpt>
      <trkpt lat="45.74793" lon="0.61096">
        <ele>274.23828125</ele>
        <time>2018-08-01T09:12:05Z</time>
      </trkpt>
      <trkpt lat="45.74804" lon="0.61095">
        <ele>274.50390625</ele>
        <time>2018-08-01T09:12:11Z</time>
      </trkpt>
      <trkpt lat="45.74805" lon="0.61094">
        <ele>274.546875</ele>
        <time>2018-08-01T09:12:12Z</time>
      </trkpt>
      <trkpt lat="45.74811" lon="0.61091">
        <ele>274.7109375</ele>
        <time>2018-08-01T09:12:15Z</time>
      </trkpt>
      <trkpt lat="45.74813" lon="0.61089">
        <ele>274.7578125</ele>
        <time>2018-08-01T09:12:16Z</time>
      </trkpt>
      <trkpt lat="45.74815" lon="0.61088">
        <ele>274.80078125</ele>
        <time>2018-08-01T09:12:17Z</time>
      </trkpt>
      <trkpt lat="45.74818" lon="0.61086">
        <ele>274.8671875</ele>
        <time>2018-08-01T09:12:18Z</time>
      </trkpt>
      <trkpt lat="45.7482" lon="0.61084">
        <ele>274.92578125</ele>
        <time>2018-08-01T09:12:19Z</time>
      </trkpt>
      <trkpt lat="45.74824" lon="0.61082">
        <ele>275</ele>
        <time>2018-08-01T09:12:20Z</time>
      </trkpt>
      <trkpt lat="45.74827" lon="0.6108">
        <ele>275</ele>
        <time>2018-08-01T09:12:21Z</time>
      </trkpt>
      <trkpt lat="45.74831" lon="0.61078">
        <ele>275</ele>
        <time>2018-08-01T09:12:22Z</time>
      </trkpt>
      <trkpt lat="45.74834" lon="0.61075">
        <ele>275</ele>
        <time>2018-08-01T09:12:23Z</time>
      </trkpt>
      <trkpt lat="45.74838" lon="0.61072">
        <ele>274.9921875</ele>
        <time>2018-08-01T09:12:24Z</time>
      </trkpt>
      <trkpt lat="45.74842" lon="0.6107">
        <ele>274.97265625</ele>
        <time>2018-08-01T09:12:25Z</time>
      </trkpt>
      <trkpt lat="45.74864" lon="0.61061">
        <ele>274.82421875</ele>
        <time>2018-08-01T09:12:30Z</time>
      </trkpt>
      <trkpt lat="45.74868" lon="0.61059">
        <ele>274.78125</ele>
        <time>2018-08-01T09:12:31Z</time>
      </trkpt>
      <trkpt lat="45.74886" lon="0.61048">
        <ele>274.59765625</ele>
        <time>2018-08-01T09:12:36Z</time>
      </trkpt>
      <trkpt lat="45.74901" lon="0.61041">
        <ele>274.63671875</ele>
        <time>2018-08-01T09:12:41Z</time>
      </trkpt>
      <trkpt lat="45.74914" lon="0.61035">
        <ele>274.73828125</ele>
        <time>2018-08-01T09:12:46Z</time>
      </trkpt>
      <trkpt lat="45.74925" lon="0.61023">
        <ele>274.83984375</ele>
        <time>2018-08-01T09:12:50Z</time>
      </trkpt>
      <trkpt lat="45.74925" lon="0.61018">
        <ele>274.8046875</ele>
        <time>2018-08-01T09:12:51Z</time>
      </trkpt>
      <trkpt lat="45.74924" lon="0.61015">
        <ele>274.6953125</ele>
        <time>2018-08-01T09:12:52Z</time>
      </trkpt>
      <trkpt lat="45.74922" lon="0.61014">
        <ele>274.6171875</ele>
        <time>2018-08-01T09:12:53Z</time>
      </trkpt>
      <trkpt lat="45.74919" lon="0.61013">
        <ele>274.51953125</ele>
        <time>2018-08-01T09:12:54Z</time>
      </trkpt>
      <trkpt lat="45.74917" lon="0.61012">
        <ele>274.42578125</ele>
        <time>2018-08-01T09:12:55Z</time>
      </trkpt>
      <trkpt lat="45.74899" lon="0.61003">
        <ele>273.78125</ele>
        <time>2018-08-01T09:13:00Z</time>
      </trkpt>
      <trkpt lat="45.74895" lon="0.61001">
        <ele>273.6484375</ele>
        <time>2018-08-01T09:13:01Z</time>
      </trkpt>
      <trkpt lat="45.74874" lon="0.60989">
        <ele>273.04296875</ele>
        <time>2018-08-01T09:13:06Z</time>
      </trkpt>
      <trkpt lat="45.74871" lon="0.60985">
        <ele>272.96484375</ele>
        <time>2018-08-01T09:13:07Z</time>
      </trkpt>
      <trkpt lat="45.74849" lon="0.60958">
        <ele>272.3984375</ele>
        <time>2018-08-01T09:13:13Z</time>
      </trkpt>
      <trkpt lat="45.74831" lon="0.60927">
        <ele>271.65625</ele>
        <time>2018-08-01T09:13:20Z</time>
      </trkpt>
      <trkpt lat="45.74816" lon="0.60904">
        <ele>271.0234375</ele>
        <time>2018-08-01T09:13:26Z</time>
      </trkpt>
      <trkpt lat="45.74809" lon="0.60895">
        <ele>270.8203125</ele>
        <time>2018-08-01T09:13:28Z</time>
      </trkpt>
      <trkpt lat="45.74803" lon="0.60885">
        <ele>270.5859375</ele>
        <time>2018-08-01T09:13:29Z</time>
      </trkpt>
      <trkpt lat="45.74793" lon="0.6087">
        <ele>270.21875</ele>
        <time>2018-08-01T09:13:57Z</time>
      </trkpt>
      <trkpt lat="45.74785" lon="0.60856">
        <ele>269.8671875</ele>
        <time>2018-08-01T09:14:03Z</time>
      </trkpt>
      <trkpt lat="45.74779" lon="0.60847">
        <ele>269.62109375</ele>
        <time>2018-08-01T09:14:08Z</time>
      </trkpt>
      <trkpt lat="45.74771" lon="0.60834">
        <ele>269.30859375</ele>
        <time>2018-08-01T09:14:09Z</time>
      </trkpt>
      <trkpt lat="45.74765" lon="0.60824">
        <ele>269.0078125</ele>
        <time>2018-08-01T09:14:17Z</time>
      </trkpt>
      <trkpt lat="45.74761" lon="0.60816">
        <ele>268.7265625</ele>
        <time>2018-08-01T09:14:22Z</time>
      </trkpt>
      <trkpt lat="45.74759" lon="0.60812">
        <ele>268.56640625</ele>
        <time>2018-08-01T09:14:24Z</time>
      </trkpt>
      <trkpt lat="45.74756" lon="0.60807">
        <ele>268.3984375</ele>
        <time>2018-08-01T09:14:27Z</time>
      </trkpt>
      <trkpt lat="45.74754" lon="0.60804">
        <ele>268.27734375</ele>
        <time>2018-08-01T09:14:28Z</time>
      </trkpt>
      <trkpt lat="45.74753" lon="0.60802">
        <ele>268.2109375</ele>
        <time>2018-08-01T09:14:29Z</time>
      </trkpt>
      <trkpt lat="45.74752" lon="0.608">
        <ele>268.1171875</ele>
        <time>2018-08-01T09:14:30Z</time>
      </trkpt>
      <trkpt lat="45.7475" lon="0.60796">
        <ele>267.9921875</ele>
        <time>2018-08-01T09:14:31Z</time>
      </trkpt>
      <trkpt lat="45.74754" lon="0.60791">
        <ele>267.6328125</ele>
        <time>2018-08-01T09:14:33Z</time>
      </trkpt>
      <trkpt lat="45.74756" lon="0.60789">
        <ele>267.50390625</ele>
        <time>2018-08-01T09:14:34Z</time>
      </trkpt>
      <trkpt lat="45.74757" lon="0.60788">
        <ele>267.4296875</ele>
        <time>2018-08-01T09:14:35Z</time>
      </trkpt>
      <trkpt lat="45.74759" lon="0.60788">
        <ele>267.3671875</ele>
        <time>2018-08-01T09:14:36Z</time>
      </trkpt>
      <trkpt lat="45.74761" lon="0.60786">
        <ele>267.2734375</ele>
        <time>2018-08-01T09:14:37Z</time>
      </trkpt>
      <trkpt lat="45.74763" lon="0.60785">
        <ele>267.15625</ele>
        <time>2018-08-01T09:14:38Z</time>
      </trkpt>
      <trkpt lat="45.74777" lon="0.60776">
        <ele>266.40625</ele>
        <time>2018-08-01T09:14:43Z</time>
      </trkpt>
      <trkpt lat="45.74781" lon="0.60773">
        <ele>266.1796875</ele>
        <time>2018-08-01T09:14:44Z</time>
      </trkpt>
      <trkpt lat="45.74786" lon="0.60769">
        <ele>265.88671875</ele>
        <time>2018-08-01T09:14:45Z</time>
      </trkpt>
      <trkpt lat="45.74792" lon="0.60765">
        <ele>265.58203125</ele>
        <time>2018-08-01T09:14:46Z</time>
      </trkpt>
      <trkpt lat="45.74798" lon="0.60761">
        <ele>265.265625</ele>
        <time>2018-08-01T09:14:47Z</time>
      </trkpt>
      <trkpt lat="45.74804" lon="0.60756">
        <ele>264.90234375</ele>
        <time>2018-08-01T09:14:48Z</time>
      </trkpt>
      <trkpt lat="45.74811" lon="0.6075">
        <ele>264.53125</ele>
        <time>2018-08-01T09:14:49Z</time>
      </trkpt>
      <trkpt lat="45.74817" lon="0.60743">
        <ele>264.1171875</ele>
        <time>2018-08-01T09:14:50Z</time>
      </trkpt>
      <trkpt lat="45.74822" lon="0.60734">
        <ele>263.625</ele>
        <time>2018-08-01T09:14:51Z</time>
      </trkpt>
      <trkpt lat="45.74825" lon="0.60723">
        <ele>263.05859375</ele>
        <time>2018-08-01T09:14:52Z</time>
      </trkpt>
      <trkpt lat="45.74827" lon="0.60711">
        <ele>262.44140625</ele>
        <time>2018-08-01T09:14:53Z</time>
      </trkpt>
      <trkpt lat="45.74828" lon="0.60699">
        <ele>261.80859375</ele>
        <time>2018-08-01T09:14:54Z</time>
      </trkpt>
      <trkpt lat="45.74828" lon="0.60687">
        <ele>261.1796875</ele>
        <time>2018-08-01T09:14:55Z</time>
      </trkpt>
      <trkpt lat="45.74832" lon="0.60639">
        <ele>259.59375</ele>
        <time>2018-08-01T09:14:59Z</time>
      </trkpt>
      <trkpt lat="45.74833" lon="0.60628">
        <ele>259.39453125</ele>
        <time>2018-08-01T09:15:00Z</time>
      </trkpt>
      <trkpt lat="45.74836" lon="0.60617">
        <ele>259.71484375</ele>
        <time>2018-08-01T09:15:01Z</time>
      </trkpt>
      <trkpt lat="45.74843" lon="0.60588">
        <ele>260.7109375</ele>
        <time>2018-08-01T09:15:04Z</time>
      </trkpt>
      <trkpt lat="45.74844" lon="0.60578">
        <ele>260.98828125</ele>
        <time>2018-08-01T09:15:05Z</time>
      </trkpt>
      <trkpt lat="45.74843" lon="0.60569">
        <ele>261.3203125</ele>
        <time>2018-08-01T09:15:06Z</time>
      </trkpt>
      <trkpt lat="45.74841" lon="0.60561">
        <ele>261.66796875</ele>
        <time>2018-08-01T09:15:07Z</time>
      </trkpt>
      <trkpt lat="45.74839" lon="0.60554">
        <ele>261.921875</ele>
        <time>2018-08-01T09:15:08Z</time>
      </trkpt>
      <trkpt lat="45.74837" lon="0.60547">
        <ele>262.15234375</ele>
        <time>2018-08-01T09:15:09Z</time>
      </trkpt>
      <trkpt lat="45.74835" lon="0.60541">
        <ele>262.39453125</ele>
        <time>2018-08-01T09:15:10Z</time>
      </trkpt>
      <trkpt lat="45.74833" lon="0.60536">
        <ele>262.59375</ele>
        <time>2018-08-01T09:15:11Z</time>
      </trkpt>
      <trkpt lat="45.74829" lon="0.60523">
        <ele>263.1015625</ele>
        <time>2018-08-01T09:15:14Z</time>
      </trkpt>
      <trkpt lat="45.74823" lon="0.605">
        <ele>263.62109375</ele>
        <time>2018-08-01T09:15:20Z</time>
      </trkpt>
      <trkpt lat="45.74822" lon="0.60497">
        <ele>263.69921875</ele>
        <time>2018-08-01T09:15:21Z</time>
      </trkpt>
      <trkpt lat="45.74815" lon="0.60466">
        <ele>264.43359375</ele>
        <time>2018-08-01T09:15:28Z</time>
      </trkpt>
      <trkpt lat="45.74808" lon="0.60429">
        <ele>264.16015625</ele>
        <time>2018-08-01T09:15:35Z</time>
      </trkpt>
      <trkpt lat="45.74809" lon="0.60422">
        <ele>264.17578125</ele>
        <time>2018-08-01T09:15:36Z</time>
      </trkpt>
      <trkpt lat="45.7481" lon="0.60417">
        <ele>264.26953125</ele>
        <time>2018-08-01T09:15:37Z</time>
      </trkpt>
      <trkpt lat="45.74813" lon="0.60412">
        <ele>264.41796875</ele>
        <time>2018-08-01T09:15:38Z</time>
      </trkpt>
      <trkpt lat="45.74817" lon="0.60409">
        <ele>264.609375</ele>
        <time>2018-08-01T09:15:39Z</time>
      </trkpt>
      <trkpt lat="45.7482" lon="0.60407">
        <ele>264.81640625</ele>
        <time>2018-08-01T09:15:40Z</time>
      </trkpt>
      <trkpt lat="45.74829" lon="0.60402">
        <ele>265.375</ele>
        <time>2018-08-01T09:15:42Z</time>
      </trkpt>
      <trkpt lat="45.74832" lon="0.60398">
        <ele>265.67578125</ele>
        <time>2018-08-01T09:15:43Z</time>
      </trkpt>
      <trkpt lat="45.74835" lon="0.60392">
        <ele>265.88671875</ele>
        <time>2018-08-01T09:15:44Z</time>
      </trkpt>
      <trkpt lat="45.74836" lon="0.60386">
        <ele>266.01953125</ele>
        <time>2018-08-01T09:15:45Z</time>
      </trkpt>
      <trkpt lat="45.74836" lon="0.6038">
        <ele>266.0625</ele>
        <time>2018-08-01T09:15:46Z</time>
      </trkpt>
      <trkpt lat="45.74835" lon="0.60373">
        <ele>266.04296875</ele>
        <time>2018-08-01T09:15:47Z</time>
      </trkpt>
      <trkpt lat="45.74834" lon="0.60367">
        <ele>266.0078125</ele>
        <time>2018-08-01T09:15:48Z</time>
      </trkpt>
      <trkpt lat="45.74826" lon="0.60318">
        <ele>265.90234375</ele>
        <time>2018-08-01T09:15:56Z</time>
      </trkpt>
      <trkpt lat="45.74826" lon="0.60312">
        <ele>265.921875</ele>
        <time>2018-08-01T09:15:57Z</time>
      </trkpt>
      <trkpt lat="45.74825" lon="0.60307">
        <ele>265.984375</ele>
        <time>2018-08-01T09:15:58Z</time>
      </trkpt>
      <trkpt lat="45.74824" lon="0.60259">
        <ele>265.9921875</ele>
        <time>2018-08-01T09:16:06Z</time>
      </trkpt>
      <trkpt lat="45.74822" lon="0.60236">
        <ele>266.1328125</ele>
        <time>2018-08-01T09:16:10Z</time>
      </trkpt>
      <trkpt lat="45.74821" lon="0.60225">
        <ele>266.5078125</ele>
        <time>2018-08-01T09:16:12Z</time>
      </trkpt>
      <trkpt lat="45.7482" lon="0.60219">
        <ele>266.6875</ele>
        <time>2018-08-01T09:16:13Z</time>
      </trkpt>
      <trkpt lat="45.74818" lon="0.60213">
        <ele>266.85546875</ele>
        <time>2018-08-01T09:16:14Z</time>
      </trkpt>
      <trkpt lat="45.74816" lon="0.60207">
        <ele>267.01171875</ele>
        <time>2018-08-01T09:16:15Z</time>
      </trkpt>
      <trkpt lat="45.74813" lon="0.60202">
        <ele>267.1484375</ele>
        <time>2018-08-01T09:16:16Z</time>
      </trkpt>
      <trkpt lat="45.74811" lon="0.60198">
        <ele>267.265625</ele>
        <time>2018-08-01T09:16:17Z</time>
      </trkpt>
      <trkpt lat="45.74808" lon="0.60194">
        <ele>267.38671875</ele>
        <time>2018-08-01T09:16:18Z</time>
      </trkpt>
      <trkpt lat="45.74806" lon="0.6019">
        <ele>267.50390625</ele>
        <time>2018-08-01T09:16:19Z</time>
      </trkpt>
      <trkpt lat="45.74804" lon="0.60186">
        <ele>267.625</ele>
        <time>2018-08-01T09:16:20Z</time>
      </trkpt>
      <trkpt lat="45.74802" lon="0.60183">
        <ele>267.7109375</ele>
        <time>2018-08-01T09:16:21Z</time>
      </trkpt>
      <trkpt lat="45.74799" lon="0.60179">
        <ele>267.78125</ele>
        <time>2018-08-01T09:16:22Z</time>
      </trkpt>
      <trkpt lat="45.74797" lon="0.60176">
        <ele>267.85546875</ele>
        <time>2018-08-01T09:16:23Z</time>
      </trkpt>
      <trkpt lat="45.74776" lon="0.60144">
        <ele>268.64453125</ele>
        <time>2018-08-01T09:16:32Z</time>
      </trkpt>
      <trkpt lat="45.74762" lon="0.60119">
        <ele>269.08984375</ele>
        <time>2018-08-01T09:16:40Z</time>
      </trkpt>
      <trkpt lat="45.74753" lon="0.60093">
        <ele>269.38671875</ele>
        <time>2018-08-01T09:16:48Z</time>
      </trkpt>
      <trkpt lat="45.74751" lon="0.6008">
        <ele>269.58984375</ele>
        <time>2018-08-01T09:16:52Z</time>
      </trkpt>
      <trkpt lat="45.74753" lon="0.60078">
        <ele>269.671875</ele>
        <time>2018-08-01T09:16:53Z</time>
      </trkpt>
      <trkpt lat="45.74755" lon="0.60076">
        <ele>269.73828125</ele>
        <time>2018-08-01T09:16:54Z</time>
      </trkpt>
      <trkpt lat="45.74757" lon="0.60075">
        <ele>269.80078125</ele>
        <time>2018-08-01T09:16:55Z</time>
      </trkpt>
      <trkpt lat="45.74759" lon="0.60074">
        <ele>269.82421875</ele>
        <time>2018-08-01T09:16:56Z</time>
      </trkpt>
      <trkpt lat="45.74761" lon="0.60072">
        <ele>269.8359375</ele>
        <time>2018-08-01T09:16:57Z</time>
      </trkpt>
      <trkpt lat="45.74768" lon="0.60064">
        <ele>269.796875</ele>
        <time>2018-08-01T09:17:02Z</time>
      </trkpt>
      <trkpt lat="45.7477" lon="0.60064">
        <ele>269.83203125</ele>
        <time>2018-08-01T09:17:03Z</time>
      </trkpt>
      <trkpt lat="45.74792" lon="0.60069">
        <ele>270.31640625</ele>
        <time>2018-08-01T09:17:10Z</time>
      </trkpt>
      <trkpt lat="45.74791" lon="0.60069">
        <ele>270.30859375</ele>
      </trkpt>
      <trkpt lat="45.74845" lon="0.60085">
        <ele>270.8125</ele>
      </trkpt>
      <trkpt lat="45.74879" lon="0.6008">
        <ele>270.90234375</ele>
      </trkpt>
      <trkpt lat="45.74913" lon="0.60075">
        <ele>271.58984375</ele>
      </trkpt>
      <trkpt lat="45.74954" lon="0.60092">
        <ele>272.140625</ele>
      </trkpt>
      <trkpt lat="45.74982" lon="0.60154">
        <ele>272.34375</ele>
      </trkpt>
      <trkpt lat="45.74995" lon="0.60178">
        <ele>272.3515625</ele>
      </trkpt>
      <trkpt lat="45.74998" lon="0.60195">
        <ele>272.5546875</ele>
      </trkpt>
      <trkpt lat="45.75002" lon="0.60215">
        <ele>272.9375</ele>
      </trkpt>
      <trkpt lat="45.75004" lon="0.60248">
        <ele>273.44140625</ele>
      </trkpt>
      <trkpt lat="45.75007" lon="0.60261">
        <ele>273.80078125</ele>
      </trkpt>
      <trkpt lat="45.75019" lon="0.60293">
        <ele>274.4140625</ele>
      </trkpt>
      <trkpt lat="45.75038" lon="0.60329">
        <ele>274.64453125</ele>
      </trkpt>
      <trkpt lat="45.75062" lon="0.60362">
        <ele>275.4609375</ele>
      </trkpt>
      <trkpt lat="45.75063" lon="0.60386">
        <ele>275.9296875</ele>
      </trkpt>
      <trkpt lat="45.7506" lon="0.60435">
        <ele>276.24609375</ele>
      </trkpt>
      <trkpt lat="45.7506" lon="0.60458">
        <ele>276.2578125</ele>
      </trkpt>
      <trkpt lat="45.7506" lon="0.6047">
        <ele>276.125</ele>
      </trkpt>
      <trkpt lat="45.7506" lon="0.60479">
        <ele>275.96484375</ele>
      </trkpt>
      <trkpt lat="45.75063" lon="0.60486">
        <ele>275.8984375</ele>
      </trkpt>
      <trkpt lat="45.75066" lon="0.60494">
        <ele>275.80078125</ele>
      </trkpt>
      <trkpt lat="45.75074" lon="0.60505">
        <ele>275.7578125</ele>
      </trkpt>
      <trkpt lat="45.75089" lon="0.60527">
        <ele>275.46484375</ele>
      </trkpt>
      <trkpt lat="45.7511" lon="0.60563">
        <ele>274.67578125</ele>
      </trkpt>
      <trkpt lat="45.75136" lon="0.6059">
        <ele>275.01953125</ele>
      </trkpt>
      <trkpt lat="45.75155" lon="0.60611">
        <ele>275.89453125</ele>
      </trkpt>
      <trkpt lat="45.75161" lon="0.60622">
        <ele>276.06640625</ele>
      </trkpt>
      <trkpt lat="45.75194" lon="0.60685">
        <ele>276.32421875</ele>
      </trkpt>
      <trkpt lat="45.75222" lon="0.60721">
        <ele>275.9453125</ele>
      </trkpt>
      <trkpt lat="45.75246" lon="0.60729">
        <ele>276.37109375</ele>
      </trkpt>
      <trkpt lat="45.7527" lon="0.60716">
        <ele>276.98046875</ele>
      </trkpt>
      <trkpt lat="45.75285" lon="0.60713">
        <ele>276.84375</ele>
      </trkpt>
      <trkpt lat="45.75299" lon="0.60708">
        <ele>276.765625</ele>
      </trkpt>
      <trkpt lat="45.75308" lon="0.60785">
        <ele>275.83984375</ele>
      </trkpt>
      <trkpt lat="45.75318" lon="0.60924">
        <ele>272.80078125</ele>
      </trkpt>
      <trkpt lat="45.75327" lon="0.61142">
        <ele>272.859375</ele>
      </trkpt>
      <trkpt lat="45.75328" lon="0.61171">
        <ele>272.8203125</ele>
      </trkpt>
      <trkpt lat="45.7533" lon="0.61246">
        <ele>273.74609375</ele>
      </trkpt>
      <trkpt lat="45.75333" lon="0.61272">
        <ele>274.03125</ele>
      </trkpt>
      <trkpt lat="45.75337" lon="0.6136">
        <ele>274.94140625</ele>
      </trkpt>
      <trkpt lat="45.75341" lon="0.61485">
        <ele>274.66015625</ele>
      </trkpt>
      <trkpt lat="45.75348" lon="0.6162">
        <ele>272.046875</ele>
      </trkpt>
      <trkpt lat="45.75355" lon="0.61751">
        <ele>275.515625</ele>
      </trkpt>
      <trkpt lat="45.75361" lon="0.61888">
        <ele>279.01953125</ele>
      </trkpt>
      <trkpt lat="45.75366" lon="0.61972">
        <ele>279.6953125</ele>
      </trkpt>
      <trkpt lat="45.75365" lon="0.62001">
        <ele>280.19140625</ele>
      </trkpt>
      <trkpt lat="45.75363" lon="0.62036">
        <ele>280.51953125</ele>
      </trkpt>
      <trkpt lat="45.75359" lon="0.62079">
        <ele>280.67578125</ele>
      </trkpt>
      <trkpt lat="45.7535" lon="0.62132">
        <ele>281</ele>
      </trkpt>
      <trkpt lat="45.75334" lon="0.62246">
        <ele>281</ele>
      </trkpt>
      <trkpt lat="45.75331" lon="0.62266">
        <ele>281</ele>
      </trkpt>
      <trkpt lat="45.75342" lon="0.62261">
        <ele>281</ele>
      </trkpt>
      <trkpt lat="45.75361" lon="0.62248">
        <ele>281</ele>
      </trkpt>
      <trkpt lat="45.75404" lon="0.62215">
        <ele>280.75390625</ele>
      </trkpt>
      <trkpt lat="45.75456" lon="0.62171">
        <ele>280.60546875</ele>
      </trkpt>
      <trkpt lat="45.75499" lon="0.62139">
        <ele>279.6796875</ele>
      </trkpt>
      <trkpt lat="45.75567" lon="0.62086">
        <ele>276.375</ele>
      </trkpt>
      <trkpt lat="45.75631" lon="0.62035">
        <ele>272.6640625</ele>
      </trkpt>
      <trkpt lat="45.75696" lon="0.61983">
        <ele>270.296875</ele>
      </trkpt>
      <trkpt lat="45.75725" lon="0.61961">
        <ele>269.52734375</ele>
      </trkpt>
      <trkpt lat="45.7579" lon="0.61911">
        <ele>267.1953125</ele>
      </trkpt>
      <trkpt lat="45.75841" lon="0.6187">
        <ele>265.6796875</ele>
      </trkpt>
      <trkpt lat="45.75883" lon="0.61835">
        <ele>265</ele>
      </trkpt>
      <trkpt lat="45.75939" lon="0.61792">
        <ele>264.84765625</ele>
      </trkpt>
      <trkpt lat="45.75987" lon="0.6175">
        <ele>263.2109375</ele>
      </trkpt>
      <trkpt lat="45.76028" lon="0.61714">
        <ele>261.51171875</ele>
      </trkpt>
      <trkpt lat="45.76041" lon="0.61706">
        <ele>260.88671875</ele>
      </trkpt>
      <trkpt lat="45.76057" lon="0.61698">
        <ele>260.02734375</ele>
      </trkpt>
      <trkpt lat="45.76061" lon="0.61696">
        <ele>259.7578125</ele>
      </trkpt>
      <trkpt lat="45.76072" lon="0.61698">
        <ele>259.3671875</ele>
      </trkpt>
      <trkpt lat="45.76089" lon="0.61702">
        <ele>258.78125</ele>
      </trkpt>
      <trkpt lat="45.76112" lon="0.61712">
        <ele>257.5390625</ele>
      </trkpt>
      <trkpt lat="45.76155" lon="0.61729">
        <ele>254.66796875</ele>
      </trkpt>
      <trkpt lat="45.76183" lon="0.61739">
        <ele>253.08984375</ele>
      </trkpt>
      <trkpt lat="45.7621" lon="0.61745">
        <ele>251.2890625</ele>
      </trkpt>
      <trkpt lat="45.76252" lon="0.61749">
        <ele>250.46484375</ele>
      </trkpt>
      <trkpt lat="45.76311" lon="0.6175">
        <ele>249.90234375</ele>
      </trkpt>
      <trkpt lat="45.76365" lon="0.61749">
        <ele>250.72265625</ele>
      </trkpt>
      <trkpt lat="45.764" lon="0.61751">
        <ele>252.06640625</ele>
      </trkpt>
      <trkpt lat="45.76429" lon="0.61757">
        <ele>253.4453125</ele>
      </trkpt>
      <trkpt lat="45.76442" lon="0.6177">
        <ele>254</ele>
      </trkpt>
      <trkpt lat="45.76461" lon="0.618">
        <ele>254.93359375</ele>
      </trkpt>
      <trkpt lat="45.76489" lon="0.61843">
        <ele>256.12890625</ele>
      </trkpt>
      <trkpt lat="45.76515" lon="0.61876">
        <ele>257.16796875</ele>
      </trkpt>
      <trkpt lat="45.76544" lon="0.61905">
        <ele>258.90625</ele>
      </trkpt>
      <trkpt lat="45.76575" lon="0.61938">
        <ele>260.31640625</ele>
      </trkpt>
      <trkpt lat="45.7662" lon="0.61984">
        <ele>261.546875</ele>
      </trkpt>
      <trkpt lat="45.76651" lon="0.62006">
        <ele>262.19921875</ele>
      </trkpt>
      <trkpt lat="45.76674" lon="0.62022">
        <ele>262.26171875</ele>
      </trkpt>
      <trkpt lat="45.76716" lon="0.62047">
        <ele>262.40234375</ele>
      </trkpt>
      <trkpt lat="45.76744" lon="0.62059">
        <ele>261.671875</ele>
      </trkpt>
      <trkpt lat="45.76767" lon="0.62061">
        <ele>261.22265625</ele>
      </trkpt>
      <trkpt lat="45.7679" lon="0.62062">
        <ele>260.77734375</ele>
      </trkpt>
      <trkpt lat="45.76818" lon="0.62065">
        <ele>260.25</ele>
      </trkpt>
      <trkpt lat="45.76855" lon="0.62067">
        <ele>258.4296875</ele>
      </trkpt>
      <trkpt lat="45.76896" lon="0.62071">
        <ele>256.08984375</ele>
      </trkpt>
      <trkpt lat="45.76927" lon="0.62074">
        <ele>254.34375</ele>
      </trkpt>
      <trkpt lat="45.76964" lon="0.62077">
        <ele>255</ele>
      </trkpt>
      <trkpt lat="45.76984" lon="0.62077">
        <ele>255.68359375</ele>
      </trkpt>
      <trkpt lat="45.77007" lon="0.62078">
        <ele>256.83984375</ele>
      </trkpt>
      <trkpt lat="45.77055" lon="0.62081">
        <ele>259.25390625</ele>
      </trkpt>
      <trkpt lat="45.77089" lon="0.62084">
        <ele>260.8359375</ele>
      </trkpt>
      <trkpt lat="45.77106" lon="0.62086">
        <ele>261.3828125</ele>
      </trkpt>
      <trkpt lat="45.77142" lon="0.62087">
        <ele>261.6328125</ele>
      </trkpt>
      <trkpt lat="45.77178" lon="0.62089">
        <ele>262.51171875</ele>
      </trkpt>
      <trkpt lat="45.77212" lon="0.62093">
        <ele>263.68359375</ele>
      </trkpt>
      <trkpt lat="45.77243" lon="0.62094">
        <ele>265.3515625</ele>
      </trkpt>
      <trkpt lat="45.77278" lon="0.62098">
        <ele>266.953125</ele>
      </trkpt>
      <trkpt lat="45.77311" lon="0.62102">
        <ele>268.0859375</ele>
      </trkpt>
      <trkpt lat="45.77338" lon="0.62102">
        <ele>268.90234375</ele>
      </trkpt>
      <trkpt lat="45.7737" lon="0.62103">
        <ele>269.77734375</ele>
      </trkpt>
      <trkpt lat="45.77402" lon="0.62103">
        <ele>270.4375</ele>
      </trkpt>
      <trkpt lat="45.77425" lon="0.62105">
        <ele>270.85546875</ele>
      </trkpt>
      <trkpt lat="45.7745" lon="0.62105">
        <ele>270.87109375</ele>
      </trkpt>
      <trkpt lat="45.77467" lon="0.62107">
        <ele>270.76171875</ele>
      </trkpt>
      <trkpt lat="45.77494" lon="0.62104">
        <ele>270.5546875</ele>
      </trkpt>
      <trkpt lat="45.77508" lon="0.62133">
        <ele>271.140625</ele>
      </trkpt>
      <trkpt lat="45.77527" lon="0.62179">
        <ele>272.82421875</ele>
      </trkpt>
      <trkpt lat="45.77545" lon="0.62223">
        <ele>272.9609375</ele>
      </trkpt>
      <trkpt lat="45.77565" lon="0.62268">
        <ele>272.76953125</ele>
      </trkpt>
      <trkpt lat="45.77579" lon="0.62302">
        <ele>272.82421875</ele>
      </trkpt>
      <trkpt lat="45.77612" lon="0.62279">
        <ele>271.25</ele>
      </trkpt>
      <trkpt lat="45.77647" lon="0.62268">
        <ele>269.796875</ele>
      </trkpt>
      <trkpt lat="45.77685" lon="0.62267">
        <ele>268.18359375</ele>
      </trkpt>
      <trkpt lat="45.77752" lon="0.62277">
        <ele>264.2578125</ele>
      </trkpt>
      <trkpt lat="45.77771" lon="0.62281">
        <ele>263.09375</ele>
      </trkpt>
      <trkpt lat="45.77807" lon="0.62288">
        <ele>261.55859375</ele>
      </trkpt>
      <trkpt lat="45.77876" lon="0.62302">
        <ele>260.26953125</ele>
      </trkpt>
      <trkpt lat="45.77944" lon="0.62313">
        <ele>262.50390625</ele>
      </trkpt>
      <trkpt lat="45.78013" lon="0.6232">
        <ele>262.9921875</ele>
      </trkpt>
      <trkpt lat="45.78062" lon="0.62338">
        <ele>262.44140625</ele>
      </trkpt>
      <trkpt lat="45.78109" lon="0.62372">
        <ele>261.4453125</ele>
      </trkpt>
      <trkpt lat="45.78158" lon="0.62395">
        <ele>260.10546875</ele>
      </trkpt>
      <trkpt lat="45.78218" lon="0.62408">
        <ele>257.51171875</ele>
      </trkpt>
      <trkpt lat="45.78298" lon="0.62427">
        <ele>252.91796875</ele>
      </trkpt>
      <trkpt lat="45.78348" lon="0.62434">
        <ele>250.3046875</ele>
      </trkpt>
      <trkpt lat="45.78392" lon="0.62434">
        <ele>248.6171875</ele>
      </trkpt>
      <trkpt lat="45.78425" lon="0.62437">
        <ele>247.57421875</ele>
      </trkpt>
      <trkpt lat="45.78447" lon="0.62443">
        <ele>246.5078125</ele>
      </trkpt>
      <trkpt lat="45.78466" lon="0.62454">
        <ele>245.23046875</ele>
      </trkpt>
      <trkpt lat="45.78494" lon="0.62476">
        <ele>243.6328125</ele>
      </trkpt>
      <trkpt lat="45.78505" lon="0.62492">
        <ele>242.99609375</ele>
      </trkpt>
      <trkpt lat="45.78512" lon="0.62521">
        <ele>242.46875</ele>
      </trkpt>
      <trkpt lat="45.78519" lon="0.62551">
        <ele>244.7734375</ele>
      </trkpt>
      <trkpt lat="45.78521" lon="0.6259">
        <ele>247.48828125</ele>
      </trkpt>
      <trkpt lat="45.78519" lon="0.62627">
        <ele>250.0625</ele>
      </trkpt>
      <trkpt lat="45.78513" lon="0.62677">
        <ele>254.03125</ele>
      </trkpt>
      <trkpt lat="45.78507" lon="0.62714">
        <ele>256.9375</ele>
      </trkpt>
      <trkpt lat="45.78497" lon="0.62759">
        <ele>259.6875</ele>
      </trkpt>
      <trkpt lat="45.78486" lon="0.62809">
        <ele>261.08984375</ele>
      </trkpt>
      <trkpt lat="45.78474" lon="0.62865">
        <ele>261.51953125</ele>
      </trkpt>
      <trkpt lat="45.78457" lon="0.62936">
        <ele>261.87109375</ele>
      </trkpt>
      <trkpt lat="45.78443" lon="0.62989">
        <ele>262.8671875</ele>
      </trkpt>
      <trkpt lat="45.78424" lon="0.63042">
        <ele>264.359375</ele>
      </trkpt>
      <trkpt lat="45.78408" lon="0.6308">
        <ele>265.1875</ele>
      </trkpt>
      <trkpt lat="45.78401" lon="0.63107">
        <ele>265.88671875</ele>
      </trkpt>
      <trkpt lat="45.78396" lon="0.63129">
        <ele>266.2578125</ele>
      </trkpt>
      <trkpt lat="45.7839" lon="0.63163">
        <ele>266.80078125</ele>
      </trkpt>
      <trkpt lat="45.78383" lon="0.63207">
        <ele>266.63671875</ele>
      </trkpt>
      <trkpt lat="45.78361" lon="0.63279">
        <ele>265.7890625</ele>
      </trkpt>
      <trkpt lat="45.78354" lon="0.63308">
        <ele>265.73046875</ele>
      </trkpt>
      <trkpt lat="45.78388" lon="0.63344">
        <ele>264.40234375</ele>
      </trkpt>
      <trkpt lat="45.78413" lon="0.63372">
        <ele>262.93359375</ele>
      </trkpt>
      <trkpt lat="45.78427" lon="0.6339">
        <ele>262.21875</ele>
      </trkpt>
      <trkpt lat="45.7844" lon="0.63411">
        <ele>261.875</ele>
      </trkpt>
      <trkpt lat="45.78451" lon="0.63433">
        <ele>261.66796875</ele>
      </trkpt>
      <trkpt lat="45.78479" lon="0.63475">
        <ele>260.73046875</ele>
      </trkpt>
      <trkpt lat="45.78514" lon="0.63523">
        <ele>257.03515625</ele>
      </trkpt>
      <trkpt lat="45.7855" lon="0.63567">
        <ele>254.6796875</ele>
      </trkpt>
      <trkpt lat="45.78575" lon="0.63596">
        <ele>253.109375</ele>
      </trkpt>
      <trkpt lat="45.78611" lon="0.63629">
        <ele>251.78125</ele>
      </trkpt>
      <trkpt lat="45.78644" lon="0.63658">
        <ele>251.0859375</ele>
      </trkpt>
      <trkpt lat="45.78692" lon="0.63694">
        <ele>250.6875</ele>
      </trkpt>
      <trkpt lat="45.78738" lon="0.63727">
        <ele>248.9375</ele>
      </trkpt>
      <trkpt lat="45.78782" lon="0.63762">
        <ele>247.41796875</ele>
      </trkpt>
      <trkpt lat="45.78826" lon="0.63795">
        <ele>246.89453125</ele>
      </trkpt>
      <trkpt lat="45.78856" lon="0.63822">
        <ele>245.6875</ele>
      </trkpt>
      <trkpt lat="45.78866" lon="0.63865">
        <ele>244.734375</ele>
      </trkpt>
      <trkpt lat="45.78865" lon="0.63889">
        <ele>244.2890625</ele>
      </trkpt>
      <trkpt lat="45.78857" lon="0.63923">
        <ele>243.6875</ele>
      </trkpt>
      <trkpt lat="45.78825" lon="0.63966">
        <ele>242.90625</ele>
      </trkpt>
      <trkpt lat="45.78767" lon="0.64015">
        <ele>242.99609375</ele>
      </trkpt>
      <trkpt lat="45.7879" lon="0.64066">
        <ele>241.671875</ele>
      </trkpt>
      <trkpt lat="45.78812" lon="0.64117">
        <ele>240.51171875</ele>
      </trkpt>
      <trkpt lat="45.78842" lon="0.6418">
        <ele>240.59375</ele>
      </trkpt>
      <trkpt lat="45.78871" lon="0.6424">
        <ele>240.10546875</ele>
      </trkpt>
      <trkpt lat="45.78894" lon="0.64287">
        <ele>239.73828125</ele>
      </trkpt>
      <trkpt lat="45.78908" lon="0.64309">
        <ele>239.02734375</ele>
      </trkpt>
      <trkpt lat="45.78931" lon="0.64342">
        <ele>237.3203125</ele>
      </trkpt>
      <trkpt lat="45.78953" lon="0.64365">
        <ele>236.25390625</ele>
      </trkpt>
      <trkpt lat="45.78977" lon="0.64383">
        <ele>235.1171875</ele>
      </trkpt>
      <trkpt lat="45.78991" lon="0.64392">
        <ele>234.41796875</ele>
      </trkpt>
      <trkpt lat="45.78997" lon="0.64399">
        <ele>234.09375</ele>
      </trkpt>
      <trkpt lat="45.79005" lon="0.64433">
        <ele>232.68359375</ele>
      </trkpt>
      <trkpt lat="45.79006" lon="0.64456">
        <ele>231.83984375</ele>
      </trkpt>
      <trkpt lat="45.79008" lon="0.64475">
        <ele>231.54296875</ele>
      </trkpt>
      <trkpt lat="45.78987" lon="0.64501">
        <ele>232.02734375</ele>
      </trkpt>
      <trkpt lat="45.78968" lon="0.64528">
        <ele>232.4921875</ele>
      </trkpt>
      <trkpt lat="45.78952" lon="0.64552">
        <ele>232.640625</ele>
      </trkpt>
      <trkpt lat="45.78939" lon="0.64572">
        <ele>232.7578125</ele>
      </trkpt>
      <trkpt lat="45.78921" lon="0.64592">
        <ele>233.06640625</ele>
      </trkpt>
      <trkpt lat="45.78896" lon="0.6461">
        <ele>233.625</ele>
      </trkpt>
      <trkpt lat="45.78857" lon="0.64629">
        <ele>234.6484375</ele>
      </trkpt>
      <trkpt lat="45.7883" lon="0.64643">
        <ele>234.86328125</ele>
      </trkpt>
      <trkpt lat="45.78804" lon="0.64657">
        <ele>235.03125</ele>
      </trkpt>
      <trkpt lat="45.78762" lon="0.64677">
        <ele>235.4453125</ele>
      </trkpt>
      <trkpt lat="45.78723" lon="0.647">
        <ele>235.94921875</ele>
      </trkpt>
      <trkpt lat="45.7868" lon="0.64724">
        <ele>236.84765625</ele>
      </trkpt>
      <trkpt lat="45.78643" lon="0.64753">
        <ele>238.87109375</ele>
      </trkpt>
      <trkpt lat="45.78602" lon="0.64784">
        <ele>241.65625</ele>
      </trkpt>
      <trkpt lat="45.78568" lon="0.64811">
        <ele>243.2421875</ele>
      </trkpt>
      <trkpt lat="45.78598" lon="0.64843">
        <ele>242.90234375</ele>
      </trkpt>
      <trkpt lat="45.78643" lon="0.64878">
        <ele>240.51171875</ele>
      </trkpt>
      <trkpt lat="45.78692" lon="0.64921">
        <ele>238.9296875</ele>
      </trkpt>
      <trkpt lat="45.78725" lon="0.64951">
        <ele>238.02734375</ele>
      </trkpt>
      <trkpt lat="45.78771" lon="0.64999">
        <ele>235.6953125</ele>
      </trkpt>
      <trkpt lat="45.78802" lon="0.65033">
        <ele>233.83203125</ele>
      </trkpt>
      <trkpt lat="45.78827" lon="0.65069">
        <ele>231.75</ele>
      </trkpt>
      <trkpt lat="45.78849" lon="0.65108">
        <ele>230.1484375</ele>
      </trkpt>
      <trkpt lat="45.78872" lon="0.65141">
        <ele>228.5703125</ele>
      </trkpt>
      <trkpt lat="45.78892" lon="0.65177">
        <ele>228.16015625</ele>
      </trkpt>
      <trkpt lat="45.78907" lon="0.65206">
        <ele>227.35546875</ele>
      </trkpt>
      <trkpt lat="45.78923" lon="0.65237">
        <ele>226.5078125</ele>
      </trkpt>
      <trkpt lat="45.78934" lon="0.65265">
        <ele>226.4296875</ele>
      </trkpt>
      <trkpt lat="45.78942" lon="0.65291">
        <ele>226.5859375</ele>
      </trkpt>
      <trkpt lat="45.78948" lon="0.65305">
        <ele>226.5859375</ele>
      </trkpt>
      <trkpt lat="45.78948" lon="0.65321">
        <ele>226.78515625</ele>
      </trkpt>
      <trkpt lat="45.78938" lon="0.65346">
        <ele>227.6484375</ele>
      </trkpt>
      <trkpt lat="45.78927" lon="0.65364">
        <ele>228.3359375</ele>
      </trkpt>
      <trkpt lat="45.78916" lon="0.65375">
        <ele>228.62890625</ele>
      </trkpt>
      <trkpt lat="45.78902" lon="0.65381">
        <ele>228.80859375</ele>
      </trkpt>
      <trkpt lat="45.78881" lon="0.65378">
        <ele>228.9609375</ele>
      </trkpt>
      <trkpt lat="45.78868" lon="0.65379">
        <ele>228.98828125</ele>
      </trkpt>
      <trkpt lat="45.78869" lon="0.65397">
        <ele>228.89453125</ele>
      </trkpt>
      <trkpt lat="45.78871" lon="0.65412">
        <ele>228.74609375</ele>
      </trkpt>
      <trkpt lat="45.78871" lon="0.6543">
        <ele>228.390625</ele>
      </trkpt>
      <trkpt lat="45.78833" lon="0.65478">
        <ele>225.6953125</ele>
      </trkpt>
      <trkpt lat="45.78809" lon="0.65514">
        <ele>223.8515625</ele>
      </trkpt>
      <trkpt lat="45.78801" lon="0.65541">
        <ele>223.2265625</ele>
      </trkpt>
      <trkpt lat="45.78795" lon="0.65563">
        <ele>223.0390625</ele>
      </trkpt>
      <trkpt lat="45.78797" lon="0.6558">
        <ele>222.74609375</ele>
      </trkpt>
      <trkpt lat="45.78808" lon="0.65603">
        <ele>221.78515625</ele>
      </trkpt>
      <trkpt lat="45.78818" lon="0.65628">
        <ele>220.3359375</ele>
      </trkpt>
      <trkpt lat="45.78819" lon="0.65652">
        <ele>220.15234375</ele>
      </trkpt>
      <trkpt lat="45.78818" lon="0.65675">
        <ele>220.28125</ele>
      </trkpt>
      <trkpt lat="45.78818" lon="0.65711">
        <ele>219.19921875</ele>
      </trkpt>
      <trkpt lat="45.78804" lon="0.65722">
        <ele>219.57421875</ele>
      </trkpt>
      <trkpt lat="45.78798" lon="0.65726">
        <ele>219.7890625</ele>
      </trkpt>
      <trkpt lat="45.78774" lon="0.65725">
        <ele>221.22265625</ele>
      </trkpt>
      <trkpt lat="45.78751" lon="0.6572">
        <ele>222.39453125</ele>
      </trkpt>
      <trkpt lat="45.78739" lon="0.65718">
        <ele>222.875</ele>
      </trkpt>
      <trkpt lat="45.78732" lon="0.65719">
        <ele>223.0546875</ele>
      </trkpt>
      <trkpt lat="45.7873" lon="0.65725">
        <ele>222.62109375</ele>
      </trkpt>
      <trkpt lat="45.78721" lon="0.65732">
        <ele>222.26171875</ele>
      </trkpt>
      <trkpt lat="45.78712" lon="0.65736">
        <ele>222.10546875</ele>
      </trkpt>
      <trkpt lat="45.78693" lon="0.65747">
        <ele>221.796875</ele>
      </trkpt>
      <trkpt lat="45.7868" lon="0.65754">
        <ele>221.65234375</ele>
      </trkpt>
      <trkpt lat="45.78668" lon="0.65763">
        <ele>221.40625</ele>
      </trkpt>
      <trkpt lat="45.78657" lon="0.65778">
        <ele>220.75</ele>
      </trkpt>
      <trkpt lat="45.78646" lon="0.65799">
        <ele>220.5</ele>
      </trkpt>
      <trkpt lat="45.78638" lon="0.65809">
        <ele>220.67578125</ele>
      </trkpt>
      <trkpt lat="45.78613" lon="0.65829">
        <ele>220.9296875</ele>
      </trkpt>
      <trkpt lat="45.7859" lon="0.65845">
        <ele>221.07421875</ele>
      </trkpt>
      <trkpt lat="45.78565" lon="0.65859">
        <ele>222.4375</ele>
      </trkpt>
      <trkpt lat="45.78532" lon="0.65878">
        <ele>222.6640625</ele>
      </trkpt>
      <trkpt lat="45.78518" lon="0.65885">
        <ele>222.33984375</ele>
      </trkpt>
      <trkpt lat="45.78493" lon="0.65898">
        <ele>221.6328125</ele>
      </trkpt>
      <trkpt lat="45.78466" lon="0.65906">
        <ele>220.93359375</ele>
      </trkpt>
      <trkpt lat="45.7844" lon="0.65911">
        <ele>220.76953125</ele>
      </trkpt>
      <trkpt lat="45.78422" lon="0.65915">
        <ele>220.91796875</ele>
      </trkpt>
      <trkpt lat="45.78396" lon="0.65926">
        <ele>221.05078125</ele>
      </trkpt>
      <trkpt lat="45.78371" lon="0.6593">
        <ele>221.36328125</ele>
      </trkpt>
      <trkpt lat="45.78348" lon="0.65935">
        <ele>221.8203125</ele>
      </trkpt>
      <trkpt lat="45.78315" lon="0.65927">
        <ele>223.55859375</ele>
      </trkpt>
      <trkpt lat="45.78275" lon="0.65915">
        <ele>224.89453125</ele>
      </trkpt>
      <trkpt lat="45.78249" lon="0.65907">
        <ele>225.36328125</ele>
      </trkpt>
      <trkpt lat="45.78211" lon="0.65916">
        <ele>223.765625</ele>
      </trkpt>
      <trkpt lat="45.78159" lon="0.6594">
        <ele>222.11328125</ele>
      </trkpt>
      <trkpt lat="45.78139" lon="0.65949">
        <ele>221.80078125</ele>
      </trkpt>
      <trkpt lat="45.78114" lon="0.65963">
        <ele>221.3125</ele>
      </trkpt>
      <trkpt lat="45.78092" lon="0.6598">
        <ele>220.6796875</ele>
      </trkpt>
      <trkpt lat="45.78079" lon="0.6599">
        <ele>220.16796875</ele>
      </trkpt>
      <trkpt lat="45.78066" lon="0.65999">
        <ele>219.765625</ele>
      </trkpt>
      <trkpt lat="45.78054" lon="0.66007">
        <ele>219.453125</ele>
      </trkpt>
      <trkpt lat="45.78036" lon="0.66017">
        <ele>219.30078125</ele>
      </trkpt>
      <trkpt lat="45.7802" lon="0.66023">
        <ele>219.875</ele>
      </trkpt>
      <trkpt lat="45.78007" lon="0.66029">
        <ele>220.2578125</ele>
      </trkpt>
      <trkpt lat="45.77998" lon="0.66031">
        <ele>220.48046875</ele>
      </trkpt>
      <trkpt lat="45.7799" lon="0.6603">
        <ele>220.703125</ele>
      </trkpt>
      <trkpt lat="45.77983" lon="0.66026">
        <ele>220.83203125</ele>
      </trkpt>
      <trkpt lat="45.77978" lon="0.66018">
        <ele>220.96484375</ele>
      </trkpt>
      <trkpt lat="45.77975" lon="0.66028">
        <ele>220.8359375</ele>
      </trkpt>
      <trkpt lat="45.77967" lon="0.66039">
        <ele>220.7421875</ele>
      </trkpt>
      <trkpt lat="45.77959" lon="0.66051">
        <ele>220.70703125</ele>
      </trkpt>
      <trkpt lat="45.77948" lon="0.66065">
        <ele>220.765625</ele>
      </trkpt>
      <trkpt lat="45.77941" lon="0.66079">
        <ele>221.2421875</ele>
      </trkpt>
      <trkpt lat="45.7794" lon="0.66085">
        <ele>221.5546875</ele>
      </trkpt>
      <trkpt lat="45.7794" lon="0.66088">
        <ele>221.703125</ele>
      </trkpt>
      <trkpt lat="45.7794" lon="0.66098">
        <ele>222.2265625</ele>
      </trkpt>
      <trkpt lat="45.77941" lon="0.66108">
        <ele>222.703125</ele>
      </trkpt>
      <trkpt lat="45.77947" lon="0.66119">
        <ele>222.9375</ele>
      </trkpt>
      <trkpt lat="45.77953" lon="0.66125">
        <ele>222.87890625</ele>
      </trkpt>
      <trkpt lat="45.7796" lon="0.66133">
        <ele>223.0859375</ele>
      </trkpt>
      <trkpt lat="45.77971" lon="0.66138">
        <ele>223.1640625</ele>
      </trkpt>
      <trkpt lat="45.77979" lon="0.66142">
        <ele>223.34765625</ele>
      </trkpt>
      <trkpt lat="45.77987" lon="0.66147">
        <ele>223.6171875</ele>
      </trkpt>
      <trkpt lat="45.78002" lon="0.66148">
        <ele>223.9296875</ele>
      </trkpt>
      <trkpt lat="45.78014" lon="0.66149">
        <ele>224.328125</ele>
      </trkpt>
      <trkpt lat="45.78031" lon="0.66151">
        <ele>224.828125</ele>
      </trkpt>
      <trkpt lat="45.78048" lon="0.6615">
        <ele>225.01953125</ele>
      </trkpt>
      <trkpt lat="45.78056" lon="0.66148">
        <ele>224.98046875</ele>
      </trkpt>
      <trkpt lat="45.78076" lon="0.66144">
        <ele>224.96484375</ele>
      </trkpt>
      <trkpt lat="45.78084" lon="0.66142">
        <ele>225</ele>
      </trkpt>
      <trkpt lat="45.78095" lon="0.66136">
        <ele>224.75</ele>
      </trkpt>
      <trkpt lat="45.78108" lon="0.66129">
        <ele>224.99609375</ele>
      </trkpt>
      <trkpt lat="45.78118" lon="0.66124">
        <ele>225.47265625</ele>
      </trkpt>
      <trkpt lat="45.78128" lon="0.66119">
        <ele>225.921875</ele>
      </trkpt>
      <trkpt lat="45.7814" lon="0.66112">
        <ele>226.22265625</ele>
      </trkpt>
      <trkpt lat="45.78152" lon="0.66105">
        <ele>226.4375</ele>
      </trkpt>
      <trkpt lat="45.78163" lon="0.66097">
        <ele>225.90234375</ele>
      </trkpt>
      <trkpt lat="45.78172" lon="0.66091">
        <ele>225.3515625</ele>
      </trkpt>
      <trkpt lat="45.7818" lon="0.66085">
        <ele>224.83984375</ele>
      </trkpt>
      <trkpt lat="45.78189" lon="0.66079">
        <ele>224.3671875</ele>
      </trkpt>
      <trkpt lat="45.78195" lon="0.66074">
        <ele>224.00390625</ele>
      </trkpt>
      <trkpt lat="45.78197" lon="0.6607">
        <ele>223.640625</ele>
      </trkpt>
      <trkpt lat="45.78203" lon="0.6606">
        <ele>222.9453125</ele>
      </trkpt>
      <trkpt lat="45.78204" lon="0.66048">
        <ele>221.84375</ele>
      </trkpt>
      <trkpt lat="45.78206" lon="0.6604">
        <ele>221.1484375</ele>
      </trkpt>
      <trkpt lat="45.78209" lon="0.66033">
        <ele>220.56640625</ele>
      </trkpt>
      <trkpt lat="45.78213" lon="0.66028">
        <ele>220.234375</ele>
      </trkpt>
      <trkpt lat="45.78217" lon="0.66023">
        <ele>219.96875</ele>
      </trkpt>
      <trkpt lat="45.78226" lon="0.66019">
        <ele>219.84765625</ele>
      </trkpt>
      <trkpt lat="45.78236" lon="0.66014">
        <ele>219.90234375</ele>
      </trkpt>
      <trkpt lat="45.78247" lon="0.6601">
        <ele>220.2578125</ele>
      </trkpt>
      <trkpt lat="45.78256" lon="0.66008">
        <ele>220.5078125</ele>
      </trkpt>
      <trkpt lat="45.78269" lon="0.66006">
        <ele>220.8828125</ele>
      </trkpt>
      <trkpt lat="45.7829" lon="0.66008">
        <ele>221.23828125</ele>
      </trkpt>
      <trkpt lat="45.78309" lon="0.66012">
        <ele>221.671875</ele>
      </trkpt>
      <trkpt lat="45.7833" lon="0.66021">
        <ele>222.4375</ele>
      </trkpt>
      <trkpt lat="45.78345" lon="0.66027">
        <ele>222.98046875</ele>
      </trkpt>
      <trkpt lat="45.78355" lon="0.66032">
        <ele>223.3828125</ele>
      </trkpt>
      <trkpt lat="45.78362" lon="0.66033">
        <ele>223.42578125</ele>
      </trkpt>
      <trkpt lat="45.78365" lon="0.66034">
        <ele>223.484375</ele>
      </trkpt>
      <trkpt lat="45.78372" lon="0.66034">
        <ele>223.43359375</ele>
      </trkpt>
      <trkpt lat="45.78384" lon="0.66036">
        <ele>223.7578125</ele>
      </trkpt>
      <trkpt lat="45.78393" lon="0.66038">
        <ele>224.12109375</ele>
      </trkpt>
      <trkpt lat="45.78401" lon="0.66041">
        <ele>224.5703125</ele>
      </trkpt>
      <trkpt lat="45.78414" lon="0.66039">
        <ele>224.546875</ele>
      </trkpt>
      <trkpt lat="45.78424" lon="0.66038">
        <ele>224.4765625</ele>
      </trkpt>
      <trkpt lat="45.78433" lon="0.66037">
        <ele>224.515625</ele>
      </trkpt>
      <trkpt lat="45.78444" lon="0.66035">
        <ele>224.62109375</ele>
      </trkpt>
      <trkpt lat="45.78462" lon="0.66032">
        <ele>224.84375</ele>
      </trkpt>
      <trkpt lat="45.78475" lon="0.66029">
        <ele>224.94140625</ele>
      </trkpt>
      <trkpt lat="45.78493" lon="0.66024">
        <ele>224.79296875</ele>
      </trkpt>
      <trkpt lat="45.78505" lon="0.6602">
        <ele>225.05859375</ele>
      </trkpt>
      <trkpt lat="45.78513" lon="0.66015">
        <ele>224.7578125</ele>
      </trkpt>
      <trkpt lat="45.7852" lon="0.66011">
        <ele>224.83203125</ele>
      </trkpt>
      <trkpt lat="45.78527" lon="0.66003">
        <ele>224.5859375</ele>
      </trkpt>
      <trkpt lat="45.78533" lon="0.65997">
        <ele>224.421875</ele>
      </trkpt>
      <trkpt lat="45.78541" lon="0.65991">
        <ele>224.18359375</ele>
      </trkpt>
      <trkpt lat="45.78553" lon="0.6598">
        <ele>223.82421875</ele>
      </trkpt>
      <trkpt lat="45.7856" lon="0.65972">
        <ele>223.578125</ele>
      </trkpt>
      <trkpt lat="45.78565" lon="0.65969">
        <ele>223.578125</ele>
      </trkpt>
      <trkpt lat="45.7857" lon="0.6597">
        <ele>224.078125</ele>
      </trkpt>
      <trkpt lat="45.78575" lon="0.65973">
        <ele>224.83984375</ele>
      </trkpt>
      <trkpt lat="45.7858" lon="0.65981">
        <ele>226.08203125</ele>
      </trkpt>
      <trkpt lat="45.78586" lon="0.65988">
        <ele>227.46484375</ele>
      </trkpt>
      <trkpt lat="45.78593" lon="0.65998">
        <ele>229.33984375</ele>
      </trkpt>
      <trkpt lat="45.78603" lon="0.6601">
        <ele>231.39453125</ele>
      </trkpt>
      <trkpt lat="45.78609" lon="0.66017">
        <ele>232.5</ele>
      </trkpt>
      <trkpt lat="45.78615" lon="0.66013">
        <ele>232.31640625</ele>
      </trkpt>
      <trkpt lat="45.78624" lon="0.66009">
        <ele>232.0234375</ele>
      </trkpt>
      <trkpt lat="45.78633" lon="0.66002">
        <ele>231.5</ele>
      </trkpt>
      <trkpt lat="45.7864" lon="0.65996">
        <ele>231.05859375</ele>
      </trkpt>
      <trkpt lat="45.78644" lon="0.65994">
        <ele>230.84765625</ele>
      </trkpt>
      <trkpt lat="45.78646" lon="0.65986">
        <ele>230.02734375</ele>
      </trkpt>
      <trkpt lat="45.78648" lon="0.65982">
        <ele>229.53515625</ele>
      </trkpt>
      <trkpt lat="45.78647" lon="0.65978">
        <ele>228.99609375</ele>
      </trkpt>
      <trkpt lat="45.78643" lon="0.65975">
        <ele>228.4296875</ele>
      </trkpt>
      <trkpt lat="45.78638" lon="0.65971">
        <ele>227.84765625</ele>
      </trkpt>
      <trkpt lat="45.78632" lon="0.65971">
        <ele>227.58203125</ele>
      </trkpt>
      <trkpt lat="45.78626" lon="0.65968">
        <ele>227.0234375</ele>
      </trkpt>
      <trkpt lat="45.78621" lon="0.65965">
        <ele>226.40625</ele>
      </trkpt>
      <trkpt lat="45.78614" lon="0.65961">
        <ele>225.73046875</ele>
      </trkpt>
      <trkpt lat="45.78609" lon="0.65958">
        <ele>225.1796875</ele>
      </trkpt>
      <trkpt lat="45.78607" lon="0.65955">
        <ele>224.734375</ele>
      </trkpt>
      <trkpt lat="45.78605" lon="0.65951">
        <ele>224.2890625</ele>
      </trkpt>
      <trkpt lat="45.78607" lon="0.65944">
        <ele>223.578125</ele>
      </trkpt>
      <trkpt lat="45.7861" lon="0.65942">
        <ele>223.4140625</ele>
      </trkpt>
      <trkpt lat="45.78618" lon="0.65937">
        <ele>223.078125</ele>
      </trkpt>
      <trkpt lat="45.78629" lon="0.6593">
        <ele>222.609375</ele>
      </trkpt>
      <trkpt lat="45.78644" lon="0.65925">
        <ele>222.32421875</ele>
      </trkpt>
      <trkpt lat="45.78654" lon="0.65922">
        <ele>222.1484375</ele>
      </trkpt>
      <trkpt lat="45.78663" lon="0.65919">
        <ele>221.84375</ele>
      </trkpt>
      <trkpt lat="45.78676" lon="0.65917">
        <ele>221.58203125</ele>
      </trkpt>
      <trkpt lat="45.78689" lon="0.65914">
        <ele>221.1875</ele>
      </trkpt>
      <trkpt lat="45.78699" lon="0.65912">
        <ele>220.9375</ele>
      </trkpt>
      <trkpt lat="45.78711" lon="0.65909">
        <ele>220.63671875</ele>
      </trkpt>
      <trkpt lat="45.78721" lon="0.65907">
        <ele>220.703125</ele>
      </trkpt>
      <trkpt lat="45.7873" lon="0.65905">
        <ele>220.828125</ele>
      </trkpt>
      <trkpt lat="45.78737" lon="0.65904">
        <ele>220.98828125</ele>
      </trkpt>
      <trkpt lat="45.78745" lon="0.65901">
        <ele>221.1015625</ele>
      </trkpt>
      <trkpt lat="45.78758" lon="0.65897">
        <ele>221.3671875</ele>
      </trkpt>
      <trkpt lat="45.78769" lon="0.65894">
        <ele>221.6171875</ele>
      </trkpt>
      <trkpt lat="45.78778" lon="0.65891">
        <ele>221.82421875</ele>
      </trkpt>
      <trkpt lat="45.78788" lon="0.65887">
        <ele>221.984375</ele>
      </trkpt>
      <trkpt lat="45.78802" lon="0.65882">
        <ele>222.1875</ele>
      </trkpt>
      <trkpt lat="45.78812" lon="0.65877">
        <ele>222.19140625</ele>
      </trkpt>
      <trkpt lat="45.78819" lon="0.65873">
        <ele>222.078125</ele>
      </trkpt>
      <trkpt lat="45.78825" lon="0.65869">
        <ele>221.94140625</ele>
      </trkpt>
      <trkpt lat="45.7883" lon="0.65867">
        <ele>221.8828125</ele>
      </trkpt>
      <trkpt lat="45.78839" lon="0.65862">
        <ele>221.55859375</ele>
      </trkpt>
      <trkpt lat="45.78849" lon="0.65857">
        <ele>221.296875</ele>
      </trkpt>
      <trkpt lat="45.78858" lon="0.65852">
        <ele>221.02734375</ele>
      </trkpt>
      <trkpt lat="45.78868" lon="0.65847">
        <ele>220.7578125</ele>
      </trkpt>
      <trkpt lat="45.78879" lon="0.65843">
        <ele>220.73046875</ele>
      </trkpt>
      <trkpt lat="45.7889" lon="0.6584">
        <ele>220.703125</ele>
      </trkpt>
      <trkpt lat="45.78902" lon="0.65838">
        <ele>220.8046875</ele>
      </trkpt>
      <trkpt lat="45.78911" lon="0.65839">
        <ele>220.97265625</ele>
      </trkpt>
      <trkpt lat="45.78921" lon="0.65839">
        <ele>221.109375</ele>
      </trkpt>
      <trkpt lat="45.78927" lon="0.6584">
        <ele>221.3125</ele>
      </trkpt>
      <trkpt lat="45.78939" lon="0.65842">
        <ele>221.3828125</ele>
      </trkpt>
      <trkpt lat="45.78949" lon="0.65836">
        <ele>220.8359375</ele>
      </trkpt>
      <trkpt lat="45.78957" lon="0.65832">
        <ele>220.4765625</ele>
      </trkpt>
      <trkpt lat="45.78966" lon="0.65828">
        <ele>220.09375</ele>
      </trkpt>
      <trkpt lat="45.78975" lon="0.65819">
        <ele>219.51171875</ele>
      </trkpt>
      <trkpt lat="45.78982" lon="0.65812">
        <ele>219.05859375</ele>
      </trkpt>
      <trkpt lat="45.78991" lon="0.65803">
        <ele>218.77734375</ele>
      </trkpt>
      <trkpt lat="45.79006" lon="0.65785">
        <ele>219.67578125</ele>
      </trkpt>
      <trkpt lat="45.7903" lon="0.65756">
        <ele>221.77734375</ele>
      </trkpt>
      <trkpt lat="45.79045" lon="0.65732">
        <ele>223.2421875</ele>
      </trkpt>
      <trkpt lat="45.79056" lon="0.65713">
        <ele>224.8828125</ele>
      </trkpt>
      <trkpt lat="45.79051" lon="0.65706">
        <ele>224.2265625</ele>
      </trkpt>
      <trkpt lat="45.79048" lon="0.65697">
        <ele>223.72265625</ele>
      </trkpt>
      <trkpt lat="45.79048" lon="0.65689">
        <ele>223.60546875</ele>
      </trkpt>
      <trkpt lat="45.7905" lon="0.65678">
        <ele>223.82421875</ele>
      </trkpt>
      <trkpt lat="45.79052" lon="0.65666">
        <ele>223.98046875</ele>
      </trkpt>
      <trkpt lat="45.79054" lon="0.65654">
        <ele>224.06640625</ele>
      </trkpt>
      <trkpt lat="45.79056" lon="0.65647">
        <ele>224.17578125</ele>
      </trkpt>
      <trkpt lat="45.79061" lon="0.65643">
        <ele>224.80859375</ele>
      </trkpt>
      <trkpt lat="45.79067" lon="0.65643">
        <ele>225.66796875</ele>
      </trkpt>
      <trkpt lat="45.79074" lon="0.65638">
        <ele>226.68359375</ele>
      </trkpt>
      <trkpt lat="45.79081" lon="0.65628">
        <ele>227.50390625</ele>
      </trkpt>
      <trkpt lat="45.79088" lon="0.65616">
        <ele>228.046875</ele>
      </trkpt>
      <trkpt lat="45.79092" lon="0.65603">
        <ele>228.18359375</ele>
      </trkpt>
      <trkpt lat="45.79096" lon="0.65589">
        <ele>228.2734375</ele>
      </trkpt>
      <trkpt lat="45.79101" lon="0.65579">
        <ele>228.51953125</ele>
      </trkpt>
      <trkpt lat="45.79105" lon="0.65571">
        <ele>228.71484375</ele>
      </trkpt>
      <trkpt lat="45.79108" lon="0.65565">
        <ele>228.859375</ele>
      </trkpt>
      <trkpt lat="45.79117" lon="0.65564">
        <ele>229.8203125</ele>
      </trkpt>
      <trkpt lat="45.79124" lon="0.6556">
        <ele>230.49609375</ele>
      </trkpt>
      <trkpt lat="45.79129" lon="0.65554">
        <ele>230.90234375</ele>
      </trkpt>
      <trkpt lat="45.79135" lon="0.65548">
        <ele>231.3203125</ele>
      </trkpt>
      <trkpt lat="45.79149" lon="0.65528">
        <ele>231.91796875</ele>
      </trkpt>
      <trkpt lat="45.7916" lon="0.655">
        <ele>231.6796875</ele>
      </trkpt>
      <trkpt lat="45.79171" lon="0.65469">
        <ele>230.7109375</ele>
      </trkpt>
      <trkpt lat="45.79165" lon="0.65459">
        <ele>229.67578125</ele>
      </trkpt>
      <trkpt lat="45.79162" lon="0.65452">
        <ele>228.6484375</ele>
      </trkpt>
      <trkpt lat="45.79154" lon="0.65438">
        <ele>226.515625</ele>
      </trkpt>
      <trkpt lat="45.79149" lon="0.65434">
        <ele>225.625</ele>
      </trkpt>
      <trkpt lat="45.79145" lon="0.6543">
        <ele>224.7734375</ele>
      </trkpt>
      <trkpt lat="45.79142" lon="0.65425">
        <ele>224.03125</ele>
      </trkpt>
      <trkpt lat="45.7914" lon="0.65423">
        <ele>223.6640625</ele>
      </trkpt>
      <trkpt lat="45.79138" lon="0.65418">
        <ele>223.0390625</ele>
      </trkpt>
      <trkpt lat="45.79138" lon="0.65414">
        <ele>222.75</ele>
      </trkpt>
      <trkpt lat="45.79141" lon="0.65411">
        <ele>222.6015625</ele>
      </trkpt>
      <trkpt lat="45.79156" lon="0.65396">
        <ele>222.66015625</ele>
      </trkpt>
      <trkpt lat="45.79172" lon="0.65378">
        <ele>223.31640625</ele>
      </trkpt>
      <trkpt lat="45.79177" lon="0.65369">
        <ele>223.37109375</ele>
      </trkpt>
      <trkpt lat="45.79182" lon="0.6536">
        <ele>223.48828125</ele>
      </trkpt>
      <trkpt lat="45.79188" lon="0.6535">
        <ele>223.6328125</ele>
      </trkpt>
      <trkpt lat="45.79192" lon="0.65343">
        <ele>223.796875</ele>
      </trkpt>
      <trkpt lat="45.79197" lon="0.65336">
        <ele>223.9609375</ele>
      </trkpt>
      <trkpt lat="45.79202" lon="0.65326">
        <ele>223.91796875</ele>
      </trkpt>
      <trkpt lat="45.79207" lon="0.65317">
        <ele>223.96484375</ele>
      </trkpt>
      <trkpt lat="45.79217" lon="0.65295">
        <ele>223.90234375</ele>
      </trkpt>
      <trkpt lat="45.79225" lon="0.65277">
        <ele>223.9453125</ele>
      </trkpt>
      <trkpt lat="45.79244" lon="0.65238">
        <ele>224.30078125</ele>
      </trkpt>
      <trkpt lat="45.79258" lon="0.65213">
        <ele>224.3125</ele>
      </trkpt>
      <trkpt lat="45.79272" lon="0.65188">
        <ele>223.96484375</ele>
      </trkpt>
      <trkpt lat="45.79283" lon="0.65169">
        <ele>223.44140625</ele>
      </trkpt>
      <trkpt lat="45.7929" lon="0.6516">
        <ele>223.33203125</ele>
      </trkpt>
      <trkpt lat="45.79296" lon="0.65155">
        <ele>223.58984375</ele>
      </trkpt>
      <trkpt lat="45.79304" lon="0.65153">
        <ele>224.140625</ele>
      </trkpt>
      <trkpt lat="45.7931" lon="0.65152">
        <ele>224.6875</ele>
      </trkpt>
      <trkpt lat="45.79315" lon="0.65149">
        <ele>224.9609375</ele>
      </trkpt>
      <trkpt lat="45.79319" lon="0.65148">
        <ele>225.30078125</ele>
      </trkpt>
      <trkpt lat="45.79322" lon="0.65141">
        <ele>225.08984375</ele>
      </trkpt>
      <trkpt lat="45.79323" lon="0.65135">
        <ele>224.8125</ele>
      </trkpt>
      <trkpt lat="45.79326" lon="0.6513">
        <ele>224.73046875</ele>
      </trkpt>
      <trkpt lat="45.79333" lon="0.65122">
        <ele>224.84765625</ele>
      </trkpt>
      <trkpt lat="45.79339" lon="0.65116">
        <ele>225.02734375</ele>
      </trkpt>
      <trkpt lat="45.79348" lon="0.6511">
        <ele>225.41796875</ele>
      </trkpt>
      <trkpt lat="45.79353" lon="0.65106">
        <ele>225.50390625</ele>
      </trkpt>
      <trkpt lat="45.79356" lon="0.65098">
        <ele>225.16015625</ele>
      </trkpt>
      <trkpt lat="45.79357" lon="0.65093">
        <ele>224.8515625</ele>
      </trkpt>
      <trkpt lat="45.79362" lon="0.65086">
        <ele>224.734375</ele>
      </trkpt>
      <trkpt lat="45.7937" lon="0.65067">
        <ele>223.78125</ele>
      </trkpt>
      <trkpt lat="45.79378" lon="0.6506">
        <ele>223.90234375</ele>
      </trkpt>
      <trkpt lat="45.79381" lon="0.65057">
        <ele>223.8828125</ele>
      </trkpt>
      <trkpt lat="45.79382" lon="0.6505">
        <ele>223.25390625</ele>
      </trkpt>
      <trkpt lat="45.79383" lon="0.65036">
        <ele>221.83203125</ele>
      </trkpt>
      <trkpt lat="45.79384" lon="0.65024">
        <ele>220.6484375</ele>
      </trkpt>
      <trkpt lat="45.79385" lon="0.65018">
        <ele>220.125</ele>
      </trkpt>
      <trkpt lat="45.7939" lon="0.65007">
        <ele>219.7578125</ele>
      </trkpt>
      <trkpt lat="45.79402" lon="0.64994">
        <ele>219.828125</ele>
      </trkpt>
      <trkpt lat="45.79414" lon="0.64983">
        <ele>219.83203125</ele>
      </trkpt>
      <trkpt lat="45.79427" lon="0.6497">
        <ele>219.60546875</ele>
      </trkpt>
      <trkpt lat="45.7944" lon="0.64959">
        <ele>219.28515625</ele>
      </trkpt>
      <trkpt lat="45.79457" lon="0.64946">
        <ele>218.9140625</ele>
      </trkpt>
      <trkpt lat="45.79484" lon="0.64935">
        <ele>219.09765625</ele>
      </trkpt>
      <trkpt lat="45.79525" lon="0.64918">
        <ele>219.5859375</ele>
      </trkpt>
      <trkpt lat="45.79577" lon="0.64897">
        <ele>220.0234375</ele>
      </trkpt>
      <trkpt lat="45.7962" lon="0.64881">
        <ele>219.76953125</ele>
      </trkpt>
      <trkpt lat="45.79657" lon="0.64868">
        <ele>218.98046875</ele>
      </trkpt>
      <trkpt lat="45.79668" lon="0.64863">
        <ele>218.49609375</ele>
      </trkpt>
      <trkpt lat="45.79676" lon="0.64862">
        <ele>218.4140625</ele>
      </trkpt>
      <trkpt lat="45.79691" lon="0.64865">
        <ele>218.703125</ele>
      </trkpt>
      <trkpt lat="45.79706" lon="0.64868">
        <ele>219.04296875</ele>
      </trkpt>
      <trkpt lat="45.79728" lon="0.64869">
        <ele>218.70703125</ele>
      </trkpt>
      <trkpt lat="45.79742" lon="0.64871">
        <ele>218.4765625</ele>
      </trkpt>
      <trkpt lat="45.79763" lon="0.64871">
        <ele>218.00390625</ele>
      </trkpt>
      <trkpt lat="45.7978" lon="0.6487">
        <ele>216.99609375</ele>
      </trkpt>
      <trkpt lat="45.7979" lon="0.64869">
        <ele>216.26953125</ele>
      </trkpt>
      <trkpt lat="45.79817" lon="0.64871">
        <ele>214.7265625</ele>
      </trkpt>
      <trkpt lat="45.79821" lon="0.64878">
        <ele>215.046875</ele>
      </trkpt>
      <trkpt lat="45.79824" lon="0.64885">
        <ele>215.78125</ele>
      </trkpt>
      <trkpt lat="45.79837" lon="0.64918">
        <ele>218.390625</ele>
      </trkpt>
      <trkpt lat="45.79839" lon="0.64927">
        <ele>218.95703125</ele>
      </trkpt>
      <trkpt lat="45.79845" lon="0.6493">
        <ele>219.40625</ele>
      </trkpt>
      <trkpt lat="45.79853" lon="0.64932">
        <ele>220.03515625</ele>
      </trkpt>
      <trkpt lat="45.79862" lon="0.64932">
        <ele>220.59375</ele>
      </trkpt>
      <trkpt lat="45.79866" lon="0.6493">
        <ele>220.74609375</ele>
      </trkpt>
      <trkpt lat="45.79868" lon="0.64927">
        <ele>220.671875</ele>
      </trkpt>
      <trkpt lat="45.79869" lon="0.64919">
        <ele>220.3203125</ele>
      </trkpt>
      <trkpt lat="45.7987" lon="0.64909">
        <ele>219.890625</ele>
      </trkpt>
      <trkpt lat="45.79872" lon="0.64902">
        <ele>219.5390625</ele>
      </trkpt>
      <trkpt lat="45.79876" lon="0.64894">
        <ele>219.22265625</ele>
      </trkpt>
      <trkpt lat="45.79882" lon="0.64889">
        <ele>218.734375</ele>
      </trkpt>
      <trkpt lat="45.79888" lon="0.64884">
        <ele>218.296875</ele>
      </trkpt>
      <trkpt lat="45.79894" lon="0.64883">
        <ele>218.06640625</ele>
      </trkpt>
      <trkpt lat="45.79905" lon="0.64882">
        <ele>217.84375</ele>
      </trkpt>
      <trkpt lat="45.79917" lon="0.64881">
        <ele>217.57421875</ele>
      </trkpt>
      <trkpt lat="45.79929" lon="0.64883">
        <ele>217.44140625</ele>
      </trkpt>
      <trkpt lat="45.7995" lon="0.64887">
        <ele>216.3515625</ele>
      </trkpt>
      <trkpt lat="45.79956" lon="0.64888">
        <ele>216.046875</ele>
      </trkpt>
      <trkpt lat="45.79964" lon="0.64896">
        <ele>216.03515625</ele>
      </trkpt>
      <trkpt lat="45.79978" lon="0.64907">
        <ele>215.84765625</ele>
      </trkpt>
      <trkpt lat="45.79983" lon="0.64917">
        <ele>216.34765625</ele>
      </trkpt>
      <trkpt lat="45.79988" lon="0.64929">
        <ele>217.0546875</ele>
      </trkpt>
      <trkpt lat="45.79996" lon="0.64942">
        <ele>217.765625</ele>
      </trkpt>
      <trkpt lat="45.80003" lon="0.64952">
        <ele>218.328125</ele>
      </trkpt>
      <trkpt lat="45.80009" lon="0.64959">
        <ele>218.65625</ele>
      </trkpt>
      <trkpt lat="45.80015" lon="0.64962">
        <ele>218.6875</ele>
      </trkpt>
      <trkpt lat="45.80025" lon="0.64967">
        <ele>218.5078125</ele>
      </trkpt>
      <trkpt lat="45.80041" lon="0.64978">
        <ele>218.6484375</ele>
      </trkpt>
      <trkpt lat="45.80059" lon="0.64985">
        <ele>218.03125</ele>
      </trkpt>
      <trkpt lat="45.80073" lon="0.64991">
        <ele>217.56640625</ele>
      </trkpt>
      <trkpt lat="45.80087" lon="0.65">
        <ele>217.36328125</ele>
      </trkpt>
      <trkpt lat="45.80101" lon="0.65012">
        <ele>217.40234375</ele>
      </trkpt>
      <trkpt lat="45.80115" lon="0.65027">
        <ele>217.58203125</ele>
      </trkpt>
      <trkpt lat="45.80131" lon="0.65046">
        <ele>217.6875</ele>
      </trkpt>
      <trkpt lat="45.80157" lon="0.6508">
        <ele>217.484375</ele>
      </trkpt>
      <trkpt lat="45.80175" lon="0.65105">
        <ele>218.65234375</ele>
      </trkpt>
      <trkpt lat="45.80186" lon="0.65119">
        <ele>219.234375</ele>
      </trkpt>
      <trkpt lat="45.80193" lon="0.65123">
        <ele>219.26171875</ele>
      </trkpt>
      <trkpt lat="45.80207" lon="0.65127">
        <ele>219.08984375</ele>
      </trkpt>
      <trkpt lat="45.80233" lon="0.65133">
        <ele>218.8203125</ele>
      </trkpt>
      <trkpt lat="45.80249" lon="0.6514">
        <ele>218.63671875</ele>
      </trkpt>
      <trkpt lat="45.80261" lon="0.65144">
        <ele>218.4140625</ele>
      </trkpt>
      <trkpt lat="45.80266" lon="0.65146">
        <ele>218.3125</ele>
      </trkpt>
      <trkpt lat="45.80272" lon="0.65147">
        <ele>218.11328125</ele>
      </trkpt>
      <trkpt lat="45.80281" lon="0.65152">
        <ele>217.8828125</ele>
      </trkpt>
      <trkpt lat="45.80285" lon="0.65155">
        <ele>217.78515625</ele>
      </trkpt>
      <trkpt lat="45.80292" lon="0.6516">
        <ele>217.64453125</ele>
      </trkpt>
      <trkpt lat="45.80297" lon="0.65172">
        <ele>217.6640625</ele>
      </trkpt>
      <trkpt lat="45.80297" lon="0.65183">
        <ele>217.8359375</ele>
      </trkpt>
      <trkpt lat="45.80297" lon="0.65191">
        <ele>217.94140625</ele>
      </trkpt>
      <trkpt lat="45.80295" lon="0.65202">
        <ele>218.11328125</ele>
      </trkpt>
      <trkpt lat="45.80293" lon="0.65222">
        <ele>218.34765625</ele>
      </trkpt>
      <trkpt lat="45.80292" lon="0.65235">
        <ele>218.48046875</ele>
      </trkpt>
      <trkpt lat="45.80294" lon="0.65241">
        <ele>218.55859375</ele>
      </trkpt>
      <trkpt lat="45.80302" lon="0.65261">
        <ele>219.02734375</ele>
      </trkpt>
      <trkpt lat="45.8031" lon="0.6528">
        <ele>219.5546875</ele>
      </trkpt>
      <trkpt lat="45.80316" lon="0.65295">
        <ele>220.0390625</ele>
      </trkpt>
      <trkpt lat="45.80321" lon="0.65299">
        <ele>220.25390625</ele>
      </trkpt>
      <trkpt lat="45.80327" lon="0.653">
        <ele>220.58203125</ele>
      </trkpt>
      <trkpt lat="45.80334" lon="0.65298">
        <ele>220.90625</ele>
      </trkpt>
      <trkpt lat="45.80344" lon="0.65296">
        <ele>221.375</ele>
      </trkpt>
      <trkpt lat="45.80354" lon="0.65293">
        <ele>221.8125</ele>
      </trkpt>
      <trkpt lat="45.8036" lon="0.65291">
        <ele>222.07421875</ele>
      </trkpt>
      <trkpt lat="45.80366" lon="0.65281">
        <ele>222.01171875</ele>
      </trkpt>
      <trkpt lat="45.8037" lon="0.65275">
        <ele>221.9921875</ele>
      </trkpt>
      <trkpt lat="45.80374" lon="0.65268">
        <ele>221.98828125</ele>
      </trkpt>
      <trkpt lat="45.80377" lon="0.6526">
        <ele>221.82421875</ele>
      </trkpt>
      <trkpt lat="45.80381" lon="0.65245">
        <ele>221.5078125</ele>
      </trkpt>
      <trkpt lat="45.80385" lon="0.6523">
        <ele>221.1953125</ele>
      </trkpt>
      <trkpt lat="45.80389" lon="0.65216">
        <ele>220.875</ele>
      </trkpt>
      <trkpt lat="45.80393" lon="0.65203">
        <ele>220.6484375</ele>
      </trkpt>
      <trkpt lat="45.80394" lon="0.65194">
        <ele>220.41015625</ele>
      </trkpt>
      <trkpt lat="45.80407" lon="0.65167">
        <ele>220.11328125</ele>
      </trkpt>
      <trkpt lat="45.80413" lon="0.65154">
        <ele>219.96875</ele>
      </trkpt>
      <trkpt lat="45.80425" lon="0.65129">
        <ele>219.7265625</ele>
      </trkpt>
      <trkpt lat="45.80428" lon="0.6512">
        <ele>219.58203125</ele>
      </trkpt>
      <trkpt lat="45.80431" lon="0.65111">
        <ele>219.4140625</ele>
      </trkpt>
      <trkpt lat="45.80435" lon="0.651">
        <ele>219.17578125</ele>
      </trkpt>
      <trkpt lat="45.80442" lon="0.65091">
        <ele>219.1171875</ele>
      </trkpt>
      <trkpt lat="45.80448" lon="0.65081">
        <ele>219.01171875</ele>
      </trkpt>
      <trkpt lat="45.80451" lon="0.65078">
        <ele>218.95703125</ele>
      </trkpt>
      <trkpt lat="45.80459" lon="0.65071">
        <ele>218.9375</ele>
      </trkpt>
      <trkpt lat="45.80466" lon="0.65065">
        <ele>218.92578125</ele>
      </trkpt>
      <trkpt lat="45.80468" lon="0.65063">
        <ele>218.90625</ele>
      </trkpt>
      <trkpt lat="45.80479" lon="0.65061">
        <ele>219.1796875</ele>
      </trkpt>
      <trkpt lat="45.80494" lon="0.65059">
        <ele>219.28515625</ele>
      </trkpt>
      <trkpt lat="45.80508" lon="0.65057">
        <ele>219.1171875</ele>
      </trkpt>
      <trkpt lat="45.80523" lon="0.65052">
        <ele>218.73828125</ele>
      </trkpt>
      <trkpt lat="45.80534" lon="0.65049">
        <ele>218.4375</ele>
      </trkpt>
      <trkpt lat="45.80546" lon="0.65048">
        <ele>218.21484375</ele>
      </trkpt>
      <trkpt lat="45.80558" lon="0.65046">
        <ele>217.89453125</ele>
      </trkpt>
      <trkpt lat="45.80562" lon="0.65046">
        <ele>217.8203125</ele>
      </trkpt>
      <trkpt lat="45.80574" lon="0.65051">
        <ele>217.9765625</ele>
      </trkpt>
      <trkpt lat="45.80582" lon="0.65055">
        <ele>218.06640625</ele>
      </trkpt>
      <trkpt lat="45.80592" lon="0.6506">
        <ele>218.2890625</ele>
      </trkpt>
      <trkpt lat="45.80604" lon="0.65069">
        <ele>218.5</ele>
      </trkpt>
      <trkpt lat="45.80613" lon="0.65075">
        <ele>218.4296875</ele>
      </trkpt>
      <trkpt lat="45.80623" lon="0.65081">
        <ele>218.2421875</ele>
      </trkpt>
      <trkpt lat="45.80638" lon="0.65089">
        <ele>218.015625</ele>
      </trkpt>
      <trkpt lat="45.80666" lon="0.65106">
        <ele>218.12109375</ele>
      </trkpt>
      <trkpt lat="45.807" lon="0.65144">
        <ele>219.2109375</ele>
      </trkpt>
      <trkpt lat="45.80739" lon="0.65177">
        <ele>221.21875</ele>
      </trkpt>
      <trkpt lat="45.80744" lon="0.65177">
        <ele>221.3203125</ele>
      </trkpt>
      <trkpt lat="45.80754" lon="0.65167">
        <ele>220.9609375</ele>
      </trkpt>
      <trkpt lat="45.8076" lon="0.65162">
        <ele>220.79296875</ele>
      </trkpt>
      <trkpt lat="45.80765" lon="0.65157">
        <ele>220.63671875</ele>
      </trkpt>
      <trkpt lat="45.80772" lon="0.65148">
        <ele>220.1171875</ele>
      </trkpt>
      <trkpt lat="45.80782" lon="0.65134">
        <ele>219.40234375</ele>
      </trkpt>
      <trkpt lat="45.80795" lon="0.65125">
        <ele>218.85546875</ele>
      </trkpt>
      <trkpt lat="45.80809" lon="0.65115">
        <ele>218.2890625</ele>
      </trkpt>
      <trkpt lat="45.80831" lon="0.65112">
        <ele>217.859375</ele>
      </trkpt>
      <trkpt lat="45.80857" lon="0.65125">
        <ele>217.6015625</ele>
      </trkpt>
      <trkpt lat="45.80866" lon="0.65134">
        <ele>217.6328125</ele>
      </trkpt>
      <trkpt lat="45.80875" lon="0.65145">
        <ele>217.65234375</ele>
      </trkpt>
      <trkpt lat="45.80881" lon="0.65151">
        <ele>217.5078125</ele>
      </trkpt>
      <trkpt lat="45.80886" lon="0.65165">
        <ele>217.5859375</ele>
      </trkpt>
      <trkpt lat="45.80892" lon="0.65175">
        <ele>217.59375</ele>
      </trkpt>
      <trkpt lat="45.80895" lon="0.65199">
        <ele>218.10546875</ele>
      </trkpt>
      <trkpt lat="45.809" lon="0.65231">
        <ele>218.64453125</ele>
      </trkpt>
      <trkpt lat="45.80904" lon="0.65265">
        <ele>219.6875</ele>
      </trkpt>
      <trkpt lat="45.80913" lon="0.65276">
        <ele>219.24609375</ele>
      </trkpt>
      <trkpt lat="45.80917" lon="0.65281">
        <ele>219.03515625</ele>
      </trkpt>
      <trkpt lat="45.80924" lon="0.65286">
        <ele>218.49609375</ele>
      </trkpt>
      <trkpt lat="45.8093" lon="0.65291">
        <ele>217.96875</ele>
      </trkpt>
      <trkpt lat="45.80934" lon="0.65293">
        <ele>217.9453125</ele>
      </trkpt>
      <trkpt lat="45.80936" lon="0.65296">
        <ele>217.97265625</ele>
      </trkpt>
      <trkpt lat="45.80937" lon="0.65302">
        <ele>218.05859375</ele>
      </trkpt>
      <trkpt lat="45.80936" lon="0.65316">
        <ele>218.34765625</ele>
      </trkpt>
      <trkpt lat="45.80935" lon="0.65339">
        <ele>218.8046875</ele>
      </trkpt>
      <trkpt lat="45.80931" lon="0.65372">
        <ele>219.40625</ele>
      </trkpt>
      <trkpt lat="45.80931" lon="0.65385">
        <ele>219.6484375</ele>
      </trkpt>
      <trkpt lat="45.80932" lon="0.65405">
        <ele>220.0078125</ele>
      </trkpt>
      <trkpt lat="45.80936" lon="0.65417">
        <ele>220.44921875</ele>
      </trkpt>
      <trkpt lat="45.80941" lon="0.65421">
        <ele>220.59765625</ele>
      </trkpt>
      <trkpt lat="45.80944" lon="0.65422">
        <ele>220.63671875</ele>
      </trkpt>
      <trkpt lat="45.80947" lon="0.65422">
        <ele>220.63671875</ele>
      </trkpt>
      <trkpt lat="45.8095" lon="0.6542">
        <ele>220.55078125</ele>
      </trkpt>
      <trkpt lat="45.80955" lon="0.65415">
        <ele>220.375</ele>
      </trkpt>
      <trkpt lat="45.80961" lon="0.65405">
        <ele>220.02734375</ele>
      </trkpt>
      <trkpt lat="45.80969" lon="0.65393">
        <ele>219.79296875</ele>
      </trkpt>
      <trkpt lat="45.80979" lon="0.65377">
        <ele>219.4921875</ele>
      </trkpt>
      <trkpt lat="45.80988" lon="0.65363">
        <ele>219.30859375</ele>
      </trkpt>
      <trkpt lat="45.80998" lon="0.65346">
        <ele>219.28125</ele>
      </trkpt>
      <trkpt lat="45.81007" lon="0.65328">
        <ele>219.1171875</ele>
      </trkpt>
      <trkpt lat="45.81021" lon="0.65301">
        <ele>219.0625</ele>
      </trkpt>
      <trkpt lat="45.81051" lon="0.6524">
        <ele>219.70703125</ele>
      </trkpt>
      <trkpt lat="45.81072" lon="0.65192">
        <ele>221.18359375</ele>
      </trkpt>
      <trkpt lat="45.8107" lon="0.65177">
        <ele>220.98828125</ele>
      </trkpt>
      <trkpt lat="45.81066" lon="0.65158">
        <ele>220.69140625</ele>
      </trkpt>
      <trkpt lat="45.81065" lon="0.65145">
        <ele>220.63671875</ele>
      </trkpt>
      <trkpt lat="45.81067" lon="0.65129">
        <ele>220.75390625</ele>
      </trkpt>
      <trkpt lat="45.8107" lon="0.6511">
        <ele>220.5625</ele>
      </trkpt>
      <trkpt lat="45.81076" lon="0.65083">
        <ele>220.32421875</ele>
      </trkpt>
      <trkpt lat="45.81083" lon="0.65062">
        <ele>220.46484375</ele>
      </trkpt>
      <trkpt lat="45.8109" lon="0.65046">
        <ele>220.5390625</ele>
      </trkpt>
      <trkpt lat="45.811" lon="0.65028">
        <ele>220.5234375</ele>
      </trkpt>
      <trkpt lat="45.81106" lon="0.65016">
        <ele>220.3046875</ele>
      </trkpt>
      <trkpt lat="45.81109" lon="0.6501">
        <ele>220.07421875</ele>
      </trkpt>
      <trkpt lat="45.81118" lon="0.64999">
        <ele>219.6796875</ele>
      </trkpt>
      <trkpt lat="45.81129" lon="0.64986">
        <ele>219.1796875</ele>
      </trkpt>
      <trkpt lat="45.81132" lon="0.64982">
        <ele>219.01953125</ele>
      </trkpt>
      <trkpt lat="45.81141" lon="0.64978">
        <ele>218.9921875</ele>
      </trkpt>
      <trkpt lat="45.81155" lon="0.64975">
        <ele>219.08984375</ele>
      </trkpt>
      <trkpt lat="45.81171" lon="0.64972">
        <ele>219.109375</ele>
      </trkpt>
      <trkpt lat="45.81182" lon="0.6497">
        <ele>219.11328125</ele>
      </trkpt>
      <trkpt lat="45.81199" lon="0.64969">
        <ele>219.3359375</ele>
      </trkpt>
      <trkpt lat="45.81232" lon="0.64967">
        <ele>220.1640625</ele>
      </trkpt>
      <trkpt lat="45.81258" lon="0.64961">
        <ele>220.8046875</ele>
      </trkpt>
      <trkpt lat="45.81289" lon="0.64964">
        <ele>221.65234375</ele>
      </trkpt>
      <trkpt lat="45.81304" lon="0.64952">
        <ele>221.265625</ele>
      </trkpt>
      <trkpt lat="45.81316" lon="0.6494">
        <ele>220.84375</ele>
      </trkpt>
      <trkpt lat="45.81337" lon="0.64916">
        <ele>219.92578125</ele>
      </trkpt>
      <trkpt lat="45.81346" lon="0.64914">
        <ele>219.9296875</ele>
      </trkpt>
      <trkpt lat="45.8135" lon="0.64915">
        <ele>220.1171875</ele>
      </trkpt>
      <trkpt lat="45.81353" lon="0.64946">
        <ele>221.7890625</ele>
      </trkpt>
      <trkpt lat="45.81359" lon="0.64973">
        <ele>223.37109375</ele>
      </trkpt>
      <trkpt lat="45.81361" lon="0.65007">
        <ele>225.2421875</ele>
      </trkpt>
      <trkpt lat="45.81363" lon="0.65025">
        <ele>226.22265625</ele>
      </trkpt>
      <trkpt lat="45.81364" lon="0.65038">
        <ele>226.921875</ele>
      </trkpt>
      <trkpt lat="45.81367" lon="0.65062">
        <ele>228.2109375</ele>
      </trkpt>
      <trkpt lat="45.81367" lon="0.65084">
        <ele>229.36328125</ele>
      </trkpt>
      <trkpt lat="45.81377" lon="0.65129">
        <ele>232.08984375</ele>
      </trkpt>
      <trkpt lat="45.8138" lon="0.65138">
        <ele>232.40625</ele>
      </trkpt>
      <trkpt lat="45.81384" lon="0.6515">
        <ele>232.8828125</ele>
      </trkpt>
      <trkpt lat="45.8141" lon="0.65227">
        <ele>236.71875</ele>
      </trkpt>
      <trkpt lat="45.81421" lon="0.65262">
        <ele>238.50390625</ele>
      </trkpt>
      <trkpt lat="45.81431" lon="0.65283">
        <ele>239.640625</ele>
      </trkpt>
      <trkpt lat="45.81435" lon="0.65291">
        <ele>240.00390625</ele>
      </trkpt>
      <trkpt lat="45.81452" lon="0.65318">
        <ele>241.2734375</ele>
      </trkpt>
      <trkpt lat="45.81458" lon="0.6533">
        <ele>241.80859375</ele>
      </trkpt>
      <trkpt lat="45.81465" lon="0.65349">
        <ele>242.6015625</ele>
      </trkpt>
      <trkpt lat="45.8147" lon="0.65397">
        <ele>244.42578125</ele>
      </trkpt>
      <trkpt lat="45.81474" lon="0.65415">
        <ele>244.91796875</ele>
      </trkpt>
      <trkpt lat="45.81486" lon="0.65442">
        <ele>245.67578125</ele>
      </trkpt>
      <trkpt lat="45.81498" lon="0.65458">
        <ele>246.37890625</ele>
      </trkpt>
      <trkpt lat="45.81506" lon="0.65469">
        <ele>246.875</ele>
      </trkpt>
      <trkpt lat="45.81529" lon="0.65489">
        <ele>248.0546875</ele>
      </trkpt>
      <trkpt lat="45.81549" lon="0.65501">
        <ele>248.82421875</ele>
      </trkpt>
      <trkpt lat="45.81593" lon="0.65521">
        <ele>250.02734375</ele>
      </trkpt>
      <trkpt lat="45.8163" lon="0.65539">
        <ele>251.25390625</ele>
      </trkpt>
      <trkpt lat="45.81693" lon="0.65579">
        <ele>253.25</ele>
      </trkpt>
      <trkpt lat="45.81748" lon="0.65616">
        <ele>254.59765625</ele>
      </trkpt>
      <trkpt lat="45.81817" lon="0.65655">
        <ele>256.01171875</ele>
      </trkpt>
      <trkpt lat="45.81871" lon="0.65683">
        <ele>257.94140625</ele>
      </trkpt>
      <trkpt lat="45.81899" lon="0.65696">
        <ele>258.24609375</ele>
      </trkpt>
      <trkpt lat="45.8193" lon="0.65708">
        <ele>258.4609375</ele>
      </trkpt>
      <trkpt lat="45.81955" lon="0.65721">
        <ele>259.01953125</ele>
      </trkpt>
      <trkpt lat="45.81977" lon="0.65743">
        <ele>259.94140625</ele>
      </trkpt>
      <trkpt lat="45.82" lon="0.65759">
        <ele>260.28515625</ele>
      </trkpt>
      <trkpt lat="45.8201" lon="0.65749">
        <ele>260.109375</ele>
      </trkpt>
      <trkpt lat="45.82094" lon="0.65816">
        <ele>256.9375</ele>
      </trkpt>
      <trkpt lat="45.82173" lon="0.65873">
        <ele>251.08984375</ele>
      </trkpt>
      <trkpt lat="45.82191" lon="0.65882">
        <ele>250.25</ele>
      </trkpt>
      <trkpt lat="45.82204" lon="0.65883">
        <ele>249.85546875</ele>
      </trkpt>
      <trkpt lat="45.8222" lon="0.65886">
        <ele>249.65625</ele>
      </trkpt>
      <trkpt lat="45.82238" lon="0.65899">
        <ele>249.19921875</ele>
      </trkpt>
      <trkpt lat="45.82252" lon="0.65915">
        <ele>248.6171875</ele>
      </trkpt>
      <trkpt lat="45.82276" lon="0.65947">
        <ele>247.859375</ele>
      </trkpt>
      <trkpt lat="45.82299" lon="0.65978">
        <ele>247.9609375</ele>
      </trkpt>
      <trkpt lat="45.8231" lon="0.65993">
        <ele>248.08203125</ele>
      </trkpt>
      <trkpt lat="45.82333" lon="0.66017">
        <ele>248.4765625</ele>
      </trkpt>
      <trkpt lat="45.82368" lon="0.66056">
        <ele>249.6875</ele>
      </trkpt>
      <trkpt lat="45.82397" lon="0.66088">
        <ele>250.0859375</ele>
      </trkpt>
      <trkpt lat="45.82415" lon="0.66106">
        <ele>250.1015625</ele>
      </trkpt>
      <trkpt lat="45.82441" lon="0.66127">
        <ele>249.98828125</ele>
      </trkpt>
      <trkpt lat="45.82464" lon="0.66152">
        <ele>249.5390625</ele>
      </trkpt>
      <trkpt lat="45.8249" lon="0.6618">
        <ele>248.8671875</ele>
      </trkpt>
      <trkpt lat="45.82503" lon="0.66197">
        <ele>248</ele>
      </trkpt>
      <trkpt lat="45.82511" lon="0.66207">
        <ele>247.58984375</ele>
      </trkpt>
      <trkpt lat="45.82512" lon="0.66214">
        <ele>247.453125</ele>
      </trkpt>
      <trkpt lat="45.8251" lon="0.66222">
        <ele>247.31640625</ele>
      </trkpt>
      <trkpt lat="45.82507" lon="0.66227">
        <ele>247.23046875</ele>
      </trkpt>
      <trkpt lat="45.82501" lon="0.66242">
        <ele>246.84375</ele>
      </trkpt>
      <trkpt lat="45.82485" lon="0.66271">
        <ele>245.78125</ele>
      </trkpt>
      <trkpt lat="45.82465" lon="0.66316">
        <ele>244.0078125</ele>
      </trkpt>
      <trkpt lat="45.82445" lon="0.66358">
        <ele>241.796875</ele>
      </trkpt>
      <trkpt lat="45.82435" lon="0.66378">
        <ele>240.51171875</ele>
      </trkpt>
      <trkpt lat="45.8242" lon="0.66403">
        <ele>239.0546875</ele>
      </trkpt>
      <trkpt lat="45.82408" lon="0.66425">
        <ele>237.7109375</ele>
      </trkpt>
      <trkpt lat="45.82394" lon="0.66456">
        <ele>235.6015625</ele>
      </trkpt>
      <trkpt lat="45.82387" lon="0.66485">
        <ele>233.9453125</ele>
      </trkpt>
      <trkpt lat="45.82377" lon="0.66535">
        <ele>232.046875</ele>
      </trkpt>
      <trkpt lat="45.82373" lon="0.6655">
        <ele>232.03515625</ele>
      </trkpt>
      <trkpt lat="45.82371" lon="0.6656">
        <ele>232.12890625</ele>
      </trkpt>
      <trkpt lat="45.82367" lon="0.66583">
        <ele>232.1640625</ele>
      </trkpt>
      <trkpt lat="45.82367" lon="0.66603">
        <ele>231.96484375</ele>
      </trkpt>
      <trkpt lat="45.82368" lon="0.66614">
        <ele>231.72265625</ele>
      </trkpt>
      <trkpt lat="45.82373" lon="0.66633">
        <ele>225.1171875</ele>
      </trkpt>
      <trkpt lat="45.82379" lon="0.6666">
        <ele>203.046875</ele>
      </trkpt>
      <trkpt lat="45.82381" lon="0.66696">
        <ele>232.109375</ele>
      </trkpt>
      <trkpt lat="45.82376" lon="0.66717">
        <ele>233.17578125</ele>
      </trkpt>
      <trkpt lat="45.8237" lon="0.66729">
        <ele>234.30078125</ele>
      </trkpt>
      <trkpt lat="45.82365" lon="0.66731">
        <ele>235.078125</ele>
      </trkpt>
      <trkpt lat="45.8235" lon="0.66729">
        <ele>236.84765625</ele>
      </trkpt>
      <trkpt lat="45.82342" lon="0.6675">
        <ele>238.0703125</ele>
      </trkpt>
      <trkpt lat="45.82335" lon="0.66772">
        <ele>239.01953125</ele>
      </trkpt>
      <trkpt lat="45.82307" lon="0.66814">
        <ele>241.1953125</ele>
      </trkpt>
      <trkpt lat="45.8228" lon="0.66852">
        <ele>241.1796875</ele>
      </trkpt>
      <trkpt lat="45.82272" lon="0.66864">
        <ele>240.625</ele>
      </trkpt>
      <trkpt lat="45.82267" lon="0.66883">
        <ele>239.4296875</ele>
      </trkpt>
      <trkpt lat="45.82265" lon="0.66914">
        <ele>236.8203125</ele>
      </trkpt>
      <trkpt lat="45.82258" lon="0.66933">
        <ele>235.0859375</ele>
      </trkpt>
      <trkpt lat="45.8225" lon="0.66943">
        <ele>234.23828125</ele>
      </trkpt>
      <trkpt lat="45.82233" lon="0.66955">
        <ele>233.58984375</ele>
      </trkpt>
      <trkpt lat="45.82214" lon="0.66964">
        <ele>233.30078125</ele>
      </trkpt>
      <trkpt lat="45.82201" lon="0.66976">
        <ele>232.1875</ele>
      </trkpt>
      <trkpt lat="45.82192" lon="0.66987">
        <ele>230.9765625</ele>
      </trkpt>
      <trkpt lat="45.82189" lon="0.67">
        <ele>229.73828125</ele>
      </trkpt>
      <trkpt lat="45.82187" lon="0.67035">
        <ele>228.98046875</ele>
      </trkpt>
      <trkpt lat="45.82128" lon="0.67079">
        <ele>231.4375</ele>
      </trkpt>
      <trkpt lat="45.8212" lon="0.6714">
        <ele>235.2109375</ele>
      </trkpt>
      <trkpt lat="45.82113" lon="0.67203">
        <ele>238.1484375</ele>
      </trkpt>
      <trkpt lat="45.8211" lon="0.67258">
        <ele>241.16796875</ele>
      </trkpt>
      <trkpt lat="45.82109" lon="0.67268">
        <ele>241.671875</ele>
      </trkpt>
      <trkpt lat="45.82106" lon="0.67279">
        <ele>242.26171875</ele>
      </trkpt>
      <trkpt lat="45.82103" lon="0.67292">
        <ele>242.9765625</ele>
      </trkpt>
      <trkpt lat="45.82102" lon="0.67301">
        <ele>243.48046875</ele>
      </trkpt>
      <trkpt lat="45.82101" lon="0.67315">
        <ele>244.26953125</ele>
      </trkpt>
      <trkpt lat="45.82101" lon="0.67332">
        <ele>245.1875</ele>
      </trkpt>
      <trkpt lat="45.82102" lon="0.67347">
        <ele>246.046875</ele>
      </trkpt>
      <trkpt lat="45.82101" lon="0.67369">
        <ele>247.578125</ele>
      </trkpt>
      <trkpt lat="45.82104" lon="0.67378">
        <ele>248.22265625</ele>
      </trkpt>
      <trkpt lat="45.82102" lon="0.67411">
        <ele>250.12890625</ele>
      </trkpt>
      <trkpt lat="45.82098" lon="0.67434">
        <ele>250.5390625</ele>
      </trkpt>
      <trkpt lat="45.82098" lon="0.67439">
        <ele>250.6328125</ele>
      </trkpt>
      <trkpt lat="45.821" lon="0.67442">
        <ele>250.6640625</ele>
      </trkpt>
      <trkpt lat="45.82104" lon="0.67444">
        <ele>250.640625</ele>
      </trkpt>
      <trkpt lat="45.82119" lon="0.67452">
        <ele>250.53515625</ele>
      </trkpt>
      <trkpt lat="45.82142" lon="0.67462">
        <ele>250.15625</ele>
      </trkpt>
      <trkpt lat="45.82194" lon="0.67481">
        <ele>248.5546875</ele>
      </trkpt>
      <trkpt lat="45.82247" lon="0.67501">
        <ele>247.4765625</ele>
      </trkpt>
      <trkpt lat="45.82319" lon="0.67535">
        <ele>245.49609375</ele>
      </trkpt>
      <trkpt lat="45.8237" lon="0.67563">
        <ele>242.46484375</ele>
      </trkpt>
      <trkpt lat="45.82422" lon="0.67592">
        <ele>239.875</ele>
      </trkpt>
      <trkpt lat="45.82504" lon="0.67643">
        <ele>236.2890625</ele>
      </trkpt>
      <trkpt lat="45.82536" lon="0.67666">
        <ele>234.76171875</ele>
      </trkpt>
      <trkpt lat="45.82595" lon="0.67712">
        <ele>231.78515625</ele>
      </trkpt>
      <trkpt lat="45.82637" lon="0.67748">
        <ele>229</ele>
      </trkpt>
      <trkpt lat="45.82671" lon="0.67779">
        <ele>224.17578125</ele>
      </trkpt>
      <trkpt lat="45.82682" lon="0.67791">
        <ele>221.87109375</ele>
      </trkpt>
      <trkpt lat="45.82692" lon="0.67799">
        <ele>220.015625</ele>
      </trkpt>
      <trkpt lat="45.82699" lon="0.67803">
        <ele>218.72265625</ele>
      </trkpt>
      <trkpt lat="45.82716" lon="0.67806">
        <ele>216.50390625</ele>
      </trkpt>
      <trkpt lat="45.82727" lon="0.67806">
        <ele>215.140625</ele>
      </trkpt>
      <trkpt lat="45.82742" lon="0.67803">
        <ele>213.44140625</ele>
      </trkpt>
      <trkpt lat="45.82725" lon="0.67818">
        <ele>214.28125</ele>
      </trkpt>
      <trkpt lat="45.82709" lon="0.67832">
        <ele>214.5859375</ele>
      </trkpt>
      <trkpt lat="45.827" lon="0.67838">
        <ele>214.80859375</ele>
      </trkpt>
      <trkpt lat="45.82694" lon="0.67841">
        <ele>215.25390625</ele>
      </trkpt>
      <trkpt lat="45.82675" lon="0.67846">
        <ele>216.6328125</ele>
      </trkpt>
      <trkpt lat="45.82658" lon="0.67845">
        <ele>218.72265625</ele>
      </trkpt>
      <trkpt lat="45.82638" lon="0.67842">
        <ele>219.625</ele>
      </trkpt>
      <trkpt lat="45.82629" lon="0.67848">
        <ele>218.94921875</ele>
      </trkpt>
      <trkpt lat="45.82622" lon="0.67858">
        <ele>217.90625</ele>
      </trkpt>
      <trkpt lat="45.82618" lon="0.67874">
        <ele>216.44921875</ele>
      </trkpt>
      <trkpt lat="45.82617" lon="0.67903">
        <ele>213.83984375</ele>
      </trkpt>
      <trkpt lat="45.8262" lon="0.67944">
        <ele>213.66015625</ele>
      </trkpt>
      <trkpt lat="45.82621" lon="0.67961">
        <ele>213.53125</ele>
      </trkpt>
      <trkpt lat="45.8262" lon="0.67971">
        <ele>213.79296875</ele>
      </trkpt>
      <trkpt lat="45.82615" lon="0.67992">
        <ele>214.73046875</ele>
      </trkpt>
      <trkpt lat="45.8261" lon="0.68002">
        <ele>215.703125</ele>
      </trkpt>
      <trkpt lat="45.82605" lon="0.68009">
        <ele>216.57421875</ele>
      </trkpt>
      <trkpt lat="45.82596" lon="0.68016">
        <ele>218.12890625</ele>
      </trkpt>
      <trkpt lat="45.82589" lon="0.6802">
        <ele>219.5</ele>
      </trkpt>
      <trkpt lat="45.82577" lon="0.68028">
        <ele>221.671875</ele>
      </trkpt>
      <trkpt lat="45.82564" lon="0.68043">
        <ele>224.0546875</ele>
      </trkpt>
      <trkpt lat="45.82556" lon="0.68059">
        <ele>225.62109375</ele>
      </trkpt>
      <trkpt lat="45.82551" lon="0.68073">
        <ele>226.62890625</ele>
      </trkpt>
      <trkpt lat="45.82546" lon="0.68091">
        <ele>227.46875</ele>
      </trkpt>
      <trkpt lat="45.82541" lon="0.68111">
        <ele>228</ele>
      </trkpt>
      <trkpt lat="45.82535" lon="0.68129">
        <ele>228.36328125</ele>
      </trkpt>
      <trkpt lat="45.8253" lon="0.68141">
        <ele>228.59765625</ele>
      </trkpt>
      <trkpt lat="45.82519" lon="0.68164">
        <ele>229.19140625</ele>
      </trkpt>
      <trkpt lat="45.8251" lon="0.68182">
        <ele>229.69921875</ele>
      </trkpt>
      <trkpt lat="45.82498" lon="0.68213">
        <ele>230.8046875</ele>
      </trkpt>
      <trkpt lat="45.82489" lon="0.68236">
        <ele>231.7890625</ele>
      </trkpt>
      <trkpt lat="45.82483" lon="0.68255">
        <ele>232.03125</ele>
      </trkpt>
      <trkpt lat="45.82503" lon="0.68269">
        <ele>230.91015625</ele>
      </trkpt>
      <trkpt lat="45.82521" lon="0.68282">
        <ele>229.984375</ele>
      </trkpt>
      <trkpt lat="45.82533" lon="0.68294">
        <ele>229.43359375</ele>
      </trkpt>
      <trkpt lat="45.82541" lon="0.68313">
        <ele>229.015625</ele>
      </trkpt>
      <trkpt lat="45.82546" lon="0.6833">
        <ele>228.48046875</ele>
      </trkpt>
      <trkpt lat="45.82557" lon="0.68373">
        <ele>225.46875</ele>
      </trkpt>
      <trkpt lat="45.8256" lon="0.6839">
        <ele>223.91796875</ele>
      </trkpt>
      <trkpt lat="45.8257" lon="0.68432">
        <ele>218.51171875</ele>
      </trkpt>
      <trkpt lat="45.82582" lon="0.68473">
        <ele>213.49609375</ele>
      </trkpt>
      <trkpt lat="45.82596" lon="0.68524">
        <ele>211.17578125</ele>
      </trkpt>
      <trkpt lat="45.82612" lon="0.68584">
        <ele>213.359375</ele>
      </trkpt>
      <trkpt lat="45.82633" lon="0.68666">
        <ele>218.78515625</ele>
      </trkpt>
      <trkpt lat="45.82645" lon="0.68714">
        <ele>221.16015625</ele>
      </trkpt>
      <trkpt lat="45.82658" lon="0.68762">
        <ele>223.5</ele>
      </trkpt>
      <trkpt lat="45.82668" lon="0.68801">
        <ele>225.8125</ele>
      </trkpt>
      <trkpt lat="45.82673" lon="0.68818">
        <ele>226.80078125</ele>
      </trkpt>
      <trkpt lat="45.82675" lon="0.68826">
        <ele>227.265625</ele>
      </trkpt>
      <trkpt lat="45.82667" lon="0.6883">
        <ele>227.33984375</ele>
      </trkpt>
      <trkpt lat="45.82657" lon="0.68834">
        <ele>227.39453125</ele>
      </trkpt>
      <trkpt lat="45.82653" lon="0.68837">
        <ele>227.46875</ele>
      </trkpt>
      <trkpt lat="45.82651" lon="0.68841">
        <ele>227.55859375</ele>
      </trkpt>
      <trkpt lat="45.82646" lon="0.68847">
        <ele>227.5234375</ele>
      </trkpt>
      <trkpt lat="45.82643" lon="0.68853">
        <ele>227.54296875</ele>
      </trkpt>
      <trkpt lat="45.8264" lon="0.68858">
        <ele>227.50390625</ele>
      </trkpt>
      <trkpt lat="45.82636" lon="0.68864">
        <ele>227.4765625</ele>
      </trkpt>
      <trkpt lat="45.82634" lon="0.6887">
        <ele>227.5078125</ele>
      </trkpt>
      <trkpt lat="45.82625" lon="0.68886">
        <ele>227.40234375</ele>
      </trkpt>
      <trkpt lat="45.82617" lon="0.68901">
        <ele>227.39453125</ele>
      </trkpt>
      <trkpt lat="45.82588" lon="0.68943">
        <ele>226.765625</ele>
      </trkpt>
      <trkpt lat="45.82569" lon="0.6897">
        <ele>226.5234375</ele>
      </trkpt>
      <trkpt lat="45.82563" lon="0.6898">
        <ele>226.6015625</ele>
      </trkpt>
      <trkpt lat="45.8256" lon="0.68985">
        <ele>226.65234375</ele>
      </trkpt>
      <trkpt lat="45.82559" lon="0.68993">
        <ele>226.9140625</ele>
      </trkpt>
      <trkpt lat="45.82558" lon="0.69001">
        <ele>227.3125</ele>
      </trkpt>
      <trkpt lat="45.82556" lon="0.6901">
        <ele>227.62109375</ele>
      </trkpt>
      <trkpt lat="45.82553" lon="0.6903">
        <ele>227.671875</ele>
      </trkpt>
      <trkpt lat="45.82551" lon="0.69038">
        <ele>227.62890625</ele>
      </trkpt>
      <trkpt lat="45.82546" lon="0.69051">
        <ele>227.2890625</ele>
      </trkpt>
      <trkpt lat="45.82543" lon="0.69056">
        <ele>227.08984375</ele>
      </trkpt>
      <trkpt lat="45.82539" lon="0.69065">
        <ele>226.83984375</ele>
      </trkpt>
      <trkpt lat="45.82529" lon="0.69084">
        <ele>226.45703125</ele>
      </trkpt>
      <trkpt lat="45.82523" lon="0.69096">
        <ele>226.34375</ele>
      </trkpt>
      <trkpt lat="45.82521" lon="0.69101">
        <ele>226.31640625</ele>
      </trkpt>
      <trkpt lat="45.82517" lon="0.69108">
        <ele>226.28515625</ele>
      </trkpt>
      <trkpt lat="45.82506" lon="0.69129">
        <ele>226.23828125</ele>
      </trkpt>
      <trkpt lat="45.825" lon="0.6914">
        <ele>226.24609375</ele>
      </trkpt>
      <trkpt lat="45.82494" lon="0.69147">
        <ele>226.1796875</ele>
      </trkpt>
      <trkpt lat="45.82487" lon="0.69155">
        <ele>226.14453125</ele>
      </trkpt>
      <trkpt lat="45.8248" lon="0.69163">
        <ele>226.0546875</ele>
      </trkpt>
      <trkpt lat="45.82472" lon="0.69179">
        <ele>226.17578125</ele>
      </trkpt>
      <trkpt lat="45.82467" lon="0.6919">
        <ele>226.296875</ele>
      </trkpt>
      <trkpt lat="45.82466" lon="0.69198">
        <ele>226.44140625</ele>
      </trkpt>
      <trkpt lat="45.82465" lon="0.69213">
        <ele>226.8046875</ele>
      </trkpt>
      <trkpt lat="45.82464" lon="0.69243">
        <ele>227.55859375</ele>
      </trkpt>
      <trkpt lat="45.82464" lon="0.69275">
        <ele>228.1640625</ele>
      </trkpt>
      <trkpt lat="45.82465" lon="0.69309">
        <ele>228.375</ele>
      </trkpt>
      <trkpt lat="45.82465" lon="0.69335">
        <ele>228.2109375</ele>
      </trkpt>
      <trkpt lat="45.82464" lon="0.69385">
        <ele>228.2109375</ele>
      </trkpt>
      <trkpt lat="45.82465" lon="0.6941">
        <ele>228.26953125</ele>
      </trkpt>
      <trkpt lat="45.82468" lon="0.6942">
        <ele>228.625</ele>
      </trkpt>
      <trkpt lat="45.82473" lon="0.69444">
        <ele>229.17578125</ele>
      </trkpt>
      <trkpt lat="45.82473" lon="0.69454">
        <ele>229.12109375</ele>
      </trkpt>
      <trkpt lat="45.82468" lon="0.69473">
        <ele>228.01953125</ele>
      </trkpt>
      <trkpt lat="45.82466" lon="0.69487">
        <ele>227.25390625</ele>
      </trkpt>
      <trkpt lat="45.82465" lon="0.69502">
        <ele>226.68359375</ele>
      </trkpt>
      <trkpt lat="45.82464" lon="0.69516">
        <ele>226.18359375</ele>
      </trkpt>
      <trkpt lat="45.82464" lon="0.6953">
        <ele>226.0234375</ele>
      </trkpt>
      <trkpt lat="45.82466" lon="0.69541">
        <ele>226.203125</ele>
      </trkpt>
      <trkpt lat="45.82471" lon="0.69553">
        <ele>226.61328125</ele>
      </trkpt>
      <trkpt lat="45.82474" lon="0.69562">
        <ele>226.86328125</ele>
      </trkpt>
      <trkpt lat="45.82482" lon="0.69574">
        <ele>227.37890625</ele>
      </trkpt>
      <trkpt lat="45.82491" lon="0.69586">
        <ele>227.65625</ele>
      </trkpt>
      <trkpt lat="45.82503" lon="0.69602">
        <ele>227.74609375</ele>
      </trkpt>
      <trkpt lat="45.82516" lon="0.69612">
        <ele>228.0703125</ele>
      </trkpt>
      <trkpt lat="45.82529" lon="0.69623">
        <ele>228.3984375</ele>
      </trkpt>
      <trkpt lat="45.82548" lon="0.69631">
        <ele>228.9140625</ele>
      </trkpt>
      <trkpt lat="45.82558" lon="0.69634">
        <ele>229.046875</ele>
      </trkpt>
      <trkpt lat="45.8257" lon="0.69638">
        <ele>229.265625</ele>
      </trkpt>
      <trkpt lat="45.82577" lon="0.69641">
        <ele>229.43359375</ele>
      </trkpt>
      <trkpt lat="45.82581" lon="0.69644">
        <ele>229.515625</ele>
      </trkpt>
      <trkpt lat="45.82584" lon="0.69652">
        <ele>229.5546875</ele>
      </trkpt>
      <trkpt lat="45.82583" lon="0.69672">
        <ele>229.3046875</ele>
      </trkpt>
      <trkpt lat="45.82581" lon="0.6969">
        <ele>229.203125</ele>
      </trkpt>
      <trkpt lat="45.8258" lon="0.69701">
        <ele>229.1953125</ele>
      </trkpt>
      <trkpt lat="45.82581" lon="0.69709">
        <ele>229.28125</ele>
      </trkpt>
      <trkpt lat="45.82589" lon="0.69736">
        <ele>229.734375</ele>
      </trkpt>
      <trkpt lat="45.82591" lon="0.69757">
        <ele>229.828125</ele>
      </trkpt>
      <trkpt lat="45.82592" lon="0.69769">
        <ele>229.87109375</ele>
      </trkpt>
      <trkpt lat="45.82592" lon="0.69772">
        <ele>229.87890625</ele>
      </trkpt>
      <trkpt lat="45.8259" lon="0.69776">
        <ele>229.83984375</ele>
      </trkpt>
      <trkpt lat="45.82588" lon="0.69779">
        <ele>229.80078125</ele>
      </trkpt>
      <trkpt lat="45.82584" lon="0.6978">
        <ele>229.73046875</ele>
      </trkpt>
      <trkpt lat="45.8258" lon="0.69778">
        <ele>229.62109375</ele>
      </trkpt>
      <trkpt lat="45.82573" lon="0.69774">
        <ele>229.44921875</ele>
      </trkpt>
      <trkpt lat="45.82556" lon="0.69763">
        <ele>228.89453125</ele>
      </trkpt>
      <trkpt lat="45.82521" lon="0.69745">
        <ele>227.26953125</ele>
      </trkpt>
      <trkpt lat="45.82485" lon="0.69724">
        <ele>224.77734375</ele>
      </trkpt>
      <trkpt lat="45.82463" lon="0.69716">
        <ele>224.10546875</ele>
      </trkpt>
      <trkpt lat="45.82454" lon="0.69712">
        <ele>223.7578125</ele>
      </trkpt>
      <trkpt lat="45.82451" lon="0.69712">
        <ele>223.69921875</ele>
      </trkpt>
      <trkpt lat="45.82449" lon="0.69714">
        <ele>223.68359375</ele>
      </trkpt>
      <trkpt lat="45.82445" lon="0.6972">
        <ele>223.78515625</ele>
      </trkpt>
      <trkpt lat="45.82438" lon="0.69744">
        <ele>224.64453125</ele>
      </trkpt>
      <trkpt lat="45.82432" lon="0.69765">
        <ele>225.640625</ele>
      </trkpt>
      <trkpt lat="45.82427" lon="0.69785">
        <ele>226.36328125</ele>
      </trkpt>
      <trkpt lat="45.82424" lon="0.69787">
        <ele>226.1796875</ele>
      </trkpt>
      <trkpt lat="45.82419" lon="0.69787">
        <ele>225.609375</ele>
      </trkpt>
      <trkpt lat="45.82382" lon="0.69778">
        <ele>221.4453125</ele>
      </trkpt>
      <trkpt lat="45.82353" lon="0.69769">
        <ele>221.1640625</ele>
      </trkpt>
      <trkpt lat="45.82333" lon="0.69762">
        <ele>221.61328125</ele>
      </trkpt>
      <trkpt lat="45.82326" lon="0.6976">
        <ele>221.796875</ele>
      </trkpt>
      <trkpt lat="45.8232" lon="0.69754">
        <ele>221.9609375</ele>
      </trkpt>
      <trkpt lat="45.82319" lon="0.69749">
        <ele>221.9921875</ele>
      </trkpt>
      <trkpt lat="45.82319" lon="0.69736">
        <ele>221.9921875</ele>
      </trkpt>
      <trkpt lat="45.82331" lon="0.69663">
        <ele>220.7890625</ele>
      </trkpt>
      <trkpt lat="45.82341" lon="0.69607">
        <ele>220.59765625</ele>
      </trkpt>
      <trkpt lat="45.82342" lon="0.69594">
        <ele>220.59375</ele>
      </trkpt>
      <trkpt lat="45.8234" lon="0.69578">
        <ele>220.625</ele>
      </trkpt>
      <trkpt lat="45.82333" lon="0.69561">
        <ele>220.4921875</ele>
      </trkpt>
      <trkpt lat="45.82324" lon="0.69548">
        <ele>220.20703125</ele>
      </trkpt>
      <trkpt lat="45.82313" lon="0.69541">
        <ele>220.15234375</ele>
      </trkpt>
      <trkpt lat="45.82293" lon="0.69527">
        <ele>220.34765625</ele>
      </trkpt>
      <trkpt lat="45.82262" lon="0.69523">
        <ele>221.20703125</ele>
      </trkpt>
      <trkpt lat="45.82251" lon="0.69524">
        <ele>221.4296875</ele>
      </trkpt>
      <trkpt lat="45.8223" lon="0.69528">
        <ele>221.8828125</ele>
      </trkpt>
      <trkpt lat="45.82225" lon="0.69532">
        <ele>222.03515625</ele>
      </trkpt>
      <trkpt lat="45.82213" lon="0.69555">
        <ele>222.66015625</ele>
      </trkpt>
      <trkpt lat="45.82205" lon="0.69568">
        <ele>223.08984375</ele>
      </trkpt>
      <trkpt lat="45.82195" lon="0.69574">
        <ele>223.67578125</ele>
      </trkpt>
      <trkpt lat="45.82187" lon="0.69578">
        <ele>224.0859375</ele>
      </trkpt>
      <trkpt lat="45.82183" lon="0.69573">
        <ele>224.078125</ele>
      </trkpt>
      <trkpt lat="45.82174" lon="0.69555">
        <ele>223.9921875</ele>
      </trkpt>
      <trkpt lat="45.82169" lon="0.69542">
        <ele>223.92578125</ele>
      </trkpt>
      <trkpt lat="45.82164" lon="0.69525">
        <ele>223.796875</ele>
      </trkpt>
      <trkpt lat="45.82164" lon="0.69508">
        <ele>223.55859375</ele>
      </trkpt>
      <trkpt lat="45.82165" lon="0.69487">
        <ele>223.46484375</ele>
      </trkpt>
      <trkpt lat="45.82171" lon="0.69449">
        <ele>223.05859375</ele>
      </trkpt>
      <trkpt lat="45.82178" lon="0.69404">
        <ele>223.0703125</ele>
      </trkpt>
      <trkpt lat="45.82179" lon="0.6939">
        <ele>222.92578125</ele>
      </trkpt>
      <trkpt lat="45.82177" lon="0.69352">
        <ele>222.609375</ele>
      </trkpt>
      <trkpt lat="45.82173" lon="0.69345">
        <ele>222.61328125</ele>
      </trkpt>
      <trkpt lat="45.82167" lon="0.69336">
        <ele>222.68359375</ele>
      </trkpt>
      <trkpt lat="45.82153" lon="0.6932">
        <ele>222.984375</ele>
      </trkpt>
      <trkpt lat="45.82149" lon="0.6932">
        <ele>223.1015625</ele>
      </trkpt>
      <trkpt lat="45.82145" lon="0.69323">
        <ele>223.203125</ele>
      </trkpt>
      <trkpt lat="45.82138" lon="0.69338">
        <ele>223.48046875</ele>
      </trkpt>
      <trkpt lat="45.82129" lon="0.69353">
        <ele>223.97265625</ele>
      </trkpt>
      <trkpt lat="45.82116" lon="0.69401">
        <ele>225.31640625</ele>
      </trkpt>
      <trkpt lat="45.82094" lon="0.69461">
        <ele>226.26171875</ele>
      </trkpt>
      <trkpt lat="45.82078" lon="0.69498">
        <ele>228.234375</ele>
      </trkpt>
      <trkpt lat="45.82058" lon="0.69533">
        <ele>229.77734375</ele>
      </trkpt>
      <trkpt lat="45.82038" lon="0.69561">
        <ele>230.98046875</ele>
      </trkpt>
      <trkpt lat="45.82018" lon="0.69589">
        <ele>231.86328125</ele>
      </trkpt>
      <trkpt lat="45.81992" lon="0.69616">
        <ele>232.796875</ele>
      </trkpt>
      <trkpt lat="45.81974" lon="0.69637">
        <ele>233.8125</ele>
      </trkpt>
      <trkpt lat="45.81953" lon="0.69671">
        <ele>235.140625</ele>
      </trkpt>
      <trkpt lat="45.81921" lon="0.69745">
        <ele>236.33984375</ele>
      </trkpt>
      <trkpt lat="45.81884" lon="0.69805">
        <ele>237.83203125</ele>
      </trkpt>
      <trkpt lat="45.8185" lon="0.69854">
        <ele>238.2734375</ele>
      </trkpt>
      <trkpt lat="45.81814" lon="0.69903">
        <ele>239.8359375</ele>
      </trkpt>
      <trkpt lat="45.81808" lon="0.69943">
        <ele>240.3359375</ele>
      </trkpt>
      <trkpt lat="45.81779" lon="0.70037">
        <ele>240.578125</ele>
      </trkpt>
      <trkpt lat="45.81753" lon="0.70111">
        <ele>241.515625</ele>
      </trkpt>
      <trkpt lat="45.8174" lon="0.70142">
        <ele>241.87890625</ele>
      </trkpt>
      <trkpt lat="45.81718" lon="0.70171">
        <ele>242.01953125</ele>
      </trkpt>
      <trkpt lat="45.81683" lon="0.70206">
        <ele>242.95703125</ele>
      </trkpt>
      <trkpt lat="45.81632" lon="0.70115">
        <ele>239.72265625</ele>
      </trkpt>
      <trkpt lat="45.81617" lon="0.70097">
        <ele>239.34375</ele>
      </trkpt>
      <trkpt lat="45.81603" lon="0.70099">
        <ele>239.5</ele>
      </trkpt>
      <trkpt lat="45.81576" lon="0.70107">
        <ele>240.06640625</ele>
      </trkpt>
      <trkpt lat="45.81524" lon="0.70113">
        <ele>241.375</ele>
      </trkpt>
      <trkpt lat="45.81488" lon="0.70111">
        <ele>242.48046875</ele>
      </trkpt>
      <trkpt lat="45.81434" lon="0.70062">
        <ele>242.66015625</ele>
      </trkpt>
      <trkpt lat="45.81414" lon="0.70039">
        <ele>242.078125</ele>
      </trkpt>
      <trkpt lat="45.81397" lon="0.7002">
        <ele>241.33984375</ele>
      </trkpt>
      <trkpt lat="45.81375" lon="0.69997">
        <ele>240.42578125</ele>
      </trkpt>
      <trkpt lat="45.8137" lon="0.6999">
        <ele>240.26953125</ele>
      </trkpt>
      <trkpt lat="45.81364" lon="0.69978">
        <ele>239.92578125</ele>
      </trkpt>
      <trkpt lat="45.81358" lon="0.69963">
        <ele>239.50390625</ele>
      </trkpt>
      <trkpt lat="45.81354" lon="0.69943">
        <ele>238.859375</ele>
      </trkpt>
      <trkpt lat="45.8135" lon="0.69935">
        <ele>238.640625</ele>
      </trkpt>
      <trkpt lat="45.81346" lon="0.69928">
        <ele>238.46875</ele>
      </trkpt>
      <trkpt lat="45.8134" lon="0.69927">
        <ele>238.546875</ele>
      </trkpt>
      <trkpt lat="45.81335" lon="0.69929">
        <ele>238.71484375</ele>
      </trkpt>
      <trkpt lat="45.81284" lon="0.69994">
        <ele>241.734375</ele>
      </trkpt>
      <trkpt lat="45.81234" lon="0.70066">
        <ele>243.84375</ele>
      </trkpt>
      <trkpt lat="45.8121" lon="0.701">
        <ele>244.15625</ele>
      </trkpt>
      <trkpt lat="45.81204" lon="0.70107">
        <ele>244.1875</ele>
      </trkpt>
      <trkpt lat="45.81202" lon="0.70108">
        <ele>244.140625</ele>
      </trkpt>
      <trkpt lat="45.81199" lon="0.7011">
        <ele>244.0625</ele>
      </trkpt>
      <trkpt lat="45.81198" lon="0.70109">
        <ele>243.9765625</ele>
      </trkpt>
      <trkpt lat="45.81195" lon="0.70108">
        <ele>243.8203125</ele>
      </trkpt>
      <trkpt lat="45.81191" lon="0.70103">
        <ele>243.51171875</ele>
      </trkpt>
      <trkpt lat="45.81182" lon="0.70086">
        <ele>242.84375</ele>
      </trkpt>
      <trkpt lat="45.81172" lon="0.70068">
        <ele>242.33203125</ele>
      </trkpt>
      <trkpt lat="45.81164" lon="0.70054">
        <ele>241.93359375</ele>
      </trkpt>
      <trkpt lat="45.81156" lon="0.70037">
        <ele>241.4921875</ele>
      </trkpt>
      <trkpt lat="45.81152" lon="0.70028">
        <ele>241.19140625</ele>
      </trkpt>
      <trkpt lat="45.81147" lon="0.70014">
        <ele>240.4609375</ele>
      </trkpt>
      <trkpt lat="45.81145" lon="0.70008">
        <ele>239.9140625</ele>
      </trkpt>
      <trkpt lat="45.81143" lon="0.69998">
        <ele>239.02734375</ele>
      </trkpt>
      <trkpt lat="45.81141" lon="0.69982">
        <ele>237.7578125</ele>
      </trkpt>
      <trkpt lat="45.81141" lon="0.69966">
        <ele>236.68359375</ele>
      </trkpt>
      <trkpt lat="45.8114" lon="0.69944">
        <ele>235.38671875</ele>
      </trkpt>
      <trkpt lat="45.8114" lon="0.69925">
        <ele>234.453125</ele>
      </trkpt>
      <trkpt lat="45.8114" lon="0.69908">
        <ele>233.59375</ele>
      </trkpt>
      <trkpt lat="45.81139" lon="0.69895">
        <ele>232.890625</ele>
      </trkpt>
      <trkpt lat="45.81138" lon="0.69884">
        <ele>232.203125</ele>
      </trkpt>
      <trkpt lat="45.81137" lon="0.69877">
        <ele>231.765625</ele>
      </trkpt>
      <trkpt lat="45.81135" lon="0.69874">
        <ele>231.5390625</ele>
      </trkpt>
      <trkpt lat="45.81133" lon="0.69874">
        <ele>231.43359375</ele>
      </trkpt>
      <trkpt lat="45.81128" lon="0.69877">
        <ele>231.2890625</ele>
      </trkpt>
      <trkpt lat="45.8111" lon="0.69885">
        <ele>230.77734375</ele>
      </trkpt>
      <trkpt lat="45.811" lon="0.69883">
        <ele>230.11328125</ele>
      </trkpt>
      <trkpt lat="45.81096" lon="0.69881">
        <ele>229.8359375</ele>
      </trkpt>
      <trkpt lat="45.81093" lon="0.69877">
        <ele>229.57421875</ele>
      </trkpt>
      <trkpt lat="45.8109" lon="0.69874">
        <ele>229.3671875</ele>
      </trkpt>
      <trkpt lat="45.81087" lon="0.69869">
        <ele>229.0546875</ele>
      </trkpt>
      <trkpt lat="45.81085" lon="0.69865">
        <ele>228.80859375</ele>
      </trkpt>
      <trkpt lat="45.81083" lon="0.69857">
        <ele>228.33203125</ele>
      </trkpt>
      <trkpt lat="45.8108" lon="0.69845">
        <ele>227.58984375</ele>
      </trkpt>
      <trkpt lat="45.81076" lon="0.6982">
        <ele>225.91015625</ele>
      </trkpt>
      <trkpt lat="45.81073" lon="0.69802">
        <ele>224.69921875</ele>
      </trkpt>
      <trkpt lat="45.8107" lon="0.69794">
        <ele>224.16796875</ele>
      </trkpt>
      <trkpt lat="45.81066" lon="0.69786">
        <ele>223.79296875</ele>
      </trkpt>
      <trkpt lat="45.81056" lon="0.69783">
        <ele>223.5859375</ele>
      </trkpt>
      <trkpt lat="45.81027" lon="0.69769">
        <ele>223.26171875</ele>
      </trkpt>
      <trkpt lat="45.80971" lon="0.69756">
        <ele>223.66015625</ele>
      </trkpt>
      <trkpt lat="45.80961" lon="0.69754">
        <ele>223.63671875</ele>
      </trkpt>
      <trkpt lat="45.80945" lon="0.69751">
        <ele>223.640625</ele>
      </trkpt>
      <trkpt lat="45.80924" lon="0.69756">
        <ele>224.10546875</ele>
      </trkpt>
      <trkpt lat="45.80883" lon="0.69767">
        <ele>224.6953125</ele>
      </trkpt>
      <trkpt lat="45.80871" lon="0.6977">
        <ele>224.8046875</ele>
      </trkpt>
      <trkpt lat="45.80862" lon="0.69775">
        <ele>224.9140625</ele>
      </trkpt>
      <trkpt lat="45.80848" lon="0.69786">
        <ele>225.2578125</ele>
      </trkpt>
      <trkpt lat="45.80837" lon="0.69796">
        <ele>225.58203125</ele>
      </trkpt>
      <trkpt lat="45.8082" lon="0.6981">
        <ele>226.0625</ele>
      </trkpt>
      <trkpt lat="45.80811" lon="0.69822">
        <ele>226.07421875</ele>
      </trkpt>
      <trkpt lat="45.80805" lon="0.69828">
        <ele>226.10546875</ele>
      </trkpt>
      <trkpt lat="45.80802" lon="0.69832">
        <ele>226.1328125</ele>
      </trkpt>
      <trkpt lat="45.80793" lon="0.69842">
        <ele>226.25390625</ele>
      </trkpt>
      <trkpt lat="45.80783" lon="0.69852">
        <ele>226.3828125</ele>
      </trkpt>
      <trkpt lat="45.80752" lon="0.69874">
        <ele>226.25390625</ele>
      </trkpt>
      <trkpt lat="45.80716" lon="0.69903">
        <ele>226.4296875</ele>
      </trkpt>
      <trkpt lat="45.8069" lon="0.69925">
        <ele>226.01171875</ele>
      </trkpt>
      <trkpt lat="45.8067" lon="0.69941">
        <ele>225.765625</ele>
      </trkpt>
      <trkpt lat="45.80646" lon="0.69957">
        <ele>225.5546875</ele>
      </trkpt>
      <trkpt lat="45.80627" lon="0.69969">
        <ele>225.234375</ele>
      </trkpt>
      <trkpt lat="45.80612" lon="0.69979">
        <ele>224.9140625</ele>
      </trkpt>
      <trkpt lat="45.80598" lon="0.69987">
        <ele>224.60546875</ele>
      </trkpt>
      <trkpt lat="45.80586" lon="0.69994">
        <ele>224.45703125</ele>
      </trkpt>
      <trkpt lat="45.80573" lon="0.69999">
        <ele>224.109375</ele>
      </trkpt>
      <trkpt lat="45.80561" lon="0.70005">
        <ele>223.7421875</ele>
      </trkpt>
      <trkpt lat="45.80556" lon="0.70006">
        <ele>223.57421875</ele>
      </trkpt>
      <trkpt lat="45.80554" lon="0.7001">
        <ele>223.55078125</ele>
      </trkpt>
      <trkpt lat="45.80552" lon="0.70013">
        <ele>223.51171875</ele>
      </trkpt>
      <trkpt lat="45.80551" lon="0.70019">
        <ele>223.56640625</ele>
      </trkpt>
      <trkpt lat="45.8055" lon="0.70032">
        <ele>223.76171875</ele>
      </trkpt>
      <trkpt lat="45.80547" lon="0.70067">
        <ele>224.203125</ele>
      </trkpt>
      <trkpt lat="45.80546" lon="0.7008">
        <ele>224.2109375</ele>
      </trkpt>
      <trkpt lat="45.80547" lon="0.70084">
        <ele>224.26953125</ele>
      </trkpt>
      <trkpt lat="45.80549" lon="0.70087">
        <ele>224.4140625</ele>
      </trkpt>
      <trkpt lat="45.80553" lon="0.70091">
        <ele>224.62109375</ele>
      </trkpt>
      <trkpt lat="45.80561" lon="0.70096">
        <ele>225.14453125</ele>
      </trkpt>
      <trkpt lat="45.80591" lon="0.7011">
        <ele>227.30078125</ele>
      </trkpt>
      <trkpt lat="45.80612" lon="0.7012">
        <ele>228.6953125</ele>
      </trkpt>
      <trkpt lat="45.80614" lon="0.70149">
        <ele>229.2890625</ele>
      </trkpt>
      <trkpt lat="45.80612" lon="0.70156">
        <ele>229.328125</ele>
      </trkpt>
      <trkpt lat="45.8061" lon="0.70161">
        <ele>229.3046875</ele>
      </trkpt>
      <trkpt lat="45.80605" lon="0.70168">
        <ele>229.16015625</ele>
      </trkpt>
      <trkpt lat="45.80599" lon="0.70173">
        <ele>228.9296875</ele>
      </trkpt>
      <trkpt lat="45.80594" lon="0.70177">
        <ele>228.8046875</ele>
      </trkpt>
      <trkpt lat="45.80589" lon="0.7018">
        <ele>228.68359375</ele>
      </trkpt>
      <trkpt lat="45.80583" lon="0.70181">
        <ele>228.515625</ele>
      </trkpt>
      <trkpt lat="45.80576" lon="0.7018">
        <ele>228.234375</ele>
      </trkpt>
      <trkpt lat="45.80567" lon="0.70179">
        <ele>227.88671875</ele>
      </trkpt>
      <trkpt lat="45.80553" lon="0.70182">
        <ele>227.484375</ele>
      </trkpt>
      <trkpt lat="45.80485" lon="0.70203">
        <ele>225.64453125</ele>
      </trkpt>
      <trkpt lat="45.8048" lon="0.70206">
        <ele>225.625</ele>
      </trkpt>
      <trkpt lat="45.80477" lon="0.70209">
        <ele>225.640625</ele>
      </trkpt>
      <trkpt lat="45.80472" lon="0.70216">
        <ele>225.91015625</ele>
      </trkpt>
      <trkpt lat="45.80454" lon="0.70241">
        <ele>226.46484375</ele>
      </trkpt>
      <trkpt lat="45.80446" lon="0.70253">
        <ele>226.51953125</ele>
      </trkpt>
      <trkpt lat="45.80433" lon="0.70272">
        <ele>226.4609375</ele>
      </trkpt>
      <trkpt lat="45.8042" lon="0.70294">
        <ele>226.26953125</ele>
      </trkpt>
      <trkpt lat="45.80416" lon="0.70304">
        <ele>226.34765625</ele>
      </trkpt>
      <trkpt lat="45.80416" lon="0.70314">
        <ele>226.59375</ele>
      </trkpt>
      <trkpt lat="45.80413" lon="0.70351">
        <ele>227.375</ele>
      </trkpt>
      <trkpt lat="45.80414" lon="0.70367">
        <ele>227.6484375</ele>
      </trkpt>
      <trkpt lat="45.80414" lon="0.70395">
        <ele>227.94921875</ele>
      </trkpt>
      <trkpt lat="45.80411" lon="0.70405">
        <ele>227.97265625</ele>
      </trkpt>
      <trkpt lat="45.80406" lon="0.70421">
        <ele>228.00390625</ele>
      </trkpt>
      <trkpt lat="45.80402" lon="0.70432">
        <ele>227.94921875</ele>
      </trkpt>
      <trkpt lat="45.80397" lon="0.70441">
        <ele>227.84765625</ele>
      </trkpt>
      <trkpt lat="45.80392" lon="0.70451">
        <ele>227.74609375</ele>
      </trkpt>
      <trkpt lat="45.80388" lon="0.70459">
        <ele>227.69140625</ele>
      </trkpt>
      <trkpt lat="45.80383" lon="0.70464">
        <ele>227.58984375</ele>
      </trkpt>
      <trkpt lat="45.80377" lon="0.70469">
        <ele>227.4609375</ele>
      </trkpt>
      <trkpt lat="45.80369" lon="0.70476">
        <ele>227.28515625</ele>
      </trkpt>
      <trkpt lat="45.80356" lon="0.70489">
        <ele>227.06640625</ele>
      </trkpt>
      <trkpt lat="45.80315" lon="0.70558">
        <ele>227.26171875</ele>
      </trkpt>
      <trkpt lat="45.80312" lon="0.70576">
        <ele>227.359375</ele>
      </trkpt>
      <trkpt lat="45.80313" lon="0.70594">
        <ele>227.3984375</ele>
      </trkpt>
      <trkpt lat="45.80323" lon="0.70625">
        <ele>228.140625</ele>
      </trkpt>
      <trkpt lat="45.80326" lon="0.70627">
        <ele>228.3203125</ele>
      </trkpt>
      <trkpt lat="45.80331" lon="0.70625">
        <ele>228.58203125</ele>
      </trkpt>
      <trkpt lat="45.80336" lon="0.70625">
        <ele>228.83203125</ele>
      </trkpt>
      <trkpt lat="45.80339" lon="0.70627">
        <ele>229</ele>
      </trkpt>
      <trkpt lat="45.80341" lon="0.70628">
        <ele>229.15234375</ele>
      </trkpt>
      <trkpt lat="45.80343" lon="0.70628">
        <ele>229.2734375</ele>
      </trkpt>
      <trkpt lat="45.80408" lon="0.70599">
        <ele>232.01953125</ele>
      </trkpt>
      <trkpt lat="45.80473" lon="0.70578">
        <ele>233.83203125</ele>
      </trkpt>
      <trkpt lat="45.80519" lon="0.70582">
        <ele>236.23828125</ele>
      </trkpt>
      <trkpt lat="45.80579" lon="0.70607">
        <ele>239.24609375</ele>
      </trkpt>
      <trkpt lat="45.80646" lon="0.7063">
        <ele>240.9609375</ele>
      </trkpt>
      <trkpt lat="45.80669" lon="0.70641">
        <ele>242.078125</ele>
      </trkpt>
      <trkpt lat="45.80685" lon="0.70647">
        <ele>242.8828125</ele>
      </trkpt>
      <trkpt lat="45.80689" lon="0.7069">
        <ele>243.47265625</ele>
      </trkpt>
      <trkpt lat="45.80696" lon="0.70736">
        <ele>244.546875</ele>
      </trkpt>
      <trkpt lat="45.80706" lon="0.70777">
        <ele>245.6015625</ele>
      </trkpt>
      <trkpt lat="45.80713" lon="0.70799">
        <ele>246.20703125</ele>
      </trkpt>
      <trkpt lat="45.80717" lon="0.70809">
        <ele>246.4375</ele>
      </trkpt>
      <trkpt lat="45.80718" lon="0.70816">
        <ele>246.50390625</ele>
      </trkpt>
      <trkpt lat="45.80719" lon="0.70823">
        <ele>246.51171875</ele>
      </trkpt>
      <trkpt lat="45.80715" lon="0.70841">
        <ele>246.30859375</ele>
      </trkpt>
      <trkpt lat="45.80713" lon="0.7085">
        <ele>246.19921875</ele>
      </trkpt>
      <trkpt lat="45.80706" lon="0.70904">
        <ele>245.72265625</ele>
      </trkpt>
      <trkpt lat="45.80702" lon="0.7093">
        <ele>245.03515625</ele>
      </trkpt>
      <trkpt lat="45.807" lon="0.70939">
        <ele>244.79296875</ele>
      </trkpt>
      <trkpt lat="45.80699" lon="0.70947">
        <ele>244.60546875</ele>
      </trkpt>
      <trkpt lat="45.80697" lon="0.70955">
        <ele>244.37109375</ele>
      </trkpt>
      <trkpt lat="45.80696" lon="0.70965">
        <ele>244.1484375</ele>
      </trkpt>
      <trkpt lat="45.80693" lon="0.70989">
        <ele>243.54296875</ele>
      </trkpt>
      <trkpt lat="45.80689" lon="0.7101">
        <ele>242.94140625</ele>
      </trkpt>
      <trkpt lat="45.80676" lon="0.71075">
        <ele>242.109375</ele>
      </trkpt>
      <trkpt lat="45.80668" lon="0.71115">
        <ele>241.34375</ele>
      </trkpt>
      <trkpt lat="45.80661" lon="0.71135">
        <ele>240.53125</ele>
      </trkpt>
      <trkpt lat="45.8065" lon="0.71155">
        <ele>239.09375</ele>
      </trkpt>
      <trkpt lat="45.80644" lon="0.71161">
        <ele>238.49609375</ele>
      </trkpt>
      <trkpt lat="45.80642" lon="0.71168">
        <ele>237.97265625</ele>
      </trkpt>
      <trkpt lat="45.80642" lon="0.71175">
        <ele>237.59765625</ele>
      </trkpt>
      <trkpt lat="45.80645" lon="0.71188">
        <ele>236.96484375</ele>
      </trkpt>
      <trkpt lat="45.80644" lon="0.71202">
        <ele>235.921875</ele>
      </trkpt>
      <trkpt lat="45.80642" lon="0.71213">
        <ele>235.15234375</ele>
      </trkpt>
      <trkpt lat="45.80636" lon="0.71233">
        <ele>233.765625</ele>
      </trkpt>
      <trkpt lat="45.80627" lon="0.71258">
        <ele>232.23046875</ele>
      </trkpt>
      <trkpt lat="45.80627" lon="0.71274">
        <ele>231.3671875</ele>
      </trkpt>
      <trkpt lat="45.8063" lon="0.71283">
        <ele>230.96484375</ele>
      </trkpt>
      <trkpt lat="45.80647" lon="0.71329">
        <ele>229.39453125</ele>
      </trkpt>
      <trkpt lat="45.80649" lon="0.71338">
        <ele>229.109375</ele>
      </trkpt>
      <trkpt lat="45.80648" lon="0.71354">
        <ele>228.921875</ele>
      </trkpt>
      <trkpt lat="45.80643" lon="0.71358">
        <ele>228.70703125</ele>
      </trkpt>
      <trkpt lat="45.80627" lon="0.71378">
        <ele>227.78125</ele>
      </trkpt>
      <trkpt lat="45.80619" lon="0.71389">
        <ele>227.05078125</ele>
      </trkpt>
      <trkpt lat="45.80616" lon="0.71396">
        <ele>226.7578125</ele>
      </trkpt>
      <trkpt lat="45.80616" lon="0.71399">
        <ele>226.671875</ele>
      </trkpt>
      <trkpt lat="45.80617" lon="0.71406">
        <ele>226.75390625</ele>
      </trkpt>
      <trkpt lat="45.80619" lon="0.71432">
        <ele>227.22265625</ele>
      </trkpt>
      <trkpt lat="45.80624" lon="0.71459">
        <ele>227.87890625</ele>
      </trkpt>
      <trkpt lat="45.80638" lon="0.71558">
        <ele>228.76953125</ele>
      </trkpt>
      <trkpt lat="45.80644" lon="0.71615">
        <ele>228.26171875</ele>
      </trkpt>
      <trkpt lat="45.80648" lon="0.7164">
        <ele>228.16796875</ele>
      </trkpt>
      <trkpt lat="45.80649" lon="0.71648">
        <ele>228.13671875</ele>
      </trkpt>
      <trkpt lat="45.80649" lon="0.71671">
        <ele>227.70703125</ele>
      </trkpt>
      <trkpt lat="45.8065" lon="0.71679">
        <ele>227.67578125</ele>
      </trkpt>
      <trkpt lat="45.80654" lon="0.71694">
        <ele>227.48046875</ele>
      </trkpt>
      <trkpt lat="45.80657" lon="0.71703">
        <ele>227.46875</ele>
      </trkpt>
      <trkpt lat="45.80659" lon="0.71711">
        <ele>227.30078125</ele>
      </trkpt>
      <trkpt lat="45.80658" lon="0.71717">
        <ele>227.0546875</ele>
      </trkpt>
      <trkpt lat="45.80665" lon="0.71736">
        <ele>227</ele>
      </trkpt>
      <trkpt lat="45.80673" lon="0.71743">
        <ele>227.51953125</ele>
      </trkpt>
      <trkpt lat="45.80674" lon="0.71744">
        <ele>227.61328125</ele>
      </trkpt>
      <trkpt lat="45.80681" lon="0.71746">
        <ele>228.12890625</ele>
      </trkpt>
      <trkpt lat="45.80698" lon="0.71745">
        <ele>229.6171875</ele>
      </trkpt>
      <trkpt lat="45.80708" lon="0.7175">
        <ele>230.36328125</ele>
      </trkpt>
      <trkpt lat="45.80728" lon="0.71764">
        <ele>230.92578125</ele>
      </trkpt>
      <trkpt lat="45.80747" lon="0.71781">
        <ele>230.90234375</ele>
      </trkpt>
      <trkpt lat="45.80754" lon="0.71787">
        <ele>230.7890625</ele>
      </trkpt>
      <trkpt lat="45.80765" lon="0.71799">
        <ele>230.67578125</ele>
      </trkpt>
      <trkpt lat="45.80769" lon="0.71813">
        <ele>230.3046875</ele>
      </trkpt>
      <trkpt lat="45.80767" lon="0.7184">
        <ele>229.25</ele>
      </trkpt>
      <trkpt lat="45.80767" lon="0.71861">
        <ele>229.9296875</ele>
      </trkpt>
      <trkpt lat="45.80766" lon="0.71867">
        <ele>230.19140625</ele>
      </trkpt>
      <trkpt lat="45.80763" lon="0.71872">
        <ele>230.4296875</ele>
      </trkpt>
      <trkpt lat="45.80773" lon="0.71876">
        <ele>230.86328125</ele>
      </trkpt>
      <trkpt lat="45.80785" lon="0.7188">
        <ele>231.41015625</ele>
      </trkpt>
      <trkpt lat="45.80821" lon="0.71886">
        <ele>232.5</ele>
      </trkpt>
      <trkpt lat="45.80854" lon="0.71893">
        <ele>233.5078125</ele>
      </trkpt>
      <trkpt lat="45.8089" lon="0.71902">
        <ele>234.5859375</ele>
      </trkpt>
      <trkpt lat="45.80926" lon="0.71911">
        <ele>236.01953125</ele>
      </trkpt>
      <trkpt lat="45.80943" lon="0.71916">
        <ele>236.69921875</ele>
      </trkpt>
      <trkpt lat="45.80942" lon="0.71871">
        <ele>237.046875</ele>
      </trkpt>
      <trkpt lat="45.80945" lon="0.7186">
        <ele>237.42578125</ele>
      </trkpt>
      <trkpt lat="45.80947" lon="0.71848">
        <ele>237.7890625</ele>
      </trkpt>
      <trkpt lat="45.80954" lon="0.71832">
        <ele>238.671875</ele>
      </trkpt>
      <trkpt lat="45.80958" lon="0.71822">
        <ele>239.31640625</ele>
      </trkpt>
      <trkpt lat="45.80971" lon="0.71807">
        <ele>240.48828125</ele>
      </trkpt>
      <trkpt lat="45.8098" lon="0.718">
        <ele>241.27734375</ele>
      </trkpt>
      <trkpt lat="45.80988" lon="0.71793">
        <ele>241.9375</ele>
      </trkpt>
      <trkpt lat="45.80993" lon="0.71787">
        <ele>242.3828125</ele>
      </trkpt>
      <trkpt lat="45.80996" lon="0.71779">
        <ele>242.93359375</ele>
      </trkpt>
      <trkpt lat="45.80999" lon="0.7177">
        <ele>243.4765625</ele>
      </trkpt>
      <trkpt lat="45.80999" lon="0.71765">
        <ele>243.77734375</ele>
      </trkpt>
      <trkpt lat="45.80998" lon="0.7176">
        <ele>243.99609375</ele>
      </trkpt>
      <trkpt lat="45.81004" lon="0.71764">
        <ele>243.9921875</ele>
      </trkpt>
      <trkpt lat="45.81017" lon="0.71771">
        <ele>244.12109375</ele>
      </trkpt>
      <trkpt lat="45.81027" lon="0.7177">
        <ele>244.5</ele>
      </trkpt>
      <trkpt lat="45.81035" lon="0.71763">
        <ele>245.2109375</ele>
      </trkpt>
      <trkpt lat="45.81062" lon="0.71742">
        <ele>246.94921875</ele>
      </trkpt>
      <trkpt lat="45.8109" lon="0.7172">
        <ele>248.81640625</ele>
      </trkpt>
      <trkpt lat="45.81115" lon="0.71702">
        <ele>250.62109375</ele>
      </trkpt>
      <trkpt lat="45.81156" lon="0.71673">
        <ele>253.4140625</ele>
      </trkpt>
      <trkpt lat="45.81191" lon="0.71651">
        <ele>255.33984375</ele>
      </trkpt>
      <trkpt lat="45.81223" lon="0.7163">
        <ele>257.6640625</ele>
      </trkpt>
      <trkpt lat="45.81258" lon="0.71608">
        <ele>259.671875</ele>
      </trkpt>
      <trkpt lat="45.81294" lon="0.71592">
        <ele>261.23046875</ele>
      </trkpt>
      <trkpt lat="45.81333" lon="0.71573">
        <ele>263.421875</ele>
      </trkpt>
      <trkpt lat="45.81363" lon="0.7156">
        <ele>265.59765625</ele>
      </trkpt>
      <trkpt lat="45.81387" lon="0.7155">
        <ele>266.98046875</ele>
      </trkpt>
      <trkpt lat="45.81404" lon="0.71545">
        <ele>267.62109375</ele>
      </trkpt>
      <trkpt lat="45.81406" lon="0.71545">
        <ele>267.6875</ele>
      </trkpt>
      <trkpt lat="45.81416" lon="0.71563">
        <ele>267.5703125</ele>
      </trkpt>
      <trkpt lat="45.8142" lon="0.71577">
        <ele>267.2421875</ele>
      </trkpt>
      <trkpt lat="45.81438" lon="0.71624">
        <ele>266.390625</ele>
      </trkpt>
      <trkpt lat="45.81455" lon="0.71666">
        <ele>266.203125</ele>
      </trkpt>
      <trkpt lat="45.81462" lon="0.71677">
        <ele>266.16796875</ele>
      </trkpt>
      <trkpt lat="45.81468" lon="0.71677">
        <ele>266.3828125</ele>
      </trkpt>
      <trkpt lat="45.81475" lon="0.71675">
        <ele>266.6953125</ele>
      </trkpt>
      <trkpt lat="45.81508" lon="0.71655">
        <ele>268.46484375</ele>
      </trkpt>
      <trkpt lat="45.81545" lon="0.71634">
        <ele>269.859375</ele>
      </trkpt>
      <trkpt lat="45.81585" lon="0.71606">
        <ele>270.83984375</ele>
      </trkpt>
      <trkpt lat="45.81622" lon="0.71584">
        <ele>271</ele>
      </trkpt>
      <trkpt lat="45.81639" lon="0.71577">
        <ele>271</ele>
      </trkpt>
      <trkpt lat="45.81647" lon="0.71577">
        <ele>271</ele>
      </trkpt>
      <trkpt lat="45.81655" lon="0.71581">
        <ele>270.95703125</ele>
      </trkpt>
      <trkpt lat="45.81663" lon="0.71588">
        <ele>270.81640625</ele>
      </trkpt>
      <trkpt lat="45.81671" lon="0.71598">
        <ele>270.6796875</ele>
      </trkpt>
      <trkpt lat="45.81693" lon="0.71629">
        <ele>270.24609375</ele>
      </trkpt>
      <trkpt lat="45.81703" lon="0.71635">
        <ele>270.08203125</ele>
      </trkpt>
      <trkpt lat="45.81712" lon="0.71637">
        <ele>270</ele>
      </trkpt>
      <trkpt lat="45.81721" lon="0.71634">
        <ele>270</ele>
      </trkpt>
      <trkpt lat="45.81728" lon="0.71627">
        <ele>270</ele>
      </trkpt>
      <trkpt lat="45.81735" lon="0.71619">
        <ele>269.96875</ele>
      </trkpt>
      <trkpt lat="45.81761" lon="0.71596">
        <ele>269.53125</ele>
      </trkpt>
      <trkpt lat="45.8178" lon="0.71591">
        <ele>269.70703125</ele>
      </trkpt>
      <trkpt lat="45.81817" lon="0.716">
        <ele>270.5390625</ele>
      </trkpt>
      <trkpt lat="45.8184" lon="0.71604">
        <ele>270.6640625</ele>
      </trkpt>
      <trkpt lat="45.81874" lon="0.71611">
        <ele>270.78125</ele>
      </trkpt>
      <trkpt lat="45.81907" lon="0.71617">
        <ele>270.8984375</ele>
      </trkpt>
      <trkpt lat="45.81929" lon="0.71622">
        <ele>270.98828125</ele>
      </trkpt>
      <trkpt lat="45.81943" lon="0.71625">
        <ele>270.33984375</ele>
      </trkpt>
      <trkpt lat="45.81978" lon="0.71624">
        <ele>268.47265625</ele>
      </trkpt>
      <trkpt lat="45.82001" lon="0.71624">
        <ele>267.2265625</ele>
      </trkpt>
      <trkpt lat="45.82037" lon="0.71623">
        <ele>265.2421875</ele>
      </trkpt>
      <trkpt lat="45.82065" lon="0.71617">
        <ele>263.61328125</ele>
      </trkpt>
      <trkpt lat="45.82107" lon="0.71612">
        <ele>261.4609375</ele>
      </trkpt>
      <trkpt lat="45.82113" lon="0.71612">
        <ele>261.21484375</ele>
      </trkpt>
      <trkpt lat="45.82162" lon="0.71602">
        <ele>259.44921875</ele>
      </trkpt>
      <trkpt lat="45.8218" lon="0.71606">
        <ele>259.1875</ele>
      </trkpt>
      <trkpt lat="45.82203" lon="0.71608">
        <ele>258.8203125</ele>
      </trkpt>
      <trkpt lat="45.82224" lon="0.71606">
        <ele>258.41796875</ele>
      </trkpt>
      <trkpt lat="45.82243" lon="0.71612">
        <ele>258.17578125</ele>
      </trkpt>
      <trkpt lat="45.82256" lon="0.71622">
        <ele>258.1328125</ele>
      </trkpt>
      <trkpt lat="45.82298" lon="0.71646">
        <ele>257.1796875</ele>
      </trkpt>
      <trkpt lat="45.82319" lon="0.71648">
        <ele>256.46484375</ele>
      </trkpt>
      <trkpt lat="45.8237" lon="0.71644">
        <ele>255.109375</ele>
      </trkpt>
      <trkpt lat="45.82413" lon="0.71638">
        <ele>253.60546875</ele>
      </trkpt>
      <trkpt lat="45.82457" lon="0.71643">
        <ele>252.51953125</ele>
      </trkpt>
      <trkpt lat="45.82503" lon="0.71651">
        <ele>251.6953125</ele>
      </trkpt>
      <trkpt lat="45.82544" lon="0.71651">
        <ele>250.9296875</ele>
      </trkpt>
      <trkpt lat="45.82594" lon="0.71645">
        <ele>249.4921875</ele>
      </trkpt>
      <trkpt lat="45.82639" lon="0.7163">
        <ele>249.03125</ele>
      </trkpt>
      <trkpt lat="45.82669" lon="0.71625">
        <ele>248.41796875</ele>
      </trkpt>
      <trkpt lat="45.82679" lon="0.71633">
        <ele>248.10546875</ele>
      </trkpt>
      <trkpt lat="45.82672" lon="0.71644">
        <ele>248.421875</ele>
      </trkpt>
      <trkpt lat="45.82647" lon="0.71675">
        <ele>249.0859375</ele>
      </trkpt>
      <trkpt lat="45.82628" lon="0.71701">
        <ele>249.4375</ele>
      </trkpt>
      <trkpt lat="45.82599" lon="0.71741">
        <ele>249.94921875</ele>
      </trkpt>
      <trkpt lat="45.82578" lon="0.71774">
        <ele>250.5859375</ele>
      </trkpt>
      <trkpt lat="45.82568" lon="0.71789">
        <ele>251.01953125</ele>
      </trkpt>
      <trkpt lat="45.82532" lon="0.71833">
        <ele>251.21484375</ele>
      </trkpt>
      <trkpt lat="45.82522" lon="0.71842">
        <ele>251.05859375</ele>
      </trkpt>
      <trkpt lat="45.82483" lon="0.71885">
        <ele>250.37109375</ele>
      </trkpt>
      <trkpt lat="45.82461" lon="0.71905">
        <ele>250.7578125</ele>
      </trkpt>
      <trkpt lat="45.82437" lon="0.71926">
        <ele>251.2421875</ele>
      </trkpt>
      <trkpt lat="45.82391" lon="0.7196">
        <ele>251.58984375</ele>
      </trkpt>
      <trkpt lat="45.82368" lon="0.71976">
        <ele>251.46875</ele>
      </trkpt>
      <trkpt lat="45.82337" lon="0.72005">
        <ele>251.515625</ele>
      </trkpt>
      <trkpt lat="45.82306" lon="0.72039">
        <ele>251.87109375</ele>
      </trkpt>
      <trkpt lat="45.8228" lon="0.72064">
        <ele>251.796875</ele>
      </trkpt>
      <trkpt lat="45.82265" lon="0.72092">
        <ele>251.53515625</ele>
      </trkpt>
      <trkpt lat="45.82258" lon="0.72148">
        <ele>252.5625</ele>
      </trkpt>
      <trkpt lat="45.82252" lon="0.72169">
        <ele>253.80859375</ele>
      </trkpt>
      <trkpt lat="45.82236" lon="0.72188">
        <ele>255.10546875</ele>
      </trkpt>
      <trkpt lat="45.82219" lon="0.72211">
        <ele>256.68359375</ele>
      </trkpt>
      <trkpt lat="45.822" lon="0.72235">
        <ele>258.1953125</ele>
      </trkpt>
      <trkpt lat="45.82188" lon="0.72253">
        <ele>259.14453125</ele>
      </trkpt>
      <trkpt lat="45.82174" lon="0.72272">
        <ele>259.83984375</ele>
      </trkpt>
      <trkpt lat="45.82159" lon="0.72292">
        <ele>260.26953125</ele>
      </trkpt>
      <trkpt lat="45.82149" lon="0.72308">
        <ele>261.01171875</ele>
      </trkpt>
      <trkpt lat="45.82136" lon="0.72328">
        <ele>261.98828125</ele>
      </trkpt>
      <trkpt lat="45.82114" lon="0.72358">
        <ele>263.0390625</ele>
      </trkpt>
      <trkpt lat="45.82102" lon="0.7238">
        <ele>263.9921875</ele>
      </trkpt>
      <trkpt lat="45.8209" lon="0.72413">
        <ele>265.5625</ele>
      </trkpt>
      <trkpt lat="45.82087" lon="0.72434">
        <ele>266.30078125</ele>
      </trkpt>
      <trkpt lat="45.821" lon="0.72439">
        <ele>266.50390625</ele>
      </trkpt>
      <trkpt lat="45.82126" lon="0.72459">
        <ele>268.140625</ele>
      </trkpt>
      <trkpt lat="45.82153" lon="0.72482">
        <ele>269.9375</ele>
      </trkpt>
      <trkpt lat="45.82174" lon="0.72502">
        <ele>270.3515625</ele>
      </trkpt>
      <trkpt lat="45.82201" lon="0.72533">
        <ele>270.125</ele>
      </trkpt>
      <trkpt lat="45.82229" lon="0.72556">
        <ele>268.94140625</ele>
      </trkpt>
      <trkpt lat="45.82265" lon="0.72573">
        <ele>266.9765625</ele>
      </trkpt>
      <trkpt lat="45.823" lon="0.72584">
        <ele>266.15625</ele>
      </trkpt>
      <trkpt lat="45.82329" lon="0.72597">
        <ele>265.203125</ele>
      </trkpt>
      <trkpt lat="45.82363" lon="0.72608">
        <ele>264.265625</ele>
      </trkpt>
      <trkpt lat="45.82377" lon="0.72612">
        <ele>263.98046875</ele>
      </trkpt>
      <trkpt lat="45.82405" lon="0.72616">
        <ele>263.87109375</ele>
      </trkpt>
      <trkpt lat="45.82445" lon="0.72608">
        <ele>263.2890625</ele>
      </trkpt>
      <trkpt lat="45.82486" lon="0.72589">
        <ele>262.3984375</ele>
      </trkpt>
      <trkpt lat="45.82531" lon="0.72571">
        <ele>262.0703125</ele>
      </trkpt>
      <trkpt lat="45.82581" lon="0.72561">
        <ele>261.828125</ele>
      </trkpt>
      <trkpt lat="45.82637" lon="0.72552">
        <ele>260.734375</ele>
      </trkpt>
      <trkpt lat="45.82651" lon="0.7254">
        <ele>260.06640625</ele>
      </trkpt>
      <trkpt lat="45.82666" lon="0.72532">
        <ele>259.73046875</ele>
      </trkpt>
      <trkpt lat="45.82692" lon="0.72526">
        <ele>259.53125</ele>
      </trkpt>
      <trkpt lat="45.82734" lon="0.72517">
        <ele>258.2578125</ele>
      </trkpt>
      <trkpt lat="45.82784" lon="0.72506">
        <ele>256.03125</ele>
      </trkpt>
      <trkpt lat="45.82844" lon="0.72506">
        <ele>253.07421875</ele>
      </trkpt>
      <trkpt lat="45.829" lon="0.72515">
        <ele>249.7265625</ele>
      </trkpt>
      <trkpt lat="45.82946" lon="0.72533">
        <ele>248.3203125</ele>
      </trkpt>
      <trkpt lat="45.82984" lon="0.72542">
        <ele>247.6640625</ele>
      </trkpt>
      <trkpt lat="45.82992" lon="0.7254">
        <ele>247.83203125</ele>
      </trkpt>
      <trkpt lat="45.82999" lon="0.72536">
        <ele>247.9609375</ele>
      </trkpt>
      <trkpt lat="45.83005" lon="0.7253">
        <ele>247.96875</ele>
      </trkpt>
      <trkpt lat="45.83011" lon="0.72523">
        <ele>247.92578125</ele>
      </trkpt>
      <trkpt lat="45.83049" lon="0.72484">
        <ele>247.68359375</ele>
      </trkpt>
      <trkpt lat="45.83106" lon="0.72443">
        <ele>246.6015625</ele>
      </trkpt>
      <trkpt lat="45.8316" lon="0.72413">
        <ele>245.98828125</ele>
      </trkpt>
      <trkpt lat="45.83182" lon="0.72398">
        <ele>245.44921875</ele>
      </trkpt>
      <trkpt lat="45.83193" lon="0.72404">
        <ele>245.9296875</ele>
      </trkpt>
      <trkpt lat="45.83201" lon="0.72419">
        <ele>246.93359375</ele>
      </trkpt>
      <trkpt lat="45.83215" lon="0.72481">
        <ele>249.9765625</ele>
      </trkpt>
      <trkpt lat="45.83225" lon="0.7255">
        <ele>252.3984375</ele>
      </trkpt>
      <trkpt lat="45.83227" lon="0.726">
        <ele>253.60546875</ele>
      </trkpt>
      <trkpt lat="45.83242" lon="0.7261">
        <ele>253.7734375</ele>
      </trkpt>
      <trkpt lat="45.83266" lon="0.7263">
        <ele>253.91015625</ele>
      </trkpt>
      <trkpt lat="45.83279" lon="0.72649">
        <ele>253.43359375</ele>
      </trkpt>
      <trkpt lat="45.83273" lon="0.72662">
        <ele>253.62890625</ele>
      </trkpt>
      <trkpt lat="45.83262" lon="0.72673">
        <ele>254</ele>
      </trkpt>
      <trkpt lat="45.83247" lon="0.72692">
        <ele>254.0703125</ele>
      </trkpt>
      <trkpt lat="45.8322" lon="0.72721">
        <ele>254.6015625</ele>
      </trkpt>
      <trkpt lat="45.83205" lon="0.7275">
        <ele>254.71875</ele>
      </trkpt>
      <trkpt lat="45.83202" lon="0.72756">
        <ele>254.63671875</ele>
      </trkpt>
      <trkpt lat="45.832" lon="0.72762">
        <ele>254.5546875</ele>
      </trkpt>
      <trkpt lat="45.83198" lon="0.72769">
        <ele>254.46484375</ele>
      </trkpt>
      <trkpt lat="45.83197" lon="0.72777">
        <ele>254.375</ele>
      </trkpt>
      <trkpt lat="45.83182" lon="0.7285">
        <ele>253.9453125</ele>
      </trkpt>
      <trkpt lat="45.83164" lon="0.72911">
        <ele>253.55078125</ele>
      </trkpt>
      <trkpt lat="45.83144" lon="0.72974">
        <ele>252.95703125</ele>
      </trkpt>
      <trkpt lat="45.83127" lon="0.73047">
        <ele>252.27734375</ele>
      </trkpt>
      <trkpt lat="45.8311" lon="0.73083">
        <ele>252.140625</ele>
      </trkpt>
      <trkpt lat="45.83106" lon="0.73089">
        <ele>252.18359375</ele>
      </trkpt>
      <trkpt lat="45.83069" lon="0.73143">
        <ele>252.05078125</ele>
      </trkpt>
      <trkpt lat="45.83057" lon="0.73171">
        <ele>251.375</ele>
      </trkpt>
      <trkpt lat="45.83047" lon="0.73205">
        <ele>251.1171875</ele>
      </trkpt>
      <trkpt lat="45.83025" lon="0.73257">
        <ele>251.03515625</ele>
      </trkpt>
      <trkpt lat="45.83022" lon="0.73262">
        <ele>250.98046875</ele>
      </trkpt>
      <trkpt lat="45.83019" lon="0.73268">
        <ele>250.9296875</ele>
      </trkpt>
      <trkpt lat="45.82991" lon="0.73322">
        <ele>251.0390625</ele>
      </trkpt>
      <trkpt lat="45.82974" lon="0.73356">
        <ele>251.671875</ele>
      </trkpt>
      <trkpt lat="45.82968" lon="0.73368">
        <ele>252.078125</ele>
      </trkpt>
      <trkpt lat="45.82965" lon="0.73374">
        <ele>252.2890625</ele>
      </trkpt>
      <trkpt lat="45.8295" lon="0.73402">
        <ele>253.62109375</ele>
      </trkpt>
      <trkpt lat="45.82943" lon="0.73426">
        <ele>255.03515625</ele>
      </trkpt>
      <trkpt lat="45.82936" lon="0.73454">
        <ele>256.52734375</ele>
      </trkpt>
      <trkpt lat="45.82929" lon="0.73478">
        <ele>258.30078125</ele>
      </trkpt>
      <trkpt lat="45.82921" lon="0.73501">
        <ele>260.140625</ele>
      </trkpt>
      <trkpt lat="45.82916" lon="0.73519">
        <ele>261.390625</ele>
      </trkpt>
      <trkpt lat="45.82915" lon="0.73524">
        <ele>261.77734375</ele>
      </trkpt>
      <trkpt lat="45.82917" lon="0.73532">
        <ele>262.10546875</ele>
      </trkpt>
      <trkpt lat="45.82918" lon="0.73534">
        <ele>262.09375</ele>
      </trkpt>
      <trkpt lat="45.82924" lon="0.73538">
        <ele>261.91796875</ele>
      </trkpt>
      <trkpt lat="45.82926" lon="0.73541">
        <ele>261.91796875</ele>
      </trkpt>
      <trkpt lat="45.82928" lon="0.73541">
        <ele>261.76171875</ele>
      </trkpt>
      <trkpt lat="45.82931" lon="0.73541">
        <ele>261.58984375</ele>
      </trkpt>
      <trkpt lat="45.82934" lon="0.73544">
        <ele>261.5390625</ele>
      </trkpt>
      <trkpt lat="45.82937" lon="0.73545">
        <ele>261.37890625</ele>
      </trkpt>
      <trkpt lat="45.8294" lon="0.73547">
        <ele>261.3046875</ele>
      </trkpt>
      <trkpt lat="45.82946" lon="0.73554">
        <ele>261.22265625</ele>
      </trkpt>
      <trkpt lat="45.8295" lon="0.73558">
        <ele>261.125</ele>
      </trkpt>
      <trkpt lat="45.82953" lon="0.73563">
        <ele>261.16796875</ele>
      </trkpt>
      <trkpt lat="45.82963" lon="0.73594">
        <ele>261.5546875</ele>
      </trkpt>
      <trkpt lat="45.82969" lon="0.73607">
        <ele>261.32421875</ele>
      </trkpt>
      <trkpt lat="45.82978" lon="0.73618">
        <ele>260.69921875</ele>
      </trkpt>
      <trkpt lat="45.82985" lon="0.7363">
        <ele>260.21875</ele>
      </trkpt>
      <trkpt lat="45.82989" lon="0.73638">
        <ele>259.96875</ele>
      </trkpt>
      <trkpt lat="45.82994" lon="0.73645">
        <ele>259.47265625</ele>
      </trkpt>
      <trkpt lat="45.82999" lon="0.73651">
        <ele>259.03515625</ele>
      </trkpt>
      <trkpt lat="45.83007" lon="0.73652">
        <ele>258.2265625</ele>
      </trkpt>
      <trkpt lat="45.83018" lon="0.73661">
        <ele>256.91796875</ele>
      </trkpt>
      <trkpt lat="45.83032" lon="0.73676">
        <ele>255.17578125</ele>
      </trkpt>
      <trkpt lat="45.83046" lon="0.73695">
        <ele>253.6015625</ele>
      </trkpt>
      <trkpt lat="45.83052" lon="0.73704">
        <ele>253.078125</ele>
      </trkpt>
      <trkpt lat="45.83061" lon="0.73719">
        <ele>252.3125</ele>
      </trkpt>
      <trkpt lat="45.83066" lon="0.73729">
        <ele>251.77734375</ele>
      </trkpt>
      <trkpt lat="45.83074" lon="0.73755">
        <ele>250.5859375</ele>
      </trkpt>
      <trkpt lat="45.83083" lon="0.73784">
        <ele>249.2734375</ele>
      </trkpt>
      <trkpt lat="45.83092" lon="0.73809">
        <ele>247.625</ele>
      </trkpt>
      <trkpt lat="45.83099" lon="0.73831">
        <ele>246.29296875</ele>
      </trkpt>
      <trkpt lat="45.83113" lon="0.73873">
        <ele>243.94140625</ele>
      </trkpt>
      <trkpt lat="45.83133" lon="0.73934">
        <ele>240.328125</ele>
      </trkpt>
      <trkpt lat="45.83146" lon="0.73975">
        <ele>237.75390625</ele>
      </trkpt>
      <trkpt lat="45.8315" lon="0.73991">
        <ele>236.83203125</ele>
      </trkpt>
      <trkpt lat="45.83154" lon="0.73999">
        <ele>236.3046875</ele>
      </trkpt>
      <trkpt lat="45.83155" lon="0.74003">
        <ele>236.0625</ele>
      </trkpt>
      <trkpt lat="45.83156" lon="0.74005">
        <ele>235.90234375</ele>
      </trkpt>
      <trkpt lat="45.8316" lon="0.74002">
        <ele>235.77734375</ele>
      </trkpt>
      <trkpt lat="45.83161" lon="0.74009">
        <ele>235.38671875</ele>
      </trkpt>
      <trkpt lat="45.83159" lon="0.74024">
        <ele>234.95703125</ele>
      </trkpt>
      <trkpt lat="45.83158" lon="0.74036">
        <ele>234.58984375</ele>
      </trkpt>
      <trkpt lat="45.83154" lon="0.74053">
        <ele>234.30078125</ele>
      </trkpt>
      <trkpt lat="45.83152" lon="0.74063">
        <ele>234.1328125</ele>
      </trkpt>
      <trkpt lat="45.83145" lon="0.74083">
        <ele>233.58203125</ele>
      </trkpt>
      <trkpt lat="45.83143" lon="0.74091">
        <ele>233.328125</ele>
      </trkpt>
      <trkpt lat="45.83136" lon="0.74116">
        <ele>232.45703125</ele>
      </trkpt>
      <trkpt lat="45.83126" lon="0.74138">
        <ele>232.1484375</ele>
      </trkpt>
      <trkpt lat="45.83111" lon="0.74168">
        <ele>231.63671875</ele>
      </trkpt>
      <trkpt lat="45.83109" lon="0.74174">
        <ele>231.4609375</ele>
      </trkpt>
      <trkpt lat="45.83103" lon="0.74185">
        <ele>231.21875</ele>
      </trkpt>
      <trkpt lat="45.83094" lon="0.74211">
        <ele>230.37109375</ele>
      </trkpt>
      <trkpt lat="45.83084" lon="0.74248">
        <ele>230.05859375</ele>
      </trkpt>
      <trkpt lat="45.8308" lon="0.74262">
        <ele>230.3046875</ele>
      </trkpt>
      <trkpt lat="45.8308" lon="0.74268">
        <ele>230.33203125</ele>
      </trkpt>
      <trkpt lat="45.8308" lon="0.74272">
        <ele>230.28125</ele>
      </trkpt>
      <trkpt lat="45.83081" lon="0.74275">
        <ele>230.15625</ele>
      </trkpt>
      <trkpt lat="45.83084" lon="0.74278">
        <ele>229.91015625</ele>
      </trkpt>
      <trkpt lat="45.83091" lon="0.74285">
        <ele>229.42578125</ele>
      </trkpt>
      <trkpt lat="45.83097" lon="0.74288">
        <ele>228.97265625</ele>
      </trkpt>
      <trkpt lat="45.83107" lon="0.74295">
        <ele>228.54296875</ele>
      </trkpt>
      <trkpt lat="45.8312" lon="0.74302">
        <ele>227.98046875</ele>
      </trkpt>
      <trkpt lat="45.83127" lon="0.74306">
        <ele>227.65625</ele>
      </trkpt>
      <trkpt lat="45.83136" lon="0.74316">
        <ele>227.3984375</ele>
      </trkpt>
      <trkpt lat="45.83142" lon="0.74323">
        <ele>227.1953125</ele>
      </trkpt>
      <trkpt lat="45.83149" lon="0.74337">
        <ele>227.03515625</ele>
      </trkpt>
      <trkpt lat="45.83155" lon="0.74347">
        <ele>227.0546875</ele>
      </trkpt>
      <trkpt lat="45.83159" lon="0.74354">
        <ele>227.3359375</ele>
      </trkpt>
      <trkpt lat="45.83167" lon="0.7436">
        <ele>227.42578125</ele>
      </trkpt>
      <trkpt lat="45.83172" lon="0.74363">
        <ele>227.453125</ele>
      </trkpt>
      <trkpt lat="45.83181" lon="0.74366">
        <ele>227.36328125</ele>
      </trkpt>
      <trkpt lat="45.83187" lon="0.74367">
        <ele>227.23046875</ele>
      </trkpt>
      <trkpt lat="45.8319" lon="0.74369">
        <ele>227.3046875</ele>
      </trkpt>
      <trkpt lat="45.83198" lon="0.74371">
        <ele>227.234375</ele>
      </trkpt>
      <trkpt lat="45.83207" lon="0.74374">
        <ele>227.203125</ele>
      </trkpt>
      <trkpt lat="45.83224" lon="0.74377">
        <ele>226.92578125</ele>
      </trkpt>
      <trkpt lat="45.83248" lon="0.7438">
        <ele>226.40625</ele>
      </trkpt>
      <trkpt lat="45.83263" lon="0.74382">
        <ele>226.0703125</ele>
      </trkpt>
      <trkpt lat="45.83268" lon="0.74384">
        <ele>226.11328125</ele>
      </trkpt>
      <trkpt lat="45.83275" lon="0.74391">
        <ele>226.35546875</ele>
      </trkpt>
      <trkpt lat="45.83276" lon="0.74389">
        <ele>226.27734375</ele>
      </trkpt>
      <trkpt lat="45.83285" lon="0.74387">
        <ele>226.0390625</ele>
      </trkpt>
      <trkpt lat="45.83293" lon="0.74388">
        <ele>225.98046875</ele>
      </trkpt>
      <trkpt lat="45.83306" lon="0.74391">
        <ele>225.91015625</ele>
      </trkpt>
      <trkpt lat="45.83317" lon="0.74394">
        <ele>225.82421875</ele>
      </trkpt>
      <trkpt lat="45.83328" lon="0.74395">
        <ele>225.67578125</ele>
      </trkpt>
      <trkpt lat="45.83331" lon="0.74394">
        <ele>225.5859375</ele>
      </trkpt>
      <trkpt lat="45.83342" lon="0.74403">
        <ele>225.65234375</ele>
      </trkpt>
      <trkpt lat="45.83344" lon="0.74409">
        <ele>225.72265625</ele>
      </trkpt>
      <trkpt lat="45.83345" lon="0.74424">
        <ele>225.98828125</ele>
      </trkpt>
      <trkpt lat="45.83347" lon="0.74455">
        <ele>226.48046875</ele>
      </trkpt>
      <trkpt lat="45.83346" lon="0.74481">
        <ele>225.77734375</ele>
      </trkpt>
      <trkpt lat="45.83347" lon="0.7451">
        <ele>224.953125</ele>
      </trkpt>
      <trkpt lat="45.83348" lon="0.74516">
        <ele>224.75</ele>
      </trkpt>
      <trkpt lat="45.83354" lon="0.74515">
        <ele>224.34765625</ele>
      </trkpt>
      <trkpt lat="45.83359" lon="0.74514">
        <ele>223.9921875</ele>
      </trkpt>
      <trkpt lat="45.83378" lon="0.74515">
        <ele>222.53515625</ele>
      </trkpt>
      <trkpt lat="45.83387" lon="0.74515">
        <ele>221.703125</ele>
      </trkpt>
      <trkpt lat="45.83394" lon="0.74516">
        <ele>221.1328125</ele>
      </trkpt>
      <trkpt lat="45.83401" lon="0.74516">
        <ele>220.453125</ele>
      </trkpt>
      <trkpt lat="45.83415" lon="0.74517">
        <ele>219.2421875</ele>
      </trkpt>
      <trkpt lat="45.83426" lon="0.74513">
        <ele>218.25</ele>
      </trkpt>
      <trkpt lat="45.83436" lon="0.74509">
        <ele>217.42578125</ele>
      </trkpt>
      <trkpt lat="45.83448" lon="0.74501">
        <ele>216.53125</ele>
      </trkpt>
      <trkpt lat="45.83459" lon="0.74492">
        <ele>215.6328125</ele>
      </trkpt>
      <trkpt lat="45.83473" lon="0.74482">
        <ele>214.3046875</ele>
      </trkpt>
      <trkpt lat="45.83483" lon="0.74474">
        <ele>213.28125</ele>
      </trkpt>
      <trkpt lat="45.83492" lon="0.74464">
        <ele>212.52734375</ele>
      </trkpt>
      <trkpt lat="45.83498" lon="0.74457">
        <ele>212.08203125</ele>
      </trkpt>
      <trkpt lat="45.83506" lon="0.74443">
        <ele>211.71484375</ele>
      </trkpt>
      <trkpt lat="45.83512" lon="0.74428">
        <ele>211.27734375</ele>
      </trkpt>
      <trkpt lat="45.83519" lon="0.74413">
        <ele>210.671875</ele>
      </trkpt>
      <trkpt lat="45.83524" lon="0.744">
        <ele>210.08203125</ele>
      </trkpt>
      <trkpt lat="45.83529" lon="0.74389">
        <ele>209.62109375</ele>
      </trkpt>
      <trkpt lat="45.83532" lon="0.74378">
        <ele>209.40234375</ele>
      </trkpt>
      <trkpt lat="45.83533" lon="0.74372">
        <ele>209.28515625</ele>
      </trkpt>
      <trkpt lat="45.83534" lon="0.74368">
        <ele>209.265625</ele>
      </trkpt>
      <trkpt lat="45.83534" lon="0.74363">
        <ele>209.31640625</ele>
      </trkpt>
      <trkpt lat="45.83534" lon="0.74359">
        <ele>209.34375</ele>
      </trkpt>
      <trkpt lat="45.83536" lon="0.74357">
        <ele>209.23828125</ele>
      </trkpt>
      <trkpt lat="45.83539" lon="0.74357">
        <ele>208.96484375</ele>
      </trkpt>
      <trkpt lat="45.83541" lon="0.74358">
        <ele>208.71484375</ele>
      </trkpt>
      <trkpt lat="45.83544" lon="0.74361">
        <ele>208.57421875</ele>
      </trkpt>
      <trkpt lat="45.83546" lon="0.74364">
        <ele>208.43359375</ele>
      </trkpt>
      <trkpt lat="45.83553" lon="0.74372">
        <ele>208.0625</ele>
      </trkpt>
      <trkpt lat="45.83558" lon="0.74379">
        <ele>207.73046875</ele>
      </trkpt>
      <trkpt lat="45.83564" lon="0.74383">
        <ele>207.47265625</ele>
      </trkpt>
      <trkpt lat="45.83569" lon="0.74386">
        <ele>207.21875</ele>
      </trkpt>
      <trkpt lat="45.83572" lon="0.74386">
        <ele>207.09765625</ele>
      </trkpt>
      <trkpt lat="45.83582" lon="0.74387">
        <ele>206.72265625</ele>
      </trkpt>
      <trkpt lat="45.8359" lon="0.74388">
        <ele>206.43359375</ele>
      </trkpt>
      <trkpt lat="45.83593" lon="0.74388">
        <ele>206.30078125</ele>
      </trkpt>
      <trkpt lat="45.83604" lon="0.74385">
        <ele>206.421875</ele>
      </trkpt>
      <trkpt lat="45.83613" lon="0.7438">
        <ele>206.515625</ele>
      </trkpt>
      <trkpt lat="45.83622" lon="0.74377">
        <ele>206.515625</ele>
      </trkpt>
      <trkpt lat="45.83638" lon="0.74374">
        <ele>206.34765625</ele>
      </trkpt>
      <trkpt lat="45.83654" lon="0.7437">
        <ele>205.890625</ele>
      </trkpt>
      <trkpt lat="45.83676" lon="0.74366">
        <ele>205.28515625</ele>
      </trkpt>
      <trkpt lat="45.837" lon="0.74358">
        <ele>203.703125</ele>
      </trkpt>
      <trkpt lat="45.83727" lon="0.74348">
        <ele>202.50390625</ele>
      </trkpt>
      <trkpt lat="45.83748" lon="0.74338">
        <ele>201.98828125</ele>
      </trkpt>
      <trkpt lat="45.83781" lon="0.74327">
        <ele>200.86328125</ele>
      </trkpt>
      <trkpt lat="45.83807" lon="0.74316">
        <ele>198.8046875</ele>
      </trkpt>
      <trkpt lat="45.83834" lon="0.74305">
        <ele>196.30078125</ele>
      </trkpt>
      <trkpt lat="45.83853" lon="0.74299">
        <ele>194.5625</ele>
      </trkpt>
      <trkpt lat="45.8386" lon="0.74295">
        <ele>193.7265625</ele>
      </trkpt>
      <trkpt lat="45.83887" lon="0.74291">
        <ele>192.1953125</ele>
      </trkpt>
      <trkpt lat="45.83925" lon="0.74283">
        <ele>191.0859375</ele>
      </trkpt>
      <trkpt lat="45.83941" lon="0.7428">
        <ele>190.69140625</ele>
      </trkpt>
      <trkpt lat="45.83963" lon="0.74274">
        <ele>189.90234375</ele>
      </trkpt>
      <trkpt lat="45.83996" lon="0.74263">
        <ele>188.12109375</ele>
      </trkpt>
      <trkpt lat="45.84023" lon="0.74254">
        <ele>185.72265625</ele>
      </trkpt>
      <trkpt lat="45.84032" lon="0.7425">
        <ele>184.78125</ele>
      </trkpt>
      <trkpt lat="45.84041" lon="0.74247">
        <ele>183.84765625</ele>
      </trkpt>
      <trkpt lat="45.84051" lon="0.74244">
        <ele>183.1953125</ele>
      </trkpt>
      <trkpt lat="45.8407" lon="0.74241">
        <ele>182.34375</ele>
      </trkpt>
      <trkpt lat="45.84089" lon="0.74238">
        <ele>181.6171875</ele>
      </trkpt>
      <trkpt lat="45.84097" lon="0.74237">
        <ele>181.33203125</ele>
      </trkpt>
      <trkpt lat="45.84125" lon="0.74244">
        <ele>180.953125</ele>
      </trkpt>
      <trkpt lat="45.8415" lon="0.74252">
        <ele>180.05859375</ele>
      </trkpt>
      <trkpt lat="45.84159" lon="0.74256">
        <ele>179.84765625</ele>
      </trkpt>
      <trkpt lat="45.84171" lon="0.74269">
        <ele>179.19921875</ele>
      </trkpt>
      <trkpt lat="45.8418" lon="0.7428">
        <ele>178.34765625</ele>
      </trkpt>
      <trkpt lat="45.84189" lon="0.74302">
        <ele>176.46484375</ele>
      </trkpt>
      <trkpt lat="45.84195" lon="0.74324">
        <ele>174.34765625</ele>
      </trkpt>
      <trkpt lat="45.84201" lon="0.74345">
        <ele>171.81640625</ele>
      </trkpt>
      <trkpt lat="45.84204" lon="0.74359">
        <ele>170.3828125</ele>
      </trkpt>
      <trkpt lat="45.84204" lon="0.74365">
        <ele>169.90625</ele>
      </trkpt>
      <trkpt lat="45.84202" lon="0.74369">
        <ele>169.9296875</ele>
      </trkpt>
      <trkpt lat="45.84198" lon="0.74377">
        <ele>169.99609375</ele>
      </trkpt>
      <trkpt lat="45.84193" lon="0.74387">
        <ele>170.23828125</ele>
      </trkpt>
      <trkpt lat="45.84178" lon="0.744">
        <ele>171.58203125</ele>
      </trkpt>
      <trkpt lat="45.84165" lon="0.7441">
        <ele>172.46484375</ele>
      </trkpt>
      <trkpt lat="45.84154" lon="0.74416">
        <ele>173.15234375</ele>
      </trkpt>
      <trkpt lat="45.84147" lon="0.74421">
        <ele>173.70703125</ele>
      </trkpt>
      <trkpt lat="45.84125" lon="0.74446">
        <ele>174.1796875</ele>
      </trkpt>
      <trkpt lat="45.84093" lon="0.74485">
        <ele>173.7578125</ele>
      </trkpt>
      <trkpt lat="45.84076" lon="0.74504">
        <ele>173.66015625</ele>
      </trkpt>
      <trkpt lat="45.84052" lon="0.74527">
        <ele>174.359375</ele>
      </trkpt>
      <trkpt lat="45.8402" lon="0.74566">
        <ele>173.6875</ele>
      </trkpt>
      <trkpt lat="45.84002" lon="0.74593">
        <ele>172.66796875</ele>
      </trkpt>
      <trkpt lat="45.83984" lon="0.74614">
        <ele>171.38671875</ele>
      </trkpt>
      <trkpt lat="45.83968" lon="0.74631">
        <ele>172.16796875</ele>
      </trkpt>
      <trkpt lat="45.83948" lon="0.74657">
        <ele>172.3828125</ele>
      </trkpt>
      <trkpt lat="45.8393" lon="0.74691">
        <ele>170.93359375</ele>
      </trkpt>
      <trkpt lat="45.83921" lon="0.74712">
        <ele>171.08984375</ele>
      </trkpt>
      <trkpt lat="45.83913" lon="0.74735">
        <ele>170.54296875</ele>
      </trkpt>
      <trkpt lat="45.83905" lon="0.74756">
        <ele>170.51953125</ele>
      </trkpt>
      <trkpt lat="45.83902" lon="0.74767">
        <ele>170.265625</ele>
      </trkpt>
      <trkpt lat="45.83894" lon="0.74784">
        <ele>170.0703125</ele>
      </trkpt>
      <trkpt lat="45.8393" lon="0.74807">
        <ele>165.64453125</ele>
      </trkpt>
      <trkpt lat="45.83958" lon="0.74834">
        <ele>165.08203125</ele>
      </trkpt>
      <trkpt lat="45.83988" lon="0.7487">
        <ele>165.02734375</ele>
      </trkpt>
      <trkpt lat="45.84007" lon="0.74891">
        <ele>165.34765625</ele>
      </trkpt>
      <trkpt lat="45.84021" lon="0.74914">
        <ele>165.8359375</ele>
      </trkpt>
      <trkpt lat="45.84042" lon="0.74952">
        <ele>167.140625</ele>
      </trkpt>
      <trkpt lat="45.84059" lon="0.74912">
        <ele>168.23828125</ele>
      </trkpt>
      <trkpt lat="45.84077" lon="0.74916">
        <ele>170.3671875</ele>
      </trkpt>
      <trkpt lat="45.84085" lon="0.74942">
        <ele>173.3515625</ele>
      </trkpt>
      <trkpt lat="45.84073" lon="0.74965">
        <ele>174.10546875</ele>
      </trkpt>
      <trkpt lat="45.84041" lon="0.7503">
        <ele>175.48046875</ele>
      </trkpt>
      <trkpt lat="45.84026" lon="0.75076">
        <ele>176.6484375</ele>
      </trkpt>
      <trkpt lat="45.84017" lon="0.75114">
        <ele>177.7890625</ele>
      </trkpt>
      <trkpt lat="45.84009" lon="0.75159">
        <ele>178.90625</ele>
      </trkpt>
      <trkpt lat="45.83988" lon="0.75214">
        <ele>177.69140625</ele>
      </trkpt>
      <trkpt lat="45.83972" lon="0.75239">
        <ele>177.51171875</ele>
      </trkpt>
      <trkpt lat="45.83956" lon="0.75266">
        <ele>177.6015625</ele>
      </trkpt>
      <trkpt lat="45.83946" lon="0.75294">
        <ele>178.13671875</ele>
      </trkpt>
      <trkpt lat="45.83941" lon="0.75323">
        <ele>179.66796875</ele>
      </trkpt>
      <trkpt lat="45.83933" lon="0.75384">
        <ele>181.875</ele>
      </trkpt>
      <trkpt lat="45.83926" lon="0.75414">
        <ele>181.140625</ele>
      </trkpt>
      <trkpt lat="45.8391" lon="0.75448">
        <ele>178.8828125</ele>
      </trkpt>
      <trkpt lat="45.83884" lon="0.75476">
        <ele>176.7265625</ele>
      </trkpt>
      <trkpt lat="45.83867" lon="0.75492">
        <ele>175.875</ele>
      </trkpt>
      <trkpt lat="45.83842" lon="0.75537">
        <ele>177.07421875</ele>
      </trkpt>
      <trkpt lat="45.83824" lon="0.75563">
        <ele>178.03515625</ele>
      </trkpt>
      <trkpt lat="45.83804" lon="0.75589">
        <ele>179.12890625</ele>
      </trkpt>
      <trkpt lat="45.83796" lon="0.75614">
        <ele>180.609375</ele>
      </trkpt>
      <trkpt lat="45.8379" lon="0.75658">
        <ele>182.05859375</ele>
      </trkpt>
      <trkpt lat="45.83783" lon="0.75684">
        <ele>182.109375</ele>
      </trkpt>
      <trkpt lat="45.83763" lon="0.75729">
        <ele>180.8359375</ele>
      </trkpt>
      <trkpt lat="45.83729" lon="0.75787">
        <ele>180</ele>
      </trkpt>
      <trkpt lat="45.83703" lon="0.75824">
        <ele>180.98828125</ele>
      </trkpt>
      <trkpt lat="45.83675" lon="0.75872">
        <ele>182.42578125</ele>
      </trkpt>
      <trkpt lat="45.8366" lon="0.75922">
        <ele>184.75390625</ele>
      </trkpt>
      <trkpt lat="45.83658" lon="0.75968">
        <ele>187.48828125</ele>
      </trkpt>
      <trkpt lat="45.83661" lon="0.76011">
        <ele>189.92578125</ele>
      </trkpt>
      <trkpt lat="45.83666" lon="0.76061">
        <ele>191.40625</ele>
      </trkpt>
      <trkpt lat="45.83675" lon="0.76114">
        <ele>193.36328125</ele>
      </trkpt>
      <trkpt lat="45.83686" lon="0.76145">
        <ele>195.66015625</ele>
      </trkpt>
      <trkpt lat="45.8369" lon="0.76179">
        <ele>195.8125</ele>
      </trkpt>
      <trkpt lat="45.83696" lon="0.76209">
        <ele>194.98828125</ele>
      </trkpt>
      <trkpt lat="45.83711" lon="0.7624">
        <ele>195.2578125</ele>
      </trkpt>
      <trkpt lat="45.83734" lon="0.76265">
        <ele>197.0546875</ele>
      </trkpt>
      <trkpt lat="45.83744" lon="0.76303">
        <ele>196.57421875</ele>
      </trkpt>
      <trkpt lat="45.83746" lon="0.76345">
        <ele>195.9453125</ele>
      </trkpt>
      <trkpt lat="45.83744" lon="0.76376">
        <ele>197.45703125</ele>
      </trkpt>
      <trkpt lat="45.83742" lon="0.76407">
        <ele>198.9375</ele>
      </trkpt>
      <trkpt lat="45.83744" lon="0.76435">
        <ele>200.42578125</ele>
      </trkpt>
      <trkpt lat="45.83749" lon="0.76463">
        <ele>202.21484375</ele>
      </trkpt>
      <trkpt lat="45.83757" lon="0.76498">
        <ele>204.78125</ele>
      </trkpt>
      <trkpt lat="45.83766" lon="0.76537">
        <ele>207.4453125</ele>
      </trkpt>
      <trkpt lat="45.83773" lon="0.76563">
        <ele>209.25390625</ele>
      </trkpt>
      <trkpt lat="45.83781" lon="0.76601">
        <ele>211.0078125</ele>
      </trkpt>
      <trkpt lat="45.83787" lon="0.76632">
        <ele>211.890625</ele>
      </trkpt>
      <trkpt lat="45.83793" lon="0.76671">
        <ele>211.8515625</ele>
      </trkpt>
      <trkpt lat="45.83794" lon="0.76676">
        <ele>211.9375</ele>
      </trkpt>
      <trkpt lat="45.83797" lon="0.76677">
        <ele>212.265625</ele>
      </trkpt>
      <trkpt lat="45.83799" lon="0.76676">
        <ele>212.515625</ele>
      </trkpt>
      <trkpt lat="45.83801" lon="0.76676">
        <ele>212.76171875</ele>
      </trkpt>
      <trkpt lat="45.83804" lon="0.76675">
        <ele>213.140625</ele>
      </trkpt>
      <trkpt lat="45.83806" lon="0.76673">
        <ele>213.55078125</ele>
      </trkpt>
      <trkpt lat="45.83808" lon="0.7667">
        <ele>213.78515625</ele>
      </trkpt>
      <trkpt lat="45.83808" lon="0.76666">
        <ele>213.890625</ele>
      </trkpt>
      <trkpt lat="45.83811" lon="0.76665">
        <ele>214.31640625</ele>
      </trkpt>
      <trkpt lat="45.83816" lon="0.76666">
        <ele>214.87890625</ele>
      </trkpt>
      <trkpt lat="45.83825" lon="0.76664">
        <ele>216.08984375</ele>
      </trkpt>
      <trkpt lat="45.83835" lon="0.76666">
        <ele>217.28515625</ele>
      </trkpt>
      <trkpt lat="45.83846" lon="0.76668">
        <ele>218.64453125</ele>
      </trkpt>
      <trkpt lat="45.83859" lon="0.7667">
        <ele>220.24609375</ele>
      </trkpt>
      <trkpt lat="45.83876" lon="0.7667">
        <ele>222.375</ele>
      </trkpt>
      <trkpt lat="45.83888" lon="0.76671">
        <ele>223.86328125</ele>
      </trkpt>
      <trkpt lat="45.83891" lon="0.76673">
        <ele>224.2421875</ele>
      </trkpt>
      <trkpt lat="45.83911" lon="0.76676">
        <ele>226.6875</ele>
      </trkpt>
      <trkpt lat="45.83921" lon="0.76677">
        <ele>227.96484375</ele>
      </trkpt>
      <trkpt lat="45.83935" lon="0.76684">
        <ele>229.25390625</ele>
      </trkpt>
      <trkpt lat="45.83946" lon="0.76693">
        <ele>230.02734375</ele>
      </trkpt>
      <trkpt lat="45.83967" lon="0.76709">
        <ele>231.59375</ele>
      </trkpt>
      <trkpt lat="45.83982" lon="0.76723">
        <ele>232.83203125</ele>
      </trkpt>
      <trkpt lat="45.83996" lon="0.76737">
        <ele>233.5234375</ele>
      </trkpt>
      <trkpt lat="45.84005" lon="0.76747">
        <ele>233.9921875</ele>
      </trkpt>
      <trkpt lat="45.84008" lon="0.76753">
        <ele>234.21484375</ele>
      </trkpt>
      <trkpt lat="45.84011" lon="0.76758">
        <ele>234.4140625</ele>
      </trkpt>
      <trkpt lat="45.8402" lon="0.76767">
        <ele>235.0546875</ele>
      </trkpt>
      <trkpt lat="45.84026" lon="0.76772">
        <ele>235.55859375</ele>
      </trkpt>
      <trkpt lat="45.84029" lon="0.76784">
        <ele>235.98828125</ele>
      </trkpt>
      <trkpt lat="45.84034" lon="0.76801">
        <ele>236.4453125</ele>
      </trkpt>
      <trkpt lat="45.84038" lon="0.76822">
        <ele>236.828125</ele>
      </trkpt>
      <trkpt lat="45.84042" lon="0.76841">
        <ele>237.08984375</ele>
      </trkpt>
      <trkpt lat="45.84045" lon="0.76884">
        <ele>238.12109375</ele>
      </trkpt>
      <trkpt lat="45.84047" lon="0.76914">
        <ele>238.72265625</ele>
      </trkpt>
      <trkpt lat="45.84048" lon="0.76945">
        <ele>239.3046875</ele>
      </trkpt>
      <trkpt lat="45.84053" lon="0.76975">
        <ele>239.59375</ele>
      </trkpt>
      <trkpt lat="45.84058" lon="0.76998">
        <ele>239.7109375</ele>
      </trkpt>
      <trkpt lat="45.84068" lon="0.77033">
        <ele>239.55859375</ele>
      </trkpt>
      <trkpt lat="45.84077" lon="0.77063">
        <ele>239.328125</ele>
      </trkpt>
      <trkpt lat="45.84084" lon="0.77084">
        <ele>238.7734375</ele>
      </trkpt>
      <trkpt lat="45.84093" lon="0.77109">
        <ele>238.2265625</ele>
      </trkpt>
      <trkpt lat="45.84106" lon="0.77135">
        <ele>237.59765625</ele>
      </trkpt>
      <trkpt lat="45.84118" lon="0.77158">
        <ele>237.046875</ele>
      </trkpt>
      <trkpt lat="45.84139" lon="0.77191">
        <ele>236.265625</ele>
      </trkpt>
      <trkpt lat="45.84151" lon="0.77207">
        <ele>235.66796875</ele>
      </trkpt>
      <trkpt lat="45.84161" lon="0.77225">
        <ele>234.55859375</ele>
      </trkpt>
      <trkpt lat="45.84174" lon="0.77246">
        <ele>233.6015625</ele>
      </trkpt>
      <trkpt lat="45.84192" lon="0.77275">
        <ele>232.375</ele>
      </trkpt>
      <trkpt lat="45.84198" lon="0.77284">
        <ele>231.9765625</ele>
      </trkpt>
      <trkpt lat="45.84207" lon="0.77302">
        <ele>231.1640625</ele>
      </trkpt>
      <trkpt lat="45.84229" lon="0.77339">
        <ele>229.96875</ele>
      </trkpt>
      <trkpt lat="45.84247" lon="0.77369">
        <ele>230.2890625</ele>
      </trkpt>
      <trkpt lat="45.84264" lon="0.77398">
        <ele>231.08203125</ele>
      </trkpt>
      <trkpt lat="45.84281" lon="0.77425">
        <ele>231.51953125</ele>
      </trkpt>
      <trkpt lat="45.84297" lon="0.77453">
        <ele>231.8515625</ele>
      </trkpt>
      <trkpt lat="45.84312" lon="0.77481">
        <ele>232.7421875</ele>
      </trkpt>
      <trkpt lat="45.84327" lon="0.77508">
        <ele>233.31640625</ele>
      </trkpt>
      <trkpt lat="45.84338" lon="0.77531">
        <ele>234.12890625</ele>
      </trkpt>
      <trkpt lat="45.84344" lon="0.77542">
        <ele>234.5390625</ele>
      </trkpt>
      <trkpt lat="45.84346" lon="0.77546">
        <ele>234.69140625</ele>
      </trkpt>
      <trkpt lat="45.84348" lon="0.77548">
        <ele>234.796875</ele>
      </trkpt>
      <trkpt lat="45.8435" lon="0.77547">
        <ele>234.87109375</ele>
      </trkpt>
      <trkpt lat="45.84352" lon="0.77547">
        <ele>234.93359375</ele>
      </trkpt>
      <trkpt lat="45.84354" lon="0.77544">
        <ele>234.93359375</ele>
      </trkpt>
      <trkpt lat="45.84363" lon="0.77525">
        <ele>234.9140625</ele>
      </trkpt>
      <trkpt lat="45.84373" lon="0.77504">
        <ele>234.96875</ele>
      </trkpt>
      <trkpt lat="45.84388" lon="0.77476">
        <ele>235.15234375</ele>
      </trkpt>
      <trkpt lat="45.84399" lon="0.77453">
        <ele>235.45703125</ele>
      </trkpt>
      <trkpt lat="45.84412" lon="0.77426">
        <ele>236.17578125</ele>
      </trkpt>
      <trkpt lat="45.84425" lon="0.77396">
        <ele>236.92578125</ele>
      </trkpt>
      <trkpt lat="45.84432" lon="0.77376">
        <ele>236.85546875</ele>
      </trkpt>
      <trkpt lat="45.84437" lon="0.77361">
        <ele>236.53515625</ele>
      </trkpt>
      <trkpt lat="45.8444" lon="0.77349">
        <ele>236.27734375</ele>
      </trkpt>
      <trkpt lat="45.84444" lon="0.77325">
        <ele>236.02734375</ele>
      </trkpt>
      <trkpt lat="45.84449" lon="0.77298">
        <ele>235.81640625</ele>
      </trkpt>
      <trkpt lat="45.84452" lon="0.77273">
        <ele>235.5</ele>
      </trkpt>
      <trkpt lat="45.84459" lon="0.77232">
        <ele>234.73046875</ele>
      </trkpt>
      <trkpt lat="45.84466" lon="0.77167">
        <ele>233.59375</ele>
      </trkpt>
      <trkpt lat="45.84471" lon="0.77104">
        <ele>232.9375</ele>
      </trkpt>
      <trkpt lat="45.84472" lon="0.77053">
        <ele>232.5</ele>
      </trkpt>
      <trkpt lat="45.84473" lon="0.77047">
        <ele>232.3125</ele>
      </trkpt>
      <trkpt lat="45.84476" lon="0.77042">
        <ele>232.078125</ele>
      </trkpt>
      <trkpt lat="45.84479" lon="0.77039">
        <ele>231.82421875</ele>
      </trkpt>
      <trkpt lat="45.84485" lon="0.77039">
        <ele>231.53125</ele>
      </trkpt>
      <trkpt lat="45.84503" lon="0.77044">
        <ele>230.98828125</ele>
      </trkpt>
      <trkpt lat="45.84538" lon="0.77051">
        <ele>229.8515625</ele>
      </trkpt>
      <trkpt lat="45.84585" lon="0.77062">
        <ele>228.37109375</ele>
      </trkpt>
      <trkpt lat="45.84645" lon="0.77077">
        <ele>225.99609375</ele>
      </trkpt>
      <trkpt lat="45.84721" lon="0.77094">
        <ele>222.8125</ele>
      </trkpt>
      <trkpt lat="45.84733" lon="0.77104">
        <ele>222.1875</ele>
      </trkpt>
      <trkpt lat="45.84735" lon="0.77111">
        <ele>222.0546875</ele>
      </trkpt>
      <trkpt lat="45.84733" lon="0.77126">
        <ele>221.8359375</ele>
      </trkpt>
      <trkpt lat="45.8473" lon="0.77145">
        <ele>221.25390625</ele>
      </trkpt>
      <trkpt lat="45.84726" lon="0.77162">
        <ele>220.75</ele>
      </trkpt>
      <trkpt lat="45.84724" lon="0.7718">
        <ele>220.28515625</ele>
      </trkpt>
      <trkpt lat="45.84722" lon="0.77188">
        <ele>220.20703125</ele>
      </trkpt>
      <trkpt lat="45.8473" lon="0.77193">
        <ele>219.82421875</ele>
      </trkpt>
      <trkpt lat="45.84731" lon="0.77201">
        <ele>219.6484375</ele>
      </trkpt>
      <trkpt lat="45.84721" lon="0.77264">
        <ele>219.0390625</ele>
      </trkpt>
      <trkpt lat="45.84714" lon="0.77314">
        <ele>219.375</ele>
      </trkpt>
      <trkpt lat="45.84709" lon="0.77344">
        <ele>219.98046875</ele>
      </trkpt>
      <trkpt lat="45.84707" lon="0.7736">
        <ele>220.3125</ele>
      </trkpt>
      <trkpt lat="45.84705" lon="0.77375">
        <ele>220.68359375</ele>
      </trkpt>
      <trkpt lat="45.84697" lon="0.77379">
        <ele>221.109375</ele>
      </trkpt>
      <trkpt lat="45.84693" lon="0.7739">
        <ele>221.57421875</ele>
      </trkpt>
      <trkpt lat="45.84689" lon="0.77408">
        <ele>222.34375</ele>
      </trkpt>
      <trkpt lat="45.84687" lon="0.77422">
        <ele>222.95703125</ele>
      </trkpt>
      <trkpt lat="45.84689" lon="0.77439">
        <ele>223.46875</ele>
      </trkpt>
      <trkpt lat="45.84695" lon="0.77449">
        <ele>223.50390625</ele>
      </trkpt>
      <trkpt lat="45.84702" lon="0.77459">
        <ele>223.48828125</ele>
      </trkpt>
      <trkpt lat="45.84726" lon="0.77473">
        <ele>223.36328125</ele>
      </trkpt>
      <trkpt lat="45.84749" lon="0.77483">
        <ele>223.31640625</ele>
      </trkpt>
      <trkpt lat="45.84772" lon="0.77495">
        <ele>223.33984375</ele>
      </trkpt>
      <trkpt lat="45.84793" lon="0.77508">
        <ele>223.4296875</ele>
      </trkpt>
      <trkpt lat="45.84814" lon="0.7752">
        <ele>223.47265625</ele>
      </trkpt>
      <trkpt lat="45.84828" lon="0.77527">
        <ele>223.68359375</ele>
      </trkpt>
      <trkpt lat="45.84836" lon="0.77524">
        <ele>223.56640625</ele>
      </trkpt>
      <trkpt lat="45.84845" lon="0.77523">
        <ele>223.51953125</ele>
      </trkpt>
      <trkpt lat="45.84854" lon="0.77503">
        <ele>222.76171875</ele>
      </trkpt>
      <trkpt lat="45.8487" lon="0.77471">
        <ele>221.01171875</ele>
      </trkpt>
      <trkpt lat="45.84893" lon="0.77424">
        <ele>218.7578125</ele>
      </trkpt>
      <trkpt lat="45.84916" lon="0.77379">
        <ele>216.48046875</ele>
      </trkpt>
      <trkpt lat="45.84934" lon="0.77342">
        <ele>214.89453125</ele>
      </trkpt>
      <trkpt lat="45.84941" lon="0.77331">
        <ele>214.22265625</ele>
      </trkpt>
      <trkpt lat="45.84949" lon="0.77307">
        <ele>212.99609375</ele>
      </trkpt>
      <trkpt lat="45.84956" lon="0.7729">
        <ele>212.15625</ele>
      </trkpt>
      <trkpt lat="45.84959" lon="0.77283">
        <ele>211.9140625</ele>
      </trkpt>
      <trkpt lat="45.84962" lon="0.7727">
        <ele>211.5390625</ele>
      </trkpt>
      <trkpt lat="45.84976" lon="0.77259">
        <ele>211.0859375</ele>
      </trkpt>
      <trkpt lat="45.85002" lon="0.77244">
        <ele>210.7890625</ele>
      </trkpt>
      <trkpt lat="45.85016" lon="0.77248">
        <ele>211.203125</ele>
      </trkpt>
      <trkpt lat="45.85022" lon="0.77251">
        <ele>211.41796875</ele>
      </trkpt>
      <trkpt lat="45.8503" lon="0.77256">
        <ele>211.75</ele>
      </trkpt>
      <trkpt lat="45.85039" lon="0.77261">
        <ele>212.0859375</ele>
      </trkpt>
      <trkpt lat="45.85043" lon="0.77264">
        <ele>212.1171875</ele>
      </trkpt>
      <trkpt lat="45.85045" lon="0.77271">
        <ele>212.30078125</ele>
      </trkpt>
      <trkpt lat="45.85046" lon="0.77287">
        <ele>212.7734375</ele>
      </trkpt>
      <trkpt lat="45.85047" lon="0.77308">
        <ele>212.78515625</ele>
      </trkpt>
      <trkpt lat="45.85047" lon="0.77403">
        <ele>214.07421875</ele>
      </trkpt>
      <trkpt lat="45.85055" lon="0.77482">
        <ele>216.7578125</ele>
      </trkpt>
      <trkpt lat="45.85074" lon="0.77557">
        <ele>219.66796875</ele>
      </trkpt>
      <trkpt lat="45.85076" lon="0.77578">
        <ele>220.328125</ele>
      </trkpt>
      <trkpt lat="45.85059" lon="0.77616">
        <ele>221.55078125</ele>
      </trkpt>
      <trkpt lat="45.85053" lon="0.77634">
        <ele>221.9609375</ele>
      </trkpt>
      <trkpt lat="45.85049" lon="0.77661">
        <ele>222.453125</ele>
      </trkpt>
      <trkpt lat="45.85045" lon="0.77688">
        <ele>222.8125</ele>
      </trkpt>
      <trkpt lat="45.85045" lon="0.777">
        <ele>222.80078125</ele>
      </trkpt>
      <trkpt lat="45.85042" lon="0.77736">
        <ele>222.91015625</ele>
      </trkpt>
      <trkpt lat="45.85035" lon="0.7777">
        <ele>223.25390625</ele>
      </trkpt>
      <trkpt lat="45.85029" lon="0.77793">
        <ele>223.453125</ele>
      </trkpt>
      <trkpt lat="45.85022" lon="0.77824">
        <ele>223.3046875</ele>
      </trkpt>
      <trkpt lat="45.85004" lon="0.77883">
        <ele>223.1953125</ele>
      </trkpt>
      <trkpt lat="45.84984" lon="0.77941">
        <ele>223.21484375</ele>
      </trkpt>
      <trkpt lat="45.84964" lon="0.77997">
        <ele>222.55078125</ele>
      </trkpt>
      <trkpt lat="45.84953" lon="0.78029">
        <ele>222.171875</ele>
      </trkpt>
      <trkpt lat="45.8495" lon="0.78038">
        <ele>222.08203125</ele>
      </trkpt>
      <trkpt lat="45.84949" lon="0.78043">
        <ele>222.01171875</ele>
      </trkpt>
      <trkpt lat="45.84947" lon="0.78048">
        <ele>221.94921875</ele>
      </trkpt>
      <trkpt lat="45.84946" lon="0.78052">
        <ele>221.8984375</ele>
      </trkpt>
      <trkpt lat="45.84947" lon="0.78055">
        <ele>221.828125</ele>
      </trkpt>
      <trkpt lat="45.84948" lon="0.78057">
        <ele>221.76953125</ele>
      </trkpt>
      <trkpt lat="45.8495" lon="0.7806">
        <ele>221.6875</ele>
      </trkpt>
      <trkpt lat="45.84958" lon="0.78062">
        <ele>221.50390625</ele>
      </trkpt>
      <trkpt lat="45.84966" lon="0.78065">
        <ele>221.2734375</ele>
      </trkpt>
      <trkpt lat="45.85004" lon="0.78077">
        <ele>219.40234375</ele>
      </trkpt>
      <trkpt lat="45.8506" lon="0.78094">
        <ele>216.54296875</ele>
      </trkpt>
      <trkpt lat="45.85112" lon="0.78109">
        <ele>213.80859375</ele>
      </trkpt>
      <trkpt lat="45.85148" lon="0.78119">
        <ele>211.21484375</ele>
      </trkpt>
      <trkpt lat="45.85209" lon="0.78134">
        <ele>207.828125</ele>
      </trkpt>
      <trkpt lat="45.85268" lon="0.78152">
        <ele>204.8671875</ele>
      </trkpt>
      <trkpt lat="45.85286" lon="0.78162">
        <ele>204.3203125</ele>
      </trkpt>
      <trkpt lat="45.85313" lon="0.7819">
        <ele>203.4765625</ele>
      </trkpt>
      <trkpt lat="45.85374" lon="0.78254">
        <ele>200.515625</ele>
      </trkpt>
      <trkpt lat="45.85416" lon="0.78305">
        <ele>197.35546875</ele>
      </trkpt>
      <trkpt lat="45.85439" lon="0.78345">
        <ele>195.30078125</ele>
      </trkpt>
      <trkpt lat="45.8547" lon="0.78401">
        <ele>192.2421875</ele>
      </trkpt>
      <trkpt lat="45.85501" lon="0.78459">
        <ele>187.93359375</ele>
      </trkpt>
      <trkpt lat="45.85514" lon="0.78481">
        <ele>186.1640625</ele>
      </trkpt>
      <trkpt lat="45.85521" lon="0.78489">
        <ele>185.45703125</ele>
      </trkpt>
      <trkpt lat="45.8553" lon="0.78496">
        <ele>184.859375</ele>
      </trkpt>
      <trkpt lat="45.85542" lon="0.785">
        <ele>184.3359375</ele>
      </trkpt>
      <trkpt lat="45.85568" lon="0.78507">
        <ele>182.99609375</ele>
      </trkpt>
      <trkpt lat="45.85639" lon="0.78532">
        <ele>180.02734375</ele>
      </trkpt>
      <trkpt lat="45.85672" lon="0.78544">
        <ele>177.984375</ele>
      </trkpt>
      <trkpt lat="45.85698" lon="0.78549">
        <ele>176.5703125</ele>
      </trkpt>
      <trkpt lat="45.85724" lon="0.78552">
        <ele>175.3828125</ele>
      </trkpt>
      <trkpt lat="45.8575" lon="0.78549">
        <ele>174.72265625</ele>
      </trkpt>
      <trkpt lat="45.85808" lon="0.78534">
        <ele>172.6953125</ele>
      </trkpt>
      <trkpt lat="45.85851" lon="0.78521">
        <ele>171.9765625</ele>
      </trkpt>
      <trkpt lat="45.85869" lon="0.78515">
        <ele>171.70703125</ele>
      </trkpt>
      <trkpt lat="45.85877" lon="0.78516">
        <ele>171.38671875</ele>
      </trkpt>
      <trkpt lat="45.85884" lon="0.7852">
        <ele>170.93359375</ele>
      </trkpt>
      <trkpt lat="45.85887" lon="0.78523">
        <ele>170.63671875</ele>
      </trkpt>
      <trkpt lat="45.85891" lon="0.78528">
        <ele>170.23828125</ele>
      </trkpt>
      <trkpt lat="45.85894" lon="0.78531">
        <ele>169.9609375</ele>
      </trkpt>
      <trkpt lat="45.85897" lon="0.78542">
        <ele>169.28515625</ele>
      </trkpt>
      <trkpt lat="45.859" lon="0.78552">
        <ele>168.62109375</ele>
      </trkpt>
      <trkpt lat="45.85904" lon="0.78565">
        <ele>167.96875</ele>
      </trkpt>
      <trkpt lat="45.85905" lon="0.78571">
        <ele>168.26171875</ele>
      </trkpt>
      <trkpt lat="45.8591" lon="0.78578">
        <ele>168.578125</ele>
      </trkpt>
      <trkpt lat="45.85912" lon="0.78583">
        <ele>168.76953125</ele>
      </trkpt>
      <trkpt lat="45.85918" lon="0.78585">
        <ele>168.82421875</ele>
      </trkpt>
      <trkpt lat="45.85924" lon="0.78589">
        <ele>168.90234375</ele>
      </trkpt>
      <trkpt lat="45.85932" lon="0.78589">
        <ele>168.8515625</ele>
      </trkpt>
      <trkpt lat="45.85981" lon="0.7859">
        <ele>168.93359375</ele>
      </trkpt>
      <trkpt lat="45.86058" lon="0.78592">
        <ele>165.98046875</ele>
      </trkpt>
      <trkpt lat="45.86092" lon="0.78602">
        <ele>163.65625</ele>
      </trkpt>
      <trkpt lat="45.86113" lon="0.78611">
        <ele>162.1328125</ele>
      </trkpt>
      <trkpt lat="45.8612" lon="0.78613">
        <ele>161.5859375</ele>
      </trkpt>
      <trkpt lat="45.86125" lon="0.78618">
        <ele>161.296875</ele>
      </trkpt>
      <trkpt lat="45.86128" lon="0.78623">
        <ele>161.125</ele>
      </trkpt>
      <trkpt lat="45.86131" lon="0.78632">
        <ele>161.12109375</ele>
      </trkpt>
      <trkpt lat="45.86133" lon="0.7864">
        <ele>161.1484375</ele>
      </trkpt>
      <trkpt lat="45.86133" lon="0.78653">
        <ele>161.5390625</ele>
      </trkpt>
      <trkpt lat="45.86133" lon="0.7866">
        <ele>161.765625</ele>
      </trkpt>
      <trkpt lat="45.86139" lon="0.78689">
        <ele>162.375</ele>
      </trkpt>
      <trkpt lat="45.86147" lon="0.78734">
        <ele>163.75</ele>
      </trkpt>
      <trkpt lat="45.86156" lon="0.78775">
        <ele>164.03125</ele>
      </trkpt>
      <trkpt lat="45.8616" lon="0.78793">
        <ele>164.2265625</ele>
      </trkpt>
      <trkpt lat="45.86162" lon="0.78802">
        <ele>164.21875</ele>
      </trkpt>
      <trkpt lat="45.86166" lon="0.78807">
        <ele>164.0078125</ele>
      </trkpt>
      <trkpt lat="45.86169" lon="0.78809">
        <ele>163.73828125</ele>
      </trkpt>
      <trkpt lat="45.86171" lon="0.7881">
        <ele>163.41796875</ele>
      </trkpt>
      <trkpt lat="45.86177" lon="0.78812">
        <ele>162.8046875</ele>
      </trkpt>
      <trkpt lat="45.86185" lon="0.7881">
        <ele>161.85546875</ele>
      </trkpt>
      <trkpt lat="45.862" lon="0.78805">
        <ele>159.99609375</ele>
      </trkpt>
      <trkpt lat="45.86238" lon="0.78783">
        <ele>157.80859375</ele>
      </trkpt>
      <trkpt lat="45.86333" lon="0.78727">
        <ele>155</ele>
      </trkpt>
      <trkpt lat="45.86383" lon="0.78698">
        <ele>155</ele>
      </trkpt>
      <trkpt lat="45.8643" lon="0.7867">
        <ele>155.0390625</ele>
      </trkpt>
      <trkpt lat="45.86503" lon="0.78627">
        <ele>156</ele>
      </trkpt>
      <trkpt lat="45.86541" lon="0.78604">
        <ele>156</ele>
      </trkpt>
      <trkpt lat="45.86601" lon="0.78567">
        <ele>156.24609375</ele>
      </trkpt>
      <trkpt lat="45.86663" lon="0.78528">
        <ele>159.2265625</ele>
      </trkpt>
      <trkpt lat="45.86698" lon="0.78504">
        <ele>162.30859375</ele>
      </trkpt>
      <trkpt lat="45.86735" lon="0.78479">
        <ele>164.34375</ele>
      </trkpt>
      <trkpt lat="45.86758" lon="0.78467">
        <ele>165.36328125</ele>
      </trkpt>
      <trkpt lat="45.86775" lon="0.78462">
        <ele>166.08203125</ele>
      </trkpt>
      <trkpt lat="45.86799" lon="0.78467">
        <ele>167.390625</ele>
      </trkpt>
      <trkpt lat="45.86808" lon="0.78474">
        <ele>168</ele>
      </trkpt>
      <trkpt lat="45.86823" lon="0.78482">
        <ele>168.64453125</ele>
      </trkpt>
      <trkpt lat="45.86834" lon="0.78488">
        <ele>168.87109375</ele>
      </trkpt>
      <trkpt lat="45.86849" lon="0.785">
        <ele>169.0234375</ele>
      </trkpt>
      <trkpt lat="45.86867" lon="0.78513">
        <ele>169.09375</ele>
      </trkpt>
      <trkpt lat="45.86899" lon="0.78535">
        <ele>169.5</ele>
      </trkpt>
      <trkpt lat="45.8692" lon="0.78549">
        <ele>169.3203125</ele>
      </trkpt>
      <trkpt lat="45.8693" lon="0.78555">
        <ele>169.203125</ele>
      </trkpt>
      <trkpt lat="45.86938" lon="0.78557">
        <ele>169.296875</ele>
      </trkpt>
      <trkpt lat="45.86944" lon="0.78559">
        <ele>169.375</ele>
      </trkpt>
      <trkpt lat="45.8695" lon="0.78559">
        <ele>169.48828125</ele>
      </trkpt>
      <trkpt lat="45.86957" lon="0.78558">
        <ele>169.6171875</ele>
      </trkpt>
      <trkpt lat="45.86962" lon="0.78556">
        <ele>169.75</ele>
      </trkpt>
      <trkpt lat="45.86971" lon="0.78549">
        <ele>170.0390625</ele>
      </trkpt>
      <trkpt lat="45.86983" lon="0.78542">
        <ele>170.38671875</ele>
      </trkpt>
      <trkpt lat="45.86999" lon="0.78526">
        <ele>170.9609375</ele>
      </trkpt>
      <trkpt lat="45.87004" lon="0.7851">
        <ele>171.3359375</ele>
      </trkpt>
      <trkpt lat="45.87008" lon="0.785">
        <ele>171.59375</ele>
      </trkpt>
      <trkpt lat="45.87017" lon="0.78472">
        <ele>172.26171875</ele>
      </trkpt>
      <trkpt lat="45.87023" lon="0.78448">
        <ele>172.8046875</ele>
      </trkpt>
      <trkpt lat="45.87026" lon="0.78438">
        <ele>173.0390625</ele>
      </trkpt>
      <trkpt lat="45.87031" lon="0.78398">
        <ele>173.828125</ele>
      </trkpt>
      <trkpt lat="45.87032" lon="0.78366">
        <ele>174.4296875</ele>
      </trkpt>
      <trkpt lat="45.87031" lon="0.78331">
        <ele>174.89453125</ele>
      </trkpt>
      <trkpt lat="45.87032" lon="0.78315">
        <ele>174.93359375</ele>
      </trkpt>
      <trkpt lat="45.8703" lon="0.78294">
        <ele>174.98046875</ele>
      </trkpt>
      <trkpt lat="45.87031" lon="0.7827">
        <ele>174.9609375</ele>
      </trkpt>
      <trkpt lat="45.87028" lon="0.78236">
        <ele>174.82421875</ele>
      </trkpt>
      <trkpt lat="45.87023" lon="0.78201">
        <ele>174.1953125</ele>
      </trkpt>
      <trkpt lat="45.87022" lon="0.78181">
        <ele>173.8125</ele>
      </trkpt>
      <trkpt lat="45.87022" lon="0.78153">
        <ele>173.69921875</ele>
      </trkpt>
      <trkpt lat="45.87027" lon="0.78111">
        <ele>173.64453125</ele>
      </trkpt>
      <trkpt lat="45.87028" lon="0.78091">
        <ele>173.2890625</ele>
      </trkpt>
      <trkpt lat="45.87032" lon="0.78033">
        <ele>172.828125</ele>
      </trkpt>
      <trkpt lat="45.8705" lon="0.78036">
        <ele>173.40234375</ele>
      </trkpt>
      <trkpt lat="45.87102" lon="0.7804">
        <ele>175.21484375</ele>
      </trkpt>
      <trkpt lat="45.87142" lon="0.78043">
        <ele>176.1875</ele>
      </trkpt>
      <trkpt lat="45.87195" lon="0.78051">
        <ele>178.51171875</ele>
      </trkpt>
      <trkpt lat="45.87248" lon="0.78053">
        <ele>180.55859375</ele>
      </trkpt>
      <trkpt lat="45.87316" lon="0.78058">
        <ele>183.01171875</ele>
      </trkpt>
      <trkpt lat="45.87369" lon="0.78062">
        <ele>185.85546875</ele>
      </trkpt>
      <trkpt lat="45.87426" lon="0.7807">
        <ele>189.046875</ele>
      </trkpt>
      <trkpt lat="45.8745" lon="0.78074">
        <ele>191.1640625</ele>
      </trkpt>
      <trkpt lat="45.87475" lon="0.78079">
        <ele>193.34375</ele>
      </trkpt>
      <trkpt lat="45.87523" lon="0.7809">
        <ele>196.18359375</ele>
      </trkpt>
      <trkpt lat="45.87533" lon="0.781">
        <ele>196.70703125</ele>
      </trkpt>
      <trkpt lat="45.8754" lon="0.78098">
        <ele>197.10546875</ele>
      </trkpt>
      <trkpt lat="45.87531" lon="0.7815">
        <ele>196.62109375</ele>
      </trkpt>
      <trkpt lat="45.87529" lon="0.78177">
        <ele>196.515625</ele>
      </trkpt>
      <trkpt lat="45.87529" lon="0.78199">
        <ele>196.5234375</ele>
      </trkpt>
      <trkpt lat="45.87528" lon="0.7822">
        <ele>196.45703125</ele>
      </trkpt>
      <trkpt lat="45.87526" lon="0.78237">
        <ele>196.3203125</ele>
      </trkpt>
      <trkpt lat="45.87525" lon="0.78255">
        <ele>196.26171875</ele>
      </trkpt>
      <trkpt lat="45.87526" lon="0.78273">
        <ele>196.33984375</ele>
      </trkpt>
      <trkpt lat="45.87528" lon="0.78297">
        <ele>196.26171875</ele>
      </trkpt>
      <trkpt lat="45.8753" lon="0.78307">
        <ele>196.1796875</ele>
      </trkpt>
      <trkpt lat="45.87542" lon="0.78341">
        <ele>196.2109375</ele>
      </trkpt>
      <trkpt lat="45.87553" lon="0.78389">
        <ele>195.9453125</ele>
      </trkpt>
      <trkpt lat="45.87559" lon="0.78414">
        <ele>195.69921875</ele>
      </trkpt>
      <trkpt lat="45.87571" lon="0.78438">
        <ele>195.578125</ele>
      </trkpt>
      <trkpt lat="45.87589" lon="0.78459">
        <ele>195.69921875</ele>
      </trkpt>
      <trkpt lat="45.87603" lon="0.78469">
        <ele>196.22265625</ele>
      </trkpt>
      <trkpt lat="45.87623" lon="0.78482">
        <ele>197.06640625</ele>
      </trkpt>
      <trkpt lat="45.87634" lon="0.78486">
        <ele>197.56640625</ele>
      </trkpt>
      <trkpt lat="45.8765" lon="0.78496">
        <ele>198.265625</ele>
      </trkpt>
      <trkpt lat="45.87669" lon="0.78507">
        <ele>199.09765625</ele>
      </trkpt>
      <trkpt lat="45.877" lon="0.78524">
        <ele>200.4296875</ele>
      </trkpt>
      <trkpt lat="45.8771" lon="0.7853">
        <ele>200.91796875</ele>
      </trkpt>
      <trkpt lat="45.87729" lon="0.78543">
        <ele>201.81640625</ele>
      </trkpt>
      <trkpt lat="45.87749" lon="0.78555">
        <ele>202.6328125</ele>
      </trkpt>
      <trkpt lat="45.87769" lon="0.78569">
        <ele>203.2734375</ele>
      </trkpt>
      <trkpt lat="45.87786" lon="0.78577">
        <ele>203.78515625</ele>
      </trkpt>
      <trkpt lat="45.87796" lon="0.78582">
        <ele>204.0390625</ele>
      </trkpt>
      <trkpt lat="45.87797" lon="0.78581">
        <ele>204.12890625</ele>
      </trkpt>
      <trkpt lat="45.87804" lon="0.78524">
        <ele>206.77734375</ele>
      </trkpt>
      <trkpt lat="45.87814" lon="0.78476">
        <ele>208.48046875</ele>
      </trkpt>
      <trkpt lat="45.87825" lon="0.78411">
        <ele>210.2109375</ele>
      </trkpt>
      <trkpt lat="45.87837" lon="0.78351">
        <ele>212.1640625</ele>
      </trkpt>
      <trkpt lat="45.87845" lon="0.78308">
        <ele>212.515625</ele>
      </trkpt>
      <trkpt lat="45.87852" lon="0.78269">
        <ele>212.64453125</ele>
      </trkpt>
      <trkpt lat="45.8786" lon="0.78236">
        <ele>212.796875</ele>
      </trkpt>
      <trkpt lat="45.87866" lon="0.78235">
        <ele>212.90625</ele>
      </trkpt>
      <trkpt lat="45.87909" lon="0.78271">
        <ele>213.31640625</ele>
      </trkpt>
      <trkpt lat="45.87967" lon="0.78322">
        <ele>213.74609375</ele>
      </trkpt>
      <trkpt lat="45.88005" lon="0.78355">
        <ele>214.24609375</ele>
      </trkpt>
      <trkpt lat="45.88059" lon="0.78423">
        <ele>215.8515625</ele>
      </trkpt>
      <trkpt lat="45.88107" lon="0.78484">
        <ele>218.39453125</ele>
      </trkpt>
      <trkpt lat="45.88143" lon="0.78531">
        <ele>220.26171875</ele>
      </trkpt>
      <trkpt lat="45.8819" lon="0.7859">
        <ele>222.0859375</ele>
      </trkpt>
      <trkpt lat="45.88239" lon="0.78653">
        <ele>223.75</ele>
      </trkpt>
      <trkpt lat="45.88281" lon="0.78707">
        <ele>226.56640625</ele>
      </trkpt>
      <trkpt lat="45.88311" lon="0.78745">
        <ele>228.1640625</ele>
      </trkpt>
      <trkpt lat="45.88348" lon="0.78764">
        <ele>229.5546875</ele>
      </trkpt>
      <trkpt lat="45.88397" lon="0.78783">
        <ele>230.90234375</ele>
      </trkpt>
      <trkpt lat="45.88454" lon="0.78799">
        <ele>231.7421875</ele>
      </trkpt>
      <trkpt lat="45.88503" lon="0.78812">
        <ele>233.234375</ele>
      </trkpt>
      <trkpt lat="45.88542" lon="0.78818">
        <ele>234.69921875</ele>
      </trkpt>
      <trkpt lat="45.88586" lon="0.78824">
        <ele>235.8359375</ele>
      </trkpt>
      <trkpt lat="45.88636" lon="0.78831">
        <ele>236.77734375</ele>
      </trkpt>
      <trkpt lat="45.88683" lon="0.78834">
        <ele>237.609375</ele>
      </trkpt>
      <trkpt lat="45.88743" lon="0.78832">
        <ele>238.59765625</ele>
      </trkpt>
      <trkpt lat="45.88804" lon="0.78829">
        <ele>239.58203125</ele>
      </trkpt>
      <trkpt lat="45.88866" lon="0.78825">
        <ele>240.359375</ele>
      </trkpt>
      <trkpt lat="45.88911" lon="0.7882">
        <ele>240.515625</ele>
      </trkpt>
      <trkpt lat="45.88913" lon="0.78823">
        <ele>240.59765625</ele>
      </trkpt>
      <trkpt lat="45.88915" lon="0.78828">
        <ele>240.71875</ele>
      </trkpt>
      <trkpt lat="45.88912" lon="0.78853">
        <ele>241.22265625</ele>
      </trkpt>
      <trkpt lat="45.889" lon="0.78906">
        <ele>241.73828125</ele>
      </trkpt>
      <trkpt lat="45.88881" lon="0.78946">
        <ele>240.94921875</ele>
      </trkpt>
      <trkpt lat="45.88848" lon="0.79002">
        <ele>238.79296875</ele>
      </trkpt>
      <trkpt lat="45.88843" lon="0.79008">
        <ele>238.4765625</ele>
      </trkpt>
      <trkpt lat="45.88842" lon="0.79015">
        <ele>238.125</ele>
      </trkpt>
      <trkpt lat="45.88842" lon="0.79019">
        <ele>237.94921875</ele>
      </trkpt>
      <trkpt lat="45.88843" lon="0.79022">
        <ele>237.86328125</ele>
      </trkpt>
      <trkpt lat="45.88846" lon="0.79024">
        <ele>237.80859375</ele>
      </trkpt>
      <trkpt lat="45.88849" lon="0.79025">
        <ele>237.796875</ele>
      </trkpt>
      <trkpt lat="45.88856" lon="0.79022">
        <ele>237.9921875</ele>
      </trkpt>
      <trkpt lat="45.88861" lon="0.7902">
        <ele>238.20703125</ele>
      </trkpt>
      <trkpt lat="45.88888" lon="0.79008">
        <ele>238.66015625</ele>
      </trkpt>
      <trkpt lat="45.88914" lon="0.79001">
        <ele>238.44140625</ele>
      </trkpt>
      <trkpt lat="45.8895" lon="0.78996">
        <ele>238.09375</ele>
      </trkpt>
      <trkpt lat="45.89004" lon="0.78991">
        <ele>237.90234375</ele>
      </trkpt>
      <trkpt lat="45.89021" lon="0.78992">
        <ele>237.81640625</ele>
      </trkpt>
      <trkpt lat="45.89055" lon="0.79005">
        <ele>237.13671875</ele>
      </trkpt>
      <trkpt lat="45.89068" lon="0.79006">
        <ele>237.09765625</ele>
      </trkpt>
      <trkpt lat="45.89094" lon="0.79007">
        <ele>237.06640625</ele>
      </trkpt>
      <trkpt lat="45.89105" lon="0.79004">
        <ele>237.40234375</ele>
      </trkpt>
      <trkpt lat="45.8911" lon="0.79004">
        <ele>237.4921875</ele>
      </trkpt>
      <trkpt lat="45.89116" lon="0.79">
        <ele>237.74609375</ele>
      </trkpt>
      <trkpt lat="45.89118" lon="0.78996">
        <ele>237.984375</ele>
      </trkpt>
      <trkpt lat="45.89122" lon="0.78988">
        <ele>238.40234375</ele>
      </trkpt>
      <trkpt lat="45.89123" lon="0.7898">
        <ele>238.76171875</ele>
      </trkpt>
      <trkpt lat="45.89127" lon="0.78968">
        <ele>239.3125</ele>
      </trkpt>
      <trkpt lat="45.89129" lon="0.7896">
        <ele>239.65234375</ele>
      </trkpt>
      <trkpt lat="45.89133" lon="0.78956">
        <ele>239.83984375</ele>
      </trkpt>
      <trkpt lat="45.89138" lon="0.78952">
        <ele>239.984375</ele>
      </trkpt>
      <trkpt lat="45.89161" lon="0.78947">
        <ele>240.42578125</ele>
      </trkpt>
      <trkpt lat="45.89181" lon="0.78946">
        <ele>240.85546875</ele>
      </trkpt>
      <trkpt lat="45.89187" lon="0.7895">
        <ele>240.796875</ele>
      </trkpt>
      <trkpt lat="45.89199" lon="0.78968">
        <ele>240.34765625</ele>
      </trkpt>
      <trkpt lat="45.89203" lon="0.78975">
        <ele>240.171875</ele>
      </trkpt>
      <trkpt lat="45.89208" lon="0.78979">
        <ele>240.18359375</ele>
      </trkpt>
      <trkpt lat="45.89215" lon="0.78981">
        <ele>240.34375</ele>
      </trkpt>
      <trkpt lat="45.89223" lon="0.78981">
        <ele>240.640625</ele>
      </trkpt>
      <trkpt lat="45.89262" lon="0.78972">
        <ele>242.4296875</ele>
      </trkpt>
      <trkpt lat="45.89294" lon="0.78968">
        <ele>244.30859375</ele>
      </trkpt>
      <trkpt lat="45.89323" lon="0.78968">
        <ele>245.60546875</ele>
      </trkpt>
      <trkpt lat="45.89347" lon="0.78965">
        <ele>246.25</ele>
      </trkpt>
      <trkpt lat="45.89374" lon="0.78958">
        <ele>247.0234375</ele>
      </trkpt>
      <trkpt lat="45.89384" lon="0.78957">
        <ele>247.41015625</ele>
      </trkpt>
      <trkpt lat="45.89392" lon="0.78956">
        <ele>247.7109375</ele>
      </trkpt>
      <trkpt lat="45.89396" lon="0.78991">
        <ele>247.203125</ele>
      </trkpt>
      <trkpt lat="45.89399" lon="0.79032">
        <ele>246.58984375</ele>
      </trkpt>
      <trkpt lat="45.89404" lon="0.7908">
        <ele>246.09375</ele>
      </trkpt>
      <trkpt lat="45.89407" lon="0.79136">
        <ele>245.10546875</ele>
      </trkpt>
      <trkpt lat="45.89413" lon="0.79209">
        <ele>243.80078125</ele>
      </trkpt>
      <trkpt lat="45.8942" lon="0.79286">
        <ele>245.92578125</ele>
      </trkpt>
      <trkpt lat="45.89428" lon="0.79377">
        <ele>251.06640625</ele>
      </trkpt>
      <trkpt lat="45.89437" lon="0.79447">
        <ele>254.41015625</ele>
      </trkpt>
      <trkpt lat="45.89441" lon="0.79512">
        <ele>255.3515625</ele>
      </trkpt>
      <trkpt lat="45.89447" lon="0.79545">
        <ele>255.86328125</ele>
      </trkpt>
      <trkpt lat="45.89453" lon="0.7955">
        <ele>256.4296875</ele>
      </trkpt>
      <trkpt lat="45.89461" lon="0.79548">
        <ele>257.1640625</ele>
      </trkpt>
      <trkpt lat="45.89494" lon="0.79545">
        <ele>259.390625</ele>
      </trkpt>
      <trkpt lat="45.89506" lon="0.79544">
        <ele>259.7265625</ele>
      </trkpt>
      <trkpt lat="45.89513" lon="0.79555">
        <ele>260.04296875</ele>
      </trkpt>
      <trkpt lat="45.89518" lon="0.79578">
        <ele>260.04296875</ele>
      </trkpt>
      <trkpt lat="45.89537" lon="0.79655">
        <ele>259.984375</ele>
      </trkpt>
      <trkpt lat="45.89545" lon="0.79682">
        <ele>260.140625</ele>
      </trkpt>
      <trkpt lat="45.89552" lon="0.79728">
        <ele>260.265625</ele>
      </trkpt>
      <trkpt lat="45.8956" lon="0.79763">
        <ele>260.421875</ele>
      </trkpt>
      <trkpt lat="45.8958" lon="0.79818">
        <ele>260.90625</ele>
      </trkpt>
      <trkpt lat="45.89605" lon="0.79879">
        <ele>260.37109375</ele>
      </trkpt>
      <trkpt lat="45.89626" lon="0.7993">
        <ele>257.99609375</ele>
      </trkpt>
      <trkpt lat="45.89636" lon="0.79961">
        <ele>256.171875</ele>
      </trkpt>
      <trkpt lat="45.8965" lon="0.79985">
        <ele>254.046875</ele>
      </trkpt>
      <trkpt lat="45.8966" lon="0.80014">
        <ele>252.0859375</ele>
      </trkpt>
      <trkpt lat="45.89671" lon="0.80058">
        <ele>249.55078125</ele>
      </trkpt>
      <trkpt lat="45.89678" lon="0.80076">
        <ele>248.25</ele>
      </trkpt>
      <trkpt lat="45.89686" lon="0.8009">
        <ele>247.12890625</ele>
      </trkpt>
      <trkpt lat="45.89699" lon="0.801">
        <ele>245.95703125</ele>
      </trkpt>
      <trkpt lat="45.8971" lon="0.80115">
        <ele>244.65625</ele>
      </trkpt>
      <trkpt lat="45.89714" lon="0.80113">
        <ele>244.42578125</ele>
      </trkpt>
      <trkpt lat="45.89719" lon="0.801">
        <ele>244.74609375</ele>
      </trkpt>
      <trkpt lat="45.8973" lon="0.80078">
        <ele>245.2265625</ele>
      </trkpt>
      <trkpt lat="45.89739" lon="0.80061">
        <ele>245.7578125</ele>
      </trkpt>
      <trkpt lat="45.89748" lon="0.80054">
        <ele>245.83203125</ele>
      </trkpt>
      <trkpt lat="45.89758" lon="0.80055">
        <ele>245.4453125</ele>
      </trkpt>
      <trkpt lat="45.89777" lon="0.80056">
        <ele>244.3671875</ele>
      </trkpt>
      <trkpt lat="45.89789" lon="0.80059">
        <ele>243.57421875</ele>
      </trkpt>
      <trkpt lat="45.89812" lon="0.8005">
        <ele>242.80859375</ele>
      </trkpt>
      <trkpt lat="45.89845" lon="0.80038">
        <ele>242.53515625</ele>
      </trkpt>
      <trkpt lat="45.8987" lon="0.80026">
        <ele>242.32421875</ele>
      </trkpt>
      <trkpt lat="45.89889" lon="0.8002">
        <ele>242.5390625</ele>
      </trkpt>
      <trkpt lat="45.89911" lon="0.80016">
        <ele>242.671875</ele>
      </trkpt>
      <trkpt lat="45.89927" lon="0.80016">
        <ele>242.7265625</ele>
      </trkpt>
      <trkpt lat="45.89934" lon="0.80015">
        <ele>243.1640625</ele>
      </trkpt>
      <trkpt lat="45.89942" lon="0.80011">
        <ele>243.703125</ele>
      </trkpt>
      <trkpt lat="45.89963" lon="0.80007">
        <ele>245.0234375</ele>
      </trkpt>
      <trkpt lat="45.89972" lon="0.80003">
        <ele>245.62890625</ele>
      </trkpt>
      <trkpt lat="45.89973" lon="0.80003">
        <ele>245.69921875</ele>
      </trkpt>
      <trkpt lat="45.89986" lon="0.80004">
        <ele>246.28515625</ele>
      </trkpt>
      <trkpt lat="45.90004" lon="0.80011">
        <ele>246.69140625</ele>
      </trkpt>
      <trkpt lat="45.90021" lon="0.80015">
        <ele>247.13671875</ele>
      </trkpt>
      <trkpt lat="45.90037" lon="0.80021">
        <ele>247.5078125</ele>
      </trkpt>
      <trkpt lat="45.9005" lon="0.80021">
        <ele>247.4453125</ele>
      </trkpt>
      <trkpt lat="45.90066" lon="0.80018">
        <ele>247.5</ele>
      </trkpt>
      <trkpt lat="45.90079" lon="0.8001">
        <ele>247.859375</ele>
      </trkpt>
      <trkpt lat="45.90095" lon="0.79999">
        <ele>248.3828125</ele>
      </trkpt>
      <trkpt lat="45.90105" lon="0.79992">
        <ele>248.55859375</ele>
      </trkpt>
      <trkpt lat="45.90117" lon="0.79986">
        <ele>248.6875</ele>
      </trkpt>
      <trkpt lat="45.90134" lon="0.79978">
        <ele>248.82421875</ele>
      </trkpt>
      <trkpt lat="45.9015" lon="0.79974">
        <ele>248.6875</ele>
      </trkpt>
      <trkpt lat="45.90175" lon="0.79971">
        <ele>247.9765625</ele>
      </trkpt>
      <trkpt lat="45.90191" lon="0.79972">
        <ele>247.2890625</ele>
      </trkpt>
      <trkpt lat="45.90207" lon="0.79971">
        <ele>246.88671875</ele>
      </trkpt>
      <trkpt lat="45.90225" lon="0.7997">
        <ele>246.4765625</ele>
      </trkpt>
      <trkpt lat="45.90235" lon="0.79962">
        <ele>246.4765625</ele>
      </trkpt>
      <trkpt lat="45.90243" lon="0.79948">
        <ele>246.71484375</ele>
      </trkpt>
      <trkpt lat="45.90251" lon="0.7993">
        <ele>247.13671875</ele>
      </trkpt>
      <trkpt lat="45.90257" lon="0.7991">
        <ele>247.5703125</ele>
      </trkpt>
      <trkpt lat="45.90263" lon="0.79893">
        <ele>248.09765625</ele>
      </trkpt>
      <trkpt lat="45.90268" lon="0.79875">
        <ele>248.8125</ele>
      </trkpt>
      <trkpt lat="45.90271" lon="0.79862">
        <ele>249.3359375</ele>
      </trkpt>
      <trkpt lat="45.9027" lon="0.79847">
        <ele>249.94140625</ele>
      </trkpt>
      <trkpt lat="45.90268" lon="0.79824">
        <ele>250.73828125</ele>
      </trkpt>
      <trkpt lat="45.90266" lon="0.79799">
        <ele>251.625</ele>
      </trkpt>
      <trkpt lat="45.90263" lon="0.79767">
        <ele>253.3203125</ele>
      </trkpt>
      <trkpt lat="45.90262" lon="0.79733">
        <ele>255.671875</ele>
      </trkpt>
      <trkpt lat="45.90256" lon="0.79705">
        <ele>257.76953125</ele>
      </trkpt>
      <trkpt lat="45.90244" lon="0.79669">
        <ele>260.69921875</ele>
      </trkpt>
      <trkpt lat="45.90235" lon="0.79647">
        <ele>263.00390625</ele>
      </trkpt>
      <trkpt lat="45.9022" lon="0.796">
        <ele>267.5703125</ele>
      </trkpt>
      <trkpt lat="45.9021" lon="0.79562">
        <ele>270.03515625</ele>
      </trkpt>
      <trkpt lat="45.90198" lon="0.7952">
        <ele>271.41796875</ele>
      </trkpt>
      <trkpt lat="45.9019" lon="0.79497">
        <ele>272.06640625</ele>
      </trkpt>
      <trkpt lat="45.90181" lon="0.7946">
        <ele>272.94921875</ele>
      </trkpt>
      <trkpt lat="45.90174" lon="0.79429">
        <ele>273.75390625</ele>
      </trkpt>
      <trkpt lat="45.90166" lon="0.79394">
        <ele>274.7265625</ele>
      </trkpt>
      <trkpt lat="45.90159" lon="0.79362">
        <ele>275.66015625</ele>
      </trkpt>
      <trkpt lat="45.90157" lon="0.79343">
        <ele>276.24609375</ele>
      </trkpt>
      <trkpt lat="45.90154" lon="0.79327">
        <ele>276.23828125</ele>
      </trkpt>
      <trkpt lat="45.90149" lon="0.79316">
        <ele>276.0546875</ele>
      </trkpt>
      <trkpt lat="45.9014" lon="0.79309">
        <ele>275.609375</ele>
      </trkpt>
      <trkpt lat="45.9012" lon="0.79295">
        <ele>274.48828125</ele>
      </trkpt>
      <trkpt lat="45.90104" lon="0.79283">
        <ele>273.671875</ele>
      </trkpt>
      <trkpt lat="45.90092" lon="0.79268">
        <ele>273.3046875</ele>
      </trkpt>
      <trkpt lat="45.90083" lon="0.79256">
        <ele>273.2734375</ele>
      </trkpt>
      <trkpt lat="45.90073" lon="0.79243">
        <ele>273.1484375</ele>
      </trkpt>
      <trkpt lat="45.90073" lon="0.79237">
        <ele>273.2265625</ele>
      </trkpt>
      <trkpt lat="45.90075" lon="0.79231">
        <ele>273.3671875</ele>
      </trkpt>
      <trkpt lat="45.90082" lon="0.79229">
        <ele>273.6328125</ele>
      </trkpt>
      <trkpt lat="45.90113" lon="0.7922">
        <ele>274.7421875</ele>
      </trkpt>
      <trkpt lat="45.90143" lon="0.79213">
        <ele>275.828125</ele>
      </trkpt>
      <trkpt lat="45.90173" lon="0.79203">
        <ele>276.69140625</ele>
      </trkpt>
      <trkpt lat="45.90197" lon="0.79197">
        <ele>277.2578125</ele>
      </trkpt>
      <trkpt lat="45.90219" lon="0.79193">
        <ele>277.4296875</ele>
      </trkpt>
      <trkpt lat="45.90245" lon="0.79188">
        <ele>277.4375</ele>
      </trkpt>
      <trkpt lat="45.90264" lon="0.79183">
        <ele>277.33984375</ele>
      </trkpt>
      <trkpt lat="45.90281" lon="0.79184">
        <ele>277.37109375</ele>
      </trkpt>
      <trkpt lat="45.90291" lon="0.79183">
        <ele>277.30859375</ele>
      </trkpt>
      <trkpt lat="45.90317" lon="0.79207">
        <ele>278.1484375</ele>
      </trkpt>
      <trkpt lat="45.90346" lon="0.79229">
        <ele>278.40625</ele>
      </trkpt>
      <trkpt lat="45.9036" lon="0.79243">
        <ele>278.671875</ele>
      </trkpt>
      <trkpt lat="45.9038" lon="0.7926">
        <ele>279.01171875</ele>
      </trkpt>
      <trkpt lat="45.90414" lon="0.79286">
        <ele>280</ele>
      </trkpt>
      <trkpt lat="45.90457" lon="0.79316">
        <ele>280</ele>
      </trkpt>
      <trkpt lat="45.90482" lon="0.79335">
        <ele>279.9765625</ele>
      </trkpt>
      <trkpt lat="45.90502" lon="0.79347">
        <ele>279.3359375</ele>
      </trkpt>
      <trkpt lat="45.90513" lon="0.79366">
        <ele>278.26171875</ele>
      </trkpt>
      <trkpt lat="45.90523" lon="0.79379">
        <ele>277.33984375</ele>
      </trkpt>
      <trkpt lat="45.90531" lon="0.79385">
        <ele>276.78515625</ele>
      </trkpt>
      <trkpt lat="45.90545" lon="0.79386">
        <ele>276.3515625</ele>
      </trkpt>
      <trkpt lat="45.90559" lon="0.79391">
        <ele>275.83203125</ele>
      </trkpt>
      <trkpt lat="45.90575" lon="0.79398">
        <ele>275.1875</ele>
      </trkpt>
      <trkpt lat="45.90588" lon="0.79411">
        <ele>274.2734375</ele>
      </trkpt>
      <trkpt lat="45.90599" lon="0.79422">
        <ele>273.48046875</ele>
      </trkpt>
      <trkpt lat="45.90627" lon="0.79456">
        <ele>271.15234375</ele>
      </trkpt>
      <trkpt lat="45.90641" lon="0.79467">
        <ele>270.265625</ele>
      </trkpt>
      <trkpt lat="45.90667" lon="0.7949">
        <ele>268.08984375</ele>
      </trkpt>
      <trkpt lat="45.90686" lon="0.79503">
        <ele>266.2734375</ele>
      </trkpt>
      <trkpt lat="45.90699" lon="0.79515">
        <ele>264.81640625</ele>
      </trkpt>
      <trkpt lat="45.90729" lon="0.79536">
        <ele>263.9453125</ele>
      </trkpt>
      <trkpt lat="45.90748" lon="0.79547">
        <ele>264.01953125</ele>
      </trkpt>
      <trkpt lat="45.9077" lon="0.79565">
        <ele>264.58984375</ele>
      </trkpt>
      <trkpt lat="45.90804" lon="0.7961">
        <ele>266.32421875</ele>
      </trkpt>
      <trkpt lat="45.90831" lon="0.79652">
        <ele>267.109375</ele>
      </trkpt>
      <trkpt lat="45.90855" lon="0.7968">
        <ele>267.34375</ele>
      </trkpt>
      <trkpt lat="45.90893" lon="0.79736">
        <ele>268.37890625</ele>
      </trkpt>
      <trkpt lat="45.90928" lon="0.79788">
        <ele>271.13671875</ele>
      </trkpt>
      <trkpt lat="45.90955" lon="0.79833">
        <ele>272.9296875</ele>
      </trkpt>
      <trkpt lat="45.90973" lon="0.79865">
        <ele>274.21875</ele>
      </trkpt>
      <trkpt lat="45.90994" lon="0.79896">
        <ele>274.765625</ele>
      </trkpt>
      <trkpt lat="45.91005" lon="0.79913">
        <ele>274.12109375</ele>
      </trkpt>
      <trkpt lat="45.91012" lon="0.79914">
        <ele>273.91796875</ele>
      </trkpt>
      <trkpt lat="45.91018" lon="0.79907">
        <ele>273.9765625</ele>
      </trkpt>
      <trkpt lat="45.91029" lon="0.79894">
        <ele>274.16015625</ele>
      </trkpt>
      <trkpt lat="45.91046" lon="0.79866">
        <ele>274.29296875</ele>
      </trkpt>
      <trkpt lat="45.91094" lon="0.79777">
        <ele>275.1015625</ele>
      </trkpt>
      <trkpt lat="45.91114" lon="0.79719">
        <ele>275.59375</ele>
      </trkpt>
      <trkpt lat="45.91135" lon="0.79653">
        <ele>275.2109375</ele>
      </trkpt>
      <trkpt lat="45.91147" lon="0.79607">
        <ele>275.1875</ele>
      </trkpt>
      <trkpt lat="45.91153" lon="0.79582">
        <ele>275.44140625</ele>
      </trkpt>
      <trkpt lat="45.91161" lon="0.79565">
        <ele>275.48046875</ele>
      </trkpt>
      <trkpt lat="45.91192" lon="0.79428">
        <ele>276.53515625</ele>
      </trkpt>
      <trkpt lat="45.91237" lon="0.79223">
        <ele>274.9296875</ele>
      </trkpt>
      <trkpt lat="45.91247" lon="0.79181">
        <ele>275.80859375</ele>
      </trkpt>
      <trkpt lat="45.91255" lon="0.79164">
        <ele>276</ele>
      </trkpt>
      <trkpt lat="45.91261" lon="0.79152">
        <ele>275.93359375</ele>
      </trkpt>
      <trkpt lat="45.91266" lon="0.79135">
        <ele>275.9140625</ele>
      </trkpt>
      <trkpt lat="45.91271" lon="0.79117">
        <ele>276</ele>
      </trkpt>
      <trkpt lat="45.91273" lon="0.79102">
        <ele>276</ele>
      </trkpt>
      <trkpt lat="45.91288" lon="0.79099">
        <ele>276</ele>
      </trkpt>
      <trkpt lat="45.91318" lon="0.79096">
        <ele>275.92578125</ele>
      </trkpt>
      <trkpt lat="45.91355" lon="0.791">
        <ele>275.2578125</ele>
      </trkpt>
      <trkpt lat="45.91492" lon="0.79117">
        <ele>268.37109375</ele>
      </trkpt>
      <trkpt lat="45.91569" lon="0.79131">
        <ele>265.1796875</ele>
      </trkpt>
      <trkpt lat="45.91585" lon="0.79139">
        <ele>264.73828125</ele>
      </trkpt>
      <trkpt lat="45.91596" lon="0.79153">
        <ele>264.26953125</ele>
      </trkpt>
      <trkpt lat="45.91607" lon="0.79167">
        <ele>263.796875</ele>
      </trkpt>
      <trkpt lat="45.91625" lon="0.79198">
        <ele>263.22265625</ele>
      </trkpt>
      <trkpt lat="45.91638" lon="0.79234">
        <ele>262.98828125</ele>
      </trkpt>
      <trkpt lat="45.91653" lon="0.79287">
        <ele>262.96484375</ele>
      </trkpt>
      <trkpt lat="45.91662" lon="0.79323">
        <ele>262.30859375</ele>
      </trkpt>
      <trkpt lat="45.91671" lon="0.79368">
        <ele>261.01171875</ele>
      </trkpt>
      <trkpt lat="45.91681" lon="0.79385">
        <ele>260.38671875</ele>
      </trkpt>
      <trkpt lat="45.91695" lon="0.79404">
        <ele>259.53125</ele>
      </trkpt>
      <trkpt lat="45.91717" lon="0.79424">
        <ele>258.60546875</ele>
      </trkpt>
      <trkpt lat="45.91736" lon="0.79444">
        <ele>257.95703125</ele>
      </trkpt>
      <trkpt lat="45.91746" lon="0.79454">
        <ele>257.703125</ele>
      </trkpt>
      <trkpt lat="45.91757" lon="0.79493">
        <ele>257.21484375</ele>
      </trkpt>
      <trkpt lat="45.91767" lon="0.79522">
        <ele>256.82421875</ele>
      </trkpt>
      <trkpt lat="45.91772" lon="0.79538">
        <ele>256.53515625</ele>
      </trkpt>
      <trkpt lat="45.91777" lon="0.79559">
        <ele>256.12109375</ele>
      </trkpt>
      <trkpt lat="45.9178" lon="0.79581">
        <ele>256.05859375</ele>
      </trkpt>
      <trkpt lat="45.91784" lon="0.79617">
        <ele>255.9375</ele>
      </trkpt>
      <trkpt lat="45.91786" lon="0.79661">
        <ele>255.24609375</ele>
      </trkpt>
      <trkpt lat="45.91785" lon="0.79719">
        <ele>253.78125</ele>
      </trkpt>
      <trkpt lat="45.91783" lon="0.79749">
        <ele>252.56640625</ele>
      </trkpt>
      <trkpt lat="45.91781" lon="0.7977">
        <ele>251.66015625</ele>
      </trkpt>
      <trkpt lat="45.91786" lon="0.79787">
        <ele>250.80859375</ele>
      </trkpt>
      <trkpt lat="45.9181" lon="0.79831">
        <ele>247.671875</ele>
      </trkpt>
      <trkpt lat="45.9182" lon="0.79851">
        <ele>245.8828125</ele>
      </trkpt>
      <trkpt lat="45.91846" lon="0.799">
        <ele>241.17578125</ele>
      </trkpt>
      <trkpt lat="45.91886" lon="0.79973">
        <ele>239.1796875</ele>
      </trkpt>
      <trkpt lat="45.91908" lon="0.80001">
        <ele>238.53125</ele>
      </trkpt>
      <trkpt lat="45.91935" lon="0.80045">
        <ele>236.69140625</ele>
      </trkpt>
      <trkpt lat="45.91957" lon="0.80103">
        <ele>233.76171875</ele>
      </trkpt>
      <trkpt lat="45.91974" lon="0.80146">
        <ele>231.765625</ele>
      </trkpt>
      <trkpt lat="45.91987" lon="0.80171">
        <ele>230.4453125</ele>
      </trkpt>
      <trkpt lat="45.91995" lon="0.80185">
        <ele>229.328125</ele>
      </trkpt>
      <trkpt lat="45.92006" lon="0.80195">
        <ele>228.26953125</ele>
      </trkpt>
      <trkpt lat="45.92022" lon="0.80214">
        <ele>226.83203125</ele>
      </trkpt>
      <trkpt lat="45.92045" lon="0.8023">
        <ele>225.3046875</ele>
      </trkpt>
      <trkpt lat="45.92056" lon="0.80237">
        <ele>224.58203125</ele>
      </trkpt>
      <trkpt lat="45.92071" lon="0.8025">
        <ele>223.65625</ele>
      </trkpt>
      <trkpt lat="45.92116" lon="0.80282">
        <ele>221.5859375</ele>
      </trkpt>
      <trkpt lat="45.92143" lon="0.80299">
        <ele>220.17578125</ele>
      </trkpt>
      <trkpt lat="45.92175" lon="0.80297">
        <ele>217.9375</ele>
      </trkpt>
      <trkpt lat="45.92222" lon="0.80304">
        <ele>213.859375</ele>
      </trkpt>
      <trkpt lat="45.92254" lon="0.80304">
        <ele>210.36328125</ele>
      </trkpt>
      <trkpt lat="45.92328" lon="0.80315">
        <ele>212.3203125</ele>
      </trkpt>
      <trkpt lat="45.92387" lon="0.80333">
        <ele>215.1640625</ele>
      </trkpt>
      <trkpt lat="45.92427" lon="0.80367">
        <ele>216.359375</ele>
      </trkpt>
      <trkpt lat="45.9252" lon="0.80416">
        <ele>214.9296875</ele>
      </trkpt>
      <trkpt lat="45.92603" lon="0.8046">
        <ele>213.50390625</ele>
      </trkpt>
      <trkpt lat="45.92675" lon="0.80507">
        <ele>216.01953125</ele>
      </trkpt>
      <trkpt lat="45.92707" lon="0.80583">
        <ele>218.40234375</ele>
      </trkpt>
      <trkpt lat="45.92732" lon="0.80583">
        <ele>218.5703125</ele>
      </trkpt>
      <trkpt lat="45.92742" lon="0.80568">
        <ele>218.19140625</ele>
      </trkpt>
      <trkpt lat="45.92749" lon="0.80541">
        <ele>217.23828125</ele>
      </trkpt>
      <trkpt lat="45.92772" lon="0.80531">
        <ele>217.29296875</ele>
      </trkpt>
      <trkpt lat="45.92825" lon="0.80524">
        <ele>218.54296875</ele>
      </trkpt>
      <trkpt lat="45.92881" lon="0.80512">
        <ele>219.10546875</ele>
      </trkpt>
      <trkpt lat="45.92894" lon="0.80497">
        <ele>218.56640625</ele>
      </trkpt>
      <trkpt lat="45.92905" lon="0.80468">
        <ele>217.15625</ele>
      </trkpt>
      <trkpt lat="45.9291" lon="0.80455">
        <ele>216.45703125</ele>
      </trkpt>
      <trkpt lat="45.92917" lon="0.80447">
        <ele>215.859375</ele>
      </trkpt>
      <trkpt lat="45.92934" lon="0.80441">
        <ele>214.89453125</ele>
      </trkpt>
      <trkpt lat="45.9297" lon="0.80437">
        <ele>213.3203125</ele>
      </trkpt>
      <trkpt lat="45.93004" lon="0.80429">
        <ele>211.08203125</ele>
      </trkpt>
      <trkpt lat="45.93018" lon="0.80436">
        <ele>210.84765625</ele>
      </trkpt>
      <trkpt lat="45.93033" lon="0.80436">
        <ele>210.0234375</ele>
      </trkpt>
      <trkpt lat="45.93074" lon="0.8043">
        <ele>208.36328125</ele>
      </trkpt>
      <trkpt lat="45.93129" lon="0.80412">
        <ele>206.42578125</ele>
      </trkpt>
      <trkpt lat="45.93167" lon="0.80397">
        <ele>205.12109375</ele>
      </trkpt>
      <trkpt lat="45.9319" lon="0.80385">
        <ele>204.26953125</ele>
      </trkpt>
      <trkpt lat="45.93213" lon="0.80376">
        <ele>203.2265625</ele>
      </trkpt>
      <trkpt lat="45.93235" lon="0.8037">
        <ele>202.23046875</ele>
      </trkpt>
      <trkpt lat="45.93257" lon="0.80373">
        <ele>201.796875</ele>
      </trkpt>
      <trkpt lat="45.9327" lon="0.80376">
        <ele>201.33203125</ele>
      </trkpt>
      <trkpt lat="45.93278" lon="0.80372">
        <ele>200.73046875</ele>
      </trkpt>
      <trkpt lat="45.93304" lon="0.80347">
        <ele>198.5859375</ele>
      </trkpt>
      <trkpt lat="45.93324" lon="0.80321">
        <ele>196.42578125</ele>
      </trkpt>
      <trkpt lat="45.93333" lon="0.80313">
        <ele>195.625</ele>
      </trkpt>
      <trkpt lat="45.93346" lon="0.80303">
        <ele>194.5859375</ele>
      </trkpt>
      <trkpt lat="45.93356" lon="0.80305">
        <ele>194.25</ele>
      </trkpt>
      <trkpt lat="45.9338" lon="0.80305">
        <ele>193.37109375</ele>
      </trkpt>
      <trkpt lat="45.93396" lon="0.80296">
        <ele>192.703125</ele>
      </trkpt>
      <trkpt lat="45.93408" lon="0.80284">
        <ele>192.2734375</ele>
      </trkpt>
      <trkpt lat="45.93425" lon="0.80257">
        <ele>191.484375</ele>
      </trkpt>
      <trkpt lat="45.93448" lon="0.80228">
        <ele>190.54296875</ele>
      </trkpt>
      <trkpt lat="45.93453" lon="0.80222">
        <ele>190.33203125</ele>
      </trkpt>
      <trkpt lat="45.93473" lon="0.80211">
        <ele>189.78515625</ele>
      </trkpt>
      <trkpt lat="45.93513" lon="0.80211">
        <ele>189.68359375</ele>
      </trkpt>
      <trkpt lat="45.93532" lon="0.80209">
        <ele>189.63671875</ele>
      </trkpt>
      <trkpt lat="45.93579" lon="0.80208">
        <ele>190.42578125</ele>
      </trkpt>
      <trkpt lat="45.93626" lon="0.80211">
        <ele>191.32421875</ele>
      </trkpt>
      <trkpt lat="45.9367" lon="0.80217">
        <ele>192.21484375</ele>
      </trkpt>
      <trkpt lat="45.93701" lon="0.80221">
        <ele>192.85546875</ele>
      </trkpt>
      <trkpt lat="45.93741" lon="0.80203">
        <ele>192.53125</ele>
      </trkpt>
      <trkpt lat="45.93773" lon="0.80182">
        <ele>192.203125</ele>
      </trkpt>
      <trkpt lat="45.93806" lon="0.80182">
        <ele>192.296875</ele>
      </trkpt>
      <trkpt lat="45.93854" lon="0.80177">
        <ele>193.64453125</ele>
      </trkpt>
      <trkpt lat="45.93894" lon="0.80159">
        <ele>194.06640625</ele>
      </trkpt>
      <trkpt lat="45.93917" lon="0.80143">
        <ele>194.28515625</ele>
      </trkpt>
      <trkpt lat="45.9395" lon="0.80128">
        <ele>195.0390625</ele>
      </trkpt>
      <trkpt lat="45.93991" lon="0.80117">
        <ele>195.7734375</ele>
      </trkpt>
      <trkpt lat="45.93849" lon="0.80419">
        <ele>198.21875</ele>
      </trkpt>
      <trkpt lat="45.9372" lon="0.80725">
        <ele>202.66015625</ele>
      </trkpt>
      <trkpt lat="45.93682" lon="0.80816">
        <ele>202.02734375</ele>
      </trkpt>
      <trkpt lat="45.93655" lon="0.80853">
        <ele>201.796875</ele>
      </trkpt>
      <trkpt lat="45.93687" lon="0.80889">
        <ele>204.27734375</ele>
      </trkpt>
      <trkpt lat="45.93687" lon="0.80899">
        <ele>204.64453125</ele>
      </trkpt>
      <trkpt lat="45.9372" lon="0.80934">
        <ele>206.7265625</ele>
      </trkpt>
      <trkpt lat="45.93771" lon="0.81">
        <ele>211.20703125</ele>
      </trkpt>
      <trkpt lat="45.93815" lon="0.81055">
        <ele>215.6796875</ele>
      </trkpt>
      <trkpt lat="45.93873" lon="0.81095">
        <ele>218.13671875</ele>
      </trkpt>
      <trkpt lat="45.93872" lon="0.81178">
        <ele>221.01171875</ele>
      </trkpt>
      <trkpt lat="45.93874" lon="0.81232">
        <ele>221.875</ele>
      </trkpt>
      <trkpt lat="45.93879" lon="0.81349">
        <ele>223.58203125</ele>
      </trkpt>
      <trkpt lat="45.93885" lon="0.81453">
        <ele>222.94140625</ele>
      </trkpt>
      <trkpt lat="45.9389" lon="0.81564">
        <ele>220.20703125</ele>
      </trkpt>
      <trkpt lat="45.93887" lon="0.81636">
        <ele>221.66015625</ele>
      </trkpt>
      <trkpt lat="45.93885" lon="0.81686">
        <ele>223.296875</ele>
      </trkpt>
      <trkpt lat="45.93889" lon="0.81725">
        <ele>223.78125</ele>
      </trkpt>
      <trkpt lat="45.93904" lon="0.81778">
        <ele>223.9296875</ele>
      </trkpt>
      <trkpt lat="45.93927" lon="0.81805">
        <ele>223.640625</ele>
      </trkpt>
      <trkpt lat="45.93949" lon="0.8184">
        <ele>224.11328125</ele>
      </trkpt>
      <trkpt lat="45.93976" lon="0.81901">
        <ele>225.26953125</ele>
      </trkpt>
      <trkpt lat="45.93967" lon="0.81949">
        <ele>226.97265625</ele>
      </trkpt>
      <trkpt lat="45.9397" lon="0.82016">
        <ele>227.8203125</ele>
      </trkpt>
      <trkpt lat="45.93978" lon="0.82086">
        <ele>226.1171875</ele>
      </trkpt>
      <trkpt lat="45.93982" lon="0.82133">
        <ele>224.49609375</ele>
      </trkpt>
      <trkpt lat="45.93964" lon="0.82154">
        <ele>224.765625</ele>
      </trkpt>
      <trkpt lat="45.93854" lon="0.82166">
        <ele>224.47265625</ele>
      </trkpt>
      <trkpt lat="45.93828" lon="0.8217">
        <ele>223.55078125</ele>
      </trkpt>
      <trkpt lat="45.93815" lon="0.8219">
        <ele>223.390625</ele>
      </trkpt>
      <trkpt lat="45.93797" lon="0.82195">
        <ele>222.72265625</ele>
      </trkpt>
      <trkpt lat="45.93642" lon="0.82193">
        <ele>216.62109375</ele>
      </trkpt>
      <trkpt lat="45.9357" lon="0.8218">
        <ele>213.765625</ele>
      </trkpt>
      <trkpt lat="45.93493" lon="0.82176">
        <ele>210.8046875</ele>
      </trkpt>
      <trkpt lat="45.93475" lon="0.82173">
        <ele>209.8203125</ele>
      </trkpt>
      <trkpt lat="45.93457" lon="0.82177">
        <ele>208.8359375</ele>
      </trkpt>
      <trkpt lat="45.93443" lon="0.82192">
        <ele>208.15625</ele>
      </trkpt>
      <trkpt lat="45.93436" lon="0.82207">
        <ele>207.83984375</ele>
      </trkpt>
      <trkpt lat="45.93433" lon="0.82226">
        <ele>207.6953125</ele>
      </trkpt>
      <trkpt lat="45.93435" lon="0.82243">
        <ele>207.5703125</ele>
      </trkpt>
      <trkpt lat="45.93432" lon="0.82254">
        <ele>207.12890625</ele>
      </trkpt>
      <trkpt lat="45.93452" lon="0.8228">
        <ele>208.12109375</ele>
      </trkpt>
      <trkpt lat="45.93507" lon="0.82357">
        <ele>210.8828125</ele>
      </trkpt>
      <trkpt lat="45.93523" lon="0.82383">
        <ele>212.015625</ele>
      </trkpt>
      <trkpt lat="45.93531" lon="0.82397">
        <ele>212.6015625</ele>
      </trkpt>
      <trkpt lat="45.93535" lon="0.82415">
        <ele>212.65625</ele>
      </trkpt>
      <trkpt lat="45.93538" lon="0.82439">
        <ele>212.37109375</ele>
      </trkpt>
      <trkpt lat="45.93536" lon="0.82468">
        <ele>211.41015625</ele>
      </trkpt>
      <trkpt lat="45.93531" lon="0.82508">
        <ele>209.625</ele>
      </trkpt>
      <trkpt lat="45.93531" lon="0.82528">
        <ele>208.9296875</ele>
      </trkpt>
      <trkpt lat="45.93533" lon="0.82548">
        <ele>208.34375</ele>
      </trkpt>
      <trkpt lat="45.93545" lon="0.82572">
        <ele>208.49609375</ele>
      </trkpt>
      <trkpt lat="45.93568" lon="0.82609">
        <ele>208.7578125</ele>
      </trkpt>
      <trkpt lat="45.93575" lon="0.82624">
        <ele>208.8984375</ele>
      </trkpt>
      <trkpt lat="45.9358" lon="0.82641">
        <ele>209.34375</ele>
      </trkpt>
      <trkpt lat="45.93581" lon="0.8266">
        <ele>209.75</ele>
      </trkpt>
      <trkpt lat="45.9358" lon="0.82695">
        <ele>210.48046875</ele>
      </trkpt>
      <trkpt lat="45.93581" lon="0.82718">
        <ele>210.96875</ele>
      </trkpt>
      <trkpt lat="45.93583" lon="0.82733">
        <ele>211.3203125</ele>
      </trkpt>
      <trkpt lat="45.93594" lon="0.82774">
        <ele>212.66796875</ele>
      </trkpt>
      <trkpt lat="45.93604" lon="0.82806">
        <ele>213.9140625</ele>
      </trkpt>
      <trkpt lat="45.93612" lon="0.82875">
        <ele>216.31640625</ele>
      </trkpt>
      <trkpt lat="45.9362" lon="0.82937">
        <ele>216.72265625</ele>
      </trkpt>
      <trkpt lat="45.93623" lon="0.82972">
        <ele>216.78515625</ele>
      </trkpt>
      <trkpt lat="45.93628" lon="0.82988">
        <ele>217.0546875</ele>
      </trkpt>
      <trkpt lat="45.93653" lon="0.83127">
        <ele>216.7578125</ele>
      </trkpt>
      <trkpt lat="45.93685" lon="0.8322">
        <ele>216.34375</ele>
      </trkpt>
      <trkpt lat="45.93695" lon="0.83252">
        <ele>217.24609375</ele>
      </trkpt>
      <trkpt lat="45.93704" lon="0.83297">
        <ele>218.66015625</ele>
      </trkpt>
      <trkpt lat="45.93719" lon="0.83381">
        <ele>220.91015625</ele>
      </trkpt>
      <trkpt lat="45.93728" lon="0.83425">
        <ele>221.42578125</ele>
      </trkpt>
      <trkpt lat="45.93734" lon="0.83448">
        <ele>221.765625</ele>
      </trkpt>
      <trkpt lat="45.93741" lon="0.83463">
        <ele>222.390625</ele>
      </trkpt>
      <trkpt lat="45.93752" lon="0.83473">
        <ele>223.1484375</ele>
      </trkpt>
      <trkpt lat="45.93769" lon="0.83481">
        <ele>224.5703125</ele>
      </trkpt>
      <trkpt lat="45.93826" lon="0.83505">
        <ele>228.734375</ele>
      </trkpt>
      <trkpt lat="45.93896" lon="0.83536">
        <ele>233.51171875</ele>
      </trkpt>
      <trkpt lat="45.93903" lon="0.8354">
        <ele>234.1328125</ele>
      </trkpt>
      <trkpt lat="45.93909" lon="0.83546">
        <ele>234.69921875</ele>
      </trkpt>
      <trkpt lat="45.93914" lon="0.83558">
        <ele>235.2109375</ele>
      </trkpt>
      <trkpt lat="45.93923" lon="0.83583">
        <ele>235.9453125</ele>
      </trkpt>
      <trkpt lat="45.93936" lon="0.83621">
        <ele>237.00390625</ele>
      </trkpt>
      <trkpt lat="45.9395" lon="0.83654">
        <ele>238.58984375</ele>
      </trkpt>
      <trkpt lat="45.9397" lon="0.83692">
        <ele>240.04296875</ele>
      </trkpt>
      <trkpt lat="45.93987" lon="0.83728">
        <ele>240.43359375</ele>
      </trkpt>
      <trkpt lat="45.94006" lon="0.83765">
        <ele>240.44140625</ele>
      </trkpt>
      <trkpt lat="45.94013" lon="0.83777">
        <ele>240.38671875</ele>
      </trkpt>
      <trkpt lat="45.94021" lon="0.838">
        <ele>239.6484375</ele>
      </trkpt>
      <trkpt lat="45.94026" lon="0.83815">
        <ele>239.03515625</ele>
      </trkpt>
      <trkpt lat="45.94028" lon="0.83841">
        <ele>237.828125</ele>
      </trkpt>
      <trkpt lat="45.94036" lon="0.83877">
        <ele>237.3828125</ele>
      </trkpt>
      <trkpt lat="45.94043" lon="0.8391">
        <ele>237.5078125</ele>
      </trkpt>
      <trkpt lat="45.94047" lon="0.83938">
        <ele>237.84765625</ele>
      </trkpt>
      <trkpt lat="45.94046" lon="0.83981">
        <ele>238.8828125</ele>
      </trkpt>
      <trkpt lat="45.94048" lon="0.8401">
        <ele>239.8125</ele>
      </trkpt>
      <trkpt lat="45.94051" lon="0.84027">
        <ele>240.18359375</ele>
      </trkpt>
      <trkpt lat="45.94067" lon="0.84038">
        <ele>241.03125</ele>
      </trkpt>
      <trkpt lat="45.94094" lon="0.84051">
        <ele>242.3984375</ele>
      </trkpt>
      <trkpt lat="45.9411" lon="0.8407">
        <ele>243.83984375</ele>
      </trkpt>
      <trkpt lat="45.94116" lon="0.84082">
        <ele>244.375</ele>
      </trkpt>
      <trkpt lat="45.94125" lon="0.84084">
        <ele>245.04296875</ele>
      </trkpt>
      <trkpt lat="45.94181" lon="0.84083">
        <ele>248.75390625</ele>
      </trkpt>
      <trkpt lat="45.94196" lon="0.84086">
        <ele>249.69140625</ele>
      </trkpt>
      <trkpt lat="45.94208" lon="0.8409">
        <ele>250.36328125</ele>
      </trkpt>
      <trkpt lat="45.94239" lon="0.84089">
        <ele>252.0625</ele>
      </trkpt>
      <trkpt lat="45.94307" lon="0.84089">
        <ele>256.671875</ele>
      </trkpt>
      <trkpt lat="45.94404" lon="0.841">
        <ele>256.859375</ele>
      </trkpt>
      <trkpt lat="45.94431" lon="0.84269">
        <ele>259.26953125</ele>
      </trkpt>
      <trkpt lat="45.9446" lon="0.8443">
        <ele>260.54296875</ele>
      </trkpt>
      <trkpt lat="45.94482" lon="0.84586">
        <ele>259.8046875</ele>
      </trkpt>
      <trkpt lat="45.94489" lon="0.84669">
        <ele>259.43359375</ele>
      </trkpt>
      <trkpt lat="45.94491" lon="0.84747">
        <ele>260.64453125</ele>
      </trkpt>
      <trkpt lat="45.94488" lon="0.84771">
        <ele>260.78515625</ele>
      </trkpt>
      <trkpt lat="45.94503" lon="0.84847">
        <ele>261.640625</ele>
      </trkpt>
      <trkpt lat="45.94511" lon="0.84871">
        <ele>261.765625</ele>
      </trkpt>
      <trkpt lat="45.94528" lon="0.84916">
        <ele>262</ele>
      </trkpt>
      <trkpt lat="45.9454" lon="0.84953">
        <ele>261.80078125</ele>
      </trkpt>
      <trkpt lat="45.94557" lon="0.84998">
        <ele>260.3125</ele>
      </trkpt>
      <trkpt lat="45.94572" lon="0.85042">
        <ele>258.92578125</ele>
      </trkpt>
      <trkpt lat="45.94548" lon="0.8507">
        <ele>259.61328125</ele>
      </trkpt>
      <trkpt lat="45.94528" lon="0.85094">
        <ele>260.7734375</ele>
      </trkpt>
      <trkpt lat="45.94516" lon="0.85111">
        <ele>261.28125</ele>
      </trkpt>
      <trkpt lat="45.94512" lon="0.85116">
        <ele>261.39453125</ele>
      </trkpt>
      <trkpt lat="45.94504" lon="0.85131">
        <ele>261.3828125</ele>
      </trkpt>
      <trkpt lat="45.94501" lon="0.85142">
        <ele>261.30078125</ele>
      </trkpt>
      <trkpt lat="45.94499" lon="0.85155">
        <ele>261.17578125</ele>
      </trkpt>
      <trkpt lat="45.94495" lon="0.85221">
        <ele>261.27734375</ele>
      </trkpt>
      <trkpt lat="45.94496" lon="0.85255">
        <ele>261.8359375</ele>
      </trkpt>
      <trkpt lat="45.94504" lon="0.85289">
        <ele>262.58984375</ele>
      </trkpt>
      <trkpt lat="45.94521" lon="0.8534">
        <ele>263.796875</ele>
      </trkpt>
      <trkpt lat="45.94536" lon="0.85408">
        <ele>265.90234375</ele>
      </trkpt>
      <trkpt lat="45.94542" lon="0.85473">
        <ele>269.12890625</ele>
      </trkpt>
      <trkpt lat="45.94548" lon="0.8555">
        <ele>271.328125</ele>
      </trkpt>
      <trkpt lat="45.9454" lon="0.85589">
        <ele>271.25390625</ele>
      </trkpt>
      <trkpt lat="45.94531" lon="0.85627">
        <ele>270.64453125</ele>
      </trkpt>
      <trkpt lat="45.94526" lon="0.85677">
        <ele>269.18359375</ele>
      </trkpt>
      <trkpt lat="45.9452" lon="0.85733">
        <ele>265.82421875</ele>
      </trkpt>
      <trkpt lat="45.94519" lon="0.85794">
        <ele>262.5390625</ele>
      </trkpt>
      <trkpt lat="45.94516" lon="0.85847">
        <ele>260.12109375</ele>
      </trkpt>
      <trkpt lat="45.94518" lon="0.85861">
        <ele>259.83984375</ele>
      </trkpt>
      <trkpt lat="45.94524" lon="0.85869">
        <ele>259.953125</ele>
      </trkpt>
      <trkpt lat="45.94537" lon="0.8588">
        <ele>260.42578125</ele>
      </trkpt>
      <trkpt lat="45.94561" lon="0.8589">
        <ele>261.5234375</ele>
      </trkpt>
      <trkpt lat="45.94614" lon="0.85899">
        <ele>263.77734375</ele>
      </trkpt>
      <trkpt lat="45.94693" lon="0.85913">
        <ele>267.2421875</ele>
      </trkpt>
      <trkpt lat="45.94786" lon="0.85925">
        <ele>270.01953125</ele>
      </trkpt>
      <trkpt lat="45.94807" lon="0.85926">
        <ele>270.12109375</ele>
      </trkpt>
      <trkpt lat="45.94893" lon="0.85922">
        <ele>270.08984375</ele>
      </trkpt>
      <trkpt lat="45.94948" lon="0.85941">
        <ele>271.0546875</ele>
      </trkpt>
      <trkpt lat="45.94971" lon="0.85948">
        <ele>271.73046875</ele>
      </trkpt>
      <trkpt lat="45.94992" lon="0.85951">
        <ele>272.375</ele>
      </trkpt>
      <trkpt lat="45.95024" lon="0.85954">
        <ele>273.203125</ele>
      </trkpt>
      <trkpt lat="45.95118" lon="0.85955">
        <ele>274.55859375</ele>
      </trkpt>
      <trkpt lat="45.95126" lon="0.8595">
        <ele>274.46484375</ele>
      </trkpt>
      <trkpt lat="45.95149" lon="0.85967">
        <ele>276.30078125</ele>
      </trkpt>
      <trkpt lat="45.95175" lon="0.85978">
        <ele>278.30078125</ele>
      </trkpt>
      <trkpt lat="45.95193" lon="0.85984">
        <ele>279.5625</ele>
      </trkpt>
      <trkpt lat="45.95242" lon="0.85997">
        <ele>283.7578125</ele>
      </trkpt>
      <trkpt lat="45.95266" lon="0.86002">
        <ele>285.53515625</ele>
      </trkpt>
      <trkpt lat="45.95292" lon="0.86009">
        <ele>286.9453125</ele>
      </trkpt>
      <trkpt lat="45.95322" lon="0.86033">
        <ele>288.453125</ele>
      </trkpt>
      <trkpt lat="45.95328" lon="0.86038">
        <ele>288.7265625</ele>
      </trkpt>
      <trkpt lat="45.95336" lon="0.86016">
        <ele>289.23828125</ele>
      </trkpt>
      <trkpt lat="45.95342" lon="0.85997">
        <ele>289.57421875</ele>
      </trkpt>
      <trkpt lat="45.95345" lon="0.85988">
        <ele>289.6484375</ele>
      </trkpt>
      <trkpt lat="45.95351" lon="0.85975">
        <ele>289.78125</ele>
      </trkpt>
      <trkpt lat="45.95359" lon="0.85964">
        <ele>289.94921875</ele>
      </trkpt>
      <trkpt lat="45.95363" lon="0.8595">
        <ele>289.91796875</ele>
      </trkpt>
      <trkpt lat="45.95369" lon="0.85926">
        <ele>288.76171875</ele>
      </trkpt>
      <trkpt lat="45.95373" lon="0.85897">
        <ele>287.03125</ele>
      </trkpt>
      <trkpt lat="45.95371" lon="0.85894">
        <ele>286.96484375</ele>
      </trkpt>
      <trkpt lat="45.95366" lon="0.85891">
        <ele>286.81640625</ele>
      </trkpt>
      <trkpt lat="45.95363" lon="0.85886">
        <ele>286.13671875</ele>
      </trkpt>
      <trkpt lat="45.95364" lon="0.8588">
        <ele>285.5</ele>
      </trkpt>
      <trkpt lat="45.95375" lon="0.85857">
        <ele>282.9765625</ele>
      </trkpt>
      <trkpt lat="45.9538" lon="0.85842">
        <ele>281.265625</ele>
      </trkpt>
      <trkpt lat="45.95382" lon="0.85835">
        <ele>280.46875</ele>
      </trkpt>
      <trkpt lat="45.95385" lon="0.85831">
        <ele>279.890625</ele>
      </trkpt>
      <trkpt lat="45.95399" lon="0.85835">
        <ele>280.24609375</ele>
      </trkpt>
      <trkpt lat="45.95405" lon="0.85837">
        <ele>280.3828125</ele>
      </trkpt>
      <trkpt lat="45.9541" lon="0.85838">
        <ele>280.35546875</ele>
      </trkpt>
      <trkpt lat="45.95421" lon="0.85884">
        <ele>284.3515625</ele>
      </trkpt>
      <trkpt lat="45.95423" lon="0.85904">
        <ele>285.29296875</ele>
      </trkpt>
      <trkpt lat="45.95425" lon="0.85924">
        <ele>285.75</ele>
      </trkpt>
      <trkpt lat="45.95424" lon="0.85949">
        <ele>286.8359375</ele>
      </trkpt>
      <trkpt lat="45.95419" lon="0.85967">
        <ele>287.51953125</ele>
      </trkpt>
      <trkpt lat="45.95409" lon="0.85985">
        <ele>288.3828125</ele>
      </trkpt>
      <trkpt lat="45.95399" lon="0.86001">
        <ele>289.2109375</ele>
      </trkpt>
      <trkpt lat="45.95391" lon="0.86014">
        <ele>289.59765625</ele>
      </trkpt>
      <trkpt lat="45.954" lon="0.8602">
        <ele>289.10546875</ele>
      </trkpt>
      <trkpt lat="45.9541" lon="0.86025">
        <ele>288.58203125</ele>
      </trkpt>
      <trkpt lat="45.95413" lon="0.8603">
        <ele>288.4140625</ele>
      </trkpt>
      <trkpt lat="45.95418" lon="0.86034">
        <ele>288.171875</ele>
      </trkpt>
      <trkpt lat="45.95437" lon="0.8604">
        <ele>285.82421875</ele>
      </trkpt>
      <trkpt lat="45.95476" lon="0.86043">
        <ele>280.265625</ele>
      </trkpt>
      <trkpt lat="45.95476" lon="0.86053">
        <ele>280.29296875</ele>
      </trkpt>
      <trkpt lat="45.95476" lon="0.86065">
        <ele>280.35546875</ele>
      </trkpt>
      <trkpt lat="45.9548" lon="0.86088">
        <ele>280.2109375</ele>
      </trkpt>
      <trkpt lat="45.9548" lon="0.86097">
        <ele>280.44140625</ele>
      </trkpt>
      <trkpt lat="45.95488" lon="0.86095">
        <ele>279.47265625</ele>
      </trkpt>
      <trkpt lat="45.9555" lon="0.86091">
        <ele>273.58203125</ele>
      </trkpt>
      <trkpt lat="45.95577" lon="0.86093">
        <ele>272.6796875</ele>
      </trkpt>
      <trkpt lat="45.95588" lon="0.86099">
        <ele>272.484375</ele>
      </trkpt>
      <trkpt lat="45.95593" lon="0.8611">
        <ele>272.94140625</ele>
      </trkpt>
      <trkpt lat="45.95598" lon="0.86137">
        <ele>273.9140625</ele>
      </trkpt>
      <trkpt lat="45.95603" lon="0.86214">
        <ele>277.203125</ele>
      </trkpt>
      <trkpt lat="45.95601" lon="0.86232">
        <ele>278.16015625</ele>
      </trkpt>
      <trkpt lat="45.95596" lon="0.8625">
        <ele>279.1796875</ele>
      </trkpt>
      <trkpt lat="45.95574" lon="0.863">
        <ele>282.88671875</ele>
      </trkpt>
      <trkpt lat="45.95571" lon="0.86308">
        <ele>283.625</ele>
      </trkpt>
      <trkpt lat="45.95587" lon="0.86314">
        <ele>284.03515625</ele>
      </trkpt>
      <trkpt lat="45.95584" lon="0.86336">
        <ele>285.94140625</ele>
      </trkpt>
      <trkpt lat="45.95575" lon="0.86379">
        <ele>292.1953125</ele>
      </trkpt>
      <trkpt lat="45.9557" lon="0.8639">
        <ele>293.46875</ele>
      </trkpt>
      <trkpt lat="45.95546" lon="0.86399">
        <ele>292.8046875</ele>
      </trkpt>
      <trkpt lat="45.95531" lon="0.8641">
        <ele>293.23828125</ele>
      </trkpt>
      <trkpt lat="45.95501" lon="0.86441">
        <ele>294.50390625</ele>
      </trkpt>
      <trkpt lat="45.95483" lon="0.86461">
        <ele>295.01171875</ele>
      </trkpt>
      <trkpt lat="45.95467" lon="0.86477">
        <ele>295.953125</ele>
      </trkpt>
      <trkpt lat="45.9545" lon="0.86492">
        <ele>297</ele>
      </trkpt>
      <trkpt lat="45.95439" lon="0.86505">
        <ele>297.80859375</ele>
      </trkpt>
      <trkpt lat="45.95435" lon="0.86508">
        <ele>297.984375</ele>
      </trkpt>
      <trkpt lat="45.95429" lon="0.86509">
        <ele>297.8203125</ele>
      </trkpt>
      <trkpt lat="45.9542" lon="0.86509">
        <ele>297.578125</ele>
      </trkpt>
      <trkpt lat="45.95408" lon="0.86506">
        <ele>297.26171875</ele>
      </trkpt>
      <trkpt lat="45.95403" lon="0.86484">
        <ele>295.85546875</ele>
      </trkpt>
      <trkpt lat="45.95394" lon="0.86487">
        <ele>296.13671875</ele>
      </trkpt>
      <trkpt lat="45.95389" lon="0.86487">
        <ele>296.21875</ele>
      </trkpt>
      <trkpt lat="45.95385" lon="0.86485">
        <ele>296.14453125</ele>
      </trkpt>
      <trkpt lat="45.9538" lon="0.86503">
        <ele>296.99609375</ele>
      </trkpt>
      <trkpt lat="45.95378" lon="0.86526">
        <ele>298.3984375</ele>
      </trkpt>
      <trkpt lat="45.95373" lon="0.86548">
        <ele>299.6328125</ele>
      </trkpt>
      <trkpt lat="45.95367" lon="0.86564">
        <ele>299.984375</ele>
      </trkpt>
      <trkpt lat="45.95331" lon="0.86615">
        <ele>296.16015625</ele>
      </trkpt>
      <trkpt lat="45.95312" lon="0.86647">
        <ele>294.12109375</ele>
      </trkpt>
      <trkpt lat="45.95296" lon="0.8667">
        <ele>292.6484375</ele>
      </trkpt>
      <trkpt lat="45.9525" lon="0.867">
        <ele>289.92578125</ele>
      </trkpt>
      <trkpt lat="45.9524" lon="0.86708">
        <ele>289.13671875</ele>
      </trkpt>
      <trkpt lat="45.95221" lon="0.86739">
        <ele>288.73046875</ele>
      </trkpt>
      <trkpt lat="45.95211" lon="0.86753">
        <ele>288.59765625</ele>
      </trkpt>
      <trkpt lat="45.95201" lon="0.86763">
        <ele>287.79296875</ele>
      </trkpt>
      <trkpt lat="45.95192" lon="0.86763">
        <ele>286.4765625</ele>
      </trkpt>
      <trkpt lat="45.95183" lon="0.86762">
        <ele>285.11328125</ele>
      </trkpt>
      <trkpt lat="45.95174" lon="0.86834">
        <ele>289.0390625</ele>
      </trkpt>
      <trkpt lat="45.95113" lon="0.8683">
        <ele>280.796875</ele>
      </trkpt>
      <trkpt lat="45.95097" lon="0.86837">
        <ele>279.6953125</ele>
      </trkpt>
      <trkpt lat="45.95053" lon="0.8687">
        <ele>281.12890625</ele>
      </trkpt>
      <trkpt lat="45.95026" lon="0.86888">
        <ele>282.46875</ele>
      </trkpt>
      <trkpt lat="45.95001" lon="0.86902">
        <ele>285.22265625</ele>
      </trkpt>
      <trkpt lat="45.94981" lon="0.86903">
        <ele>286.65625</ele>
      </trkpt>
      <trkpt lat="45.94964" lon="0.86902">
        <ele>287.4609375</ele>
      </trkpt>
      <trkpt lat="45.94953" lon="0.869">
        <ele>287.90234375</ele>
      </trkpt>
      <trkpt lat="45.94946" lon="0.86901">
        <ele>288.33203125</ele>
      </trkpt>
      <trkpt lat="45.94928" lon="0.86927">
        <ele>290.65625</ele>
      </trkpt>
      <trkpt lat="45.94916" lon="0.86944">
        <ele>291.8515625</ele>
      </trkpt>
      <trkpt lat="45.94895" lon="0.86985">
        <ele>293.703125</ele>
      </trkpt>
      <trkpt lat="45.94882" lon="0.87016">
        <ele>294.8125</ele>
      </trkpt>
      <trkpt lat="45.94873" lon="0.87038">
        <ele>295.44140625</ele>
      </trkpt>
      <trkpt lat="45.94867" lon="0.87059">
        <ele>295.98046875</ele>
      </trkpt>
      <trkpt lat="45.94862" lon="0.87083">
        <ele>295.71875</ele>
      </trkpt>
      <trkpt lat="45.94853" lon="0.87112">
        <ele>295.22265625</ele>
      </trkpt>
      <trkpt lat="45.94839" lon="0.87148">
        <ele>294.50390625</ele>
      </trkpt>
      <trkpt lat="45.94831" lon="0.87168">
        <ele>294.046875</ele>
      </trkpt>
      <trkpt lat="45.94807" lon="0.87215">
        <ele>292.80859375</ele>
      </trkpt>
      <trkpt lat="45.94793" lon="0.87246">
        <ele>292.3125</ele>
      </trkpt>
      <trkpt lat="45.94783" lon="0.8727">
        <ele>291.96484375</ele>
      </trkpt>
      <trkpt lat="45.94776" lon="0.87292">
        <ele>291.453125</ele>
      </trkpt>
      <trkpt lat="45.94769" lon="0.87301">
        <ele>290.921875</ele>
      </trkpt>
      <trkpt lat="45.94763" lon="0.87304">
        <ele>290.5078125</ele>
      </trkpt>
      <trkpt lat="45.94757" lon="0.87305">
        <ele>290.14453125</ele>
      </trkpt>
      <trkpt lat="45.9475" lon="0.87303">
        <ele>289.91015625</ele>
      </trkpt>
      <trkpt lat="45.94742" lon="0.87298">
        <ele>289.671875</ele>
      </trkpt>
      <trkpt lat="45.94737" lon="0.87294">
        <ele>289.546875</ele>
      </trkpt>
      <trkpt lat="45.94731" lon="0.87292">
        <ele>289.33203125</ele>
      </trkpt>
      <trkpt lat="45.94725" lon="0.87294">
        <ele>288.94921875</ele>
      </trkpt>
      <trkpt lat="45.94719" lon="0.87303">
        <ele>288.44921875</ele>
      </trkpt>
      <trkpt lat="45.94708" lon="0.87315">
        <ele>287.69140625</ele>
      </trkpt>
      <trkpt lat="45.947" lon="0.87323">
        <ele>287.28125</ele>
      </trkpt>
      <trkpt lat="45.94694" lon="0.87337">
        <ele>287.69140625</ele>
      </trkpt>
      <trkpt lat="45.94691" lon="0.87348">
        <ele>288.80859375</ele>
      </trkpt>
      <trkpt lat="45.94692" lon="0.87387">
        <ele>291.63671875</ele>
      </trkpt>
      <trkpt lat="45.94699" lon="0.87453">
        <ele>296.6796875</ele>
      </trkpt>
      <trkpt lat="45.947" lon="0.87479">
        <ele>298.37109375</ele>
      </trkpt>
      <trkpt lat="45.94704" lon="0.87515">
        <ele>300.625</ele>
      </trkpt>
      <trkpt lat="45.94712" lon="0.87556">
        <ele>303.00390625</ele>
      </trkpt>
      <trkpt lat="45.94714" lon="0.87585">
        <ele>304.421875</ele>
      </trkpt>
      <trkpt lat="45.94715" lon="0.87606">
        <ele>305.33984375</ele>
      </trkpt>
      <trkpt lat="45.94709" lon="0.87626">
        <ele>306.515625</ele>
      </trkpt>
      <trkpt lat="45.94696" lon="0.8766">
        <ele>308.22265625</ele>
      </trkpt>
      <trkpt lat="45.94686" lon="0.87693">
        <ele>309.16796875</ele>
      </trkpt>
      <trkpt lat="45.9468" lon="0.87722">
        <ele>309.51953125</ele>
      </trkpt>
      <trkpt lat="45.94666" lon="0.87756">
        <ele>311.12109375</ele>
      </trkpt>
      <trkpt lat="45.94655" lon="0.87784">
        <ele>312.05078125</ele>
      </trkpt>
      <trkpt lat="45.94645" lon="0.87795">
        <ele>312.80078125</ele>
      </trkpt>
      <trkpt lat="45.9462" lon="0.87813">
        <ele>315.78125</ele>
      </trkpt>
      <trkpt lat="45.94599" lon="0.8783">
        <ele>318.08984375</ele>
      </trkpt>
      <trkpt lat="45.94575" lon="0.87844">
        <ele>320.2109375</ele>
      </trkpt>
      <trkpt lat="45.94564" lon="0.8785">
        <ele>321.02734375</ele>
      </trkpt>
      <trkpt lat="45.9455" lon="0.87856">
        <ele>321.9765625</ele>
      </trkpt>
      <trkpt lat="45.94551" lon="0.87874">
        <ele>322.671875</ele>
      </trkpt>
      <trkpt lat="45.94553" lon="0.87902">
        <ele>324.28515625</ele>
      </trkpt>
      <trkpt lat="45.94556" lon="0.87938">
        <ele>327.25390625</ele>
      </trkpt>
      <trkpt lat="45.94556" lon="0.87964">
        <ele>329.9375</ele>
      </trkpt>
      <trkpt lat="45.94552" lon="0.88026">
        <ele>335.6171875</ele>
      </trkpt>
      <trkpt lat="45.94549" lon="0.88039">
        <ele>336.5078125</ele>
      </trkpt>
      <trkpt lat="45.94542" lon="0.88051">
        <ele>337.36328125</ele>
      </trkpt>
      <trkpt lat="45.94538" lon="0.88063">
        <ele>338.11328125</ele>
      </trkpt>
      <trkpt lat="45.94532" lon="0.88113">
        <ele>339.921875</ele>
      </trkpt>
      <trkpt lat="45.94534" lon="0.88187">
        <ele>340.984375</ele>
      </trkpt>
      <trkpt lat="45.94532" lon="0.88233">
        <ele>340.77734375</ele>
      </trkpt>
      <trkpt lat="45.9454" lon="0.88298">
        <ele>339.46484375</ele>
      </trkpt>
      <trkpt lat="45.94543" lon="0.88352">
        <ele>338.2890625</ele>
      </trkpt>
      <trkpt lat="45.94542" lon="0.884">
        <ele>337.234375</ele>
      </trkpt>
      <trkpt lat="45.94538" lon="0.88432">
        <ele>336.93359375</ele>
      </trkpt>
      <trkpt lat="45.94535" lon="0.8844">
        <ele>337</ele>
      </trkpt>
      <trkpt lat="45.94533" lon="0.88454">
        <ele>337.0078125</ele>
      </trkpt>
      <trkpt lat="45.94535" lon="0.88464">
        <ele>336.87890625</ele>
      </trkpt>
      <trkpt lat="45.94539" lon="0.88471">
        <ele>336.5234375</ele>
      </trkpt>
      <trkpt lat="45.94547" lon="0.88476">
        <ele>335.86328125</ele>
      </trkpt>
      <trkpt lat="45.94556" lon="0.8848">
        <ele>334.97265625</ele>
      </trkpt>
      <trkpt lat="45.94575" lon="0.88486">
        <ele>333.296875</ele>
      </trkpt>
      <trkpt lat="45.946" lon="0.8849">
        <ele>331.18359375</ele>
      </trkpt>
      <trkpt lat="45.94636" lon="0.88502">
        <ele>328.625</ele>
      </trkpt>
      <trkpt lat="45.94662" lon="0.88509">
        <ele>327.5078125</ele>
      </trkpt>
      <trkpt lat="45.9468" lon="0.88513">
        <ele>326.9375</ele>
      </trkpt>
      <trkpt lat="45.94722" lon="0.88527">
        <ele>326.078125</ele>
      </trkpt>
      <trkpt lat="45.94757" lon="0.88539">
        <ele>325.68359375</ele>
      </trkpt>
      <trkpt lat="45.94783" lon="0.88545">
        <ele>326.2578125</ele>
      </trkpt>
      <trkpt lat="45.94797" lon="0.88547">
        <ele>326.5546875</ele>
      </trkpt>
      <trkpt lat="45.94811" lon="0.88546">
        <ele>326.80078125</ele>
      </trkpt>
      <trkpt lat="45.94821" lon="0.88547">
        <ele>327.1640625</ele>
      </trkpt>
      <trkpt lat="45.94849" lon="0.88549">
        <ele>328.19140625</ele>
      </trkpt>
      <trkpt lat="45.94917" lon="0.88561">
        <ele>329.890625</ele>
      </trkpt>
      <trkpt lat="45.94965" lon="0.88567">
        <ele>328.75</ele>
      </trkpt>
      <trkpt lat="45.95004" lon="0.88568">
        <ele>327.52734375</ele>
      </trkpt>
      <trkpt lat="45.95042" lon="0.88565">
        <ele>326.1328125</ele>
      </trkpt>
      <trkpt lat="45.95085" lon="0.88556">
        <ele>324.0859375</ele>
      </trkpt>
      <trkpt lat="45.95116" lon="0.88547">
        <ele>323.71484375</ele>
      </trkpt>
      <trkpt lat="45.95145" lon="0.88535">
        <ele>323.59765625</ele>
      </trkpt>
      <trkpt lat="45.95172" lon="0.88519">
        <ele>323.3046875</ele>
      </trkpt>
      <trkpt lat="45.95213" lon="0.88501">
        <ele>323.23046875</ele>
      </trkpt>
      <trkpt lat="45.95249" lon="0.8849">
        <ele>323.875</ele>
      </trkpt>
      <trkpt lat="45.953" lon="0.88473">
        <ele>325.58203125</ele>
      </trkpt>
      <trkpt lat="45.95316" lon="0.8847">
        <ele>326.33984375</ele>
      </trkpt>
      <trkpt lat="45.95347" lon="0.88464">
        <ele>328.58984375</ele>
      </trkpt>
      <trkpt lat="45.95401" lon="0.88453">
        <ele>330.07421875</ele>
      </trkpt>
      <trkpt lat="45.95438" lon="0.88449">
        <ele>330.03125</ele>
      </trkpt>
      <trkpt lat="45.95455" lon="0.88448">
        <ele>330.01171875</ele>
      </trkpt>
      <trkpt lat="45.95465" lon="0.88443">
        <ele>329.90625</ele>
      </trkpt>
      <trkpt lat="45.9547" lon="0.88442">
        <ele>329.8671875</ele>
      </trkpt>
      <trkpt lat="45.95498" lon="0.8843">
        <ele>328.79296875</ele>
      </trkpt>
      <trkpt lat="45.95525" lon="0.88419">
        <ele>327.71875</ele>
      </trkpt>
      <trkpt lat="45.95545" lon="0.88412">
        <ele>327.30859375</ele>
      </trkpt>
      <trkpt lat="45.95563" lon="0.8841">
        <ele>327.1640625</ele>
      </trkpt>
      <trkpt lat="45.95578" lon="0.88411">
        <ele>327.07421875</ele>
      </trkpt>
      <trkpt lat="45.95591" lon="0.88411">
        <ele>326.96484375</ele>
      </trkpt>
      <trkpt lat="45.95613" lon="0.88415">
        <ele>326.55859375</ele>
      </trkpt>
      <trkpt lat="45.95666" lon="0.88431">
        <ele>326</ele>
      </trkpt>
      <trkpt lat="45.95686" lon="0.88438">
        <ele>326</ele>
      </trkpt>
      <trkpt lat="45.95727" lon="0.88453">
        <ele>325.390625</ele>
      </trkpt>
      <trkpt lat="45.95805" lon="0.8848">
        <ele>322.953125</ele>
      </trkpt>
      <trkpt lat="45.95806" lon="0.8849">
        <ele>322.5546875</ele>
      </trkpt>
      <trkpt lat="45.95813" lon="0.8849">
        <ele>322.37109375</ele>
      </trkpt>
      <trkpt lat="45.95846" lon="0.88493">
        <ele>321.6953125</ele>
      </trkpt>
      <trkpt lat="45.95903" lon="0.88498">
        <ele>319.8203125</ele>
      </trkpt>
      <trkpt lat="45.95969" lon="0.88503">
        <ele>316.375</ele>
      </trkpt>
      <trkpt lat="45.95989" lon="0.88503">
        <ele>315.74609375</ele>
      </trkpt>
      <trkpt lat="45.96011" lon="0.88498">
        <ele>315.484375</ele>
      </trkpt>
      <trkpt lat="45.96079" lon="0.8848">
        <ele>314.2421875</ele>
      </trkpt>
      <trkpt lat="45.96125" lon="0.88469">
        <ele>314.92578125</ele>
      </trkpt>
      <trkpt lat="45.96148" lon="0.88466">
        <ele>315.62109375</ele>
      </trkpt>
      <trkpt lat="45.96163" lon="0.88466">
        <ele>316.78515625</ele>
      </trkpt>
      <trkpt lat="45.96178" lon="0.88469">
        <ele>317.93359375</ele>
      </trkpt>
      <trkpt lat="45.96201" lon="0.88466">
        <ele>319.734375</ele>
      </trkpt>
      <trkpt lat="45.96234" lon="0.88459">
        <ele>321.6484375</ele>
      </trkpt>
      <trkpt lat="45.96244" lon="0.88458">
        <ele>322.171875</ele>
      </trkpt>
      <trkpt lat="45.96285" lon="0.88451">
        <ele>323.9921875</ele>
      </trkpt>
      <trkpt lat="45.96307" lon="0.88451">
        <ele>324.80078125</ele>
      </trkpt>
      <trkpt lat="45.96341" lon="0.88453">
        <ele>325.421875</ele>
      </trkpt>
      <trkpt lat="45.96384" lon="0.88453">
        <ele>326.23046875</ele>
      </trkpt>
      <trkpt lat="45.96391" lon="0.88454">
        <ele>326.37109375</ele>
      </trkpt>
      <trkpt lat="45.964" lon="0.88455">
        <ele>326.5390625</ele>
      </trkpt>
      <trkpt lat="45.96414" lon="0.88457">
        <ele>326.828125</ele>
      </trkpt>
      <trkpt lat="45.96436" lon="0.88464">
        <ele>326.90234375</ele>
      </trkpt>
      <trkpt lat="45.96465" lon="0.88482">
        <ele>327.22265625</ele>
      </trkpt>
      <trkpt lat="45.96483" lon="0.8849">
        <ele>327.5703125</ele>
      </trkpt>
      <trkpt lat="45.96513" lon="0.88498">
        <ele>327.8203125</ele>
      </trkpt>
      <trkpt lat="45.96534" lon="0.885">
        <ele>327.9140625</ele>
      </trkpt>
      <trkpt lat="45.9656" lon="0.88501">
        <ele>327.97265625</ele>
      </trkpt>
      <trkpt lat="45.96586" lon="0.88501">
        <ele>327.97265625</ele>
      </trkpt>
      <trkpt lat="45.96597" lon="0.88503">
        <ele>328.0859375</ele>
      </trkpt>
      <trkpt lat="45.96611" lon="0.8852">
        <ele>328.9921875</ele>
      </trkpt>
      <trkpt lat="45.96631" lon="0.88562">
        <ele>331.1484375</ele>
      </trkpt>
      <trkpt lat="45.96666" lon="0.88628">
        <ele>334.19140625</ele>
      </trkpt>
      <trkpt lat="45.96694" lon="0.8869">
        <ele>337.45703125</ele>
      </trkpt>
      <trkpt lat="45.96702" lon="0.88744">
        <ele>339.8046875</ele>
      </trkpt>
      <trkpt lat="45.96721" lon="0.88822">
        <ele>341</ele>
      </trkpt>
      <trkpt lat="45.96729" lon="0.88869">
        <ele>340.66796875</ele>
      </trkpt>
      <trkpt lat="45.96726" lon="0.88924">
        <ele>340.21875</ele>
      </trkpt>
      <trkpt lat="45.96716" lon="0.88978">
        <ele>339.828125</ele>
      </trkpt>
      <trkpt lat="45.96705" lon="0.89025">
        <ele>339.41796875</ele>
      </trkpt>
      <trkpt lat="45.96694" lon="0.89064">
        <ele>339.09375</ele>
      </trkpt>
      <trkpt lat="45.96713" lon="0.89142">
        <ele>337.6015625</ele>
      </trkpt>
      <trkpt lat="45.96721" lon="0.89212">
        <ele>337.5390625</ele>
      </trkpt>
      <trkpt lat="45.96713" lon="0.89345">
        <ele>341.0625</ele>
      </trkpt>
      <trkpt lat="45.96705" lon="0.89458">
        <ele>341.89453125</ele>
      </trkpt>
      <trkpt lat="45.96697" lon="0.89551">
        <ele>343.91015625</ele>
      </trkpt>
      <trkpt lat="45.96702" lon="0.89629">
        <ele>343.62109375</ele>
      </trkpt>
      <trkpt lat="45.96702" lon="0.89719">
        <ele>342.078125</ele>
      </trkpt>
      <trkpt lat="45.96702" lon="0.89789">
        <ele>340.8671875</ele>
      </trkpt>
      <trkpt lat="45.96705" lon="0.8982">
        <ele>340.35546875</ele>
      </trkpt>
      <trkpt lat="45.96702" lon="0.89867">
        <ele>340.05078125</ele>
      </trkpt>
      <trkpt lat="45.9671" lon="0.89941">
        <ele>340.015625</ele>
      </trkpt>
      <trkpt lat="45.9671" lon="0.90027">
        <ele>339.046875</ele>
      </trkpt>
      <trkpt lat="45.96712" lon="0.90081">
        <ele>337.41015625</ele>
      </trkpt>
      <trkpt lat="45.96717" lon="0.90138">
        <ele>335.5390625</ele>
      </trkpt>
      <trkpt lat="45.96716" lon="0.90206">
        <ele>335.1171875</ele>
      </trkpt>
      <trkpt lat="45.96716" lon="0.90253">
        <ele>334.35546875</ele>
      </trkpt>
      <trkpt lat="45.96735" lon="0.90315">
        <ele>333.1171875</ele>
      </trkpt>
      <trkpt lat="45.96798" lon="0.90481">
        <ele>332.90625</ele>
      </trkpt>
      <trkpt lat="45.96835" lon="0.90565">
        <ele>334.53125</ele>
      </trkpt>
      <trkpt lat="45.96896" lon="0.907">
        <ele>335.453125</ele>
      </trkpt>
      <trkpt lat="45.96959" lon="0.90822">
        <ele>335.97265625</ele>
      </trkpt>
      <trkpt lat="45.9707" lon="0.90952">
        <ele>339.08984375</ele>
      </trkpt>
      <trkpt lat="45.97162" lon="0.91035">
        <ele>341.125</ele>
      </trkpt>
      <trkpt lat="45.97248" lon="0.91105">
        <ele>339.2265625</ele>
      </trkpt>
      <trkpt lat="45.97385" lon="0.91181">
        <ele>337.90234375</ele>
      </trkpt>
      <trkpt lat="45.97489" lon="0.91217">
        <ele>335.234375</ele>
      </trkpt>
      <trkpt lat="45.97576" lon="0.91227">
        <ele>329.859375</ele>
      </trkpt>
      <trkpt lat="45.9764" lon="0.91232">
        <ele>325.3671875</ele>
      </trkpt>
      <trkpt lat="45.97691" lon="0.91198">
        <ele>319.3671875</ele>
      </trkpt>
      <trkpt lat="45.97709" lon="0.91172">
        <ele>317.36328125</ele>
      </trkpt>
      <trkpt lat="45.97723" lon="0.91141">
        <ele>315.7265625</ele>
      </trkpt>
      <trkpt lat="45.9775" lon="0.91099">
        <ele>314.15234375</ele>
      </trkpt>
      <trkpt lat="45.97791" lon="0.91058">
        <ele>313.3046875</ele>
      </trkpt>
      <trkpt lat="45.97816" lon="0.91034">
        <ele>313.26171875</ele>
      </trkpt>
      <trkpt lat="45.97827" lon="0.91003">
        <ele>313.62890625</ele>
      </trkpt>
      <trkpt lat="45.97834" lon="0.90959">
        <ele>314.375</ele>
      </trkpt>
      <trkpt lat="45.97838" lon="0.9086">
        <ele>313.47265625</ele>
      </trkpt>
      <trkpt lat="45.97834" lon="0.90808">
        <ele>313.6640625</ele>
      </trkpt>
      <trkpt lat="45.97843" lon="0.90689">
        <ele>312.94140625</ele>
      </trkpt>
      <trkpt lat="45.97865" lon="0.90499">
        <ele>308.03515625</ele>
      </trkpt>
      <trkpt lat="45.97896" lon="0.90341">
        <ele>309.24609375</ele>
      </trkpt>
      <trkpt lat="45.97903" lon="0.90294">
        <ele>309.41796875</ele>
      </trkpt>
      <trkpt lat="45.97908" lon="0.90263">
        <ele>309.11328125</ele>
      </trkpt>
      <trkpt lat="45.97915" lon="0.90195">
        <ele>308.8828125</ele>
      </trkpt>
      <trkpt lat="45.97915" lon="0.90129">
        <ele>308.375</ele>
      </trkpt>
      <trkpt lat="45.97916" lon="0.90041">
        <ele>305.69140625</ele>
      </trkpt>
      <trkpt lat="45.97917" lon="0.8998">
        <ele>303.8125</ele>
      </trkpt>
      <trkpt lat="45.97915" lon="0.89928">
        <ele>301.11328125</ele>
      </trkpt>
      <trkpt lat="45.97906" lon="0.89892">
        <ele>299.6640625</ele>
      </trkpt>
      <trkpt lat="45.97894" lon="0.89872">
        <ele>299.30078125</ele>
      </trkpt>
      <trkpt lat="45.97879" lon="0.89852">
        <ele>299.45703125</ele>
      </trkpt>
      <trkpt lat="45.97887" lon="0.8984">
        <ele>298.65625</ele>
      </trkpt>
      <trkpt lat="45.97892" lon="0.89818">
        <ele>297.94140625</ele>
      </trkpt>
      <trkpt lat="45.97894" lon="0.89809">
        <ele>297.703125</ele>
      </trkpt>
      <trkpt lat="45.97893" lon="0.89797">
        <ele>297.69921875</ele>
      </trkpt>
      <trkpt lat="45.97897" lon="0.89769">
        <ele>297.66796875</ele>
      </trkpt>
      <trkpt lat="45.97899" lon="0.8976">
        <ele>298.00390625</ele>
      </trkpt>
      <trkpt lat="45.97898" lon="0.89746">
        <ele>298.90625</ele>
      </trkpt>
      <trkpt lat="45.97902" lon="0.89734">
        <ele>299.34765625</ele>
      </trkpt>
      <trkpt lat="45.97906" lon="0.89727">
        <ele>299.5546875</ele>
      </trkpt>
      <trkpt lat="45.97909" lon="0.89724">
        <ele>299.60546875</ele>
      </trkpt>
      <trkpt lat="45.97908" lon="0.89706">
        <ele>299.35546875</ele>
      </trkpt>
      <trkpt lat="45.97912" lon="0.89702">
        <ele>299.10546875</ele>
      </trkpt>
      <trkpt lat="45.97922" lon="0.89679">
        <ele>298.13671875</ele>
      </trkpt>
      <trkpt lat="45.97941" lon="0.89634">
        <ele>296.52734375</ele>
      </trkpt>
      <trkpt lat="45.97967" lon="0.89574">
        <ele>294.53515625</ele>
      </trkpt>
      <trkpt lat="45.97988" lon="0.89531">
        <ele>293.3046875</ele>
      </trkpt>
      <trkpt lat="45.98003" lon="0.89495">
        <ele>292.8828125</ele>
      </trkpt>
      <trkpt lat="45.98016" lon="0.89461">
        <ele>292.28515625</ele>
      </trkpt>
      <trkpt lat="45.98024" lon="0.89444">
        <ele>291.9375</ele>
      </trkpt>
      <trkpt lat="45.98032" lon="0.89432">
        <ele>291.5</ele>
      </trkpt>
      <trkpt lat="45.98021" lon="0.89411">
        <ele>290.875</ele>
      </trkpt>
      <trkpt lat="45.98014" lon="0.89395">
        <ele>290.484375</ele>
      </trkpt>
      <trkpt lat="45.98008" lon="0.89375">
        <ele>291.11328125</ele>
      </trkpt>
      <trkpt lat="45.98004" lon="0.89342">
        <ele>292.67578125</ele>
      </trkpt>
      <trkpt lat="45.98" lon="0.89324">
        <ele>294.12109375</ele>
      </trkpt>
      <trkpt lat="45.97995" lon="0.89315">
        <ele>295.0390625</ele>
      </trkpt>
      <trkpt lat="45.98006" lon="0.89304">
        <ele>295.71875</ele>
      </trkpt>
      <trkpt lat="45.98022" lon="0.89285">
        <ele>296.79296875</ele>
      </trkpt>
      <trkpt lat="45.98034" lon="0.89276">
        <ele>297.3203125</ele>
      </trkpt>
      <trkpt lat="45.98036" lon="0.89273">
        <ele>297.76171875</ele>
      </trkpt>
      <trkpt lat="45.98039" lon="0.89265">
        <ele>298.62109375</ele>
      </trkpt>
      <trkpt lat="45.98041" lon="0.89255">
        <ele>299.71875</ele>
      </trkpt>
      <trkpt lat="45.98076" lon="0.89249">
        <ele>301.03515625</ele>
      </trkpt>
      <trkpt lat="45.98111" lon="0.89247">
        <ele>301.4765625</ele>
      </trkpt>
      <trkpt lat="45.98173" lon="0.89239">
        <ele>302.4453125</ele>
      </trkpt>
      <trkpt lat="45.9827" lon="0.89221">
        <ele>304.23828125</ele>
      </trkpt>
      <trkpt lat="45.98302" lon="0.89215">
        <ele>304.796875</ele>
      </trkpt>
      <trkpt lat="45.98346" lon="0.89211">
        <ele>304.2890625</ele>
      </trkpt>
      <trkpt lat="45.98355" lon="0.89207">
        <ele>304.421875</ele>
      </trkpt>
      <trkpt lat="45.98363" lon="0.892">
        <ele>304.76953125</ele>
      </trkpt>
      <trkpt lat="45.9838" lon="0.89179">
        <ele>305.25390625</ele>
      </trkpt>
      <trkpt lat="45.98403" lon="0.89137">
        <ele>305.92578125</ele>
      </trkpt>
      <trkpt lat="45.9841" lon="0.8912">
        <ele>306.3125</ele>
      </trkpt>
      <trkpt lat="45.98434" lon="0.89078">
        <ele>307.30078125</ele>
      </trkpt>
      <trkpt lat="45.98437" lon="0.89068">
        <ele>307.9140625</ele>
      </trkpt>
      <trkpt lat="45.98439" lon="0.89055">
        <ele>308.7890625</ele>
      </trkpt>
      <trkpt lat="45.9844" lon="0.89012">
        <ele>311.5859375</ele>
      </trkpt>
      <trkpt lat="45.98442" lon="0.88989">
        <ele>311.9921875</ele>
      </trkpt>
      <trkpt lat="45.98445" lon="0.88967">
        <ele>311.5078125</ele>
      </trkpt>
      <trkpt lat="45.98449" lon="0.88941">
        <ele>310.84375</ele>
      </trkpt>
      <trkpt lat="45.98462" lon="0.88897">
        <ele>308.55078125</ele>
      </trkpt>
      <trkpt lat="45.98471" lon="0.88868">
        <ele>306.67578125</ele>
      </trkpt>
      <trkpt lat="45.9848" lon="0.88851">
        <ele>305.43359375</ele>
      </trkpt>
      <trkpt lat="45.98488" lon="0.88839">
        <ele>304.73828125</ele>
      </trkpt>
      <trkpt lat="45.98497" lon="0.8882">
        <ele>304.47265625</ele>
      </trkpt>
      <trkpt lat="45.98509" lon="0.88795">
        <ele>303.96875</ele>
      </trkpt>
      <trkpt lat="45.98518" lon="0.88768">
        <ele>303.453125</ele>
      </trkpt>
      <trkpt lat="45.98533" lon="0.88737">
        <ele>302.69140625</ele>
      </trkpt>
      <trkpt lat="45.98553" lon="0.88696">
        <ele>301.453125</ele>
      </trkpt>
      <trkpt lat="45.9857" lon="0.8866">
        <ele>300.3203125</ele>
      </trkpt>
      <trkpt lat="45.98588" lon="0.8862">
        <ele>299.8359375</ele>
      </trkpt>
      <trkpt lat="45.98594" lon="0.88607">
        <ele>299.9765625</ele>
      </trkpt>
      <trkpt lat="45.98601" lon="0.88591">
        <ele>300.12890625</ele>
      </trkpt>
      <trkpt lat="45.98612" lon="0.88562">
        <ele>300.45703125</ele>
      </trkpt>
      <trkpt lat="45.98616" lon="0.88546">
        <ele>300.87109375</ele>
      </trkpt>
      <trkpt lat="45.98621" lon="0.88529">
        <ele>301.41015625</ele>
      </trkpt>
      <trkpt lat="45.98624" lon="0.88514">
        <ele>301.89453125</ele>
      </trkpt>
      <trkpt lat="45.98625" lon="0.88498">
        <ele>302.5234375</ele>
      </trkpt>
      <trkpt lat="45.98626" lon="0.88485">
        <ele>303.19921875</ele>
      </trkpt>
      <trkpt lat="45.98627" lon="0.88472">
        <ele>303.875</ele>
      </trkpt>
      <trkpt lat="45.98629" lon="0.88459">
        <ele>304.53125</ele>
      </trkpt>
      <trkpt lat="45.9863" lon="0.88451">
        <ele>304.9765625</ele>
      </trkpt>
      <trkpt lat="45.98635" lon="0.8845">
        <ele>304.95703125</ele>
      </trkpt>
      <trkpt lat="45.98639" lon="0.88429">
        <ele>305.390625</ele>
      </trkpt>
      <trkpt lat="45.98643" lon="0.88396">
        <ele>305.84765625</ele>
      </trkpt>
      <trkpt lat="45.98645" lon="0.88373">
        <ele>304.47265625</ele>
      </trkpt>
      <trkpt lat="45.98646" lon="0.88367">
        <ele>303.89453125</ele>
      </trkpt>
      <trkpt lat="45.98646" lon="0.88356">
        <ele>303.12109375</ele>
      </trkpt>
      <trkpt lat="45.98646" lon="0.88338">
        <ele>301.80859375</ele>
      </trkpt>
      <trkpt lat="45.98644" lon="0.88312">
        <ele>299.84765625</ele>
      </trkpt>
      <trkpt lat="45.98646" lon="0.88338">
        <ele>301.80859375</ele>
      </trkpt>
      <trkpt lat="45.98643" lon="0.88307">
        <ele>299.41015625</ele>
      </trkpt>
      <trkpt lat="45.98639" lon="0.88281">
        <ele>297.8125</ele>
      </trkpt>
      <trkpt lat="45.98635" lon="0.88246">
        <ele>296.80078125</ele>
      </trkpt>
      <trkpt lat="45.98626" lon="0.88142">
        <ele>295.625</ele>
      </trkpt>
      <trkpt lat="45.98622" lon="0.88096">
        <ele>295.21875</ele>
      </trkpt>
      <trkpt lat="45.98621" lon="0.88082">
        <ele>295.26953125</ele>
      </trkpt>
      <trkpt lat="45.98622" lon="0.88072">
        <ele>295.1640625</ele>
      </trkpt>
      <trkpt lat="45.98624" lon="0.8806">
        <ele>295.015625</ele>
      </trkpt>
      <trkpt lat="45.98626" lon="0.88049">
        <ele>294.85546875</ele>
      </trkpt>
      <trkpt lat="45.98626" lon="0.88037">
        <ele>294.78515625</ele>
      </trkpt>
      <trkpt lat="45.98626" lon="0.88024">
        <ele>294.71484375</ele>
      </trkpt>
      <trkpt lat="45.98625" lon="0.88008">
        <ele>294.671875</ele>
      </trkpt>
      <trkpt lat="45.98623" lon="0.87987">
        <ele>294.35546875</ele>
      </trkpt>
      <trkpt lat="45.98616" lon="0.87964">
        <ele>293.9453125</ele>
      </trkpt>
      <trkpt lat="45.98607" lon="0.87964">
        <ele>294.15625</ele>
      </trkpt>
      <trkpt lat="45.98587" lon="0.87926">
        <ele>292.8671875</ele>
      </trkpt>
      <trkpt lat="45.98577" lon="0.87907">
        <ele>292.08984375</ele>
      </trkpt>
      <trkpt lat="45.98565" lon="0.87892">
        <ele>291.47265625</ele>
      </trkpt>
      <trkpt lat="45.98554" lon="0.87878">
        <ele>291.19921875</ele>
      </trkpt>
      <trkpt lat="45.98548" lon="0.87864">
        <ele>290.9453125</ele>
      </trkpt>
      <trkpt lat="45.98544" lon="0.87811">
        <ele>290.78515625</ele>
      </trkpt>
      <trkpt lat="45.98541" lon="0.87765">
        <ele>292.04296875</ele>
      </trkpt>
      <trkpt lat="45.98518" lon="0.87724">
        <ele>294.734375</ele>
      </trkpt>
      <trkpt lat="45.98492" lon="0.87645">
        <ele>298.87109375</ele>
      </trkpt>
      <trkpt lat="45.9847" lon="0.87586">
        <ele>301.81640625</ele>
      </trkpt>
      <trkpt lat="45.98461" lon="0.87569">
        <ele>302.8359375</ele>
      </trkpt>
      <trkpt lat="45.98449" lon="0.87552">
        <ele>304.5703125</ele>
      </trkpt>
      <trkpt lat="45.98437" lon="0.87544">
        <ele>306.17578125</ele>
      </trkpt>
      <trkpt lat="45.98402" lon="0.87538">
        <ele>309.35546875</ele>
      </trkpt>
      <trkpt lat="45.98401" lon="0.87531">
        <ele>309.38671875</ele>
      </trkpt>
      <trkpt lat="45.98418" lon="0.87509">
        <ele>308.1875</ele>
      </trkpt>
      <trkpt lat="45.98437" lon="0.87478">
        <ele>308.29296875</ele>
      </trkpt>
      <trkpt lat="45.98441" lon="0.87458">
        <ele>309.20703125</ele>
      </trkpt>
      <trkpt lat="45.98439" lon="0.8744">
        <ele>310.33203125</ele>
      </trkpt>
      <trkpt lat="45.98431" lon="0.87426">
        <ele>311.32421875</ele>
      </trkpt>
      <trkpt lat="45.9843" lon="0.87409">
        <ele>312.1015625</ele>
      </trkpt>
      <trkpt lat="45.9844" lon="0.87397">
        <ele>312.37109375</ele>
      </trkpt>
      <trkpt lat="45.98455" lon="0.87386">
        <ele>312.66796875</ele>
      </trkpt>
      <trkpt lat="45.98459" lon="0.87375">
        <ele>313.20703125</ele>
      </trkpt>
      <trkpt lat="45.98461" lon="0.87365">
        <ele>313.6796875</ele>
      </trkpt>
      <trkpt lat="45.98464" lon="0.87359">
        <ele>313.95703125</ele>
      </trkpt>
      <trkpt lat="45.98466" lon="0.8735">
        <ele>314.42578125</ele>
      </trkpt>
      <trkpt lat="45.98466" lon="0.87351">
        <ele>314.37890625</ele>
      </trkpt>
      <trkpt lat="45.98473" lon="0.87335">
        <ele>315.10546875</ele>
      </trkpt>
      <trkpt lat="45.98476" lon="0.87322">
        <ele>315.7421875</ele>
      </trkpt>
      <trkpt lat="45.98478" lon="0.8731">
        <ele>316.34375</ele>
      </trkpt>
      <trkpt lat="45.98479" lon="0.87305">
        <ele>316.61328125</ele>
      </trkpt>
      <trkpt lat="45.98486" lon="0.87298">
        <ele>316.82421875</ele>
      </trkpt>
      <trkpt lat="45.98495" lon="0.87292">
        <ele>317.01953125</ele>
      </trkpt>
      <trkpt lat="45.98498" lon="0.87288">
        <ele>317.19140625</ele>
      </trkpt>
      <trkpt lat="45.98497" lon="0.87277">
        <ele>317.734375</ele>
      </trkpt>
      <trkpt lat="45.98526" lon="0.87254">
        <ele>318.0234375</ele>
      </trkpt>
      <trkpt lat="45.98549" lon="0.87239">
        <ele>317.93359375</ele>
      </trkpt>
      <trkpt lat="45.98553" lon="0.87233">
        <ele>318</ele>
      </trkpt>
      <trkpt lat="45.98554" lon="0.87225">
        <ele>318.18359375</ele>
      </trkpt>
      <trkpt lat="45.98569" lon="0.87228">
        <ele>317.5703125</ele>
      </trkpt>
      <trkpt lat="45.98582" lon="0.87239">
        <ele>316.89453125</ele>
      </trkpt>
      <trkpt lat="45.98593" lon="0.87246">
        <ele>316.2890625</ele>
      </trkpt>
      <trkpt lat="45.98606" lon="0.87257">
        <ele>315.4765625</ele>
      </trkpt>
      <trkpt lat="45.98617" lon="0.87272">
        <ele>314.89453125</ele>
      </trkpt>
      <trkpt lat="45.9862" lon="0.87275">
        <ele>314.80859375</ele>
      </trkpt>
      <trkpt lat="45.98617" lon="0.87272">
        <ele>314.89453125</ele>
      </trkpt>
      <trkpt lat="45.9863" lon="0.87293">
        <ele>314.16015625</ele>
      </trkpt>
      <trkpt lat="45.98645" lon="0.87324">
        <ele>313.1484375</ele>
      </trkpt>
      <trkpt lat="45.98654" lon="0.87347">
        <ele>312.59765625</ele>
      </trkpt>
      <trkpt lat="45.98661" lon="0.8737">
        <ele>312.0390625</ele>
      </trkpt>
      <trkpt lat="45.98668" lon="0.87397">
        <ele>311.28515625</ele>
      </trkpt>
      <trkpt lat="45.98675" lon="0.87424">
        <ele>309.8828125</ele>
      </trkpt>
      <trkpt lat="45.98684" lon="0.87442">
        <ele>308.73828125</ele>
      </trkpt>
      <trkpt lat="45.98696" lon="0.87464">
        <ele>307.17578125</ele>
      </trkpt>
      <trkpt lat="45.98714" lon="0.87494">
        <ele>304.32421875</ele>
      </trkpt>
      <trkpt lat="45.98726" lon="0.87523">
        <ele>301.91015625</ele>
      </trkpt>
      <trkpt lat="45.98748" lon="0.87609">
        <ele>295.55859375</ele>
      </trkpt>
      <trkpt lat="45.98763" lon="0.87676">
        <ele>290.390625</ele>
      </trkpt>
      <trkpt lat="45.98764" lon="0.87688">
        <ele>289.64453125</ele>
      </trkpt>
      <trkpt lat="45.98764" lon="0.87695">
        <ele>289.1875</ele>
      </trkpt>
      <trkpt lat="45.98764" lon="0.87706">
        <ele>288.53125</ele>
      </trkpt>
      <trkpt lat="45.98763" lon="0.87724">
        <ele>287.4921875</ele>
      </trkpt>
      <trkpt lat="45.98764" lon="0.87706">
        <ele>288.53125</ele>
      </trkpt>
      <trkpt lat="45.98762" lon="0.87734">
        <ele>286.83984375</ele>
      </trkpt>
      <trkpt lat="45.98759" lon="0.87757">
        <ele>285.390625</ele>
      </trkpt>
      <trkpt lat="45.98751" lon="0.87776">
        <ele>284.36328125</ele>
      </trkpt>
      <trkpt lat="45.98747" lon="0.87788">
        <ele>284.109375</ele>
      </trkpt>
      <trkpt lat="45.98745" lon="0.87796">
        <ele>284.05859375</ele>
      </trkpt>
      <trkpt lat="45.98744" lon="0.87806">
        <ele>283.9609375</ele>
      </trkpt>
      <trkpt lat="45.98744" lon="0.87813">
        <ele>283.84765625</ele>
      </trkpt>
      <trkpt lat="45.98744" lon="0.8782">
        <ele>283.75390625</ele>
      </trkpt>
      <trkpt lat="45.9875" lon="0.87834">
        <ele>283.203125</ele>
      </trkpt>
      <trkpt lat="45.98778" lon="0.87876">
        <ele>282.875</ele>
      </trkpt>
      <trkpt lat="45.98787" lon="0.87896">
        <ele>282.6640625</ele>
      </trkpt>
      <trkpt lat="45.98797" lon="0.87922">
        <ele>282.7265625</ele>
      </trkpt>
      <trkpt lat="45.98806" lon="0.87958">
        <ele>283.2421875</ele>
      </trkpt>
      <trkpt lat="45.98817" lon="0.87993">
        <ele>284.3671875</ele>
      </trkpt>
      <trkpt lat="45.98822" lon="0.88017">
        <ele>285.234375</ele>
      </trkpt>
      <trkpt lat="45.98826" lon="0.88031">
        <ele>285.671875</ele>
      </trkpt>
      <trkpt lat="45.98827" lon="0.8804">
        <ele>286.05859375</ele>
      </trkpt>
      <trkpt lat="45.98831" lon="0.88051">
        <ele>286.2265625</ele>
      </trkpt>
      <trkpt lat="45.98835" lon="0.88063">
        <ele>286.4453125</ele>
      </trkpt>
      <trkpt lat="45.98844" lon="0.88084">
        <ele>286.62109375</ele>
      </trkpt>
      <trkpt lat="45.98878" lon="0.8813">
        <ele>285.69921875</ele>
      </trkpt>
      <trkpt lat="45.98916" lon="0.88174">
        <ele>283.49609375</ele>
      </trkpt>
      <trkpt lat="45.98947" lon="0.88215">
        <ele>283.625</ele>
      </trkpt>
      <trkpt lat="45.98956" lon="0.88228">
        <ele>283.73828125</ele>
      </trkpt>
      <trkpt lat="45.98976" lon="0.88246">
        <ele>283.390625</ele>
      </trkpt>
      <trkpt lat="45.98996" lon="0.8826">
        <ele>283.2734375</ele>
      </trkpt>
      <trkpt lat="45.99012" lon="0.88276">
        <ele>283.2734375</ele>
      </trkpt>
      <trkpt lat="45.99021" lon="0.88284">
        <ele>283.1015625</ele>
      </trkpt>
      <trkpt lat="45.9903" lon="0.88289">
        <ele>282.8515625</ele>
      </trkpt>
      <trkpt lat="45.99045" lon="0.88294">
        <ele>282.484375</ele>
      </trkpt>
      <trkpt lat="45.99067" lon="0.88302">
        <ele>281.9609375</ele>
      </trkpt>
      <trkpt lat="45.99079" lon="0.88306">
        <ele>281.671875</ele>
      </trkpt>
      <trkpt lat="45.99087" lon="0.88311">
        <ele>281.41796875</ele>
      </trkpt>
      <trkpt lat="45.99142" lon="0.8836">
        <ele>279.55078125</ele>
      </trkpt>
      <trkpt lat="45.99187" lon="0.88402">
        <ele>278.36328125</ele>
      </trkpt>
      <trkpt lat="45.99263" lon="0.88482">
        <ele>281.640625</ele>
      </trkpt>
      <trkpt lat="45.99301" lon="0.88518">
        <ele>283.7109375</ele>
      </trkpt>
      <trkpt lat="45.99306" lon="0.88524">
        <ele>283.90234375</ele>
      </trkpt>
      <trkpt lat="45.99313" lon="0.88527">
        <ele>284.06640625</ele>
      </trkpt>
      <trkpt lat="45.9932" lon="0.88527">
        <ele>284.203125</ele>
      </trkpt>
      <trkpt lat="45.99332" lon="0.88525">
        <ele>284.4140625</ele>
      </trkpt>
      <trkpt lat="45.99348" lon="0.8852">
        <ele>284.70703125</ele>
      </trkpt>
      <trkpt lat="45.99356" lon="0.88519">
        <ele>284.83984375</ele>
      </trkpt>
      <trkpt lat="45.99371" lon="0.8852">
        <ele>285</ele>
      </trkpt>
      <trkpt lat="45.99375" lon="0.88517">
        <ele>285</ele>
      </trkpt>
      <trkpt lat="45.99379" lon="0.88511">
        <ele>285</ele>
      </trkpt>
      <trkpt lat="45.99381" lon="0.88503">
        <ele>285</ele>
      </trkpt>
      <trkpt lat="45.99384" lon="0.88497">
        <ele>284.82421875</ele>
      </trkpt>
      <trkpt lat="45.99392" lon="0.88485">
        <ele>284.40234375</ele>
      </trkpt>
      <trkpt lat="45.99407" lon="0.8847">
        <ele>283.859375</ele>
      </trkpt>
      <trkpt lat="45.99446" lon="0.88441">
        <ele>281.7109375</ele>
      </trkpt>
      <trkpt lat="45.99456" lon="0.88436">
        <ele>280.90234375</ele>
      </trkpt>
      <trkpt lat="45.99464" lon="0.88435">
        <ele>280.46484375</ele>
      </trkpt>
      <trkpt lat="45.9947" lon="0.88435">
        <ele>280.18359375</ele>
      </trkpt>
      <trkpt lat="45.99476" lon="0.88436">
        <ele>280.0234375</ele>
      </trkpt>
      <trkpt lat="45.9949" lon="0.88441">
        <ele>278.7734375</ele>
      </trkpt>
      <trkpt lat="45.99507" lon="0.88451">
        <ele>277.3359375</ele>
      </trkpt>
      <trkpt lat="45.99526" lon="0.88461">
        <ele>275.6875</ele>
      </trkpt>
      <trkpt lat="45.99536" lon="0.88471">
        <ele>275.36328125</ele>
      </trkpt>
      <trkpt lat="45.9955" lon="0.88485">
        <ele>275.109375</ele>
      </trkpt>
      <trkpt lat="45.99564" lon="0.88501">
        <ele>275.015625</ele>
      </trkpt>
      <trkpt lat="45.99568" lon="0.88504">
        <ele>274.78125</ele>
      </trkpt>
      <trkpt lat="45.99575" lon="0.8851">
        <ele>274.3671875</ele>
      </trkpt>
      <trkpt lat="45.99585" lon="0.88514">
        <ele>273.77734375</ele>
      </trkpt>
      <trkpt lat="45.99597" lon="0.88515">
        <ele>273.25</ele>
      </trkpt>
      <trkpt lat="45.99607" lon="0.88516">
        <ele>272.8828125</ele>
      </trkpt>
      <trkpt lat="45.99639" lon="0.88522">
        <ele>271.91796875</ele>
      </trkpt>
      <trkpt lat="45.99661" lon="0.88526">
        <ele>270.98046875</ele>
      </trkpt>
      <trkpt lat="45.99674" lon="0.88528">
        <ele>270.3515625</ele>
      </trkpt>
      <trkpt lat="45.99701" lon="0.88542">
        <ele>269.6640625</ele>
      </trkpt>
      <trkpt lat="45.99742" lon="0.88558">
        <ele>267.82421875</ele>
      </trkpt>
      <trkpt lat="45.99758" lon="0.88563">
        <ele>266.9375</ele>
      </trkpt>
      <trkpt lat="45.99783" lon="0.88574">
        <ele>266.2421875</ele>
      </trkpt>
      <trkpt lat="45.99835" lon="0.88582">
        <ele>265.44140625</ele>
      </trkpt>
      <trkpt lat="45.99845" lon="0.88583">
        <ele>265.46484375</ele>
      </trkpt>
      <trkpt lat="45.99883" lon="0.88588">
        <ele>265.7109375</ele>
      </trkpt>
      <trkpt lat="45.99881" lon="0.88563">
        <ele>265.38671875</ele>
      </trkpt>
      <trkpt lat="45.99869" lon="0.88453">
        <ele>261.328125</ele>
      </trkpt>
      <trkpt lat="45.9986" lon="0.88366">
        <ele>259.03515625</ele>
      </trkpt>
      <trkpt lat="45.99848" lon="0.88282">
        <ele>255.80859375</ele>
      </trkpt>
      <trkpt lat="45.99844" lon="0.88242">
        <ele>254.2890625</ele>
      </trkpt>
      <trkpt lat="45.99842" lon="0.88217">
        <ele>253.41015625</ele>
      </trkpt>
      <trkpt lat="45.99839" lon="0.8818">
        <ele>252.41796875</ele>
      </trkpt>
      <trkpt lat="45.99839" lon="0.88164">
        <ele>251.95703125</ele>
      </trkpt>
      <trkpt lat="45.99839" lon="0.8815">
        <ele>251.453125</ele>
      </trkpt>
      <trkpt lat="45.99844" lon="0.88085">
        <ele>249.7578125</ele>
      </trkpt>
      <trkpt lat="45.99851" lon="0.88011">
        <ele>248.05078125</ele>
      </trkpt>
      <trkpt lat="45.9985" lon="0.88001">
        <ele>247.70703125</ele>
      </trkpt>
      <trkpt lat="45.9985" lon="0.87996">
        <ele>247.4453125</ele>
      </trkpt>
      <trkpt lat="45.99847" lon="0.87984">
        <ele>246.8203125</ele>
      </trkpt>
      <trkpt lat="45.9984" lon="0.87971">
        <ele>246.14453125</ele>
      </trkpt>
      <trkpt lat="45.99834" lon="0.87956">
        <ele>245.42578125</ele>
      </trkpt>
      <trkpt lat="45.99832" lon="0.87949">
        <ele>245.09375</ele>
      </trkpt>
      <trkpt lat="45.99832" lon="0.87941">
        <ele>245.09765625</ele>
      </trkpt>
      <trkpt lat="45.99833" lon="0.87934">
        <ele>245.23046875</ele>
      </trkpt>
      <trkpt lat="45.99835" lon="0.87894">
        <ele>245.9453125</ele>
      </trkpt>
      <trkpt lat="45.9984" lon="0.87876">
        <ele>246.8046875</ele>
      </trkpt>
      <trkpt lat="45.99845" lon="0.87856">
        <ele>247.890625</ele>
      </trkpt>
      <trkpt lat="45.9985" lon="0.87838">
        <ele>248.83984375</ele>
      </trkpt>
      <trkpt lat="45.99856" lon="0.87827">
        <ele>249.58203125</ele>
      </trkpt>
      <trkpt lat="45.99865" lon="0.87821">
        <ele>249.9921875</ele>
      </trkpt>
      <trkpt lat="45.99875" lon="0.87818">
        <ele>250.15625</ele>
      </trkpt>
      <trkpt lat="45.99896" lon="0.87813">
        <ele>250.46484375</ele>
      </trkpt>
      <trkpt lat="45.99912" lon="0.8781">
        <ele>250.78125</ele>
      </trkpt>
      <trkpt lat="45.9992" lon="0.87808">
        <ele>250.97265625</ele>
      </trkpt>
      <trkpt lat="45.9993" lon="0.87803">
        <ele>251.375</ele>
      </trkpt>
      <trkpt lat="45.99938" lon="0.87799">
        <ele>251.7421875</ele>
      </trkpt>
      <trkpt lat="45.99946" lon="0.87793">
        <ele>252.24609375</ele>
      </trkpt>
      <trkpt lat="45.99951" lon="0.87788">
        <ele>252.61328125</ele>
      </trkpt>
      <trkpt lat="45.99961" lon="0.87776">
        <ele>253.5390625</ele>
      </trkpt>
      <trkpt lat="45.9997" lon="0.87767">
        <ele>254.203125</ele>
      </trkpt>
      <trkpt lat="45.99978" lon="0.8776">
        <ele>254.80078125</ele>
      </trkpt>
      <trkpt lat="45.99981" lon="0.87755">
        <ele>255.1796875</ele>
      </trkpt>
      <trkpt lat="45.99987" lon="0.87741">
        <ele>256.16796875</ele>
      </trkpt>
      <trkpt lat="45.99992" lon="0.87732">
        <ele>256.796875</ele>
      </trkpt>
      <trkpt lat="46.00001" lon="0.87721">
        <ele>257.08203125</ele>
      </trkpt>
      <trkpt lat="46.00008" lon="0.87713">
        <ele>256.796875</ele>
      </trkpt>
      <trkpt lat="46.00015" lon="0.87707">
        <ele>256.4453125</ele>
      </trkpt>
      <trkpt lat="46.00022" lon="0.877">
        <ele>256.00390625</ele>
      </trkpt>
      <trkpt lat="46.00025" lon="0.87694">
        <ele>255.78125</ele>
      </trkpt>
      <trkpt lat="46.00027" lon="0.87691">
        <ele>255.625</ele>
      </trkpt>
      <trkpt lat="46.00027" lon="0.87683">
        <ele>255.4765625</ele>
      </trkpt>
      <trkpt lat="46.00025" lon="0.87677">
        <ele>255.515625</ele>
      </trkpt>
      <trkpt lat="46.00007" lon="0.87651">
        <ele>256.26171875</ele>
      </trkpt>
      <trkpt lat="45.99988" lon="0.87623">
        <ele>256.640625</ele>
      </trkpt>
      <trkpt lat="45.99981" lon="0.87609">
        <ele>256.7578125</ele>
      </trkpt>
      <trkpt lat="45.99982" lon="0.87602">
        <ele>256.82421875</ele>
      </trkpt>
      <trkpt lat="45.99983" lon="0.87597">
        <ele>256.80859375</ele>
      </trkpt>
      <trkpt lat="45.99992" lon="0.87586">
        <ele>256.42578125</ele>
      </trkpt>
      <trkpt lat="46.00004" lon="0.87572">
        <ele>255.77734375</ele>
      </trkpt>
      <trkpt lat="45.99995" lon="0.87559">
        <ele>256.5546875</ele>
      </trkpt>
      <trkpt lat="45.99986" lon="0.87542">
        <ele>257.5078125</ele>
      </trkpt>
      <trkpt lat="45.99976" lon="0.87524">
        <ele>258.53125</ele>
      </trkpt>
      <trkpt lat="45.99962" lon="0.87505">
        <ele>259.875</ele>
      </trkpt>
      <trkpt lat="45.9995" lon="0.87488">
        <ele>261.20703125</ele>
      </trkpt>
      <trkpt lat="45.99947" lon="0.87482">
        <ele>261.57421875</ele>
      </trkpt>
      <trkpt lat="45.99945" lon="0.87479">
        <ele>261.796875</ele>
      </trkpt>
      <trkpt lat="45.99932" lon="0.8747">
        <ele>262.83984375</ele>
      </trkpt>
      <trkpt lat="45.99914" lon="0.87466">
        <ele>263.90625</ele>
      </trkpt>
      <trkpt lat="45.99898" lon="0.87462">
        <ele>264.7734375</ele>
      </trkpt>
      <trkpt lat="45.99886" lon="0.87455">
        <ele>265.54296875</ele>
      </trkpt>
      <trkpt lat="45.99884" lon="0.8745">
        <ele>265.8515625</ele>
      </trkpt>
      <trkpt lat="45.9988" lon="0.87441">
        <ele>266.32421875</ele>
      </trkpt>
      <trkpt lat="45.99877" lon="0.87411">
        <ele>267.57421875</ele>
      </trkpt>
      <trkpt lat="45.99877" lon="0.87398">
        <ele>268.04296875</ele>
      </trkpt>
      <trkpt lat="45.99875" lon="0.87384">
        <ele>268.62890625</ele>
      </trkpt>
      <trkpt lat="45.99875" lon="0.87379">
        <ele>268.8203125</ele>
      </trkpt>
      <trkpt lat="45.99875" lon="0.87374">
        <ele>268.9921875</ele>
      </trkpt>
      <trkpt lat="45.99877" lon="0.87361">
        <ele>269.2890625</ele>
      </trkpt>
      <trkpt lat="45.99878" lon="0.87353">
        <ele>269.42578125</ele>
      </trkpt>
      <trkpt lat="45.99877" lon="0.87348">
        <ele>269.6796875</ele>
      </trkpt>
      <trkpt lat="45.99871" lon="0.87335">
        <ele>270.546875</ele>
      </trkpt>
      <trkpt lat="45.99869" lon="0.87332">
        <ele>270.83203125</ele>
      </trkpt>
      <trkpt lat="45.9989" lon="0.87328">
        <ele>269.53515625</ele>
      </trkpt>
      <trkpt lat="45.99898" lon="0.87326">
        <ele>269.03515625</ele>
      </trkpt>
      <trkpt lat="45.99909" lon="0.87318">
        <ele>268.7265625</ele>
      </trkpt>
      <trkpt lat="45.9992" lon="0.87307">
        <ele>268.53515625</ele>
      </trkpt>
      <trkpt lat="45.99931" lon="0.87292">
        <ele>268.76953125</ele>
      </trkpt>
      <trkpt lat="45.9994" lon="0.87277">
        <ele>269</ele>
      </trkpt>
      <trkpt lat="45.9995" lon="0.87254">
        <ele>269.2890625</ele>
      </trkpt>
      <trkpt lat="45.99971" lon="0.87207">
        <ele>270.125</ele>
      </trkpt>
      <trkpt lat="46.00012" lon="0.87117">
        <ele>269.6875</ele>
      </trkpt>
      <trkpt lat="46.00034" lon="0.87067">
        <ele>266.9296875</ele>
      </trkpt>
      <trkpt lat="46.00037" lon="0.87061">
        <ele>266.62109375</ele>
      </trkpt>
      <trkpt lat="46.00063" lon="0.87006">
        <ele>264.15625</ele>
      </trkpt>
      <trkpt lat="46.00069" lon="0.86998">
        <ele>263.62890625</ele>
      </trkpt>
      <trkpt lat="46.0008" lon="0.86993">
        <ele>262.7578125</ele>
      </trkpt>
      <trkpt lat="46.00092" lon="0.86994">
        <ele>261.82421875</ele>
      </trkpt>
      <trkpt lat="46.00104" lon="0.87">
        <ele>261.015625</ele>
      </trkpt>
      <trkpt lat="46.00153" lon="0.8704">
        <ele>260.078125</ele>
      </trkpt>
      <trkpt lat="46.0017" lon="0.87052">
        <ele>260.203125</ele>
      </trkpt>
      <trkpt lat="46.00188" lon="0.87061">
        <ele>260.2890625</ele>
      </trkpt>
      <trkpt lat="46.00215" lon="0.8707">
        <ele>260.35546875</ele>
      </trkpt>
      <trkpt lat="46.00261" lon="0.8708">
        <ele>260.29296875</ele>
      </trkpt>
      <trkpt lat="46.00303" lon="0.87089">
        <ele>260.1640625</ele>
      </trkpt>
      <trkpt lat="46.00335" lon="0.87097">
        <ele>260.0546875</ele>
      </trkpt>
      <trkpt lat="46.00348" lon="0.87104">
        <ele>260.06640625</ele>
      </trkpt>
      <trkpt lat="46.00374" lon="0.87125">
        <ele>259.8046875</ele>
      </trkpt>
      <trkpt lat="46.00392" lon="0.87143">
        <ele>259.24609375</ele>
      </trkpt>
      <trkpt lat="46.00412" lon="0.87163">
        <ele>258.36328125</ele>
      </trkpt>
      <trkpt lat="46.00419" lon="0.87166">
        <ele>258.02734375</ele>
      </trkpt>
      <trkpt lat="46.00423" lon="0.87169">
        <ele>257.66015625</ele>
      </trkpt>
      <trkpt lat="46.00426" lon="0.8717">
        <ele>257.375</ele>
      </trkpt>
      <trkpt lat="46.00431" lon="0.8717">
        <ele>256.9921875</ele>
      </trkpt>
      <trkpt lat="46.00439" lon="0.87159">
        <ele>256.2109375</ele>
      </trkpt>
      <trkpt lat="46.00454" lon="0.8713">
        <ele>254.859375</ele>
      </trkpt>
      <trkpt lat="46.00482" lon="0.87063">
        <ele>253.109375</ele>
      </trkpt>
      <trkpt lat="46.00493" lon="0.87023">
        <ele>253.31640625</ele>
      </trkpt>
      <trkpt lat="46.00501" lon="0.86978">
        <ele>254.23046875</ele>
      </trkpt>
      <trkpt lat="46.00505" lon="0.86966">
        <ele>254.40625</ele>
      </trkpt>
      <trkpt lat="46.00509" lon="0.86956">
        <ele>254.51171875</ele>
      </trkpt>
      <trkpt lat="46.00529" lon="0.8691">
        <ele>256.02734375</ele>
      </trkpt>
      <trkpt lat="46.00554" lon="0.86848">
        <ele>254.359375</ele>
      </trkpt>
      <trkpt lat="46.0057" lon="0.86778">
        <ele>248.77734375</ele>
      </trkpt>
      <trkpt lat="46.00571" lon="0.86771">
        <ele>247.96484375</ele>
      </trkpt>
      <trkpt lat="46.00573" lon="0.86761">
        <ele>246.82421875</ele>
      </trkpt>
      <trkpt lat="46.00572" lon="0.86749">
        <ele>245.8984375</ele>
      </trkpt>
      <trkpt lat="46.00571" lon="0.86742">
        <ele>245.35546875</ele>
      </trkpt>
      <trkpt lat="46.00563" lon="0.86729">
        <ele>245.28125</ele>
      </trkpt>
      <trkpt lat="46.00546" lon="0.86712">
        <ele>246.35546875</ele>
      </trkpt>
      <trkpt lat="46.00532" lon="0.86693">
        <ele>246.55859375</ele>
      </trkpt>
      <trkpt lat="46.00521" lon="0.86679">
        <ele>246.03125</ele>
      </trkpt>
      <trkpt lat="46.00515" lon="0.86675">
        <ele>245.91796875</ele>
      </trkpt>
      <trkpt lat="46.005" lon="0.8667">
        <ele>246.09765625</ele>
      </trkpt>
      <trkpt lat="46.00492" lon="0.86665">
        <ele>246.703125</ele>
      </trkpt>
      <trkpt lat="46.00481" lon="0.86657">
        <ele>247.7109375</ele>
      </trkpt>
      <trkpt lat="46.00457" lon="0.86629">
        <ele>250.31640625</ele>
      </trkpt>
      <trkpt lat="46.00434" lon="0.86596">
        <ele>253.22265625</ele>
      </trkpt>
      <trkpt lat="46.00429" lon="0.86586">
        <ele>254.01171875</ele>
      </trkpt>
      <trkpt lat="46.00427" lon="0.86577">
        <ele>254.671875</ele>
      </trkpt>
      <trkpt lat="46.00428" lon="0.86568">
        <ele>255.43359375</ele>
      </trkpt>
      <trkpt lat="46.0042" lon="0.86552">
        <ele>256.33984375</ele>
      </trkpt>
      <trkpt lat="46.00396" lon="0.86502">
        <ele>258.60546875</ele>
      </trkpt>
      <trkpt lat="46.00391" lon="0.8648">
        <ele>259.53515625</ele>
      </trkpt>
      <trkpt lat="46.00387" lon="0.86434">
        <ele>261.33984375</ele>
      </trkpt>
      <trkpt lat="46.00381" lon="0.86406">
        <ele>262.1328125</ele>
      </trkpt>
      <trkpt lat="46.00378" lon="0.8638">
        <ele>262.72265625</ele>
      </trkpt>
      <trkpt lat="46.00367" lon="0.8635">
        <ele>262.875</ele>
      </trkpt>
      <trkpt lat="46.00341" lon="0.86301">
        <ele>264.390625</ele>
      </trkpt>
      <trkpt lat="46.00329" lon="0.86272">
        <ele>265.00390625</ele>
      </trkpt>
      <trkpt lat="46.00318" lon="0.86239">
        <ele>265.75</ele>
      </trkpt>
      <trkpt lat="46.00311" lon="0.86215">
        <ele>266.39453125</ele>
      </trkpt>
      <trkpt lat="46.00307" lon="0.86194">
        <ele>267.11328125</ele>
      </trkpt>
      <trkpt lat="46.00299" lon="0.86163">
        <ele>268.15234375</ele>
      </trkpt>
      <trkpt lat="46.00294" lon="0.86129">
        <ele>268.9140625</ele>
      </trkpt>
      <trkpt lat="46.00288" lon="0.86094">
        <ele>269.4921875</ele>
      </trkpt>
      <trkpt lat="46.00285" lon="0.86041">
        <ele>269.84765625</ele>
      </trkpt>
      <trkpt lat="46.00285" lon="0.86009">
        <ele>269.84765625</ele>
      </trkpt>
      <trkpt lat="46.00282" lon="0.85964">
        <ele>270.28125</ele>
      </trkpt>
      <trkpt lat="46.0028" lon="0.85944">
        <ele>270.609375</ele>
      </trkpt>
      <trkpt lat="46.00282" lon="0.85912">
        <ele>271.37109375</ele>
      </trkpt>
      <trkpt lat="46.00281" lon="0.85872">
        <ele>272.35546875</ele>
      </trkpt>
      <trkpt lat="46.00279" lon="0.8584">
        <ele>272.98828125</ele>
      </trkpt>
      <trkpt lat="46.00275" lon="0.85802">
        <ele>273.80859375</ele>
      </trkpt>
      <trkpt lat="46.00274" lon="0.85787">
        <ele>274.12109375</ele>
      </trkpt>
      <trkpt lat="46.00282" lon="0.85781">
        <ele>273.9609375</ele>
      </trkpt>
      <trkpt lat="46.00308" lon="0.85777">
        <ele>273.0078125</ele>
      </trkpt>
      <trkpt lat="46.00334" lon="0.85777">
        <ele>272.54296875</ele>
      </trkpt>
      <trkpt lat="46.00357" lon="0.85778">
        <ele>272.11328125</ele>
      </trkpt>
      <trkpt lat="46.00392" lon="0.85779">
        <ele>272</ele>
      </trkpt>
      <trkpt lat="46.00421" lon="0.85786">
        <ele>271.78515625</ele>
      </trkpt>
      <trkpt lat="46.00447" lon="0.85795">
        <ele>271.1328125</ele>
      </trkpt>
      <trkpt lat="46.00469" lon="0.858">
        <ele>270.734375</ele>
      </trkpt>
      <trkpt lat="46.00485" lon="0.85806">
        <ele>270.546875</ele>
      </trkpt>
      <trkpt lat="46.00494" lon="0.85811">
        <ele>270.453125</ele>
      </trkpt>
      <trkpt lat="46.00496" lon="0.85821">
        <ele>270.2890625</ele>
      </trkpt>
      <trkpt lat="46.00495" lon="0.85829">
        <ele>270.13671875</ele>
      </trkpt>
      <trkpt lat="46.00492" lon="0.85851">
        <ele>269.3984375</ele>
      </trkpt>
      <trkpt lat="46.0049" lon="0.85865">
        <ele>268.8515625</ele>
      </trkpt>
      <trkpt lat="46.00492" lon="0.85878">
        <ele>268.28515625</ele>
      </trkpt>
      <trkpt lat="46.00497" lon="0.85893">
        <ele>267.578125</ele>
      </trkpt>
      <trkpt lat="46.00515" lon="0.85923">
        <ele>266.17578125</ele>
      </trkpt>
      <trkpt lat="46.00526" lon="0.85939">
        <ele>265.3828125</ele>
      </trkpt>
      <trkpt lat="46.00535" lon="0.85953">
        <ele>264.8046875</ele>
      </trkpt>
      <trkpt lat="46.00541" lon="0.85954">
        <ele>264.76953125</ele>
      </trkpt>
      <trkpt lat="46.00549" lon="0.85939">
        <ele>265.30859375</ele>
      </trkpt>
      <trkpt lat="46.00572" lon="0.85884">
        <ele>267.2109375</ele>
      </trkpt>
      <trkpt lat="46.00595" lon="0.85828">
        <ele>267.6796875</ele>
      </trkpt>
      <trkpt lat="46.0064" lon="0.85701">
        <ele>266.51953125</ele>
      </trkpt>
      <trkpt lat="46.0067" lon="0.85629">
        <ele>267.60546875</ele>
      </trkpt>
      <trkpt lat="46.00687" lon="0.85597">
        <ele>267.94140625</ele>
      </trkpt>
      <trkpt lat="46.00706" lon="0.85563">
        <ele>267.83203125</ele>
      </trkpt>
      <trkpt lat="46.00728" lon="0.85525">
        <ele>266.55859375</ele>
      </trkpt>
      <trkpt lat="46.00721" lon="0.85517">
        <ele>266.38671875</ele>
      </trkpt>
      <trkpt lat="46.00724" lon="0.85506">
        <ele>266.07421875</ele>
      </trkpt>
      <trkpt lat="46.00738" lon="0.85488">
        <ele>265.4453125</ele>
      </trkpt>
      <trkpt lat="46.00741" lon="0.85483">
        <ele>265.27734375</ele>
      </trkpt>
      <trkpt lat="46.00751" lon="0.85476">
        <ele>265.0078125</ele>
      </trkpt>
      <trkpt lat="46.00761" lon="0.85465">
        <ele>264.5703125</ele>
      </trkpt>
      <trkpt lat="46.00775" lon="0.85451">
        <ele>264.08984375</ele>
      </trkpt>
      <trkpt lat="46.00786" lon="0.85439">
        <ele>263.59765625</ele>
      </trkpt>
      <trkpt lat="46.00798" lon="0.85423">
        <ele>263.015625</ele>
      </trkpt>
      <trkpt lat="46.00809" lon="0.85408">
        <ele>262.55078125</ele>
      </trkpt>
      <trkpt lat="46.0082" lon="0.85394">
        <ele>261.828125</ele>
      </trkpt>
      <trkpt lat="46.00828" lon="0.85383">
        <ele>261.20703125</ele>
      </trkpt>
      <trkpt lat="46.00845" lon="0.85372">
        <ele>260.453125</ele>
      </trkpt>
      <trkpt lat="46.00851" lon="0.85368">
        <ele>260.234375</ele>
      </trkpt>
      <trkpt lat="46.00888" lon="0.8536">
        <ele>259.41015625</ele>
      </trkpt>
      <trkpt lat="46.00909" lon="0.85357">
        <ele>258.90234375</ele>
      </trkpt>
      <trkpt lat="46.00934" lon="0.85359">
        <ele>258.03515625</ele>
      </trkpt>
      <trkpt lat="46.00943" lon="0.85362">
        <ele>257.63671875</ele>
      </trkpt>
      <trkpt lat="46.00969" lon="0.85377">
        <ele>256.328125</ele>
      </trkpt>
      <trkpt lat="46.00984" lon="0.85388">
        <ele>255.3125</ele>
      </trkpt>
      <trkpt lat="46.0099" lon="0.85392">
        <ele>254.86328125</ele>
      </trkpt>
      <trkpt lat="46.01006" lon="0.85403">
        <ele>253.7578125</ele>
      </trkpt>
      <trkpt lat="46.01041" lon="0.85431">
        <ele>250.6328125</ele>
      </trkpt>
      <trkpt lat="46.01058" lon="0.85445">
        <ele>248.4921875</ele>
      </trkpt>
      <trkpt lat="46.01072" lon="0.85455">
        <ele>246.40625</ele>
      </trkpt>
      <trkpt lat="46.0108" lon="0.8546">
        <ele>245.21484375</ele>
      </trkpt>
      <trkpt lat="46.0109" lon="0.85458">
        <ele>244.09765625</ele>
      </trkpt>
      <trkpt lat="46.01099" lon="0.85457">
        <ele>243.04296875</ele>
      </trkpt>
      <trkpt lat="46.01119" lon="0.85427">
        <ele>241.16015625</ele>
      </trkpt>
      <trkpt lat="46.01128" lon="0.85412">
        <ele>240.24609375</ele>
      </trkpt>
      <trkpt lat="46.01149" lon="0.85381">
        <ele>238.3125</ele>
      </trkpt>
      <trkpt lat="46.01158" lon="0.85363">
        <ele>237.48828125</ele>
      </trkpt>
      <trkpt lat="46.01167" lon="0.85345">
        <ele>236.6875</ele>
      </trkpt>
      <trkpt lat="46.01184" lon="0.8532">
        <ele>235.09765625</ele>
      </trkpt>
      <trkpt lat="46.01202" lon="0.85295">
        <ele>233.234375</ele>
      </trkpt>
      <trkpt lat="46.01212" lon="0.8528">
        <ele>231.72265625</ele>
      </trkpt>
      <trkpt lat="46.01222" lon="0.85265">
        <ele>230.16796875</ele>
      </trkpt>
      <trkpt lat="46.0123" lon="0.85252">
        <ele>229.03125</ele>
      </trkpt>
      <trkpt lat="46.01241" lon="0.85236">
        <ele>227.953125</ele>
      </trkpt>
      <trkpt lat="46.01252" lon="0.85219">
        <ele>226.65234375</ele>
      </trkpt>
      <trkpt lat="46.01259" lon="0.85207">
        <ele>224.41796875</ele>
      </trkpt>
      <trkpt lat="46.01274" lon="0.85185">
        <ele>220.58984375</ele>
      </trkpt>
      <trkpt lat="46.01282" lon="0.85172">
        <ele>218.63671875</ele>
      </trkpt>
      <trkpt lat="46.01285" lon="0.85161">
        <ele>217.90625</ele>
      </trkpt>
      <trkpt lat="46.01285" lon="0.85141">
        <ele>217.4296875</ele>
      </trkpt>
      <trkpt lat="46.01284" lon="0.85127">
        <ele>217.25390625</ele>
      </trkpt>
      <trkpt lat="46.01284" lon="0.85122">
        <ele>217.15625</ele>
      </trkpt>
      <trkpt lat="46.01284" lon="0.85108">
        <ele>217.30078125</ele>
      </trkpt>
      <trkpt lat="46.01286" lon="0.85091">
        <ele>217.6640625</ele>
      </trkpt>
      <trkpt lat="46.01289" lon="0.85081">
        <ele>217.8046875</ele>
      </trkpt>
      <trkpt lat="46.01294" lon="0.85073">
        <ele>217.625</ele>
      </trkpt>
      <trkpt lat="46.01301" lon="0.85068">
        <ele>217.1328125</ele>
      </trkpt>
      <trkpt lat="46.0131" lon="0.85065">
        <ele>216.39453125</ele>
      </trkpt>
      <trkpt lat="46.01317" lon="0.85059">
        <ele>216.05078125</ele>
      </trkpt>
      <trkpt lat="46.01321" lon="0.85052">
        <ele>215.765625</ele>
      </trkpt>
      <trkpt lat="46.01325" lon="0.85045">
        <ele>215.4921875</ele>
      </trkpt>
      <trkpt lat="46.01332" lon="0.85036">
        <ele>214.8046875</ele>
      </trkpt>
      <trkpt lat="46.01338" lon="0.85022">
        <ele>214.29296875</ele>
      </trkpt>
      <trkpt lat="46.01346" lon="0.85001">
        <ele>213.49609375</ele>
      </trkpt>
      <trkpt lat="46.01336" lon="0.84994">
        <ele>214.90625</ele>
      </trkpt>
      <trkpt lat="46.01329" lon="0.84983">
        <ele>215.84765625</ele>
      </trkpt>
      <trkpt lat="46.01319" lon="0.84961">
        <ele>216.90625</ele>
      </trkpt>
      <trkpt lat="46.01308" lon="0.84948">
        <ele>217.95703125</ele>
      </trkpt>
      <trkpt lat="46.01292" lon="0.84938">
        <ele>220.6171875</ele>
      </trkpt>
      <trkpt lat="46.01269" lon="0.84927">
        <ele>224.8671875</ele>
      </trkpt>
      <trkpt lat="46.01248" lon="0.84919">
        <ele>228.4296875</ele>
      </trkpt>
      <trkpt lat="46.01224" lon="0.84914">
        <ele>230.765625</ele>
      </trkpt>
      <trkpt lat="46.01196" lon="0.84922">
        <ele>234.07421875</ele>
      </trkpt>
      <trkpt lat="46.01169" lon="0.84933">
        <ele>236.453125</ele>
      </trkpt>
      <trkpt lat="46.0115" lon="0.84941">
        <ele>238.1171875</ele>
        <time>2017-07-21T08:27:37Z</time>
      </trkpt>
      <trkpt lat="46.01127" lon="0.84949">
        <ele>239.73046875</ele>
        <time>2017-07-21T08:27:38Z</time>
      </trkpt>
      <trkpt lat="46.01104" lon="0.84951">
        <ele>240.921875</ele>
        <time>2017-07-21T08:27:42Z</time>
      </trkpt>
      <trkpt lat="46.01084" lon="0.84948">
        <ele>242.0625</ele>
        <time>2017-07-21T08:27:50Z</time>
      </trkpt>
      <trkpt lat="46.01074" lon="0.84945">
        <ele>242.3125</ele>
        <time>2017-07-21T08:27:56Z</time>
      </trkpt>
      <trkpt lat="46.01053" lon="0.8494">
        <ele>243.06640625</ele>
        <time>2017-07-21T08:28:05Z</time>
      </trkpt>
      <trkpt lat="46.01036" lon="0.84929">
        <ele>243.70703125</ele>
        <time>2017-07-21T08:28:14Z</time>
      </trkpt>
      <trkpt lat="46.01022" lon="0.8491">
        <ele>244.65234375</ele>
        <time>2017-07-21T08:28:35Z</time>
      </trkpt>
      <trkpt lat="46.01001" lon="0.84899">
        <ele>246.46484375</ele>
        <time>2017-07-21T08:28:43Z</time>
      </trkpt>
      <trkpt lat="46.00981" lon="0.84892">
        <ele>248.390625</ele>
        <time>2017-07-21T08:28:50Z</time>
      </trkpt>
      <trkpt lat="46.0096" lon="0.8488">
        <ele>249.40234375</ele>
        <time>2017-07-21T08:28:59Z</time>
      </trkpt>
      <trkpt lat="46.00944" lon="0.84876">
        <ele>250.2109375</ele>
        <time>2017-07-21T08:29:06Z</time>
      </trkpt>
      <trkpt lat="46.0093" lon="0.84868">
        <ele>250.8515625</ele>
        <time>2017-07-21T08:29:13Z</time>
      </trkpt>
      <trkpt lat="46.00916" lon="0.84861">
        <ele>251.68359375</ele>
        <time>2017-07-21T08:29:21Z</time>
      </trkpt>
      <trkpt lat="46.00899" lon="0.84853">
        <ele>253.03125</ele>
        <time>2017-07-21T08:29:29Z</time>
      </trkpt>
      <trkpt lat="46.00888" lon="0.84851">
        <ele>253.9921875</ele>
        <time>2017-07-21T08:29:34Z</time>
      </trkpt>
      <trkpt lat="46.00886" lon="0.84849">
        <ele>254.1640625</ele>
        <time>2017-07-21T08:29:35Z</time>
      </trkpt>
      <trkpt lat="46.0087" lon="0.84843">
        <ele>255.50390625</ele>
        <time>2017-07-21T08:29:43Z</time>
      </trkpt>
      <trkpt lat="46.00863" lon="0.84841">
        <ele>256.06640625</ele>
        <time>2017-07-21T08:29:46Z</time>
      </trkpt>
      <trkpt lat="46.00861" lon="0.84841">
        <ele>256.23046875</ele>
        <time>2017-07-21T08:29:47Z</time>
      </trkpt>
      <trkpt lat="46.00859" lon="0.84841">
        <ele>256.37890625</ele>
        <time>2017-07-21T08:29:48Z</time>
      </trkpt>
      <trkpt lat="46.00846" lon="0.8484">
        <ele>257.3125</ele>
        <time>2017-07-21T08:29:54Z</time>
      </trkpt>
      <trkpt lat="46.00827" lon="0.84836">
        <ele>258.5234375</ele>
        <time>2017-07-21T08:30:02Z</time>
      </trkpt>
      <trkpt lat="46.00807" lon="0.84835">
        <ele>259.875</ele>
        <time>2017-07-21T08:30:11Z</time>
      </trkpt>
      <trkpt lat="46.00792" lon="0.84829">
        <ele>260.5625</ele>
        <time>2017-07-21T08:30:18Z</time>
      </trkpt>
      <trkpt lat="46.00776" lon="0.84824">
        <ele>261.46484375</ele>
        <time>2017-07-21T08:30:25Z</time>
      </trkpt>
      <trkpt lat="46.00758" lon="0.84822">
        <ele>262.7578125</ele>
        <time>2017-07-21T08:30:33Z</time>
      </trkpt>
      <trkpt lat="46.00738" lon="0.84824">
        <ele>263.8046875</ele>
        <time>2017-07-21T08:30:42Z</time>
      </trkpt>
      <trkpt lat="46.00721" lon="0.84826">
        <ele>264.51171875</ele>
        <time>2017-07-21T08:30:49Z</time>
      </trkpt>
      <trkpt lat="46.00703" lon="0.84825">
        <ele>265.140625</ele>
        <time>2017-07-21T08:30:57Z</time>
      </trkpt>
      <trkpt lat="46.00677" lon="0.84825">
        <ele>265.41796875</ele>
        <time>2017-07-21T08:31:06Z</time>
      </trkpt>
      <trkpt lat="46.00652" lon="0.84821">
        <ele>265.3671875</ele>
        <time>2017-07-21T08:31:13Z</time>
      </trkpt>
      <trkpt lat="46.00627" lon="0.84821">
        <ele>265.140625</ele>
        <time>2017-07-21T08:31:19Z</time>
      </trkpt>
      <trkpt lat="46.00599" lon="0.84824">
        <ele>264.75390625</ele>
        <time>2017-07-21T08:31:25Z</time>
      </trkpt>
      <trkpt lat="46.0055" lon="0.84824">
        <ele>263.71484375</ele>
        <time>2017-07-21T08:31:34Z</time>
      </trkpt>
      <trkpt lat="46.0051" lon="0.84812">
        <ele>262.9921875</ele>
        <time>2017-07-21T08:31:42Z</time>
      </trkpt>
      <trkpt lat="46.0048" lon="0.84801">
        <ele>262.9609375</ele>
        <time>2017-07-21T08:31:49Z</time>
      </trkpt>
      <trkpt lat="46.00457" lon="0.84799">
        <ele>263.9296875</ele>
        <time>2017-07-21T08:31:55Z</time>
      </trkpt>
      <trkpt lat="46.00426" lon="0.84804">
        <ele>265.8046875</ele>
        <time>2017-07-21T08:32:04Z</time>
      </trkpt>
      <trkpt lat="46.00409" lon="0.84821">
        <ele>267.26953125</ele>
        <time>2017-07-21T08:32:11Z</time>
      </trkpt>
      <trkpt lat="46.00399" lon="0.84836">
        <ele>268.3125</ele>
        <time>2017-07-21T08:32:17Z</time>
      </trkpt>
      <trkpt lat="46.00383" lon="0.84866">
        <ele>269.87109375</ele>
        <time>2017-07-21T08:32:26Z</time>
      </trkpt>
      <trkpt lat="46.0037" lon="0.84894">
        <ele>271.02734375</ele>
        <time>2017-07-21T08:32:34Z</time>
      </trkpt>
      <trkpt lat="46.00351" lon="0.84935">
        <ele>272.515625</ele>
        <time>2017-07-21T08:32:45Z</time>
      </trkpt>
      <trkpt lat="46.0033" lon="0.84975">
        <ele>274.078125</ele>
        <time>2017-07-21T08:32:56Z</time>
      </trkpt>
      <trkpt lat="46.00322" lon="0.84981">
        <ele>274.45703125</ele>
        <time>2017-07-21T08:32:59Z</time>
      </trkpt>
      <trkpt lat="46.00319" lon="0.8498">
        <ele>274.46484375</ele>
        <time>2017-07-21T08:33:00Z</time>
      </trkpt>
      <trkpt lat="46.00317" lon="0.84978">
        <ele>274.4140625</ele>
        <time>2017-07-21T08:33:01Z</time>
      </trkpt>
      <trkpt lat="46.00315" lon="0.84975">
        <ele>274.32421875</ele>
        <time>2017-07-21T08:33:02Z</time>
      </trkpt>
      <trkpt lat="46.00313" lon="0.84972">
        <ele>274.21875</ele>
        <time>2017-07-21T08:33:03Z</time>
      </trkpt>
      <trkpt lat="46.00294" lon="0.84953">
        <ele>273.26953125</ele>
        <time>2017-07-21T08:33:10Z</time>
      </trkpt>
      <trkpt lat="46.00287" lon="0.84948">
        <ele>272.9765625</ele>
        <time>2017-07-21T08:33:12Z</time>
      </trkpt>
      <trkpt lat="46.00282" lon="0.84946">
        <ele>272.88671875</ele>
        <time>2017-07-21T08:33:13Z</time>
      </trkpt>
      <trkpt lat="46.00277" lon="0.84945">
        <ele>272.83203125</ele>
        <time>2017-07-21T08:33:14Z</time>
      </trkpt>
      <trkpt lat="46.00254" lon="0.84945">
        <ele>272.78515625</ele>
        <time>2017-07-21T08:33:18Z</time>
      </trkpt>
      <trkpt lat="46.00245" lon="0.84947">
        <ele>272.6015625</ele>
        <time>2017-07-21T08:33:20Z</time>
      </trkpt>
      <trkpt lat="46.00241" lon="0.84945">
        <ele>272.328125</ele>
        <time>2017-07-21T08:33:21Z</time>
      </trkpt>
      <trkpt lat="46.00238" lon="0.84943">
        <ele>272.06640625</ele>
        <time>2017-07-21T08:33:22Z</time>
      </trkpt>
      <trkpt lat="46.00234" lon="0.8494">
        <ele>271.734375</ele>
        <time>2017-07-21T08:33:23Z</time>
      </trkpt>
      <trkpt lat="46.00231" lon="0.84935">
        <ele>271.2734375</ele>
        <time>2017-07-21T08:33:24Z</time>
      </trkpt>
      <trkpt lat="46.00226" lon="0.8493">
        <ele>270.7578125</ele>
        <time>2017-07-21T08:33:25Z</time>
      </trkpt>
      <trkpt lat="46.0021" lon="0.84913">
        <ele>268.9453125</ele>
        <time>2017-07-21T08:33:28Z</time>
      </trkpt>
      <trkpt lat="46.00191" lon="0.84895">
        <ele>267.0390625</ele>
        <time>2017-07-21T08:33:31Z</time>
      </trkpt>
      <trkpt lat="46.00185" lon="0.84887">
        <ele>266.37890625</ele>
        <time>2017-07-21T08:33:32Z</time>
      </trkpt>
      <trkpt lat="46.00181" lon="0.84878">
        <ele>265.73046875</ele>
        <time>2017-07-21T08:33:33Z</time>
      </trkpt>
      <trkpt lat="46.00152" lon="0.84818">
        <ele>261.3125</ele>
        <time>2017-07-21T08:33:39Z</time>
      </trkpt>
      <trkpt lat="46.00135" lon="0.84783">
        <ele>258.07421875</ele>
        <time>2017-07-21T08:33:42Z</time>
      </trkpt>
      <trkpt lat="46.00096" lon="0.84698">
        <ele>256.078125</ele>
        <time>2017-07-21T08:33:49Z</time>
      </trkpt>
      <trkpt lat="46.00075" lon="0.84654">
        <ele>258.51953125</ele>
        <time>2017-07-21T08:33:54Z</time>
      </trkpt>
      <trkpt lat="46.00071" lon="0.84647">
        <ele>259.08203125</ele>
        <time>2017-07-21T08:33:55Z</time>
      </trkpt>
      <trkpt lat="46.00065" lon="0.84634">
        <ele>260.125</ele>
        <time>2017-07-21T08:33:57Z</time>
      </trkpt>
      <trkpt lat="46.00045" lon="0.84596">
        <ele>262.8984375</ele>
        <time>2017-07-21T08:34:04Z</time>
      </trkpt>
      <trkpt lat="46.00015" lon="0.84549">
        <ele>265.94140625</ele>
        <time>2017-07-21T08:34:15Z</time>
      </trkpt>
      <trkpt lat="45.99984" lon="0.84503">
        <ele>268.73828125</ele>
        <time>2017-07-21T08:34:26Z</time>
      </trkpt>
      <trkpt lat="45.99957" lon="0.84465">
        <ele>271.078125</ele>
        <time>2017-07-21T08:34:36Z</time>
      </trkpt>
      <trkpt lat="45.99936" lon="0.84432">
        <ele>272.4140625</ele>
        <time>2017-07-21T08:34:45Z</time>
      </trkpt>
      <trkpt lat="45.99921" lon="0.84408">
        <ele>272.953125</ele>
        <time>2017-07-21T08:34:52Z</time>
      </trkpt>
      <trkpt lat="45.99909" lon="0.84387">
        <ele>273.07421875</ele>
        <time>2017-07-21T08:34:58Z</time>
      </trkpt>
      <trkpt lat="45.99909" lon="0.84382">
        <ele>272.98046875</ele>
        <time>2017-07-21T08:34:59Z</time>
      </trkpt>
      <trkpt lat="45.9991" lon="0.84378">
        <ele>272.8984375</ele>
        <time>2017-07-21T08:35:00Z</time>
      </trkpt>
      <trkpt lat="45.99911" lon="0.84374">
        <ele>272.8046875</ele>
        <time>2017-07-21T08:35:01Z</time>
      </trkpt>
      <trkpt lat="45.99912" lon="0.84369">
        <ele>272.703125</ele>
        <time>2017-07-21T08:35:02Z</time>
      </trkpt>
      <trkpt lat="45.99914" lon="0.84365">
        <ele>272.58984375</ele>
        <time>2017-07-21T08:35:03Z</time>
      </trkpt>
      <trkpt lat="45.99931" lon="0.84331">
        <ele>271.4609375</ele>
        <time>2017-07-21T08:35:10Z</time>
      </trkpt>
      <trkpt lat="45.99936" lon="0.84319">
        <ele>271.06640625</ele>
        <time>2017-07-21T08:35:12Z</time>
      </trkpt>
      <trkpt lat="45.99947" lon="0.84271">
        <ele>269.8984375</ele>
        <time>2017-07-21T08:35:19Z</time>
      </trkpt>
      <trkpt lat="45.99946" lon="0.84217">
        <ele>269.34765625</ele>
        <time>2017-07-21T08:35:26Z</time>
      </trkpt>
      <trkpt lat="45.9994" lon="0.84139">
        <ele>268.0546875</ele>
        <time>2017-07-21T08:35:35Z</time>
      </trkpt>
      <trkpt lat="45.9994" lon="0.84131">
        <ele>267.9140625</ele>
        <time>2017-07-21T08:35:36Z</time>
      </trkpt>
      <trkpt lat="45.9994" lon="0.84123">
        <ele>267.76953125</ele>
        <time>2017-07-21T08:35:37Z</time>
      </trkpt>
      <trkpt lat="45.99937" lon="0.84047">
        <ele>266.30859375</ele>
        <time>2017-07-21T08:35:45Z</time>
      </trkpt>
      <trkpt lat="45.99937" lon="0.83952">
        <ele>266.03125</ele>
        <time>2017-07-21T08:35:55Z</time>
      </trkpt>
      <trkpt lat="45.99941" lon="0.83864">
        <ele>264.29296875</ele>
        <time>2017-07-21T08:36:05Z</time>
      </trkpt>
      <trkpt lat="45.99944" lon="0.83797">
        <ele>263.99609375</ele>
        <time>2017-07-21T08:36:13Z</time>
      </trkpt>
      <trkpt lat="45.99948" lon="0.83716">
        <ele>266.046875</ele>
        <time>2017-07-21T08:36:23Z</time>
      </trkpt>
      <trkpt lat="45.99953" lon="0.83673">
        <ele>268.30078125</ele>
        <time>2017-07-21T08:36:30Z</time>
      </trkpt>
      <trkpt lat="45.99958" lon="0.83656">
        <ele>268.7734375</ele>
        <time>2017-07-21T08:36:33Z</time>
      </trkpt>
      <trkpt lat="45.99969" lon="0.83623">
        <ele>269.76171875</ele>
        <time>2017-07-21T08:36:39Z</time>
      </trkpt>
      <trkpt lat="45.99985" lon="0.83575">
        <ele>269.34765625</ele>
        <time>2017-07-21T08:36:47Z</time>
      </trkpt>
      <trkpt lat="45.99992" lon="0.83554">
        <ele>269.3046875</ele>
        <time>2017-07-21T08:36:51Z</time>
      </trkpt>
      <trkpt lat="45.99994" lon="0.83547">
        <ele>269.3359375</ele>
        <time>2017-07-21T08:36:52Z</time>
      </trkpt>
      <trkpt lat="46.00011" lon="0.83482">
        <ele>269.25</ele>
        <time>2017-07-21T08:37:01Z</time>
      </trkpt>
      <trkpt lat="46.00028" lon="0.83425">
        <ele>268.06640625</ele>
        <time>2017-07-21T08:37:08Z</time>
      </trkpt>
      <trkpt lat="46.0003" lon="0.83398">
        <ele>267.1484375</ele>
        <time>2017-07-21T08:37:11Z</time>
      </trkpt>
      <trkpt lat="46.00027" lon="0.83353">
        <ele>265.45703125</ele>
        <time>2017-07-21T08:37:16Z</time>
      </trkpt>
      <trkpt lat="46.00025" lon="0.83344">
        <ele>265.1015625</ele>
        <time>2017-07-21T08:37:17Z</time>
      </trkpt>
      <trkpt lat="46.00024" lon="0.83335">
        <ele>264.70703125</ele>
        <time>2017-07-21T08:37:18Z</time>
      </trkpt>
      <trkpt lat="46.00014" lon="0.83278">
        <ele>261.9140625</ele>
        <time>2017-07-21T08:37:24Z</time>
      </trkpt>
      <trkpt lat="46.00004" lon="0.83238">
        <ele>261.19140625</ele>
        <time>2017-07-21T08:37:28Z</time>
      </trkpt>
      <trkpt lat="46.00001" lon="0.83228">
        <ele>261.01171875</ele>
        <time>2017-07-21T08:37:29Z</time>
      </trkpt>
      <trkpt lat="45.99983" lon="0.83159">
        <ele>259.26171875</ele>
        <time>2017-07-21T08:37:36Z</time>
      </trkpt>
      <trkpt lat="45.99981" lon="0.8315">
        <ele>258.796875</ele>
        <time>2017-07-21T08:37:37Z</time>
      </trkpt>
      <trkpt lat="45.99979" lon="0.8314">
        <ele>258.3046875</ele>
        <time>2017-07-21T08:37:38Z</time>
      </trkpt>
      <trkpt lat="45.99952" lon="0.83034">
        <ele>254.796875</ele>
        <time>2017-07-21T08:37:49Z</time>
      </trkpt>
      <trkpt lat="45.99931" lon="0.82966">
        <ele>253.64453125</ele>
        <time>2017-07-21T08:37:56Z</time>
      </trkpt>
      <trkpt lat="45.99913" lon="0.82912">
        <ele>254.8359375</ele>
        <time>2017-07-21T08:38:02Z</time>
      </trkpt>
      <trkpt lat="45.99888" lon="0.8285">
        <ele>256.90625</ele>
        <time>2017-07-21T08:38:10Z</time>
      </trkpt>
      <trkpt lat="45.99878" lon="0.82814">
        <ele>258.578125</ele>
        <time>2017-07-21T08:38:15Z</time>
      </trkpt>
      <trkpt lat="45.9987" lon="0.82763">
        <ele>260.0703125</ele>
        <time>2017-07-21T08:38:23Z</time>
      </trkpt>
      <trkpt lat="45.9987" lon="0.82751">
        <ele>260.046875</ele>
        <time>2017-07-21T08:38:25Z</time>
      </trkpt>
      <trkpt lat="45.99871" lon="0.82745">
        <ele>260.0390625</ele>
        <time>2017-07-21T08:38:26Z</time>
      </trkpt>
      <trkpt lat="45.99873" lon="0.82739">
        <ele>260.03515625</ele>
        <time>2017-07-21T08:38:27Z</time>
      </trkpt>
      <trkpt lat="45.99876" lon="0.82734">
        <ele>260.0234375</ele>
        <time>2017-07-21T08:38:28Z</time>
      </trkpt>
      <trkpt lat="45.99879" lon="0.82729">
        <ele>260.0078125</ele>
        <time>2017-07-21T08:38:29Z</time>
      </trkpt>
      <trkpt lat="45.99891" lon="0.82708">
        <ele>259.4765625</ele>
        <time>2017-07-21T08:38:33Z</time>
      </trkpt>
      <trkpt lat="45.99894" lon="0.82704">
        <ele>259.375</ele>
        <time>2017-07-21T08:38:34Z</time>
      </trkpt>
      <trkpt lat="45.99898" lon="0.827">
        <ele>259.31640625</ele>
        <time>2017-07-21T08:38:35Z</time>
      </trkpt>
      <trkpt lat="45.99901" lon="0.82698">
        <ele>259.296875</ele>
        <time>2017-07-21T08:38:36Z</time>
      </trkpt>
      <trkpt lat="45.99905" lon="0.82697">
        <ele>259.3046875</ele>
        <time>2017-07-21T08:38:37Z</time>
      </trkpt>
      <trkpt lat="45.99909" lon="0.82696">
        <ele>259.33203125</ele>
        <time>2017-07-21T08:38:38Z</time>
      </trkpt>
      <trkpt lat="45.99918" lon="0.82696">
        <ele>259.40625</ele>
      </trkpt>
      <trkpt lat="45.99922" lon="0.82693">
        <ele>259.38671875</ele>
        <time>2017-07-21T08:39:04Z</time>
      </trkpt>
      <trkpt lat="45.99924" lon="0.82688">
        <ele>259.2890625</ele>
        <time>2017-07-21T08:39:05Z</time>
      </trkpt>
      <trkpt lat="45.99926" lon="0.82682">
        <ele>259.1796875</ele>
        <time>2017-07-21T08:39:06Z</time>
      </trkpt>
      <trkpt lat="45.99928" lon="0.82677">
        <ele>259.08984375</ele>
        <time>2017-07-21T08:39:07Z</time>
      </trkpt>
      <trkpt lat="45.9993" lon="0.82672">
        <ele>259.00390625</ele>
        <time>2017-07-21T08:39:08Z</time>
      </trkpt>
      <trkpt lat="45.99934" lon="0.82657">
        <ele>258.18359375</ele>
        <time>2017-07-21T08:39:11Z</time>
      </trkpt>
      <trkpt lat="45.99935" lon="0.82651">
        <ele>257.859375</ele>
        <time>2017-07-21T08:39:12Z</time>
      </trkpt>
      <trkpt lat="45.99934" lon="0.82644">
        <ele>257.51171875</ele>
        <time>2017-07-21T08:39:13Z</time>
      </trkpt>
      <trkpt lat="45.99933" lon="0.82638">
        <ele>257.15625</ele>
        <time>2017-07-21T08:39:14Z</time>
      </trkpt>
      <trkpt lat="45.99931" lon="0.82631">
        <ele>256.80078125</ele>
        <time>2017-07-21T08:39:15Z</time>
      </trkpt>
      <trkpt lat="45.99929" lon="0.82625">
        <ele>256.453125</ele>
        <time>2017-07-21T08:39:16Z</time>
      </trkpt>
      <trkpt lat="45.99926" lon="0.82618">
        <ele>256.08203125</ele>
        <time>2017-07-21T08:39:17Z</time>
      </trkpt>
      <trkpt lat="45.99922" lon="0.82613">
        <ele>255.84765625</ele>
        <time>2017-07-21T08:39:18Z</time>
      </trkpt>
      <trkpt lat="45.99918" lon="0.8261">
        <ele>255.64453125</ele>
        <time>2017-07-21T08:39:19Z</time>
      </trkpt>
      <trkpt lat="45.99901" lon="0.82599">
        <ele>254.85546875</ele>
        <time>2017-07-21T08:39:24Z</time>
      </trkpt>
      <trkpt lat="45.99891" lon="0.82583">
        <ele>254</ele>
        <time>2017-07-21T08:39:28Z</time>
      </trkpt>
      <trkpt lat="45.99883" lon="0.82574">
        <ele>253.5703125</ele>
        <time>2017-07-21T08:39:30Z</time>
      </trkpt>
      <trkpt lat="45.99878" lon="0.82571">
        <ele>253.40234375</ele>
        <time>2017-07-21T08:39:31Z</time>
      </trkpt>
      <trkpt lat="45.9986" lon="0.82558">
        <ele>252.89453125</ele>
        <time>2017-07-21T08:39:34Z</time>
      </trkpt>
      <trkpt lat="45.99854" lon="0.82552">
        <ele>252.67578125</ele>
        <time>2017-07-21T08:39:35Z</time>
      </trkpt>
      <trkpt lat="45.99814" lon="0.82503">
        <ele>250.8984375</ele>
        <time>2017-07-21T08:39:43Z</time>
      </trkpt>
      <trkpt lat="45.99809" lon="0.82496">
        <ele>250.65234375</ele>
        <time>2017-07-21T08:39:44Z</time>
      </trkpt>
      <trkpt lat="45.99805" lon="0.82489">
        <ele>250.39453125</ele>
        <time>2017-07-21T08:39:45Z</time>
      </trkpt>
      <trkpt lat="45.99802" lon="0.82481">
        <ele>250.11328125</ele>
        <time>2017-07-21T08:39:46Z</time>
      </trkpt>
      <trkpt lat="45.99799" lon="0.82473">
        <ele>249.83203125</ele>
        <time>2017-07-21T08:39:47Z</time>
      </trkpt>
      <trkpt lat="45.99798" lon="0.82464">
        <ele>249.5234375</ele>
        <time>2017-07-21T08:39:48Z</time>
      </trkpt>
      <trkpt lat="45.99799" lon="0.82454">
        <ele>249.15234375</ele>
        <time>2017-07-21T08:39:49Z</time>
      </trkpt>
      <trkpt lat="45.99801" lon="0.82447">
        <ele>248.94921875</ele>
        <time>2017-07-21T08:39:50Z</time>
      </trkpt>
      <trkpt lat="45.99803" lon="0.82439">
        <ele>248.78125</ele>
        <time>2017-07-21T08:39:51Z</time>
      </trkpt>
      <trkpt lat="45.99806" lon="0.82431">
        <ele>248.63671875</ele>
        <time>2017-07-21T08:39:52Z</time>
      </trkpt>
      <trkpt lat="45.99829" lon="0.82366">
        <ele>247.35546875</ele>
        <time>2017-07-21T08:40:00Z</time>
      </trkpt>
      <trkpt lat="45.99851" lon="0.82313">
        <ele>248.00390625</ele>
        <time>2017-07-21T08:40:07Z</time>
      </trkpt>
      <trkpt lat="45.99874" lon="0.82247">
        <ele>249.828125</ele>
        <time>2017-07-21T08:40:16Z</time>
      </trkpt>
      <trkpt lat="45.99895" lon="0.82183">
        <ele>250.99609375</ele>
        <time>2017-07-21T08:40:25Z</time>
      </trkpt>
      <trkpt lat="45.9991" lon="0.82139">
        <ele>251.26171875</ele>
        <time>2017-07-21T08:40:32Z</time>
      </trkpt>
      <trkpt lat="45.99913" lon="0.82133">
        <ele>251.21875</ele>
        <time>2017-07-21T08:40:33Z</time>
      </trkpt>
      <trkpt lat="45.99916" lon="0.82125">
        <ele>251.12890625</ele>
        <time>2017-07-21T08:40:34Z</time>
      </trkpt>
      <trkpt lat="45.99918" lon="0.82113">
        <ele>251</ele>
        <time>2017-07-21T08:40:37Z</time>
      </trkpt>
      <trkpt lat="45.99918" lon="0.82105">
        <ele>251</ele>
        <time>2017-07-21T08:40:38Z</time>
      </trkpt>
      <trkpt lat="45.99918" lon="0.82097">
        <ele>251</ele>
        <time>2017-07-21T08:45:03Z</time>
      </trkpt>
      <trkpt lat="45.99916" lon="0.82085">
        <ele>251</ele>
        <time>2017-07-21T08:45:07Z</time>
      </trkpt>
      <trkpt lat="45.99916" lon="0.82082">
        <ele>251</ele>
        <time>2017-07-21T08:45:08Z</time>
      </trkpt>
      <trkpt lat="45.99916" lon="0.82078">
        <ele>251</ele>
        <time>2017-07-21T08:45:09Z</time>
      </trkpt>
      <trkpt lat="45.99915" lon="0.82074">
        <ele>251</ele>
        <time>2017-07-21T08:45:10Z</time>
      </trkpt>
      <trkpt lat="45.99907" lon="0.82031">
        <ele>251.125</ele>
        <time>2017-07-21T08:45:19Z</time>
      </trkpt>
      <trkpt lat="45.99904" lon="0.8199">
        <ele>251.5546875</ele>
        <time>2017-07-21T08:45:27Z</time>
      </trkpt>
      <trkpt lat="45.99909" lon="0.81947">
        <ele>252.25</ele>
        <time>2017-07-21T08:45:36Z</time>
      </trkpt>
      <trkpt lat="45.99914" lon="0.81919">
        <ele>252.6015625</ele>
        <time>2017-07-21T08:45:44Z</time>
      </trkpt>
      <trkpt lat="45.99913" lon="0.81919">
        <ele>252.60546875</ele>
        <time>2017-07-21T08:45:57Z</time>
      </trkpt>
      <trkpt lat="45.99914" lon="0.81919">
        <ele>252.6015625</ele>
        <time>2017-07-21T08:46:13Z</time>
      </trkpt>
      <trkpt lat="45.99913" lon="0.81919">
        <ele>252.60546875</ele>
        <time>2017-07-21T08:46:24Z</time>
      </trkpt>
      <trkpt lat="45.99914" lon="0.81911">
        <ele>252.734375</ele>
        <time>2017-07-21T08:46:33Z</time>
      </trkpt>
      <trkpt lat="45.99918" lon="0.81881">
        <ele>253.0078125</ele>
        <time>2017-07-21T08:46:41Z</time>
      </trkpt>
      <trkpt lat="45.99922" lon="0.81842">
        <ele>252.859375</ele>
        <time>2017-07-21T08:46:50Z</time>
      </trkpt>
      <trkpt lat="45.99923" lon="0.81813">
        <ele>253.71484375</ele>
        <time>2017-07-21T08:46:57Z</time>
      </trkpt>
      <trkpt lat="45.99928" lon="0.81782">
        <ele>254.421875</ele>
        <time>2017-07-21T08:47:04Z</time>
      </trkpt>
      <trkpt lat="45.99934" lon="0.81759">
        <ele>254.40625</ele>
        <time>2017-07-21T08:47:11Z</time>
      </trkpt>
      <trkpt lat="45.99939" lon="0.81734">
        <ele>254.4921875</ele>
        <time>2017-07-21T08:47:18Z</time>
      </trkpt>
      <trkpt lat="45.99944" lon="0.81708">
        <ele>254.41015625</ele>
        <time>2017-07-21T08:47:25Z</time>
      </trkpt>
      <trkpt lat="45.99949" lon="0.8168">
        <ele>254.34375</ele>
        <time>2017-07-21T08:47:33Z</time>
      </trkpt>
      <trkpt lat="45.99952" lon="0.81672">
        <ele>254.2421875</ele>
        <time>2017-07-21T08:47:40Z</time>
      </trkpt>
      <trkpt lat="45.99955" lon="0.81665">
        <ele>254.08984375</ele>
        <time>2017-07-21T08:47:46Z</time>
      </trkpt>
      <trkpt lat="45.99958" lon="0.81658">
        <ele>253.94140625</ele>
        <time>2017-07-21T08:47:52Z</time>
      </trkpt>
      <trkpt lat="45.99968" lon="0.81639">
        <ele>253.39453125</ele>
        <time>2017-07-21T08:47:58Z</time>
      </trkpt>
      <trkpt lat="45.99976" lon="0.81618">
        <ele>252.9375</ele>
        <time>2017-07-21T08:48:04Z</time>
      </trkpt>
      <trkpt lat="45.99986" lon="0.816">
        <ele>251.64453125</ele>
        <time>2017-07-21T08:48:10Z</time>
      </trkpt>
      <trkpt lat="45.99999" lon="0.81578">
        <ele>250.28125</ele>
        <time>2017-07-21T08:48:17Z</time>
      </trkpt>
      <trkpt lat="46.00013" lon="0.81548">
        <ele>249.28515625</ele>
        <time>2017-07-21T08:48:24Z</time>
      </trkpt>
      <trkpt lat="46.00023" lon="0.8152">
        <ele>248.5546875</ele>
        <time>2017-07-21T08:48:31Z</time>
      </trkpt>
      <trkpt lat="46.00027" lon="0.8151">
        <ele>248.28125</ele>
        <time>2017-07-21T08:48:34Z</time>
      </trkpt>
      <trkpt lat="46.00041" lon="0.8151">
        <ele>247.2578125</ele>
        <time>2017-07-21T08:48:40Z</time>
      </trkpt>
      <trkpt lat="46.00047" lon="0.81503">
        <ele>246.81640625</ele>
        <time>2017-07-21T08:48:43Z</time>
      </trkpt>
      <trkpt lat="46.00058" lon="0.81478">
        <ele>246.25390625</ele>
        <time>2017-07-21T08:48:50Z</time>
      </trkpt>
      <trkpt lat="46.00061" lon="0.81475">
        <ele>246.1015625</ele>
        <time>2017-07-21T08:48:57Z</time>
      </trkpt>
      <trkpt lat="46.00066" lon="0.81465">
        <ele>245.90625</ele>
        <time>2017-07-21T08:49:04Z</time>
      </trkpt>
      <trkpt lat="46.00078" lon="0.81446">
        <ele>245.66015625</ele>
        <time>2017-07-21T08:49:10Z</time>
      </trkpt>
      <trkpt lat="46.00091" lon="0.81419">
        <ele>246.62109375</ele>
        <time>2017-07-21T08:49:17Z</time>
      </trkpt>
      <trkpt lat="46.00104" lon="0.81382">
        <ele>247.921875</ele>
        <time>2017-07-21T08:49:25Z</time>
      </trkpt>
      <trkpt lat="46.00116" lon="0.81341">
        <ele>248.43359375</ele>
        <time>2017-07-21T08:49:34Z</time>
      </trkpt>
      <trkpt lat="46.00121" lon="0.81307">
        <ele>247.7890625</ele>
        <time>2017-07-21T08:49:41Z</time>
      </trkpt>
      <trkpt lat="46.00125" lon="0.81266">
        <ele>246.3046875</ele>
        <time>2017-07-21T08:49:49Z</time>
      </trkpt>
      <trkpt lat="46.00128" lon="0.8125">
        <ele>245.421875</ele>
        <time>2017-07-21T08:49:52Z</time>
      </trkpt>
      <trkpt lat="46.00128" lon="0.81215">
        <ele>243.31640625</ele>
        <time>2017-07-21T08:49:58Z</time>
      </trkpt>
      <trkpt lat="46.00131" lon="0.8119">
        <ele>241.4140625</ele>
        <time>2017-07-21T08:50:03Z</time>
      </trkpt>
      <trkpt lat="46.00145" lon="0.81165">
        <ele>239.33984375</ele>
        <time>2017-07-21T08:50:09Z</time>
      </trkpt>
      <trkpt lat="46.00165" lon="0.81148">
        <ele>237.38671875</ele>
        <time>2017-07-21T08:50:15Z</time>
      </trkpt>
      <trkpt lat="46.00189" lon="0.81123">
        <ele>234.75390625</ele>
        <time>2017-07-21T08:50:21Z</time>
      </trkpt>
      <trkpt lat="46.00211" lon="0.81103">
        <ele>232.62890625</ele>
        <time>2017-07-21T08:50:25Z</time>
      </trkpt>
      <trkpt lat="46.00237" lon="0.81092">
        <ele>231.3984375</ele>
        <time>2017-07-21T08:50:29Z</time>
      </trkpt>
      <trkpt lat="46.00267" lon="0.81074">
        <ele>229.92578125</ele>
        <time>2017-07-21T08:50:34Z</time>
      </trkpt>
      <trkpt lat="46.00277" lon="0.81065">
        <ele>229.25</ele>
        <time>2017-07-21T08:50:36Z</time>
      </trkpt>
      <trkpt lat="46.00301" lon="0.81037">
        <ele>228.19921875</ele>
        <time>2017-07-21T08:50:44Z</time>
      </trkpt>
      <trkpt lat="46.00304" lon="0.81035">
        <ele>228.12890625</ele>
        <time>2017-07-21T08:50:53Z</time>
      </trkpt>
      <trkpt lat="46.00306" lon="0.81032">
        <ele>228.0546875</ele>
        <time>2017-07-21T08:51:06Z</time>
      </trkpt>
      <trkpt lat="46.0031" lon="0.8103">
        <ele>227.859375</ele>
        <time>2017-07-21T08:51:14Z</time>
      </trkpt>
      <trkpt lat="46.00325" lon="0.81023">
        <ele>226.73046875</ele>
        <time>2017-07-21T08:51:20Z</time>
      </trkpt>
      <trkpt lat="46.00346" lon="0.8101">
        <ele>225.1953125</ele>
        <time>2017-07-21T08:51:28Z</time>
      </trkpt>
      <trkpt lat="46.00369" lon="0.81">
        <ele>223.80078125</ele>
        <time>2017-07-21T08:51:36Z</time>
      </trkpt>
      <trkpt lat="46.00393" lon="0.81006">
        <ele>221.41796875</ele>
        <time>2017-07-21T08:51:43Z</time>
      </trkpt>
      <trkpt lat="46.00402" lon="0.81011">
        <ele>220.50390625</ele>
        <time>2017-07-21T08:51:45Z</time>
      </trkpt>
      <trkpt lat="46.00408" lon="0.81014">
        <ele>220.01953125</ele>
        <time>2017-07-21T08:51:46Z</time>
      </trkpt>
      <trkpt lat="46.00445" lon="0.81039">
        <ele>217.58984375</ele>
        <time>2017-07-21T08:51:52Z</time>
      </trkpt>
      <trkpt lat="46.00491" lon="0.81055">
        <ele>216.8203125</ele>
        <time>2017-07-21T08:51:59Z</time>
      </trkpt>
      <trkpt lat="46.00524" lon="0.81072">
        <ele>218.53515625</ele>
        <time>2017-07-21T08:52:05Z</time>
      </trkpt>
      <trkpt lat="46.00529" lon="0.81076">
        <ele>218.703125</ele>
        <time>2017-07-21T08:52:06Z</time>
      </trkpt>
      <trkpt lat="46.00535" lon="0.81079">
        <ele>218.92578125</ele>
        <time>2017-07-21T08:52:07Z</time>
      </trkpt>
      <trkpt lat="46.0054" lon="0.81082">
        <ele>219.15625</ele>
        <time>2017-07-21T08:52:08Z</time>
      </trkpt>
      <trkpt lat="46.00545" lon="0.81086">
        <ele>219.35546875</ele>
        <time>2017-07-21T08:52:09Z</time>
      </trkpt>
      <trkpt lat="46.0055" lon="0.8109">
        <ele>219.55078125</ele>
        <time>2017-07-21T08:52:10Z</time>
      </trkpt>
      <trkpt lat="46.00559" lon="0.81096">
        <ele>219.94921875</ele>
        <time>2017-07-21T08:52:12Z</time>
      </trkpt>
      <trkpt lat="46.0059" lon="0.81111">
        <ele>221.41015625</ele>
        <time>2017-07-21T08:52:18Z</time>
      </trkpt>
      <trkpt lat="46.00596" lon="0.81113">
        <ele>221.76953125</ele>
        <time>2017-07-21T08:52:19Z</time>
      </trkpt>
      <trkpt lat="46.0063" lon="0.81125">
        <ele>224.30078125</ele>
        <time>2017-07-21T08:52:27Z</time>
      </trkpt>
      <trkpt lat="46.0065" lon="0.81138">
        <ele>225.83984375</ele>
        <time>2017-07-21T08:52:34Z</time>
      </trkpt>
      <trkpt lat="46.00666" lon="0.81152">
        <ele>226.953125</ele>
        <time>2017-07-21T08:52:41Z</time>
      </trkpt>
      <trkpt lat="46.00686" lon="0.8117">
        <ele>228.37109375</ele>
        <time>2017-07-21T08:52:50Z</time>
      </trkpt>
      <trkpt lat="46.00703" lon="0.81182">
        <ele>229.35546875</ele>
        <time>2017-07-21T08:52:57Z</time>
      </trkpt>
      <trkpt lat="46.00731" lon="0.81199">
        <ele>230.82421875</ele>
        <time>2017-07-21T08:53:08Z</time>
      </trkpt>
      <trkpt lat="46.00753" lon="0.81211">
        <ele>232.05078125</ele>
        <time>2017-07-21T08:53:17Z</time>
      </trkpt>
      <trkpt lat="46.00776" lon="0.81222">
        <ele>233.21484375</ele>
        <time>2017-07-21T08:53:26Z</time>
      </trkpt>
      <trkpt lat="46.00789" lon="0.81224">
        <ele>233.90234375</ele>
        <time>2017-07-21T08:53:32Z</time>
      </trkpt>
      <trkpt lat="46.00791" lon="0.81224">
        <ele>234.0234375</ele>
        <time>2017-07-21T08:53:33Z</time>
      </trkpt>
      <trkpt lat="46.00793" lon="0.81225">
        <ele>234.13671875</ele>
        <time>2017-07-21T08:53:34Z</time>
      </trkpt>
      <trkpt lat="46.0081" lon="0.81236">
        <ele>234.90625</ele>
        <time>2017-07-21T08:53:42Z</time>
      </trkpt>
      <trkpt lat="46.00834" lon="0.81245">
        <ele>235.30078125</ele>
        <time>2017-07-21T08:53:51Z</time>
      </trkpt>
      <trkpt lat="46.00851" lon="0.81248">
        <ele>235.69140625</ele>
        <time>2017-07-21T08:53:58Z</time>
      </trkpt>
      <trkpt lat="46.00872" lon="0.81246">
        <ele>236.3515625</ele>
        <time>2017-07-21T08:54:06Z</time>
      </trkpt>
      <trkpt lat="46.00891" lon="0.81245">
        <ele>237.21875</ele>
        <time>2017-07-21T08:54:13Z</time>
      </trkpt>
      <trkpt lat="46.00906" lon="0.81247">
        <ele>237.8046875</ele>
        <time>2017-07-21T08:54:19Z</time>
      </trkpt>
      <trkpt lat="46.00928" lon="0.81247">
        <ele>238.80859375</ele>
        <time>2017-07-21T08:54:27Z</time>
      </trkpt>
      <trkpt lat="46.00948" lon="0.81251">
        <ele>239.73046875</ele>
        <time>2017-07-21T08:54:34Z</time>
      </trkpt>
      <trkpt lat="46.0097" lon="0.81261">
        <ele>240.6171875</ele>
        <time>2017-07-21T08:54:42Z</time>
      </trkpt>
      <trkpt lat="46.00994" lon="0.81268">
        <ele>241.26953125</ele>
        <time>2017-07-21T08:54:50Z</time>
      </trkpt>
      <trkpt lat="46.01014" lon="0.81276">
        <ele>241.7109375</ele>
        <time>2017-07-21T08:54:57Z</time>
      </trkpt>
      <trkpt lat="46.01029" lon="0.81278">
        <ele>242.1875</ele>
        <time>2017-07-21T08:55:05Z</time>
      </trkpt>
      <trkpt lat="46.01045" lon="0.81279">
        <ele>242.6640625</ele>
        <time>2017-07-21T08:55:13Z</time>
      </trkpt>
      <trkpt lat="46.01046" lon="0.8128">
        <ele>242.69921875</ele>
        <time>2017-07-21T08:55:14Z</time>
      </trkpt>
      <trkpt lat="46.0105" lon="0.81283">
        <ele>242.7421875</ele>
        <time>2017-07-21T08:55:16Z</time>
      </trkpt>
      <trkpt lat="46.01052" lon="0.81283">
        <ele>242.80078125</ele>
        <time>2017-07-21T08:55:17Z</time>
      </trkpt>
      <trkpt lat="46.01053" lon="0.81283">
        <ele>242.859375</ele>
        <time>2017-07-21T08:55:18Z</time>
      </trkpt>
      <trkpt lat="46.01055" lon="0.81283">
        <ele>242.9296875</ele>
        <time>2017-07-21T08:55:19Z</time>
      </trkpt>
      <trkpt lat="46.01057" lon="0.81283">
        <ele>242.98828125</ele>
        <time>2017-07-21T08:55:20Z</time>
      </trkpt>
      <trkpt lat="46.01059" lon="0.81283">
        <ele>243.05859375</ele>
        <time>2017-07-21T08:55:21Z</time>
      </trkpt>
      <trkpt lat="46.01073" lon="0.81284">
        <ele>243.54296875</ele>
        <time>2017-07-21T08:55:28Z</time>
      </trkpt>
      <trkpt lat="46.01089" lon="0.8128">
        <ele>244.19921875</ele>
        <time>2017-07-21T08:55:36Z</time>
      </trkpt>
      <trkpt lat="46.01105" lon="0.81278">
        <ele>244.75</ele>
        <time>2017-07-21T08:55:43Z</time>
      </trkpt>
      <trkpt lat="46.01117" lon="0.81277">
        <ele>245.171875</ele>
        <time>2017-07-21T08:55:49Z</time>
      </trkpt>
      <trkpt lat="46.01133" lon="0.81277">
        <ele>245.71484375</ele>
        <time>2017-07-21T08:55:57Z</time>
      </trkpt>
      <trkpt lat="46.01145" lon="0.81278">
        <ele>245.984375</ele>
        <time>2017-07-21T08:56:04Z</time>
      </trkpt>
      <trkpt lat="46.01156" lon="0.81279">
        <ele>245.95703125</ele>
        <time>2017-07-21T08:56:10Z</time>
      </trkpt>
      <trkpt lat="46.0117" lon="0.81277">
        <ele>245.8671875</ele>
        <time>2017-07-21T08:56:18Z</time>
      </trkpt>
      <trkpt lat="46.01183" lon="0.81276">
        <ele>245.78515625</ele>
        <time>2017-07-21T08:56:24Z</time>
      </trkpt>
      <trkpt lat="46.01197" lon="0.81279">
        <ele>245.83984375</ele>
        <time>2017-07-21T08:56:30Z</time>
      </trkpt>
      <trkpt lat="46.01216" lon="0.81287">
        <ele>245.67578125</ele>
        <time>2017-07-21T08:56:37Z</time>
      </trkpt>
      <trkpt lat="46.01233" lon="0.81294">
        <ele>245.47265625</ele>
        <time>2017-07-21T08:56:45Z</time>
      </trkpt>
      <trkpt lat="46.01247" lon="0.81304">
        <ele>245.421875</ele>
        <time>2017-07-21T08:56:52Z</time>
      </trkpt>
      <trkpt lat="46.01248" lon="0.81306">
        <ele>245.4375</ele>
        <time>2017-07-21T08:56:53Z</time>
      </trkpt>
      <trkpt lat="46.01263" lon="0.81321">
        <ele>245.265625</ele>
        <time>2017-07-21T08:57:00Z</time>
      </trkpt>
      <trkpt lat="46.01276" lon="0.81334">
        <ele>245.04296875</ele>
        <time>2017-07-21T08:57:07Z</time>
      </trkpt>
      <trkpt lat="46.01287" lon="0.8135">
        <ele>244.875</ele>
        <time>2017-07-21T08:57:13Z</time>
      </trkpt>
      <trkpt lat="46.0129" lon="0.81355">
        <ele>244.8359375</ele>
        <time>2017-07-21T08:57:15Z</time>
      </trkpt>
      <trkpt lat="46.01292" lon="0.81357">
        <ele>244.796875</ele>
        <time>2017-07-21T08:57:16Z</time>
      </trkpt>
      <trkpt lat="46.01298" lon="0.81363">
        <ele>244.6796875</ele>
        <time>2017-07-21T08:57:22Z</time>
      </trkpt>
      <trkpt lat="46.01311" lon="0.81374">
        <ele>244.4453125</ele>
        <time>2017-07-21T08:57:30Z</time>
      </trkpt>
      <trkpt lat="46.01322" lon="0.81378">
        <ele>243.91015625</ele>
        <time>2017-07-21T08:57:34Z</time>
      </trkpt>
      <trkpt lat="46.0133" lon="0.81379">
        <ele>243.5078125</ele>
        <time>2017-07-21T08:57:36Z</time>
      </trkpt>
      <trkpt lat="46.01339" lon="0.81379">
        <ele>243.00390625</ele>
        <time>2017-07-21T08:57:38Z</time>
      </trkpt>
      <trkpt lat="46.01344" lon="0.81378">
        <ele>242.70703125</ele>
        <time>2017-07-21T08:57:39Z</time>
      </trkpt>
      <trkpt lat="46.01366" lon="0.81372">
        <ele>241.3984375</ele>
        <time>2017-07-21T08:57:43Z</time>
      </trkpt>
      <trkpt lat="46.01372" lon="0.81372">
        <ele>241.0546875</ele>
        <time>2017-07-21T08:57:44Z</time>
      </trkpt>
      <trkpt lat="46.01397" lon="0.81366">
        <ele>239.34765625</ele>
        <time>2017-07-21T08:57:49Z</time>
      </trkpt>
      <trkpt lat="46.01435" lon="0.81366">
        <ele>236.94140625</ele>
        <time>2017-07-21T08:57:56Z</time>
      </trkpt>
      <trkpt lat="46.01452" lon="0.81369">
        <ele>235.921875</ele>
        <time>2017-07-21T08:57:59Z</time>
      </trkpt>
      <trkpt lat="46.01458" lon="0.8137">
        <ele>235.6015625</ele>
        <time>2017-07-21T08:58:00Z</time>
      </trkpt>
      <trkpt lat="46.01481" lon="0.81375">
        <ele>234.5546875</ele>
        <time>2017-07-21T08:58:04Z</time>
      </trkpt>
      <trkpt lat="46.01523" lon="0.81385">
        <ele>234.52734375</ele>
        <time>2017-07-21T08:58:11Z</time>
      </trkpt>
      <trkpt lat="46.01533" lon="0.81391">
        <ele>234.90234375</ele>
        <time>2017-07-21T08:58:13Z</time>
      </trkpt>
      <trkpt lat="46.01537" lon="0.81393">
        <ele>235.14453125</ele>
        <time>2017-07-21T08:58:14Z</time>
      </trkpt>
      <trkpt lat="46.01541" lon="0.81394">
        <ele>235.35546875</ele>
        <time>2017-07-21T08:58:15Z</time>
      </trkpt>
      <trkpt lat="46.01565" lon="0.81406">
        <ele>236.6484375</ele>
        <time>2017-07-21T08:58:23Z</time>
      </trkpt>
      <trkpt lat="46.01567" lon="0.81408">
        <ele>236.79296875</ele>
        <time>2017-07-21T08:58:25Z</time>
      </trkpt>
      <trkpt lat="46.01568" lon="0.81409">
        <ele>236.875</ele>
        <time>2017-07-21T08:58:26Z</time>
      </trkpt>
      <trkpt lat="46.0157" lon="0.81409">
        <ele>236.98046875</ele>
        <time>2017-07-21T08:58:32Z</time>
      </trkpt>
      <trkpt lat="46.01572" lon="0.81409">
        <ele>237.02734375</ele>
        <time>2017-07-21T08:58:42Z</time>
      </trkpt>
      <trkpt lat="46.01574" lon="0.8141">
        <ele>237.13671875</ele>
        <time>2017-07-21T08:58:45Z</time>
      </trkpt>
      <trkpt lat="46.01575" lon="0.81411">
        <ele>237.2109375</ele>
        <time>2017-07-21T08:58:46Z</time>
      </trkpt>
      <trkpt lat="46.01577" lon="0.81411">
        <ele>237.27734375</ele>
        <time>2017-07-21T08:58:47Z</time>
      </trkpt>
      <trkpt lat="46.01578" lon="0.81412">
        <ele>237.34765625</ele>
        <time>2017-07-21T08:58:48Z</time>
      </trkpt>
      <trkpt lat="46.0158" lon="0.81412">
        <ele>237.43359375</ele>
        <time>2017-07-21T08:58:49Z</time>
      </trkpt>
      <trkpt lat="46.01582" lon="0.81413">
        <ele>237.53515625</ele>
        <time>2017-07-21T08:58:50Z</time>
      </trkpt>
      <trkpt lat="46.01584" lon="0.81414">
        <ele>237.6328125</ele>
        <time>2017-07-21T08:58:51Z</time>
      </trkpt>
      <trkpt lat="46.01586" lon="0.81415">
        <ele>237.75</ele>
        <time>2017-07-21T08:58:52Z</time>
      </trkpt>
      <trkpt lat="46.01588" lon="0.81416">
        <ele>237.91015625</ele>
        <time>2017-07-21T08:58:53Z</time>
      </trkpt>
      <trkpt lat="46.0161" lon="0.81422">
        <ele>239.1171875</ele>
        <time>2017-07-21T08:59:02Z</time>
      </trkpt>
      <trkpt lat="46.01627" lon="0.81425">
        <ele>239.9375</ele>
        <time>2017-07-21T08:59:09Z</time>
      </trkpt>
      <trkpt lat="46.01642" lon="0.81429">
        <ele>240.67578125</ele>
        <time>2017-07-21T08:59:15Z</time>
      </trkpt>
      <trkpt lat="46.01668" lon="0.81441">
        <ele>241.796875</ele>
        <time>2017-07-21T08:59:24Z</time>
      </trkpt>
      <trkpt lat="46.01688" lon="0.8145">
        <ele>242.7109375</ele>
        <time>2017-07-21T08:59:31Z</time>
      </trkpt>
      <trkpt lat="46.01701" lon="0.81454">
        <ele>243.24609375</ele>
        <time>2017-07-21T08:59:37Z</time>
      </trkpt>
      <trkpt lat="46.01718" lon="0.81461">
        <ele>243.90234375</ele>
        <time>2017-07-21T08:59:44Z</time>
      </trkpt>
      <trkpt lat="46.01733" lon="0.81466">
        <ele>244.43359375</ele>
        <time>2017-07-21T08:59:50Z</time>
      </trkpt>
      <trkpt lat="46.01752" lon="0.81473">
        <ele>245.00390625</ele>
        <time>2017-07-21T08:59:59Z</time>
      </trkpt>
      <trkpt lat="46.01754" lon="0.81475">
        <ele>245.01953125</ele>
        <time>2017-07-21T09:00:00Z</time>
      </trkpt>
      <trkpt lat="46.01755" lon="0.81478">
        <ele>245.03125</ele>
        <time>2017-07-21T09:00:01Z</time>
      </trkpt>
      <trkpt lat="46.01755" lon="0.81499">
        <ele>245.046875</ele>
        <time>2017-07-21T09:00:09Z</time>
      </trkpt>
      <trkpt lat="46.01764" lon="0.81512">
        <ele>245.2734375</ele>
        <time>2017-07-21T09:00:14Z</time>
      </trkpt>
      <trkpt lat="46.01778" lon="0.81522">
        <ele>245.48828125</ele>
        <time>2017-07-21T09:00:20Z</time>
      </trkpt>
      <trkpt lat="46.01801" lon="0.8154">
        <ele>245.4140625</ele>
        <time>2017-07-21T09:00:29Z</time>
      </trkpt>
      <trkpt lat="46.01806" lon="0.81541">
        <ele>245.375</ele>
        <time>2017-07-21T09:00:31Z</time>
      </trkpt>
      <trkpt lat="46.01809" lon="0.81539">
        <ele>245.34765625</ele>
        <time>2017-07-21T09:00:32Z</time>
      </trkpt>
      <trkpt lat="46.01811" lon="0.81538">
        <ele>245.30859375</ele>
        <time>2017-07-21T09:00:33Z</time>
      </trkpt>
      <trkpt lat="46.01813" lon="0.81536">
        <ele>245.27734375</ele>
        <time>2017-07-21T09:00:34Z</time>
      </trkpt>
      <trkpt lat="46.01814" lon="0.81534">
        <ele>245.25</ele>
        <time>2017-07-21T09:00:35Z</time>
      </trkpt>
      <trkpt lat="46.01834" lon="0.8152">
        <ele>244.80078125</ele>
        <time>2017-07-21T09:00:44Z</time>
      </trkpt>
      <trkpt lat="46.01842" lon="0.81506">
        <ele>244.7421875</ele>
        <time>2017-07-21T09:00:48Z</time>
      </trkpt>
      <trkpt lat="46.01842" lon="0.81501">
        <ele>244.78125</ele>
        <time>2017-07-21T09:00:49Z</time>
      </trkpt>
      <trkpt lat="46.0184" lon="0.81497">
        <ele>244.8515625</ele>
        <time>2017-07-21T09:00:50Z</time>
      </trkpt>
      <trkpt lat="46.01845" lon="0.81493">
        <ele>244.73828125</ele>
        <time>2017-07-21T09:01:26Z</time>
      </trkpt>
      <trkpt lat="46.01847" lon="0.81491">
        <ele>244.6796875</ele>
        <time>2017-07-21T09:01:27Z</time>
      </trkpt>
      <trkpt lat="46.0187" lon="0.81469">
        <ele>244.62890625</ele>
        <time>2017-07-21T09:01:35Z</time>
      </trkpt>
      <trkpt lat="46.01885" lon="0.81465">
        <ele>244.62890625</ele>
        <time>2017-07-21T09:01:41Z</time>
      </trkpt>
      <trkpt lat="46.01887" lon="0.81466">
        <ele>244.59765625</ele>
        <time>2017-07-21T09:01:42Z</time>
      </trkpt>
      <trkpt lat="46.01889" lon="0.81468">
        <ele>244.5390625</ele>
        <time>2017-07-21T09:01:43Z</time>
      </trkpt>
      <trkpt lat="46.0189" lon="0.8147">
        <ele>244.46484375</ele>
        <time>2017-07-21T09:01:44Z</time>
      </trkpt>
      <trkpt lat="46.01892" lon="0.81473">
        <ele>244.37890625</ele>
        <time>2017-07-21T09:01:45Z</time>
      </trkpt>
      <trkpt lat="46.01894" lon="0.81476">
        <ele>244.2734375</ele>
        <time>2017-07-21T09:01:46Z</time>
      </trkpt>
      <trkpt lat="46.01896" lon="0.81481">
        <ele>244.13671875</ele>
        <time>2017-07-21T09:01:47Z</time>
      </trkpt>
      <trkpt lat="46.01906" lon="0.81501">
        <ele>243.3671875</ele>
        <time>2017-07-21T09:01:52Z</time>
      </trkpt>
      <trkpt lat="46.01918" lon="0.81515">
        <ele>242.6875</ele>
        <time>2017-07-21T09:01:57Z</time>
      </trkpt>
      <trkpt lat="46.01921" lon="0.81515">
        <ele>242.6484375</ele>
        <time>2017-07-21T09:01:58Z</time>
      </trkpt>
      <trkpt lat="46.01924" lon="0.81517">
        <ele>242.59375</ele>
        <time>2017-07-21T09:01:59Z</time>
      </trkpt>
      <trkpt lat="46.01927" lon="0.81518">
        <ele>242.52734375</ele>
        <time>2017-07-21T09:02:00Z</time>
      </trkpt>
      <trkpt lat="46.0193" lon="0.8152">
        <ele>242.4609375</ele>
        <time>2017-07-21T09:02:01Z</time>
      </trkpt>
      <trkpt lat="46.01932" lon="0.81521">
        <ele>242.40625</ele>
        <time>2017-07-21T09:02:02Z</time>
      </trkpt>
      <trkpt lat="46.01935" lon="0.81522">
        <ele>242.34765625</ele>
        <time>2017-07-21T09:02:03Z</time>
      </trkpt>
      <trkpt lat="46.01939" lon="0.81523">
        <ele>242.2578125</ele>
        <time>2017-07-21T09:02:04Z</time>
      </trkpt>
      <trkpt lat="46.01942" lon="0.81525">
        <ele>242.1484375</ele>
        <time>2017-07-21T09:02:05Z</time>
      </trkpt>
      <trkpt lat="46.01946" lon="0.81528">
        <ele>242.03125</ele>
        <time>2017-07-21T09:02:06Z</time>
      </trkpt>
      <trkpt lat="46.0195" lon="0.8153">
        <ele>241.90234375</ele>
        <time>2017-07-21T09:02:07Z</time>
      </trkpt>
      <trkpt lat="46.01954" lon="0.81531">
        <ele>241.80078125</ele>
        <time>2017-07-21T09:02:08Z</time>
      </trkpt>
      <trkpt lat="46.01973" lon="0.81541">
        <ele>241.12109375</ele>
        <time>2017-07-21T09:02:14Z</time>
      </trkpt>
      <trkpt lat="46.01986" lon="0.81543">
        <ele>240.7578125</ele>
        <time>2017-07-21T09:02:19Z</time>
      </trkpt>
      <trkpt lat="46.02002" lon="0.8154">
        <ele>240.625</ele>
        <time>2017-07-21T09:02:25Z</time>
      </trkpt>
      <trkpt lat="46.02021" lon="0.81537">
        <ele>240.45703125</ele>
        <time>2017-07-21T09:02:32Z</time>
      </trkpt>
      <trkpt lat="46.02038" lon="0.81534">
        <ele>240.33984375</ele>
        <time>2017-07-21T09:02:39Z</time>
      </trkpt>
      <trkpt lat="46.02051" lon="0.8153">
        <ele>240.30078125</ele>
        <time>2017-07-21T09:02:45Z</time>
      </trkpt>
      <trkpt lat="46.02072" lon="0.81522">
        <ele>240.390625</ele>
        <time>2017-07-21T09:02:52Z</time>
      </trkpt>
      <trkpt lat="46.02089" lon="0.81515">
        <ele>240.2890625</ele>
        <time>2017-07-21T09:02:58Z</time>
      </trkpt>
      <trkpt lat="46.0211" lon="0.81507">
        <ele>239.53515625</ele>
        <time>2017-07-21T09:03:05Z</time>
      </trkpt>
      <trkpt lat="46.0212" lon="0.81502">
        <ele>239.23828125</ele>
        <time>2017-07-21T09:03:10Z</time>
      </trkpt>
      <trkpt lat="46.02137" lon="0.81497">
        <ele>238.49609375</ele>
        <time>2017-07-21T09:03:17Z</time>
      </trkpt>
      <trkpt lat="46.02152" lon="0.81494">
        <ele>237.83984375</ele>
        <time>2017-07-21T09:03:23Z</time>
      </trkpt>
      <trkpt lat="46.02155" lon="0.81494">
        <ele>237.71875</ele>
        <time>2017-07-21T09:03:24Z</time>
      </trkpt>
      <trkpt lat="46.02158" lon="0.81493">
        <ele>237.6171875</ele>
        <time>2017-07-21T09:03:25Z</time>
      </trkpt>
      <trkpt lat="46.02179" lon="0.81488">
        <ele>236.78125</ele>
        <time>2017-07-21T09:03:33Z</time>
      </trkpt>
      <trkpt lat="46.02191" lon="0.81484">
        <ele>236.4453125</ele>
        <time>2017-07-21T09:03:40Z</time>
      </trkpt>
      <trkpt lat="46.02195" lon="0.81481">
        <ele>236.40625</ele>
        <time>2017-07-21T09:03:46Z</time>
      </trkpt>
      <trkpt lat="46.022" lon="0.81478">
        <ele>236.41796875</ele>
        <time>2017-07-21T09:03:54Z</time>
      </trkpt>
      <trkpt lat="46.02203" lon="0.81475">
        <ele>236.51953125</ele>
        <time>2017-07-21T09:04:02Z</time>
      </trkpt>
      <trkpt lat="46.02212" lon="0.81474">
        <ele>236.421875</ele>
        <time>2017-07-21T09:04:09Z</time>
      </trkpt>
      <trkpt lat="46.02227" lon="0.81471">
        <ele>236.3125</ele>
        <time>2017-07-21T09:04:16Z</time>
      </trkpt>
      <trkpt lat="46.02241" lon="0.81471">
        <ele>236.1015625</ele>
        <time>2017-07-21T09:04:23Z</time>
      </trkpt>
      <trkpt lat="46.0225" lon="0.81466">
        <ele>236.18359375</ele>
        <time>2017-07-21T09:04:28Z</time>
      </trkpt>
      <trkpt lat="46.02251" lon="0.81464">
        <ele>236.30078125</ele>
        <time>2017-07-21T09:04:29Z</time>
      </trkpt>
      <trkpt lat="46.0225" lon="0.81461">
        <ele>236.45703125</ele>
        <time>2017-07-21T09:04:30Z</time>
      </trkpt>
      <trkpt lat="46.0225" lon="0.81458">
        <ele>236.61328125</ele>
        <time>2017-07-21T09:04:31Z</time>
      </trkpt>
      <trkpt lat="46.0225" lon="0.81455">
        <ele>236.7578125</ele>
        <time>2017-07-21T09:04:32Z</time>
      </trkpt>
      <trkpt lat="46.02251" lon="0.81452">
        <ele>236.9296875</ele>
        <time>2017-07-21T09:04:33Z</time>
      </trkpt>
      <trkpt lat="46.0225" lon="0.81434">
        <ele>237.90625</ele>
        <time>2017-07-21T09:04:39Z</time>
      </trkpt>
      <trkpt lat="46.0225" lon="0.81431">
        <ele>238.05078125</ele>
        <time>2017-07-21T09:04:40Z</time>
      </trkpt>
      <trkpt lat="46.02249" lon="0.81429">
        <ele>238.17578125</ele>
        <time>2017-07-21T09:04:41Z</time>
      </trkpt>
      <trkpt lat="46.02249" lon="0.81423">
        <ele>238.4921875</ele>
        <time>2017-07-21T09:04:43Z</time>
      </trkpt>
      <trkpt lat="46.0225" lon="0.81409">
        <ele>239.26171875</ele>
        <time>2017-07-21T09:04:47Z</time>
      </trkpt>
      <trkpt lat="46.02247" lon="0.81388">
        <ele>240.265625</ele>
        <time>2017-07-21T09:04:54Z</time>
      </trkpt>
      <trkpt lat="46.02245" lon="0.81369">
        <ele>240.98828125</ele>
        <time>2017-07-21T09:05:00Z</time>
      </trkpt>
      <trkpt lat="46.02243" lon="0.81364">
        <ele>241.20703125</ele>
        <time>2017-07-21T09:05:02Z</time>
      </trkpt>
      <trkpt lat="46.02243" lon="0.8136">
        <ele>241.33984375</ele>
        <time>2017-07-21T09:05:03Z</time>
      </trkpt>
      <trkpt lat="46.02242" lon="0.81357">
        <ele>241.46875</ele>
        <time>2017-07-21T09:05:04Z</time>
      </trkpt>
      <trkpt lat="46.02242" lon="0.81354">
        <ele>241.5859375</ele>
        <time>2017-07-21T09:05:05Z</time>
      </trkpt>
      <trkpt lat="46.02241" lon="0.81352">
        <ele>241.6875</ele>
        <time>2017-07-21T09:05:06Z</time>
      </trkpt>
      <trkpt lat="46.02241" lon="0.8135">
        <ele>241.78125</ele>
        <time>2017-07-21T09:05:07Z</time>
      </trkpt>
      <trkpt lat="46.0224" lon="0.81348">
        <ele>241.8828125</ele>
        <time>2017-07-21T09:05:08Z</time>
      </trkpt>
      <trkpt lat="46.02239" lon="0.81345">
        <ele>242.00390625</ele>
        <time>2017-07-21T09:05:09Z</time>
      </trkpt>
      <trkpt lat="46.02238" lon="0.81342">
        <ele>242.11328125</ele>
        <time>2017-07-21T09:05:10Z</time>
      </trkpt>
      <trkpt lat="46.02237" lon="0.8134">
        <ele>242.2421875</ele>
        <time>2017-07-21T09:05:11Z</time>
      </trkpt>
      <trkpt lat="46.02236" lon="0.81337">
        <ele>242.34375</ele>
        <time>2017-07-21T09:05:12Z</time>
      </trkpt>
      <trkpt lat="46.02235" lon="0.81335">
        <ele>242.4609375</ele>
        <time>2017-07-21T09:05:13Z</time>
      </trkpt>
      <trkpt lat="46.02234" lon="0.81332">
        <ele>242.5859375</ele>
        <time>2017-07-21T09:05:14Z</time>
      </trkpt>
      <trkpt lat="46.02234" lon="0.81329">
        <ele>242.7109375</ele>
        <time>2017-07-21T09:05:15Z</time>
      </trkpt>
      <trkpt lat="46.02233" lon="0.81326">
        <ele>242.82421875</ele>
        <time>2017-07-21T09:05:16Z</time>
      </trkpt>
      <trkpt lat="46.02232" lon="0.81323">
        <ele>242.9375</ele>
        <time>2017-07-21T09:05:17Z</time>
      </trkpt>
      <trkpt lat="46.02231" lon="0.8132">
        <ele>243.046875</ele>
        <time>2017-07-21T09:05:18Z</time>
      </trkpt>
      <trkpt lat="46.0223" lon="0.81317">
        <ele>243.1796875</ele>
        <time>2017-07-21T09:05:19Z</time>
      </trkpt>
      <trkpt lat="46.02229" lon="0.81314">
        <ele>243.3203125</ele>
        <time>2017-07-21T09:05:20Z</time>
      </trkpt>
      <trkpt lat="46.02228" lon="0.81311">
        <ele>243.4375</ele>
        <time>2017-07-21T09:05:21Z</time>
      </trkpt>
      <trkpt lat="46.02228" lon="0.81308">
        <ele>243.546875</ele>
        <time>2017-07-21T09:05:22Z</time>
      </trkpt>
      <trkpt lat="46.02225" lon="0.81301">
        <ele>243.83984375</ele>
        <time>2017-07-21T09:05:25Z</time>
      </trkpt>
      <trkpt lat="46.02224" lon="0.81299">
        <ele>243.9453125</ele>
        <time>2017-07-21T09:05:26Z</time>
      </trkpt>
      <trkpt lat="46.02223" lon="0.81296">
        <ele>244.05078125</ele>
        <time>2017-07-21T09:05:27Z</time>
      </trkpt>
      <trkpt lat="46.02223" lon="0.81294">
        <ele>244.15234375</ele>
        <time>2017-07-21T09:05:28Z</time>
      </trkpt>
      <trkpt lat="46.02221" lon="0.81291">
        <ele>244.265625</ele>
        <time>2017-07-21T09:05:29Z</time>
      </trkpt>
      <trkpt lat="46.0222" lon="0.81289">
        <ele>244.37109375</ele>
        <time>2017-07-21T09:05:30Z</time>
      </trkpt>
      <trkpt lat="46.02219" lon="0.81287">
        <ele>244.4765625</ele>
        <time>2017-07-21T09:05:31Z</time>
      </trkpt>
      <trkpt lat="46.02219" lon="0.81284">
        <ele>244.59765625</ele>
        <time>2017-07-21T09:05:32Z</time>
      </trkpt>
      <trkpt lat="46.02218" lon="0.81281">
        <ele>244.68359375</ele>
        <time>2017-07-21T09:05:33Z</time>
      </trkpt>
      <trkpt lat="46.02217" lon="0.81279">
        <ele>244.75390625</ele>
        <time>2017-07-21T09:05:34Z</time>
      </trkpt>
      <trkpt lat="46.02212" lon="0.81262">
        <ele>245.23046875</ele>
        <time>2017-07-21T09:05:41Z</time>
      </trkpt>
      <trkpt lat="46.02211" lon="0.81259">
        <ele>245.296875</ele>
        <time>2017-07-21T09:05:42Z</time>
      </trkpt>
      <trkpt lat="46.0221" lon="0.81257">
        <ele>245.3515625</ele>
        <time>2017-07-21T09:05:43Z</time>
      </trkpt>
      <trkpt lat="46.02208" lon="0.81255">
        <ele>245.40625</ele>
        <time>2017-07-21T09:05:44Z</time>
      </trkpt>
      <trkpt lat="46.02208" lon="0.81253">
        <ele>245.46484375</ele>
        <time>2017-07-21T09:05:45Z</time>
      </trkpt>
      <trkpt lat="46.02207" lon="0.8125">
        <ele>245.5234375</ele>
        <time>2017-07-21T09:05:46Z</time>
      </trkpt>
      <trkpt lat="46.02207" lon="0.81248">
        <ele>245.578125</ele>
        <time>2017-07-21T09:05:47Z</time>
      </trkpt>
      <trkpt lat="46.02203" lon="0.81239">
        <ele>245.7890625</ele>
        <time>2017-07-21T09:05:51Z</time>
      </trkpt>
      <trkpt lat="46.02202" lon="0.81236">
        <ele>245.83984375</ele>
        <time>2017-07-21T09:05:52Z</time>
      </trkpt>
      <trkpt lat="46.02201" lon="0.81233">
        <ele>245.90234375</ele>
        <time>2017-07-21T09:05:53Z</time>
      </trkpt>
      <trkpt lat="46.022" lon="0.8123">
        <ele>245.97265625</ele>
        <time>2017-07-21T09:05:54Z</time>
      </trkpt>
      <trkpt lat="46.02199" lon="0.81226">
        <ele>246</ele>
        <time>2017-07-21T09:05:55Z</time>
      </trkpt>
      <trkpt lat="46.02198" lon="0.81223">
        <ele>246</ele>
        <time>2017-07-21T09:05:56Z</time>
      </trkpt>
      <trkpt lat="46.02191" lon="0.81203">
        <ele>246</ele>
        <time>2017-07-21T09:06:04Z</time>
      </trkpt>
      <trkpt lat="46.02184" lon="0.81181">
        <ele>246</ele>
        <time>2017-07-21T09:06:12Z</time>
      </trkpt>
      <trkpt lat="46.02179" lon="0.81167">
        <ele>246</ele>
        <time>2017-07-21T09:06:18Z</time>
      </trkpt>
      <trkpt lat="46.02172" lon="0.81148">
        <ele>246</ele>
        <time>2017-07-21T09:06:25Z</time>
      </trkpt>
      <trkpt lat="46.02165" lon="0.81129">
        <ele>246</ele>
        <time>2017-07-21T09:06:32Z</time>
      </trkpt>
      <trkpt lat="46.02159" lon="0.8111">
        <ele>246</ele>
        <time>2017-07-21T09:06:39Z</time>
      </trkpt>
      <trkpt lat="46.02155" lon="0.81101">
        <ele>246</ele>
        <time>2017-07-21T09:06:42Z</time>
      </trkpt>
      <trkpt lat="46.02155" lon="0.81098">
        <ele>246</ele>
        <time>2017-07-21T09:06:43Z</time>
      </trkpt>
      <trkpt lat="46.02154" lon="0.81094">
        <ele>246</ele>
        <time>2017-07-21T09:06:44Z</time>
      </trkpt>
      <trkpt lat="46.02148" lon="0.81076">
        <ele>246</ele>
        <time>2017-07-21T09:06:50Z</time>
      </trkpt>
      <trkpt lat="46.02145" lon="0.81066">
        <ele>246</ele>
        <time>2017-07-21T09:06:56Z</time>
      </trkpt>
      <trkpt lat="46.02144" lon="0.81061">
        <ele>245.98828125</ele>
        <time>2017-07-21T09:07:07Z</time>
      </trkpt>
      <trkpt lat="46.02145" lon="0.81061">
        <ele>245.98828125</ele>
        <time>2017-07-21T09:07:22Z</time>
      </trkpt>
      <trkpt lat="46.02144" lon="0.81058">
        <ele>245.87890625</ele>
        <time>2017-07-21T09:07:35Z</time>
      </trkpt>
      <trkpt lat="46.02144" lon="0.81058">
        <ele>245.8515625</ele>
        <time>2017-07-21T09:07:49Z</time>
      </trkpt>
      <trkpt lat="46.02143" lon="0.81054">
        <ele>245.7421875</ele>
        <time>2017-07-21T09:07:59Z</time>
      </trkpt>
      <trkpt lat="46.02139" lon="0.81037">
        <ele>245.078125</ele>
        <time>2017-07-21T09:08:05Z</time>
      </trkpt>
      <trkpt lat="46.02134" lon="0.81024">
        <ele>244.6015625</ele>
        <time>2017-07-21T09:08:11Z</time>
      </trkpt>
      <trkpt lat="46.02134" lon="0.81022">
        <ele>244.52734375</ele>
        <time>2017-07-21T09:08:12Z</time>
      </trkpt>
      <trkpt lat="46.02132" lon="0.8102">
        <ele>244.44921875</ele>
        <time>2017-07-21T09:08:14Z</time>
      </trkpt>
      <trkpt lat="46.0213" lon="0.81014">
        <ele>244.26953125</ele>
        <time>2017-07-21T09:08:19Z</time>
      </trkpt>
      <trkpt lat="46.02129" lon="0.81012">
        <ele>244.19140625</ele>
        <time>2017-07-21T09:08:25Z</time>
      </trkpt>
      <trkpt lat="46.02127" lon="0.81008">
        <ele>244.04296875</ele>
        <time>2017-07-21T09:08:30Z</time>
      </trkpt>
      <trkpt lat="46.02126" lon="0.81003">
        <ele>243.93359375</ele>
        <time>2017-07-21T09:08:33Z</time>
      </trkpt>
      <trkpt lat="46.02122" lon="0.80995">
        <ele>243.8046875</ele>
        <time>2017-07-21T09:08:37Z</time>
      </trkpt>
      <trkpt lat="46.02122" lon="0.80993">
        <ele>243.765625</ele>
        <time>2017-07-21T09:08:38Z</time>
      </trkpt>
      <trkpt lat="46.02121" lon="0.80991">
        <ele>243.73046875</ele>
        <time>2017-07-21T09:08:39Z</time>
      </trkpt>
      <trkpt lat="46.02118" lon="0.80986">
        <ele>243.640625</ele>
        <time>2017-07-21T09:08:45Z</time>
      </trkpt>
      <trkpt lat="46.02115" lon="0.80984">
        <ele>243.6015625</ele>
        <time>2017-07-21T09:08:51Z</time>
      </trkpt>
      <trkpt lat="46.02113" lon="0.80985">
        <ele>243.61328125</ele>
        <time>2017-07-21T09:08:54Z</time>
      </trkpt>
      <trkpt lat="46.02112" lon="0.80985">
        <ele>243.61328125</ele>
        <time>2017-07-21T09:09:00Z</time>
      </trkpt>
      <trkpt lat="46.02112" lon="0.80984">
        <ele>243.6015625</ele>
        <time>2017-07-21T09:09:01Z</time>
      </trkpt>
      <trkpt lat="46.02112" lon="0.80982">
        <ele>243.5703125</ele>
        <time>2017-07-21T09:09:02Z</time>
      </trkpt>
      <trkpt lat="46.02114" lon="0.80975">
        <ele>243.4375</ele>
        <time>2017-07-21T09:09:09Z</time>
      </trkpt>
      <trkpt lat="46.02114" lon="0.80975">
        <ele>243.44140625</ele>
        <time>2017-07-21T09:09:19Z</time>
      </trkpt>
      <trkpt lat="46.02113" lon="0.80975">
        <ele>243.44140625</ele>
        <time>2017-07-21T09:09:27Z</time>
      </trkpt>
      <trkpt lat="46.02113" lon="0.80975">
        <ele>243.4453125</ele>
        <time>2017-07-21T09:09:36Z</time>
      </trkpt>
      <trkpt lat="46.02113" lon="0.80975">
        <ele>243.44140625</ele>
        <time>2017-07-21T09:09:54Z</time>
      </trkpt>
      <trkpt lat="46.02113" lon="0.80976">
        <ele>243.4609375</ele>
        <time>2017-07-21T09:10:05Z</time>
      </trkpt>
      <trkpt lat="46.02112" lon="0.80975">
        <ele>243.43359375</ele>
        <time>2017-07-21T09:10:13Z</time>
      </trkpt>
      <trkpt lat="46.02112" lon="0.80974">
        <ele>243.421875</ele>
        <time>2017-07-21T09:10:22Z</time>
      </trkpt>
      <trkpt lat="46.02112" lon="0.80976">
        <ele>243.453125</ele>
        <time>2017-07-21T09:10:36Z</time>
      </trkpt>
      <trkpt lat="46.02112" lon="0.80974">
        <ele>243.42578125</ele>
        <time>2017-07-21T09:10:53Z</time>
      </trkpt>
      <trkpt lat="46.02113" lon="0.80974">
        <ele>243.41796875</ele>
        <time>2017-07-21T09:11:06Z</time>
      </trkpt>
      <trkpt lat="46.02113" lon="0.80975">
        <ele>243.4375</ele>
        <time>2017-07-21T09:11:18Z</time>
      </trkpt>
      <trkpt lat="46.02113" lon="0.80974">
        <ele>243.41796875</ele>
        <time>2017-07-21T09:11:31Z</time>
      </trkpt>
      <trkpt lat="46.02112" lon="0.80972">
        <ele>243.38671875</ele>
        <time>2017-07-21T09:11:37Z</time>
      </trkpt>
      <trkpt lat="46.02113" lon="0.80971">
        <ele>243.3671875</ele>
        <time>2017-07-21T09:11:41Z</time>
      </trkpt>
      <trkpt lat="46.02114" lon="0.8097">
        <ele>243.34765625</ele>
        <time>2017-07-21T09:11:43Z</time>
      </trkpt>
      <trkpt lat="46.02116" lon="0.80969">
        <ele>243.3359375</ele>
        <time>2017-07-21T09:11:44Z</time>
      </trkpt>
      <trkpt lat="46.02117" lon="0.80968">
        <ele>243.3125</ele>
        <time>2017-07-21T09:11:45Z</time>
      </trkpt>
      <trkpt lat="46.02117" lon="0.80967">
        <ele>243.28515625</ele>
        <time>2017-07-21T09:11:46Z</time>
      </trkpt>
      <trkpt lat="46.02118" lon="0.80965">
        <ele>243.25390625</ele>
        <time>2017-07-21T09:11:47Z</time>
      </trkpt>
      <trkpt lat="46.02118" lon="0.80963">
        <ele>243.22265625</ele>
        <time>2017-07-21T09:11:48Z</time>
      </trkpt>
      <trkpt lat="46.0212" lon="0.80962">
        <ele>243.19921875</ele>
        <time>2017-07-21T09:11:53Z</time>
      </trkpt>
      <trkpt lat="46.0212" lon="0.8096">
        <ele>243.16796875</ele>
        <time>2017-07-21T09:12:00Z</time>
      </trkpt>
      <trkpt lat="46.02122" lon="0.80959">
        <ele>243.1484375</ele>
        <time>2017-07-21T09:12:01Z</time>
      </trkpt>
      <trkpt lat="46.02123" lon="0.80958">
        <ele>243.125</ele>
        <time>2017-07-21T09:12:02Z</time>
      </trkpt>
      <trkpt lat="46.02124" lon="0.80956">
        <ele>243.09765625</ele>
        <time>2017-07-21T09:12:03Z</time>
      </trkpt>
      <trkpt lat="46.02125" lon="0.80954">
        <ele>243.06640625</ele>
        <time>2017-07-21T09:12:04Z</time>
      </trkpt>
      <trkpt lat="46.02127" lon="0.80952">
        <ele>243.02734375</ele>
        <time>2017-07-21T09:12:05Z</time>
      </trkpt>
      <trkpt lat="46.02128" lon="0.8095">
        <ele>242.98828125</ele>
        <time>2017-07-21T09:12:06Z</time>
      </trkpt>
      <trkpt lat="46.0213" lon="0.80949">
        <ele>242.93359375</ele>
        <time>2017-07-21T09:12:07Z</time>
      </trkpt>
      <trkpt lat="46.02131" lon="0.80948">
        <ele>242.89453125</ele>
        <time>2017-07-21T09:12:08Z</time>
      </trkpt>
      <trkpt lat="46.02132" lon="0.80947">
        <ele>242.8671875</ele>
        <time>2017-07-21T09:12:09Z</time>
      </trkpt>
      <trkpt lat="46.02133" lon="0.80946">
        <ele>242.8359375</ele>
        <time>2017-07-21T09:12:10Z</time>
      </trkpt>
      <trkpt lat="46.02134" lon="0.80946">
        <ele>242.84375</ele>
        <time>2017-07-21T09:12:15Z</time>
      </trkpt>
      <trkpt lat="46.02134" lon="0.80947">
        <ele>242.859375</ele>
        <time>2017-07-21T09:12:27Z</time>
      </trkpt>
      <trkpt lat="46.02133" lon="0.80946">
        <ele>242.82421875</ele>
        <time>2017-07-21T09:12:44Z</time>
      </trkpt>
      <trkpt lat="46.02132" lon="0.80946">
        <ele>242.81640625</ele>
        <time>2017-07-21T09:13:01Z</time>
      </trkpt>
      <trkpt lat="46.02133" lon="0.80945">
        <ele>242.80078125</ele>
        <time>2017-07-21T09:13:14Z</time>
      </trkpt>
      <trkpt lat="46.02134" lon="0.80945">
        <ele>242.80859375</ele>
        <time>2017-07-21T09:13:27Z</time>
      </trkpt>
      <trkpt lat="46.02135" lon="0.80945">
        <ele>242.78515625</ele>
        <time>2017-07-21T09:13:39Z</time>
      </trkpt>
      <trkpt lat="46.02136" lon="0.80944">
        <ele>242.7578125</ele>
        <time>2017-07-21T09:13:53Z</time>
      </trkpt>
      <trkpt lat="46.02136" lon="0.80943">
        <ele>242.734375</ele>
        <time>2017-07-21T09:14:07Z</time>
      </trkpt>
      <trkpt lat="46.02135" lon="0.80943">
        <ele>242.7109375</ele>
        <time>2017-07-21T09:14:22Z</time>
      </trkpt>
      <trkpt lat="46.02134" lon="0.80946">
        <ele>242.828125</ele>
        <time>2017-07-21T09:14:41Z</time>
      </trkpt>
      <trkpt lat="46.02139" lon="0.80941">
        <ele>242.64453125</ele>
        <time>2017-07-21T09:14:50Z</time>
      </trkpt>
      <trkpt lat="46.02148" lon="0.80933">
        <ele>242.30859375</ele>
        <time>2017-07-21T09:14:54Z</time>
      </trkpt>
      <trkpt lat="46.02162" lon="0.80925">
        <ele>241.90625</ele>
        <time>2017-07-21T09:15:00Z</time>
      </trkpt>
      <trkpt lat="46.02178" lon="0.8092">
        <ele>241.51171875</ele>
        <time>2017-07-21T09:15:06Z</time>
      </trkpt>
      <trkpt lat="46.02196" lon="0.80912">
        <ele>240.921875</ele>
        <time>2017-07-21T09:15:12Z</time>
      </trkpt>
      <trkpt lat="46.02227" lon="0.80899">
        <ele>241.25390625</ele>
        <time>2017-07-21T09:15:20Z</time>
      </trkpt>
      <trkpt lat="46.02259" lon="0.80888">
        <ele>242.140625</ele>
        <time>2017-07-21T09:15:28Z</time>
      </trkpt>
      <trkpt lat="46.02289" lon="0.80877">
        <ele>243.23046875</ele>
        <time>2017-07-21T09:15:36Z</time>
      </trkpt>
      <trkpt lat="46.02308" lon="0.80869">
        <ele>244.03125</ele>
        <time>2017-07-21T09:15:41Z</time>
      </trkpt>
      <trkpt lat="46.02312" lon="0.80867">
        <ele>244.1796875</ele>
        <time>2017-07-21T09:15:42Z</time>
      </trkpt>
      <trkpt lat="46.02316" lon="0.80865">
        <ele>244.32421875</ele>
        <time>2017-07-21T09:15:43Z</time>
      </trkpt>
      <trkpt lat="46.02328" lon="0.8086">
        <ele>244.76171875</ele>
        <time>2017-07-21T09:15:46Z</time>
      </trkpt>
      <trkpt lat="46.0234" lon="0.80856">
        <ele>245.18359375</ele>
        <time>2017-07-21T09:15:49Z</time>
      </trkpt>
      <trkpt lat="46.02365" lon="0.80848">
        <ele>246.046875</ele>
        <time>2017-07-21T09:15:55Z</time>
      </trkpt>
      <trkpt lat="46.02398" lon="0.80828">
        <ele>246.640625</ele>
        <time>2017-07-21T09:16:03Z</time>
      </trkpt>
      <trkpt lat="46.02429" lon="0.808">
        <ele>247.140625</ele>
        <time>2017-07-21T09:16:12Z</time>
      </trkpt>
      <trkpt lat="46.02454" lon="0.80778">
        <ele>247.64453125</ele>
        <time>2017-07-21T09:16:20Z</time>
      </trkpt>
      <trkpt lat="46.02486" lon="0.80754">
        <ele>248</ele>
        <time>2017-07-21T09:16:29Z</time>
      </trkpt>
      <trkpt lat="46.0251" lon="0.80733">
        <ele>248</ele>
        <time>2017-07-21T09:16:36Z</time>
      </trkpt>
      <trkpt lat="46.02521" lon="0.80722">
        <ele>247.8828125</ele>
        <time>2017-07-21T09:16:39Z</time>
      </trkpt>
      <trkpt lat="46.02525" lon="0.80718">
        <ele>247.80078125</ele>
        <time>2017-07-21T09:16:40Z</time>
      </trkpt>
      <trkpt lat="46.02529" lon="0.80713">
        <ele>247.7265625</ele>
        <time>2017-07-21T09:16:41Z</time>
      </trkpt>
      <trkpt lat="46.02532" lon="0.80709">
        <ele>247.6171875</ele>
        <time>2017-07-21T09:16:42Z</time>
      </trkpt>
      <trkpt lat="46.02535" lon="0.80705">
        <ele>247.50390625</ele>
        <time>2017-07-21T09:16:43Z</time>
      </trkpt>
      <trkpt lat="46.02539" lon="0.807">
        <ele>247.3984375</ele>
        <time>2017-07-21T09:16:44Z</time>
      </trkpt>
      <trkpt lat="46.02569" lon="0.80655">
        <ele>246.359375</ele>
        <time>2017-07-21T09:16:53Z</time>
      </trkpt>
      <trkpt lat="46.02598" lon="0.80622">
        <ele>245.1484375</ele>
        <time>2017-07-21T09:17:00Z</time>
      </trkpt>
      <trkpt lat="46.02602" lon="0.80617">
        <ele>244.9921875</ele>
        <time>2017-07-21T09:17:01Z</time>
      </trkpt>
      <trkpt lat="46.02607" lon="0.80612">
        <ele>244.83984375</ele>
        <time>2017-07-21T09:17:02Z</time>
      </trkpt>
      <trkpt lat="46.02611" lon="0.80607">
        <ele>244.71484375</ele>
        <time>2017-07-21T09:17:03Z</time>
      </trkpt>
      <trkpt lat="46.02638" lon="0.80571">
        <ele>244.1171875</ele>
        <time>2017-07-21T09:17:11Z</time>
      </trkpt>
      <trkpt lat="46.0267" lon="0.80531">
        <ele>242.609375</ele>
        <time>2017-07-21T09:17:18Z</time>
      </trkpt>
      <trkpt lat="46.02711" lon="0.80483">
        <ele>241.37109375</ele>
        <time>2017-07-21T09:17:25Z</time>
      </trkpt>
      <trkpt lat="46.02743" lon="0.80438">
        <ele>241.41796875</ele>
        <time>2017-07-21T09:17:32Z</time>
      </trkpt>
      <trkpt lat="46.02751" lon="0.80425">
        <ele>241.50390625</ele>
        <time>2017-07-21T09:17:34Z</time>
      </trkpt>
      <trkpt lat="46.02783" lon="0.80369">
        <ele>241.5703125</ele>
        <time>2017-07-21T09:17:42Z</time>
      </trkpt>
      <trkpt lat="46.02814" lon="0.80316">
        <ele>242.42578125</ele>
        <time>2017-07-21T09:17:50Z</time>
      </trkpt>
      <trkpt lat="46.02846" lon="0.80256">
        <ele>243.35546875</ele>
        <time>2017-07-21T09:17:59Z</time>
      </trkpt>
      <trkpt lat="46.0286" lon="0.80231">
        <ele>243.92578125</ele>
        <time>2017-07-21T09:18:03Z</time>
      </trkpt>
      <trkpt lat="46.02863" lon="0.80225">
        <ele>243.984375</ele>
        <time>2017-07-21T09:18:04Z</time>
      </trkpt>
      <trkpt lat="46.02867" lon="0.8022">
        <ele>243.94140625</ele>
        <time>2017-07-21T09:18:05Z</time>
      </trkpt>
      <trkpt lat="46.02871" lon="0.80215">
        <ele>243.92578125</ele>
        <time>2017-07-21T09:18:06Z</time>
      </trkpt>
      <trkpt lat="46.02873" lon="0.80209">
        <ele>243.94140625</ele>
        <time>2017-07-21T09:18:07Z</time>
      </trkpt>
      <trkpt lat="46.02875" lon="0.80203">
        <ele>243.984375</ele>
        <time>2017-07-21T09:18:08Z</time>
      </trkpt>
      <trkpt lat="46.02876" lon="0.80197">
        <ele>244.03515625</ele>
        <time>2017-07-21T09:18:09Z</time>
      </trkpt>
      <trkpt lat="46.02877" lon="0.80191">
        <ele>244.09765625</ele>
        <time>2017-07-21T09:18:10Z</time>
      </trkpt>
      <trkpt lat="46.02882" lon="0.80161">
        <ele>244.3515625</ele>
        <time>2017-07-21T09:18:16Z</time>
      </trkpt>
      <trkpt lat="46.0289" lon="0.80123">
        <ele>244.5</ele>
        <time>2017-07-21T09:18:24Z</time>
      </trkpt>
      <trkpt lat="46.02903" lon="0.80082">
        <ele>244.2578125</ele>
        <time>2017-07-21T09:18:32Z</time>
      </trkpt>
      <trkpt lat="46.0292" lon="0.80039">
        <ele>243.52734375</ele>
        <time>2017-07-21T09:18:41Z</time>
      </trkpt>
      <trkpt lat="46.02932" lon="0.79993">
        <ele>242.7421875</ele>
        <time>2017-07-21T09:18:50Z</time>
      </trkpt>
      <trkpt lat="46.02942" lon="0.79952">
        <ele>242.55859375</ele>
        <time>2017-07-21T09:18:58Z</time>
      </trkpt>
      <trkpt lat="46.02952" lon="0.79909">
        <ele>242.09375</ele>
        <time>2017-07-21T09:19:05Z</time>
      </trkpt>
      <trkpt lat="46.02963" lon="0.79854">
        <ele>241.24609375</ele>
        <time>2017-07-21T09:19:13Z</time>
      </trkpt>
      <trkpt lat="46.02981" lon="0.79787">
        <ele>239.75390625</ele>
        <time>2017-07-21T09:19:23Z</time>
      </trkpt>
      <trkpt lat="46.03002" lon="0.79712">
        <ele>236.65234375</ele>
        <time>2017-07-21T09:19:34Z</time>
      </trkpt>
      <trkpt lat="46.0302" lon="0.79652">
        <ele>234.9375</ele>
        <time>2017-07-21T09:19:42Z</time>
      </trkpt>
      <trkpt lat="46.03036" lon="0.796">
        <ele>233.3125</ele>
        <time>2017-07-21T09:19:49Z</time>
      </trkpt>
      <trkpt lat="46.03041" lon="0.79586">
        <ele>232.74609375</ele>
        <time>2017-07-21T09:19:51Z</time>
      </trkpt>
      <trkpt lat="46.03056" lon="0.79556">
        <ele>231.4765625</ele>
        <time>2017-07-21T09:19:55Z</time>
      </trkpt>
      <trkpt lat="46.03094" lon="0.7949">
        <ele>229.23046875</ele>
        <time>2017-07-21T09:20:04Z</time>
      </trkpt>
      <trkpt lat="46.03128" lon="0.79434">
        <ele>227.609375</ele>
        <time>2017-07-21T09:20:12Z</time>
      </trkpt>
      <trkpt lat="46.03151" lon="0.79398">
        <ele>227.3515625</ele>
        <time>2017-07-21T09:20:18Z</time>
      </trkpt>
      <trkpt lat="46.03156" lon="0.79393">
        <ele>227.1015625</ele>
        <time>2017-07-21T09:20:19Z</time>
      </trkpt>
      <trkpt lat="46.03161" lon="0.7939">
        <ele>226.8359375</ele>
        <time>2017-07-21T09:20:20Z</time>
      </trkpt>
      <trkpt lat="46.03166" lon="0.7939">
        <ele>226.59375</ele>
        <time>2017-07-21T09:20:21Z</time>
      </trkpt>
      <trkpt lat="46.0317" lon="0.79389">
        <ele>226.36328125</ele>
        <time>2017-07-21T09:20:22Z</time>
      </trkpt>
      <trkpt lat="46.03216" lon="0.79389">
        <ele>224.03515625</ele>
        <time>2017-07-21T09:20:31Z</time>
      </trkpt>
      <trkpt lat="46.03256" lon="0.79387">
        <ele>221.73828125</ele>
        <time>2017-07-21T09:20:38Z</time>
      </trkpt>
      <trkpt lat="46.03262" lon="0.79384">
        <ele>221.2421875</ele>
        <time>2017-07-21T09:20:39Z</time>
      </trkpt>
      <trkpt lat="46.03295" lon="0.79364">
        <ele>218.62890625</ele>
        <time>2017-07-21T09:20:44Z</time>
      </trkpt>
      <trkpt lat="46.03302" lon="0.7936">
        <ele>218.08203125</ele>
        <time>2017-07-21T09:20:45Z</time>
      </trkpt>
      <trkpt lat="46.03322" lon="0.79346">
        <ele>216.74609375</ele>
        <time>2017-07-21T09:20:48Z</time>
      </trkpt>
      <trkpt lat="46.03328" lon="0.79339">
        <ele>216.5</ele>
        <time>2017-07-21T09:20:49Z</time>
      </trkpt>
      <trkpt lat="46.03333" lon="0.79332">
        <ele>216.40234375</ele>
        <time>2017-07-21T09:20:50Z</time>
      </trkpt>
      <trkpt lat="46.03364" lon="0.79288">
        <ele>215.75390625</ele>
        <time>2017-07-21T09:20:56Z</time>
      </trkpt>
      <trkpt lat="46.0337" lon="0.79284">
        <ele>215.4140625</ele>
        <time>2017-07-21T09:20:57Z</time>
      </trkpt>
      <trkpt lat="46.03377" lon="0.79283">
        <ele>214.953125</ele>
        <time>2017-07-21T09:20:58Z</time>
      </trkpt>
      <trkpt lat="46.03442" lon="0.79275">
        <ele>210.0859375</ele>
        <time>2017-07-21T09:21:07Z</time>
      </trkpt>
      <trkpt lat="46.03463" lon="0.79272">
        <ele>208.3125</ele>
        <time>2017-07-21T09:21:10Z</time>
      </trkpt>
      <trkpt lat="46.03471" lon="0.79268">
        <ele>207.7890625</ele>
        <time>2017-07-21T09:21:11Z</time>
      </trkpt>
      <trkpt lat="46.03478" lon="0.79264">
        <ele>207.58203125</ele>
        <time>2017-07-21T09:21:12Z</time>
      </trkpt>
      <trkpt lat="46.03492" lon="0.79253">
        <ele>207.54296875</ele>
        <time>2017-07-21T09:21:14Z</time>
      </trkpt>
      <trkpt lat="46.03499" lon="0.7925">
        <ele>207.453125</ele>
        <time>2017-07-21T09:21:15Z</time>
      </trkpt>
      <trkpt lat="46.03508" lon="0.79249">
        <ele>207.234375</ele>
        <time>2017-07-21T09:21:16Z</time>
      </trkpt>
      <trkpt lat="46.03517" lon="0.7925">
        <ele>206.88671875</ele>
        <time>2017-07-21T09:21:17Z</time>
      </trkpt>
      <trkpt lat="46.03525" lon="0.79252">
        <ele>206.48828125</ele>
        <time>2017-07-21T09:21:18Z</time>
      </trkpt>
      <trkpt lat="46.03534" lon="0.79254">
        <ele>206.0234375</ele>
        <time>2017-07-21T09:21:19Z</time>
      </trkpt>
      <trkpt lat="46.03572" lon="0.79262">
        <ele>204.0859375</ele>
        <time>2017-07-21T09:21:24Z</time>
      </trkpt>
      <trkpt lat="46.03578" lon="0.79261">
        <ele>203.95703125</ele>
        <time>2017-07-21T09:21:25Z</time>
      </trkpt>
      <trkpt lat="46.03584" lon="0.79257">
        <ele>203.99609375</ele>
        <time>2017-07-21T09:21:26Z</time>
      </trkpt>
      <trkpt lat="46.03589" lon="0.79253">
        <ele>204.015625</ele>
        <time>2017-07-21T09:21:27Z</time>
      </trkpt>
      <trkpt lat="46.03594" lon="0.79248">
        <ele>204.03515625</ele>
        <time>2017-07-21T09:21:28Z</time>
      </trkpt>
      <trkpt lat="46.03618" lon="0.79227">
        <ele>203.54296875</ele>
        <time>2017-07-21T09:21:34Z</time>
      </trkpt>
      <trkpt lat="46.03643" lon="0.79204">
        <ele>201.765625</ele>
        <time>2017-07-21T09:21:41Z</time>
      </trkpt>
      <trkpt lat="46.0366" lon="0.79183">
        <ele>200.5390625</ele>
        <time>2017-07-21T09:21:47Z</time>
      </trkpt>
      <trkpt lat="46.03663" lon="0.79179">
        <ele>200.33203125</ele>
        <time>2017-07-21T09:21:48Z</time>
      </trkpt>
      <trkpt lat="46.03682" lon="0.79148">
        <ele>197.078125</ele>
        <time>2017-07-21T09:21:53Z</time>
      </trkpt>
      <trkpt lat="46.03696" lon="0.79128">
        <ele>194.671875</ele>
        <time>2017-07-21T09:21:56Z</time>
      </trkpt>
      <trkpt lat="46.03702" lon="0.79123">
        <ele>194.09765625</ele>
        <time>2017-07-21T09:21:57Z</time>
      </trkpt>
      <trkpt lat="46.03708" lon="0.7912">
        <ele>193.64453125</ele>
        <time>2017-07-21T09:21:58Z</time>
      </trkpt>
      <trkpt lat="46.03715" lon="0.79118">
        <ele>193.26171875</ele>
        <time>2017-07-21T09:21:59Z</time>
      </trkpt>
      <trkpt lat="46.03722" lon="0.79116">
        <ele>192.8828125</ele>
        <time>2017-07-21T09:22:00Z</time>
      </trkpt>
      <trkpt lat="46.03749" lon="0.79107">
        <ele>191.4609375</ele>
        <time>2017-07-21T09:22:05Z</time>
      </trkpt>
      <trkpt lat="46.03753" lon="0.79108">
        <ele>191.38671875</ele>
        <time>2017-07-21T09:22:06Z</time>
      </trkpt>
      <trkpt lat="46.03755" lon="0.79112">
        <ele>191.484375</ele>
        <time>2017-07-21T09:22:07Z</time>
      </trkpt>
      <trkpt lat="46.03756" lon="0.79116">
        <ele>191.68359375</ele>
        <time>2017-07-21T09:22:08Z</time>
      </trkpt>
      <trkpt lat="46.03756" lon="0.7912">
        <ele>191.875</ele>
        <time>2017-07-21T09:22:09Z</time>
      </trkpt>
      <trkpt lat="46.03755" lon="0.79124">
        <ele>192.03125</ele>
        <time>2017-07-21T09:22:10Z</time>
      </trkpt>
      <trkpt lat="46.03754" lon="0.79128">
        <ele>192.1953125</ele>
        <time>2017-07-21T09:22:11Z</time>
      </trkpt>
      <trkpt lat="46.03749" lon="0.79149">
        <ele>193.2265625</ele>
        <time>2017-07-21T09:22:17Z</time>
      </trkpt>
      <trkpt lat="46.03741" lon="0.79187">
        <ele>194.71875</ele>
        <time>2017-07-21T09:22:27Z</time>
      </trkpt>
      <trkpt lat="46.03736" lon="0.7921">
        <ele>195.04296875</ele>
        <time>2017-07-21T09:22:35Z</time>
      </trkpt>
      <trkpt lat="46.03742" lon="0.79231">
        <ele>194.60546875</ele>
        <time>2017-07-21T09:22:41Z</time>
      </trkpt>
      <trkpt lat="46.03762" lon="0.79252">
        <ele>192.484375</ele>
        <time>2017-07-21T09:22:46Z</time>
      </trkpt>
      <trkpt lat="46.03785" lon="0.79276">
        <ele>190.35546875</ele>
        <time>2017-07-21T09:22:50Z</time>
      </trkpt>
      <trkpt lat="46.03815" lon="0.79306">
        <ele>187.18359375</ele>
        <time>2017-07-21T09:22:54Z</time>
      </trkpt>
      <trkpt lat="46.0383" lon="0.79322">
        <ele>185.08203125</ele>
        <time>2017-07-21T09:22:56Z</time>
      </trkpt>
      <trkpt lat="46.03847" lon="0.79339">
        <ele>183.078125</ele>
        <time>2017-07-21T09:22:58Z</time>
      </trkpt>
      <trkpt lat="46.03873" lon="0.79366">
        <ele>181.42578125</ele>
        <time>2017-07-21T09:23:01Z</time>
      </trkpt>
      <trkpt lat="46.03923" lon="0.79414">
        <ele>181.52734375</ele>
        <time>2017-07-21T09:23:07Z</time>
      </trkpt>
      <trkpt lat="46.03953" lon="0.79441">
        <ele>183.1171875</ele>
        <time>2017-07-21T09:23:12Z</time>
      </trkpt>
      <trkpt lat="46.03976" lon="0.79462">
        <ele>184.9765625</ele>
        <time>2017-07-21T09:23:18Z</time>
      </trkpt>
      <trkpt lat="46.03991" lon="0.79475">
        <ele>186.67578125</ele>
        <time>2017-07-21T09:23:24Z</time>
      </trkpt>
      <trkpt lat="46.04007" lon="0.79491">
        <ele>188.69921875</ele>
        <time>2017-07-21T09:23:32Z</time>
      </trkpt>
      <trkpt lat="46.04026" lon="0.7951">
        <ele>191.125</ele>
        <time>2017-07-21T09:23:42Z</time>
      </trkpt>
      <trkpt lat="46.04045" lon="0.79522">
        <ele>193.1875</ele>
        <time>2017-07-21T09:23:51Z</time>
      </trkpt>
      <trkpt lat="46.04061" lon="0.79531">
        <ele>194.828125</ele>
        <time>2017-07-21T09:23:59Z</time>
      </trkpt>
      <trkpt lat="46.04075" lon="0.7954">
        <ele>196.234375</ele>
        <time>2017-07-21T09:24:06Z</time>
      </trkpt>
      <trkpt lat="46.0409" lon="0.79547">
        <ele>197.3359375</ele>
        <time>2017-07-21T09:24:13Z</time>
      </trkpt>
      <trkpt lat="46.04111" lon="0.79557">
        <ele>198.6171875</ele>
        <time>2017-07-21T09:24:22Z</time>
      </trkpt>
      <trkpt lat="46.04135" lon="0.79569">
        <ele>199.9609375</ele>
        <time>2017-07-21T09:24:33Z</time>
      </trkpt>
      <trkpt lat="46.04159" lon="0.79581">
        <ele>199.84765625</ele>
        <time>2017-07-21T09:24:45Z</time>
      </trkpt>
      <trkpt lat="46.04178" lon="0.79591">
        <ele>199.84765625</ele>
        <time>2017-07-21T09:24:54Z</time>
      </trkpt>
      <trkpt lat="46.04192" lon="0.79603">
        <ele>200.22265625</ele>
        <time>2017-07-21T09:25:01Z</time>
      </trkpt>
      <trkpt lat="46.04209" lon="0.79623">
        <ele>200.6875</ele>
        <time>2017-07-21T09:25:10Z</time>
      </trkpt>
      <trkpt lat="46.04224" lon="0.79643">
        <ele>201.046875</ele>
        <time>2017-07-21T09:25:18Z</time>
      </trkpt>
      <trkpt lat="46.04244" lon="0.79664">
        <ele>201.59375</ele>
        <time>2017-07-21T09:25:27Z</time>
      </trkpt>
      <trkpt lat="46.04263" lon="0.79687">
        <ele>202.2578125</ele>
        <time>2017-07-21T09:25:36Z</time>
      </trkpt>
      <trkpt lat="46.0428" lon="0.79713">
        <ele>202.890625</ele>
        <time>2017-07-21T09:25:45Z</time>
      </trkpt>
      <trkpt lat="46.04293" lon="0.79737">
        <ele>203.5078125</ele>
        <time>2017-07-21T09:25:53Z</time>
      </trkpt>
      <trkpt lat="46.04312" lon="0.79768">
        <ele>204.26171875</ele>
        <time>2017-07-21T09:26:03Z</time>
      </trkpt>
      <trkpt lat="46.04331" lon="0.798">
        <ele>205.09765625</ele>
        <time>2017-07-21T09:26:12Z</time>
      </trkpt>
      <trkpt lat="46.04349" lon="0.79831">
        <ele>205.87109375</ele>
        <time>2017-07-21T09:26:21Z</time>
      </trkpt>
      <trkpt lat="46.04368" lon="0.79862">
        <ele>205.703125</ele>
        <time>2017-07-21T09:26:30Z</time>
      </trkpt>
      <trkpt lat="46.04382" lon="0.79877">
        <ele>205.13671875</ele>
        <time>2017-07-21T09:26:35Z</time>
      </trkpt>
      <trkpt lat="46.04386" lon="0.79877">
        <ele>204.96875</ele>
        <time>2017-07-21T09:26:36Z</time>
      </trkpt>
      <trkpt lat="46.04389" lon="0.79875">
        <ele>204.80859375</ele>
        <time>2017-07-21T09:26:37Z</time>
      </trkpt>
      <trkpt lat="46.04393" lon="0.79872">
        <ele>204.6328125</ele>
        <time>2017-07-21T09:26:38Z</time>
      </trkpt>
      <trkpt lat="46.04397" lon="0.7987">
        <ele>204.43359375</ele>
        <time>2017-07-21T09:26:39Z</time>
      </trkpt>
      <trkpt lat="46.0443" lon="0.79845">
        <ele>202.375</ele>
        <time>2017-07-21T09:26:46Z</time>
      </trkpt>
      <trkpt lat="46.04467" lon="0.7982">
        <ele>199.84765625</ele>
        <time>2017-07-21T09:26:52Z</time>
      </trkpt>
      <trkpt lat="46.04474" lon="0.79817">
        <ele>199.62109375</ele>
        <time>2017-07-21T09:26:53Z</time>
      </trkpt>
      <trkpt lat="46.04481" lon="0.79815">
        <ele>199.77734375</ele>
        <time>2017-07-21T09:26:54Z</time>
      </trkpt>
      <trkpt lat="46.04489" lon="0.79813">
        <ele>199.9609375</ele>
        <time>2017-07-21T09:26:55Z</time>
      </trkpt>
      <trkpt lat="46.04496" lon="0.79813">
        <ele>200.14453125</ele>
        <time>2017-07-21T09:26:56Z</time>
      </trkpt>
      <trkpt lat="46.04561" lon="0.79807">
        <ele>202.17578125</ele>
        <time>2017-07-21T09:27:05Z</time>
      </trkpt>
      <trkpt lat="46.04572" lon="0.79806">
        <ele>202.58203125</ele>
        <time>2017-07-21T09:27:07Z</time>
      </trkpt>
      <trkpt lat="46.04576" lon="0.79804">
        <ele>202.75</ele>
        <time>2017-07-21T09:27:08Z</time>
      </trkpt>
      <trkpt lat="46.04581" lon="0.79801">
        <ele>202.90234375</ele>
        <time>2017-07-21T09:27:09Z</time>
      </trkpt>
      <trkpt lat="46.04585" lon="0.79796">
        <ele>203.046875</ele>
        <time>2017-07-21T09:27:10Z</time>
      </trkpt>
      <trkpt lat="46.04588" lon="0.79792">
        <ele>203.171875</ele>
        <time>2017-07-21T09:27:11Z</time>
      </trkpt>
      <trkpt lat="46.04591" lon="0.79786">
        <ele>203.2578125</ele>
        <time>2017-07-21T09:27:12Z</time>
      </trkpt>
      <trkpt lat="46.04593" lon="0.79781">
        <ele>203.265625</ele>
        <time>2017-07-21T09:27:13Z</time>
      </trkpt>
      <trkpt lat="46.04595" lon="0.79775">
        <ele>203.234375</ele>
        <time>2017-07-21T09:27:14Z</time>
      </trkpt>
      <trkpt lat="46.04616" lon="0.79726">
        <ele>203.140625</ele>
        <time>2017-07-21T09:27:23Z</time>
      </trkpt>
      <trkpt lat="46.04629" lon="0.79694">
        <ele>203.5546875</ele>
        <time>2017-07-21T09:27:29Z</time>
      </trkpt>
      <trkpt lat="46.04632" lon="0.79689">
        <ele>203.65625</ele>
        <time>2017-07-21T09:27:30Z</time>
      </trkpt>
      <trkpt lat="46.04635" lon="0.79683">
        <ele>203.78515625</ele>
        <time>2017-07-21T09:27:31Z</time>
      </trkpt>
      <trkpt lat="46.04654" lon="0.79635">
        <ele>204.55078125</ele>
        <time>2017-07-21T09:27:40Z</time>
      </trkpt>
      <trkpt lat="46.04665" lon="0.79574">
        <ele>205.75390625</ele>
        <time>2017-07-21T09:27:50Z</time>
      </trkpt>
      <trkpt lat="46.04666" lon="0.79568">
        <ele>205.8984375</ele>
        <time>2017-07-21T09:27:51Z</time>
      </trkpt>
      <trkpt lat="46.04676" lon="0.79518">
        <ele>206.6015625</ele>
        <time>2017-07-21T09:27:59Z</time>
      </trkpt>
      <trkpt lat="46.04677" lon="0.79513">
        <ele>206.66015625</ele>
        <time>2017-07-21T09:28:00Z</time>
      </trkpt>
      <trkpt lat="46.04679" lon="0.79508">
        <ele>206.7109375</ele>
        <time>2017-07-21T09:28:01Z</time>
      </trkpt>
      <trkpt lat="46.04692" lon="0.7946">
        <ele>206.94921875</ele>
        <time>2017-07-21T09:28:09Z</time>
      </trkpt>
      <trkpt lat="46.04704" lon="0.79414">
        <ele>206.6640625</ele>
        <time>2017-07-21T09:28:17Z</time>
      </trkpt>
      <trkpt lat="46.04713" lon="0.7936">
        <ele>207.41796875</ele>
        <time>2017-07-21T09:28:26Z</time>
      </trkpt>
      <trkpt lat="46.04723" lon="0.79318">
        <ele>207.84765625</ele>
        <time>2017-07-21T09:28:33Z</time>
      </trkpt>
      <trkpt lat="46.04733" lon="0.79283">
        <ele>208</ele>
        <time>2017-07-21T09:28:39Z</time>
      </trkpt>
      <trkpt lat="46.04737" lon="0.79266">
        <ele>208.5625</ele>
        <time>2017-07-21T09:28:42Z</time>
      </trkpt>
      <trkpt lat="46.04739" lon="0.79261">
        <ele>208.73828125</ele>
        <time>2017-07-21T09:28:43Z</time>
      </trkpt>
      <trkpt lat="46.04752" lon="0.79229">
        <ele>209.93359375</ele>
        <time>2017-07-21T09:28:50Z</time>
      </trkpt>
      <trkpt lat="46.04775" lon="0.79179">
        <ele>210.4296875</ele>
        <time>2017-07-21T09:29:02Z</time>
      </trkpt>
      <trkpt lat="46.04793" lon="0.79141">
        <ele>211.140625</ele>
        <time>2017-07-21T09:29:11Z</time>
      </trkpt>
      <trkpt lat="46.04812" lon="0.79101">
        <ele>211.95703125</ele>
        <time>2017-07-21T09:29:21Z</time>
      </trkpt>
      <trkpt lat="46.04831" lon="0.79065">
        <ele>212.4375</ele>
        <time>2017-07-21T09:29:30Z</time>
      </trkpt>
      <trkpt lat="46.04853" lon="0.79032">
        <ele>212.28515625</ele>
        <time>2017-07-21T09:29:39Z</time>
      </trkpt>
      <trkpt lat="46.04882" lon="0.79004">
        <ele>211.5703125</ele>
        <time>2017-07-21T09:29:48Z</time>
      </trkpt>
      <trkpt lat="46.04918" lon="0.78977">
        <ele>210.3125</ele>
        <time>2017-07-21T09:29:58Z</time>
      </trkpt>
      <trkpt lat="46.0493" lon="0.7897">
        <ele>209.00390625</ele>
        <time>2017-07-21T09:30:01Z</time>
      </trkpt>
      <trkpt lat="46.04962" lon="0.78968">
        <ele>205.953125</ele>
        <time>2017-07-21T09:30:09Z</time>
      </trkpt>
      <trkpt lat="46.04976" lon="0.78972">
        <ele>204.5546875</ele>
        <time>2017-07-21T09:30:12Z</time>
      </trkpt>
      <trkpt lat="46.04988" lon="0.78972">
        <ele>203.16796875</ele>
        <time>2017-07-21T09:30:14Z</time>
      </trkpt>
      <trkpt lat="46.05011" lon="0.78969">
        <ele>200.625</ele>
        <time>2017-07-21T09:30:17Z</time>
      </trkpt>
      <trkpt lat="46.0503" lon="0.78963">
        <ele>198.640625</ele>
        <time>2017-07-21T09:30:19Z</time>
      </trkpt>
      <trkpt lat="46.0505" lon="0.78957">
        <ele>197.23046875</ele>
        <time>2017-07-21T09:30:21Z</time>
      </trkpt>
      <trkpt lat="46.05084" lon="0.78943">
        <ele>194.9609375</ele>
        <time>2017-07-21T09:30:24Z</time>
      </trkpt>
      <trkpt lat="46.05119" lon="0.78927">
        <ele>193.71875</ele>
        <time>2017-07-21T09:30:27Z</time>
      </trkpt>
      <trkpt lat="46.0513" lon="0.7892">
        <ele>193.3203125</ele>
        <time>2017-07-21T09:30:28Z</time>
      </trkpt>
      <trkpt lat="46.0515" lon="0.78903">
        <ele>192.79296875</ele>
        <time>2017-07-21T09:30:30Z</time>
      </trkpt>
      <trkpt lat="46.05169" lon="0.78885">
        <ele>191.93359375</ele>
        <time>2017-07-21T09:30:32Z</time>
      </trkpt>
      <trkpt lat="46.05178" lon="0.78879">
        <ele>191.55078125</ele>
        <time>2017-07-21T09:30:33Z</time>
      </trkpt>
      <trkpt lat="46.05186" lon="0.78875">
        <ele>191.33203125</ele>
        <time>2017-07-21T09:30:34Z</time>
      </trkpt>
      <trkpt lat="46.052" lon="0.78868">
        <ele>191.0859375</ele>
        <time>2017-07-21T09:30:38Z</time>
      </trkpt>
      <trkpt lat="46.05202" lon="0.78864">
        <ele>190.9765625</ele>
        <time>2017-07-21T09:30:39Z</time>
      </trkpt>
      <trkpt lat="46.05203" lon="0.78859">
        <ele>190.81640625</ele>
        <time>2017-07-21T09:30:40Z</time>
      </trkpt>
      <trkpt lat="46.05204" lon="0.78848">
        <ele>190.44140625</ele>
        <time>2017-07-21T09:30:42Z</time>
      </trkpt>
      <trkpt lat="46.05206" lon="0.78835">
        <ele>189.80859375</ele>
        <time>2017-07-21T09:30:44Z</time>
      </trkpt>
      <trkpt lat="46.05208" lon="0.78802">
        <ele>187.6484375</ele>
        <time>2017-07-21T09:30:48Z</time>
      </trkpt>
      <trkpt lat="46.05207" lon="0.78794">
        <ele>187.1328125</ele>
        <time>2017-07-21T09:30:49Z</time>
      </trkpt>
      <trkpt lat="46.05202" lon="0.78773">
        <ele>185</ele>
        <time>2017-07-21T09:30:53Z</time>
      </trkpt>
      <trkpt lat="46.052" lon="0.78768">
        <ele>184.4453125</ele>
        <time>2017-07-21T09:30:54Z</time>
      </trkpt>
      <trkpt lat="46.05197" lon="0.78762">
        <ele>183.9296875</ele>
        <time>2017-07-21T09:30:55Z</time>
      </trkpt>
      <trkpt lat="46.0519" lon="0.78752">
        <ele>182.80859375</ele>
        <time>2017-07-21T09:30:57Z</time>
      </trkpt>
      <trkpt lat="46.05185" lon="0.78747">
        <ele>182.2578125</ele>
        <time>2017-07-21T09:30:58Z</time>
      </trkpt>
      <trkpt lat="46.05151" lon="0.78709">
        <ele>177.98046875</ele>
        <time>2017-07-21T09:31:05Z</time>
      </trkpt>
      <trkpt lat="46.05099" lon="0.78654">
        <ele>178.30859375</ele>
        <time>2017-07-21T09:31:14Z</time>
      </trkpt>
      <trkpt lat="46.0509" lon="0.78641">
        <ele>179.8984375</ele>
        <time>2017-07-21T09:31:17Z</time>
      </trkpt>
      <trkpt lat="46.05091" lon="0.78637">
        <ele>179.98046875</ele>
        <time>2017-07-21T09:31:18Z</time>
      </trkpt>
      <trkpt lat="46.05093" lon="0.78634">
        <ele>179.72265625</ele>
        <time>2017-07-21T09:31:19Z</time>
      </trkpt>
      <trkpt lat="46.05097" lon="0.78635">
        <ele>179.21875</ele>
        <time>2017-07-21T09:31:20Z</time>
      </trkpt>
      <trkpt lat="46.051" lon="0.78636">
        <ele>178.640625</ele>
        <time>2017-07-21T09:31:21Z</time>
      </trkpt>
      <trkpt lat="46.05105" lon="0.78638">
        <ele>178.00390625</ele>
        <time>2017-07-21T09:31:22Z</time>
      </trkpt>
      <trkpt lat="46.05109" lon="0.78638">
        <ele>177.34765625</ele>
        <time>2017-07-21T09:31:23Z</time>
      </trkpt>
      <trkpt lat="46.05114" lon="0.7864">
        <ele>176.66796875</ele>
        <time>2017-07-21T09:31:24Z</time>
      </trkpt>
      <trkpt lat="46.05119" lon="0.78642">
        <ele>175.98046875</ele>
        <time>2017-07-21T09:31:25Z</time>
      </trkpt>
      <trkpt lat="46.05124" lon="0.78643">
        <ele>175.28515625</ele>
        <time>2017-07-21T09:31:26Z</time>
      </trkpt>
      <trkpt lat="46.0513" lon="0.78645">
        <ele>174.58203125</ele>
        <time>2017-07-21T09:31:27Z</time>
      </trkpt>
      <trkpt lat="46.05175" lon="0.78658">
        <ele>170.99609375</ele>
        <time>2017-07-21T09:31:34Z</time>
      </trkpt>
      <trkpt lat="46.05219" lon="0.78671">
        <ele>169.00390625</ele>
        <time>2017-07-21T09:31:40Z</time>
      </trkpt>
      <trkpt lat="46.05274" lon="0.78694">
        <ele>168.3828125</ele>
        <time>2017-07-21T09:31:47Z</time>
      </trkpt>
      <trkpt lat="46.05333" lon="0.78724">
        <ele>167.27734375</ele>
        <time>2017-07-21T09:31:54Z</time>
      </trkpt>
      <trkpt lat="46.05379" lon="0.78726">
        <ele>166.3515625</ele>
        <time>2017-07-21T09:31:59Z</time>
      </trkpt>
      <trkpt lat="46.05437" lon="0.78715">
        <ele>168.46484375</ele>
        <time>2017-07-21T09:32:06Z</time>
      </trkpt>
      <trkpt lat="46.05451" lon="0.78709">
        <ele>169.48046875</ele>
        <time>2017-07-21T09:32:08Z</time>
      </trkpt>
      <trkpt lat="46.05458" lon="0.78704">
        <ele>170.046875</ele>
        <time>2017-07-21T09:32:09Z</time>
      </trkpt>
      <trkpt lat="46.05494" lon="0.78678">
        <ele>173.0859375</ele>
        <time>2017-07-21T09:32:15Z</time>
      </trkpt>
      <trkpt lat="46.05532" lon="0.78643">
        <ele>176.3125</ele>
        <time>2017-07-21T09:32:23Z</time>
      </trkpt>
      <trkpt lat="46.05564" lon="0.78613">
        <ele>178.3828125</ele>
        <time>2017-07-21T09:32:31Z</time>
      </trkpt>
      <trkpt lat="46.05598" lon="0.7858">
        <ele>180.09765625</ele>
        <time>2017-07-21T09:32:41Z</time>
      </trkpt>
      <trkpt lat="46.05624" lon="0.78554">
        <ele>181.78125</ele>
        <time>2017-07-21T09:32:54Z</time>
      </trkpt>
      <trkpt lat="46.05611" lon="0.78544">
        <ele>181.51953125</ele>
        <time>2017-07-21T09:33:04Z</time>
      </trkpt>
      <trkpt lat="46.05562" lon="0.78521">
        <ele>179.36328125</ele>
        <time>2017-07-21T09:33:14Z</time>
      </trkpt>
      <trkpt lat="46.05519" lon="0.78499">
        <ele>176.40234375</ele>
        <time>2017-07-21T09:33:23Z</time>
      </trkpt>
      <trkpt lat="46.05483" lon="0.78484">
        <ele>173.84375</ele>
      </trkpt>
      <trkpt lat="46.05456" lon="0.7847">
        <ele>172.44921875</ele>
      </trkpt>
      <trkpt lat="46.05436" lon="0.78457">
        <ele>171.69921875</ele>
      </trkpt>
      <trkpt lat="46.05428" lon="0.78454">
        <ele>171.40625</ele>
      </trkpt>
      <trkpt lat="46.05419" lon="0.78443">
        <ele>170.9609375</ele>
      </trkpt>
      <trkpt lat="46.05411" lon="0.78436">
        <ele>170.3984375</ele>
      </trkpt>
      <trkpt lat="46.05395" lon="0.78436">
        <ele>169.4296875</ele>
      </trkpt>
      <trkpt lat="46.05386" lon="0.78436">
        <ele>168.84765625</ele>
      </trkpt>
      <trkpt lat="46.05377" lon="0.78437">
        <ele>168.30078125</ele>
      </trkpt>
      <trkpt lat="46.05372" lon="0.78432">
        <ele>168.0078125</ele>
      </trkpt>
      <trkpt lat="46.05371" lon="0.78421">
        <ele>168.09375</ele>
      </trkpt>
      <trkpt lat="46.05371" lon="0.78409">
        <ele>168.23046875</ele>
      </trkpt>
      <trkpt lat="46.05378" lon="0.78363">
        <ele>167.60546875</ele>
      </trkpt>
      <trkpt lat="46.05382" lon="0.78327">
        <ele>166.80859375</ele>
      </trkpt>
      <trkpt lat="46.05389" lon="0.78303">
        <ele>166.484375</ele>
      </trkpt>
      <trkpt lat="46.05396" lon="0.78285">
        <ele>166.26953125</ele>
      </trkpt>
      <trkpt lat="46.054" lon="0.78276">
        <ele>166.33984375</ele>
      </trkpt>
      <trkpt lat="46.05412" lon="0.78266">
        <ele>166.54296875</ele>
      </trkpt>
      <trkpt lat="46.05451" lon="0.78248">
        <ele>167.15625</ele>
      </trkpt>
      <trkpt lat="46.05485" lon="0.78231">
        <ele>167.72265625</ele>
      </trkpt>
      <trkpt lat="46.05512" lon="0.78212">
        <ele>168.4921875</ele>
      </trkpt>
      <trkpt lat="46.05538" lon="0.78197">
        <ele>169.70703125</ele>
      </trkpt>
      <trkpt lat="46.05563" lon="0.78181">
        <ele>171.3359375</ele>
      </trkpt>
      <trkpt lat="46.05589" lon="0.78164">
        <ele>173.4765625</ele>
      </trkpt>
      <trkpt lat="46.05611" lon="0.7815">
        <ele>175.3828125</ele>
      </trkpt>
      <trkpt lat="46.05622" lon="0.7814">
        <ele>176.1875</ele>
      </trkpt>
      <trkpt lat="46.05633" lon="0.78127">
        <ele>176.79296875</ele>
      </trkpt>
      <trkpt lat="46.05643" lon="0.78113">
        <ele>177.33984375</ele>
      </trkpt>
      <trkpt lat="46.05655" lon="0.78099">
        <ele>178.0546875</ele>
      </trkpt>
      <trkpt lat="46.05667" lon="0.78085">
        <ele>178.83203125</ele>
      </trkpt>
      <trkpt lat="46.05679" lon="0.78072">
        <ele>179.6953125</ele>
      </trkpt>
      <trkpt lat="46.0569" lon="0.78061">
        <ele>180.4609375</ele>
      </trkpt>
      <trkpt lat="46.05702" lon="0.78048">
        <ele>181</ele>
      </trkpt>
      <trkpt lat="46.05715" lon="0.78035">
        <ele>181.58203125</ele>
      </trkpt>
      <trkpt lat="46.05724" lon="0.78025">
        <ele>181.83984375</ele>
      </trkpt>
      <trkpt lat="46.05731" lon="0.78018">
        <ele>182.015625</ele>
      </trkpt>
      <trkpt lat="46.05741" lon="0.78013">
        <ele>182.5703125</ele>
      </trkpt>
      <trkpt lat="46.05754" lon="0.78009">
        <ele>183.578125</ele>
      </trkpt>
      <trkpt lat="46.05766" lon="0.78006">
        <ele>184.86328125</ele>
      </trkpt>
      <trkpt lat="46.05773" lon="0.78005">
        <ele>185.57421875</ele>
      </trkpt>
      <trkpt lat="46.05785" lon="0.78005">
        <ele>186.8359375</ele>
      </trkpt>
      <trkpt lat="46.05796" lon="0.78006">
        <ele>188.08984375</ele>
      </trkpt>
      <trkpt lat="46.0581" lon="0.78011">
        <ele>189.91796875</ele>
      </trkpt>
      <trkpt lat="46.05827" lon="0.78016">
        <ele>192.6015625</ele>
      </trkpt>
      <trkpt lat="46.05835" lon="0.7802">
        <ele>193.9609375</ele>
      </trkpt>
      <trkpt lat="46.05848" lon="0.78022">
        <ele>195.7734375</ele>
      </trkpt>
      <trkpt lat="46.05863" lon="0.78025">
        <ele>197.87890625</ele>
      </trkpt>
      <trkpt lat="46.05876" lon="0.78027">
        <ele>199.49609375</ele>
      </trkpt>
      <trkpt lat="46.05891" lon="0.78029">
        <ele>201.19140625</ele>
      </trkpt>
      <trkpt lat="46.05905" lon="0.78032">
        <ele>202.78125</ele>
      </trkpt>
      <trkpt lat="46.05914" lon="0.78034">
        <ele>203.828125</ele>
      </trkpt>
      <trkpt lat="46.0592" lon="0.78037">
        <ele>204.390625</ele>
      </trkpt>
      <trkpt lat="46.05927" lon="0.7804">
        <ele>204.984375</ele>
        <time>2017-07-21T09:35:06Z</time>
      </trkpt>
      <trkpt lat="46.05931" lon="0.78036">
        <ele>205.328125</ele>
        <time>2017-07-21T09:35:08Z</time>
      </trkpt>
      <trkpt lat="46.05939" lon="0.78024">
        <ele>206.2265625</ele>
        <time>2017-07-21T09:35:10Z</time>
      </trkpt>
      <trkpt lat="46.05941" lon="0.78017">
        <ele>206.6015625</ele>
        <time>2017-07-21T09:35:11Z</time>
      </trkpt>
      <trkpt lat="46.05943" lon="0.78009">
        <ele>206.953125</ele>
        <time>2017-07-21T09:35:12Z</time>
      </trkpt>
      <trkpt lat="46.05953" lon="0.77974">
        <ele>208.98828125</ele>
        <time>2017-07-21T09:35:18Z</time>
      </trkpt>
      <trkpt lat="46.0597" lon="0.77947">
        <ele>211.82421875</ele>
        <time>2017-07-21T09:35:25Z</time>
      </trkpt>
      <trkpt lat="46.05982" lon="0.77927">
        <ele>212.55859375</ele>
        <time>2017-07-21T09:35:32Z</time>
      </trkpt>
      <trkpt lat="46.05999" lon="0.77911">
        <ele>213.47265625</ele>
        <time>2017-07-21T09:35:41Z</time>
      </trkpt>
      <trkpt lat="46.06" lon="0.77909">
        <ele>213.546875</ele>
        <time>2017-07-21T09:35:42Z</time>
      </trkpt>
      <trkpt lat="46.06006" lon="0.77903">
        <ele>213.8515625</ele>
        <time>2017-07-21T09:35:52Z</time>
      </trkpt>
      <trkpt lat="46.05994" lon="0.77935">
        <ele>213.23046875</ele>
        <time>2017-07-21T09:35:59Z</time>
      </trkpt>
      <trkpt lat="46.06002" lon="0.77944">
        <ele>213.625</ele>
        <time>2017-07-21T09:36:08Z</time>
      </trkpt>
      <trkpt lat="46.06011" lon="0.77951">
        <ele>214.12109375</ele>
        <time>2017-07-21T09:36:16Z</time>
      </trkpt>
      <trkpt lat="46.06024" lon="0.77947">
        <ele>214.8203125</ele>
        <time>2017-07-21T09:36:24Z</time>
      </trkpt>
      <trkpt lat="46.06044" lon="0.77942">
        <ele>215.60546875</ele>
        <time>2017-07-21T09:36:35Z</time>
      </trkpt>
      <trkpt lat="46.06061" lon="0.77939">
        <ele>216.23828125</ele>
        <time>2017-07-21T09:36:42Z</time>
      </trkpt>
      <trkpt lat="46.06074" lon="0.77937">
        <ele>216.68359375</ele>
      </trkpt>
      <trkpt lat="46.06084" lon="0.77935">
        <ele>217.0546875</ele>
      </trkpt>
      <trkpt lat="46.06093" lon="0.77932">
        <ele>217.36328125</ele>
      </trkpt>
      <trkpt lat="46.06092" lon="0.77917">
        <ele>217.33203125</ele>
      </trkpt>
      <trkpt lat="46.06091" lon="0.77895">
        <ele>217.24609375</ele>
      </trkpt>
      <trkpt lat="46.06091" lon="0.77877">
        <ele>216.61328125</ele>
      </trkpt>
      <trkpt lat="46.0609" lon="0.77869">
        <ele>216.33984375</ele>
      </trkpt>
      <trkpt lat="46.06089" lon="0.7786">
        <ele>215.98828125</ele>
      </trkpt>
      <trkpt lat="46.06083" lon="0.77846">
        <ele>215.19921875</ele>
      </trkpt>
      <trkpt lat="46.0607" lon="0.77826">
        <ele>214.56640625</ele>
      </trkpt>
      <trkpt lat="46.06062" lon="0.77815">
        <ele>214.24609375</ele>
      </trkpt>
      <trkpt lat="46.06051" lon="0.77806">
        <ele>213.8828125</ele>
      </trkpt>
      <trkpt lat="46.06044" lon="0.77803">
        <ele>213.62109375</ele>
      </trkpt>
      <trkpt lat="46.0604" lon="0.778">
        <ele>213.47265625</ele>
      </trkpt>
      <trkpt lat="46.06042" lon="0.77797">
        <ele>213.5234375</ele>
        <time>2017-07-21T09:36:47Z</time>
      </trkpt>
      <trkpt lat="46.06054" lon="0.77782">
        <ele>213.91796875</ele>
        <time>2017-07-21T09:36:54Z</time>
      </trkpt>
      <trkpt lat="46.06063" lon="0.77759">
        <ele>213.81640625</ele>
        <time>2017-07-21T09:37:02Z</time>
      </trkpt>
      <trkpt lat="46.06067" lon="0.77744">
        <ele>213.68359375</ele>
        <time>2017-07-21T09:37:06Z</time>
      </trkpt>
      <trkpt lat="46.0607" lon="0.77738">
        <ele>213.70703125</ele>
        <time>2017-07-21T09:37:08Z</time>
      </trkpt>
      <trkpt lat="46.06073" lon="0.77736">
        <ele>213.75</ele>
        <time>2017-07-21T09:37:09Z</time>
      </trkpt>
      <trkpt lat="46.06074" lon="0.77734">
        <ele>213.77734375</ele>
        <time>2017-07-21T09:37:10Z</time>
      </trkpt>
      <trkpt lat="46.06076" lon="0.77731">
        <ele>213.76953125</ele>
        <time>2017-07-21T09:37:11Z</time>
      </trkpt>
      <trkpt lat="46.06077" lon="0.77728">
        <ele>213.7890625</ele>
        <time>2017-07-21T09:37:12Z</time>
      </trkpt>
      <trkpt lat="46.06085" lon="0.77697">
        <ele>214.12109375</ele>
        <time>2017-07-21T09:37:20Z</time>
      </trkpt>
      <trkpt lat="46.06098" lon="0.77656">
        <ele>215.1796875</ele>
        <time>2017-07-21T09:37:29Z</time>
      </trkpt>
      <trkpt lat="46.06104" lon="0.77613">
        <ele>216.2734375</ele>
        <time>2017-07-21T09:37:37Z</time>
      </trkpt>
      <trkpt lat="46.06112" lon="0.77581">
        <ele>217.26171875</ele>
        <time>2017-07-21T09:37:44Z</time>
      </trkpt>
      <trkpt lat="46.06123" lon="0.77559">
        <ele>218.265625</ele>
        <time>2017-07-21T09:37:50Z</time>
      </trkpt>
      <trkpt lat="46.06131" lon="0.77531">
        <ele>219.1875</ele>
        <time>2017-07-21T09:37:56Z</time>
      </trkpt>
      <trkpt lat="46.06134" lon="0.77498">
        <ele>219.96875</ele>
        <time>2017-07-21T09:38:03Z</time>
      </trkpt>
      <trkpt lat="46.06138" lon="0.77465">
        <ele>220.77734375</ele>
        <time>2017-07-21T09:38:10Z</time>
      </trkpt>
      <trkpt lat="46.06146" lon="0.77427">
        <ele>220.765625</ele>
        <time>2017-07-21T09:44:57Z</time>
      </trkpt>
      <trkpt lat="46.06147" lon="0.77425">
        <ele>220.7421875</ele>
        <time>2017-07-21T09:44:58Z</time>
      </trkpt>
      <trkpt lat="46.0615" lon="0.77426">
        <ele>220.83984375</ele>
        <time>2017-07-21T09:44:59Z</time>
      </trkpt>
      <trkpt lat="46.06154" lon="0.77429">
        <ele>221.0078125</ele>
        <time>2017-07-21T09:45:24Z</time>
      </trkpt>
      <trkpt lat="46.06156" lon="0.77431">
        <ele>221.140625</ele>
        <time>2017-07-21T09:45:31Z</time>
      </trkpt>
      <trkpt lat="46.06182" lon="0.77447">
        <ele>222.39453125</ele>
        <time>2017-07-21T09:45:42Z</time>
      </trkpt>
      <trkpt lat="46.062" lon="0.7746">
        <ele>223.11328125</ele>
        <time>2017-07-21T09:45:49Z</time>
      </trkpt>
      <trkpt lat="46.06214" lon="0.77467">
        <ele>223.37109375</ele>
        <time>2017-07-21T09:45:54Z</time>
      </trkpt>
      <trkpt lat="46.06217" lon="0.77465">
        <ele>223.421875</ele>
        <time>2017-07-21T09:45:55Z</time>
      </trkpt>
      <trkpt lat="46.06218" lon="0.77463">
        <ele>223.44921875</ele>
        <time>2017-07-21T09:45:56Z</time>
      </trkpt>
      <trkpt lat="46.06237" lon="0.77445">
        <ele>223.609375</ele>
        <time>2017-07-21T09:46:03Z</time>
      </trkpt>
      <trkpt lat="46.06261" lon="0.77419">
        <ele>223.8125</ele>
        <time>2017-07-21T09:46:12Z</time>
      </trkpt>
      <trkpt lat="46.06275" lon="0.77393">
        <ele>223.8203125</ele>
        <time>2017-07-21T09:46:19Z</time>
      </trkpt>
      <trkpt lat="46.06299" lon="0.77349">
        <ele>223.1328125</ele>
        <time>2017-07-21T09:46:29Z</time>
      </trkpt>
      <trkpt lat="46.06324" lon="0.77299">
        <ele>221.09765625</ele>
        <time>2017-07-21T09:46:39Z</time>
      </trkpt>
      <trkpt lat="46.0635" lon="0.77248">
        <ele>218.9296875</ele>
        <time>2017-07-21T09:46:47Z</time>
      </trkpt>
      <trkpt lat="46.06363" lon="0.77229">
        <ele>217.796875</ele>
        <time>2017-07-21T09:46:50Z</time>
      </trkpt>
      <trkpt lat="46.06368" lon="0.77223">
        <ele>217.30078125</ele>
        <time>2017-07-21T09:46:51Z</time>
      </trkpt>
      <trkpt lat="46.06373" lon="0.77218">
        <ele>216.8359375</ele>
        <time>2017-07-21T09:46:52Z</time>
      </trkpt>
      <trkpt lat="46.06418" lon="0.77186">
        <ele>213.3046875</ele>
        <time>2017-07-21T09:46:59Z</time>
      </trkpt>
      <trkpt lat="46.06456" lon="0.77161">
        <ele>211.12890625</ele>
        <time>2017-07-21T09:47:04Z</time>
      </trkpt>
      <trkpt lat="46.06472" lon="0.77151">
        <ele>210.10546875</ele>
        <time>2017-07-21T09:47:06Z</time>
      </trkpt>
      <trkpt lat="46.06532" lon="0.77111">
        <ele>207.86328125</ele>
        <time>2017-07-21T09:47:14Z</time>
      </trkpt>
      <trkpt lat="46.06537" lon="0.77107">
        <ele>207.80859375</ele>
        <time>2017-07-21T09:47:15Z</time>
      </trkpt>
      <trkpt lat="46.06541" lon="0.77099">
        <ele>207.7265625</ele>
        <time>2017-07-21T09:47:16Z</time>
      </trkpt>
      <trkpt lat="46.06541" lon="0.77089">
        <ele>207.59375</ele>
        <time>2017-07-21T09:47:17Z</time>
      </trkpt>
      <trkpt lat="46.0654" lon="0.77082">
        <ele>207.484375</ele>
        <time>2017-07-21T09:47:18Z</time>
      </trkpt>
      <trkpt lat="46.06538" lon="0.77074">
        <ele>207.3359375</ele>
        <time>2017-07-21T09:47:19Z</time>
      </trkpt>
      <trkpt lat="46.06535" lon="0.77066">
        <ele>207.18359375</ele>
        <time>2017-07-21T09:47:20Z</time>
      </trkpt>
      <trkpt lat="46.06534" lon="0.77057">
        <ele>207.11328125</ele>
        <time>2017-07-21T09:47:21Z</time>
      </trkpt>
      <trkpt lat="46.06533" lon="0.77049">
        <ele>207.078125</ele>
        <time>2017-07-21T09:47:22Z</time>
      </trkpt>
      <trkpt lat="46.06532" lon="0.77041">
        <ele>207.05859375</ele>
        <time>2017-07-21T09:47:23Z</time>
      </trkpt>
      <trkpt lat="46.06532" lon="0.77033">
        <ele>207.04296875</ele>
        <time>2017-07-21T09:47:24Z</time>
      </trkpt>
      <trkpt lat="46.06532" lon="0.77025">
        <ele>207.03125</ele>
        <time>2017-07-21T09:47:25Z</time>
      </trkpt>
      <trkpt lat="46.06533" lon="0.77017">
        <ele>207.01953125</ele>
        <time>2017-07-21T09:47:26Z</time>
      </trkpt>
      <trkpt lat="46.06542" lon="0.76961">
        <ele>208.33984375</ele>
        <time>2017-07-21T09:47:34Z</time>
      </trkpt>
      <trkpt lat="46.06548" lon="0.76936">
        <ele>209.15234375</ele>
        <time>2017-07-21T09:47:38Z</time>
      </trkpt>
      <trkpt lat="46.06549" lon="0.76929">
        <ele>209.3125</ele>
        <time>2017-07-21T09:47:39Z</time>
      </trkpt>
      <trkpt lat="46.06549" lon="0.76923">
        <ele>209.45703125</ele>
        <time>2017-07-21T09:47:40Z</time>
      </trkpt>
      <trkpt lat="46.06547" lon="0.76917">
        <ele>209.5625</ele>
        <time>2017-07-21T09:47:41Z</time>
      </trkpt>
      <trkpt lat="46.06545" lon="0.76912">
        <ele>209.65625</ele>
        <time>2017-07-21T09:47:42Z</time>
      </trkpt>
      <trkpt lat="46.06542" lon="0.76909">
        <ele>209.71484375</ele>
        <time>2017-07-21T09:47:43Z</time>
      </trkpt>
      <trkpt lat="46.06539" lon="0.76905">
        <ele>209.8046875</ele>
        <time>2017-07-21T09:47:44Z</time>
      </trkpt>
      <trkpt lat="46.06535" lon="0.76901">
        <ele>209.91015625</ele>
        <time>2017-07-21T09:47:45Z</time>
      </trkpt>
      <trkpt lat="46.06532" lon="0.76897">
        <ele>210.015625</ele>
        <time>2017-07-21T09:47:46Z</time>
      </trkpt>
      <trkpt lat="46.0651" lon="0.76874">
        <ele>209.94921875</ele>
        <time>2017-07-21T09:47:52Z</time>
      </trkpt>
      <trkpt lat="46.06479" lon="0.7684">
        <ele>210.26171875</ele>
        <time>2017-07-21T09:48:01Z</time>
      </trkpt>
      <trkpt lat="46.06476" lon="0.76836">
        <ele>210.39453125</ele>
        <time>2017-07-21T09:48:02Z</time>
      </trkpt>
      <trkpt lat="46.06453" lon="0.76811">
        <ele>211.35546875</ele>
        <time>2017-07-21T09:48:09Z</time>
      </trkpt>
      <trkpt lat="46.06449" lon="0.76806">
        <ele>211.53125</ele>
        <time>2017-07-21T09:48:10Z</time>
      </trkpt>
      <trkpt lat="46.06444" lon="0.76802">
        <ele>211.6953125</ele>
        <time>2017-07-21T09:48:11Z</time>
      </trkpt>
      <trkpt lat="46.06414" lon="0.76773">
        <ele>212.53125</ele>
        <time>2017-07-21T09:48:18Z</time>
      </trkpt>
      <trkpt lat="46.06401" lon="0.76764">
        <ele>213.078125</ele>
        <time>2017-07-21T09:48:21Z</time>
      </trkpt>
      <trkpt lat="46.0639" lon="0.76753">
        <ele>213.65625</ele>
        <time>2017-07-21T09:48:24Z</time>
      </trkpt>
      <trkpt lat="46.06386" lon="0.7675">
        <ele>213.859375</ele>
        <time>2017-07-21T09:48:25Z</time>
      </trkpt>
      <trkpt lat="46.06382" lon="0.76746">
        <ele>214.05859375</ele>
        <time>2017-07-21T09:48:26Z</time>
      </trkpt>
      <trkpt lat="46.06359" lon="0.76721">
        <ele>215.3828125</ele>
        <time>2017-07-21T09:48:33Z</time>
      </trkpt>
      <trkpt lat="46.06337" lon="0.76697">
        <ele>216.79296875</ele>
        <time>2017-07-21T09:48:41Z</time>
      </trkpt>
      <trkpt lat="46.06316" lon="0.76677">
        <ele>217.76953125</ele>
        <time>2017-07-21T09:48:49Z</time>
      </trkpt>
      <trkpt lat="46.06307" lon="0.76671">
        <ele>218.05078125</ele>
        <time>2017-07-21T09:48:55Z</time>
      </trkpt>
      <trkpt lat="46.06289" lon="0.76664">
        <ele>218.7265625</ele>
        <time>2017-07-21T09:49:04Z</time>
      </trkpt>
      <trkpt lat="46.06271" lon="0.76658">
        <ele>219.3515625</ele>
        <time>2017-07-21T09:49:11Z</time>
      </trkpt>
      <trkpt lat="46.06255" lon="0.76653">
        <ele>219.828125</ele>
        <time>2017-07-21T09:49:17Z</time>
      </trkpt>
      <trkpt lat="46.06233" lon="0.76645">
        <ele>220.15625</ele>
        <time>2017-07-21T09:49:25Z</time>
      </trkpt>
      <trkpt lat="46.06205" lon="0.76634">
        <ele>220.58984375</ele>
        <time>2017-07-21T09:49:34Z</time>
      </trkpt>
      <trkpt lat="46.06185" lon="0.76627">
        <ele>220.9921875</ele>
        <time>2017-07-21T09:49:40Z</time>
      </trkpt>
      <trkpt lat="46.06154" lon="0.76616">
        <ele>221.8359375</ele>
        <time>2017-07-21T09:49:49Z</time>
      </trkpt>
      <trkpt lat="46.06138" lon="0.76612">
        <ele>222.3046875</ele>
        <time>2017-07-21T09:49:53Z</time>
      </trkpt>
      <trkpt lat="46.06133" lon="0.76611">
        <ele>222.3203125</ele>
        <time>2017-07-21T09:49:54Z</time>
      </trkpt>
      <trkpt lat="46.06115" lon="0.76613">
        <ele>222.24609375</ele>
        <time>2017-07-21T09:49:58Z</time>
      </trkpt>
      <trkpt lat="46.06111" lon="0.76615">
        <ele>222.1796875</ele>
        <time>2017-07-21T09:49:59Z</time>
      </trkpt>
      <trkpt lat="46.06107" lon="0.76617">
        <ele>222.1171875</ele>
        <time>2017-07-21T09:50:00Z</time>
      </trkpt>
      <trkpt lat="46.06077" lon="0.76625">
        <ele>221.7109375</ele>
        <time>2017-07-21T09:50:07Z</time>
      </trkpt>
      <trkpt lat="46.06048" lon="0.76624">
        <ele>221.78515625</ele>
        <time>2017-07-21T09:50:14Z</time>
      </trkpt>
      <trkpt lat="46.0602" lon="0.76622">
        <ele>221.99609375</ele>
        <time>2017-07-21T09:50:21Z</time>
      </trkpt>
      <trkpt lat="46.05994" lon="0.76621">
        <ele>222.57421875</ele>
        <time>2017-07-21T09:50:28Z</time>
      </trkpt>
      <trkpt lat="46.05961" lon="0.76619">
        <ele>223.4140625</ele>
        <time>2017-07-21T09:50:36Z</time>
      </trkpt>
      <trkpt lat="46.05941" lon="0.76615">
        <ele>224.21875</ele>
        <time>2017-07-21T09:50:41Z</time>
      </trkpt>
      <trkpt lat="46.0592" lon="0.76608">
        <ele>225.0703125</ele>
        <time>2017-07-21T09:50:47Z</time>
      </trkpt>
      <trkpt lat="46.05893" lon="0.76599">
        <ele>225.37890625</ele>
        <time>2017-07-21T09:50:54Z</time>
      </trkpt>
      <trkpt lat="46.05884" lon="0.76595">
        <ele>225.453125</ele>
        <time>2017-07-21T09:50:59Z</time>
      </trkpt>
      <trkpt lat="46.05884" lon="0.76593">
        <ele>225.48046875</ele>
        <time>2017-07-21T09:51:00Z</time>
      </trkpt>
      <trkpt lat="46.05884" lon="0.76592">
        <ele>225.51171875</ele>
        <time>2017-07-21T09:51:01Z</time>
      </trkpt>
      <trkpt lat="46.05885" lon="0.76589">
        <ele>225.55078125</ele>
        <time>2017-07-21T09:51:02Z</time>
      </trkpt>
      <trkpt lat="46.05885" lon="0.76586">
        <ele>225.609375</ele>
        <time>2017-07-21T09:51:03Z</time>
      </trkpt>
      <trkpt lat="46.05884" lon="0.76582">
        <ele>225.6796875</ele>
        <time>2017-07-21T09:51:04Z</time>
      </trkpt>
      <trkpt lat="46.05882" lon="0.76578">
        <ele>225.7578125</ele>
        <time>2017-07-21T09:51:05Z</time>
      </trkpt>
      <trkpt lat="46.0588" lon="0.76573">
        <ele>225.84375</ele>
        <time>2017-07-21T09:51:06Z</time>
      </trkpt>
      <trkpt lat="46.05879" lon="0.76568">
        <ele>225.9375</ele>
        <time>2017-07-21T09:51:07Z</time>
      </trkpt>
      <trkpt lat="46.05877" lon="0.76562">
        <ele>226.04296875</ele>
        <time>2017-07-21T09:51:08Z</time>
      </trkpt>
      <trkpt lat="46.05862" lon="0.76504">
        <ele>227</ele>
        <time>2017-07-21T09:51:18Z</time>
      </trkpt>
      <trkpt lat="46.0585" lon="0.76474">
        <ele>226.62890625</ele>
        <time>2017-07-21T09:51:24Z</time>
      </trkpt>
      <trkpt lat="46.05829" lon="0.76444">
        <ele>225.6953125</ele>
        <time>2017-07-21T09:51:32Z</time>
      </trkpt>
      <trkpt lat="46.05823" lon="0.76436">
        <ele>225.33984375</ele>
        <time>2017-07-21T09:51:37Z</time>
      </trkpt>
      <trkpt lat="46.05818" lon="0.76431">
        <ele>225.0859375</ele>
        <time>2017-07-21T09:51:39Z</time>
      </trkpt>
      <trkpt lat="46.05818" lon="0.76432">
        <ele>225.09765625</ele>
        <time>2015-10-02T10:00:49Z</time>
      </trkpt>
      <trkpt lat="46.05822" lon="0.76414">
        <ele>224.91796875</ele>
        <time>2015-10-02T10:00:50Z</time>
      </trkpt>
      <trkpt lat="46.05833" lon="0.76366">
        <ele>224.73046875</ele>
        <time>2015-10-02T10:00:57Z</time>
      </trkpt>
      <trkpt lat="46.05844" lon="0.76316">
        <ele>224.64453125</ele>
        <time>2015-10-02T10:01:04Z</time>
      </trkpt>
      <trkpt lat="46.05846" lon="0.76309">
        <ele>224.6171875</ele>
        <time>2015-10-02T10:01:05Z</time>
      </trkpt>
      <trkpt lat="46.05862" lon="0.76236">
        <ele>224.15234375</ele>
        <time>2015-10-02T10:01:15Z</time>
      </trkpt>
      <trkpt lat="46.05875" lon="0.76174">
        <ele>223.4140625</ele>
        <time>2015-10-02T10:01:24Z</time>
      </trkpt>
      <trkpt lat="46.05892" lon="0.76119">
        <ele>220.484375</ele>
        <time>2015-10-02T10:01:32Z</time>
      </trkpt>
      <trkpt lat="46.05928" lon="0.76058">
        <ele>217.859375</ele>
        <time>2015-10-02T10:01:40Z</time>
      </trkpt>
      <trkpt lat="46.05941" lon="0.76044">
        <ele>217.046875</ele>
        <time>2015-10-02T10:01:42Z</time>
      </trkpt>
      <trkpt lat="46.05947" lon="0.76039">
        <ele>216.76171875</ele>
        <time>2015-10-02T10:01:43Z</time>
      </trkpt>
      <trkpt lat="46.05975" lon="0.7602">
        <ele>216.015625</ele>
        <time>2015-10-02T10:01:48Z</time>
      </trkpt>
      <trkpt lat="46.05976" lon="0.76016">
        <ele>215.73046875</ele>
        <time>2015-10-02T10:01:49Z</time>
      </trkpt>
      <trkpt lat="46.05975" lon="0.76012">
        <ele>215.36328125</ele>
        <time>2015-10-02T10:01:50Z</time>
      </trkpt>
      <trkpt lat="46.05972" lon="0.76007">
        <ele>214.82421875</ele>
        <time>2015-10-02T10:01:51Z</time>
      </trkpt>
      <trkpt lat="46.05969" lon="0.76003">
        <ele>214.359375</ele>
        <time>2015-10-02T10:01:52Z</time>
      </trkpt>
      <trkpt lat="46.05966" lon="0.75997">
        <ele>213.71484375</ele>
        <time>2015-10-02T10:01:53Z</time>
      </trkpt>
      <trkpt lat="46.05963" lon="0.75991">
        <ele>212.99609375</ele>
        <time>2015-10-02T10:01:54Z</time>
      </trkpt>
      <trkpt lat="46.0596" lon="0.75984">
        <ele>212.22265625</ele>
        <time>2015-10-02T10:01:55Z</time>
      </trkpt>
      <trkpt lat="46.05958" lon="0.75976">
        <ele>211.3515625</ele>
        <time>2015-10-02T10:01:56Z</time>
      </trkpt>
      <trkpt lat="46.05957" lon="0.75968">
        <ele>210.59765625</ele>
        <time>2015-10-02T10:01:57Z</time>
      </trkpt>
      <trkpt lat="46.05956" lon="0.7596">
        <ele>209.76171875</ele>
        <time>2015-10-02T10:01:58Z</time>
      </trkpt>
      <trkpt lat="46.05954" lon="0.75952">
        <ele>208.8671875</ele>
        <time>2015-10-02T10:01:59Z</time>
      </trkpt>
      <trkpt lat="46.0595" lon="0.75924">
        <ele>205.9296875</ele>
        <time>2015-10-02T10:02:02Z</time>
      </trkpt>
      <trkpt lat="46.05946" lon="0.75896">
        <ele>202.9765625</ele>
        <time>2015-10-02T10:02:05Z</time>
      </trkpt>
      <trkpt lat="46.05941" lon="0.75877">
        <ele>201.453125</ele>
        <time>2015-10-02T10:02:07Z</time>
      </trkpt>
      <trkpt lat="46.05939" lon="0.75868">
        <ele>200.72265625</ele>
        <time>2015-10-02T10:02:08Z</time>
      </trkpt>
      <trkpt lat="46.05936" lon="0.75862">
        <ele>200.03515625</ele>
        <time>2015-10-02T10:02:09Z</time>
      </trkpt>
      <trkpt lat="46.05931" lon="0.75858">
        <ele>199.37109375</ele>
        <time>2015-10-02T10:02:10Z</time>
      </trkpt>
      <trkpt lat="46.05926" lon="0.75855">
        <ele>198.69140625</ele>
        <time>2015-10-02T10:02:11Z</time>
      </trkpt>
      <trkpt lat="46.0592" lon="0.75852">
        <ele>198.0078125</ele>
        <time>2015-10-02T10:02:12Z</time>
      </trkpt>
      <trkpt lat="46.05914" lon="0.7585">
        <ele>197.375</ele>
        <time>2015-10-02T10:02:13Z</time>
      </trkpt>
      <trkpt lat="46.05907" lon="0.75847">
        <ele>196.70703125</ele>
        <time>2015-10-02T10:02:14Z</time>
      </trkpt>
      <trkpt lat="46.05885" lon="0.75838">
        <ele>194.4765625</ele>
        <time>2015-10-02T10:02:17Z</time>
      </trkpt>
      <trkpt lat="46.0586" lon="0.75827">
        <ele>192.16015625</ele>
        <time>2015-10-02T10:02:20Z</time>
      </trkpt>
      <trkpt lat="46.0583" lon="0.75807">
        <ele>188.2109375</ele>
        <time>2015-10-02T10:02:24Z</time>
      </trkpt>
      <trkpt lat="46.05816" lon="0.75797">
        <ele>185.99609375</ele>
        <time>2015-10-02T10:02:26Z</time>
      </trkpt>
      <trkpt lat="46.0581" lon="0.7579">
        <ele>184.79296875</ele>
        <time>2015-10-02T10:02:27Z</time>
      </trkpt>
      <trkpt lat="46.05804" lon="0.75785">
        <ele>183.8828125</ele>
        <time>2015-10-02T10:02:28Z</time>
      </trkpt>
      <trkpt lat="46.05783" lon="0.75773">
        <ele>182.46875</ele>
        <time>2015-10-02T10:02:31Z</time>
      </trkpt>
      <trkpt lat="46.05776" lon="0.7577">
        <ele>181.9765625</ele>
        <time>2015-10-02T10:02:32Z</time>
      </trkpt>
      <trkpt lat="46.05747" lon="0.75761">
        <ele>179.9296875</ele>
        <time>2015-10-02T10:02:36Z</time>
      </trkpt>
      <trkpt lat="46.05726" lon="0.75761">
        <ele>178.80078125</ele>
        <time>2015-10-02T10:02:39Z</time>
      </trkpt>
      <trkpt lat="46.05684" lon="0.75777">
        <ele>177.36328125</ele>
        <time>2015-10-02T10:02:45Z</time>
      </trkpt>
      <trkpt lat="46.05657" lon="0.75793">
        <ele>176.40234375</ele>
        <time>2015-10-02T10:02:49Z</time>
      </trkpt>
      <trkpt lat="46.05646" lon="0.75797">
        <ele>175.9296875</ele>
        <time>2015-10-02T10:02:51Z</time>
      </trkpt>
      <trkpt lat="46.05636" lon="0.75801">
        <ele>175.5078125</ele>
        <time>2015-10-02T10:02:53Z</time>
      </trkpt>
      <trkpt lat="46.0561" lon="0.75816">
        <ele>174.35546875</ele>
        <time>2015-10-02T10:02:57Z</time>
      </trkpt>
      <trkpt lat="46.05581" lon="0.75834">
        <ele>172.265625</ele>
        <time>2015-10-02T10:03:01Z</time>
      </trkpt>
      <trkpt lat="46.05568" lon="0.75843">
        <ele>171.6953125</ele>
        <time>2015-10-02T10:03:03Z</time>
      </trkpt>
      <trkpt lat="46.05562" lon="0.75848">
        <ele>171.546875</ele>
        <time>2015-10-02T10:03:04Z</time>
      </trkpt>
      <trkpt lat="46.05556" lon="0.75855">
        <ele>171.41796875</ele>
        <time>2015-10-02T10:03:05Z</time>
      </trkpt>
      <trkpt lat="46.05542" lon="0.75872">
        <ele>170.765625</ele>
        <time>2015-10-02T10:03:08Z</time>
      </trkpt>
      <trkpt lat="46.05538" lon="0.75873">
        <ele>170.37109375</ele>
        <time>2015-10-02T10:03:09Z</time>
      </trkpt>
      <trkpt lat="46.05535" lon="0.7587">
        <ele>169.8828125</ele>
        <time>2015-10-02T10:03:10Z</time>
      </trkpt>
      <trkpt lat="46.05533" lon="0.75867">
        <ele>169.5546875</ele>
        <time>2015-10-02T10:03:11Z</time>
      </trkpt>
      <trkpt lat="46.05531" lon="0.75863">
        <ele>169.109375</ele>
        <time>2015-10-02T10:03:12Z</time>
      </trkpt>
      <trkpt lat="46.05528" lon="0.75859">
        <ele>168.63671875</ele>
        <time>2015-10-02T10:03:13Z</time>
      </trkpt>
      <trkpt lat="46.05525" lon="0.75856">
        <ele>168.46875</ele>
        <time>2015-10-02T10:03:14Z</time>
      </trkpt>
      <trkpt lat="46.0551" lon="0.75844">
        <ele>168.3203125</ele>
        <time>2015-10-02T10:03:20Z</time>
      </trkpt>
      <trkpt lat="46.05501" lon="0.75838">
        <ele>168.8125</ele>
        <time>2015-10-02T10:03:24Z</time>
      </trkpt>
      <trkpt lat="46.05501" lon="0.75835">
        <ele>169</ele>
        <time>2015-10-02T10:03:25Z</time>
      </trkpt>
      <trkpt lat="46.05505" lon="0.75828">
        <ele>169.32421875</ele>
        <time>2015-10-02T10:03:41Z</time>
      </trkpt>
      <trkpt lat="46.05509" lon="0.7583">
        <ele>169.08203125</ele>
        <time>2015-10-02T10:03:42Z</time>
      </trkpt>
      <trkpt lat="46.05513" lon="0.75831">
        <ele>168.9140625</ele>
        <time>2015-10-02T10:03:43Z</time>
      </trkpt>
      <trkpt lat="46.05516" lon="0.7583">
        <ele>168.83984375</ele>
        <time>2015-10-02T10:03:44Z</time>
      </trkpt>
      <trkpt lat="46.0552" lon="0.75829">
        <ele>168.76953125</ele>
        <time>2015-10-02T10:03:45Z</time>
      </trkpt>
      <trkpt lat="46.05523" lon="0.75827">
        <ele>168.7109375</ele>
        <time>2015-10-02T10:03:46Z</time>
      </trkpt>
      <trkpt lat="46.05534" lon="0.75821">
        <ele>169.1015625</ele>
        <time>2015-10-02T10:03:50Z</time>
      </trkpt>
      <trkpt lat="46.05535" lon="0.75818">
        <ele>169.203125</ele>
        <time>2015-10-02T10:03:51Z</time>
      </trkpt>
      <trkpt lat="46.05535" lon="0.75815">
        <ele>169.2734375</ele>
        <time>2015-10-02T10:03:52Z</time>
      </trkpt>
      <trkpt lat="46.05538" lon="0.75793">
        <ele>169.7265625</ele>
        <time>2015-10-02T10:03:59Z</time>
      </trkpt>
      <trkpt lat="46.05542" lon="0.75775">
        <ele>170.00390625</ele>
        <time>2015-10-02T10:04:04Z</time>
      </trkpt>
      <trkpt lat="46.05546" lon="0.75753">
        <ele>170.2421875</ele>
        <time>2015-10-02T10:04:12Z</time>
      </trkpt>
      <trkpt lat="46.05547" lon="0.75729">
        <ele>170.60546875</ele>
        <time>2015-10-02T10:04:19Z</time>
      </trkpt>
      <trkpt lat="46.05546" lon="0.75695">
        <ele>170.6640625</ele>
        <time>2015-10-02T10:04:28Z</time>
      </trkpt>
      <trkpt lat="46.05544" lon="0.75665">
        <ele>171.03125</ele>
        <time>2015-10-02T10:04:36Z</time>
      </trkpt>
      <trkpt lat="46.05541" lon="0.75631">
        <ele>171.84375</ele>
        <time>2015-10-02T10:04:45Z</time>
      </trkpt>
      <trkpt lat="46.0554" lon="0.75603">
        <ele>172.42578125</ele>
        <time>2015-10-02T10:04:53Z</time>
      </trkpt>
      <trkpt lat="46.05539" lon="0.75575">
        <ele>172.9375</ele>
        <time>2015-10-02T10:05:02Z</time>
      </trkpt>
      <trkpt lat="46.05538" lon="0.75555">
        <ele>173.515625</ele>
        <time>2015-10-02T10:05:09Z</time>
      </trkpt>
      <trkpt lat="46.05538" lon="0.75532">
        <ele>174.33203125</ele>
        <time>2015-10-02T10:05:17Z</time>
      </trkpt>
      <trkpt lat="46.05534" lon="0.75509">
        <ele>175.3828125</ele>
        <time>2015-10-02T10:05:25Z</time>
      </trkpt>
      <trkpt lat="46.05534" lon="0.75506">
        <ele>175.44140625</ele>
        <time>2015-10-02T10:05:26Z</time>
      </trkpt>
      <trkpt lat="46.05534" lon="0.75503">
        <ele>175.51171875</ele>
        <time>2015-10-02T10:05:27Z</time>
      </trkpt>
      <trkpt lat="46.0553" lon="0.75478">
        <ele>176.328125</ele>
        <time>2015-10-02T10:05:35Z</time>
      </trkpt>
      <trkpt lat="46.05527" lon="0.75456">
        <ele>176.984375</ele>
        <time>2015-10-02T10:05:42Z</time>
      </trkpt>
      <trkpt lat="46.05527" lon="0.75441">
        <ele>177.7265625</ele>
        <time>2015-10-02T10:05:48Z</time>
      </trkpt>
      <trkpt lat="46.05523" lon="0.75419">
        <ele>179.328125</ele>
        <time>2015-10-02T10:05:56Z</time>
      </trkpt>
      <trkpt lat="46.05516" lon="0.75401">
        <ele>180.90625</ele>
        <time>2015-10-02T10:06:04Z</time>
      </trkpt>
      <trkpt lat="46.05515" lon="0.75392">
        <ele>181.3046875</ele>
        <time>2015-10-02T10:06:08Z</time>
      </trkpt>
      <trkpt lat="46.05514" lon="0.75376">
        <ele>182.13671875</ele>
        <time>2015-10-02T10:06:16Z</time>
      </trkpt>
      <trkpt lat="46.05512" lon="0.75362">
        <ele>182.86328125</ele>
        <time>2015-10-02T10:06:23Z</time>
      </trkpt>
      <trkpt lat="46.05511" lon="0.75344">
        <ele>183.78125</ele>
        <time>2015-10-02T10:06:31Z</time>
      </trkpt>
      <trkpt lat="46.05508" lon="0.75328">
        <ele>185.109375</ele>
        <time>2015-10-02T10:06:38Z</time>
      </trkpt>
      <trkpt lat="46.05505" lon="0.75311">
        <ele>186.4375</ele>
        <time>2015-10-02T10:06:43Z</time>
      </trkpt>
      <trkpt lat="46.05504" lon="0.75308">
        <ele>186.7265625</ele>
        <time>2015-10-02T10:06:44Z</time>
      </trkpt>
      <trkpt lat="46.05504" lon="0.75305">
        <ele>186.95703125</ele>
        <time>2015-10-02T10:06:45Z</time>
      </trkpt>
      <trkpt lat="46.05504" lon="0.75303">
        <ele>187.16796875</ele>
        <time>2015-10-02T10:06:46Z</time>
      </trkpt>
      <trkpt lat="46.05503" lon="0.753">
        <ele>187.38671875</ele>
        <time>2015-10-02T10:06:47Z</time>
      </trkpt>
      <trkpt lat="46.05503" lon="0.75297">
        <ele>187.6015625</ele>
        <time>2015-10-02T10:06:48Z</time>
      </trkpt>
      <trkpt lat="46.05496" lon="0.75282">
        <ele>189.359375</ele>
        <time>2015-10-02T10:06:57Z</time>
      </trkpt>
      <trkpt lat="46.0549" lon="0.75268">
        <ele>191.01953125</ele>
        <time>2015-10-02T10:07:06Z</time>
      </trkpt>
      <trkpt lat="46.05483" lon="0.75257">
        <ele>192.40234375</ele>
        <time>2015-10-02T10:07:14Z</time>
      </trkpt>
      <trkpt lat="46.05477" lon="0.75248">
        <ele>193.50390625</ele>
        <time>2015-10-02T10:07:21Z</time>
      </trkpt>
      <trkpt lat="46.05471" lon="0.75236">
        <ele>194.82421875</ele>
        <time>2015-10-02T10:07:29Z</time>
      </trkpt>
      <trkpt lat="46.0546" lon="0.75223">
        <ele>196.4140625</ele>
        <time>2015-10-02T10:07:37Z</time>
      </trkpt>
      <trkpt lat="46.05451" lon="0.75212">
        <ele>197.54296875</ele>
        <time>2015-10-02T10:07:44Z</time>
      </trkpt>
      <trkpt lat="46.05441" lon="0.75198">
        <ele>198.61328125</ele>
        <time>2015-10-02T10:07:52Z</time>
      </trkpt>
      <trkpt lat="46.05428" lon="0.75179">
        <ele>199.53125</ele>
        <time>2015-10-02T10:08:01Z</time>
      </trkpt>
      <trkpt lat="46.05416" lon="0.75161">
        <ele>200.55859375</ele>
        <time>2015-10-02T10:08:09Z</time>
      </trkpt>
      <trkpt lat="46.05399" lon="0.75138">
        <ele>201.16796875</ele>
        <time>2015-10-02T10:08:17Z</time>
      </trkpt>
      <trkpt lat="46.05379" lon="0.75114">
        <ele>201.37890625</ele>
        <time>2015-10-02T10:08:25Z</time>
      </trkpt>
      <trkpt lat="46.0537" lon="0.75113">
        <ele>201.1875</ele>
        <time>2015-10-02T10:08:31Z</time>
      </trkpt>
      <trkpt lat="46.05362" lon="0.75127">
        <ele>200.92578125</ele>
        <time>2015-10-02T10:08:34Z</time>
      </trkpt>
      <trkpt lat="46.05354" lon="0.75132">
        <ele>200.55078125</ele>
      </trkpt>
      <trkpt lat="46.05343" lon="0.75129">
        <ele>200.23046875</ele>
      </trkpt>
      <trkpt lat="46.05335" lon="0.75124">
        <ele>200.02734375</ele>
      </trkpt>
      <trkpt lat="46.0532" lon="0.75111">
        <ele>199.6640625</ele>
      </trkpt>
      <trkpt lat="46.05303" lon="0.7509">
        <ele>199.48046875</ele>
      </trkpt>
      <trkpt lat="46.05284" lon="0.75071">
        <ele>199.171875</ele>
      </trkpt>
      <trkpt lat="46.05273" lon="0.75066">
        <ele>198.828125</ele>
      </trkpt>
      <trkpt lat="46.05257" lon="0.7506">
        <ele>198.1953125</ele>
      </trkpt>
      <trkpt lat="46.05243" lon="0.75058">
        <ele>197.74609375</ele>
        <time>2015-10-02T10:17:38Z</time>
      </trkpt>
      <trkpt lat="46.05242" lon="0.7506">
        <ele>197.7578125</ele>
        <time>2015-10-02T10:17:39Z</time>
      </trkpt>
      <trkpt lat="46.0524" lon="0.75062">
        <ele>197.765625</ele>
        <time>2015-10-02T10:17:40Z</time>
      </trkpt>
      <trkpt lat="46.05223" lon="0.75077">
        <ele>197.515625</ele>
        <time>2015-10-02T10:17:48Z</time>
      </trkpt>
      <trkpt lat="46.05206" lon="0.75096">
        <ele>197.21875</ele>
        <time>2015-10-02T10:17:54Z</time>
      </trkpt>
      <trkpt lat="46.05201" lon="0.75104">
        <ele>197.1171875</ele>
        <time>2015-10-02T10:17:56Z</time>
      </trkpt>
      <trkpt lat="46.05198" lon="0.75109">
        <ele>197.0703125</ele>
        <time>2015-10-02T10:17:57Z</time>
      </trkpt>
      <trkpt lat="46.05188" lon="0.75131">
        <ele>196.41796875</ele>
        <time>2015-10-02T10:18:01Z</time>
      </trkpt>
      <trkpt lat="46.05173" lon="0.75185">
        <ele>194.4765625</ele>
        <time>2015-10-02T10:18:08Z</time>
      </trkpt>
      <trkpt lat="46.05171" lon="0.75195">
        <ele>194.26171875</ele>
        <time>2015-10-02T10:18:09Z</time>
      </trkpt>
      <trkpt lat="46.05154" lon="0.7526">
        <ele>192.1328125</ele>
        <time>2015-10-02T10:18:16Z</time>
      </trkpt>
      <trkpt lat="46.05128" lon="0.75344">
        <ele>188.97265625</ele>
        <time>2015-10-02T10:18:25Z</time>
      </trkpt>
      <trkpt lat="46.05094" lon="0.75414">
        <ele>186.1875</ele>
        <time>2015-10-02T10:18:33Z</time>
      </trkpt>
      <trkpt lat="46.05062" lon="0.75479">
        <ele>184.71484375</ele>
        <time>2015-10-02T10:18:41Z</time>
      </trkpt>
      <trkpt lat="46.05031" lon="0.75541">
        <ele>184.32421875</ele>
        <time>2015-10-02T10:18:50Z</time>
      </trkpt>
      <trkpt lat="46.05028" lon="0.75545">
        <ele>184.359375</ele>
        <time>2015-10-02T10:18:51Z</time>
      </trkpt>
      <trkpt lat="46.05024" lon="0.75546">
        <ele>184.390625</ele>
        <time>2015-10-02T10:18:52Z</time>
      </trkpt>
      <trkpt lat="46.0502" lon="0.75545">
        <ele>184.45703125</ele>
        <time>2015-10-02T10:18:53Z</time>
      </trkpt>
      <trkpt lat="46.05017" lon="0.75543">
        <ele>184.515625</ele>
        <time>2015-10-02T10:18:54Z</time>
      </trkpt>
      <trkpt lat="46.05013" lon="0.7554">
        <ele>184.59375</ele>
        <time>2015-10-02T10:18:55Z</time>
      </trkpt>
      <trkpt lat="46.0501" lon="0.75537">
        <ele>184.671875</ele>
        <time>2015-10-02T10:18:56Z</time>
      </trkpt>
      <trkpt lat="46.05006" lon="0.75533">
        <ele>184.7421875</ele>
        <time>2015-10-02T10:18:57Z</time>
      </trkpt>
      <trkpt lat="46.05002" lon="0.75529">
        <ele>184.8125</ele>
        <time>2015-10-02T10:18:58Z</time>
      </trkpt>
      <trkpt lat="46.04998" lon="0.75525">
        <ele>184.87109375</ele>
        <time>2015-10-02T10:18:59Z</time>
      </trkpt>
      <trkpt lat="46.04967" lon="0.75481">
        <ele>184.5390625</ele>
        <time>2015-10-02T10:19:07Z</time>
      </trkpt>
      <trkpt lat="46.04963" lon="0.75475">
        <ele>184.44140625</ele>
        <time>2015-10-02T10:19:08Z</time>
      </trkpt>
      <trkpt lat="46.0493" lon="0.75417">
        <ele>183.4921875</ele>
        <time>2015-10-02T10:19:17Z</time>
      </trkpt>
      <trkpt lat="46.049" lon="0.75363">
        <ele>181.53515625</ele>
        <time>2015-10-02T10:19:25Z</time>
      </trkpt>
      <trkpt lat="46.04873" lon="0.75312">
        <ele>179.08203125</ele>
        <time>2015-10-02T10:19:32Z</time>
      </trkpt>
      <trkpt lat="46.04835" lon="0.75235">
        <ele>177.58203125</ele>
        <time>2015-10-02T10:19:42Z</time>
      </trkpt>
      <trkpt lat="46.04807" lon="0.75177">
        <ele>175.13671875</ele>
        <time>2015-10-02T10:19:49Z</time>
      </trkpt>
      <trkpt lat="46.04805" lon="0.75167">
        <ele>175.43359375</ele>
        <time>2015-10-02T10:19:50Z</time>
      </trkpt>
      <trkpt lat="46.04803" lon="0.75157">
        <ele>175.87890625</ele>
        <time>2015-10-02T10:19:51Z</time>
      </trkpt>
      <trkpt lat="46.04803" lon="0.75146">
        <ele>176.3828125</ele>
        <time>2015-10-02T10:19:52Z</time>
      </trkpt>
      <trkpt lat="46.04803" lon="0.75135">
        <ele>176.98046875</ele>
        <time>2015-10-02T10:19:53Z</time>
      </trkpt>
      <trkpt lat="46.04804" lon="0.75124">
        <ele>177.6875</ele>
        <time>2015-10-02T10:19:54Z</time>
      </trkpt>
      <trkpt lat="46.04805" lon="0.75113">
        <ele>178.421875</ele>
        <time>2015-10-02T10:19:55Z</time>
      </trkpt>
      <trkpt lat="46.04805" lon="0.75102">
        <ele>178.94140625</ele>
        <time>2015-10-02T10:19:56Z</time>
      </trkpt>
      <trkpt lat="46.04803" lon="0.75093">
        <ele>179.13671875</ele>
        <time>2015-10-02T10:19:57Z</time>
      </trkpt>
      <trkpt lat="46.04799" lon="0.75084">
        <ele>178.95703125</ele>
        <time>2015-10-02T10:19:58Z</time>
      </trkpt>
      <trkpt lat="46.04793" lon="0.75077">
        <ele>178.44140625</ele>
        <time>2015-10-02T10:19:59Z</time>
      </trkpt>
      <trkpt lat="46.04786" lon="0.75073">
        <ele>177.60546875</ele>
        <time>2015-10-02T10:20:00Z</time>
      </trkpt>
      <trkpt lat="46.04779" lon="0.75071">
        <ele>176.5234375</ele>
        <time>2015-10-02T10:20:01Z</time>
      </trkpt>
      <trkpt lat="46.04772" lon="0.75073">
        <ele>175.390625</ele>
        <time>2015-10-02T10:20:02Z</time>
      </trkpt>
      <trkpt lat="46.04766" lon="0.75078">
        <ele>174.23828125</ele>
        <time>2015-10-02T10:20:03Z</time>
      </trkpt>
      <trkpt lat="46.04761" lon="0.75085">
        <ele>173.21875</ele>
        <time>2015-10-02T10:20:04Z</time>
      </trkpt>
      <trkpt lat="46.04757" lon="0.75094">
        <ele>172.453125</ele>
        <time>2015-10-02T10:20:05Z</time>
      </trkpt>
      <trkpt lat="46.04754" lon="0.75103">
        <ele>171.81640625</ele>
        <time>2015-10-02T10:20:06Z</time>
      </trkpt>
      <trkpt lat="46.04751" lon="0.75113">
        <ele>171.21875</ele>
        <time>2015-10-02T10:20:07Z</time>
      </trkpt>
      <trkpt lat="46.04747" lon="0.75122">
        <ele>170.7734375</ele>
        <time>2015-10-02T10:20:08Z</time>
      </trkpt>
      <trkpt lat="46.04743" lon="0.75131">
        <ele>170.53125</ele>
        <time>2015-10-02T10:20:09Z</time>
      </trkpt>
      <trkpt lat="46.04737" lon="0.75138">
        <ele>170.1328125</ele>
        <time>2015-10-02T10:20:10Z</time>
      </trkpt>
      <trkpt lat="46.0473" lon="0.75142">
        <ele>169.609375</ele>
        <time>2015-10-02T10:20:11Z</time>
      </trkpt>
      <trkpt lat="46.04723" lon="0.75143">
        <ele>168.98046875</ele>
        <time>2015-10-02T10:20:12Z</time>
      </trkpt>
      <trkpt lat="46.04715" lon="0.7514">
        <ele>168.24609375</ele>
        <time>2015-10-02T10:20:13Z</time>
      </trkpt>
      <trkpt lat="46.04709" lon="0.75134">
        <ele>167.53515625</ele>
        <time>2015-10-02T10:20:14Z</time>
      </trkpt>
      <trkpt lat="46.04704" lon="0.75124">
        <ele>166.91015625</ele>
        <time>2015-10-02T10:20:15Z</time>
      </trkpt>
      <trkpt lat="46.04702" lon="0.75112">
        <ele>166.65625</ele>
        <time>2015-10-02T10:20:16Z</time>
      </trkpt>
      <trkpt lat="46.04701" lon="0.751">
        <ele>166.609375</ele>
        <time>2015-10-02T10:20:17Z</time>
      </trkpt>
      <trkpt lat="46.04701" lon="0.75087">
        <ele>166.69921875</ele>
        <time>2015-10-02T10:20:18Z</time>
      </trkpt>
      <trkpt lat="46.04703" lon="0.75076">
        <ele>166.890625</ele>
        <time>2015-10-02T10:20:19Z</time>
      </trkpt>
      <trkpt lat="46.04705" lon="0.75064">
        <ele>167.0546875</ele>
        <time>2015-10-02T10:20:20Z</time>
      </trkpt>
      <trkpt lat="46.04721" lon="0.74968">
        <ele>161.22265625</ele>
        <time>2015-10-02T10:20:28Z</time>
      </trkpt>
      <trkpt lat="46.04727" lon="0.74946">
        <ele>159.421875</ele>
        <time>2015-10-02T10:20:30Z</time>
      </trkpt>
      <trkpt lat="46.04731" lon="0.74935">
        <ele>159.1796875</ele>
        <time>2015-10-02T10:20:31Z</time>
      </trkpt>
      <trkpt lat="46.04736" lon="0.74925">
        <ele>158.9140625</ele>
        <time>2015-10-02T10:20:32Z</time>
      </trkpt>
      <trkpt lat="46.04767" lon="0.74873">
        <ele>159.4453125</ele>
        <time>2015-10-02T10:20:38Z</time>
      </trkpt>
      <trkpt lat="46.04772" lon="0.74875">
        <ele>159.71484375</ele>
        <time>2017-07-21T10:52:45Z</time>
      </trkpt>
      <trkpt lat="46.04784" lon="0.74892">
        <ele>160.8515625</ele>
        <time>2017-07-21T10:52:48Z</time>
      </trkpt>
      <trkpt lat="46.04785" lon="0.74896">
        <ele>161.12890625</ele>
        <time>2017-07-21T10:52:49Z</time>
      </trkpt>
      <trkpt lat="46.04794" lon="0.749">
        <ele>162.08984375</ele>
        <time>2017-07-21T10:52:52Z</time>
      </trkpt>
      <trkpt lat="46.04807" lon="0.74894">
        <ele>163.23828125</ele>
        <time>2017-07-21T10:52:57Z</time>
      </trkpt>
      <trkpt lat="46.04817" lon="0.74881">
        <ele>165.4609375</ele>
        <time>2017-07-21T10:53:02Z</time>
      </trkpt>
      <trkpt lat="46.04822" lon="0.74858">
        <ele>165.140625</ele>
        <time>2017-07-21T10:53:08Z</time>
      </trkpt>
      <trkpt lat="46.04826" lon="0.74825">
        <ele>164.1328125</ele>
        <time>2017-07-21T10:53:16Z</time>
      </trkpt>
      <trkpt lat="46.04829" lon="0.74798">
        <ele>163.07421875</ele>
        <time>2017-07-21T10:53:22Z</time>
      </trkpt>
      <trkpt lat="46.0483" lon="0.74768">
        <ele>161.65234375</ele>
        <time>2017-07-21T10:53:28Z</time>
      </trkpt>
      <trkpt lat="46.04831" lon="0.74738">
        <ele>160.5625</ele>
        <time>2017-07-21T10:53:34Z</time>
      </trkpt>
      <trkpt lat="46.0483" lon="0.74706">
        <ele>159.54296875</ele>
        <time>2017-07-21T10:53:40Z</time>
      </trkpt>
      <trkpt lat="46.04826" lon="0.74685">
        <ele>158.91015625</ele>
        <time>2017-07-21T10:53:44Z</time>
      </trkpt>
      <trkpt lat="46.04829" lon="0.74648">
        <ele>158.921875</ele>
        <time>2017-07-21T10:53:51Z</time>
      </trkpt>
      <trkpt lat="46.04835" lon="0.74616">
        <ele>159.03515625</ele>
        <time>2017-07-21T10:53:57Z</time>
      </trkpt>
      <trkpt lat="46.04843" lon="0.74573">
        <ele>158.69921875</ele>
        <time>2017-07-21T10:54:04Z</time>
      </trkpt>
      <trkpt lat="46.04849" lon="0.74543">
        <ele>158.0859375</ele>
        <time>2017-07-21T10:54:09Z</time>
      </trkpt>
      <trkpt lat="46.04853" lon="0.74523">
        <ele>157.42578125</ele>
        <time>2017-07-21T10:54:13Z</time>
      </trkpt>
      <trkpt lat="46.04857" lon="0.74504">
        <ele>157</ele>
        <time>2017-07-21T10:54:16Z</time>
      </trkpt>
      <trkpt lat="46.04861" lon="0.74477">
        <ele>157.80078125</ele>
        <time>2017-07-21T10:54:20Z</time>
      </trkpt>
      <trkpt lat="46.04869" lon="0.7444">
        <ele>159.4765625</ele>
        <time>2017-07-21T10:54:26Z</time>
      </trkpt>
      <trkpt lat="46.04879" lon="0.74419">
        <ele>160.046875</ele>
        <time>2017-07-21T10:54:31Z</time>
      </trkpt>
      <trkpt lat="46.04886" lon="0.74408">
        <ele>160.20703125</ele>
        <time>2017-07-21T10:54:36Z</time>
      </trkpt>
      <trkpt lat="46.04891" lon="0.74408">
        <ele>159.97265625</ele>
        <time>2017-07-21T10:54:40Z</time>
      </trkpt>
      <trkpt lat="46.04897" lon="0.74407">
        <ele>159.74609375</ele>
        <time>2017-07-21T10:54:47Z</time>
      </trkpt>
      <trkpt lat="46.049" lon="0.74409">
        <ele>159.50390625</ele>
        <time>2017-07-21T10:54:56Z</time>
      </trkpt>
      <trkpt lat="46.04909" lon="0.74412">
        <ele>158.91015625</ele>
        <time>2017-07-21T10:55:02Z</time>
      </trkpt>
      <trkpt lat="46.04924" lon="0.74417">
        <ele>158.8984375</ele>
        <time>2017-07-21T10:55:08Z</time>
      </trkpt>
      <trkpt lat="46.0494" lon="0.7442">
        <ele>159.9765625</ele>
        <time>2017-07-21T10:55:12Z</time>
      </trkpt>
      <trkpt lat="46.04957" lon="0.74425">
        <ele>161.2421875</ele>
        <time>2017-07-21T10:55:16Z</time>
      </trkpt>
      <trkpt lat="46.04977" lon="0.74414">
        <ele>164.1796875</ele>
        <time>2017-07-21T10:55:21Z</time>
      </trkpt>
      <trkpt lat="46.0498" lon="0.74403">
        <ele>164.8671875</ele>
        <time>2017-07-21T10:55:23Z</time>
      </trkpt>
      <trkpt lat="46.04986" lon="0.74363">
        <ele>169.33203125</ele>
        <time>2017-07-21T10:55:31Z</time>
      </trkpt>
      <trkpt lat="46.04976" lon="0.74336">
        <ele>168.45703125</ele>
        <time>2017-07-21T10:55:37Z</time>
      </trkpt>
      <trkpt lat="46.04974" lon="0.74332">
        <ele>168.31640625</ele>
        <time>2017-07-21T10:55:38Z</time>
      </trkpt>
      <trkpt lat="46.04951" lon="0.74316">
        <ele>166.1328125</ele>
        <time>2017-07-21T10:55:45Z</time>
      </trkpt>
      <trkpt lat="46.04934" lon="0.743">
        <ele>164.078125</ele>
        <time>2017-07-21T10:55:51Z</time>
      </trkpt>
      <trkpt lat="46.04917" lon="0.74279">
        <ele>161.734375</ele>
        <time>2017-07-21T10:55:58Z</time>
      </trkpt>
      <trkpt lat="46.04896" lon="0.74255">
        <ele>160.80859375</ele>
        <time>2017-07-21T10:56:05Z</time>
      </trkpt>
      <trkpt lat="46.04874" lon="0.74237">
        <ele>158.15625</ele>
        <time>2017-07-21T10:56:12Z</time>
      </trkpt>
      <trkpt lat="46.04843" lon="0.74236">
        <ele>156.4375</ele>
        <time>2017-07-21T10:56:20Z</time>
      </trkpt>
      <trkpt lat="46.04826" lon="0.74226">
        <ele>156.6953125</ele>
        <time>2017-07-21T10:56:26Z</time>
      </trkpt>
      <trkpt lat="46.04809" lon="0.74205">
        <ele>156.5703125</ele>
        <time>2017-07-21T10:56:32Z</time>
      </trkpt>
      <trkpt lat="46.04793" lon="0.7418">
        <ele>156.55078125</ele>
        <time>2017-07-21T10:56:38Z</time>
      </trkpt>
      <trkpt lat="46.04776" lon="0.74164">
        <ele>157.04296875</ele>
        <time>2017-07-21T10:56:43Z</time>
      </trkpt>
      <trkpt lat="46.0476" lon="0.74149">
        <ele>156.9921875</ele>
        <time>2017-07-21T10:56:49Z</time>
      </trkpt>
      <trkpt lat="46.04744" lon="0.74128">
        <ele>156.9453125</ele>
        <time>2017-07-21T10:56:56Z</time>
      </trkpt>
      <trkpt lat="46.04738" lon="0.74116">
        <ele>157.18359375</ele>
        <time>2017-07-21T10:56:59Z</time>
      </trkpt>
      <trkpt lat="46.04734" lon="0.74104">
        <ele>157.36328125</ele>
        <time>2017-07-21T10:57:01Z</time>
      </trkpt>
      <trkpt lat="46.04728" lon="0.74091">
        <ele>157.53125</ele>
        <time>2017-07-21T10:57:03Z</time>
      </trkpt>
      <trkpt lat="46.04712" lon="0.74061">
        <ele>157.20703125</ele>
        <time>2017-07-21T10:57:08Z</time>
      </trkpt>
      <trkpt lat="46.04703" lon="0.74042">
        <ele>156.67578125</ele>
        <time>2017-07-21T10:57:11Z</time>
      </trkpt>
      <trkpt lat="46.04698" lon="0.74018">
        <ele>155.48828125</ele>
        <time>2017-07-21T10:57:16Z</time>
      </trkpt>
      <trkpt lat="46.04696" lon="0.74001">
        <ele>155.390625</ele>
        <time>2017-07-21T10:57:20Z</time>
      </trkpt>
      <trkpt lat="46.04693" lon="0.7397">
        <ele>156.671875</ele>
        <time>2017-07-21T10:57:26Z</time>
      </trkpt>
      <trkpt lat="46.04689" lon="0.73948">
        <ele>157.99609375</ele>
        <time>2017-07-21T10:57:32Z</time>
      </trkpt>
      <trkpt lat="46.04689" lon="0.73945">
        <ele>158.125</ele>
        <time>2017-07-21T10:57:33Z</time>
      </trkpt>
      <trkpt lat="46.04689" lon="0.73935">
        <ele>158.48046875</ele>
        <time>2017-07-21T10:58:21Z</time>
      </trkpt>
      <trkpt lat="46.0469" lon="0.73932">
        <ele>158.5390625</ele>
        <time>2017-07-21T10:58:53Z</time>
      </trkpt>
      <trkpt lat="46.04691" lon="0.73929">
        <ele>158.38671875</ele>
        <time>2017-07-21T10:58:55Z</time>
      </trkpt>
      <trkpt lat="46.047" lon="0.73916">
        <ele>158.22265625</ele>
        <time>2017-07-21T10:59:02Z</time>
      </trkpt>
      <trkpt lat="46.04703" lon="0.7391">
        <ele>158.265625</ele>
        <time>2017-07-21T10:59:05Z</time>
      </trkpt>
      <trkpt lat="46.04714" lon="0.73893">
        <ele>157.99609375</ele>
        <time>2017-07-21T10:59:09Z</time>
      </trkpt>
      <trkpt lat="46.04733" lon="0.7384">
        <ele>157.20703125</ele>
        <time>2017-07-21T10:59:15Z</time>
      </trkpt>
      <trkpt lat="46.04739" lon="0.73789">
        <ele>156.59375</ele>
        <time>2017-07-21T10:59:21Z</time>
      </trkpt>
      <trkpt lat="46.04742" lon="0.73761">
        <ele>156.4453125</ele>
        <time>2017-07-21T10:59:25Z</time>
      </trkpt>
      <trkpt lat="46.04744" lon="0.73723">
        <ele>156.4765625</ele>
        <time>2017-07-21T10:59:32Z</time>
      </trkpt>
      <trkpt lat="46.04746" lon="0.73715">
        <ele>156.5</ele>
        <time>2017-07-21T10:59:34Z</time>
      </trkpt>
      <trkpt lat="46.04751" lon="0.73694">
        <ele>156.95703125</ele>
        <time>2017-07-21T10:59:37Z</time>
      </trkpt>
      <trkpt lat="46.04754" lon="0.73671">
        <ele>158.046875</ele>
        <time>2017-07-21T10:59:42Z</time>
      </trkpt>
      <trkpt lat="46.04754" lon="0.73665">
        <ele>158.4453125</ele>
        <time>2017-07-21T10:59:58Z</time>
      </trkpt>
      <trkpt lat="46.04755" lon="0.73655">
        <ele>158.84375</ele>
        <time>2017-07-21T11:00:10Z</time>
      </trkpt>
      <trkpt lat="46.04756" lon="0.73632">
        <ele>160.078125</ele>
        <time>2017-07-21T11:00:17Z</time>
      </trkpt>
      <trkpt lat="46.04754" lon="0.73612">
        <ele>160.50390625</ele>
        <time>2017-07-21T11:00:24Z</time>
      </trkpt>
      <trkpt lat="46.04749" lon="0.73586">
        <ele>160.88671875</ele>
        <time>2017-07-21T11:00:32Z</time>
      </trkpt>
      <trkpt lat="46.04748" lon="0.73578">
        <ele>161.171875</ele>
        <time>2017-07-21T11:00:34Z</time>
      </trkpt>
      <trkpt lat="46.04741" lon="0.73552">
        <ele>161.23828125</ele>
        <time>2017-07-21T11:00:42Z</time>
      </trkpt>
      <trkpt lat="46.04735" lon="0.7353">
        <ele>160.68359375</ele>
        <time>2017-07-21T11:00:50Z</time>
      </trkpt>
      <trkpt lat="46.04731" lon="0.73505">
        <ele>160.09375</ele>
        <time>2017-07-21T11:00:58Z</time>
      </trkpt>
      <trkpt lat="46.04727" lon="0.73482">
        <ele>158.859375</ele>
        <time>2017-07-21T11:01:05Z</time>
      </trkpt>
      <trkpt lat="46.04726" lon="0.73462">
        <ele>158.15625</ele>
        <time>2017-07-21T11:01:12Z</time>
      </trkpt>
      <trkpt lat="46.04725" lon="0.7345">
        <ele>157.734375</ele>
        <time>2017-07-21T11:01:16Z</time>
      </trkpt>
      <trkpt lat="46.04721" lon="0.73429">
        <ele>157.21875</ele>
        <time>2017-07-21T11:01:22Z</time>
      </trkpt>
      <trkpt lat="46.04715" lon="0.73412">
        <ele>156.91015625</ele>
        <time>2017-07-21T11:01:27Z</time>
      </trkpt>
      <trkpt lat="46.04716" lon="0.73394">
        <ele>157.4140625</ele>
        <time>2017-07-21T11:01:32Z</time>
      </trkpt>
      <trkpt lat="46.04715" lon="0.73386">
        <ele>157.9453125</ele>
        <time>2017-07-21T11:01:39Z</time>
      </trkpt>
      <trkpt lat="46.04713" lon="0.73378">
        <ele>158.51953125</ele>
        <time>2017-07-21T11:01:55Z</time>
      </trkpt>
      <trkpt lat="46.04716" lon="0.73367">
        <ele>159.14453125</ele>
        <time>2017-07-21T11:02:01Z</time>
      </trkpt>
      <trkpt lat="46.04722" lon="0.73354">
        <ele>159.54296875</ele>
        <time>2017-07-21T11:02:07Z</time>
      </trkpt>
      <trkpt lat="46.04733" lon="0.73334">
        <ele>159.6484375</ele>
        <time>2017-07-21T11:02:15Z</time>
      </trkpt>
      <trkpt lat="46.0475" lon="0.73317">
        <ele>158.9296875</ele>
        <time>2017-07-21T11:02:22Z</time>
      </trkpt>
      <trkpt lat="46.04769" lon="0.73302">
        <ele>158.6171875</ele>
        <time>2017-07-21T11:02:30Z</time>
      </trkpt>
      <trkpt lat="46.04779" lon="0.73294">
        <ele>157.91796875</ele>
        <time>2017-07-21T11:02:34Z</time>
      </trkpt>
      <trkpt lat="46.04789" lon="0.73276">
        <ele>156.73828125</ele>
        <time>2017-07-21T11:02:40Z</time>
      </trkpt>
      <trkpt lat="46.04794" lon="0.73269">
        <ele>156.0625</ele>
        <time>2017-07-21T11:02:42Z</time>
      </trkpt>
      <trkpt lat="46.04798" lon="0.73257">
        <ele>155.5390625</ele>
        <time>2017-07-21T11:02:49Z</time>
      </trkpt>
      <trkpt lat="46.04799" lon="0.73247">
        <ele>155.19140625</ele>
        <time>2017-07-21T11:02:54Z</time>
      </trkpt>
      <trkpt lat="46.04793" lon="0.73234">
        <ele>155.96484375</ele>
        <time>2017-07-21T11:03:04Z</time>
      </trkpt>
      <trkpt lat="46.0479" lon="0.73224">
        <ele>156.4453125</ele>
        <time>2017-07-21T11:03:12Z</time>
      </trkpt>
      <trkpt lat="46.04785" lon="0.73218">
        <ele>157.0703125</ele>
        <time>2017-07-21T11:03:20Z</time>
      </trkpt>
      <trkpt lat="46.04799" lon="0.73205">
        <ele>154.86328125</ele>
        <time>2017-07-21T11:03:28Z</time>
      </trkpt>
      <trkpt lat="46.04813" lon="0.73199">
        <ele>153.84375</ele>
        <time>2017-07-21T11:03:31Z</time>
      </trkpt>
      <trkpt lat="46.04821" lon="0.73191">
        <ele>153.55859375</ele>
      </trkpt>
      <trkpt lat="46.04829" lon="0.73185">
        <ele>153.26953125</ele>
      </trkpt>
      <trkpt lat="46.04834" lon="0.73172">
        <ele>153.109375</ele>
      </trkpt>
      <trkpt lat="46.04837" lon="0.73167">
        <ele>153.125</ele>
      </trkpt>
      <trkpt lat="46.04828" lon="0.73146">
        <ele>154.09375</ele>
      </trkpt>
      <trkpt lat="46.04828" lon="0.73129">
        <ele>154.6015625</ele>
      </trkpt>
      <trkpt lat="46.04832" lon="0.73117">
        <ele>154.9140625</ele>
      </trkpt>
      <trkpt lat="46.04836" lon="0.73113">
        <ele>154.97265625</ele>
      </trkpt>
      <trkpt lat="46.04843" lon="0.73103">
        <ele>155.453125</ele>
      </trkpt>
      <trkpt lat="46.04848" lon="0.73103">
        <ele>155.265625</ele>
      </trkpt>
      <trkpt lat="46.0486" lon="0.73126">
        <ele>152.98046875</ele>
      </trkpt>
      <trkpt lat="46.04874" lon="0.73146">
        <ele>152.5078125</ele>
      </trkpt>
      <trkpt lat="46.0489" lon="0.73171">
        <ele>152.9140625</ele>
      </trkpt>
      <trkpt lat="46.04899" lon="0.73156">
        <ele>152.68359375</ele>
      </trkpt>
      <trkpt lat="46.04908" lon="0.73137">
        <ele>151.9296875</ele>
      </trkpt>
      <trkpt lat="46.04919" lon="0.73125">
        <ele>151.359375</ele>
      </trkpt>
      <trkpt lat="46.04933" lon="0.73109">
        <ele>153.0390625</ele>
      </trkpt>
      <trkpt lat="46.04945" lon="0.73087">
        <ele>153.703125</ele>
      </trkpt>
      <trkpt lat="46.04956" lon="0.73074">
        <ele>153.53515625</ele>
      </trkpt>
      <trkpt lat="46.04972" lon="0.73043">
        <ele>153.01171875</ele>
      </trkpt>
      <trkpt lat="46.04991" lon="0.73012">
        <ele>153.68359375</ele>
      </trkpt>
      <trkpt lat="46.05009" lon="0.72986">
        <ele>154.79296875</ele>
      </trkpt>
      <trkpt lat="46.05028" lon="0.72955">
        <ele>154.02734375</ele>
      </trkpt>
      <trkpt lat="46.05046" lon="0.72925">
        <ele>156.30078125</ele>
      </trkpt>
      <trkpt lat="46.05061" lon="0.7291">
        <ele>157.5078125</ele>
      </trkpt>
      <trkpt lat="46.05077" lon="0.72899">
        <ele>158.5390625</ele>
      </trkpt>
      <trkpt lat="46.05081" lon="0.72898">
        <ele>158.7421875</ele>
      </trkpt>
      <trkpt lat="46.05091" lon="0.72885">
        <ele>159.78515625</ele>
      </trkpt>
      <trkpt lat="46.05099" lon="0.72871">
        <ele>160.35546875</ele>
      </trkpt>
      <trkpt lat="46.05103" lon="0.72855">
        <ele>160.26171875</ele>
      </trkpt>
      <trkpt lat="46.05104" lon="0.72843">
        <ele>160.01171875</ele>
      </trkpt>
      <trkpt lat="46.05103" lon="0.72824">
        <ele>160.14453125</ele>
      </trkpt>
      <trkpt lat="46.05097" lon="0.72802">
        <ele>159.5546875</ele>
      </trkpt>
      <trkpt lat="46.05095" lon="0.72795">
        <ele>159.4140625</ele>
      </trkpt>
      <trkpt lat="46.05088" lon="0.72786">
        <ele>158.51171875</ele>
      </trkpt>
      <trkpt lat="46.05083" lon="0.7276">
        <ele>156.9453125</ele>
      </trkpt>
      <trkpt lat="46.05081" lon="0.72737">
        <ele>156.1171875</ele>
      </trkpt>
      <trkpt lat="46.0508" lon="0.72723">
        <ele>155.45703125</ele>
      </trkpt>
      <trkpt lat="46.05084" lon="0.72714">
        <ele>154.97265625</ele>
      </trkpt>
      <trkpt lat="46.05081" lon="0.72702">
        <ele>154.37109375</ele>
      </trkpt>
      <trkpt lat="46.05079" lon="0.72683">
        <ele>153.5546875</ele>
      </trkpt>
      <trkpt lat="46.05076" lon="0.72661">
        <ele>153.40625</ele>
      </trkpt>
      <trkpt lat="46.05089" lon="0.72634">
        <ele>152.25</ele>
      </trkpt>
      <trkpt lat="46.05108" lon="0.7261">
        <ele>152</ele>
      </trkpt>
      <trkpt lat="46.05116" lon="0.726">
        <ele>152</ele>
      </trkpt>
      <trkpt lat="46.0513" lon="0.72591">
        <ele>152</ele>
      </trkpt>
      <trkpt lat="46.05141" lon="0.72582">
        <ele>152.0703125</ele>
      </trkpt>
      <trkpt lat="46.05145" lon="0.72577">
        <ele>152.1953125</ele>
      </trkpt>
      <trkpt lat="46.05151" lon="0.72557">
        <ele>152.61328125</ele>
      </trkpt>
      <trkpt lat="46.05152" lon="0.72551">
        <ele>152.77734375</ele>
      </trkpt>
      <trkpt lat="46.05157" lon="0.72531">
        <ele>153.53125</ele>
      </trkpt>
      <trkpt lat="46.0516" lon="0.72523">
        <ele>154.015625</ele>
      </trkpt>
      <trkpt lat="46.05161" lon="0.72485">
        <ele>155.76171875</ele>
      </trkpt>
      <trkpt lat="46.05165" lon="0.72454">
        <ele>157.84765625</ele>
      </trkpt>
      <trkpt lat="46.05163" lon="0.7243">
        <ele>158.84375</ele>
      </trkpt>
      <trkpt lat="46.05159" lon="0.72426">
        <ele>158.3203125</ele>
      </trkpt>
      <trkpt lat="46.05152" lon="0.72429">
        <ele>157.1015625</ele>
      </trkpt>
      <trkpt lat="46.05142" lon="0.72423">
        <ele>155.7578125</ele>
      </trkpt>
      <trkpt lat="46.05131" lon="0.72419">
        <ele>154.75</ele>
      </trkpt>
      <trkpt lat="46.05127" lon="0.72405">
        <ele>154.86328125</ele>
      </trkpt>
      <trkpt lat="46.05124" lon="0.7239">
        <ele>154.91015625</ele>
      </trkpt>
      <trkpt lat="46.05118" lon="0.72361">
        <ele>155.0859375</ele>
      </trkpt>
      <trkpt lat="46.05112" lon="0.72336">
        <ele>154.640625</ele>
      </trkpt>
      <trkpt lat="46.05101" lon="0.72312">
        <ele>153.21484375</ele>
      </trkpt>
      <trkpt lat="46.05096" lon="0.72297">
        <ele>152.671875</ele>
      </trkpt>
      <trkpt lat="46.05097" lon="0.72285">
        <ele>152.74609375</ele>
      </trkpt>
      <trkpt lat="46.05088" lon="0.72239">
        <ele>150.83203125</ele>
      </trkpt>
      <trkpt lat="46.05087" lon="0.72214">
        <ele>150.17578125</ele>
      </trkpt>
      <trkpt lat="46.05092" lon="0.72179">
        <ele>150.10546875</ele>
      </trkpt>
      <trkpt lat="46.05089" lon="0.72153">
        <ele>150.54296875</ele>
      </trkpt>
      <trkpt lat="46.05091" lon="0.72088">
        <ele>152.22265625</ele>
      </trkpt>
      <trkpt lat="46.05098" lon="0.72024">
        <ele>153.43359375</ele>
      </trkpt>
      <trkpt lat="46.05101" lon="0.71995">
        <ele>153.75390625</ele>
      </trkpt>
      <trkpt lat="46.05102" lon="0.71969">
        <ele>153.92578125</ele>
      </trkpt>
      <trkpt lat="46.05105" lon="0.71934">
        <ele>154.08203125</ele>
      </trkpt>
      <trkpt lat="46.05111" lon="0.71873">
        <ele>153.26171875</ele>
      </trkpt>
      <trkpt lat="46.05115" lon="0.71829">
        <ele>151.94140625</ele>
      </trkpt>
      <trkpt lat="46.05124" lon="0.71769">
        <ele>150.7265625</ele>
      </trkpt>
      <trkpt lat="46.05126" lon="0.71711">
        <ele>150.328125</ele>
      </trkpt>
      <trkpt lat="46.05133" lon="0.71682">
        <ele>149.00390625</ele>
      </trkpt>
      <trkpt lat="46.05141" lon="0.71651">
        <ele>147.9296875</ele>
      </trkpt>
      <trkpt lat="46.05146" lon="0.71622">
        <ele>148.1796875</ele>
      </trkpt>
      <trkpt lat="46.05147" lon="0.71602">
        <ele>148.26171875</ele>
      </trkpt>
      <trkpt lat="46.05149" lon="0.7158">
        <ele>148.58203125</ele>
      </trkpt>
      <trkpt lat="46.05142" lon="0.7155">
        <ele>147.3671875</ele>
      </trkpt>
      <trkpt lat="46.05128" lon="0.71528">
        <ele>147.37109375</ele>
      </trkpt>
      <trkpt lat="46.05122" lon="0.71511">
        <ele>147.4609375</ele>
      </trkpt>
      <trkpt lat="46.05108" lon="0.71467">
        <ele>148.18359375</ele>
      </trkpt>
      <trkpt lat="46.05099" lon="0.71436">
        <ele>148.265625</ele>
      </trkpt>
      <trkpt lat="46.05093" lon="0.71399">
        <ele>149.01953125</ele>
      </trkpt>
      <trkpt lat="46.05079" lon="0.71356">
        <ele>149.43359375</ele>
      </trkpt>
      <trkpt lat="46.05043" lon="0.71297">
        <ele>145.92578125</ele>
      </trkpt>
      <trkpt lat="46.05009" lon="0.71253">
        <ele>142.296875</ele>
      </trkpt>
      <trkpt lat="46.04966" lon="0.71199">
        <ele>137.99609375</ele>
      </trkpt>
      <trkpt lat="46.04922" lon="0.7116">
        <ele>135.7578125</ele>
      </trkpt>
      <trkpt lat="46.04861" lon="0.71102">
        <ele>135.01171875</ele>
      </trkpt>
      <trkpt lat="46.0481" lon="0.71027">
        <ele>135.06640625</ele>
      </trkpt>
      <trkpt lat="46.04765" lon="0.70958">
        <ele>134.53515625</ele>
      </trkpt>
      <trkpt lat="46.04759" lon="0.70946">
        <ele>134.32421875</ele>
      </trkpt>
      <trkpt lat="46.0474" lon="0.70957">
        <ele>134.359375</ele>
      </trkpt>
      <trkpt lat="46.04734" lon="0.70959">
        <ele>134.59375</ele>
      </trkpt>
      <trkpt lat="46.04716" lon="0.7093">
        <ele>134.9375</ele>
      </trkpt>
      <trkpt lat="46.04697" lon="0.70911">
        <ele>135.12109375</ele>
      </trkpt>
      <trkpt lat="46.04689" lon="0.7091">
        <ele>135.84375</ele>
      </trkpt>
      <trkpt lat="46.04668" lon="0.70924">
        <ele>138.8203125</ele>
      </trkpt>
      <trkpt lat="46.04638" lon="0.7094">
        <ele>142.453125</ele>
      </trkpt>
      <trkpt lat="46.04619" lon="0.70946">
        <ele>144.84375</ele>
      </trkpt>
      <trkpt lat="46.04599" lon="0.70923">
        <ele>148.51953125</ele>
      </trkpt>
      <trkpt lat="46.04582" lon="0.70889">
        <ele>152.38671875</ele>
      </trkpt>
      <trkpt lat="46.04569" lon="0.70867">
        <ele>154.20703125</ele>
      </trkpt>
      <trkpt lat="46.04559" lon="0.70856">
        <ele>155.421875</ele>
      </trkpt>
      <trkpt lat="46.04551" lon="0.70864">
        <ele>156.16015625</ele>
      </trkpt>
      <trkpt lat="46.04535" lon="0.70902">
        <ele>157.18359375</ele>
      </trkpt>
      <trkpt lat="46.04513" lon="0.70928">
        <ele>156.90625</ele>
      </trkpt>
      <trkpt lat="46.04482" lon="0.70943">
        <ele>157.45703125</ele>
      </trkpt>
      <trkpt lat="46.04439" lon="0.70957">
        <ele>157.578125</ele>
      </trkpt>
      <trkpt lat="46.04409" lon="0.70966">
        <ele>157.01953125</ele>
      </trkpt>
      <trkpt lat="46.0438" lon="0.70973">
        <ele>155.84375</ele>
      </trkpt>
      <trkpt lat="46.04346" lon="0.70968">
        <ele>154.98046875</ele>
      </trkpt>
      <trkpt lat="46.04316" lon="0.70957">
        <ele>153.69140625</ele>
      </trkpt>
      <trkpt lat="46.04292" lon="0.7095">
        <ele>153.1953125</ele>
      </trkpt>
      <trkpt lat="46.04272" lon="0.70938">
        <ele>153.328125</ele>
      </trkpt>
      <trkpt lat="46.04259" lon="0.7093">
        <ele>153.30078125</ele>
        <time>2017-07-21T11:11:57Z</time>
      </trkpt>
      <trkpt lat="46.04253" lon="0.70923">
        <ele>153.34375</ele>
        <time>2015-10-02T11:20:22Z</time>
      </trkpt>
      <trkpt lat="46.04238" lon="0.70886">
        <ele>155.078125</ele>
        <time>2015-10-02T11:20:30Z</time>
      </trkpt>
      <trkpt lat="46.04224" lon="0.70842">
        <ele>156.703125</ele>
        <time>2015-10-02T11:20:39Z</time>
      </trkpt>
      <trkpt lat="46.04226" lon="0.7081">
        <ele>158.2265625</ele>
        <time>2015-10-02T11:20:46Z</time>
      </trkpt>
      <trkpt lat="46.04239" lon="0.70786">
        <ele>159.8046875</ele>
        <time>2015-10-02T11:20:53Z</time>
      </trkpt>
      <trkpt lat="46.04252" lon="0.70758">
        <ele>161.7578125</ele>
        <time>2015-10-02T11:21:01Z</time>
      </trkpt>
      <trkpt lat="46.04267" lon="0.70717">
        <ele>163.31640625</ele>
        <time>2015-10-02T11:21:12Z</time>
      </trkpt>
      <trkpt lat="46.04279" lon="0.70684">
        <ele>163.921875</ele>
        <time>2015-10-02T11:21:21Z</time>
      </trkpt>
      <trkpt lat="46.04294" lon="0.70641">
        <ele>163.60546875</ele>
        <time>2015-10-02T11:21:32Z</time>
      </trkpt>
      <trkpt lat="46.04304" lon="0.70602">
        <ele>162.66015625</ele>
        <time>2015-10-02T11:21:41Z</time>
      </trkpt>
      <trkpt lat="46.04306" lon="0.70591">
        <ele>162.39453125</ele>
        <time>2015-10-02T11:21:43Z</time>
      </trkpt>
      <trkpt lat="46.04308" lon="0.70578">
        <ele>162.12890625</ele>
        <time>2015-10-02T11:21:45Z</time>
      </trkpt>
      <trkpt lat="46.04308" lon="0.70573">
        <ele>162.0078125</ele>
        <time>2015-10-02T11:21:46Z</time>
      </trkpt>
      <trkpt lat="46.04307" lon="0.70541">
        <ele>161.43359375</ele>
        <time>2015-10-02T11:21:51Z</time>
      </trkpt>
      <trkpt lat="46.04307" lon="0.70521">
        <ele>161.1015625</ele>
        <time>2015-10-02T11:21:54Z</time>
      </trkpt>
      <trkpt lat="46.04305" lon="0.70459">
        <ele>158.16015625</ele>
        <time>2015-10-02T11:22:03Z</time>
      </trkpt>
      <trkpt lat="46.04305" lon="0.70452">
        <ele>157.671875</ele>
        <time>2015-10-02T11:22:04Z</time>
      </trkpt>
      <trkpt lat="46.04306" lon="0.70411">
        <ele>154.671875</ele>
        <time>2015-10-02T11:22:09Z</time>
      </trkpt>
      <trkpt lat="46.04305" lon="0.70402">
        <ele>154.0546875</ele>
        <time>2015-10-02T11:22:10Z</time>
      </trkpt>
      <trkpt lat="46.04305" lon="0.70393">
        <ele>153.40625</ele>
        <time>2015-10-02T11:22:11Z</time>
      </trkpt>
      <trkpt lat="46.04305" lon="0.70363">
        <ele>151.22265625</ele>
        <time>2015-10-02T11:22:14Z</time>
      </trkpt>
      <trkpt lat="46.04309" lon="0.70326">
        <ele>149.609375</ele>
        <time>2015-10-02T11:22:17Z</time>
      </trkpt>
      <trkpt lat="46.04316" lon="0.70284">
        <ele>149.63671875</ele>
        <time>2015-10-02T11:22:20Z</time>
      </trkpt>
      <trkpt lat="46.04322" lon="0.70254">
        <ele>151.30078125</ele>
        <time>2015-10-02T11:22:22Z</time>
      </trkpt>
      <trkpt lat="46.04327" lon="0.70241">
        <ele>152.2578125</ele>
        <time>2015-10-02T11:22:23Z</time>
      </trkpt>
      <trkpt lat="46.04346" lon="0.70197">
        <ele>155.5859375</ele>
        <time>2015-10-02T11:22:27Z</time>
      </trkpt>
      <trkpt lat="46.04349" lon="0.70189">
        <ele>156.2734375</ele>
        <time>2015-10-02T11:22:28Z</time>
      </trkpt>
      <trkpt lat="46.0436" lon="0.70165">
        <ele>158.39453125</ele>
        <time>2015-10-02T11:22:32Z</time>
      </trkpt>
      <trkpt lat="46.04362" lon="0.7016">
        <ele>158.78125</ele>
        <time>2015-10-02T11:22:33Z</time>
      </trkpt>
      <trkpt lat="46.04369" lon="0.70145">
        <ele>159.92578125</ele>
        <time>2015-10-02T11:22:37Z</time>
      </trkpt>
      <trkpt lat="46.04379" lon="0.70111">
        <ele>162.01171875</ele>
        <time>2015-10-02T11:22:46Z</time>
      </trkpt>
      <trkpt lat="46.04387" lon="0.70078">
        <ele>163.58203125</ele>
        <time>2015-10-02T11:22:55Z</time>
      </trkpt>
      <trkpt lat="46.04397" lon="0.7004">
        <ele>165.59375</ele>
        <time>2015-10-02T11:23:06Z</time>
      </trkpt>
      <trkpt lat="46.04407" lon="0.7001">
        <ele>167.41015625</ele>
        <time>2015-10-02T11:23:16Z</time>
      </trkpt>
      <trkpt lat="46.04418" lon="0.69978">
        <ele>169.30859375</ele>
        <time>2015-10-02T11:23:26Z</time>
      </trkpt>
      <trkpt lat="46.04428" lon="0.69947">
        <ele>171.16796875</ele>
        <time>2015-10-02T11:23:36Z</time>
      </trkpt>
      <trkpt lat="46.04436" lon="0.69926">
        <ele>172.75390625</ele>
        <time>2015-10-02T11:23:45Z</time>
      </trkpt>
      <trkpt lat="46.04445" lon="0.69902">
        <ele>174.49609375</ele>
        <time>2015-10-02T11:23:54Z</time>
      </trkpt>
      <trkpt lat="46.04454" lon="0.69874">
        <ele>176.87109375</ele>
        <time>2015-10-02T11:24:04Z</time>
      </trkpt>
      <trkpt lat="46.04461" lon="0.69844">
        <ele>179.3125</ele>
        <time>2015-10-02T11:24:13Z</time>
      </trkpt>
      <trkpt lat="46.0446" lon="0.69821">
        <ele>180.734375</ele>
        <time>2015-10-02T11:24:20Z</time>
      </trkpt>
      <trkpt lat="46.0446" lon="0.69797">
        <ele>182.1953125</ele>
        <time>2015-10-02T11:24:27Z</time>
      </trkpt>
      <trkpt lat="46.04457" lon="0.69776">
        <ele>183.01171875</ele>
        <time>2015-10-02T11:24:34Z</time>
      </trkpt>
      <trkpt lat="46.04453" lon="0.69752">
        <ele>183.703125</ele>
        <time>2015-10-02T11:24:41Z</time>
      </trkpt>
      <trkpt lat="46.04447" lon="0.6973">
        <ele>184.33203125</ele>
        <time>2015-10-02T11:24:49Z</time>
      </trkpt>
      <trkpt lat="46.04438" lon="0.69705">
        <ele>185.3046875</ele>
        <time>2015-10-02T11:24:57Z</time>
      </trkpt>
      <trkpt lat="46.04428" lon="0.69681">
        <ele>186.75</ele>
        <time>2015-10-02T11:25:05Z</time>
      </trkpt>
      <trkpt lat="46.0442" lon="0.69658">
        <ele>188.078125</ele>
        <time>2015-10-02T11:25:12Z</time>
      </trkpt>
      <trkpt lat="46.04415" lon="0.69641">
        <ele>189.0546875</ele>
        <time>2015-10-02T11:25:18Z</time>
      </trkpt>
      <trkpt lat="46.0441" lon="0.69622">
        <ele>189.9296875</ele>
        <time>2015-10-02T11:25:25Z</time>
      </trkpt>
      <trkpt lat="46.04409" lon="0.69599">
        <ele>190.5078125</ele>
        <time>2015-10-02T11:25:33Z</time>
      </trkpt>
      <trkpt lat="46.04408" lon="0.69562">
        <ele>191.2109375</ele>
        <time>2015-10-02T11:25:45Z</time>
      </trkpt>
      <trkpt lat="46.04408" lon="0.69526">
        <ele>190.76171875</ele>
        <time>2015-10-02T11:25:55Z</time>
      </trkpt>
      <trkpt lat="46.04404" lon="0.69496">
        <ele>189.91796875</ele>
        <time>2015-10-02T11:26:02Z</time>
      </trkpt>
      <trkpt lat="46.04399" lon="0.69455">
        <ele>188.5546875</ele>
        <time>2015-10-02T11:26:10Z</time>
      </trkpt>
      <trkpt lat="46.04399" lon="0.69423">
        <ele>188.609375</ele>
        <time>2015-10-02T11:26:17Z</time>
      </trkpt>
      <trkpt lat="46.04399" lon="0.69399">
        <ele>188.56640625</ele>
        <time>2015-10-02T11:26:22Z</time>
      </trkpt>
      <trkpt lat="46.04409" lon="0.69363">
        <ele>186.6015625</ele>
        <time>2015-10-02T11:26:29Z</time>
      </trkpt>
      <trkpt lat="46.0441" lon="0.69358">
        <ele>186.3359375</ele>
        <time>2015-10-02T11:26:30Z</time>
      </trkpt>
      <trkpt lat="46.04411" lon="0.69351">
        <ele>186.0859375</ele>
        <time>2015-10-02T11:26:31Z</time>
      </trkpt>
      <trkpt lat="46.04415" lon="0.69332">
        <ele>185.3984375</ele>
        <time>2015-10-02T11:26:34Z</time>
      </trkpt>
      <trkpt lat="46.04415" lon="0.69325">
        <ele>185.31640625</ele>
        <time>2015-10-02T11:26:35Z</time>
      </trkpt>
      <trkpt lat="46.04414" lon="0.69282">
        <ele>185.80078125</ele>
        <time>2015-10-02T11:26:40Z</time>
      </trkpt>
      <trkpt lat="46.04416" lon="0.69257">
        <ele>186.3828125</ele>
        <time>2015-10-02T11:26:43Z</time>
      </trkpt>
      <trkpt lat="46.0443" lon="0.6921">
        <ele>189.2578125</ele>
        <time>2015-10-02T11:26:49Z</time>
      </trkpt>
      <trkpt lat="46.04437" lon="0.69197">
        <ele>190.5546875</ele>
        <time>2015-10-02T11:26:51Z</time>
      </trkpt>
      <trkpt lat="46.04441" lon="0.69191">
        <ele>191.1484375</ele>
        <time>2015-10-02T11:26:52Z</time>
      </trkpt>
      <trkpt lat="46.04445" lon="0.69186">
        <ele>191.63671875</ele>
        <time>2015-10-02T11:26:53Z</time>
      </trkpt>
      <trkpt lat="46.04491" lon="0.69136">
        <ele>192.45703125</ele>
        <time>2015-10-02T11:27:04Z</time>
      </trkpt>
      <trkpt lat="46.04527" lon="0.69097">
        <ele>192.08203125</ele>
        <time>2015-10-02T11:27:13Z</time>
      </trkpt>
      <trkpt lat="46.04566" lon="0.69055">
        <ele>193.1328125</ele>
        <time>2015-10-02T11:27:22Z</time>
      </trkpt>
      <trkpt lat="46.0458" lon="0.69042">
        <ele>193.671875</ele>
        <time>2015-10-02T11:27:25Z</time>
      </trkpt>
      <trkpt lat="46.04585" lon="0.69038">
        <ele>193.84375</ele>
        <time>2015-10-02T11:27:26Z</time>
      </trkpt>
      <trkpt lat="46.0459" lon="0.69035">
        <ele>194.0390625</ele>
        <time>2015-10-02T11:27:27Z</time>
      </trkpt>
      <trkpt lat="46.04621" lon="0.69025">
        <ele>194.51953125</ele>
        <time>2015-10-02T11:27:33Z</time>
      </trkpt>
      <trkpt lat="46.0466" lon="0.69028">
        <ele>192.96484375</ele>
        <time>2015-10-02T11:27:40Z</time>
      </trkpt>
      <trkpt lat="46.04715" lon="0.69037">
        <ele>190.015625</ele>
        <time>2015-10-02T11:27:50Z</time>
      </trkpt>
      <trkpt lat="46.04742" lon="0.69039">
        <ele>188.546875</ele>
        <time>2015-10-02T11:27:56Z</time>
      </trkpt>
      <trkpt lat="46.04751" lon="0.69037">
        <ele>188.43359375</ele>
        <time>2015-10-02T11:28:26Z</time>
      </trkpt>
      <trkpt lat="46.04754" lon="0.69037">
        <ele>188.15234375</ele>
        <time>2015-10-02T11:28:27Z</time>
      </trkpt>
      <trkpt lat="46.04782" lon="0.69024">
        <ele>186.7890625</ele>
        <time>2015-10-02T11:28:35Z</time>
      </trkpt>
      <trkpt lat="46.0481" lon="0.69004">
        <ele>183.48046875</ele>
        <time>2015-10-02T11:28:43Z</time>
      </trkpt>
      <trkpt lat="46.04818" lon="0.68998">
        <ele>180.5625</ele>
        <time>2015-10-02T11:28:45Z</time>
      </trkpt>
      <trkpt lat="46.04826" lon="0.6899">
        <ele>177.7578125</ele>
        <time>2015-10-02T11:28:47Z</time>
      </trkpt>
      <trkpt lat="46.0483" lon="0.68984">
        <ele>176.36328125</ele>
        <time>2015-10-02T11:28:48Z</time>
      </trkpt>
      <trkpt lat="46.04833" lon="0.68978">
        <ele>175.03515625</ele>
        <time>2015-10-02T11:28:49Z</time>
      </trkpt>
      <trkpt lat="46.04836" lon="0.68971">
        <ele>173.86328125</ele>
        <time>2015-10-02T11:28:50Z</time>
      </trkpt>
      <trkpt lat="46.04839" lon="0.68964">
        <ele>172.7265625</ele>
        <time>2015-10-02T11:28:51Z</time>
      </trkpt>
      <trkpt lat="46.04841" lon="0.68956">
        <ele>171.8046875</ele>
        <time>2015-10-02T11:28:52Z</time>
      </trkpt>
      <trkpt lat="46.04843" lon="0.68948">
        <ele>171.15234375</ele>
        <time>2015-10-02T11:28:53Z</time>
      </trkpt>
      <trkpt lat="46.04844" lon="0.68939">
        <ele>170.7578125</ele>
        <time>2015-10-02T11:28:54Z</time>
      </trkpt>
      <trkpt lat="46.04844" lon="0.6893">
        <ele>170.50390625</ele>
        <time>2015-10-02T11:28:55Z</time>
      </trkpt>
      <trkpt lat="46.04847" lon="0.68862">
        <ele>170.66796875</ele>
        <time>2015-10-02T11:29:02Z</time>
      </trkpt>
      <trkpt lat="46.04847" lon="0.68829">
        <ele>172.734375</ele>
        <time>2015-10-02T11:29:05Z</time>
      </trkpt>
      <trkpt lat="46.04847" lon="0.68787">
        <ele>177.1328125</ele>
        <time>2015-10-02T11:29:09Z</time>
      </trkpt>
      <trkpt lat="46.04848" lon="0.68778">
        <ele>178.3125</ele>
        <time>2015-10-02T11:29:10Z</time>
      </trkpt>
      <trkpt lat="46.0485" lon="0.68769">
        <ele>179.49609375</ele>
        <time>2015-10-02T11:29:11Z</time>
      </trkpt>
      <trkpt lat="46.04852" lon="0.68761">
        <ele>180.58203125</ele>
        <time>2015-10-02T11:29:12Z</time>
      </trkpt>
      <trkpt lat="46.04855" lon="0.68754">
        <ele>181.66796875</ele>
        <time>2015-10-02T11:29:13Z</time>
      </trkpt>
      <trkpt lat="46.04858" lon="0.68748">
        <ele>182.7109375</ele>
        <time>2015-10-02T11:29:14Z</time>
      </trkpt>
      <trkpt lat="46.04861" lon="0.68744">
        <ele>183.62109375</ele>
        <time>2015-10-02T11:29:15Z</time>
      </trkpt>
      <trkpt lat="46.04864" lon="0.68739">
        <ele>184.41015625</ele>
        <time>2015-10-02T11:29:16Z</time>
      </trkpt>
      <trkpt lat="46.04891" lon="0.68721">
        <ele>185.99609375</ele>
        <time>2015-10-02T11:29:23Z</time>
      </trkpt>
      <trkpt lat="46.04927" lon="0.68714">
        <ele>186.89453125</ele>
        <time>2015-10-02T11:29:32Z</time>
      </trkpt>
      <trkpt lat="46.04947" lon="0.6871">
        <ele>187.078125</ele>
        <time>2015-10-02T11:29:39Z</time>
      </trkpt>
      <trkpt lat="46.04968" lon="0.68708">
        <ele>187.06640625</ele>
        <time>2015-10-02T11:29:47Z</time>
      </trkpt>
      <trkpt lat="46.04977" lon="0.68708">
        <ele>186.66015625</ele>
        <time>2015-10-02T11:29:52Z</time>
      </trkpt>
      <trkpt lat="46.04983" lon="0.68712">
        <ele>185.79296875</ele>
        <time>2015-10-02T11:29:59Z</time>
      </trkpt>
      <trkpt lat="46.04992" lon="0.68707">
        <ele>185.7265625</ele>
        <time>2015-10-02T11:33:45Z</time>
      </trkpt>
      <trkpt lat="46.04993" lon="0.68705">
        <ele>185.83984375</ele>
        <time>2015-10-02T11:33:46Z</time>
      </trkpt>
      <trkpt lat="46.05007" lon="0.68685">
        <ele>187.546875</ele>
        <time>2015-10-02T11:33:54Z</time>
      </trkpt>
      <trkpt lat="46.05012" lon="0.68659">
        <ele>187.62890625</ele>
        <time>2015-10-02T11:34:00Z</time>
      </trkpt>
      <trkpt lat="46.05014" lon="0.68649">
        <ele>187.46484375</ele>
        <time>2015-10-02T11:34:02Z</time>
      </trkpt>
      <trkpt lat="46.05017" lon="0.68637">
        <ele>187.27734375</ele>
        <time>2015-10-02T11:34:04Z</time>
      </trkpt>
      <trkpt lat="46.0502" lon="0.68632">
        <ele>187.17578125</ele>
        <time>2015-10-02T11:34:05Z</time>
      </trkpt>
      <trkpt lat="46.05023" lon="0.68626">
        <ele>187.08984375</ele>
        <time>2015-10-02T11:34:06Z</time>
      </trkpt>
      <trkpt lat="46.05027" lon="0.68621">
        <ele>186.51171875</ele>
        <time>2015-10-02T11:34:07Z</time>
      </trkpt>
      <trkpt lat="46.05033" lon="0.68617">
        <ele>185.4609375</ele>
        <time>2015-10-02T11:34:08Z</time>
      </trkpt>
      <trkpt lat="46.05038" lon="0.68613">
        <ele>184.4296875</ele>
        <time>2015-10-02T11:34:09Z</time>
      </trkpt>
      <trkpt lat="46.05045" lon="0.68611">
        <ele>183.34765625</ele>
        <time>2015-10-02T11:34:10Z</time>
      </trkpt>
      <trkpt lat="46.05051" lon="0.68608">
        <ele>182.24609375</ele>
        <time>2015-10-02T11:34:11Z</time>
      </trkpt>
      <trkpt lat="46.05078" lon="0.686">
        <ele>177.69140625</ele>
        <time>2015-10-02T11:34:15Z</time>
      </trkpt>
      <trkpt lat="46.0513" lon="0.68596">
        <ele>170.78515625</ele>
        <time>2015-10-02T11:34:23Z</time>
      </trkpt>
      <trkpt lat="46.05144" lon="0.68593">
        <ele>168.89453125</ele>
        <time>2015-10-02T11:34:25Z</time>
      </trkpt>
      <trkpt lat="46.05158" lon="0.68591">
        <ele>167.80078125</ele>
        <time>2015-10-02T11:34:27Z</time>
      </trkpt>
      <trkpt lat="46.05166" lon="0.68592">
        <ele>167.62109375</ele>
        <time>2015-10-02T11:34:28Z</time>
      </trkpt>
      <trkpt lat="46.05173" lon="0.68594">
        <ele>167.62109375</ele>
        <time>2015-10-02T11:34:29Z</time>
      </trkpt>
      <trkpt lat="46.05195" lon="0.68602">
        <ele>167.34375</ele>
        <time>2015-10-02T11:34:32Z</time>
      </trkpt>
      <trkpt lat="46.05217" lon="0.68605">
        <ele>164.24609375</ele>
        <time>2015-10-02T11:34:35Z</time>
      </trkpt>
      <trkpt lat="46.05223" lon="0.68604">
        <ele>163.13671875</ele>
        <time>2015-10-02T11:34:36Z</time>
      </trkpt>
      <trkpt lat="46.0523" lon="0.68601">
        <ele>161.91015625</ele>
        <time>2015-10-02T11:34:37Z</time>
      </trkpt>
      <trkpt lat="46.05253" lon="0.68589">
        <ele>158.62890625</ele>
        <time>2015-10-02T11:34:40Z</time>
      </trkpt>
      <trkpt lat="46.05259" lon="0.68586">
        <ele>157.98046875</ele>
        <time>2015-10-02T11:34:41Z</time>
      </trkpt>
      <trkpt lat="46.05279" lon="0.68577">
        <ele>156.36328125</ele>
        <time>2015-10-02T11:34:46Z</time>
      </trkpt>
      <trkpt lat="46.05297" lon="0.68569">
        <ele>155.51953125</ele>
        <time>2015-10-02T11:34:52Z</time>
      </trkpt>
      <trkpt lat="46.05304" lon="0.68561">
        <ele>154.5859375</ele>
        <time>2015-10-02T11:34:58Z</time>
      </trkpt>
      <trkpt lat="46.05309" lon="0.68538">
        <ele>153.08203125</ele>
      </trkpt>
      <trkpt lat="46.05313" lon="0.68538">
        <ele>152.86328125</ele>
        <time>2015-10-02T11:44:35Z</time>
      </trkpt>
      <trkpt lat="46.05322" lon="0.68557">
        <ele>152.84375</ele>
      </trkpt>
      <trkpt lat="46.05329" lon="0.68575">
        <ele>151.68359375</ele>
        <time>2015-10-02T11:44:43Z</time>
      </trkpt>
      <trkpt lat="46.05337" lon="0.68581">
        <ele>149.73828125</ele>
        <time>2015-10-02T11:44:45Z</time>
      </trkpt>
      <trkpt lat="46.05346" lon="0.68581">
        <ele>148.5859375</ele>
        <time>2015-10-02T11:44:51Z</time>
      </trkpt>
      <trkpt lat="46.05355" lon="0.68579">
        <ele>147.9765625</ele>
        <time>2015-10-02T11:44:52Z</time>
      </trkpt>
      <trkpt lat="46.05341" lon="0.68597">
        <ele>146.56640625</ele>
        <time>2015-10-02T11:44:55Z</time>
      </trkpt>
      <trkpt lat="46.05323" lon="0.68626">
        <ele>144.89453125</ele>
      </trkpt>
      <trkpt lat="46.05303" lon="0.68652">
        <ele>143.5703125</ele>
      </trkpt>
      <trkpt lat="46.05289" lon="0.68665">
        <ele>143.91015625</ele>
        <time>2015-10-02T11:45:10Z</time>
      </trkpt>
      <trkpt lat="46.05283" lon="0.68676">
        <ele>143.26171875</ele>
        <time>2015-10-02T11:45:12Z</time>
      </trkpt>
      <trkpt lat="46.05273" lon="0.68687">
        <ele>143.421875</ele>
        <time>2015-10-02T11:45:14Z</time>
      </trkpt>
      <trkpt lat="46.05264" lon="0.68697">
        <ele>143.5390625</ele>
        <time>2015-10-02T11:45:16Z</time>
      </trkpt>
      <trkpt lat="46.05254" lon="0.68712">
        <ele>142.79296875</ele>
        <time>2015-10-02T11:45:19Z</time>
      </trkpt>
      <trkpt lat="46.05236" lon="0.68733">
        <ele>142.328125</ele>
        <time>2015-10-02T11:45:23Z</time>
      </trkpt>
      <trkpt lat="46.0522" lon="0.6875">
        <ele>142.3984375</ele>
        <time>2015-10-02T11:45:27Z</time>
      </trkpt>
      <trkpt lat="46.0521" lon="0.68766">
        <ele>140.921875</ele>
      </trkpt>
      <trkpt lat="46.05199" lon="0.68783">
        <ele>138.59375</ele>
      </trkpt>
      <trkpt lat="46.0519" lon="0.68791">
        <ele>137.85546875</ele>
      </trkpt>
      <trkpt lat="46.0518" lon="0.68799">
        <ele>138.3515625</ele>
      </trkpt>
      <trkpt lat="46.05165" lon="0.6881">
        <ele>139</ele>
      </trkpt>
      <trkpt lat="46.05157" lon="0.68817">
        <ele>138.8046875</ele>
        <time>2015-10-02T11:47:47Z</time>
      </trkpt>
      <trkpt lat="46.05198" lon="0.68817">
        <ele>135.5625</ele>
        <time>2015-10-02T11:47:56Z</time>
      </trkpt>
      <trkpt lat="46.05214" lon="0.68814">
        <ele>135.37109375</ele>
        <time>2015-10-02T11:48:15Z</time>
      </trkpt>
      <trkpt lat="46.05235" lon="0.68812">
        <ele>134.87109375</ele>
        <time>2015-10-02T11:48:16Z</time>
      </trkpt>
      <trkpt lat="46.05255" lon="0.68808">
        <ele>134.5234375</ele>
        <time>2015-10-02T11:48:20Z</time>
      </trkpt>
      <trkpt lat="46.05272" lon="0.68797">
        <ele>134.1015625</ele>
        <time>2015-10-02T11:48:24Z</time>
      </trkpt>
      <trkpt lat="46.05295" lon="0.68771">
        <ele>133.91796875</ele>
        <time>2015-10-02T11:48:32Z</time>
      </trkpt>
      <trkpt lat="46.05325" lon="0.68739">
        <ele>133.546875</ele>
        <time>2015-10-02T11:48:41Z</time>
      </trkpt>
      <trkpt lat="46.05355" lon="0.68703">
        <ele>133.1171875</ele>
        <time>2015-10-02T11:48:48Z</time>
      </trkpt>
      <trkpt lat="46.0539" lon="0.68658">
        <ele>134.2734375</ele>
        <time>2015-10-02T11:49:00Z</time>
      </trkpt>
      <trkpt lat="46.05416" lon="0.68625">
        <ele>132.03515625</ele>
        <time>2015-10-02T11:49:09Z</time>
      </trkpt>
      <trkpt lat="46.05448" lon="0.68587">
        <ele>134.42578125</ele>
        <time>2015-10-02T11:49:18Z</time>
      </trkpt>
      <trkpt lat="46.05496" lon="0.68537">
        <ele>133.83203125</ele>
        <time>2015-10-02T11:49:28Z</time>
      </trkpt>
      <trkpt lat="46.05522" lon="0.68488">
        <ele>129.9609375</ele>
        <time>2015-10-02T11:49:38Z</time>
      </trkpt>
      <trkpt lat="46.05532" lon="0.68469">
        <ele>129.42578125</ele>
        <time>2015-10-02T11:49:45Z</time>
      </trkpt>
      <trkpt lat="46.0554" lon="0.68461">
        <ele>130.03125</ele>
      </trkpt>
      <trkpt lat="46.05544" lon="0.68452">
        <ele>129.953125</ele>
      </trkpt>
      <trkpt lat="46.05544" lon="0.68441">
        <ele>129.265625</ele>
      </trkpt>
      <trkpt lat="46.05543" lon="0.68427">
        <ele>128.31640625</ele>
        <time>2015-10-02T11:49:54Z</time>
      </trkpt>
      <trkpt lat="46.0554" lon="0.68426">
        <ele>128.01953125</ele>
        <time>2015-10-02T11:49:55Z</time>
      </trkpt>
      <trkpt lat="46.05529" lon="0.68426">
        <ele>127.046875</ele>
        <time>2015-10-02T11:49:59Z</time>
      </trkpt>
      <trkpt lat="46.055" lon="0.68428">
        <ele>128.07421875</ele>
        <time>2015-10-02T11:50:08Z</time>
      </trkpt>
      <trkpt lat="46.05472" lon="0.68433">
        <ele>129.7109375</ele>
        <time>2015-10-02T11:50:17Z</time>
      </trkpt>
      <trkpt lat="46.05455" lon="0.68429">
        <ele>129.80859375</ele>
        <time>2015-10-02T11:50:54Z</time>
      </trkpt>
      <trkpt lat="46.05436" lon="0.68425">
        <ele>129.7265625</ele>
        <time>2015-10-02T11:50:55Z</time>
      </trkpt>
      <trkpt lat="46.05438" lon="0.68406">
        <ele>127.421875</ele>
        <time>2015-10-02T11:50:58Z</time>
      </trkpt>
      <trkpt lat="46.05416" lon="0.68407">
        <ele>127.6328125</ele>
        <time>2015-10-02T11:51:03Z</time>
      </trkpt>
      <trkpt lat="46.05402" lon="0.68408">
        <ele>127.68359375</ele>
        <time>2015-10-02T11:51:10Z</time>
      </trkpt>
      <trkpt lat="46.05392" lon="0.68415">
        <ele>128.7734375</ele>
        <time>2015-10-02T11:51:13Z</time>
      </trkpt>
      <trkpt lat="46.05385" lon="0.68416">
        <ele>128.83984375</ele>
        <time>2015-10-02T11:51:14Z</time>
      </trkpt>
      <trkpt lat="46.05374" lon="0.68414">
        <ele>128.578125</ele>
        <time>2015-10-02T11:51:22Z</time>
      </trkpt>
      <trkpt lat="46.05374" lon="0.68414">
        <ele>128.55859375</ele>
      </trkpt>
      <trkpt lat="46.05377" lon="0.68383">
        <ele>126.26953125</ele>
      </trkpt>
      <trkpt lat="46.05378" lon="0.68351">
        <ele>125.1328125</ele>
      </trkpt>
      <trkpt lat="46.0538" lon="0.68299">
        <ele>125</ele>
      </trkpt>
      <trkpt lat="46.05383" lon="0.68248">
        <ele>125.30859375</ele>
      </trkpt>
      <trkpt lat="46.05382" lon="0.68201">
        <ele>126.01953125</ele>
      </trkpt>
      <trkpt lat="46.05383" lon="0.68195">
        <ele>126.14453125</ele>
      </trkpt>
      <trkpt lat="46.05351" lon="0.68197">
        <ele>125.71484375</ele>
      </trkpt>
      <trkpt lat="46.05335" lon="0.6819">
        <ele>125.828125</ele>
      </trkpt>
      <trkpt lat="46.05308" lon="0.68168">
        <ele>126.453125</ele>
      </trkpt>
      <trkpt lat="46.05261" lon="0.68138">
        <ele>127.55078125</ele>
      </trkpt>
      <trkpt lat="46.05216" lon="0.68135">
        <ele>128.12890625</ele>
      </trkpt>
      <trkpt lat="46.05208" lon="0.68101">
        <ele>130.46875</ele>
      </trkpt>
      <trkpt lat="46.05198" lon="0.68077">
        <ele>132.37890625</ele>
      </trkpt>
      <trkpt lat="46.05178" lon="0.68024">
        <ele>136.80078125</ele>
      </trkpt>
      <trkpt lat="46.05167" lon="0.67992">
        <ele>139.953125</ele>
      </trkpt>
      <trkpt lat="46.05157" lon="0.67966">
        <ele>142.71484375</ele>
      </trkpt>
      <trkpt lat="46.0513" lon="0.67967">
        <ele>143.421875</ele>
      </trkpt>
      <trkpt lat="46.05104" lon="0.67962">
        <ele>144.3203125</ele>
      </trkpt>
      <trkpt lat="46.05045" lon="0.67952">
        <ele>145.34765625</ele>
      </trkpt>
      <trkpt lat="46.04962" lon="0.67934">
        <ele>144.5390625</ele>
      </trkpt>
      <trkpt lat="46.04899" lon="0.67921">
        <ele>139.734375</ele>
      </trkpt>
      <trkpt lat="46.04875" lon="0.67917">
        <ele>138.22265625</ele>
      </trkpt>
      <trkpt lat="46.0487" lon="0.67918">
        <ele>137.81640625</ele>
      </trkpt>
      <trkpt lat="46.04823" lon="0.67907">
        <ele>140.390625</ele>
      </trkpt>
      <trkpt lat="46.04778" lon="0.67896">
        <ele>142.96875</ele>
      </trkpt>
      <trkpt lat="46.04737" lon="0.6789">
        <ele>143.74609375</ele>
      </trkpt>
      <trkpt lat="46.04684" lon="0.67883">
        <ele>143.34765625</ele>
      </trkpt>
      <trkpt lat="46.04603" lon="0.67875">
        <ele>142.23046875</ele>
      </trkpt>
      <trkpt lat="46.04572" lon="0.67871">
        <ele>142.07421875</ele>
      </trkpt>
      <trkpt lat="46.04534" lon="0.67865">
        <ele>143.3046875</ele>
      </trkpt>
      <trkpt lat="46.04499" lon="0.6786">
        <ele>144.14453125</ele>
      </trkpt>
      <trkpt lat="46.04474" lon="0.67856">
        <ele>144.953125</ele>
      </trkpt>
      <trkpt lat="46.04429" lon="0.67848">
        <ele>144.4375</ele>
      </trkpt>
      <trkpt lat="46.04375" lon="0.67831">
        <ele>143.0546875</ele>
      </trkpt>
      <trkpt lat="46.04308" lon="0.67804">
        <ele>143.50390625</ele>
      </trkpt>
      <trkpt lat="46.0426" lon="0.67785">
        <ele>143.21875</ele>
      </trkpt>
      <trkpt lat="46.04186" lon="0.67755">
        <ele>141.85546875</ele>
      </trkpt>
      <trkpt lat="46.04142" lon="0.67735">
        <ele>141.421875</ele>
      </trkpt>
      <trkpt lat="46.04132" lon="0.6773">
        <ele>141.68359375</ele>
      </trkpt>
      <trkpt lat="46.04127" lon="0.67739">
        <ele>140.5078125</ele>
      </trkpt>
      <trkpt lat="46.04118" lon="0.67745">
        <ele>139.69140625</ele>
      </trkpt>
      <trkpt lat="46.04106" lon="0.6775">
        <ele>138.83203125</ele>
      </trkpt>
      <trkpt lat="46.04074" lon="0.67743">
        <ele>138.73828125</ele>
      </trkpt>
      <trkpt lat="46.04032" lon="0.67721">
        <ele>140.37890625</ele>
      </trkpt>
      <trkpt lat="46.04" lon="0.67703">
        <ele>142.16796875</ele>
      </trkpt>
      <trkpt lat="46.03996" lon="0.67701">
        <ele>142.29296875</ele>
      </trkpt>
      <trkpt lat="46.03966" lon="0.67694">
        <ele>142.69140625</ele>
      </trkpt>
      <trkpt lat="46.03962" lon="0.67693">
        <ele>142.875</ele>
      </trkpt>
      <trkpt lat="46.03929" lon="0.67682">
        <ele>144.00390625</ele>
      </trkpt>
      <trkpt lat="46.03894" lon="0.67678">
        <ele>143.27734375</ele>
      </trkpt>
      <trkpt lat="46.03889" lon="0.67676">
        <ele>143.375</ele>
      </trkpt>
      <trkpt lat="46.03858" lon="0.67662">
        <ele>144.484375</ele>
      </trkpt>
      <trkpt lat="46.03821" lon="0.6765">
        <ele>143.80078125</ele>
      </trkpt>
      <trkpt lat="46.03782" lon="0.67629">
        <ele>143.8671875</ele>
      </trkpt>
      <trkpt lat="46.03744" lon="0.67601">
        <ele>141.73046875</ele>
      </trkpt>
      <trkpt lat="46.0374" lon="0.67599">
        <ele>141.28125</ele>
      </trkpt>
      <trkpt lat="46.03724" lon="0.67584">
        <ele>139.765625</ele>
      </trkpt>
      <trkpt lat="46.0371" lon="0.67561">
        <ele>138.40625</ele>
      </trkpt>
      <trkpt lat="46.03704" lon="0.67544">
        <ele>137.2734375</ele>
      </trkpt>
      <trkpt lat="46.03663" lon="0.67514">
        <ele>134.296875</ele>
      </trkpt>
      <trkpt lat="46.03655" lon="0.67509">
        <ele>134.125</ele>
      </trkpt>
      <trkpt lat="46.03621" lon="0.67487">
        <ele>136.48046875</ele>
      </trkpt>
      <trkpt lat="46.03594" lon="0.67473">
        <ele>140.64453125</ele>
      </trkpt>
      <trkpt lat="46.03552" lon="0.67458">
        <ele>145.296875</ele>
      </trkpt>
      <trkpt lat="46.03504" lon="0.67441">
        <ele>148.828125</ele>
      </trkpt>
      <trkpt lat="46.03467" lon="0.67429">
        <ele>150.0625</ele>
      </trkpt>
      <trkpt lat="46.03427" lon="0.67418">
        <ele>150.03125</ele>
      </trkpt>
      <trkpt lat="46.03387" lon="0.67406">
        <ele>149.65625</ele>
      </trkpt>
      <trkpt lat="46.03341" lon="0.67396">
        <ele>148.5546875</ele>
      </trkpt>
      <trkpt lat="46.03297" lon="0.67386">
        <ele>149.08984375</ele>
      </trkpt>
      <trkpt lat="46.03251" lon="0.67369">
        <ele>149.52734375</ele>
      </trkpt>
      <trkpt lat="46.0321" lon="0.67349">
        <ele>149.28515625</ele>
      </trkpt>
      <trkpt lat="46.03178" lon="0.67331">
        <ele>148.140625</ele>
      </trkpt>
      <trkpt lat="46.03145" lon="0.67306">
        <ele>147.7734375</ele>
      </trkpt>
      <trkpt lat="46.03118" lon="0.67281">
        <ele>148.16796875</ele>
      </trkpt>
      <trkpt lat="46.03092" lon="0.67253">
        <ele>148.87890625</ele>
      </trkpt>
      <trkpt lat="46.0306" lon="0.67217">
        <ele>149.03125</ele>
      </trkpt>
      <trkpt lat="46.03036" lon="0.67188">
        <ele>148.99609375</ele>
      </trkpt>
      <trkpt lat="46.0301" lon="0.67156">
        <ele>149.68359375</ele>
      </trkpt>
      <trkpt lat="46.0298" lon="0.67125">
        <ele>150.296875</ele>
      </trkpt>
      <trkpt lat="46.0295" lon="0.67091">
        <ele>150.828125</ele>
      </trkpt>
      <trkpt lat="46.02939" lon="0.67076">
        <ele>151.1875</ele>
      </trkpt>
      <trkpt lat="46.02913" lon="0.67051">
        <ele>151.0078125</ele>
      </trkpt>
      <trkpt lat="46.02889" lon="0.67032">
        <ele>149.60546875</ele>
      </trkpt>
      <trkpt lat="46.02869" lon="0.67018">
        <ele>148.4375</ele>
      </trkpt>
      <trkpt lat="46.02849" lon="0.67005">
        <ele>148.61328125</ele>
      </trkpt>
      <trkpt lat="46.02823" lon="0.66993">
        <ele>149.796875</ele>
      </trkpt>
      <trkpt lat="46.02786" lon="0.66977">
        <ele>151.4296875</ele>
      </trkpt>
      <trkpt lat="46.02757" lon="0.66968">
        <ele>152.41015625</ele>
      </trkpt>
      <trkpt lat="46.02738" lon="0.66964">
        <ele>152.7578125</ele>
      </trkpt>
      <trkpt lat="46.02711" lon="0.66959">
        <ele>153.03125</ele>
      </trkpt>
      <trkpt lat="46.02678" lon="0.66952">
        <ele>153.0703125</ele>
      </trkpt>
      <trkpt lat="46.02645" lon="0.66945">
        <ele>152.83203125</ele>
      </trkpt>
      <trkpt lat="46.02605" lon="0.6694">
        <ele>152.8203125</ele>
      </trkpt>
      <trkpt lat="46.02597" lon="0.66939">
        <ele>152.80078125</ele>
      </trkpt>
      <trkpt lat="46.02561" lon="0.66935">
        <ele>152.453125</ele>
      </trkpt>
      <trkpt lat="46.02518" lon="0.66928">
        <ele>151.93359375</ele>
      </trkpt>
      <trkpt lat="46.02479" lon="0.6692">
        <ele>151.515625</ele>
      </trkpt>
      <trkpt lat="46.02445" lon="0.66913">
        <ele>150.65234375</ele>
      </trkpt>
      <trkpt lat="46.02422" lon="0.66907">
        <ele>150.04296875</ele>
      </trkpt>
      <trkpt lat="46.02385" lon="0.66901">
        <ele>151.296875</ele>
      </trkpt>
      <trkpt lat="46.02347" lon="0.66897">
        <ele>152.48046875</ele>
      </trkpt>
      <trkpt lat="46.0231" lon="0.66892">
        <ele>153.16796875</ele>
      </trkpt>
      <trkpt lat="46.02268" lon="0.66887">
        <ele>152.59375</ele>
      </trkpt>
      <trkpt lat="46.02214" lon="0.66877">
        <ele>152.12890625</ele>
      </trkpt>
      <trkpt lat="46.02204" lon="0.66893">
        <ele>151.51171875</ele>
      </trkpt>
      <trkpt lat="46.022" lon="0.66908">
        <ele>150.92578125</ele>
      </trkpt>
      <trkpt lat="46.02196" lon="0.66934">
        <ele>149.91015625</ele>
      </trkpt>
      <trkpt lat="46.02165" lon="0.66928">
        <ele>150.12890625</ele>
      </trkpt>
      <trkpt lat="46.02127" lon="0.66923">
        <ele>150.21875</ele>
      </trkpt>
      <trkpt lat="46.02096" lon="0.66918">
        <ele>150.3046875</ele>
      </trkpt>
      <trkpt lat="46.02071" lon="0.66912">
        <ele>150.55078125</ele>
      </trkpt>
      <trkpt lat="46.02043" lon="0.66906">
        <ele>150.87109375</ele>
      </trkpt>
      <trkpt lat="46.01985" lon="0.66886">
        <ele>151.3828125</ele>
      </trkpt>
      <trkpt lat="46.01948" lon="0.66874">
        <ele>150.8671875</ele>
      </trkpt>
      <trkpt lat="46.01938" lon="0.66938">
        <ele>147.84765625</ele>
      </trkpt>
      <trkpt lat="46.01929" lon="0.66988">
        <ele>145.16015625</ele>
      </trkpt>
      <trkpt lat="46.01924" lon="0.6702">
        <ele>143.828125</ele>
      </trkpt>
      <trkpt lat="46.01921" lon="0.67023">
        <ele>143.7109375</ele>
      </trkpt>
      <trkpt lat="46.01917" lon="0.67029">
        <ele>143.48046875</ele>
      </trkpt>
      <trkpt lat="46.01914" lon="0.67038">
        <ele>143.15625</ele>
      </trkpt>
      <trkpt lat="46.01906" lon="0.671">
        <ele>140.80859375</ele>
      </trkpt>
      <trkpt lat="46.01907" lon="0.67133">
        <ele>139.453125</ele>
      </trkpt>
      <trkpt lat="46.01895" lon="0.67154">
        <ele>138.26953125</ele>
      </trkpt>
      <trkpt lat="46.01882" lon="0.6718">
        <ele>137.05078125</ele>
      </trkpt>
      <trkpt lat="46.0187" lon="0.67189">
        <ele>136.56640625</ele>
      </trkpt>
      <trkpt lat="46.01857" lon="0.6719">
        <ele>136.38671875</ele>
      </trkpt>
      <trkpt lat="46.0185" lon="0.67189">
        <ele>136.3515625</ele>
      </trkpt>
      <trkpt lat="46.01837" lon="0.67181">
        <ele>136.52734375</ele>
      </trkpt>
      <trkpt lat="46.01831" lon="0.67177">
        <ele>136.56640625</ele>
      </trkpt>
      <trkpt lat="46.01795" lon="0.67148">
        <ele>136.90625</ele>
      </trkpt>
      <trkpt lat="46.01765" lon="0.67106">
        <ele>138.05859375</ele>
      </trkpt>
      <trkpt lat="46.01743" lon="0.67082">
        <ele>138.38671875</ele>
      </trkpt>
      <trkpt lat="46.01723" lon="0.6707">
        <ele>138.484375</ele>
      </trkpt>
      <trkpt lat="46.01684" lon="0.6705">
        <ele>138.15234375</ele>
      </trkpt>
      <trkpt lat="46.01671" lon="0.67038">
        <ele>138.0703125</ele>
      </trkpt>
      <trkpt lat="46.0165" lon="0.67016">
        <ele>138.28125</ele>
      </trkpt>
      <trkpt lat="46.01647" lon="0.67025">
        <ele>137.67578125</ele>
      </trkpt>
      <trkpt lat="46.01631" lon="0.67052">
        <ele>135.71875</ele>
      </trkpt>
      <trkpt lat="46.01612" lon="0.67083">
        <ele>133.515625</ele>
      </trkpt>
      <trkpt lat="46.01597" lon="0.67108">
        <ele>132.0390625</ele>
      </trkpt>
      <trkpt lat="46.01588" lon="0.67108">
        <ele>131.7265625</ele>
      </trkpt>
      <trkpt lat="46.01552" lon="0.6708">
        <ele>132.04296875</ele>
      </trkpt>
      <trkpt lat="46.01525" lon="0.67057">
        <ele>132.57421875</ele>
      </trkpt>
      <trkpt lat="46.01511" lon="0.67039">
        <ele>132.94140625</ele>
      </trkpt>
      <trkpt lat="46.0151" lon="0.67032">
        <ele>133.24609375</ele>
      </trkpt>
      <trkpt lat="46.01517" lon="0.67011">
        <ele>134.51171875</ele>
      </trkpt>
      <trkpt lat="46.01507" lon="0.67021">
        <ele>133.55078125</ele>
      </trkpt>
      <trkpt lat="46.01488" lon="0.67065">
        <ele>131.39453125</ele>
      </trkpt>
      <trkpt lat="46.01462" lon="0.6713">
        <ele>129.27734375</ele>
      </trkpt>
      <trkpt lat="46.01444" lon="0.6718">
        <ele>129.984375</ele>
      </trkpt>
      <trkpt lat="46.01435" lon="0.67199">
        <ele>130.2265625</ele>
      </trkpt>
      <trkpt lat="46.01409" lon="0.6718">
        <ele>130.34765625</ele>
      </trkpt>
      <trkpt lat="46.01399" lon="0.67174">
        <ele>130.60546875</ele>
      </trkpt>
      <trkpt lat="46.0138" lon="0.67161">
        <ele>130.8671875</ele>
      </trkpt>
      <trkpt lat="46.01366" lon="0.67149">
        <ele>130.7890625</ele>
      </trkpt>
      <trkpt lat="46.01342" lon="0.67125">
        <ele>131.1328125</ele>
      </trkpt>
      <trkpt lat="46.0128" lon="0.67073">
        <ele>133.59765625</ele>
      </trkpt>
      <trkpt lat="46.01267" lon="0.67063">
        <ele>134.328125</ele>
      </trkpt>
      <trkpt lat="46.01242" lon="0.67042">
        <ele>135.53515625</ele>
      </trkpt>
      <trkpt lat="46.01213" lon="0.67022">
        <ele>137.046875</ele>
      </trkpt>
      <trkpt lat="46.0121" lon="0.67012">
        <ele>136.6015625</ele>
      </trkpt>
      <trkpt lat="46.01181" lon="0.66996">
        <ele>137.734375</ele>
      </trkpt>
      <trkpt lat="46.01134" lon="0.66972">
        <ele>138.5078125</ele>
      </trkpt>
      <trkpt lat="46.01076" lon="0.66948">
        <ele>138.82421875</ele>
      </trkpt>
      <trkpt lat="46.01018" lon="0.66942">
        <ele>138.5859375</ele>
      </trkpt>
      <trkpt lat="46.00997" lon="0.66937">
        <ele>138.37109375</ele>
      </trkpt>
      <trkpt lat="46.00988" lon="0.66934">
        <ele>138.109375</ele>
      </trkpt>
      <trkpt lat="46.0098" lon="0.66922">
        <ele>136.90625</ele>
      </trkpt>
      <trkpt lat="46.00975" lon="0.66914">
        <ele>136.10546875</ele>
      </trkpt>
      <trkpt lat="46.00947" lon="0.66873">
        <ele>133.265625</ele>
      </trkpt>
      <trkpt lat="46.00932" lon="0.66858">
        <ele>132.44140625</ele>
      </trkpt>
      <trkpt lat="46.00907" lon="0.66845">
        <ele>132.296875</ele>
      </trkpt>
      <trkpt lat="46.0085" lon="0.66831">
        <ele>133.33984375</ele>
      </trkpt>
      <trkpt lat="46.0082" lon="0.66825">
        <ele>133.55078125</ele>
      </trkpt>
      <trkpt lat="46.00798" lon="0.66817">
        <ele>133.48828125</ele>
      </trkpt>
      <trkpt lat="46.00738" lon="0.66785">
        <ele>133.26171875</ele>
      </trkpt>
      <trkpt lat="46.00713" lon="0.66767">
        <ele>133.4921875</ele>
      </trkpt>
      <trkpt lat="46.00699" lon="0.66757">
        <ele>133.6484375</ele>
      </trkpt>
      <trkpt lat="46.00673" lon="0.6672">
        <ele>133.85546875</ele>
      </trkpt>
      <trkpt lat="46.00665" lon="0.66704">
        <ele>133.7578125</ele>
      </trkpt>
      <trkpt lat="46.00634" lon="0.66642">
        <ele>132.30078125</ele>
      </trkpt>
      <trkpt lat="46.00612" lon="0.66602">
        <ele>133.83984375</ele>
      </trkpt>
      <trkpt lat="46.006" lon="0.66586">
        <ele>133.953125</ele>
      </trkpt>
      <trkpt lat="46.00591" lon="0.66575">
        <ele>133.9765625</ele>
      </trkpt>
      <trkpt lat="46.00571" lon="0.66558">
        <ele>133.984375</ele>
      </trkpt>
      <trkpt lat="46.0053" lon="0.66531">
        <ele>133.5703125</ele>
      </trkpt>
      <trkpt lat="46.00505" lon="0.6651">
        <ele>133.375</ele>
      </trkpt>
      <trkpt lat="46.00487" lon="0.66503">
        <ele>133.55859375</ele>
      </trkpt>
      <trkpt lat="46.00478" lon="0.66503">
        <ele>133.7265625</ele>
      </trkpt>
      <trkpt lat="46.00468" lon="0.66504">
        <ele>134.25</ele>
      </trkpt>
      <trkpt lat="46.0044" lon="0.66512">
        <ele>136.390625</ele>
      </trkpt>
      <trkpt lat="46.0042" lon="0.66515">
        <ele>137.9375</ele>
      </trkpt>
      <trkpt lat="46.00391" lon="0.66503">
        <ele>140.0859375</ele>
      </trkpt>
      <trkpt lat="46.00362" lon="0.66471">
        <ele>141.609375</ele>
      </trkpt>
      <trkpt lat="46.0033" lon="0.66437">
        <ele>143.953125</ele>
      </trkpt>
      <trkpt lat="46.00299" lon="0.66407">
        <ele>145.9453125</ele>
      </trkpt>
      <trkpt lat="46.00265" lon="0.66378">
        <ele>148.18359375</ele>
      </trkpt>
      <trkpt lat="46.00231" lon="0.66344">
        <ele>150.83203125</ele>
      </trkpt>
      <trkpt lat="46.00196" lon="0.66324">
        <ele>153.65625</ele>
      </trkpt>
      <trkpt lat="46.00166" lon="0.66304">
        <ele>155.109375</ele>
      </trkpt>
      <trkpt lat="46.00134" lon="0.66283">
        <ele>155.84375</ele>
      </trkpt>
      <trkpt lat="46.0011" lon="0.66267">
        <ele>155.78125</ele>
      </trkpt>
      <trkpt lat="46.00079" lon="0.66262">
        <ele>156.28515625</ele>
      </trkpt>
      <trkpt lat="46.00064" lon="0.66256">
        <ele>156.046875</ele>
      </trkpt>
      <trkpt lat="46.00055" lon="0.66248">
        <ele>155.75</ele>
      </trkpt>
      <trkpt lat="46.00046" lon="0.66235">
        <ele>155.3828125</ele>
      </trkpt>
      <trkpt lat="46.00039" lon="0.66218">
        <ele>155.21875</ele>
      </trkpt>
      <trkpt lat="46.00032" lon="0.66199">
        <ele>155.23046875</ele>
      </trkpt>
      <trkpt lat="46.00022" lon="0.66175">
        <ele>155.69140625</ele>
      </trkpt>
      <trkpt lat="45.99999" lon="0.66135">
        <ele>156.74609375</ele>
      </trkpt>
      <trkpt lat="45.99995" lon="0.6612">
        <ele>156.40625</ele>
      </trkpt>
      <trkpt lat="45.9999" lon="0.66109">
        <ele>156.265625</ele>
      </trkpt>
      <trkpt lat="45.99971" lon="0.66086">
        <ele>156.3671875</ele>
      </trkpt>
      <trkpt lat="45.99929" lon="0.66054">
        <ele>156.23046875</ele>
      </trkpt>
      <trkpt lat="45.99913" lon="0.66048">
        <ele>156.59765625</ele>
      </trkpt>
      <trkpt lat="45.99901" lon="0.66046">
        <ele>156.8046875</ele>
      </trkpt>
      <trkpt lat="45.99893" lon="0.66042">
        <ele>156.89453125</ele>
      </trkpt>
      <trkpt lat="45.99882" lon="0.66034">
        <ele>156.89453125</ele>
      </trkpt>
      <trkpt lat="45.99868" lon="0.66024">
        <ele>157.09765625</ele>
      </trkpt>
      <trkpt lat="45.99859" lon="0.66019">
        <ele>156.94140625</ele>
      </trkpt>
      <trkpt lat="45.99845" lon="0.66016">
        <ele>156.33203125</ele>
      </trkpt>
      <trkpt lat="45.99838" lon="0.66019">
        <ele>156.16015625</ele>
      </trkpt>
      <trkpt lat="45.9983" lon="0.66023">
        <ele>156.03125</ele>
      </trkpt>
      <trkpt lat="45.99825" lon="0.66029">
        <ele>156.09375</ele>
      </trkpt>
      <trkpt lat="45.9982" lon="0.66035">
        <ele>156.12890625</ele>
      </trkpt>
      <trkpt lat="45.99805" lon="0.66052">
        <ele>156.11328125</ele>
      </trkpt>
      <trkpt lat="45.99799" lon="0.66056">
        <ele>155.92578125</ele>
      </trkpt>
      <trkpt lat="45.99791" lon="0.6606">
        <ele>155.59375</ele>
      </trkpt>
      <trkpt lat="45.9978" lon="0.66056">
        <ele>154.80078125</ele>
      </trkpt>
      <trkpt lat="45.99756" lon="0.66047">
        <ele>152.93359375</ele>
      </trkpt>
      <trkpt lat="45.99739" lon="0.66033">
        <ele>151.55859375</ele>
      </trkpt>
      <trkpt lat="45.99718" lon="0.66012">
        <ele>150.359375</ele>
      </trkpt>
      <trkpt lat="45.99705" lon="0.66002">
        <ele>150.28125</ele>
      </trkpt>
      <trkpt lat="45.99709" lon="0.65977">
        <ele>150.47265625</ele>
      </trkpt>
      <trkpt lat="45.9971" lon="0.65953">
        <ele>150.46875</ele>
      </trkpt>
      <trkpt lat="45.99707" lon="0.65944">
        <ele>150.51171875</ele>
      </trkpt>
      <trkpt lat="45.99684" lon="0.6591">
        <ele>152.65625</ele>
      </trkpt>
      <trkpt lat="45.99666" lon="0.65884">
        <ele>154.80078125</ele>
      </trkpt>
      <trkpt lat="45.9964" lon="0.65847">
        <ele>157.1640625</ele>
      </trkpt>
      <trkpt lat="45.99609" lon="0.65806">
        <ele>158</ele>
      </trkpt>
      <trkpt lat="45.99581" lon="0.65763">
        <ele>157.15234375</ele>
      </trkpt>
      <trkpt lat="45.99543" lon="0.65713">
        <ele>155.6015625</ele>
      </trkpt>
      <trkpt lat="45.99521" lon="0.65694">
        <ele>155.14453125</ele>
      </trkpt>
      <trkpt lat="45.9951" lon="0.65688">
        <ele>155.1015625</ele>
      </trkpt>
      <trkpt lat="45.99479" lon="0.65677">
        <ele>155.51171875</ele>
      </trkpt>
      <trkpt lat="45.9946" lon="0.65661">
        <ele>154.95703125</ele>
      </trkpt>
      <trkpt lat="45.99426" lon="0.65622">
        <ele>154.45703125</ele>
      </trkpt>
      <trkpt lat="45.99396" lon="0.65575">
        <ele>153.87890625</ele>
      </trkpt>
      <trkpt lat="45.99355" lon="0.65499">
        <ele>153.66796875</ele>
      </trkpt>
      <trkpt lat="45.99306" lon="0.65404">
        <ele>152.21875</ele>
      </trkpt>
      <trkpt lat="45.99288" lon="0.65377">
        <ele>152.3828125</ele>
      </trkpt>
      <trkpt lat="45.99283" lon="0.65372">
        <ele>152.58984375</ele>
      </trkpt>
      <trkpt lat="45.9924" lon="0.65345">
        <ele>154.7421875</ele>
      </trkpt>
      <trkpt lat="45.99235" lon="0.65343">
        <ele>155</ele>
      </trkpt>
      <trkpt lat="45.99191" lon="0.65339">
        <ele>157.515625</ele>
      </trkpt>
      <trkpt lat="45.99149" lon="0.65324">
        <ele>158.328125</ele>
      </trkpt>
      <trkpt lat="45.99103" lon="0.65308">
        <ele>157.40234375</ele>
      </trkpt>
      <trkpt lat="45.99071" lon="0.65298">
        <ele>156.41796875</ele>
      </trkpt>
      <trkpt lat="45.99068" lon="0.65294">
        <ele>156.06640625</ele>
      </trkpt>
      <trkpt lat="45.99084" lon="0.65278">
        <ele>154</ele>
      </trkpt>
      <trkpt lat="45.99105" lon="0.65262">
        <ele>152.5546875</ele>
      </trkpt>
      <trkpt lat="45.99121" lon="0.6525">
        <ele>151.64453125</ele>
      </trkpt>
      <trkpt lat="45.99138" lon="0.65235">
        <ele>150.45703125</ele>
      </trkpt>
      <trkpt lat="45.99153" lon="0.65222">
        <ele>148.69140625</ele>
      </trkpt>
      <trkpt lat="45.99171" lon="0.65207">
        <ele>146.8984375</ele>
      </trkpt>
      <trkpt lat="45.99187" lon="0.65194">
        <ele>145.77734375</ele>
      </trkpt>
      <trkpt lat="45.99204" lon="0.6518">
        <ele>144.46875</ele>
      </trkpt>
      <trkpt lat="45.99223" lon="0.65166">
        <ele>142.44921875</ele>
      </trkpt>
      <trkpt lat="45.99242" lon="0.65151">
        <ele>140.4453125</ele>
      </trkpt>
      <trkpt lat="45.99258" lon="0.65138">
        <ele>138.80859375</ele>
      </trkpt>
      <trkpt lat="45.9927" lon="0.65129">
        <ele>137.5234375</ele>
      </trkpt>
      <trkpt lat="45.99279" lon="0.65119">
        <ele>136.5703125</ele>
      </trkpt>
      <trkpt lat="45.99285" lon="0.65108">
        <ele>135.67578125</ele>
      </trkpt>
      <trkpt lat="45.99292" lon="0.65092">
        <ele>134.50390625</ele>
      </trkpt>
      <trkpt lat="45.99296" lon="0.65078">
        <ele>133.609375</ele>
      </trkpt>
      <trkpt lat="45.99297" lon="0.65058">
        <ele>133.1640625</ele>
      </trkpt>
      <trkpt lat="45.99296" lon="0.6504">
        <ele>133.09765625</ele>
      </trkpt>
      <trkpt lat="45.99296" lon="0.65029">
        <ele>133.0546875</ele>
      </trkpt>
      <trkpt lat="45.99296" lon="0.64973">
        <ele>133</ele>
      </trkpt>
      <trkpt lat="45.99295" lon="0.64918">
        <ele>133</ele>
      </trkpt>
      <trkpt lat="45.99293" lon="0.64857">
        <ele>135.59375</ele>
      </trkpt>
      <trkpt lat="45.99265" lon="0.64878">
        <ele>134.46875</ele>
      </trkpt>
      <trkpt lat="45.99226" lon="0.64889">
        <ele>133.8359375</ele>
      </trkpt>
      <trkpt lat="45.99204" lon="0.64899">
        <ele>133.34375</ele>
      </trkpt>
      <trkpt lat="45.99187" lon="0.64908">
        <ele>133</ele>
      </trkpt>
      <trkpt lat="45.99141" lon="0.64912">
        <ele>133</ele>
      </trkpt>
      <trkpt lat="45.99118" lon="0.64909">
        <ele>133</ele>
      </trkpt>
      <trkpt lat="45.99108" lon="0.649">
        <ele>133.2734375</ele>
      </trkpt>
      <trkpt lat="45.99109" lon="0.64891">
        <ele>133.73046875</ele>
      </trkpt>
      <trkpt lat="45.99115" lon="0.64871">
        <ele>134.8203125</ele>
      </trkpt>
      <trkpt lat="45.99133" lon="0.64835">
        <ele>136.78515625</ele>
      </trkpt>
      <trkpt lat="45.99146" lon="0.64803">
        <ele>138.55859375</ele>
      </trkpt>
      <trkpt lat="45.99162" lon="0.64759">
        <ele>141.046875</ele>
      </trkpt>
      <trkpt lat="45.99167" lon="0.64767">
        <ele>140.875</ele>
      </trkpt>
      <trkpt lat="45.99182" lon="0.64773">
        <ele>141.04296875</ele>
      </trkpt>
      <trkpt lat="45.99226" lon="0.64782">
        <ele>141.44921875</ele>
      </trkpt>
      <trkpt lat="45.99257" lon="0.64788">
        <ele>141.515625</ele>
      </trkpt>
      <trkpt lat="45.99282" lon="0.64789">
        <ele>141.36328125</ele>
      </trkpt>
      <trkpt lat="45.993" lon="0.64787">
        <ele>141.53125</ele>
      </trkpt>
      <trkpt lat="45.99308" lon="0.64765">
        <ele>143.0546875</ele>
      </trkpt>
      <trkpt lat="45.99312" lon="0.64756">
        <ele>143.75</ele>
      </trkpt>
      <trkpt lat="45.99318" lon="0.64734">
        <ele>145.17578125</ele>
      </trkpt>
      <trkpt lat="45.9933" lon="0.64697">
        <ele>146.49609375</ele>
      </trkpt>
      <trkpt lat="45.99332" lon="0.64682">
        <ele>147.03515625</ele>
      </trkpt>
      <trkpt lat="45.99335" lon="0.64672">
        <ele>147.49609375</ele>
      </trkpt>
      <trkpt lat="45.99336" lon="0.64656">
        <ele>148.22265625</ele>
      </trkpt>
      <trkpt lat="45.99325" lon="0.64649">
        <ele>148.671875</ele>
      </trkpt>
      <trkpt lat="45.99326" lon="0.64623">
        <ele>149.76953125</ele>
      </trkpt>
      <trkpt lat="45.99323" lon="0.646">
        <ele>150.234375</ele>
      </trkpt>
      <trkpt lat="45.99321" lon="0.64554">
        <ele>151.09765625</ele>
      </trkpt>
      <trkpt lat="45.99319" lon="0.64507">
        <ele>152.1640625</ele>
      </trkpt>
      <trkpt lat="45.99316" lon="0.64472">
        <ele>153.453125</ele>
      </trkpt>
      <trkpt lat="45.99315" lon="0.64444">
        <ele>154.203125</ele>
      </trkpt>
      <trkpt lat="45.99295" lon="0.64435">
        <ele>154.33203125</ele>
      </trkpt>
      <trkpt lat="45.9926" lon="0.64421">
        <ele>154.453125</ele>
      </trkpt>
      <trkpt lat="45.99238" lon="0.64414">
        <ele>154.12890625</ele>
      </trkpt>
      <trkpt lat="45.99184" lon="0.64375">
        <ele>153.84375</ele>
      </trkpt>
      <trkpt lat="45.99171" lon="0.64356">
        <ele>154.2734375</ele>
      </trkpt>
      <trkpt lat="45.99161" lon="0.64347">
        <ele>154.42578125</ele>
      </trkpt>
      <trkpt lat="45.99155" lon="0.6434">
        <ele>154.55859375</ele>
      </trkpt>
      <trkpt lat="45.99154" lon="0.64331">
        <ele>154.796875</ele>
      </trkpt>
      <trkpt lat="45.99154" lon="0.64316">
        <ele>155.3046875</ele>
      </trkpt>
      <trkpt lat="45.99156" lon="0.64288">
        <ele>156.12109375</ele>
      </trkpt>
      <trkpt lat="45.99157" lon="0.64269">
        <ele>156.44921875</ele>
      </trkpt>
      <trkpt lat="45.99158" lon="0.64254">
        <ele>156.71875</ele>
      </trkpt>
      <trkpt lat="45.99162" lon="0.64218">
        <ele>157.7578125</ele>
      </trkpt>
      <trkpt lat="45.9916" lon="0.64117">
        <ele>160.78515625</ele>
      </trkpt>
      <trkpt lat="45.99154" lon="0.64065">
        <ele>162.78125</ele>
      </trkpt>
      <trkpt lat="45.99145" lon="0.64025">
        <ele>164.59765625</ele>
      </trkpt>
      <trkpt lat="45.99143" lon="0.64007">
        <ele>165.36328125</ele>
      </trkpt>
      <trkpt lat="45.99154" lon="0.63951">
        <ele>167.73828125</ele>
      </trkpt>
      <trkpt lat="45.99167" lon="0.63914">
        <ele>169.2109375</ele>
      </trkpt>
      <trkpt lat="45.99172" lon="0.63877">
        <ele>169.5859375</ele>
      </trkpt>
      <trkpt lat="45.99177" lon="0.63863">
        <ele>169.8046875</ele>
      </trkpt>
      <trkpt lat="45.9919" lon="0.63847">
        <ele>170.47265625</ele>
      </trkpt>
      <trkpt lat="45.99212" lon="0.63838">
        <ele>171.1328125</ele>
      </trkpt>
      <trkpt lat="45.99244" lon="0.63826">
        <ele>172.12890625</ele>
      </trkpt>
      <trkpt lat="45.99281" lon="0.63813">
        <ele>173.33984375</ele>
      </trkpt>
      <trkpt lat="45.99318" lon="0.63802">
        <ele>174.42578125</ele>
      </trkpt>
      <trkpt lat="45.99349" lon="0.63792">
        <ele>175.39453125</ele>
      </trkpt>
      <trkpt lat="45.99386" lon="0.63782">
        <ele>176.625</ele>
      </trkpt>
      <trkpt lat="45.99425" lon="0.63772">
        <ele>178.12109375</ele>
      </trkpt>
      <trkpt lat="45.99455" lon="0.63764">
        <ele>178.9921875</ele>
      </trkpt>
      <trkpt lat="45.99486" lon="0.63749">
        <ele>179.9765625</ele>
      </trkpt>
      <trkpt lat="45.99519" lon="0.6373">
        <ele>180.9375</ele>
      </trkpt>
      <trkpt lat="45.99552" lon="0.63711">
        <ele>180.9453125</ele>
      </trkpt>
      <trkpt lat="45.99582" lon="0.63692">
        <ele>180.1328125</ele>
      </trkpt>
      <trkpt lat="45.99608" lon="0.63687">
        <ele>178.8125</ele>
      </trkpt>
      <trkpt lat="45.99611" lon="0.63708">
        <ele>178.65234375</ele>
      </trkpt>
      <trkpt lat="45.99616" lon="0.63745">
        <ele>178.4765625</ele>
      </trkpt>
      <trkpt lat="45.99624" lon="0.63769">
        <ele>178.33984375</ele>
      </trkpt>
      <trkpt lat="45.99652" lon="0.63809">
        <ele>178.078125</ele>
      </trkpt>
      <trkpt lat="45.99673" lon="0.6384">
        <ele>178.8828125</ele>
      </trkpt>
      <trkpt lat="45.99686" lon="0.63859">
        <ele>179.203125</ele>
      </trkpt>
      <trkpt lat="45.99727" lon="0.63894">
        <ele>177.80859375</ele>
      </trkpt>
      <trkpt lat="45.99736" lon="0.63901">
        <ele>177.5625</ele>
      </trkpt>
      <trkpt lat="45.99744" lon="0.63919">
        <ele>177.1171875</ele>
      </trkpt>
      <trkpt lat="45.99745" lon="0.6395">
        <ele>176.6015625</ele>
      </trkpt>
      <trkpt lat="45.9975" lon="0.63977">
        <ele>175.875</ele>
      </trkpt>
      <trkpt lat="45.9977" lon="0.64022">
        <ele>173.515625</ele>
      </trkpt>
      <trkpt lat="45.99788" lon="0.64063">
        <ele>169.98828125</ele>
      </trkpt>
      <trkpt lat="45.99803" lon="0.64107">
        <ele>166.35546875</ele>
      </trkpt>
      <trkpt lat="45.99816" lon="0.64139">
        <ele>163.72265625</ele>
      </trkpt>
      <trkpt lat="45.99828" lon="0.64174">
        <ele>160.81640625</ele>
      </trkpt>
      <trkpt lat="45.99848" lon="0.64236">
        <ele>156.703125</ele>
      </trkpt>
      <trkpt lat="45.99854" lon="0.64261">
        <ele>155.3046875</ele>
      </trkpt>
      <trkpt lat="45.99859" lon="0.64311">
        <ele>153.35546875</ele>
      </trkpt>
      <trkpt lat="45.99867" lon="0.64374">
        <ele>151.27734375</ele>
      </trkpt>
      <trkpt lat="45.99864" lon="0.64411">
        <ele>149.65625</ele>
      </trkpt>
      <trkpt lat="45.99862" lon="0.64419">
        <ele>149.40625</ele>
      </trkpt>
      <trkpt lat="45.99845" lon="0.64466">
        <ele>148.9765625</ele>
      </trkpt>
      <trkpt lat="45.99848" lon="0.64479">
        <ele>147.43359375</ele>
      </trkpt>
      <trkpt lat="45.99864" lon="0.64496">
        <ele>143.79296875</ele>
      </trkpt>
      <trkpt lat="45.99864" lon="0.64535">
        <ele>141.39453125</ele>
      </trkpt>
      <trkpt lat="45.99856" lon="0.6456">
        <ele>141.46875</ele>
      </trkpt>
      <trkpt lat="45.9985" lon="0.64601">
        <ele>140.8984375</ele>
      </trkpt>
      <trkpt lat="45.99846" lon="0.64614">
        <ele>140.7578125</ele>
      </trkpt>
      <trkpt lat="45.99844" lon="0.64639">
        <ele>140.6171875</ele>
      </trkpt>
      <trkpt lat="45.99851" lon="0.64652">
        <ele>140.6484375</ele>
      </trkpt>
      <trkpt lat="45.99861" lon="0.64671">
        <ele>141.3125</ele>
      </trkpt>
      <trkpt lat="45.99871" lon="0.64685">
        <ele>142.7265625</ele>
      </trkpt>
      <trkpt lat="45.9988" lon="0.64694">
        <ele>144.23828125</ele>
      </trkpt>
      <trkpt lat="45.99891" lon="0.64707">
        <ele>146.3671875</ele>
      </trkpt>
      <trkpt lat="45.99901" lon="0.64721">
        <ele>148.5390625</ele>
      </trkpt>
      <trkpt lat="45.99909" lon="0.64732">
        <ele>150.33984375</ele>
      </trkpt>
      <trkpt lat="45.9992" lon="0.64744">
        <ele>152.44140625</ele>
      </trkpt>
      <trkpt lat="45.99935" lon="0.64763">
        <ele>154.63671875</ele>
      </trkpt>
      <trkpt lat="45.99947" lon="0.64779">
        <ele>156.16015625</ele>
      </trkpt>
      <trkpt lat="45.99955" lon="0.64795">
        <ele>157.33203125</ele>
      </trkpt>
      <trkpt lat="45.99965" lon="0.64816">
        <ele>158.74609375</ele>
      </trkpt>
      <trkpt lat="45.99974" lon="0.64829">
        <ele>159.87109375</ele>
      </trkpt>
      <trkpt lat="45.99986" lon="0.64846">
        <ele>161.44140625</ele>
      </trkpt>
      <trkpt lat="46.00001" lon="0.64864">
        <ele>162.40625</ele>
      </trkpt>
      <trkpt lat="46.00015" lon="0.64879">
        <ele>162.91015625</ele>
      </trkpt>
      <trkpt lat="46.00029" lon="0.64875">
        <ele>163.49609375</ele>
      </trkpt>
      <trkpt lat="46.00049" lon="0.64862">
        <ele>164.75390625</ele>
      </trkpt>
      <trkpt lat="46.0007" lon="0.64851">
        <ele>166.12109375</ele>
      </trkpt>
      <trkpt lat="46.00089" lon="0.64841">
        <ele>167.1796875</ele>
      </trkpt>
      <trkpt lat="46.00109" lon="0.64834">
        <ele>168.234375</ele>
      </trkpt>
      <trkpt lat="46.00134" lon="0.64822">
        <ele>169.5859375</ele>
      </trkpt>
      <trkpt lat="46.00157" lon="0.64819">
        <ele>170.8671875</ele>
      </trkpt>
      <trkpt lat="46.00183" lon="0.64819">
        <ele>172.33984375</ele>
      </trkpt>
      <trkpt lat="46.00198" lon="0.64804">
        <ele>173.734375</ele>
      </trkpt>
      <trkpt lat="46.00215" lon="0.64779">
        <ele>175.64453125</ele>
      </trkpt>
      <trkpt lat="46.00238" lon="0.6476">
        <ele>177.99609375</ele>
      </trkpt>
      <trkpt lat="46.00262" lon="0.64755">
        <ele>179.83203125</ele>
      </trkpt>
      <trkpt lat="46.00294" lon="0.64738">
        <ele>182.23828125</ele>
      </trkpt>
      <trkpt lat="46.00327" lon="0.64711">
        <ele>183.8203125</ele>
      </trkpt>
      <trkpt lat="46.00353" lon="0.64691">
        <ele>184.6484375</ele>
      </trkpt>
      <trkpt lat="46.00371" lon="0.64662">
        <ele>185.41015625</ele>
      </trkpt>
      <trkpt lat="46.00388" lon="0.64629">
        <ele>185.5625</ele>
      </trkpt>
      <trkpt lat="46.00413" lon="0.64602">
        <ele>184.65625</ele>
      </trkpt>
      <trkpt lat="46.00442" lon="0.64593">
        <ele>184.13671875</ele>
      </trkpt>
      <trkpt lat="46.00482" lon="0.64593">
        <ele>183.75</ele>
      </trkpt>
      <trkpt lat="46.00522" lon="0.64587">
        <ele>183.5546875</ele>
      </trkpt>
      <trkpt lat="46.00544" lon="0.64585">
        <ele>183.03515625</ele>
      </trkpt>
      <trkpt lat="46.0056" lon="0.64575">
        <ele>182.078125</ele>
      </trkpt>
      <trkpt lat="46.00555" lon="0.64544">
        <ele>181.34765625</ele>
      </trkpt>
      <trkpt lat="46.00546" lon="0.64499">
        <ele>180.27734375</ele>
      </trkpt>
      <trkpt lat="46.00526" lon="0.64382">
        <ele>177.80078125</ele>
      </trkpt>
      <trkpt lat="46.00518" lon="0.64302">
        <ele>177.14453125</ele>
      </trkpt>
      <trkpt lat="46.00516" lon="0.64269">
        <ele>177.39453125</ele>
      </trkpt>
      <trkpt lat="46.00513" lon="0.64245">
        <ele>177.640625</ele>
      </trkpt>
      <trkpt lat="46.00504" lon="0.64183">
        <ele>179.125</ele>
      </trkpt>
      <trkpt lat="46.00487" lon="0.64107">
        <ele>181.01171875</ele>
      </trkpt>
      <trkpt lat="46.00474" lon="0.64055">
        <ele>181.67578125</ele>
      </trkpt>
      <trkpt lat="46.00467" lon="0.64026">
        <ele>181.125</ele>
      </trkpt>
      <trkpt lat="46.00448" lon="0.63962">
        <ele>179.99609375</ele>
      </trkpt>
      <trkpt lat="46.0042" lon="0.63886">
        <ele>177.6015625</ele>
      </trkpt>
      <trkpt lat="46.00389" lon="0.6383">
        <ele>174.42578125</ele>
      </trkpt>
      <trkpt lat="46.00372" lon="0.63805">
        <ele>172.83203125</ele>
      </trkpt>
      <trkpt lat="46.00348" lon="0.6377">
        <ele>170.84375</ele>
      </trkpt>
      <trkpt lat="46.00318" lon="0.63732">
        <ele>168.21875</ele>
      </trkpt>
      <trkpt lat="46.00294" lon="0.63701">
        <ele>165.32421875</ele>
      </trkpt>
      <trkpt lat="46.00269" lon="0.63676">
        <ele>161.6953125</ele>
      </trkpt>
      <trkpt lat="46.00245" lon="0.63657">
        <ele>158.671875</ele>
      </trkpt>
      <trkpt lat="46.00234" lon="0.63645">
        <ele>157.265625</ele>
      </trkpt>
      <trkpt lat="46.00215" lon="0.63608">
        <ele>155.31640625</ele>
      </trkpt>
      <trkpt lat="46.00211" lon="0.63576">
        <ele>155.421875</ele>
      </trkpt>
      <trkpt lat="46.00215" lon="0.63558">
        <ele>155.88671875</ele>
      </trkpt>
      <trkpt lat="46.00229" lon="0.63535">
        <ele>156.55078125</ele>
      </trkpt>
      <trkpt lat="46.00234" lon="0.63521">
        <ele>156.45703125</ele>
      </trkpt>
      <trkpt lat="46.00229" lon="0.63486">
        <ele>156.3046875</ele>
      </trkpt>
      <trkpt lat="46.0021" lon="0.63476">
        <ele>156.42578125</ele>
      </trkpt>
      <trkpt lat="46.00194" lon="0.63476">
        <ele>156.66796875</ele>
      </trkpt>
      <trkpt lat="46.00178" lon="0.63467">
        <ele>158.15234375</ele>
      </trkpt>
      <trkpt lat="46.00173" lon="0.63441">
        <ele>159.64453125</ele>
      </trkpt>
      <trkpt lat="46.00169" lon="0.63416">
        <ele>161.12890625</ele>
      </trkpt>
      <trkpt lat="46.00163" lon="0.63384">
        <ele>162.8984375</ele>
      </trkpt>
      <trkpt lat="46.00157" lon="0.63359">
        <ele>164.29296875</ele>
      </trkpt>
      <trkpt lat="46.00153" lon="0.63338">
        <ele>165.7578125</ele>
      </trkpt>
      <trkpt lat="46.00149" lon="0.63319">
        <ele>167.5234375</ele>
      </trkpt>
      <trkpt lat="46.00144" lon="0.63303">
        <ele>169.1484375</ele>
      </trkpt>
      <trkpt lat="46.00139" lon="0.63278">
        <ele>171.3515625</ele>
      </trkpt>
      <trkpt lat="46.00134" lon="0.63251">
        <ele>173.5546875</ele>
      </trkpt>
      <trkpt lat="46.0013" lon="0.63224">
        <ele>175.71875</ele>
      </trkpt>
      <trkpt lat="46.00128" lon="0.63195">
        <ele>177.71875</ele>
      </trkpt>
      <trkpt lat="46.00124" lon="0.63163">
        <ele>180.05859375</ele>
      </trkpt>
      <trkpt lat="46.00123" lon="0.63139">
        <ele>181.63671875</ele>
      </trkpt>
      <trkpt lat="46.00123" lon="0.63113">
        <ele>183</ele>
      </trkpt>
      <trkpt lat="46.00126" lon="0.63077">
        <ele>184.39453125</ele>
      </trkpt>
      <trkpt lat="46.00137" lon="0.63054">
        <ele>184.84765625</ele>
      </trkpt>
      <trkpt lat="46.00146" lon="0.63025">
        <ele>185.34765625</ele>
      </trkpt>
      <trkpt lat="46.00152" lon="0.62996">
        <ele>186.4765625</ele>
      </trkpt>
      <trkpt lat="46.00155" lon="0.62954">
        <ele>188.40234375</ele>
      </trkpt>
      <trkpt lat="46.00157" lon="0.62914">
        <ele>189.03515625</ele>
      </trkpt>
      <trkpt lat="46.00159" lon="0.62872">
        <ele>189.26953125</ele>
      </trkpt>
      <trkpt lat="46.00156" lon="0.62827">
        <ele>189.05859375</ele>
      </trkpt>
      <trkpt lat="46.00146" lon="0.62789">
        <ele>188.74609375</ele>
      </trkpt>
      <trkpt lat="46.00133" lon="0.62754">
        <ele>188.703125</ele>
      </trkpt>
      <trkpt lat="46.00114" lon="0.62704">
        <ele>190.15234375</ele>
      </trkpt>
      <trkpt lat="46.00098" lon="0.62659">
        <ele>192.2265625</ele>
      </trkpt>
      <trkpt lat="46.0008" lon="0.62604">
        <ele>194.9921875</ele>
      </trkpt>
      <trkpt lat="46.00066" lon="0.62551">
        <ele>195.75390625</ele>
      </trkpt>
      <trkpt lat="46.00056" lon="0.62504">
        <ele>195.06640625</ele>
      </trkpt>
      <trkpt lat="46.00053" lon="0.62488">
        <ele>194.5390625</ele>
      </trkpt>
      <trkpt lat="46.00047" lon="0.6245">
        <ele>193.01953125</ele>
      </trkpt>
      <trkpt lat="46.00036" lon="0.62374">
        <ele>189.1171875</ele>
      </trkpt>
      <trkpt lat="46.00032" lon="0.6231">
        <ele>185.734375</ele>
      </trkpt>
      <trkpt lat="46.00024" lon="0.62275">
        <ele>185.578125</ele>
      </trkpt>
      <trkpt lat="45.99999" lon="0.62233">
        <ele>187.3984375</ele>
      </trkpt>
      <trkpt lat="45.99995" lon="0.62212">
        <ele>188.0625</ele>
      </trkpt>
      <trkpt lat="45.99997" lon="0.62198">
        <ele>188.1484375</ele>
      </trkpt>
      <trkpt lat="46.00016" lon="0.62162">
        <ele>187.48828125</ele>
      </trkpt>
      <trkpt lat="46.00028" lon="0.62138">
        <ele>187.03515625</ele>
      </trkpt>
      <trkpt lat="46.0006" lon="0.62104">
        <ele>185.81640625</ele>
      </trkpt>
      <trkpt lat="46.0007" lon="0.62091">
        <ele>185.5</ele>
      </trkpt>
      <trkpt lat="46.00079" lon="0.62077">
        <ele>185.375</ele>
      </trkpt>
      <trkpt lat="46.00083" lon="0.62069">
        <ele>185.32421875</ele>
      </trkpt>
      <trkpt lat="46.00089" lon="0.62053">
        <ele>185.046875</ele>
      </trkpt>
      <trkpt lat="46.00097" lon="0.62022">
        <ele>184.953125</ele>
      </trkpt>
      <trkpt lat="46.00097" lon="0.62">
        <ele>185.67578125</ele>
      </trkpt>
      <trkpt lat="46.0009" lon="0.6194">
        <ele>187.3046875</ele>
      </trkpt>
      <trkpt lat="46.00087" lon="0.61924">
        <ele>187.2578125</ele>
      </trkpt>
      <trkpt lat="46.00088" lon="0.61895">
        <ele>186.328125</ele>
      </trkpt>
      <trkpt lat="46.00091" lon="0.61872">
        <ele>185.1875</ele>
      </trkpt>
      <trkpt lat="46.00088" lon="0.61852">
        <ele>184.12109375</ele>
      </trkpt>
      <trkpt lat="46.00084" lon="0.61834">
        <ele>184.44921875</ele>
      </trkpt>
      <trkpt lat="46.00077" lon="0.61815">
        <ele>184.9296875</ele>
      </trkpt>
      <trkpt lat="46.00073" lon="0.61805">
        <ele>185.03125</ele>
      </trkpt>
      <trkpt lat="46.00048" lon="0.61755">
        <ele>185.82421875</ele>
      </trkpt>
      <trkpt lat="46.00023" lon="0.61709">
        <ele>185.1953125</ele>
      </trkpt>
      <trkpt lat="46.0001" lon="0.61681">
        <ele>186.44921875</ele>
      </trkpt>
      <trkpt lat="46.00025" lon="0.61665">
        <ele>186.484375</ele>
      </trkpt>
      <trkpt lat="46.00037" lon="0.61653">
        <ele>187.81640625</ele>
      </trkpt>
      <trkpt lat="46.00043" lon="0.61651">
        <ele>189.01171875</ele>
      </trkpt>
      <trkpt lat="46.00051" lon="0.61649">
        <ele>190.51171875</ele>
      </trkpt>
      <trkpt lat="46.00057" lon="0.6165">
        <ele>191.68359375</ele>
      </trkpt>
      <trkpt lat="46.00063" lon="0.61654">
        <ele>192.7578125</ele>
      </trkpt>
      <trkpt lat="46.00071" lon="0.61663">
        <ele>194.03515625</ele>
      </trkpt>
      <trkpt lat="46.00089" lon="0.61687">
        <ele>196.1328125</ele>
      </trkpt>
      <trkpt lat="46.00105" lon="0.61706">
        <ele>196.234375</ele>
      </trkpt>
      <trkpt lat="46.00116" lon="0.61721">
        <ele>196.3046875</ele>
      </trkpt>
      <trkpt lat="46.00123" lon="0.61729">
        <ele>196.5390625</ele>
      </trkpt>
      <trkpt lat="46.00143" lon="0.61756">
        <ele>196.7421875</ele>
      </trkpt>
      <trkpt lat="46.00165" lon="0.61784">
        <ele>196.71875</ele>
      </trkpt>
      <trkpt lat="46.00195" lon="0.61824">
        <ele>198.08984375</ele>
      </trkpt>
      <trkpt lat="46.00219" lon="0.61856">
        <ele>198.7734375</ele>
      </trkpt>
      <trkpt lat="46.00247" lon="0.61894">
        <ele>200.53125</ele>
      </trkpt>
      <trkpt lat="46.00252" lon="0.61904">
        <ele>200.99609375</ele>
      </trkpt>
      <trkpt lat="46.00254" lon="0.61905">
        <ele>201.09375</ele>
      </trkpt>
      <trkpt lat="46.00257" lon="0.61903">
        <ele>201.25</ele>
      </trkpt>
      <trkpt lat="46.00262" lon="0.61897">
        <ele>201.53515625</ele>
      </trkpt>
      <trkpt lat="46.00267" lon="0.61888">
        <ele>201.94140625</ele>
      </trkpt>
      <trkpt lat="46.00271" lon="0.61878">
        <ele>202.3515625</ele>
      </trkpt>
      <trkpt lat="46.00275" lon="0.61867">
        <ele>202.7890625</ele>
      </trkpt>
      <trkpt lat="46.00276" lon="0.6186">
        <ele>203.05078125</ele>
      </trkpt>
      <trkpt lat="46.00277" lon="0.61857">
        <ele>203.14453125</ele>
      </trkpt>
      <trkpt lat="46.00296" lon="0.61863">
        <ele>203.95703125</ele>
      </trkpt>
      <trkpt lat="46.00317" lon="0.61872">
        <ele>204.41796875</ele>
      </trkpt>
      <trkpt lat="46.0035" lon="0.61885">
        <ele>204.546875</ele>
      </trkpt>
      <trkpt lat="46.00377" lon="0.61898">
        <ele>204.06640625</ele>
      </trkpt>
      <trkpt lat="46.00402" lon="0.6192">
        <ele>202.61328125</ele>
      </trkpt>
      <trkpt lat="46.00457" lon="0.61955">
        <ele>199.6484375</ele>
      </trkpt>
      <trkpt lat="46.00504" lon="0.61992">
        <ele>197.671875</ele>
      </trkpt>
      <trkpt lat="46.00559" lon="0.62037">
        <ele>195.453125</ele>
      </trkpt>
      <trkpt lat="46.00611" lon="0.62078">
        <ele>191.515625</ele>
      </trkpt>
      <trkpt lat="46.00632" lon="0.62113">
        <ele>188.296875</ele>
      </trkpt>
      <trkpt lat="46.00644" lon="0.62146">
        <ele>185.4765625</ele>
      </trkpt>
      <trkpt lat="46.00648" lon="0.62177">
        <ele>182.91015625</ele>
      </trkpt>
      <trkpt lat="46.00655" lon="0.62215">
        <ele>178.578125</ele>
      </trkpt>
      <trkpt lat="46.00667" lon="0.6223">
        <ele>176.21875</ele>
      </trkpt>
      <trkpt lat="46.00686" lon="0.62236">
        <ele>174.1328125</ele>
      </trkpt>
      <trkpt lat="46.00702" lon="0.62244">
        <ele>173.1953125</ele>
      </trkpt>
      <trkpt lat="46.00709" lon="0.62258">
        <ele>173.5078125</ele>
      </trkpt>
      <trkpt lat="46.00716" lon="0.62273">
        <ele>173.875</ele>
      </trkpt>
      <trkpt lat="46.00723" lon="0.62288">
        <ele>174.40234375</ele>
      </trkpt>
      <trkpt lat="46.00732" lon="0.62302">
        <ele>175.4921875</ele>
      </trkpt>
      <trkpt lat="46.0074" lon="0.62315">
        <ele>176.85546875</ele>
      </trkpt>
      <trkpt lat="46.00755" lon="0.6234">
        <ele>178.9921875</ele>
      </trkpt>
      <trkpt lat="46.00765" lon="0.6236">
        <ele>180.6640625</ele>
      </trkpt>
      <trkpt lat="46.00773" lon="0.62384">
        <ele>181.53125</ele>
      </trkpt>
      <trkpt lat="46.00776" lon="0.62412">
        <ele>181.91796875</ele>
      </trkpt>
      <trkpt lat="46.00779" lon="0.62437">
        <ele>182.796875</ele>
      </trkpt>
      <trkpt lat="46.00783" lon="0.62469">
        <ele>183.83984375</ele>
      </trkpt>
      <trkpt lat="46.0079" lon="0.62497">
        <ele>184.9140625</ele>
      </trkpt>
      <trkpt lat="46.00797" lon="0.62538">
        <ele>186.57421875</ele>
      </trkpt>
      <trkpt lat="46.00803" lon="0.62571">
        <ele>188.17578125</ele>
      </trkpt>
      <trkpt lat="46.00803" lon="0.62601">
        <ele>190.23046875</ele>
      </trkpt>
      <trkpt lat="46.00803" lon="0.62629">
        <ele>192.203125</ele>
      </trkpt>
      <trkpt lat="46.0081" lon="0.62653">
        <ele>193.28515625</ele>
      </trkpt>
      <trkpt lat="46.00821" lon="0.6268">
        <ele>194.75</ele>
      </trkpt>
      <trkpt lat="46.0084" lon="0.6272">
        <ele>196.30859375</ele>
      </trkpt>
      <trkpt lat="46.00864" lon="0.62751">
        <ele>197.40234375</ele>
      </trkpt>
      <trkpt lat="46.00892" lon="0.62782">
        <ele>198.421875</ele>
      </trkpt>
      <trkpt lat="46.0092" lon="0.62814">
        <ele>199.3125</ele>
      </trkpt>
      <trkpt lat="46.00939" lon="0.62835">
        <ele>199.2578125</ele>
      </trkpt>
      <trkpt lat="46.00973" lon="0.62861">
        <ele>199.2265625</ele>
      </trkpt>
      <trkpt lat="46.01013" lon="0.62888">
        <ele>199.44921875</ele>
      </trkpt>
      <trkpt lat="46.0105" lon="0.62923">
        <ele>200.19921875</ele>
      </trkpt>
      <trkpt lat="46.01067" lon="0.62943">
        <ele>200.21484375</ele>
      </trkpt>
      <trkpt lat="46.01086" lon="0.62949">
        <ele>199.97265625</ele>
      </trkpt>
      <trkpt lat="46.01099" lon="0.62919">
        <ele>199.69140625</ele>
      </trkpt>
      <trkpt lat="46.01123" lon="0.62878">
        <ele>199.66796875</ele>
      </trkpt>
      <trkpt lat="46.01165" lon="0.62827">
        <ele>199.75</ele>
      </trkpt>
      <trkpt lat="46.01215" lon="0.62769">
        <ele>200.4296875</ele>
      </trkpt>
      <trkpt lat="46.01261" lon="0.62704">
        <ele>202.6875</ele>
      </trkpt>
      <trkpt lat="46.01295" lon="0.62658">
        <ele>205.01171875</ele>
      </trkpt>
      <trkpt lat="46.01338" lon="0.62603">
        <ele>208.08203125</ele>
      </trkpt>
      <trkpt lat="46.01369" lon="0.6257">
        <ele>210.0546875</ele>
      </trkpt>
      <trkpt lat="46.01395" lon="0.62545">
        <ele>210.5</ele>
      </trkpt>
      <trkpt lat="46.01428" lon="0.6251">
        <ele>210.859375</ele>
      </trkpt>
      <trkpt lat="46.01465" lon="0.62471">
        <ele>210.8671875</ele>
      </trkpt>
      <trkpt lat="46.01503" lon="0.62428">
        <ele>211.3203125</ele>
      </trkpt>
      <trkpt lat="46.01539" lon="0.62381">
        <ele>212</ele>
      </trkpt>
      <trkpt lat="46.01581" lon="0.62323">
        <ele>212.46875</ele>
      </trkpt>
      <trkpt lat="46.01621" lon="0.6226">
        <ele>212.3515625</ele>
      </trkpt>
      <trkpt lat="46.01656" lon="0.62203">
        <ele>211.54296875</ele>
      </trkpt>
      <trkpt lat="46.01691" lon="0.62112">
        <ele>211.97265625</ele>
      </trkpt>
      <trkpt lat="46.01723" lon="0.62035">
        <ele>211.6328125</ele>
      </trkpt>
      <trkpt lat="46.01793" lon="0.61978">
        <ele>212.34375</ele>
      </trkpt>
      <trkpt lat="46.019" lon="0.61808">
        <ele>211.74609375</ele>
      </trkpt>
      <trkpt lat="46.02139" lon="0.61392">
        <ele>218.23046875</ele>
      </trkpt>
      <trkpt lat="46.02168" lon="0.61342">
        <ele>219.5703125</ele>
      </trkpt>
      <trkpt lat="46.02205" lon="0.6128">
        <ele>220.88671875</ele>
      </trkpt>
      <trkpt lat="46.02235" lon="0.61226">
        <ele>221.18359375</ele>
      </trkpt>
      <trkpt lat="46.02269" lon="0.61126">
        <ele>222.3671875</ele>
      </trkpt>
      <trkpt lat="46.02288" lon="0.61071">
        <ele>223.6640625</ele>
      </trkpt>
      <trkpt lat="46.02322" lon="0.60966">
        <ele>224.5546875</ele>
      </trkpt>
      <trkpt lat="46.02349" lon="0.60886">
        <ele>224.9921875</ele>
      </trkpt>
      <trkpt lat="46.02408" lon="0.60758">
        <ele>225.0703125</ele>
      </trkpt>
      <trkpt lat="46.02409" lon="0.60675">
        <ele>224.6484375</ele>
      </trkpt>
      <trkpt lat="46.02422" lon="0.60583">
        <ele>222.23828125</ele>
      </trkpt>
      <trkpt lat="46.02439" lon="0.6053">
        <ele>220.81640625</ele>
      </trkpt>
      <trkpt lat="46.02449" lon="0.60515">
        <ele>220.375</ele>
      </trkpt>
      <trkpt lat="46.02456" lon="0.60508">
        <ele>220.13671875</ele>
      </trkpt>
      <trkpt lat="46.02435" lon="0.60486">
        <ele>220.1171875</ele>
      </trkpt>
      <trkpt lat="46.02421" lon="0.60466">
        <ele>219.99609375</ele>
      </trkpt>
      <trkpt lat="46.02397" lon="0.60411">
        <ele>218.87890625</ele>
      </trkpt>
      <trkpt lat="46.02367" lon="0.60357">
        <ele>218</ele>
      </trkpt>
      <trkpt lat="46.02342" lon="0.60308">
        <ele>217.203125</ele>
      </trkpt>
      <trkpt lat="46.02322" lon="0.60269">
        <ele>216.8671875</ele>
      </trkpt>
      <trkpt lat="46.02315" lon="0.60247">
        <ele>216.875</ele>
      </trkpt>
      <trkpt lat="46.02308" lon="0.60225">
        <ele>216.9765625</ele>
      </trkpt>
      <trkpt lat="46.02301" lon="0.60196">
        <ele>217</ele>
      </trkpt>
      <trkpt lat="46.02294" lon="0.60168">
        <ele>217.07421875</ele>
      </trkpt>
      <trkpt lat="46.02277" lon="0.60113">
        <ele>217.5390625</ele>
      </trkpt>
      <trkpt lat="46.02272" lon="0.60099">
        <ele>217.625</ele>
      </trkpt>
      <trkpt lat="46.02252" lon="0.60034">
        <ele>217.265625</ele>
      </trkpt>
      <trkpt lat="46.02242" lon="0.60001">
        <ele>216.9453125</ele>
      </trkpt>
      <trkpt lat="46.02228" lon="0.59963">
        <ele>216.578125</ele>
      </trkpt>
      <trkpt lat="46.02213" lon="0.59918">
        <ele>216.6171875</ele>
      </trkpt>
      <trkpt lat="46.02206" lon="0.59893">
        <ele>216.8203125</ele>
      </trkpt>
      <trkpt lat="46.02194" lon="0.59839">
        <ele>217</ele>
      </trkpt>
      <trkpt lat="46.02173" lon="0.59771">
        <ele>217</ele>
      </trkpt>
      <trkpt lat="46.02154" lon="0.59693">
        <ele>217.4453125</ele>
      </trkpt>
      <trkpt lat="46.02134" lon="0.59645">
        <ele>218.08203125</ele>
      </trkpt>
      <trkpt lat="46.02116" lon="0.5958">
        <ele>219.33984375</ele>
      </trkpt>
      <trkpt lat="46.02111" lon="0.59567">
        <ele>219.52734375</ele>
      </trkpt>
      <trkpt lat="46.02105" lon="0.59547">
        <ele>219.63671875</ele>
      </trkpt>
      <trkpt lat="46.02099" lon="0.5953">
        <ele>219.75</ele>
      </trkpt>
      <trkpt lat="46.02071" lon="0.59484">
        <ele>220.50390625</ele>
      </trkpt>
      <trkpt lat="46.02032" lon="0.59433">
        <ele>222.45703125</ele>
      </trkpt>
      <trkpt lat="46.02021" lon="0.59422">
        <ele>223.015625</ele>
      </trkpt>
      <trkpt lat="46.01995" lon="0.59393">
        <ele>224.8125</ele>
      </trkpt>
      <trkpt lat="46.01966" lon="0.59366">
        <ele>226.6953125</ele>
      </trkpt>
      <trkpt lat="46.01941" lon="0.59344">
        <ele>227.8359375</ele>
      </trkpt>
      <trkpt lat="46.01919" lon="0.59321">
        <ele>229.125</ele>
      </trkpt>
      <trkpt lat="46.01889" lon="0.59296">
        <ele>230.015625</ele>
      </trkpt>
      <trkpt lat="46.01856" lon="0.59279">
        <ele>230.41015625</ele>
      </trkpt>
      <trkpt lat="46.01817" lon="0.59254">
        <ele>230.9609375</ele>
      </trkpt>
      <trkpt lat="46.01786" lon="0.59243">
        <ele>231</ele>
      </trkpt>
      <trkpt lat="46.01759" lon="0.59238">
        <ele>231</ele>
      </trkpt>
      <trkpt lat="46.01734" lon="0.59235">
        <ele>231</ele>
      </trkpt>
      <trkpt lat="46.01712" lon="0.59235">
        <ele>231</ele>
      </trkpt>
      <trkpt lat="46.01701" lon="0.59225">
        <ele>231</ele>
      </trkpt>
      <trkpt lat="46.01694" lon="0.59199">
        <ele>231</ele>
      </trkpt>
      <trkpt lat="46.01684" lon="0.59174">
        <ele>230.94921875</ele>
      </trkpt>
      <trkpt lat="46.01676" lon="0.59151">
        <ele>230.765625</ele>
      </trkpt>
      <trkpt lat="46.01662" lon="0.59113">
        <ele>230.07421875</ele>
      </trkpt>
      <trkpt lat="46.01647" lon="0.5907">
        <ele>229.01171875</ele>
      </trkpt>
      <trkpt lat="46.01633" lon="0.59032">
        <ele>228.22265625</ele>
      </trkpt>
      <trkpt lat="46.01606" lon="0.58959">
        <ele>226.96484375</ele>
      </trkpt>
      <trkpt lat="46.0158" lon="0.589">
        <ele>226.86328125</ele>
      </trkpt>
      <trkpt lat="46.01542" lon="0.58827">
        <ele>226.30859375</ele>
      </trkpt>
      <trkpt lat="46.01508" lon="0.58773">
        <ele>225.5546875</ele>
      </trkpt>
      <trkpt lat="46.0147" lon="0.5872">
        <ele>224.6875</ele>
      </trkpt>
      <trkpt lat="46.01426" lon="0.58653">
        <ele>224.20703125</ele>
      </trkpt>
      <trkpt lat="46.01392" lon="0.58595">
        <ele>224.0078125</ele>
      </trkpt>
      <trkpt lat="46.01374" lon="0.58544">
        <ele>223.234375</ele>
      </trkpt>
      <trkpt lat="46.01353" lon="0.58482">
        <ele>223.18359375</ele>
      </trkpt>
      <trkpt lat="46.01333" lon="0.58412">
        <ele>222.58984375</ele>
      </trkpt>
      <trkpt lat="46.01313" lon="0.58338">
        <ele>221.69140625</ele>
      </trkpt>
      <trkpt lat="46.01299" lon="0.58267">
        <ele>220.609375</ele>
      </trkpt>
      <trkpt lat="46.01283" lon="0.58224">
        <ele>220.11328125</ele>
      </trkpt>
      <trkpt lat="46.0125" lon="0.58161">
        <ele>220.0234375</ele>
      </trkpt>
      <trkpt lat="46.01228" lon="0.58108">
        <ele>219.76171875</ele>
      </trkpt>
      <trkpt lat="46.01213" lon="0.58071">
        <ele>219.63671875</ele>
      </trkpt>
      <trkpt lat="46.01195" lon="0.5801">
        <ele>218.84765625</ele>
      </trkpt>
      <trkpt lat="46.01178" lon="0.57964">
        <ele>218</ele>
      </trkpt>
      <trkpt lat="46.01174" lon="0.57936">
        <ele>218</ele>
      </trkpt>
      <trkpt lat="46.01173" lon="0.5793">
        <ele>218</ele>
      </trkpt>
      <trkpt lat="46.01166" lon="0.57885">
        <ele>217.5703125</ele>
      </trkpt>
      <trkpt lat="46.01163" lon="0.57873">
        <ele>217.3515625</ele>
      </trkpt>
      <trkpt lat="46.01145" lon="0.57829">
        <ele>216.5625</ele>
      </trkpt>
      <trkpt lat="46.0113" lon="0.57801">
        <ele>215.84375</ele>
      </trkpt>
      <trkpt lat="46.01121" lon="0.5778">
        <ele>214.98046875</ele>
      </trkpt>
      <trkpt lat="46.01107" lon="0.57748">
        <ele>213.5703125</ele>
      </trkpt>
      <trkpt lat="46.01099" lon="0.57726">
        <ele>212.625</ele>
      </trkpt>
      <trkpt lat="46.01092" lon="0.57689">
        <ele>211.203125</ele>
      </trkpt>
      <trkpt lat="46.01079" lon="0.5767">
        <ele>209.86328125</ele>
      </trkpt>
      <trkpt lat="46.0107" lon="0.57657">
        <ele>208.9453125</ele>
      </trkpt>
      <trkpt lat="46.01059" lon="0.57631">
        <ele>207.4765625</ele>
      </trkpt>
      <trkpt lat="46.01053" lon="0.57604">
        <ele>206.109375</ele>
      </trkpt>
      <trkpt lat="46.01042" lon="0.57566">
        <ele>203.6875</ele>
      </trkpt>
      <trkpt lat="46.01029" lon="0.57531">
        <ele>200.74609375</ele>
      </trkpt>
      <trkpt lat="46.0102" lon="0.57496">
        <ele>197.84375</ele>
      </trkpt>
      <trkpt lat="46.01015" lon="0.57474">
        <ele>196.12109375</ele>
      </trkpt>
      <trkpt lat="46.01006" lon="0.57422">
        <ele>192.375</ele>
      </trkpt>
      <trkpt lat="46.0102" lon="0.57402">
        <ele>191.5859375</ele>
      </trkpt>
      <trkpt lat="46.01034" lon="0.57381">
        <ele>191.0078125</ele>
      </trkpt>
      <trkpt lat="46.01014" lon="0.57369">
        <ele>190.44921875</ele>
      </trkpt>
      <trkpt lat="46.01007" lon="0.57328">
        <ele>190.4609375</ele>
      </trkpt>
      <trkpt lat="46.01002" lon="0.57293">
        <ele>191.23046875</ele>
      </trkpt>
      <trkpt lat="46.00994" lon="0.57259">
        <ele>192.8671875</ele>
      </trkpt>
      <trkpt lat="46.00991" lon="0.57242">
        <ele>193.73046875</ele>
      </trkpt>
      <trkpt lat="46.00981" lon="0.57204">
        <ele>195.3828125</ele>
      </trkpt>
      <trkpt lat="46.00972" lon="0.57169">
        <ele>197.3515625</ele>
      </trkpt>
      <trkpt lat="46.00963" lon="0.5713">
        <ele>200.0546875</ele>
      </trkpt>
      <trkpt lat="46.00957" lon="0.57098">
        <ele>201.21484375</ele>
      </trkpt>
      <trkpt lat="46.00948" lon="0.57061">
        <ele>202.54296875</ele>
      </trkpt>
      <trkpt lat="46.00939" lon="0.5702">
        <ele>204.01953125</ele>
      </trkpt>
      <trkpt lat="46.00933" lon="0.56981">
        <ele>204.7109375</ele>
      </trkpt>
      <trkpt lat="46.00927" lon="0.56934">
        <ele>205.5625</ele>
      </trkpt>
      <trkpt lat="46.00919" lon="0.56872">
        <ele>206</ele>
      </trkpt>
      <trkpt lat="46.0091" lon="0.56802">
        <ele>206</ele>
      </trkpt>
      <trkpt lat="46.00902" lon="0.56741">
        <ele>206.97265625</ele>
      </trkpt>
      <trkpt lat="46.00885" lon="0.56657">
        <ele>206.6015625</ele>
      </trkpt>
      <trkpt lat="46.00868" lon="0.56583">
        <ele>206.9140625</ele>
      </trkpt>
      <trkpt lat="46.00853" lon="0.56516">
        <ele>207</ele>
      </trkpt>
      <trkpt lat="46.00844" lon="0.56476">
        <ele>207</ele>
      </trkpt>
      <trkpt lat="46.00829" lon="0.56409">
        <ele>206.60546875</ele>
      </trkpt>
      <trkpt lat="46.00807" lon="0.56322">
        <ele>205.41796875</ele>
      </trkpt>
      <trkpt lat="46.00786" lon="0.56262">
        <ele>205</ele>
      </trkpt>
      <trkpt lat="46.0077" lon="0.56215">
        <ele>203.984375</ele>
      </trkpt>
      <trkpt lat="46.00753" lon="0.56171">
        <ele>202.99609375</ele>
      </trkpt>
      <trkpt lat="46.00727" lon="0.56097">
        <ele>202.3671875</ele>
      </trkpt>
      <trkpt lat="46.00707" lon="0.56034">
        <ele>201.86328125</ele>
      </trkpt>
      <trkpt lat="46.00692" lon="0.55974">
        <ele>201.32421875</ele>
      </trkpt>
      <trkpt lat="46.00674" lon="0.55898">
        <ele>201.32421875</ele>
      </trkpt>
      <trkpt lat="46.00662" lon="0.55827">
        <ele>200.6875</ele>
      </trkpt>
      <trkpt lat="46.00648" lon="0.55752">
        <ele>199.16796875</ele>
      </trkpt>
      <trkpt lat="46.00629" lon="0.55663">
        <ele>196.3203125</ele>
      </trkpt>
      <trkpt lat="46.00619" lon="0.55622">
        <ele>195.32421875</ele>
      </trkpt>
      <trkpt lat="46.00604" lon="0.55557">
        <ele>193.15625</ele>
      </trkpt>
      <trkpt lat="46.00591" lon="0.55497">
        <ele>191.66015625</ele>
      </trkpt>
      <trkpt lat="46.00573" lon="0.5544">
        <ele>191.44140625</ele>
      </trkpt>
      <trkpt lat="46.0055" lon="0.55383">
        <ele>192.921875</ele>
      </trkpt>
      <trkpt lat="46.00528" lon="0.5533">
        <ele>193.62890625</ele>
      </trkpt>
      <trkpt lat="46.00493" lon="0.55247">
        <ele>192.75390625</ele>
      </trkpt>
      <trkpt lat="46.00465" lon="0.55179">
        <ele>193.30859375</ele>
      </trkpt>
      <trkpt lat="46.00431" lon="0.55098">
        <ele>194</ele>
      </trkpt>
      <trkpt lat="46.00392" lon="0.55005">
        <ele>194.66015625</ele>
      </trkpt>
      <trkpt lat="46.00386" lon="0.5499">
        <ele>194.7421875</ele>
      </trkpt>
      <trkpt lat="46.00377" lon="0.54966">
        <ele>195</ele>
      </trkpt>
      <trkpt lat="46.00368" lon="0.54918">
        <ele>195</ele>
      </trkpt>
      <trkpt lat="46.00364" lon="0.54873">
        <ele>195</ele>
      </trkpt>
      <trkpt lat="46.00364" lon="0.5484">
        <ele>195.28515625</ele>
      </trkpt>
      <trkpt lat="46.00351" lon="0.54778">
        <ele>196</ele>
      </trkpt>
      <trkpt lat="46.00328" lon="0.54692">
        <ele>196</ele>
      </trkpt>
      <trkpt lat="46.00307" lon="0.54614">
        <ele>195.015625</ele>
      </trkpt>
      <trkpt lat="46.00292" lon="0.54564">
        <ele>194.74609375</ele>
      </trkpt>
      <trkpt lat="46.0027" lon="0.54501">
        <ele>193.48828125</ele>
      </trkpt>
      <trkpt lat="46.00261" lon="0.54478">
        <ele>193.078125</ele>
      </trkpt>
      <trkpt lat="46.00263" lon="0.54453">
        <ele>192.734375</ele>
      </trkpt>
      <trkpt lat="46.00279" lon="0.5444">
        <ele>192.0546875</ele>
      </trkpt>
      <trkpt lat="46.00309" lon="0.54445">
        <ele>191.21484375</ele>
      </trkpt>
      <trkpt lat="46.00331" lon="0.54453">
        <ele>191.00390625</ele>
      </trkpt>
      <trkpt lat="46.00358" lon="0.54457">
        <ele>190.609375</ele>
      </trkpt>
      <trkpt lat="46.0039" lon="0.54457">
        <ele>191.0546875</ele>
      </trkpt>
      <trkpt lat="46.00411" lon="0.54448">
        <ele>191.1328125</ele>
      </trkpt>
      <trkpt lat="46.00432" lon="0.54433">
        <ele>191.3671875</ele>
      </trkpt>
      <trkpt lat="46.00469" lon="0.54399">
        <ele>192.203125</ele>
      </trkpt>
      <trkpt lat="46.00501" lon="0.54357">
        <ele>192</ele>
      </trkpt>
      <trkpt lat="46.00526" lon="0.54304">
        <ele>193.61328125</ele>
      </trkpt>
      <trkpt lat="46.00542" lon="0.54321">
        <ele>193.8359375</ele>
      </trkpt>
      <trkpt lat="46.00556" lon="0.54346">
        <ele>193.64453125</ele>
      </trkpt>
      <trkpt lat="46.00575" lon="0.54356">
        <ele>193.80859375</ele>
      </trkpt>
      <trkpt lat="46.00605" lon="0.54363">
        <ele>194</ele>
      </trkpt>
      <trkpt lat="46.00629" lon="0.54374">
        <ele>194</ele>
      </trkpt>
      <trkpt lat="46.00664" lon="0.5439">
        <ele>193.6015625</ele>
      </trkpt>
      <trkpt lat="46.00702" lon="0.54415">
        <ele>192.91015625</ele>
      </trkpt>
      <trkpt lat="46.00728" lon="0.54441">
        <ele>192.1484375</ele>
      </trkpt>
      <trkpt lat="46.00764" lon="0.54478">
        <ele>190.703125</ele>
      </trkpt>
      <trkpt lat="46.00797" lon="0.54513">
        <ele>188.91796875</ele>
      </trkpt>
      <trkpt lat="46.00837" lon="0.54554">
        <ele>186.3671875</ele>
      </trkpt>
      <trkpt lat="46.00875" lon="0.54593">
        <ele>183.8203125</ele>
      </trkpt>
      <trkpt lat="46.00931" lon="0.54661">
        <ele>182.0546875</ele>
      </trkpt>
      <trkpt lat="46.00969" lon="0.54717">
        <ele>181.72265625</ele>
      </trkpt>
      <trkpt lat="46.00984" lon="0.54734">
        <ele>181.50390625</ele>
      </trkpt>
      <trkpt lat="46.01001" lon="0.54749">
        <ele>180.94140625</ele>
      </trkpt>
      <trkpt lat="46.01035" lon="0.54784">
        <ele>179.26171875</ele>
      </trkpt>
      <trkpt lat="46.01057" lon="0.54804">
        <ele>179.1015625</ele>
      </trkpt>
      <trkpt lat="46.01067" lon="0.54781">
        <ele>179.12109375</ele>
      </trkpt>
      <trkpt lat="46.01074" lon="0.54752">
        <ele>179.1796875</ele>
      </trkpt>
      <trkpt lat="46.01082" lon="0.54715">
        <ele>178.56640625</ele>
      </trkpt>
      <trkpt lat="46.0109" lon="0.54681">
        <ele>178.19921875</ele>
      </trkpt>
      <trkpt lat="46.01094" lon="0.54664">
        <ele>178.32421875</ele>
      </trkpt>
      <trkpt lat="46.01104" lon="0.54621">
        <ele>178.5625</ele>
      </trkpt>
      <trkpt lat="46.01109" lon="0.54593">
        <ele>178.96875</ele>
      </trkpt>
      <trkpt lat="46.01112" lon="0.54565">
        <ele>178.9140625</ele>
      </trkpt>
      <trkpt lat="46.01119" lon="0.54531">
        <ele>178.30859375</ele>
      </trkpt>
      <trkpt lat="46.0113" lon="0.54492">
        <ele>178.4765625</ele>
      </trkpt>
      <trkpt lat="46.01146" lon="0.5446">
        <ele>179.3046875</ele>
      </trkpt>
      <trkpt lat="46.01156" lon="0.54432">
        <ele>180.61328125</ele>
      </trkpt>
      <trkpt lat="46.01168" lon="0.54403">
        <ele>181.97265625</ele>
      </trkpt>
      <trkpt lat="46.0118" lon="0.54372">
        <ele>183.453125</ele>
      </trkpt>
      <trkpt lat="46.01188" lon="0.54344">
        <ele>184.59375</ele>
      </trkpt>
      <trkpt lat="46.01192" lon="0.54314">
        <ele>185.57421875</ele>
      </trkpt>
      <trkpt lat="46.01192" lon="0.54288">
        <ele>186.3203125</ele>
      </trkpt>
      <trkpt lat="46.01192" lon="0.54264">
        <ele>186.77734375</ele>
      </trkpt>
      <trkpt lat="46.01193" lon="0.54235">
        <ele>187.29296875</ele>
      </trkpt>
      <trkpt lat="46.01195" lon="0.5421">
        <ele>187.69140625</ele>
      </trkpt>
      <trkpt lat="46.01198" lon="0.54172">
        <ele>188.25390625</ele>
      </trkpt>
      <trkpt lat="46.01201" lon="0.54137">
        <ele>188.72265625</ele>
      </trkpt>
      <trkpt lat="46.01207" lon="0.54091">
        <ele>189.1796875</ele>
      </trkpt>
      <trkpt lat="46.01216" lon="0.54054">
        <ele>189.53515625</ele>
      </trkpt>
      <trkpt lat="46.01226" lon="0.54007">
        <ele>190.0859375</ele>
      </trkpt>
      <trkpt lat="46.01233" lon="0.53973">
        <ele>190.28515625</ele>
      </trkpt>
      <trkpt lat="46.0124" lon="0.53925">
        <ele>191.56640625</ele>
      </trkpt>
      <trkpt lat="46.01239" lon="0.53881">
        <ele>192.55078125</ele>
      </trkpt>
      <trkpt lat="46.01231" lon="0.53835">
        <ele>193.38671875</ele>
      </trkpt>
      <trkpt lat="46.01226" lon="0.53799">
        <ele>194.01171875</ele>
      </trkpt>
      <trkpt lat="46.01216" lon="0.53753">
        <ele>194.55859375</ele>
      </trkpt>
      <trkpt lat="46.01204" lon="0.53711">
        <ele>194.94921875</ele>
      </trkpt>
      <trkpt lat="46.01186" lon="0.53685">
        <ele>194.83203125</ele>
      </trkpt>
      <trkpt lat="46.01158" lon="0.53663">
        <ele>194.6328125</ele>
      </trkpt>
      <trkpt lat="46.01145" lon="0.53646">
        <ele>194.796875</ele>
      </trkpt>
      <trkpt lat="46.01169" lon="0.53605">
        <ele>195.78515625</ele>
      </trkpt>
      <trkpt lat="46.01189" lon="0.53564">
        <ele>196.85546875</ele>
      </trkpt>
      <trkpt lat="46.01188" lon="0.53542">
        <ele>196.83984375</ele>
      </trkpt>
      <trkpt lat="46.01182" lon="0.53504">
        <ele>196.74609375</ele>
      </trkpt>
      <trkpt lat="46.01172" lon="0.5346">
        <ele>196.62109375</ele>
      </trkpt>
      <trkpt lat="46.01164" lon="0.53425">
        <ele>196.86328125</ele>
      </trkpt>
      <trkpt lat="46.0116" lon="0.53391">
        <ele>197</ele>
      </trkpt>
      <trkpt lat="46.0116" lon="0.53352">
        <ele>197</ele>
      </trkpt>
      <trkpt lat="46.01162" lon="0.53295">
        <ele>197</ele>
      </trkpt>
      <trkpt lat="46.01167" lon="0.53251">
        <ele>197</ele>
      </trkpt>
      <trkpt lat="46.0117" lon="0.53216">
        <ele>197</ele>
      </trkpt>
      <trkpt lat="46.01175" lon="0.53177">
        <ele>196.91015625</ele>
      </trkpt>
      <trkpt lat="46.01184" lon="0.53137">
        <ele>196.7890625</ele>
      </trkpt>
      <trkpt lat="46.01196" lon="0.53108">
        <ele>196.05859375</ele>
      </trkpt>
      <trkpt lat="46.01204" lon="0.53099">
        <ele>195.83203125</ele>
      </trkpt>
      <trkpt lat="46.01216" lon="0.53081">
        <ele>195.40234375</ele>
      </trkpt>
      <trkpt lat="46.01233" lon="0.53048">
        <ele>195.47265625</ele>
      </trkpt>
      <trkpt lat="46.01252" lon="0.53006">
        <ele>195.6875</ele>
      </trkpt>
      <trkpt lat="46.01265" lon="0.52978">
        <ele>195.56640625</ele>
      </trkpt>
      <trkpt lat="46.01278" lon="0.52935">
        <ele>195.671875</ele>
      </trkpt>
      <trkpt lat="46.0129" lon="0.52913">
        <ele>195.6796875</ele>
      </trkpt>
      <trkpt lat="46.01307" lon="0.52873">
        <ele>195.99609375</ele>
      </trkpt>
      <trkpt lat="46.01326" lon="0.52841">
        <ele>195.8046875</ele>
      </trkpt>
      <trkpt lat="46.01337" lon="0.52809">
        <ele>195.5859375</ele>
      </trkpt>
      <trkpt lat="46.01335" lon="0.52785">
        <ele>195.2109375</ele>
      </trkpt>
      <trkpt lat="46.01334" lon="0.52759">
        <ele>194.69921875</ele>
      </trkpt>
      <trkpt lat="46.01341" lon="0.52742">
        <ele>194.53125</ele>
      </trkpt>
      <trkpt lat="46.0135" lon="0.52726">
        <ele>194.3984375</ele>
      </trkpt>
      <trkpt lat="46.01376" lon="0.5268">
        <ele>193.95703125</ele>
      </trkpt>
      <trkpt lat="46.01415" lon="0.5261">
        <ele>193.03515625</ele>
      </trkpt>
      <trkpt lat="46.01437" lon="0.52542">
        <ele>192.00390625</ele>
      </trkpt>
      <trkpt lat="46.01443" lon="0.52505">
        <ele>191.21875</ele>
      </trkpt>
      <trkpt lat="46.01435" lon="0.52489">
        <ele>191.08203125</ele>
      </trkpt>
      <trkpt lat="46.0142" lon="0.52473">
        <ele>191.06640625</ele>
      </trkpt>
      <trkpt lat="46.01392" lon="0.52448">
        <ele>190.62890625</ele>
      </trkpt>
      <trkpt lat="46.0134" lon="0.52408">
        <ele>189.8515625</ele>
      </trkpt>
      <trkpt lat="46.01298" lon="0.52374">
        <ele>188.91796875</ele>
      </trkpt>
      <trkpt lat="46.0125" lon="0.52332">
        <ele>189.17578125</ele>
      </trkpt>
      <trkpt lat="46.01237" lon="0.52313">
        <ele>188.921875</ele>
      </trkpt>
      <trkpt lat="46.0123" lon="0.52282">
        <ele>188.08203125</ele>
      </trkpt>
      <trkpt lat="46.01232" lon="0.52258">
        <ele>187.15625</ele>
      </trkpt>
      <trkpt lat="46.01236" lon="0.52241">
        <ele>186.40234375</ele>
      </trkpt>
      <trkpt lat="46.01239" lon="0.52226">
        <ele>185.73828125</ele>
      </trkpt>
      <trkpt lat="46.01256" lon="0.52197">
        <ele>183.9375</ele>
      </trkpt>
      <trkpt lat="46.01279" lon="0.52179">
        <ele>181.34765625</ele>
      </trkpt>
      <trkpt lat="46.01299" lon="0.52164">
        <ele>178.83203125</ele>
      </trkpt>
      <trkpt lat="46.01317" lon="0.52153">
        <ele>177.078125</ele>
      </trkpt>
      <trkpt lat="46.0133" lon="0.52129">
        <ele>174.6875</ele>
      </trkpt>
      <trkpt lat="46.01346" lon="0.52094">
        <ele>170.91015625</ele>
      </trkpt>
      <trkpt lat="46.01347" lon="0.52055">
        <ele>166.484375</ele>
      </trkpt>
      <trkpt lat="46.0133" lon="0.52029">
        <ele>163.875</ele>
      </trkpt>
      <trkpt lat="46.01306" lon="0.52">
        <ele>160.63671875</ele>
      </trkpt>
      <trkpt lat="46.01278" lon="0.5198">
        <ele>158.37890625</ele>
      </trkpt>
      <trkpt lat="46.01249" lon="0.51971">
        <ele>157.37109375</ele>
      </trkpt>
      <trkpt lat="46.01217" lon="0.51968">
        <ele>156.27734375</ele>
      </trkpt>
      <trkpt lat="46.01203" lon="0.51964">
        <ele>155.55859375</ele>
      </trkpt>
      <trkpt lat="46.01163" lon="0.51942">
        <ele>150.34375</ele>
      </trkpt>
      <trkpt lat="46.01143" lon="0.51926">
        <ele>148.04296875</ele>
      </trkpt>
      <trkpt lat="46.01131" lon="0.5191">
        <ele>146.734375</ele>
      </trkpt>
      <trkpt lat="46.01128" lon="0.51885">
        <ele>145.875</ele>
      </trkpt>
      <trkpt lat="46.01123" lon="0.51866">
        <ele>145.26171875</ele>
      </trkpt>
      <trkpt lat="46.01116" lon="0.51841">
        <ele>145</ele>
      </trkpt>
      <trkpt lat="46.01112" lon="0.51827">
        <ele>145</ele>
      </trkpt>
      <trkpt lat="46.01094" lon="0.51811">
        <ele>145</ele>
      </trkpt>
      <trkpt lat="46.01084" lon="0.51795">
        <ele>145.1484375</ele>
      </trkpt>
      <trkpt lat="46.01073" lon="0.51773">
        <ele>145.7421875</ele>
      </trkpt>
      <trkpt lat="46.01077" lon="0.51746">
        <ele>146.1484375</ele>
      </trkpt>
      <trkpt lat="46.01083" lon="0.51707">
        <ele>146.78515625</ele>
      </trkpt>
      <trkpt lat="46.01082" lon="0.51668">
        <ele>147.51953125</ele>
      </trkpt>
      <trkpt lat="46.01086" lon="0.51626">
        <ele>148.1640625</ele>
      </trkpt>
      <trkpt lat="46.01091" lon="0.51589">
        <ele>148.6484375</ele>
      </trkpt>
      <trkpt lat="46.01095" lon="0.51555">
        <ele>149.53515625</ele>
      </trkpt>
      <trkpt lat="46.01102" lon="0.51531">
        <ele>150.15625</ele>
      </trkpt>
      <trkpt lat="46.01113" lon="0.51506">
        <ele>151.46875</ele>
      </trkpt>
      <trkpt lat="46.01123" lon="0.51488">
        <ele>152.45703125</ele>
      </trkpt>
      <trkpt lat="46.01141" lon="0.51463">
        <ele>153.640625</ele>
      </trkpt>
      <trkpt lat="46.01155" lon="0.51445">
        <ele>155.0078125</ele>
      </trkpt>
      <trkpt lat="46.01168" lon="0.51427">
        <ele>156.15234375</ele>
      </trkpt>
      <trkpt lat="46.01182" lon="0.51406">
        <ele>157.48828125</ele>
      </trkpt>
      <trkpt lat="46.01192" lon="0.51391">
        <ele>158.26171875</ele>
      </trkpt>
      <trkpt lat="46.012" lon="0.51381">
        <ele>158.7421875</ele>
      </trkpt>
      <trkpt lat="46.01211" lon="0.51366">
        <ele>159.65625</ele>
      </trkpt>
      <trkpt lat="46.01226" lon="0.5135">
        <ele>160.51171875</ele>
      </trkpt>
      <trkpt lat="46.01251" lon="0.51337">
        <ele>160.93359375</ele>
      </trkpt>
      <trkpt lat="46.01275" lon="0.51322">
        <ele>162.19140625</ele>
      </trkpt>
      <trkpt lat="46.01309" lon="0.51303">
        <ele>164.9296875</ele>
      </trkpt>
      <trkpt lat="46.01346" lon="0.51282">
        <ele>166.05859375</ele>
      </trkpt>
      <trkpt lat="46.01375" lon="0.51269">
        <ele>167.1484375</ele>
      </trkpt>
      <trkpt lat="46.01397" lon="0.51285">
        <ele>167.7109375</ele>
      </trkpt>
      <trkpt lat="46.01424" lon="0.51276">
        <ele>169.49609375</ele>
      </trkpt>
      <trkpt lat="46.01449" lon="0.51257">
        <ele>172.4140625</ele>
      </trkpt>
      <trkpt lat="46.01469" lon="0.51237">
        <ele>173.890625</ele>
      </trkpt>
      <trkpt lat="46.01498" lon="0.5121">
        <ele>174.515625</ele>
      </trkpt>
      <trkpt lat="46.01511" lon="0.51196">
        <ele>174.67578125</ele>
      </trkpt>
      <trkpt lat="46.01515" lon="0.51192">
        <ele>174.7265625</ele>
      </trkpt>
      <trkpt lat="46.01542" lon="0.51169">
        <ele>174.171875</ele>
      </trkpt>
      <trkpt lat="46.01568" lon="0.51152">
        <ele>174.234375</ele>
      </trkpt>
      <trkpt lat="46.01584" lon="0.51144">
        <ele>174.80078125</ele>
      </trkpt>
      <trkpt lat="46.016" lon="0.51132">
        <ele>174.25390625</ele>
      </trkpt>
      <trkpt lat="46.01622" lon="0.51124">
        <ele>174.12890625</ele>
      </trkpt>
      <trkpt lat="46.01645" lon="0.5112">
        <ele>174.81640625</ele>
      </trkpt>
      <trkpt lat="46.01668" lon="0.51122">
        <ele>175.0625</ele>
      </trkpt>
      <trkpt lat="46.01696" lon="0.51128">
        <ele>175.9296875</ele>
      </trkpt>
      <trkpt lat="46.01714" lon="0.51134">
        <ele>175.8359375</ele>
      </trkpt>
      <trkpt lat="46.01737" lon="0.51144">
        <ele>175.609375</ele>
      </trkpt>
      <trkpt lat="46.01755" lon="0.51154">
        <ele>175.734375</ele>
      </trkpt>
      <trkpt lat="46.01777" lon="0.51162">
        <ele>174.85546875</ele>
      </trkpt>
      <trkpt lat="46.01799" lon="0.51176">
        <ele>174.296875</ele>
      </trkpt>
      <trkpt lat="46.01829" lon="0.51188">
        <ele>172.375</ele>
      </trkpt>
      <trkpt lat="46.01847" lon="0.51193">
        <ele>170.84765625</ele>
      </trkpt>
      <trkpt lat="46.01861" lon="0.51201">
        <ele>169.57421875</ele>
      </trkpt>
      <trkpt lat="46.0188" lon="0.51209">
        <ele>167.41015625</ele>
      </trkpt>
      <trkpt lat="46.01906" lon="0.51223">
        <ele>164.7109375</ele>
      </trkpt>
      <trkpt lat="46.01929" lon="0.51233">
        <ele>162.5625</ele>
      </trkpt>
      <trkpt lat="46.01967" lon="0.51259">
        <ele>159.80859375</ele>
      </trkpt>
      <trkpt lat="46.02" lon="0.51276">
        <ele>157.921875</ele>
      </trkpt>
      <trkpt lat="46.02028" lon="0.513">
        <ele>157.03125</ele>
      </trkpt>
      <trkpt lat="46.0204" lon="0.5131">
        <ele>156.609375</ele>
      </trkpt>
      <trkpt lat="46.02058" lon="0.51321">
        <ele>156.11328125</ele>
      </trkpt>
      <trkpt lat="46.02065" lon="0.51324">
        <ele>155.97265625</ele>
      </trkpt>
      <trkpt lat="46.02069" lon="0.51325">
        <ele>155.84765625</ele>
        <time>2015-11-06T09:31:24Z</time>
      </trkpt>
      <trkpt lat="46.02078" lon="0.51325">
        <ele>155.51171875</ele>
        <time>2015-11-06T09:31:30Z</time>
      </trkpt>
      <trkpt lat="46.021" lon="0.51347">
        <ele>155.05859375</ele>
        <time>2015-11-06T09:31:38Z</time>
      </trkpt>
      <trkpt lat="46.02119" lon="0.51362">
        <ele>154.078125</ele>
        <time>2015-11-06T09:31:43Z</time>
      </trkpt>
      <trkpt lat="46.02125" lon="0.51368">
        <ele>153.70703125</ele>
        <time>2015-11-06T09:31:45Z</time>
      </trkpt>
      <trkpt lat="46.02148" lon="0.51398">
        <ele>152.77734375</ele>
        <time>2015-11-06T09:31:52Z</time>
      </trkpt>
      <trkpt lat="46.02168" lon="0.51434">
        <ele>152.27734375</ele>
        <time>2015-11-06T09:31:59Z</time>
      </trkpt>
      <trkpt lat="46.02171" lon="0.51439">
        <ele>152.17578125</ele>
        <time>2015-11-06T09:32:00Z</time>
      </trkpt>
      <trkpt lat="46.02199" lon="0.51473">
        <ele>150.69921875</ele>
        <time>2015-11-06T09:32:07Z</time>
      </trkpt>
      <trkpt lat="46.02204" lon="0.51477">
        <ele>150.2890625</ele>
        <time>2015-11-06T09:32:08Z</time>
      </trkpt>
      <trkpt lat="46.02209" lon="0.51481">
        <ele>149.91015625</ele>
        <time>2015-11-06T09:32:09Z</time>
      </trkpt>
      <trkpt lat="46.02213" lon="0.51484">
        <ele>149.55859375</ele>
        <time>2015-11-06T09:32:10Z</time>
      </trkpt>
      <trkpt lat="46.02218" lon="0.51487">
        <ele>149.2265625</ele>
        <time>2015-11-06T09:32:11Z</time>
      </trkpt>
      <trkpt lat="46.0223" lon="0.51496">
        <ele>148.33203125</ele>
        <time>2015-11-06T09:32:14Z</time>
      </trkpt>
      <trkpt lat="46.02235" lon="0.51498">
        <ele>148.01953125</ele>
        <time>2015-11-06T09:32:15Z</time>
      </trkpt>
      <trkpt lat="46.0224" lon="0.51498">
        <ele>147.6875</ele>
        <time>2015-11-06T09:32:16Z</time>
      </trkpt>
      <trkpt lat="46.02246" lon="0.51499">
        <ele>147.33984375</ele>
        <time>2015-11-06T09:32:17Z</time>
      </trkpt>
      <trkpt lat="46.02253" lon="0.51501">
        <ele>146.921875</ele>
        <time>2015-11-06T09:32:18Z</time>
      </trkpt>
      <trkpt lat="46.02259" lon="0.51503">
        <ele>146.5859375</ele>
        <time>2015-11-06T09:32:19Z</time>
      </trkpt>
      <trkpt lat="46.02266" lon="0.51507">
        <ele>146.19140625</ele>
        <time>2015-11-06T09:32:20Z</time>
      </trkpt>
      <trkpt lat="46.02274" lon="0.51511">
        <ele>145.79296875</ele>
        <time>2015-11-06T09:32:21Z</time>
      </trkpt>
      <trkpt lat="46.02281" lon="0.51517">
        <ele>145.3828125</ele>
        <time>2015-11-06T09:32:22Z</time>
      </trkpt>
      <trkpt lat="46.02289" lon="0.51524">
        <ele>144.984375</ele>
        <time>2015-11-06T09:32:23Z</time>
      </trkpt>
      <trkpt lat="46.02296" lon="0.51531">
        <ele>144.34765625</ele>
        <time>2015-11-06T09:32:24Z</time>
      </trkpt>
      <trkpt lat="46.02302" lon="0.51539">
        <ele>143.71875</ele>
        <time>2015-11-06T09:32:25Z</time>
      </trkpt>
      <trkpt lat="46.02308" lon="0.51548">
        <ele>143.1015625</ele>
        <time>2015-11-06T09:32:26Z</time>
      </trkpt>
      <trkpt lat="46.02312" lon="0.51559">
        <ele>142.5234375</ele>
        <time>2015-11-06T09:32:27Z</time>
      </trkpt>
      <trkpt lat="46.02315" lon="0.51571">
        <ele>142.015625</ele>
        <time>2015-11-06T09:32:28Z</time>
      </trkpt>
      <trkpt lat="46.02317" lon="0.51582">
        <ele>141.60546875</ele>
        <time>2015-11-06T09:32:29Z</time>
      </trkpt>
      <trkpt lat="46.02319" lon="0.51594">
        <ele>141.3828125</ele>
        <time>2015-11-06T09:32:30Z</time>
      </trkpt>
      <trkpt lat="46.02333" lon="0.51647">
        <ele>140.4296875</ele>
        <time>2015-11-06T09:32:35Z</time>
      </trkpt>
      <trkpt lat="46.02337" lon="0.51655">
        <ele>140.2890625</ele>
        <time>2015-11-06T09:32:36Z</time>
      </trkpt>
      <trkpt lat="46.02343" lon="0.51662">
        <ele>140.1796875</ele>
        <time>2015-11-06T09:32:37Z</time>
      </trkpt>
      <trkpt lat="46.02386" lon="0.51709">
        <ele>140.7578125</ele>
        <time>2015-11-06T09:32:45Z</time>
      </trkpt>
      <trkpt lat="46.02415" lon="0.51743">
        <ele>141.875</ele>
        <time>2015-11-06T09:32:51Z</time>
      </trkpt>
      <trkpt lat="46.02444" lon="0.51797">
        <ele>144.25390625</ele>
        <time>2015-11-06T09:32:59Z</time>
      </trkpt>
      <trkpt lat="46.02462" lon="0.51833">
        <ele>146.95703125</ele>
        <time>2015-11-06T09:33:05Z</time>
      </trkpt>
      <trkpt lat="46.02478" lon="0.51856">
        <ele>149.43359375</ele>
        <time>2015-11-06T09:33:10Z</time>
      </trkpt>
      <trkpt lat="46.02496" lon="0.51876">
        <ele>152.2109375</ele>
        <time>2015-11-06T09:33:17Z</time>
      </trkpt>
      <trkpt lat="46.02498" lon="0.51877">
        <ele>152.55859375</ele>
        <time>2015-11-06T09:33:19Z</time>
      </trkpt>
      <trkpt lat="46.02501" lon="0.51876">
        <ele>152.78125</ele>
        <time>2015-11-06T09:33:20Z</time>
      </trkpt>
      <trkpt lat="46.02502" lon="0.51875">
        <ele>152.8984375</ele>
        <time>2015-11-06T09:33:21Z</time>
      </trkpt>
      <trkpt lat="46.02504" lon="0.51872">
        <ele>152.94140625</ele>
        <time>2015-11-06T09:33:22Z</time>
      </trkpt>
      <trkpt lat="46.02505" lon="0.51868">
        <ele>152.9140625</ele>
        <time>2015-11-06T09:33:23Z</time>
      </trkpt>
      <trkpt lat="46.02507" lon="0.51864">
        <ele>152.890625</ele>
        <time>2015-11-06T09:33:24Z</time>
      </trkpt>
      <trkpt lat="46.02508" lon="0.51859">
        <ele>152.8671875</ele>
        <time>2015-11-06T09:33:25Z</time>
      </trkpt>
      <trkpt lat="46.02516" lon="0.5184">
        <ele>152.72265625</ele>
        <time>2015-11-06T09:33:29Z</time>
      </trkpt>
      <trkpt lat="46.0254" lon="0.51774">
        <ele>151.515625</ele>
        <time>2015-11-06T09:33:40Z</time>
      </trkpt>
      <trkpt lat="46.02573" lon="0.51683">
        <ele>149.51953125</ele>
        <time>2015-11-06T09:33:53Z</time>
      </trkpt>
      <trkpt lat="46.02597" lon="0.51616">
        <ele>146.859375</ele>
        <time>2015-11-06T09:34:02Z</time>
      </trkpt>
      <trkpt lat="46.02616" lon="0.51557">
        <ele>145.453125</ele>
        <time>2015-11-06T09:34:10Z</time>
      </trkpt>
      <trkpt lat="46.02624" lon="0.51527">
        <ele>144.921875</ele>
        <time>2015-11-06T09:34:14Z</time>
      </trkpt>
      <trkpt lat="46.0263" lon="0.51454">
        <ele>145.234375</ele>
        <time>2015-11-06T09:34:23Z</time>
      </trkpt>
      <trkpt lat="46.02628" lon="0.51376">
        <ele>145.64453125</ele>
        <time>2015-11-06T09:34:33Z</time>
      </trkpt>
      <trkpt lat="46.02627" lon="0.51316">
        <ele>146.5390625</ele>
        <time>2015-11-06T09:34:41Z</time>
      </trkpt>
      <trkpt lat="46.02624" lon="0.51228">
        <ele>146.50390625</ele>
        <time>2015-11-06T09:34:53Z</time>
      </trkpt>
      <trkpt lat="46.02623" lon="0.51169">
        <ele>147.2890625</ele>
        <time>2015-11-06T09:35:02Z</time>
      </trkpt>
      <trkpt lat="46.02623" lon="0.51171">
        <ele>147.23046875</ele>
        <time>2017-07-21T12:32:20Z</time>
      </trkpt>
      <trkpt lat="46.02624" lon="0.51125">
        <ele>148.21875</ele>
      </trkpt>
      <trkpt lat="46.02622" lon="0.51094">
        <ele>148.9765625</ele>
      </trkpt>
      <trkpt lat="46.02617" lon="0.51073">
        <ele>148.96484375</ele>
      </trkpt>
      <trkpt lat="46.02608" lon="0.51059">
        <ele>148.10546875</ele>
      </trkpt>
      <trkpt lat="46.02598" lon="0.51052">
        <ele>146.60546875</ele>
      </trkpt>
      <trkpt lat="46.02571" lon="0.51037">
        <ele>143.6171875</ele>
      </trkpt>
      <trkpt lat="46.02533" lon="0.51012">
        <ele>140.3203125</ele>
      </trkpt>
      <trkpt lat="46.02492" lon="0.50985">
        <ele>140.6640625</ele>
      </trkpt>
      <trkpt lat="46.02461" lon="0.50963">
        <ele>141.3203125</ele>
      </trkpt>
      <trkpt lat="46.02426" lon="0.5094">
        <ele>142.203125</ele>
      </trkpt>
      <trkpt lat="46.02434" lon="0.50892">
        <ele>141.3046875</ele>
      </trkpt>
      <trkpt lat="46.02433" lon="0.50874">
        <ele>141.25</ele>
        <time>2017-07-21T12:32:27Z</time>
      </trkpt>
      <trkpt lat="46.02431" lon="0.50826">
        <ele>140.75</ele>
        <time>2017-07-21T12:32:34Z</time>
      </trkpt>
      <trkpt lat="46.02425" lon="0.50767">
        <ele>140.63671875</ele>
        <time>2017-07-21T12:32:42Z</time>
      </trkpt>
      <trkpt lat="46.02424" lon="0.50699">
        <ele>139.8984375</ele>
        <time>2017-07-21T12:32:51Z</time>
      </trkpt>
      <trkpt lat="46.02423" lon="0.50691">
        <ele>139.80859375</ele>
        <time>2017-07-21T12:32:52Z</time>
      </trkpt>
      <trkpt lat="46.02409" lon="0.50626">
        <ele>140.03125</ele>
        <time>2017-07-21T12:33:01Z</time>
      </trkpt>
      <trkpt lat="46.02404" lon="0.50574">
        <ele>141.4609375</ele>
        <time>2017-07-21T12:33:08Z</time>
      </trkpt>
      <trkpt lat="46.02404" lon="0.50567">
        <ele>141.55859375</ele>
        <time>2017-07-21T12:33:09Z</time>
      </trkpt>
      <trkpt lat="46.0241" lon="0.50511">
        <ele>141.91796875</ele>
        <time>2017-07-21T12:33:18Z</time>
      </trkpt>
      <trkpt lat="46.02412" lon="0.50505">
        <ele>141.90625</ele>
        <time>2017-07-21T12:33:19Z</time>
      </trkpt>
      <trkpt lat="46.02429" lon="0.50447">
        <ele>141.81640625</ele>
        <time>2017-07-21T12:33:28Z</time>
      </trkpt>
      <trkpt lat="46.02437" lon="0.50428">
        <ele>141.58203125</ele>
        <time>2017-07-21T12:33:31Z</time>
      </trkpt>
      <trkpt lat="46.02445" lon="0.50409">
        <ele>141.37890625</ele>
        <time>2017-07-21T12:33:34Z</time>
      </trkpt>
      <trkpt lat="46.02447" lon="0.50403">
        <ele>141.41015625</ele>
        <time>2017-07-21T12:33:35Z</time>
      </trkpt>
      <trkpt lat="46.02464" lon="0.50362">
        <ele>141.19921875</ele>
        <time>2017-07-21T12:33:42Z</time>
      </trkpt>
      <trkpt lat="46.02484" lon="0.50309">
        <ele>141.08203125</ele>
        <time>2017-07-21T12:33:50Z</time>
      </trkpt>
      <trkpt lat="46.02488" lon="0.50296">
        <ele>141.234375</ele>
        <time>2017-07-21T12:33:52Z</time>
      </trkpt>
      <trkpt lat="46.02491" lon="0.5029">
        <ele>141.3203125</ele>
        <time>2017-07-21T12:33:53Z</time>
      </trkpt>
      <trkpt lat="46.02516" lon="0.50226">
        <ele>141.44921875</ele>
        <time>2017-07-21T12:34:03Z</time>
      </trkpt>
      <trkpt lat="46.02528" lon="0.50189">
        <ele>141.16796875</ele>
        <time>2017-07-21T12:34:09Z</time>
      </trkpt>
      <trkpt lat="46.02533" lon="0.5016">
        <ele>141.30078125</ele>
        <time>2017-07-21T12:34:14Z</time>
      </trkpt>
      <trkpt lat="46.02537" lon="0.50119">
        <ele>141.44140625</ele>
        <time>2017-07-21T12:34:21Z</time>
      </trkpt>
      <trkpt lat="46.02542" lon="0.50077">
        <ele>141.421875</ele>
        <time>2017-07-21T12:34:29Z</time>
      </trkpt>
      <trkpt lat="46.02556" lon="0.50048">
        <ele>142.3828125</ele>
        <time>2017-07-21T12:34:37Z</time>
      </trkpt>
      <trkpt lat="46.02574" lon="0.50019">
        <ele>142.10546875</ele>
        <time>2017-07-21T12:34:46Z</time>
      </trkpt>
      <trkpt lat="46.02578" lon="0.49998">
        <ele>143.921875</ele>
        <time>2017-07-21T12:34:52Z</time>
      </trkpt>
      <trkpt lat="46.02571" lon="0.49989">
        <ele>145.69140625</ele>
        <time>2017-07-21T12:34:56Z</time>
      </trkpt>
      <trkpt lat="46.02569" lon="0.49988">
        <ele>146.08203125</ele>
        <time>2017-07-21T12:34:57Z</time>
      </trkpt>
      <trkpt lat="46.02567" lon="0.49986">
        <ele>146.49609375</ele>
        <time>2017-07-21T12:34:58Z</time>
      </trkpt>
      <trkpt lat="46.02566" lon="0.49984">
        <ele>146.9296875</ele>
        <time>2017-07-21T12:34:59Z</time>
      </trkpt>
      <trkpt lat="46.02564" lon="0.49982">
        <ele>147.32421875</ele>
        <time>2017-07-21T12:35:00Z</time>
      </trkpt>
      <trkpt lat="46.02548" lon="0.4997">
        <ele>150.61328125</ele>
        <time>2017-07-21T12:35:08Z</time>
      </trkpt>
      <trkpt lat="46.02534" lon="0.49956">
        <ele>152.97265625</ele>
        <time>2017-07-21T12:35:16Z</time>
      </trkpt>
      <trkpt lat="46.0252" lon="0.49945">
        <ele>154.11328125</ele>
        <time>2017-07-21T12:35:23Z</time>
      </trkpt>
      <trkpt lat="46.02506" lon="0.49928">
        <ele>155.23046875</ele>
        <time>2017-07-21T12:35:31Z</time>
      </trkpt>
      <trkpt lat="46.02501" lon="0.49911">
        <ele>156.1796875</ele>
        <time>2017-07-21T12:35:37Z</time>
      </trkpt>
      <trkpt lat="46.02504" lon="0.49879">
        <ele>157.796875</ele>
        <time>2017-07-21T12:35:46Z</time>
      </trkpt>
      <trkpt lat="46.02499" lon="0.49857">
        <ele>159.140625</ele>
        <time>2017-07-21T12:35:53Z</time>
      </trkpt>
      <trkpt lat="46.02489" lon="0.49835">
        <ele>160.47265625</ele>
        <time>2017-07-21T12:36:01Z</time>
      </trkpt>
      <trkpt lat="46.02472" lon="0.49826">
        <ele>161.80859375</ele>
        <time>2017-07-21T12:36:09Z</time>
      </trkpt>
      <trkpt lat="46.02458" lon="0.49827">
        <ele>162.01171875</ele>
        <time>2017-07-21T12:36:16Z</time>
      </trkpt>
      <trkpt lat="46.02435" lon="0.49828">
        <ele>162.45703125</ele>
        <time>2017-07-21T12:36:26Z</time>
      </trkpt>
      <trkpt lat="46.02413" lon="0.49825">
        <ele>163.2421875</ele>
        <time>2017-07-21T12:36:35Z</time>
      </trkpt>
      <trkpt lat="46.02393" lon="0.49822">
        <ele>164.46484375</ele>
        <time>2017-07-21T12:36:44Z</time>
      </trkpt>
      <trkpt lat="46.02367" lon="0.49818">
        <ele>165.984375</ele>
        <time>2017-07-21T12:36:56Z</time>
      </trkpt>
      <trkpt lat="46.0235" lon="0.49815">
        <ele>166.96875</ele>
        <time>2017-07-21T12:37:04Z</time>
      </trkpt>
      <trkpt lat="46.02336" lon="0.49812">
        <ele>167.9140625</ele>
        <time>2017-07-21T12:37:11Z</time>
      </trkpt>
      <trkpt lat="46.02315" lon="0.49804">
        <ele>169.546875</ele>
        <time>2017-07-21T12:37:21Z</time>
      </trkpt>
      <trkpt lat="46.02296" lon="0.49797">
        <ele>170.734375</ele>
        <time>2017-07-21T12:37:30Z</time>
      </trkpt>
      <trkpt lat="46.02278" lon="0.49789">
        <ele>171.80078125</ele>
        <time>2017-07-21T12:37:39Z</time>
      </trkpt>
      <trkpt lat="46.02261" lon="0.49782">
        <ele>172.8046875</ele>
        <time>2017-07-21T12:37:48Z</time>
      </trkpt>
      <trkpt lat="46.02237" lon="0.49773">
        <ele>174.37109375</ele>
        <time>2017-07-21T12:38:00Z</time>
      </trkpt>
      <trkpt lat="46.0222" lon="0.49766">
        <ele>175.6953125</ele>
        <time>2017-07-21T12:38:09Z</time>
      </trkpt>
      <trkpt lat="46.02203" lon="0.49759">
        <ele>176.98046875</ele>
        <time>2017-07-21T12:38:18Z</time>
      </trkpt>
      <trkpt lat="46.02189" lon="0.49755">
        <ele>177.71875</ele>
        <time>2017-07-21T12:38:25Z</time>
      </trkpt>
      <trkpt lat="46.0217" lon="0.49748">
        <ele>178.42578125</ele>
        <time>2017-07-21T12:38:35Z</time>
      </trkpt>
      <trkpt lat="46.02145" lon="0.4974">
        <ele>179.18359375</ele>
        <time>2017-07-21T12:38:48Z</time>
      </trkpt>
      <trkpt lat="46.0212" lon="0.49733">
        <ele>179.62109375</ele>
        <time>2017-07-21T12:39:01Z</time>
      </trkpt>
      <trkpt lat="46.02101" lon="0.49727">
        <ele>180.00390625</ele>
        <time>2017-07-21T12:39:11Z</time>
      </trkpt>
      <trkpt lat="46.02085" lon="0.49722">
        <ele>180.39453125</ele>
        <time>2017-07-21T12:39:19Z</time>
      </trkpt>
      <trkpt lat="46.02065" lon="0.49714">
        <ele>181.1640625</ele>
        <time>2017-07-21T12:39:29Z</time>
      </trkpt>
      <trkpt lat="46.02043" lon="0.49707">
        <ele>181.94140625</ele>
        <time>2017-07-21T12:39:40Z</time>
      </trkpt>
      <trkpt lat="46.02023" lon="0.49699">
        <ele>182.7421875</ele>
        <time>2017-07-21T12:39:50Z</time>
      </trkpt>
      <trkpt lat="46.01997" lon="0.4969">
        <ele>183.671875</ele>
        <time>2017-07-21T12:40:02Z</time>
      </trkpt>
      <trkpt lat="46.01973" lon="0.49681">
        <ele>184.40234375</ele>
        <time>2017-07-21T12:40:13Z</time>
      </trkpt>
      <trkpt lat="46.01949" lon="0.49673">
        <ele>184.98828125</ele>
        <time>2017-07-21T12:40:24Z</time>
      </trkpt>
      <trkpt lat="46.01927" lon="0.49665">
        <ele>185.39453125</ele>
        <time>2017-07-21T12:40:34Z</time>
      </trkpt>
      <trkpt lat="46.01907" lon="0.49658">
        <ele>185.6875</ele>
        <time>2017-07-21T12:40:43Z</time>
      </trkpt>
      <trkpt lat="46.01878" lon="0.49646">
        <ele>185.94921875</ele>
        <time>2017-07-21T12:40:54Z</time>
      </trkpt>
      <trkpt lat="46.01876" lon="0.49642">
        <ele>185.9765625</ele>
        <time>2017-07-21T12:40:55Z</time>
      </trkpt>
      <trkpt lat="46.01875" lon="0.49638">
        <ele>185.99609375</ele>
        <time>2017-07-21T12:40:56Z</time>
      </trkpt>
      <trkpt lat="46.01868" lon="0.49603">
        <ele>186.60546875</ele>
        <time>2017-07-21T12:41:05Z</time>
      </trkpt>
      <trkpt lat="46.01857" lon="0.49552">
        <ele>187.46484375</ele>
        <time>2017-07-21T12:41:16Z</time>
      </trkpt>
      <trkpt lat="46.01842" lon="0.49494">
        <ele>187.625</ele>
        <time>2017-07-21T12:41:26Z</time>
      </trkpt>
      <trkpt lat="46.01841" lon="0.49488">
        <ele>187.59765625</ele>
        <time>2017-07-21T12:41:27Z</time>
      </trkpt>
      <trkpt lat="46.01829" lon="0.49435">
        <ele>188.40234375</ele>
        <time>2017-07-21T12:41:36Z</time>
      </trkpt>
      <trkpt lat="46.01807" lon="0.49368">
        <ele>189.8359375</ele>
        <time>2017-07-21T12:41:48Z</time>
      </trkpt>
      <trkpt lat="46.01795" lon="0.49336">
        <ele>190.40625</ele>
        <time>2017-07-21T12:41:54Z</time>
      </trkpt>
      <trkpt lat="46.01768" lon="0.49274">
        <ele>191.36328125</ele>
        <time>2017-07-21T12:42:06Z</time>
      </trkpt>
      <trkpt lat="46.01748" lon="0.49227">
        <ele>192.44140625</ele>
        <time>2017-07-21T12:42:16Z</time>
      </trkpt>
      <trkpt lat="46.01747" lon="0.49212">
        <ele>192.73046875</ele>
        <time>2017-07-21T12:42:19Z</time>
      </trkpt>
      <trkpt lat="46.01748" lon="0.49209">
        <ele>192.76953125</ele>
        <time>2017-07-21T12:42:20Z</time>
      </trkpt>
      <trkpt lat="46.0175" lon="0.49205">
        <ele>192.7890625</ele>
        <time>2017-07-21T12:42:21Z</time>
      </trkpt>
      <trkpt lat="46.01753" lon="0.49202">
        <ele>192.78515625</ele>
        <time>2017-07-21T12:42:22Z</time>
      </trkpt>
      <trkpt lat="46.01756" lon="0.492">
        <ele>192.72265625</ele>
        <time>2017-07-21T12:42:23Z</time>
      </trkpt>
      <trkpt lat="46.01759" lon="0.49198">
        <ele>192.64453125</ele>
        <time>2017-07-21T12:42:24Z</time>
      </trkpt>
      <trkpt lat="46.01763" lon="0.49195">
        <ele>192.55859375</ele>
        <time>2017-07-21T12:42:25Z</time>
      </trkpt>
      <trkpt lat="46.01766" lon="0.49192">
        <ele>192.4765625</ele>
        <time>2017-07-21T12:42:26Z</time>
      </trkpt>
      <trkpt lat="46.01802" lon="0.49164">
        <ele>191.19921875</ele>
        <time>2017-07-21T12:42:35Z</time>
      </trkpt>
      <trkpt lat="46.01825" lon="0.49145">
        <ele>190.3671875</ele>
        <time>2017-07-21T12:42:40Z</time>
      </trkpt>
      <trkpt lat="46.0187" lon="0.49108">
        <ele>189.66015625</ele>
        <time>2017-07-21T12:42:48Z</time>
      </trkpt>
      <trkpt lat="46.01923" lon="0.49064">
        <ele>188.453125</ele>
        <time>2017-07-21T12:42:55Z</time>
      </trkpt>
      <trkpt lat="46.02011" lon="0.48992">
        <ele>188.5546875</ele>
        <time>2017-07-21T12:43:05Z</time>
      </trkpt>
      <trkpt lat="46.02067" lon="0.48946">
        <ele>189.19921875</ele>
        <time>2017-07-21T12:43:12Z</time>
      </trkpt>
      <trkpt lat="46.02127" lon="0.48896">
        <ele>188.47265625</ele>
        <time>2017-07-21T12:43:21Z</time>
      </trkpt>
      <trkpt lat="46.02191" lon="0.48845">
        <ele>185.00390625</ele>
        <time>2017-07-21T12:43:31Z</time>
      </trkpt>
      <trkpt lat="46.02223" lon="0.48817">
        <ele>182.78125</ele>
        <time>2017-07-21T12:43:37Z</time>
      </trkpt>
      <trkpt lat="46.02225" lon="0.48811">
        <ele>182.5703125</ele>
        <time>2017-07-21T12:43:38Z</time>
      </trkpt>
      <trkpt lat="46.02224" lon="0.48805">
        <ele>182.5</ele>
        <time>2017-07-21T12:43:39Z</time>
      </trkpt>
      <trkpt lat="46.02222" lon="0.488">
        <ele>182.54296875</ele>
        <time>2017-07-21T12:43:40Z</time>
      </trkpt>
      <trkpt lat="46.0222" lon="0.48796">
        <ele>182.6640625</ele>
        <time>2017-07-21T12:43:41Z</time>
      </trkpt>
      <trkpt lat="46.02217" lon="0.48792">
        <ele>182.78515625</ele>
        <time>2017-07-21T12:43:42Z</time>
      </trkpt>
      <trkpt lat="46.02214" lon="0.48788">
        <ele>182.91015625</ele>
        <time>2017-07-21T12:43:43Z</time>
      </trkpt>
      <trkpt lat="46.02189" lon="0.48744">
        <ele>184.19921875</ele>
        <time>2017-07-21T12:43:53Z</time>
      </trkpt>
      <trkpt lat="46.02164" lon="0.48703">
        <ele>184.81640625</ele>
        <time>2017-07-21T12:44:02Z</time>
      </trkpt>
      <trkpt lat="46.02142" lon="0.48672">
        <ele>185.91015625</ele>
        <time>2017-07-21T12:44:09Z</time>
      </trkpt>
      <trkpt lat="46.02115" lon="0.48633">
        <ele>187.0078125</ele>
        <time>2017-07-21T12:44:19Z</time>
      </trkpt>
      <trkpt lat="46.02089" lon="0.48595">
        <ele>188.625</ele>
        <time>2017-07-21T12:44:30Z</time>
      </trkpt>
      <trkpt lat="46.02068" lon="0.48566">
        <ele>189.59375</ele>
        <time>2017-07-21T12:44:39Z</time>
      </trkpt>
      <trkpt lat="46.02059" lon="0.48544">
        <ele>190.15234375</ele>
        <time>2017-07-21T12:44:45Z</time>
      </trkpt>
      <trkpt lat="46.0206" lon="0.4854">
        <ele>190.1953125</ele>
        <time>2017-07-21T12:44:46Z</time>
      </trkpt>
      <trkpt lat="46.02062" lon="0.48537">
        <ele>190.21875</ele>
        <time>2017-07-21T12:44:47Z</time>
      </trkpt>
      <trkpt lat="46.02065" lon="0.48534">
        <ele>190.2265625</ele>
        <time>2017-07-21T12:44:48Z</time>
      </trkpt>
      <trkpt lat="46.02068" lon="0.48531">
        <ele>190.22265625</ele>
        <time>2017-07-21T12:44:49Z</time>
      </trkpt>
      <trkpt lat="46.02102" lon="0.48497">
        <ele>190.23046875</ele>
        <time>2017-07-21T12:44:59Z</time>
      </trkpt>
      <trkpt lat="46.02155" lon="0.48456">
        <ele>189.55859375</ele>
        <time>2017-07-21T12:45:11Z</time>
      </trkpt>
      <trkpt lat="46.02193" lon="0.48427">
        <ele>188.8359375</ele>
        <time>2017-07-21T12:45:19Z</time>
      </trkpt>
      <trkpt lat="46.02253" lon="0.48384">
        <ele>187.98046875</ele>
        <time>2017-07-21T12:45:31Z</time>
      </trkpt>
      <trkpt lat="46.02304" lon="0.48349">
        <ele>187.046875</ele>
        <time>2017-07-21T12:45:42Z</time>
      </trkpt>
      <trkpt lat="46.02337" lon="0.48317">
        <ele>186.46484375</ele>
        <time>2017-07-21T12:45:49Z</time>
      </trkpt>
      <trkpt lat="46.02375" lon="0.48267">
        <ele>185.6953125</ele>
        <time>2017-07-21T12:45:58Z</time>
      </trkpt>
      <trkpt lat="46.0238" lon="0.48263">
        <ele>185.60546875</ele>
        <time>2017-07-21T12:45:59Z</time>
      </trkpt>
      <trkpt lat="46.02385" lon="0.48259">
        <ele>185.52734375</ele>
        <time>2017-07-21T12:46:00Z</time>
      </trkpt>
      <trkpt lat="46.0239" lon="0.48256">
        <ele>185.4453125</ele>
        <time>2017-07-21T12:46:01Z</time>
      </trkpt>
      <trkpt lat="46.02395" lon="0.48253">
        <ele>185.3671875</ele>
        <time>2017-07-21T12:46:02Z</time>
      </trkpt>
      <trkpt lat="46.024" lon="0.48251">
        <ele>185.29296875</ele>
        <time>2017-07-21T12:46:03Z</time>
      </trkpt>
      <trkpt lat="46.02406" lon="0.48249">
        <ele>185.21484375</ele>
        <time>2017-07-21T12:46:04Z</time>
      </trkpt>
      <trkpt lat="46.02411" lon="0.48248">
        <ele>185.125</ele>
        <time>2017-07-21T12:46:05Z</time>
      </trkpt>
      <trkpt lat="46.02417" lon="0.48248">
        <ele>185.0234375</ele>
        <time>2017-07-21T12:46:06Z</time>
      </trkpt>
      <trkpt lat="46.02423" lon="0.48249">
        <ele>184.83203125</ele>
        <time>2017-07-21T12:46:07Z</time>
      </trkpt>
      <trkpt lat="46.02429" lon="0.48251">
        <ele>184.58203125</ele>
        <time>2017-07-21T12:46:08Z</time>
      </trkpt>
      <trkpt lat="46.02435" lon="0.48254">
        <ele>184.30859375</ele>
        <time>2017-07-21T12:46:09Z</time>
      </trkpt>
      <trkpt lat="46.02441" lon="0.48257">
        <ele>184.01953125</ele>
        <time>2017-07-21T12:46:10Z</time>
      </trkpt>
      <trkpt lat="46.02454" lon="0.48264">
        <ele>183.4296875</ele>
        <time>2017-07-21T12:46:12Z</time>
      </trkpt>
      <trkpt lat="46.0246" lon="0.48267">
        <ele>183.1328125</ele>
        <time>2017-07-21T12:46:13Z</time>
      </trkpt>
      <trkpt lat="46.02467" lon="0.48269">
        <ele>182.8515625</ele>
        <time>2017-07-21T12:46:14Z</time>
      </trkpt>
      <trkpt lat="46.02474" lon="0.48271">
        <ele>182.57421875</ele>
        <time>2017-07-21T12:46:15Z</time>
      </trkpt>
      <trkpt lat="46.02481" lon="0.48272">
        <ele>182.30859375</ele>
        <time>2017-07-21T12:46:16Z</time>
      </trkpt>
      <trkpt lat="46.02488" lon="0.48271">
        <ele>182.0546875</ele>
        <time>2017-07-21T12:46:17Z</time>
      </trkpt>
      <trkpt lat="46.02496" lon="0.4827">
        <ele>181.80859375</ele>
        <time>2017-07-21T12:46:18Z</time>
      </trkpt>
      <trkpt lat="46.02503" lon="0.48269">
        <ele>181.5703125</ele>
        <time>2017-07-21T12:46:19Z</time>
      </trkpt>
      <trkpt lat="46.02524" lon="0.48264">
        <ele>180.91015625</ele>
        <time>2017-07-21T12:46:22Z</time>
      </trkpt>
      <trkpt lat="46.02544" lon="0.48255">
        <ele>180.3828125</ele>
        <time>2017-07-21T12:46:25Z</time>
      </trkpt>
      <trkpt lat="46.02593" lon="0.48241">
        <ele>178.96875</ele>
        <time>2017-07-21T12:46:33Z</time>
      </trkpt>
      <trkpt lat="46.02639" lon="0.48234">
        <ele>178.03515625</ele>
        <time>2017-07-21T12:46:42Z</time>
      </trkpt>
      <trkpt lat="46.02679" lon="0.48237">
        <ele>178</ele>
        <time>2017-07-21T12:46:50Z</time>
      </trkpt>
      <trkpt lat="46.02735" lon="0.48262">
        <ele>176.8828125</ele>
        <time>2017-07-21T12:47:00Z</time>
      </trkpt>
      <trkpt lat="46.02779" lon="0.48274">
        <ele>176.06640625</ele>
        <time>2017-07-21T12:47:08Z</time>
      </trkpt>
      <trkpt lat="46.02831" lon="0.48279">
        <ele>175.90625</ele>
        <time>2017-07-21T12:47:17Z</time>
      </trkpt>
      <trkpt lat="46.02837" lon="0.4828">
        <ele>175.87890625</ele>
        <time>2017-07-21T12:47:18Z</time>
      </trkpt>
      <trkpt lat="46.02843" lon="0.48281">
        <ele>175.83203125</ele>
        <time>2017-07-21T12:47:19Z</time>
      </trkpt>
      <trkpt lat="46.02891" lon="0.48289">
        <ele>175.92578125</ele>
        <time>2017-07-21T12:47:27Z</time>
      </trkpt>
      <trkpt lat="46.02903" lon="0.48288">
        <ele>176.10546875</ele>
        <time>2017-07-21T12:47:29Z</time>
      </trkpt>
      <trkpt lat="46.02909" lon="0.48286">
        <ele>176.2109375</ele>
        <time>2017-07-21T12:47:30Z</time>
      </trkpt>
      <trkpt lat="46.02914" lon="0.48284">
        <ele>176.32421875</ele>
        <time>2017-07-21T12:47:31Z</time>
      </trkpt>
      <trkpt lat="46.0292" lon="0.48281">
        <ele>176.3984375</ele>
        <time>2017-07-21T12:47:32Z</time>
      </trkpt>
      <trkpt lat="46.02925" lon="0.48277">
        <ele>176.41796875</ele>
        <time>2017-07-21T12:47:33Z</time>
      </trkpt>
      <trkpt lat="46.02929" lon="0.48273">
        <ele>176.4453125</ele>
        <time>2017-07-21T12:47:34Z</time>
      </trkpt>
      <trkpt lat="46.02933" lon="0.48268">
        <ele>176.46875</ele>
        <time>2017-07-21T12:47:35Z</time>
      </trkpt>
      <trkpt lat="46.02936" lon="0.48263">
        <ele>176.48828125</ele>
        <time>2017-07-21T12:47:36Z</time>
      </trkpt>
      <trkpt lat="46.02964" lon="0.48221">
        <ele>176.171875</ele>
        <time>2017-07-21T12:47:44Z</time>
      </trkpt>
      <trkpt lat="46.02999" lon="0.48183">
        <ele>175.3671875</ele>
        <time>2017-07-21T12:47:52Z</time>
      </trkpt>
      <trkpt lat="46.03031" lon="0.48162">
        <ele>174.453125</ele>
        <time>2017-07-21T12:47:58Z</time>
      </trkpt>
      <trkpt lat="46.03078" lon="0.48137">
        <ele>173.98828125</ele>
        <time>2017-07-21T12:48:06Z</time>
      </trkpt>
      <trkpt lat="46.03078" lon="0.48137">
        <ele>173.9921875</ele>
        <time>2015-11-06T10:06:27Z</time>
      </trkpt>
      <trkpt lat="46.03078" lon="0.48137">
        <ele>173.9765625</ele>
        <time>2015-11-06T10:14:14Z</time>
      </trkpt>
      <trkpt lat="46.03032" lon="0.48087">
        <ele>172.1875</ele>
        <time>2015-11-06T10:14:23Z</time>
      </trkpt>
      <trkpt lat="46.02996" lon="0.48033">
        <ele>169.96484375</ele>
        <time>2015-11-06T10:14:32Z</time>
      </trkpt>
      <trkpt lat="46.02991" lon="0.48026">
        <ele>169.6484375</ele>
        <time>2015-11-06T10:14:33Z</time>
      </trkpt>
      <trkpt lat="46.02966" lon="0.47985">
        <ele>166.484375</ele>
        <time>2015-11-06T10:14:38Z</time>
      </trkpt>
      <trkpt lat="46.02954" lon="0.47969">
        <ele>165.1796875</ele>
        <time>2015-11-06T10:14:40Z</time>
      </trkpt>
      <trkpt lat="46.02948" lon="0.47962">
        <ele>164.625</ele>
        <time>2015-11-06T10:14:41Z</time>
      </trkpt>
      <trkpt lat="46.0294" lon="0.47956">
        <ele>164.140625</ele>
        <time>2015-11-06T10:14:42Z</time>
      </trkpt>
      <trkpt lat="46.02932" lon="0.47952">
        <ele>163.78515625</ele>
        <time>2015-11-06T10:14:43Z</time>
      </trkpt>
      <trkpt lat="46.02923" lon="0.47949">
        <ele>163.54296875</ele>
        <time>2015-11-06T10:14:44Z</time>
      </trkpt>
      <trkpt lat="46.02914" lon="0.47947">
        <ele>163.42578125</ele>
        <time>2015-11-06T10:14:45Z</time>
      </trkpt>
      <trkpt lat="46.02907" lon="0.47946">
        <ele>163.390625</ele>
        <time>2015-11-06T10:14:46Z</time>
      </trkpt>
      <trkpt lat="46.02891" lon="0.47942">
        <ele>163.09375</ele>
        <time>2015-11-06T10:14:48Z</time>
      </trkpt>
      <trkpt lat="46.02884" lon="0.47936">
        <ele>162.6328125</ele>
        <time>2015-11-06T10:14:49Z</time>
      </trkpt>
      <trkpt lat="46.02878" lon="0.47929">
        <ele>162</ele>
        <time>2015-11-06T10:14:50Z</time>
      </trkpt>
      <trkpt lat="46.02872" lon="0.47918">
        <ele>161.08984375</ele>
        <time>2015-11-06T10:14:51Z</time>
      </trkpt>
      <trkpt lat="46.02868" lon="0.47906">
        <ele>160.73046875</ele>
        <time>2015-11-06T10:14:52Z</time>
      </trkpt>
      <trkpt lat="46.02866" lon="0.47893">
        <ele>160.5390625</ele>
        <time>2015-11-06T10:14:53Z</time>
      </trkpt>
      <trkpt lat="46.02866" lon="0.4788">
        <ele>160.296875</ele>
        <time>2015-11-06T10:14:54Z</time>
      </trkpt>
      <trkpt lat="46.02869" lon="0.47868">
        <ele>160.03125</ele>
        <time>2015-11-06T10:14:55Z</time>
      </trkpt>
      <trkpt lat="46.02873" lon="0.47857">
        <ele>160.03515625</ele>
        <time>2015-11-06T10:14:56Z</time>
      </trkpt>
      <trkpt lat="46.02878" lon="0.4785">
        <ele>160.58203125</ele>
        <time>2015-11-06T10:14:57Z</time>
      </trkpt>
      <trkpt lat="46.02884" lon="0.47844">
        <ele>160.91796875</ele>
        <time>2015-11-06T10:14:58Z</time>
      </trkpt>
      <trkpt lat="46.02889" lon="0.4784">
        <ele>161.1015625</ele>
        <time>2015-11-06T10:14:59Z</time>
      </trkpt>
      <trkpt lat="46.02895" lon="0.47837">
        <ele>161.2109375</ele>
        <time>2015-11-06T10:15:00Z</time>
      </trkpt>
      <trkpt lat="46.029" lon="0.47835">
        <ele>161.2578125</ele>
        <time>2015-11-06T10:15:01Z</time>
      </trkpt>
      <trkpt lat="46.02906" lon="0.47833">
        <ele>161.28515625</ele>
        <time>2015-11-06T10:15:02Z</time>
      </trkpt>
      <trkpt lat="46.02927" lon="0.47819">
        <ele>161.4921875</ele>
        <time>2015-11-06T10:15:07Z</time>
      </trkpt>
      <trkpt lat="46.02948" lon="0.47794">
        <ele>162.38671875</ele>
        <time>2015-11-06T10:15:14Z</time>
      </trkpt>
      <trkpt lat="46.02973" lon="0.47759">
        <ele>164.890625</ele>
        <time>2015-11-06T10:15:23Z</time>
      </trkpt>
      <trkpt lat="46.02992" lon="0.47724">
        <ele>168.24609375</ele>
        <time>2015-11-06T10:15:32Z</time>
      </trkpt>
      <trkpt lat="46.03002" lon="0.47688">
        <ele>171.2265625</ele>
        <time>2015-11-06T10:15:40Z</time>
      </trkpt>
      <trkpt lat="46.03011" lon="0.47646">
        <ele>172.9609375</ele>
        <time>2015-11-06T10:15:50Z</time>
      </trkpt>
      <trkpt lat="46.03029" lon="0.47609">
        <ele>174.01953125</ele>
        <time>2015-11-06T10:16:00Z</time>
      </trkpt>
      <trkpt lat="46.03045" lon="0.47571">
        <ele>174.765625</ele>
        <time>2015-11-06T10:16:09Z</time>
      </trkpt>
      <trkpt lat="46.03053" lon="0.47538">
        <ele>175.3671875</ele>
        <time>2015-11-06T10:16:17Z</time>
      </trkpt>
      <trkpt lat="46.03057" lon="0.47538">
        <ele>175.203125</ele>
        <time>2015-11-06T10:16:18Z</time>
      </trkpt>
      <trkpt lat="46.0306" lon="0.47539">
        <ele>174.9765625</ele>
        <time>2015-11-06T10:16:19Z</time>
      </trkpt>
      <trkpt lat="46.03069" lon="0.47544">
        <ele>174.4296875</ele>
        <time>2015-11-06T10:16:21Z</time>
      </trkpt>
      <trkpt lat="46.03074" lon="0.47543">
        <ele>174.18359375</ele>
        <time>2015-11-06T10:16:22Z</time>
      </trkpt>
      <trkpt lat="46.03079" lon="0.4754">
        <ele>174.01171875</ele>
        <time>2015-11-06T10:16:23Z</time>
      </trkpt>
      <trkpt lat="46.03083" lon="0.47536">
        <ele>173.91796875</ele>
        <time>2015-11-06T10:16:24Z</time>
      </trkpt>
      <trkpt lat="46.03085" lon="0.4753">
        <ele>173.91015625</ele>
        <time>2015-11-06T10:16:25Z</time>
      </trkpt>
      <trkpt lat="46.03087" lon="0.47524">
        <ele>174.0078125</ele>
        <time>2015-11-06T10:16:26Z</time>
      </trkpt>
      <trkpt lat="46.03088" lon="0.47518">
        <ele>174.171875</ele>
        <time>2015-11-06T10:16:27Z</time>
      </trkpt>
      <trkpt lat="46.03089" lon="0.47511">
        <ele>174.359375</ele>
        <time>2015-11-06T10:16:28Z</time>
      </trkpt>
      <trkpt lat="46.0309" lon="0.47504">
        <ele>174.55078125</ele>
        <time>2015-11-06T10:16:29Z</time>
      </trkpt>
      <trkpt lat="46.03091" lon="0.47498">
        <ele>174.7109375</ele>
        <time>2015-11-06T10:16:30Z</time>
      </trkpt>
      <trkpt lat="46.03105" lon="0.47436">
        <ele>174.25</ele>
        <time>2015-11-06T10:16:40Z</time>
      </trkpt>
      <trkpt lat="46.03124" lon="0.47379">
        <ele>171.06640625</ele>
        <time>2015-11-06T10:16:48Z</time>
      </trkpt>
      <trkpt lat="46.03146" lon="0.47324">
        <ele>168.09375</ele>
        <time>2015-11-06T10:16:54Z</time>
      </trkpt>
      <trkpt lat="46.03149" lon="0.47313">
        <ele>167.8984375</ele>
        <time>2015-11-06T10:16:55Z</time>
      </trkpt>
      <trkpt lat="46.03151" lon="0.47301">
        <ele>167.9453125</ele>
        <time>2015-11-06T10:16:56Z</time>
      </trkpt>
      <trkpt lat="46.03152" lon="0.4729">
        <ele>168.40234375</ele>
        <time>2015-11-06T10:16:57Z</time>
      </trkpt>
      <trkpt lat="46.03154" lon="0.47247">
        <ele>170.4140625</ele>
        <time>2015-11-06T10:17:02Z</time>
      </trkpt>
      <trkpt lat="46.03155" lon="0.47234">
        <ele>171.2578125</ele>
        <time>2015-11-06T10:17:04Z</time>
      </trkpt>
      <trkpt lat="46.0316" lon="0.472">
        <ele>173.546875</ele>
        <time>2015-11-06T10:17:11Z</time>
      </trkpt>
      <trkpt lat="46.0316" lon="0.47196">
        <ele>173.8515625</ele>
        <time>2015-11-06T10:17:12Z</time>
      </trkpt>
      <trkpt lat="46.03169" lon="0.47155">
        <ele>176.0546875</ele>
        <time>2015-11-06T10:17:20Z</time>
      </trkpt>
      <trkpt lat="46.03181" lon="0.4711">
        <ele>178.13671875</ele>
        <time>2015-11-06T10:17:29Z</time>
      </trkpt>
      <trkpt lat="46.03196" lon="0.47086">
        <ele>178.8515625</ele>
        <time>2015-11-06T10:17:35Z</time>
      </trkpt>
      <trkpt lat="46.03216" lon="0.47068">
        <ele>178.796875</ele>
        <time>2015-11-06T10:17:41Z</time>
      </trkpt>
      <trkpt lat="46.03224" lon="0.47064">
        <ele>178.65625</ele>
        <time>2015-11-06T10:17:43Z</time>
      </trkpt>
      <trkpt lat="46.03228" lon="0.47062">
        <ele>178.5703125</ele>
        <time>2015-11-06T10:17:44Z</time>
      </trkpt>
      <trkpt lat="46.03232" lon="0.47061">
        <ele>178.4765625</ele>
        <time>2015-11-06T10:17:45Z</time>
      </trkpt>
      <trkpt lat="46.03236" lon="0.47061">
        <ele>178.37890625</ele>
        <time>2015-11-06T10:17:46Z</time>
      </trkpt>
      <trkpt lat="46.0324" lon="0.47061">
        <ele>178.2734375</ele>
        <time>2015-11-06T10:17:47Z</time>
      </trkpt>
      <trkpt lat="46.0328" lon="0.47068">
        <ele>177.09375</ele>
        <time>2015-11-06T10:17:56Z</time>
      </trkpt>
      <trkpt lat="46.03296" lon="0.47069">
        <ele>176.56640625</ele>
        <time>2015-11-06T10:18:02Z</time>
      </trkpt>
      <trkpt lat="46.03303" lon="0.47069">
        <ele>176.34375</ele>
        <time>2015-11-06T10:18:04Z</time>
      </trkpt>
      <trkpt lat="46.03303" lon="0.47068">
        <ele>176.36328125</ele>
        <time>2015-11-06T10:20:13Z</time>
      </trkpt>
      <trkpt lat="46.03312" lon="0.4707">
        <ele>176.23046875</ele>
        <time>2015-11-06T10:20:22Z</time>
      </trkpt>
      <trkpt lat="46.03363" lon="0.47079">
        <ele>176.015625</ele>
        <time>2015-11-06T10:20:32Z</time>
      </trkpt>
      <trkpt lat="46.0339" lon="0.47088">
        <ele>174.84765625</ele>
        <time>2015-11-06T10:20:38Z</time>
      </trkpt>
      <trkpt lat="46.03404" lon="0.47093">
        <ele>174.2578125</ele>
        <time>2015-11-06T10:21:12Z</time>
      </trkpt>
      <trkpt lat="46.03406" lon="0.47094">
        <ele>174.1796875</ele>
        <time>2015-11-06T10:21:13Z</time>
      </trkpt>
      <trkpt lat="46.03408" lon="0.47095">
        <ele>174.078125</ele>
        <time>2015-11-06T10:21:14Z</time>
      </trkpt>
      <trkpt lat="46.03411" lon="0.47096">
        <ele>173.96484375</ele>
        <time>2015-11-06T10:21:15Z</time>
      </trkpt>
      <trkpt lat="46.03437" lon="0.47107">
        <ele>173.01953125</ele>
        <time>2015-11-06T10:21:23Z</time>
      </trkpt>
      <trkpt lat="46.03472" lon="0.47122">
        <ele>172.02734375</ele>
        <time>2015-11-06T10:21:32Z</time>
      </trkpt>
      <trkpt lat="46.03523" lon="0.47143">
        <ele>171.08203125</ele>
        <time>2015-11-06T10:21:43Z</time>
      </trkpt>
      <trkpt lat="46.03538" lon="0.47148">
        <ele>171</ele>
        <time>2015-11-06T10:21:46Z</time>
      </trkpt>
      <trkpt lat="46.03543" lon="0.47151">
        <ele>171</ele>
        <time>2015-11-06T10:21:47Z</time>
      </trkpt>
      <trkpt lat="46.03548" lon="0.47152">
        <ele>171</ele>
        <time>2015-11-06T10:21:48Z</time>
      </trkpt>
      <trkpt lat="46.03552" lon="0.47153">
        <ele>171</ele>
        <time>2015-11-06T10:21:49Z</time>
      </trkpt>
      <trkpt lat="46.03555" lon="0.47151">
        <ele>171</ele>
        <time>2015-11-06T10:21:50Z</time>
      </trkpt>
      <trkpt lat="46.03556" lon="0.47147">
        <ele>171</ele>
        <time>2015-11-06T10:21:51Z</time>
      </trkpt>
      <trkpt lat="46.03557" lon="0.47142">
        <ele>171</ele>
        <time>2015-11-06T10:21:52Z</time>
      </trkpt>
      <trkpt lat="46.03557" lon="0.47137">
        <ele>170.98046875</ele>
        <time>2015-11-06T10:21:53Z</time>
      </trkpt>
      <trkpt lat="46.03556" lon="0.47132">
        <ele>170.89453125</ele>
        <time>2015-11-06T10:21:54Z</time>
      </trkpt>
      <trkpt lat="46.03551" lon="0.47106">
        <ele>170.53125</ele>
        <time>2015-11-06T10:22:00Z</time>
      </trkpt>
      <trkpt lat="46.03544" lon="0.47071">
        <ele>170.03515625</ele>
        <time>2015-11-06T10:22:08Z</time>
      </trkpt>
      <trkpt lat="46.03537" lon="0.47031">
        <ele>168.84375</ele>
        <time>2015-11-06T10:22:17Z</time>
      </trkpt>
      <trkpt lat="46.03536" lon="0.47001">
        <ele>167.671875</ele>
        <time>2015-11-06T10:22:24Z</time>
      </trkpt>
      <trkpt lat="46.03537" lon="0.46961">
        <ele>166.13671875</ele>
        <time>2015-11-06T10:22:33Z</time>
      </trkpt>
      <trkpt lat="46.03539" lon="0.46942">
        <ele>165.625</ele>
        <time>2015-11-06T10:22:39Z</time>
      </trkpt>
      <trkpt lat="46.03541" lon="0.46928">
        <ele>165.15625</ele>
        <time>2015-11-06T10:22:42Z</time>
      </trkpt>
      <trkpt lat="46.03545" lon="0.46897">
        <ele>163.91796875</ele>
        <time>2015-11-06T10:22:47Z</time>
      </trkpt>
      <trkpt lat="46.03549" lon="0.46851">
        <ele>162.12109375</ele>
        <time>2015-11-06T10:22:53Z</time>
      </trkpt>
      <trkpt lat="46.03549" lon="0.46807">
        <ele>160.3671875</ele>
        <time>2015-11-06T10:23:00Z</time>
      </trkpt>
      <trkpt lat="46.03548" lon="0.46765">
        <ele>160.078125</ele>
        <time>2015-11-06T10:23:07Z</time>
      </trkpt>
      <trkpt lat="46.0355" lon="0.46735">
        <ele>160.46875</ele>
        <time>2015-11-06T10:23:13Z</time>
      </trkpt>
      <trkpt lat="46.03553" lon="0.46699">
        <ele>161.70703125</ele>
        <time>2015-11-06T10:23:21Z</time>
      </trkpt>
      <trkpt lat="46.03555" lon="0.46654">
        <ele>164.09765625</ele>
        <time>2015-11-06T10:23:31Z</time>
      </trkpt>
      <trkpt lat="46.03558" lon="0.46629">
        <ele>165.31640625</ele>
        <time>2015-11-06T10:23:39Z</time>
      </trkpt>
      <trkpt lat="46.03561" lon="0.46603">
        <ele>166.05078125</ele>
        <time>2015-11-06T10:23:48Z</time>
      </trkpt>
      <trkpt lat="46.03562" lon="0.46577">
        <ele>166.69140625</ele>
        <time>2015-11-06T10:23:57Z</time>
      </trkpt>
      <trkpt lat="46.03567" lon="0.46552">
        <ele>167.03515625</ele>
        <time>2015-11-06T10:24:06Z</time>
      </trkpt>
      <trkpt lat="46.0357" lon="0.46528">
        <ele>167.24609375</ele>
        <time>2015-11-06T10:24:14Z</time>
      </trkpt>
      <trkpt lat="46.03574" lon="0.46486">
        <ele>166.57421875</ele>
        <time>2015-11-06T10:24:23Z</time>
      </trkpt>
      <trkpt lat="46.03575" lon="0.46433">
        <ele>165.15234375</ele>
        <time>2015-11-06T10:24:32Z</time>
      </trkpt>
      <trkpt lat="46.03575" lon="0.46429">
        <ele>165.04296875</ele>
        <time>2015-11-06T10:24:36Z</time>
      </trkpt>
      <trkpt lat="46.03574" lon="0.46419">
        <ele>164.828125</ele>
        <time>2015-11-06T10:25:16Z</time>
      </trkpt>
      <trkpt lat="46.03582" lon="0.46376">
        <ele>164.109375</ele>
        <time>2015-11-06T10:25:24Z</time>
      </trkpt>
      <trkpt lat="46.03599" lon="0.46322">
        <ele>162.62109375</ele>
        <time>2015-11-06T10:25:34Z</time>
      </trkpt>
      <trkpt lat="46.03614" lon="0.46278">
        <ele>162.05078125</ele>
        <time>2015-11-06T10:25:41Z</time>
      </trkpt>
      <trkpt lat="46.03637" lon="0.46206">
        <ele>161.16015625</ele>
        <time>2015-11-06T10:25:51Z</time>
      </trkpt>
      <trkpt lat="46.03658" lon="0.46144">
        <ele>160.30859375</ele>
        <time>2015-11-06T10:26:00Z</time>
      </trkpt>
      <trkpt lat="46.03662" lon="0.46131">
        <ele>160.3203125</ele>
        <time>2015-11-06T10:26:02Z</time>
      </trkpt>
      <trkpt lat="46.03666" lon="0.46116">
        <ele>160.45703125</ele>
        <time>2015-11-06T10:26:04Z</time>
      </trkpt>
      <trkpt lat="46.03667" lon="0.46108">
        <ele>160.5546875</ele>
        <time>2015-11-06T10:26:05Z</time>
      </trkpt>
      <trkpt lat="46.03671" lon="0.46079">
        <ele>160.73828125</ele>
        <time>2015-11-06T10:26:09Z</time>
      </trkpt>
      <trkpt lat="46.03672" lon="0.46073">
        <ele>160.47265625</ele>
        <time>2015-11-06T10:26:10Z</time>
      </trkpt>
      <trkpt lat="46.03678" lon="0.46051">
        <ele>159.4453125</ele>
        <time>2015-11-06T10:26:15Z</time>
      </trkpt>
      <trkpt lat="46.03692" lon="0.46009">
        <ele>157.44140625</ele>
        <time>2015-11-06T10:26:21Z</time>
      </trkpt>
      <trkpt lat="46.03717" lon="0.45934">
        <ele>154.640625</ele>
        <time>2015-11-06T10:26:30Z</time>
      </trkpt>
      <trkpt lat="46.0374" lon="0.45872">
        <ele>153.3984375</ele>
        <time>2015-11-06T10:26:38Z</time>
      </trkpt>
      <trkpt lat="46.03763" lon="0.45802">
        <ele>151.6875</ele>
        <time>2015-11-06T10:26:48Z</time>
      </trkpt>
      <trkpt lat="46.03765" lon="0.45795">
        <ele>151.44921875</ele>
        <time>2015-11-06T10:26:49Z</time>
      </trkpt>
      <trkpt lat="46.03768" lon="0.45788">
        <ele>151.1796875</ele>
        <time>2015-11-06T10:26:50Z</time>
      </trkpt>
      <trkpt lat="46.0377" lon="0.45781">
        <ele>150.90625</ele>
        <time>2015-11-06T10:26:51Z</time>
      </trkpt>
      <trkpt lat="46.03776" lon="0.45759">
        <ele>149.94921875</ele>
        <time>2015-11-06T10:26:54Z</time>
      </trkpt>
      <trkpt lat="46.0378" lon="0.45749">
        <ele>149.31640625</ele>
        <time>2015-11-06T10:26:57Z</time>
      </trkpt>
      <trkpt lat="46.03782" lon="0.45747">
        <ele>149.16796875</ele>
        <time>2015-11-06T10:26:58Z</time>
      </trkpt>
      <trkpt lat="46.03782" lon="0.45742">
        <ele>148.875</ele>
        <time>2015-11-06T10:26:59Z</time>
      </trkpt>
      <trkpt lat="46.03782" lon="0.45731">
        <ele>148.28125</ele>
        <time>2015-11-06T10:27:00Z</time>
      </trkpt>
      <trkpt lat="46.0378" lon="0.45721">
        <ele>147.8359375</ele>
        <time>2015-11-06T10:27:01Z</time>
      </trkpt>
      <trkpt lat="46.03779" lon="0.45712">
        <ele>147.41796875</ele>
        <time>2015-11-06T10:27:02Z</time>
      </trkpt>
      <trkpt lat="46.03779" lon="0.45708">
        <ele>147.19921875</ele>
        <time>2015-11-06T10:27:03Z</time>
      </trkpt>
      <trkpt lat="46.03782" lon="0.45705">
        <ele>146.89453125</ele>
        <time>2015-11-06T10:27:04Z</time>
      </trkpt>
      <trkpt lat="46.03794" lon="0.45709">
        <ele>146.4375</ele>
        <time>2015-11-06T10:27:05Z</time>
      </trkpt>
      <trkpt lat="46.03801" lon="0.4571">
        <ele>146.11328125</ele>
        <time>2015-11-06T10:27:06Z</time>
      </trkpt>
      <trkpt lat="46.03804" lon="0.45695">
        <ele>145.1484375</ele>
        <time>2015-11-06T10:27:08Z</time>
      </trkpt>
      <trkpt lat="46.03814" lon="0.45671">
        <ele>144.41796875</ele>
        <time>2015-11-06T10:27:11Z</time>
      </trkpt>
      <trkpt lat="46.03826" lon="0.4562">
        <ele>144.46875</ele>
        <time>2015-11-06T10:27:18Z</time>
      </trkpt>
      <trkpt lat="46.03837" lon="0.45566">
        <ele>146.1953125</ele>
        <time>2015-11-06T10:27:26Z</time>
      </trkpt>
      <trkpt lat="46.03843" lon="0.4553">
        <ele>147.59765625</ele>
        <time>2015-11-06T10:27:33Z</time>
      </trkpt>
      <trkpt lat="46.03848" lon="0.455">
        <ele>148.88671875</ele>
        <time>2015-11-06T10:27:40Z</time>
      </trkpt>
      <trkpt lat="46.03854" lon="0.45451">
        <ele>150.78125</ele>
        <time>2015-11-06T10:27:51Z</time>
      </trkpt>
      <trkpt lat="46.03859" lon="0.45411">
        <ele>152.29296875</ele>
        <time>2015-11-06T10:28:00Z</time>
      </trkpt>
      <trkpt lat="46.03863" lon="0.45378">
        <ele>154.1015625</ele>
        <time>2015-11-06T10:28:08Z</time>
      </trkpt>
      <trkpt lat="46.03865" lon="0.45353">
        <ele>155.15625</ele>
        <time>2015-11-06T10:28:15Z</time>
      </trkpt>
      <trkpt lat="46.03873" lon="0.45312">
        <ele>155.89453125</ele>
        <time>2015-11-06T10:28:26Z</time>
      </trkpt>
      <trkpt lat="46.03878" lon="0.45283">
        <ele>156</ele>
        <time>2015-11-06T10:28:33Z</time>
      </trkpt>
      <trkpt lat="46.03884" lon="0.45244">
        <ele>156</ele>
        <time>2015-11-06T10:28:42Z</time>
      </trkpt>
      <trkpt lat="46.03887" lon="0.45239">
        <ele>156</ele>
        <time>2015-11-06T10:28:44Z</time>
      </trkpt>
      <trkpt lat="46.03889" lon="0.45239">
        <ele>156</ele>
        <time>2015-11-06T10:28:45Z</time>
      </trkpt>
      <trkpt lat="46.03891" lon="0.45239">
        <ele>156</ele>
        <time>2015-11-06T10:28:46Z</time>
      </trkpt>
      <trkpt lat="46.03894" lon="0.45239">
        <ele>156</ele>
        <time>2015-11-06T10:28:47Z</time>
      </trkpt>
      <trkpt lat="46.03897" lon="0.4524">
        <ele>156</ele>
        <time>2015-11-06T10:28:48Z</time>
      </trkpt>
      <trkpt lat="46.039" lon="0.4524">
        <ele>156</ele>
        <time>2015-11-06T10:28:49Z</time>
      </trkpt>
      <trkpt lat="46.03919" lon="0.45243">
        <ele>155.99609375</ele>
        <time>2015-11-06T10:28:55Z</time>
      </trkpt>
      <trkpt lat="46.03925" lon="0.4524">
        <ele>155.97265625</ele>
        <time>2015-11-06T10:28:57Z</time>
      </trkpt>
      <trkpt lat="46.03928" lon="0.45236">
        <ele>155.953125</ele>
        <time>2015-11-06T10:28:58Z</time>
      </trkpt>
      <trkpt lat="46.03935" lon="0.45208">
        <ele>155.75</ele>
        <time>2015-11-06T10:29:03Z</time>
      </trkpt>
      <trkpt lat="46.03936" lon="0.45201">
        <ele>155.69140625</ele>
        <time>2015-11-06T10:29:04Z</time>
      </trkpt>
      <trkpt lat="46.03937" lon="0.45194">
        <ele>155.6328125</ele>
        <time>2015-11-06T10:29:05Z</time>
      </trkpt>
      <trkpt lat="46.03945" lon="0.45147">
        <ele>155.07421875</ele>
        <time>2015-11-06T10:29:12Z</time>
      </trkpt>
      <trkpt lat="46.03958" lon="0.45094">
        <ele>155</ele>
        <time>2015-11-06T10:29:19Z</time>
      </trkpt>
      <trkpt lat="46.03973" lon="0.45034">
        <ele>155</ele>
        <time>2015-11-06T10:29:27Z</time>
      </trkpt>
      <trkpt lat="46.03977" lon="0.4503">
        <ele>154.9921875</ele>
        <time>2015-11-06T10:29:28Z</time>
      </trkpt>
      <trkpt lat="46.0398" lon="0.45031">
        <ele>154.984375</ele>
        <time>2015-11-06T10:29:29Z</time>
      </trkpt>
      <trkpt lat="46.03983" lon="0.45033">
        <ele>154.96484375</ele>
        <time>2015-11-06T10:29:30Z</time>
      </trkpt>
      <trkpt lat="46.03987" lon="0.45036">
        <ele>154.9296875</ele>
        <time>2015-11-06T10:29:31Z</time>
      </trkpt>
      <trkpt lat="46.0399" lon="0.45039">
        <ele>154.87890625</ele>
        <time>2015-11-06T10:29:32Z</time>
      </trkpt>
      <trkpt lat="46.03998" lon="0.45046">
        <ele>154.71484375</ele>
        <time>2015-11-06T10:29:34Z</time>
      </trkpt>
      <trkpt lat="46.04002" lon="0.45048">
        <ele>154.6171875</ele>
        <time>2015-11-06T10:29:35Z</time>
      </trkpt>
      <trkpt lat="46.04006" lon="0.4505">
        <ele>154.5234375</ele>
        <time>2015-11-06T10:29:36Z</time>
      </trkpt>
      <trkpt lat="46.04009" lon="0.45051">
        <ele>154.453125</ele>
        <time>2015-11-06T10:29:37Z</time>
      </trkpt>
      <trkpt lat="46.04014" lon="0.45051">
        <ele>154.39453125</ele>
        <time>2015-11-06T10:29:38Z</time>
      </trkpt>
      <trkpt lat="46.04018" lon="0.45051">
        <ele>154.33984375</ele>
        <time>2015-11-06T10:29:39Z</time>
      </trkpt>
      <trkpt lat="46.04049" lon="0.45055">
        <ele>154.23828125</ele>
        <time>2015-11-06T10:29:47Z</time>
      </trkpt>
      <trkpt lat="46.04079" lon="0.4506">
        <ele>154.25</ele>
        <time>2015-11-06T10:29:55Z</time>
      </trkpt>
      <trkpt lat="46.04089" lon="0.45058">
        <ele>154.40625</ele>
        <time>2015-11-06T10:29:58Z</time>
      </trkpt>
      <trkpt lat="46.0411" lon="0.45053">
        <ele>154.91015625</ele>
        <time>2015-11-06T10:30:05Z</time>
      </trkpt>
      <trkpt lat="46.04129" lon="0.45046">
        <ele>155.57421875</ele>
        <time>2015-11-06T10:30:11Z</time>
      </trkpt>
      <trkpt lat="46.0414" lon="0.45028">
        <ele>157.05078125</ele>
        <time>2015-11-06T10:30:17Z</time>
      </trkpt>
      <trkpt lat="46.04147" lon="0.45005">
        <ele>158.61328125</ele>
        <time>2015-11-06T10:30:23Z</time>
      </trkpt>
      <trkpt lat="46.04156" lon="0.44972">
        <ele>160.62109375</ele>
        <time>2015-11-06T10:30:32Z</time>
      </trkpt>
      <trkpt lat="46.04166" lon="0.44944">
        <ele>162.0078125</ele>
        <time>2015-11-06T10:30:41Z</time>
      </trkpt>
      <trkpt lat="46.04174" lon="0.44921">
        <ele>163.1015625</ele>
        <time>2015-11-06T10:30:49Z</time>
      </trkpt>
      <trkpt lat="46.04185" lon="0.44895">
        <ele>164.11328125</ele>
        <time>2015-11-06T10:30:59Z</time>
      </trkpt>
      <trkpt lat="46.04196" lon="0.44868">
        <ele>164.8828125</ele>
        <time>2015-11-06T10:31:09Z</time>
      </trkpt>
      <trkpt lat="46.04203" lon="0.44861">
        <ele>164.9765625</ele>
        <time>2015-11-06T10:31:16Z</time>
      </trkpt>
      <trkpt lat="46.04204" lon="0.44861">
        <ele>164.98046875</ele>
        <time>2015-11-06T10:31:26Z</time>
      </trkpt>
      <trkpt lat="46.04205" lon="0.44861">
        <ele>164.98046875</ele>
        <time>2015-11-06T10:31:27Z</time>
      </trkpt>
      <trkpt lat="46.04207" lon="0.44861">
        <ele>164.96875</ele>
        <time>2015-11-06T10:31:28Z</time>
      </trkpt>
      <trkpt lat="46.04208" lon="0.4486">
        <ele>164.94921875</ele>
        <time>2015-11-06T10:31:29Z</time>
      </trkpt>
      <trkpt lat="46.0421" lon="0.44859">
        <ele>164.88671875</ele>
        <time>2015-11-06T10:31:30Z</time>
      </trkpt>
      <trkpt lat="46.04211" lon="0.44856">
        <ele>164.76171875</ele>
        <time>2015-11-06T10:31:31Z</time>
      </trkpt>
      <trkpt lat="46.04211" lon="0.44853">
        <ele>164.65234375</ele>
        <time>2015-11-06T10:31:32Z</time>
      </trkpt>
      <trkpt lat="46.0422" lon="0.44825">
        <ele>163.3828125</ele>
        <time>2015-11-06T10:31:39Z</time>
      </trkpt>
      <trkpt lat="46.04226" lon="0.44806">
        <ele>162.41015625</ele>
        <time>2015-11-06T10:31:42Z</time>
      </trkpt>
      <trkpt lat="46.04228" lon="0.44799">
        <ele>161.92578125</ele>
        <time>2015-11-06T10:31:43Z</time>
      </trkpt>
      <trkpt lat="46.04235" lon="0.44778">
        <ele>160.42578125</ele>
        <time>2015-11-06T10:31:46Z</time>
      </trkpt>
      <trkpt lat="46.04236" lon="0.44771">
        <ele>159.8671875</ele>
        <time>2015-11-06T10:31:47Z</time>
      </trkpt>
      <trkpt lat="46.04239" lon="0.44763">
        <ele>159.30078125</ele>
        <time>2015-11-06T10:31:48Z</time>
      </trkpt>
      <trkpt lat="46.04241" lon="0.44757">
        <ele>158.7578125</ele>
        <time>2015-11-06T10:31:49Z</time>
      </trkpt>
      <trkpt lat="46.04243" lon="0.4475">
        <ele>158.2265625</ele>
        <time>2015-11-06T10:31:50Z</time>
      </trkpt>
      <trkpt lat="46.04251" lon="0.44719">
        <ele>156.27734375</ele>
        <time>2015-11-06T10:31:54Z</time>
      </trkpt>
      <trkpt lat="46.04254" lon="0.44711">
        <ele>155.80859375</ele>
        <time>2015-11-06T10:31:55Z</time>
      </trkpt>
      <trkpt lat="46.04264" lon="0.4468">
        <ele>153.828125</ele>
        <time>2015-11-06T10:31:59Z</time>
      </trkpt>
      <trkpt lat="46.04267" lon="0.44672">
        <ele>153.3125</ele>
        <time>2015-11-06T10:32:00Z</time>
      </trkpt>
      <trkpt lat="46.0428" lon="0.44639">
        <ele>151.4921875</ele>
        <time>2015-11-06T10:32:04Z</time>
      </trkpt>
      <trkpt lat="46.04289" lon="0.44614">
        <ele>150.0234375</ele>
        <time>2015-11-06T10:32:07Z</time>
      </trkpt>
      <trkpt lat="46.04292" lon="0.44598">
        <ele>148.9453125</ele>
        <time>2015-11-06T10:32:09Z</time>
      </trkpt>
      <trkpt lat="46.04292" lon="0.44588">
        <ele>148.28125</ele>
        <time>2015-11-06T10:32:10Z</time>
      </trkpt>
      <trkpt lat="46.0429" lon="0.4458">
        <ele>147.7265625</ele>
        <time>2015-11-06T10:32:11Z</time>
      </trkpt>
      <trkpt lat="46.04289" lon="0.44573">
        <ele>147.265625</ele>
        <time>2015-11-06T10:32:12Z</time>
      </trkpt>
      <trkpt lat="46.04286" lon="0.44566">
        <ele>146.81640625</ele>
        <time>2015-11-06T10:32:13Z</time>
      </trkpt>
      <trkpt lat="46.04279" lon="0.44543">
        <ele>145.42578125</ele>
        <time>2015-11-06T10:32:17Z</time>
      </trkpt>
      <trkpt lat="46.04277" lon="0.44538">
        <ele>145.1171875</ele>
        <time>2015-11-06T10:32:18Z</time>
      </trkpt>
      <trkpt lat="46.04261" lon="0.445">
        <ele>143.67578125</ele>
        <time>2015-11-06T10:32:26Z</time>
      </trkpt>
      <trkpt lat="46.04257" lon="0.4449">
        <ele>143.38671875</ele>
        <time>2015-11-06T10:32:28Z</time>
      </trkpt>
      <trkpt lat="46.04246" lon="0.44442">
        <ele>143.17578125</ele>
        <time>2015-11-06T10:32:37Z</time>
      </trkpt>
      <trkpt lat="46.04252" lon="0.44417">
        <ele>142.9765625</ele>
        <time>2015-11-06T10:32:42Z</time>
      </trkpt>
      <trkpt lat="46.04254" lon="0.44403">
        <ele>143.35546875</ele>
        <time>2015-11-06T10:32:45Z</time>
      </trkpt>
      <trkpt lat="46.04257" lon="0.44382">
        <ele>143.96484375</ele>
        <time>2015-11-06T10:32:52Z</time>
      </trkpt>
      <trkpt lat="46.04257" lon="0.44359">
        <ele>144.7578125</ele>
        <time>2015-11-06T10:33:00Z</time>
      </trkpt>
      <trkpt lat="46.04256" lon="0.44357">
        <ele>144.90234375</ele>
        <time>2015-11-06T10:33:02Z</time>
      </trkpt>
      <trkpt lat="46.04255" lon="0.44358">
        <ele>144.94921875</ele>
        <time>2015-11-06T10:33:03Z</time>
      </trkpt>
      <trkpt lat="46.04254" lon="0.4436">
        <ele>144.90625</ele>
        <time>2015-11-06T10:33:04Z</time>
      </trkpt>
      <trkpt lat="46.04254" lon="0.44362">
        <ele>144.796875</ele>
        <time>2015-11-06T10:33:05Z</time>
      </trkpt>
      <trkpt lat="46.04254" lon="0.44365">
        <ele>144.703125</ele>
        <time>2015-11-06T10:33:06Z</time>
      </trkpt>
      <trkpt lat="46.04253" lon="0.44368">
        <ele>144.62109375</ele>
        <time>2015-11-06T10:33:07Z</time>
      </trkpt>
      <trkpt lat="46.04252" lon="0.44372">
        <ele>144.5390625</ele>
        <time>2015-11-06T10:33:08Z</time>
      </trkpt>
      <trkpt lat="46.04246" lon="0.4439">
        <ele>144.1328125</ele>
        <time>2015-11-06T10:33:13Z</time>
      </trkpt>
      <trkpt lat="46.04243" lon="0.44391">
        <ele>144.2265625</ele>
        <time>2015-11-06T10:33:14Z</time>
      </trkpt>
      <trkpt lat="46.0424" lon="0.44388">
        <ele>144.3984375</ele>
        <time>2015-11-06T10:33:15Z</time>
      </trkpt>
      <trkpt lat="46.04239" lon="0.44386">
        <ele>144.52734375</ele>
        <time>2015-11-06T10:33:16Z</time>
      </trkpt>
      <trkpt lat="46.04238" lon="0.44383">
        <ele>144.703125</ele>
        <time>2015-11-06T10:33:17Z</time>
      </trkpt>
      <trkpt lat="46.04223" lon="0.44348">
        <ele>146.81640625</ele>
        <time>2015-11-06T10:33:27Z</time>
      </trkpt>
      <trkpt lat="46.04212" lon="0.44321">
        <ele>149.15234375</ele>
        <time>2015-11-06T10:33:35Z</time>
      </trkpt>
      <trkpt lat="46.04195" lon="0.44288">
        <ele>151.98828125</ele>
        <time>2015-11-06T10:33:45Z</time>
      </trkpt>
      <trkpt lat="46.0418" lon="0.44261">
        <ele>153.35546875</ele>
        <time>2015-11-06T10:33:54Z</time>
      </trkpt>
      <trkpt lat="46.04164" lon="0.44237">
        <ele>154.52734375</ele>
        <time>2015-11-06T10:34:03Z</time>
      </trkpt>
      <trkpt lat="46.0415" lon="0.44214">
        <ele>155.734375</ele>
        <time>2015-11-06T10:34:11Z</time>
      </trkpt>
      <trkpt lat="46.0413" lon="0.44189">
        <ele>156.96484375</ele>
        <time>2015-11-06T10:34:20Z</time>
      </trkpt>
      <trkpt lat="46.04113" lon="0.44159">
        <ele>157.984375</ele>
        <time>2015-11-06T10:34:29Z</time>
      </trkpt>
      <trkpt lat="46.04099" lon="0.44123">
        <ele>159.51953125</ele>
        <time>2015-11-06T10:34:38Z</time>
      </trkpt>
      <trkpt lat="46.04079" lon="0.44085">
        <ele>160.8203125</ele>
        <time>2015-11-06T10:34:48Z</time>
      </trkpt>
      <trkpt lat="46.04062" lon="0.44072">
        <ele>160.9140625</ele>
        <time>2015-11-06T10:34:54Z</time>
      </trkpt>
      <trkpt lat="46.04035" lon="0.44061">
        <ele>160.51953125</ele>
        <time>2015-11-06T10:35:01Z</time>
      </trkpt>
      <trkpt lat="46.03998" lon="0.44042">
        <ele>160.09375</ele>
        <time>2015-11-06T10:35:10Z</time>
      </trkpt>
      <trkpt lat="46.03962" lon="0.44017">
        <ele>160.04296875</ele>
        <time>2015-11-06T10:35:19Z</time>
      </trkpt>
      <trkpt lat="46.03923" lon="0.4399">
        <ele>159.3671875</ele>
        <time>2015-11-06T10:35:29Z</time>
      </trkpt>
      <trkpt lat="46.03919" lon="0.43988">
        <ele>159.296875</ele>
        <time>2015-11-06T10:35:30Z</time>
      </trkpt>
      <trkpt lat="46.03915" lon="0.43985">
        <ele>159.234375</ele>
        <time>2015-11-06T10:35:31Z</time>
      </trkpt>
      <trkpt lat="46.03911" lon="0.43982">
        <ele>159.2109375</ele>
        <time>2015-11-06T10:35:32Z</time>
      </trkpt>
      <trkpt lat="46.03904" lon="0.43974">
        <ele>159.22265625</ele>
        <time>2015-11-06T10:35:34Z</time>
      </trkpt>
      <trkpt lat="46.039" lon="0.4397">
        <ele>159.22265625</ele>
        <time>2015-11-06T10:35:35Z</time>
      </trkpt>
      <trkpt lat="46.03895" lon="0.4396">
        <ele>159.24609375</ele>
        <time>2015-11-06T10:35:37Z</time>
      </trkpt>
      <trkpt lat="46.03892" lon="0.43955">
        <ele>159.3046875</ele>
        <time>2015-11-06T10:35:38Z</time>
      </trkpt>
      <trkpt lat="46.0389" lon="0.4395">
        <ele>159.390625</ele>
        <time>2015-11-06T10:35:39Z</time>
      </trkpt>
      <trkpt lat="46.03876" lon="0.43908">
        <ele>160.109375</ele>
        <time>2015-11-06T10:35:46Z</time>
      </trkpt>
      <trkpt lat="46.03873" lon="0.43904">
        <ele>160.125</ele>
        <time>2015-11-06T10:35:47Z</time>
      </trkpt>
      <trkpt lat="46.03869" lon="0.439">
        <ele>160.05859375</ele>
        <time>2015-11-06T10:35:48Z</time>
      </trkpt>
      <trkpt lat="46.03865" lon="0.43898">
        <ele>159.91796875</ele>
        <time>2015-11-06T10:35:49Z</time>
      </trkpt>
      <trkpt lat="46.03861" lon="0.43896">
        <ele>159.7578125</ele>
        <time>2015-11-06T10:35:50Z</time>
      </trkpt>
      <trkpt lat="46.03856" lon="0.43895">
        <ele>159.6875</ele>
        <time>2015-11-06T10:35:51Z</time>
      </trkpt>
      <trkpt lat="46.03839" lon="0.4389">
        <ele>159.3828125</ele>
        <time>2015-11-06T10:35:55Z</time>
      </trkpt>
      <trkpt lat="46.03831" lon="0.43885">
        <ele>159.29296875</ele>
        <time>2015-11-06T10:35:57Z</time>
      </trkpt>
      <trkpt lat="46.03814" lon="0.43872">
        <ele>159.08984375</ele>
        <time>2015-11-06T10:36:02Z</time>
      </trkpt>
      <trkpt lat="46.03788" lon="0.43852">
        <ele>159.515625</ele>
        <time>2015-11-06T10:36:11Z</time>
      </trkpt>
      <trkpt lat="46.03763" lon="0.4383">
        <ele>160.35546875</ele>
        <time>2015-11-06T10:36:19Z</time>
      </trkpt>
      <trkpt lat="46.03737" lon="0.43802">
        <ele>161.28125</ele>
        <time>2015-11-06T10:36:28Z</time>
      </trkpt>
      <trkpt lat="46.03718" lon="0.43769">
        <ele>162.41015625</ele>
        <time>2015-11-06T10:36:37Z</time>
      </trkpt>
      <trkpt lat="46.03699" lon="0.43737">
        <ele>163.79296875</ele>
        <time>2015-11-06T10:36:46Z</time>
      </trkpt>
      <trkpt lat="46.03684" lon="0.43719">
        <ele>164.8125</ele>
        <time>2015-11-06T10:36:53Z</time>
      </trkpt>
      <trkpt lat="46.03666" lon="0.43696">
        <ele>166.578125</ele>
        <time>2015-11-06T10:37:02Z</time>
      </trkpt>
      <trkpt lat="46.03653" lon="0.43676">
        <ele>167.984375</ele>
        <time>2015-11-06T10:37:11Z</time>
      </trkpt>
      <trkpt lat="46.03641" lon="0.43658">
        <ele>168.91796875</ele>
        <time>2015-11-06T10:37:20Z</time>
      </trkpt>
      <trkpt lat="46.03631" lon="0.43639">
        <ele>169.6328125</ele>
        <time>2015-11-06T10:37:28Z</time>
      </trkpt>
      <trkpt lat="46.03619" lon="0.43616">
        <ele>170.4765625</ele>
        <time>2015-11-06T10:37:36Z</time>
      </trkpt>
      <trkpt lat="46.03603" lon="0.43589">
        <ele>171.6171875</ele>
        <time>2015-11-06T10:37:45Z</time>
      </trkpt>
      <trkpt lat="46.03589" lon="0.43562">
        <ele>172.66796875</ele>
        <time>2015-11-06T10:37:54Z</time>
      </trkpt>
      <trkpt lat="46.03573" lon="0.43528">
        <ele>173.3828125</ele>
        <time>2015-11-06T10:38:02Z</time>
      </trkpt>
      <trkpt lat="46.03554" lon="0.43486">
        <ele>174.51171875</ele>
        <time>2015-11-06T10:38:12Z</time>
      </trkpt>
      <trkpt lat="46.03542" lon="0.4345">
        <ele>175.80078125</ele>
        <time>2015-11-06T10:38:21Z</time>
      </trkpt>
      <trkpt lat="46.03532" lon="0.43421">
        <ele>176.80859375</ele>
        <time>2015-11-06T10:38:29Z</time>
      </trkpt>
      <trkpt lat="46.03528" lon="0.43402">
        <ele>177.59765625</ele>
        <time>2015-11-06T10:38:36Z</time>
      </trkpt>
      <trkpt lat="46.0352" lon="0.43381">
        <ele>178.65234375</ele>
        <time>2015-11-06T10:38:43Z</time>
      </trkpt>
      <trkpt lat="46.03512" lon="0.43356">
        <ele>179.72265625</ele>
        <time>2015-11-06T10:38:50Z</time>
      </trkpt>
      <trkpt lat="46.03505" lon="0.43319">
        <ele>180.64453125</ele>
        <time>2015-11-06T10:38:58Z</time>
      </trkpt>
      <trkpt lat="46.03495" lon="0.43278">
        <ele>180.98046875</ele>
        <time>2015-11-06T10:39:07Z</time>
      </trkpt>
      <trkpt lat="46.03483" lon="0.43242">
        <ele>181.4453125</ele>
        <time>2015-11-06T10:39:15Z</time>
      </trkpt>
      <trkpt lat="46.03473" lon="0.43209">
        <ele>181.9765625</ele>
        <time>2015-11-06T10:39:22Z</time>
      </trkpt>
      <trkpt lat="46.0346" lon="0.4317">
        <ele>182.609375</ele>
        <time>2015-11-06T10:39:30Z</time>
      </trkpt>
      <trkpt lat="46.0345" lon="0.43121">
        <ele>183.24609375</ele>
        <time>2015-11-06T10:39:40Z</time>
      </trkpt>
      <trkpt lat="46.03439" lon="0.43063">
        <ele>184.2421875</ele>
        <time>2015-11-06T10:39:52Z</time>
      </trkpt>
      <trkpt lat="46.03423" lon="0.43038">
        <ele>184.75390625</ele>
        <time>2015-11-06T10:39:59Z</time>
      </trkpt>
      <trkpt lat="46.0341" lon="0.4302">
        <ele>185.171875</ele>
        <time>2015-11-06T10:40:08Z</time>
      </trkpt>
      <trkpt lat="46.03392" lon="0.4299">
        <ele>185.71484375</ele>
        <time>2015-11-06T10:40:17Z</time>
      </trkpt>
      <trkpt lat="46.03374" lon="0.42959">
        <ele>186.2734375</ele>
        <time>2015-11-06T10:40:26Z</time>
      </trkpt>
      <trkpt lat="46.03369" lon="0.42947">
        <ele>186.48828125</ele>
      </trkpt>
      <trkpt lat="46.03364" lon="0.42933">
        <ele>186.734375</ele>
      </trkpt>
      <trkpt lat="46.0336" lon="0.42913">
        <ele>187</ele>
      </trkpt>
      <trkpt lat="46.03358" lon="0.42899">
        <ele>187</ele>
      </trkpt>
      <trkpt lat="46.03356" lon="0.42871">
        <ele>187</ele>
      </trkpt>
      <trkpt lat="46.03355" lon="0.42846">
        <ele>187</ele>
      </trkpt>
      <trkpt lat="46.03354" lon="0.42812">
        <ele>187</ele>
      </trkpt>
      <trkpt lat="46.03353" lon="0.42791">
        <ele>186.953125</ele>
      </trkpt>
      <trkpt lat="46.03351" lon="0.42769">
        <ele>186.86328125</ele>
      </trkpt>
      <trkpt lat="46.03347" lon="0.42753">
        <ele>186.74609375</ele>
      </trkpt>
      <trkpt lat="46.03339" lon="0.42716">
        <ele>185.5703125</ele>
      </trkpt>
      <trkpt lat="46.03332" lon="0.42682">
        <ele>184.4765625</ele>
      </trkpt>
      <trkpt lat="46.03326" lon="0.42654">
        <ele>183.49609375</ele>
      </trkpt>
      <trkpt lat="46.03322" lon="0.42638">
        <ele>182.94921875</ele>
      </trkpt>
      <trkpt lat="46.0332" lon="0.42627">
        <ele>182.76171875</ele>
      </trkpt>
      <trkpt lat="46.03318" lon="0.42622">
        <ele>182.6640625</ele>
      </trkpt>
      <trkpt lat="46.03312" lon="0.42613">
        <ele>182.5078125</ele>
      </trkpt>
      <trkpt lat="46.0331" lon="0.42607">
        <ele>182.38671875</ele>
      </trkpt>
      <trkpt lat="46.033" lon="0.42604">
        <ele>182.33203125</ele>
      </trkpt>
      <trkpt lat="46.03283" lon="0.42594">
        <ele>182.1484375</ele>
      </trkpt>
      <trkpt lat="46.03266" lon="0.42585">
        <ele>181.98828125</ele>
      </trkpt>
      <trkpt lat="46.0325" lon="0.42575">
        <ele>181.828125</ele>
      </trkpt>
      <trkpt lat="46.03237" lon="0.42568">
        <ele>181.94140625</ele>
      </trkpt>
      <trkpt lat="46.03218" lon="0.42557">
        <ele>182.07421875</ele>
      </trkpt>
      <trkpt lat="46.03197" lon="0.42543">
        <ele>182.20703125</ele>
      </trkpt>
      <trkpt lat="46.03182" lon="0.42535">
        <ele>182.31640625</ele>
      </trkpt>
      <trkpt lat="46.03166" lon="0.42526">
        <ele>182.5234375</ele>
      </trkpt>
      <trkpt lat="46.03151" lon="0.42516">
        <ele>182.8046875</ele>
      </trkpt>
      <trkpt lat="46.03135" lon="0.42507">
        <ele>183.08203125</ele>
      </trkpt>
      <trkpt lat="46.03123" lon="0.425">
        <ele>183.30078125</ele>
      </trkpt>
      <trkpt lat="46.0312" lon="0.42499">
        <ele>183.35546875</ele>
      </trkpt>
      <trkpt lat="46.03116" lon="0.42499">
        <ele>183.4375</ele>
      </trkpt>
      <trkpt lat="46.03111" lon="0.42499">
        <ele>183.515625</ele>
      </trkpt>
      <trkpt lat="46.03109" lon="0.42502">
        <ele>183.5546875</ele>
      </trkpt>
      <trkpt lat="46.03107" lon="0.42507">
        <ele>183.59375</ele>
      </trkpt>
      <trkpt lat="46.03103" lon="0.42527">
        <ele>183.65625</ele>
      </trkpt>
      <trkpt lat="46.03099" lon="0.42552">
        <ele>183.73828125</ele>
      </trkpt>
      <trkpt lat="46.03095" lon="0.42573">
        <ele>183.81640625</ele>
      </trkpt>
      <trkpt lat="46.03091" lon="0.42592">
        <ele>183.7890625</ele>
      </trkpt>
      <trkpt lat="46.03084" lon="0.42614">
        <ele>183.48046875</ele>
      </trkpt>
      <trkpt lat="46.0308" lon="0.42629">
        <ele>183.26171875</ele>
      </trkpt>
      <trkpt lat="46.03074" lon="0.42648">
        <ele>183.171875</ele>
      </trkpt>
      <trkpt lat="46.03069" lon="0.42664">
        <ele>183.16015625</ele>
      </trkpt>
      <trkpt lat="46.03063" lon="0.42676">
        <ele>183.140625</ele>
      </trkpt>
      <trkpt lat="46.03057" lon="0.42692">
        <ele>183.03515625</ele>
      </trkpt>
      <trkpt lat="46.03057" lon="0.42693">
        <ele>183.03125</ele>
      </trkpt>
      <trkpt lat="46.03052" lon="0.42704">
        <ele>182.94140625</ele>
      </trkpt>
      <trkpt lat="46.03047" lon="0.42714">
        <ele>182.8984375</ele>
      </trkpt>
      <trkpt lat="46.03043" lon="0.42723">
        <ele>182.875</ele>
      </trkpt>
      <trkpt lat="46.03037" lon="0.42735">
        <ele>182.890625</ele>
      </trkpt>
      <trkpt lat="46.03031" lon="0.42748">
        <ele>182.96484375</ele>
      </trkpt>
      <trkpt lat="46.03026" lon="0.42761">
        <ele>182.8359375</ele>
      </trkpt>
      <trkpt lat="46.03022" lon="0.4277">
        <ele>182.66796875</ele>
      </trkpt>
      <trkpt lat="46.03019" lon="0.42778">
        <ele>182.53515625</ele>
      </trkpt>
      <trkpt lat="46.03015" lon="0.42785">
        <ele>182.40234375</ele>
      </trkpt>
      <trkpt lat="46.03011" lon="0.42786">
        <ele>182.37890625</ele>
      </trkpt>
      <trkpt lat="46.03008" lon="0.42781">
        <ele>182.47265625</ele>
      </trkpt>
      <trkpt lat="46.03005" lon="0.42761">
        <ele>182.828125</ele>
      </trkpt>
      <trkpt lat="46.02989" lon="0.42618">
        <ele>185</ele>
      </trkpt>
      <trkpt lat="46.02982" lon="0.4255">
        <ele>185.69140625</ele>
      </trkpt>
      <trkpt lat="46.02979" lon="0.42518">
        <ele>185.80859375</ele>
      </trkpt>
      <trkpt lat="46.02974" lon="0.42495">
        <ele>185.97265625</ele>
      </trkpt>
      <trkpt lat="46.02972" lon="0.42487">
        <ele>186.01953125</ele>
        <time>2015-11-06T10:46:17Z</time>
      </trkpt>
      <trkpt lat="46.0297" lon="0.42482">
        <ele>186.05859375</ele>
      </trkpt>
      <trkpt lat="46.02967" lon="0.4248">
        <ele>186.1171875</ele>
      </trkpt>
      <trkpt lat="46.02961" lon="0.42483">
        <ele>186.21484375</ele>
        <time>2015-11-06T10:46:18Z</time>
      </trkpt>
      <trkpt lat="46.02957" lon="0.42486">
        <ele>186.296875</ele>
        <time>2015-11-06T10:46:19Z</time>
      </trkpt>
      <trkpt lat="46.02952" lon="0.42488">
        <ele>186.390625</ele>
        <time>2015-11-06T10:46:20Z</time>
      </trkpt>
      <trkpt lat="46.02913" lon="0.42504">
        <ele>187.09375</ele>
        <time>2015-11-06T10:46:28Z</time>
      </trkpt>
      <trkpt lat="46.02895" lon="0.42517">
        <ele>187.41015625</ele>
        <time>2015-11-06T10:46:32Z</time>
      </trkpt>
      <trkpt lat="46.02859" lon="0.42561">
        <ele>187.44140625</ele>
        <time>2015-11-06T10:46:41Z</time>
      </trkpt>
      <trkpt lat="46.02828" lon="0.42601">
        <ele>186.7109375</ele>
        <time>2015-11-06T10:46:48Z</time>
      </trkpt>
      <trkpt lat="46.02784" lon="0.42662">
        <ele>185.6171875</ele>
        <time>2015-11-06T10:46:58Z</time>
      </trkpt>
      <trkpt lat="46.02734" lon="0.42731">
        <ele>184.5703125</ele>
        <time>2015-11-06T10:47:09Z</time>
      </trkpt>
      <trkpt lat="46.02713" lon="0.42762">
        <ele>184.68359375</ele>
        <time>2015-11-06T10:47:14Z</time>
      </trkpt>
      <trkpt lat="46.02707" lon="0.42775">
        <ele>184.796875</ele>
        <time>2015-11-06T10:47:16Z</time>
      </trkpt>
      <trkpt lat="46.02704" lon="0.42781">
        <ele>184.8515625</ele>
        <time>2015-11-06T10:47:17Z</time>
      </trkpt>
      <trkpt lat="46.0268" lon="0.42829">
        <ele>185.69140625</ele>
        <time>2015-11-06T10:47:25Z</time>
      </trkpt>
      <trkpt lat="46.02657" lon="0.42879">
        <ele>187.4140625</ele>
        <time>2015-11-06T10:47:34Z</time>
      </trkpt>
      <trkpt lat="46.02644" lon="0.42908">
        <ele>188.609375</ele>
        <time>2015-11-06T10:47:40Z</time>
      </trkpt>
      <trkpt lat="46.02641" lon="0.4291">
        <ele>188.79296875</ele>
        <time>2015-11-06T10:47:41Z</time>
      </trkpt>
      <trkpt lat="46.02638" lon="0.42909">
        <ele>188.87890625</ele>
        <time>2015-11-06T10:47:42Z</time>
      </trkpt>
      <trkpt lat="46.02636" lon="0.42907">
        <ele>188.88671875</ele>
        <time>2015-11-06T10:47:43Z</time>
      </trkpt>
      <trkpt lat="46.02634" lon="0.42905">
        <ele>188.88671875</ele>
        <time>2015-11-06T10:47:44Z</time>
      </trkpt>
      <trkpt lat="46.02623" lon="0.42881">
        <ele>188.8359375</ele>
        <time>2015-11-06T10:47:51Z</time>
      </trkpt>
      <trkpt lat="46.0261" lon="0.42857">
        <ele>188.98046875</ele>
        <time>2015-11-06T10:47:58Z</time>
      </trkpt>
      <trkpt lat="46.02592" lon="0.42831">
        <ele>189.1640625</ele>
        <time>2015-11-06T10:48:06Z</time>
      </trkpt>
      <trkpt lat="46.02569" lon="0.4281">
        <ele>189.328125</ele>
        <time>2015-11-06T10:48:14Z</time>
      </trkpt>
      <trkpt lat="46.02548" lon="0.42787">
        <ele>189.296875</ele>
        <time>2015-11-06T10:48:22Z</time>
      </trkpt>
      <trkpt lat="46.02525" lon="0.42761">
        <ele>189.15625</ele>
        <time>2015-11-06T10:48:30Z</time>
      </trkpt>
      <trkpt lat="46.0251" lon="0.42742">
        <ele>189</ele>
        <time>2015-11-06T10:48:35Z</time>
      </trkpt>
      <trkpt lat="46.0248" lon="0.42706">
        <ele>189</ele>
        <time>2015-11-06T10:48:45Z</time>
      </trkpt>
      <trkpt lat="46.02448" lon="0.42674">
        <ele>188.13671875</ele>
        <time>2015-11-06T10:48:54Z</time>
      </trkpt>
      <trkpt lat="46.02421" lon="0.4265">
        <ele>187.2265625</ele>
        <time>2015-11-06T10:49:02Z</time>
      </trkpt>
      <trkpt lat="46.02396" lon="0.42626">
        <ele>186.19921875</ele>
        <time>2015-11-06T10:49:10Z</time>
      </trkpt>
      <trkpt lat="46.02369" lon="0.426">
        <ele>185.22265625</ele>
        <time>2015-11-06T10:49:19Z</time>
      </trkpt>
      <trkpt lat="46.02347" lon="0.42579">
        <ele>184.71875</ele>
        <time>2015-11-06T10:49:26Z</time>
      </trkpt>
      <trkpt lat="46.02315" lon="0.42552">
        <ele>184.1484375</ele>
        <time>2015-11-06T10:49:35Z</time>
      </trkpt>
      <trkpt lat="46.02291" lon="0.42532">
        <ele>183.42578125</ele>
        <time>2015-11-06T10:49:43Z</time>
      </trkpt>
      <trkpt lat="46.0229" lon="0.42528">
        <ele>183.34375</ele>
        <time>2015-11-06T10:49:44Z</time>
      </trkpt>
      <trkpt lat="46.02289" lon="0.42524">
        <ele>183.28125</ele>
        <time>2015-11-06T10:49:45Z</time>
      </trkpt>
      <trkpt lat="46.02285" lon="0.42499">
        <ele>182.8828125</ele>
        <time>2015-11-06T10:49:51Z</time>
      </trkpt>
      <trkpt lat="46.02281" lon="0.4247">
        <ele>182.53125</ele>
        <time>2015-11-06T10:49:57Z</time>
      </trkpt>
      <trkpt lat="46.02271" lon="0.42427">
        <ele>182.3515625</ele>
        <time>2015-11-06T10:50:06Z</time>
      </trkpt>
      <trkpt lat="46.02259" lon="0.42392">
        <ele>182.14453125</ele>
        <time>2015-11-06T10:50:13Z</time>
      </trkpt>
      <trkpt lat="46.02247" lon="0.42355">
        <ele>181.98828125</ele>
        <time>2015-11-06T10:50:21Z</time>
      </trkpt>
      <trkpt lat="46.02239" lon="0.42326">
        <ele>182.2109375</ele>
        <time>2015-11-06T10:50:27Z</time>
      </trkpt>
      <trkpt lat="46.02227" lon="0.42262">
        <ele>182.1015625</ele>
        <time>2015-11-06T10:50:32Z</time>
      </trkpt>
      <trkpt lat="46.02223" lon="0.42231">
        <ele>181.60546875</ele>
      </trkpt>
      <trkpt lat="46.02225" lon="0.42197">
        <ele>181.06640625</ele>
      </trkpt>
      <trkpt lat="46.02225" lon="0.4216">
        <ele>180.390625</ele>
      </trkpt>
      <trkpt lat="46.02227" lon="0.42119">
        <ele>180.109375</ele>
      </trkpt>
      <trkpt lat="46.0222" lon="0.42024">
        <ele>180.8984375</ele>
      </trkpt>
      <trkpt lat="46.02218" lon="0.42003">
        <ele>181</ele>
      </trkpt>
      <trkpt lat="46.02219" lon="0.41981">
        <ele>181.1875</ele>
      </trkpt>
      <trkpt lat="46.02217" lon="0.41938">
        <ele>182.19140625</ele>
      </trkpt>
      <trkpt lat="46.02217" lon="0.41882">
        <ele>182.7734375</ele>
      </trkpt>
      <trkpt lat="46.02214" lon="0.41857">
        <ele>182.72265625</ele>
      </trkpt>
      <trkpt lat="46.02209" lon="0.41819">
        <ele>183.07421875</ele>
      </trkpt>
      <trkpt lat="46.02202" lon="0.41761">
        <ele>183.203125</ele>
      </trkpt>
      <trkpt lat="46.022" lon="0.4174">
        <ele>183.15625</ele>
      </trkpt>
      <trkpt lat="46.02198" lon="0.41715">
        <ele>183.05859375</ele>
      </trkpt>
      <trkpt lat="46.022" lon="0.41695">
        <ele>183.1640625</ele>
      </trkpt>
      <trkpt lat="46.022" lon="0.41674">
        <ele>183.52734375</ele>
      </trkpt>
      <trkpt lat="46.02202" lon="0.41651">
        <ele>183.94921875</ele>
      </trkpt>
      <trkpt lat="46.02205" lon="0.41624">
        <ele>184.48828125</ele>
      </trkpt>
      <trkpt lat="46.02211" lon="0.41597">
        <ele>185.06640625</ele>
      </trkpt>
      <trkpt lat="46.02215" lon="0.41576">
        <ele>185.57421875</ele>
      </trkpt>
      <trkpt lat="46.02217" lon="0.4156">
        <ele>185.9609375</ele>
      </trkpt>
      <trkpt lat="46.02221" lon="0.41533">
        <ele>186.484375</ele>
      </trkpt>
      <trkpt lat="46.02219" lon="0.41514">
        <ele>186.76171875</ele>
      </trkpt>
      <trkpt lat="46.02217" lon="0.41499">
        <ele>186.98046875</ele>
      </trkpt>
      <trkpt lat="46.02214" lon="0.41483">
        <ele>187.26171875</ele>
      </trkpt>
      <trkpt lat="46.02213" lon="0.41465">
        <ele>187.5625</ele>
      </trkpt>
      <trkpt lat="46.02213" lon="0.4145">
        <ele>187.83984375</ele>
      </trkpt>
      <trkpt lat="46.02214" lon="0.41435">
        <ele>188.06640625</ele>
      </trkpt>
      <trkpt lat="46.02215" lon="0.41422">
        <ele>188.25390625</ele>
      </trkpt>
      <trkpt lat="46.02216" lon="0.41418">
        <ele>188.27734375</ele>
      </trkpt>
      <trkpt lat="46.02215" lon="0.41404">
        <ele>188.30078125</ele>
      </trkpt>
      <trkpt lat="46.02219" lon="0.414">
        <ele>188.17578125</ele>
      </trkpt>
      <trkpt lat="46.0222" lon="0.41395">
        <ele>188.1171875</ele>
      </trkpt>
      <trkpt lat="46.0222" lon="0.41387">
        <ele>188.140625</ele>
      </trkpt>
      <trkpt lat="46.02219" lon="0.41381">
        <ele>188.1640625</ele>
      </trkpt>
      <trkpt lat="46.02222" lon="0.41373">
        <ele>188.07421875</ele>
      </trkpt>
      <trkpt lat="46.0222" lon="0.41364">
        <ele>188.12890625</ele>
      </trkpt>
      <trkpt lat="46.02219" lon="0.41355">
        <ele>188.01171875</ele>
      </trkpt>
      <trkpt lat="46.02219" lon="0.41347">
        <ele>187.88671875</ele>
      </trkpt>
      <trkpt lat="46.02219" lon="0.41336">
        <ele>187.6640625</ele>
      </trkpt>
      <trkpt lat="46.02223" lon="0.41331">
        <ele>187.4296875</ele>
      </trkpt>
      <trkpt lat="46.02225" lon="0.41326">
        <ele>187.265625</ele>
      </trkpt>
      <trkpt lat="46.02225" lon="0.41317">
        <ele>187.09375</ele>
      </trkpt>
      <trkpt lat="46.02224" lon="0.41304">
        <ele>186.875</ele>
      </trkpt>
      <trkpt lat="46.02223" lon="0.41296">
        <ele>186.69921875</ele>
      </trkpt>
      <trkpt lat="46.02228" lon="0.41278">
        <ele>186.0703125</ele>
      </trkpt>
      <trkpt lat="46.02228" lon="0.41268">
        <ele>185.8125</ele>
      </trkpt>
      <trkpt lat="46.02231" lon="0.41241">
        <ele>185.16015625</ele>
      </trkpt>
      <trkpt lat="46.02231" lon="0.41213">
        <ele>184.66796875</ele>
      </trkpt>
      <trkpt lat="46.02232" lon="0.41183">
        <ele>184.35546875</ele>
      </trkpt>
      <trkpt lat="46.02234" lon="0.41163">
        <ele>184.30859375</ele>
      </trkpt>
      <trkpt lat="46.02237" lon="0.41126">
        <ele>183.98828125</ele>
      </trkpt>
      <trkpt lat="46.02237" lon="0.41099">
        <ele>183.48046875</ele>
      </trkpt>
      <trkpt lat="46.02239" lon="0.41083">
        <ele>183.21875</ele>
      </trkpt>
      <trkpt lat="46.02241" lon="0.41067">
        <ele>183.12890625</ele>
      </trkpt>
      <trkpt lat="46.02241" lon="0.41064">
        <ele>183.109375</ele>
      </trkpt>
      <trkpt lat="46.02241" lon="0.41055">
        <ele>183.078125</ele>
      </trkpt>
      <trkpt lat="46.02244" lon="0.41045">
        <ele>183.0390625</ele>
      </trkpt>
      <trkpt lat="46.02242" lon="0.41029">
        <ele>182.9765625</ele>
      </trkpt>
      <trkpt lat="46.02241" lon="0.41016">
        <ele>182.79296875</ele>
      </trkpt>
      <trkpt lat="46.02241" lon="0.41002">
        <ele>182.58203125</ele>
      </trkpt>
      <trkpt lat="46.02241" lon="0.4098">
        <ele>182.265625</ele>
      </trkpt>
      <trkpt lat="46.02241" lon="0.40957">
        <ele>182.125</ele>
      </trkpt>
      <trkpt lat="46.02241" lon="0.40941">
        <ele>182.0703125</ele>
      </trkpt>
      <trkpt lat="46.02242" lon="0.40929">
        <ele>182.02734375</ele>
      </trkpt>
      <trkpt lat="46.0224" lon="0.40911">
        <ele>181.8359375</ele>
      </trkpt>
      <trkpt lat="46.02237" lon="0.40873">
        <ele>181.15625</ele>
      </trkpt>
      <trkpt lat="46.02229" lon="0.40834">
        <ele>180.46484375</ele>
      </trkpt>
      <trkpt lat="46.02224" lon="0.40802">
        <ele>179.87890625</ele>
      </trkpt>
      <trkpt lat="46.02212" lon="0.40714">
        <ele>178.109375</ele>
      </trkpt>
      <trkpt lat="46.02209" lon="0.40674">
        <ele>177.34375</ele>
      </trkpt>
      <trkpt lat="46.0221" lon="0.40627">
        <ele>176.48046875</ele>
      </trkpt>
      <trkpt lat="46.02214" lon="0.40572">
        <ele>175.59375</ele>
      </trkpt>
      <trkpt lat="46.02214" lon="0.40532">
        <ele>175.3515625</ele>
      </trkpt>
      <trkpt lat="46.02213" lon="0.40504">
        <ele>175.0625</ele>
      </trkpt>
      <trkpt lat="46.02212" lon="0.40476">
        <ele>174.7265625</ele>
      </trkpt>
      <trkpt lat="46.02209" lon="0.40466">
        <ele>174.58984375</ele>
      </trkpt>
      <trkpt lat="46.02206" lon="0.40449">
        <ele>174.34765625</ele>
      </trkpt>
      <trkpt lat="46.02187" lon="0.40409">
        <ele>173.96875</ele>
      </trkpt>
      <trkpt lat="46.02169" lon="0.40364">
        <ele>173.484375</ele>
      </trkpt>
      <trkpt lat="46.02151" lon="0.40326">
        <ele>173.69140625</ele>
      </trkpt>
      <trkpt lat="46.02137" lon="0.403">
        <ele>173.98828125</ele>
      </trkpt>
      <trkpt lat="46.02123" lon="0.40273">
        <ele>174.2109375</ele>
      </trkpt>
      <trkpt lat="46.02113" lon="0.40256">
        <ele>174.51171875</ele>
      </trkpt>
      <trkpt lat="46.02105" lon="0.40243">
        <ele>174.81640625</ele>
      </trkpt>
      <trkpt lat="46.02095" lon="0.40227">
        <ele>175.04296875</ele>
      </trkpt>
      <trkpt lat="46.02084" lon="0.40203">
        <ele>175.15625</ele>
      </trkpt>
      <trkpt lat="46.02075" lon="0.40177">
        <ele>175.4765625</ele>
      </trkpt>
      <trkpt lat="46.02066" lon="0.40157">
        <ele>175.76953125</ele>
      </trkpt>
      <trkpt lat="46.02062" lon="0.40146">
        <ele>175.86328125</ele>
      </trkpt>
      <trkpt lat="46.02056" lon="0.4013">
        <ele>176.26171875</ele>
      </trkpt>
      <trkpt lat="46.02044" lon="0.40096">
        <ele>177.328125</ele>
      </trkpt>
      <trkpt lat="46.02026" lon="0.40052">
        <ele>178.12890625</ele>
      </trkpt>
      <trkpt lat="46.02009" lon="0.40015">
        <ele>178.62890625</ele>
      </trkpt>
      <trkpt lat="46.0197" lon="0.39936">
        <ele>179.0703125</ele>
      </trkpt>
      <trkpt lat="46.01955" lon="0.39914">
        <ele>179.2265625</ele>
      </trkpt>
      <trkpt lat="46.01948" lon="0.39905">
        <ele>179.19140625</ele>
      </trkpt>
      <trkpt lat="46.01947" lon="0.39901">
        <ele>179.12890625</ele>
      </trkpt>
      <trkpt lat="46.01934" lon="0.39884">
        <ele>179.07421875</ele>
      </trkpt>
      <trkpt lat="46.0193" lon="0.39879">
        <ele>179.0546875</ele>
      </trkpt>
      <trkpt lat="46.01921" lon="0.39872">
        <ele>179.09765625</ele>
      </trkpt>
      <trkpt lat="46.01915" lon="0.39867">
        <ele>179.05078125</ele>
      </trkpt>
      <trkpt lat="46.0187" lon="0.39811">
        <ele>178.03515625</ele>
      </trkpt>
      <trkpt lat="46.01848" lon="0.39786">
        <ele>176.90234375</ele>
      </trkpt>
      <trkpt lat="46.01834" lon="0.39771">
        <ele>176.10546875</ele>
      </trkpt>
      <trkpt lat="46.01815" lon="0.3975">
        <ele>174.94140625</ele>
      </trkpt>
      <trkpt lat="46.01802" lon="0.39732">
        <ele>173.76171875</ele>
      </trkpt>
      <trkpt lat="46.01792" lon="0.39718">
        <ele>172.80078125</ele>
      </trkpt>
      <trkpt lat="46.01777" lon="0.39698">
        <ele>171.4453125</ele>
      </trkpt>
      <trkpt lat="46.01763" lon="0.39671">
        <ele>170.23828125</ele>
      </trkpt>
      <trkpt lat="46.01752" lon="0.39647">
        <ele>169.140625</ele>
      </trkpt>
      <trkpt lat="46.01742" lon="0.39628">
        <ele>168.55859375</ele>
      </trkpt>
      <trkpt lat="46.01731" lon="0.39603">
        <ele>167.90625</ele>
      </trkpt>
      <trkpt lat="46.01717" lon="0.39575">
        <ele>167.375</ele>
      </trkpt>
      <trkpt lat="46.01709" lon="0.39555">
        <ele>167.234375</ele>
      </trkpt>
      <trkpt lat="46.01701" lon="0.39535">
        <ele>167.078125</ele>
      </trkpt>
      <trkpt lat="46.0169" lon="0.3951">
        <ele>166.48046875</ele>
      </trkpt>
      <trkpt lat="46.01685" lon="0.39497">
        <ele>166.22265625</ele>
      </trkpt>
      <trkpt lat="46.0168" lon="0.39483">
        <ele>166.05078125</ele>
      </trkpt>
      <trkpt lat="46.01677" lon="0.39472">
        <ele>165.93359375</ele>
      </trkpt>
      <trkpt lat="46.01675" lon="0.39468">
        <ele>165.86328125</ele>
      </trkpt>
      <trkpt lat="46.01673" lon="0.3947">
        <ele>165.890625</ele>
      </trkpt>
      <trkpt lat="46.01659" lon="0.39473">
        <ele>165.94921875</ele>
      </trkpt>
      <trkpt lat="46.01657" lon="0.39475">
        <ele>165.9765625</ele>
      </trkpt>
      <trkpt lat="46.01652" lon="0.39476">
        <ele>165.99609375</ele>
      </trkpt>
      <trkpt lat="46.01646" lon="0.39475">
        <ele>165.98828125</ele>
      </trkpt>
      <trkpt lat="46.01635" lon="0.39478">
        <ele>165.97265625</ele>
      </trkpt>
      <trkpt lat="46.01621" lon="0.3948">
        <ele>165.95703125</ele>
      </trkpt>
      <trkpt lat="46.01607" lon="0.39482">
        <ele>165.95703125</ele>
      </trkpt>
      <trkpt lat="46.01605" lon="0.39481">
        <ele>165.96875</ele>
      </trkpt>
      <trkpt lat="46.01595" lon="0.3948">
        <ele>165.98828125</ele>
      </trkpt>
      <trkpt lat="46.01582" lon="0.3948">
        <ele>166.0078125</ele>
      </trkpt>
      <trkpt lat="46.01568" lon="0.39477">
        <ele>166.015625</ele>
      </trkpt>
      <trkpt lat="46.01542" lon="0.3947">
        <ele>165.78515625</ele>
      </trkpt>
      <trkpt lat="46.01522" lon="0.39465">
        <ele>165.77734375</ele>
      </trkpt>
      <trkpt lat="46.01486" lon="0.39452">
        <ele>166.2578125</ele>
      </trkpt>
      <trkpt lat="46.01466" lon="0.39444">
        <ele>166.515625</ele>
      </trkpt>
      <trkpt lat="46.01442" lon="0.39436">
        <ele>166.6953125</ele>
      </trkpt>
      <trkpt lat="46.0142" lon="0.39428">
        <ele>166.9765625</ele>
      </trkpt>
      <trkpt lat="46.014" lon="0.3942">
        <ele>166.66015625</ele>
      </trkpt>
      <trkpt lat="46.01379" lon="0.39417">
        <ele>166.26171875</ele>
      </trkpt>
      <trkpt lat="46.0136" lon="0.39413">
        <ele>165.8828125</ele>
      </trkpt>
      <trkpt lat="46.01342" lon="0.3941">
        <ele>165.32421875</ele>
      </trkpt>
      <trkpt lat="46.01331" lon="0.39408">
        <ele>164.96875</ele>
      </trkpt>
      <trkpt lat="46.01315" lon="0.3941">
        <ele>164.4375</ele>
      </trkpt>
      <trkpt lat="46.01303" lon="0.39415">
        <ele>163.9375</ele>
      </trkpt>
      <trkpt lat="46.01244" lon="0.39465">
        <ele>162.7734375</ele>
      </trkpt>
      <trkpt lat="46.01231" lon="0.39472">
        <ele>162.91015625</ele>
      </trkpt>
      <trkpt lat="46.01161" lon="0.39491">
        <ele>164.57421875</ele>
      </trkpt>
      <trkpt lat="46.01115" lon="0.39516">
        <ele>165.85546875</ele>
      </trkpt>
      <trkpt lat="46.01091" lon="0.39528">
        <ele>165.9921875</ele>
      </trkpt>
      <trkpt lat="46.01083" lon="0.39528">
        <ele>165.96484375</ele>
      </trkpt>
      <trkpt lat="46.01077" lon="0.39527">
        <ele>165.85546875</ele>
      </trkpt>
      <trkpt lat="46.0107" lon="0.39522">
        <ele>165.76953125</ele>
        <time>2015-11-06T11:16:04Z</time>
      </trkpt>
      <trkpt lat="46.01066" lon="0.39516">
        <ele>165.7421875</ele>
      </trkpt>
      <trkpt lat="46.01061" lon="0.3951">
        <ele>165.734375</ele>
      </trkpt>
      <trkpt lat="46.01058" lon="0.39504">
        <ele>165.75</ele>
      </trkpt>
      <trkpt lat="46.01054" lon="0.39493">
        <ele>165.828125</ele>
      </trkpt>
      <trkpt lat="46.01051" lon="0.39482">
        <ele>165.93359375</ele>
      </trkpt>
      <trkpt lat="46.01048" lon="0.3947">
        <ele>166.078125</ele>
      </trkpt>
      <trkpt lat="46.01045" lon="0.39444">
        <ele>166.41796875</ele>
        <time>2015-11-06T11:16:11Z</time>
      </trkpt>
      <trkpt lat="46.01042" lon="0.39403">
        <ele>166.7265625</ele>
        <time>2015-11-06T11:16:18Z</time>
      </trkpt>
      <trkpt lat="46.01036" lon="0.39354">
        <ele>166.6015625</ele>
        <time>2015-11-06T11:16:27Z</time>
      </trkpt>
      <trkpt lat="46.01033" lon="0.39311">
        <ele>165.90625</ele>
        <time>2015-11-06T11:16:34Z</time>
      </trkpt>
      <trkpt lat="46.01033" lon="0.39304">
        <ele>165.78515625</ele>
        <time>2015-11-06T11:16:35Z</time>
      </trkpt>
      <trkpt lat="46.01033" lon="0.39268">
        <ele>165.0859375</ele>
        <time>2015-11-06T11:16:40Z</time>
      </trkpt>
      <trkpt lat="46.01032" lon="0.39251">
        <ele>164.7421875</ele>
        <time>2015-11-06T11:16:42Z</time>
      </trkpt>
      <trkpt lat="46.01028" lon="0.39209">
        <ele>162.5859375</ele>
        <time>2015-11-06T11:16:46Z</time>
      </trkpt>
      <trkpt lat="46.01028" lon="0.39198">
        <ele>161.953125</ele>
        <time>2015-11-06T11:16:47Z</time>
      </trkpt>
      <trkpt lat="46.01027" lon="0.39174">
        <ele>159.859375</ele>
        <time>2015-11-06T11:16:49Z</time>
      </trkpt>
      <trkpt lat="46.01025" lon="0.39162">
        <ele>158.78125</ele>
        <time>2015-11-06T11:16:50Z</time>
      </trkpt>
      <trkpt lat="46.01022" lon="0.39148">
        <ele>157.62890625</ele>
        <time>2015-11-06T11:16:51Z</time>
      </trkpt>
      <trkpt lat="46.01016" lon="0.39134">
        <ele>156.21484375</ele>
        <time>2015-11-06T11:16:52Z</time>
      </trkpt>
      <trkpt lat="46.0101" lon="0.39124">
        <ele>155.12109375</ele>
        <time>2015-11-06T11:16:53Z</time>
      </trkpt>
      <trkpt lat="46.01003" lon="0.39114">
        <ele>154.0625</ele>
        <time>2015-11-06T11:16:54Z</time>
      </trkpt>
      <trkpt lat="46.00995" lon="0.39105">
        <ele>153.23828125</ele>
        <time>2015-11-06T11:16:55Z</time>
      </trkpt>
      <trkpt lat="46.00978" lon="0.39086">
        <ele>151.734375</ele>
        <time>2015-11-06T11:17:21Z</time>
      </trkpt>
      <trkpt lat="46.0097" lon="0.39078">
        <ele>151.015625</ele>
        <time>2015-11-06T11:17:22Z</time>
      </trkpt>
      <trkpt lat="46.00963" lon="0.39069">
        <ele>150.09765625</ele>
        <time>2015-11-06T11:17:27Z</time>
      </trkpt>
      <trkpt lat="46.00952" lon="0.39065">
        <ele>149.9453125</ele>
        <time>2015-11-06T11:17:32Z</time>
      </trkpt>
      <trkpt lat="46.00939" lon="0.39062">
        <ele>150.07421875</ele>
        <time>2015-11-06T11:17:36Z</time>
      </trkpt>
      <trkpt lat="46.00921" lon="0.3906">
        <ele>150.46875</ele>
        <time>2015-11-06T11:17:37Z</time>
      </trkpt>
      <trkpt lat="46.00915" lon="0.39061">
        <ele>150.77734375</ele>
        <time>2015-11-06T11:17:43Z</time>
      </trkpt>
      <trkpt lat="46.00912" lon="0.39059">
        <ele>150.6171875</ele>
      </trkpt>
      <trkpt lat="46.00911" lon="0.39054">
        <ele>149.97265625</ele>
      </trkpt>
      <trkpt lat="46.00912" lon="0.3905">
        <ele>149.50390625</ele>
      </trkpt>
      <trkpt lat="46.00915" lon="0.39045">
        <ele>148.79296875</ele>
      </trkpt>
      <trkpt lat="46.00918" lon="0.39043">
        <ele>148.37890625</ele>
      </trkpt>
      <trkpt lat="46.00925" lon="0.39038">
        <ele>147.6171875</ele>
      </trkpt>
      <trkpt lat="46.0093" lon="0.39034">
        <ele>146.94140625</ele>
      </trkpt>
      <trkpt lat="46.00936" lon="0.3903">
        <ele>146.21875</ele>
      </trkpt>
      <trkpt lat="46.0094" lon="0.39028">
        <ele>145.91015625</ele>
      </trkpt>
      <trkpt lat="46.00943" lon="0.39023">
        <ele>145.31640625</ele>
      </trkpt>
      <trkpt lat="46.00946" lon="0.39019">
        <ele>144.83984375</ele>
      </trkpt>
      <trkpt lat="46.00949" lon="0.39012">
        <ele>144.171875</ele>
      </trkpt>
      <trkpt lat="46.00952" lon="0.39003">
        <ele>143.3359375</ele>
      </trkpt>
      <trkpt lat="46.00953" lon="0.38995">
        <ele>142.6171875</ele>
      </trkpt>
      <trkpt lat="46.00953" lon="0.38987">
        <ele>141.90625</ele>
      </trkpt>
      <trkpt lat="46.00953" lon="0.38979">
        <ele>141.203125</ele>
      </trkpt>
      <trkpt lat="46.00953" lon="0.38967">
        <ele>140.86328125</ele>
        <time>2015-11-06T11:17:50Z</time>
      </trkpt>
      <trkpt lat="46.00952" lon="0.38942">
        <ele>140.49609375</ele>
        <time>2015-11-06T11:17:58Z</time>
      </trkpt>
      <trkpt lat="46.00951" lon="0.38927">
        <ele>140.25</ele>
        <time>2015-11-06T11:18:04Z</time>
      </trkpt>
      <trkpt lat="46.00951" lon="0.38923">
        <ele>140.19921875</ele>
        <time>2015-11-06T11:18:06Z</time>
      </trkpt>
      <trkpt lat="46.00951" lon="0.38921">
        <ele>140.16015625</ele>
        <time>2015-11-06T11:18:07Z</time>
      </trkpt>
      <trkpt lat="46.00951" lon="0.38917">
        <ele>140.2265625</ele>
        <time>2015-11-06T11:18:08Z</time>
      </trkpt>
      <trkpt lat="46.00951" lon="0.38914">
        <ele>140.28125</ele>
        <time>2015-11-06T11:18:09Z</time>
      </trkpt>
      <trkpt lat="46.0095" lon="0.3891">
        <ele>140.32421875</ele>
        <time>2015-11-06T11:18:10Z</time>
      </trkpt>
      <trkpt lat="46.0095" lon="0.38907">
        <ele>140.36328125</ele>
        <time>2015-11-06T11:18:11Z</time>
      </trkpt>
      <trkpt lat="46.00949" lon="0.38904">
        <ele>140.3984375</ele>
        <time>2015-11-06T11:18:12Z</time>
      </trkpt>
      <trkpt lat="46.00949" lon="0.38902">
        <ele>140.4296875</ele>
        <time>2015-11-06T11:18:13Z</time>
      </trkpt>
      <trkpt lat="46.00949" lon="0.389">
        <ele>140.46484375</ele>
        <time>2015-11-06T11:18:14Z</time>
      </trkpt>
      <trkpt lat="46.00949" lon="0.38899">
        <ele>140.46875</ele>
        <time>2015-11-06T11:18:31Z</time>
      </trkpt>
      <trkpt lat="46.00948" lon="0.38897">
        <ele>140.46484375</ele>
        <time>2015-11-06T11:18:46Z</time>
      </trkpt>
      <trkpt lat="46.00947" lon="0.38891">
        <ele>140.55078125</ele>
        <time>2015-11-06T11:19:39Z</time>
      </trkpt>
      <trkpt lat="46.00948" lon="0.38889">
        <ele>140.6171875</ele>
        <time>2015-11-06T11:19:40Z</time>
      </trkpt>
      <trkpt lat="46.00948" lon="0.38886">
        <ele>140.6796875</ele>
        <time>2015-11-06T11:19:41Z</time>
      </trkpt>
      <trkpt lat="46.00949" lon="0.38883">
        <ele>140.75</ele>
        <time>2015-11-06T11:19:42Z</time>
      </trkpt>
      <trkpt lat="46.0095" lon="0.38867">
        <ele>141.08984375</ele>
        <time>2015-11-06T11:19:49Z</time>
      </trkpt>
      <trkpt lat="46.0095" lon="0.38863">
        <ele>141.1875</ele>
        <time>2015-11-06T11:19:51Z</time>
      </trkpt>
      <trkpt lat="46.00949" lon="0.38862">
        <ele>141.234375</ele>
        <time>2015-11-06T11:19:52Z</time>
      </trkpt>
      <trkpt lat="46.00948" lon="0.38861">
        <ele>141.24609375</ele>
        <time>2015-11-06T11:19:53Z</time>
      </trkpt>
      <trkpt lat="46.00946" lon="0.3886">
        <ele>141.2109375</ele>
        <time>2015-11-06T11:19:54Z</time>
      </trkpt>
      <trkpt lat="46.00945" lon="0.3886">
        <ele>141.171875</ele>
        <time>2015-11-06T11:19:55Z</time>
      </trkpt>
      <trkpt lat="46.00944" lon="0.3886">
        <ele>141.13671875</ele>
        <time>2015-11-06T11:19:56Z</time>
      </trkpt>
      <trkpt lat="46.00943" lon="0.3886">
        <ele>141.109375</ele>
        <time>2015-11-06T11:19:57Z</time>
      </trkpt>
      <trkpt lat="46.00942" lon="0.3886">
        <ele>141.05859375</ele>
        <time>2015-11-06T11:19:58Z</time>
      </trkpt>
      <trkpt lat="46.0094" lon="0.3886">
        <ele>141.01171875</ele>
        <time>2015-11-06T11:19:59Z</time>
      </trkpt>
      <trkpt lat="46.00938" lon="0.38859">
        <ele>141.01953125</ele>
        <time>2015-11-06T11:20:00Z</time>
      </trkpt>
      <trkpt lat="46.00936" lon="0.38857">
        <ele>141.0546875</ele>
        <time>2015-11-06T11:20:01Z</time>
      </trkpt>
      <trkpt lat="46.00934" lon="0.38856">
        <ele>141.09375</ele>
        <time>2015-11-06T11:20:02Z</time>
      </trkpt>
      <trkpt lat="46.00932" lon="0.38848">
        <ele>141.484375</ele>
        <time>2015-11-06T11:20:08Z</time>
      </trkpt>
      <trkpt lat="46.00933" lon="0.38845">
        <ele>141.703125</ele>
        <time>2015-11-06T11:20:15Z</time>
      </trkpt>
      <trkpt lat="46.00935" lon="0.38835">
        <ele>142.2890625</ele>
        <time>2015-11-06T11:20:26Z</time>
      </trkpt>
      <trkpt lat="46.00935" lon="0.38827">
        <ele>142.72265625</ele>
        <time>2015-11-06T11:20:34Z</time>
      </trkpt>
      <trkpt lat="46.00935" lon="0.38819">
        <ele>143.19140625</ele>
        <time>2015-11-06T11:20:43Z</time>
      </trkpt>
      <trkpt lat="46.00934" lon="0.38809">
        <ele>143.78515625</ele>
        <time>2015-11-06T11:20:52Z</time>
      </trkpt>
      <trkpt lat="46.00932" lon="0.38801">
        <ele>144.29296875</ele>
        <time>2015-11-06T11:21:00Z</time>
      </trkpt>
      <trkpt lat="46.0093" lon="0.3879">
        <ele>144.984375</ele>
        <time>2015-11-06T11:21:07Z</time>
      </trkpt>
      <trkpt lat="46.00929" lon="0.38769">
        <ele>146.39453125</ele>
        <time>2015-11-06T11:21:17Z</time>
      </trkpt>
      <trkpt lat="46.00928" lon="0.38759">
        <ele>147.0703125</ele>
        <time>2015-11-06T11:21:23Z</time>
      </trkpt>
      <trkpt lat="46.00925" lon="0.3875">
        <ele>147.8125</ele>
        <time>2015-11-06T11:21:31Z</time>
      </trkpt>
      <trkpt lat="46.00909" lon="0.38725">
        <ele>150.453125</ele>
        <time>2015-11-06T11:21:36Z</time>
      </trkpt>
      <trkpt lat="46.00905" lon="0.38717">
        <ele>151.3125</ele>
        <time>2015-11-06T11:21:45Z</time>
      </trkpt>
      <trkpt lat="46.00899" lon="0.38711">
        <ele>152.09375</ele>
        <time>2015-11-06T11:21:50Z</time>
      </trkpt>
      <trkpt lat="46.00888" lon="0.38692">
        <ele>154.13671875</ele>
        <time>2015-11-06T11:21:58Z</time>
      </trkpt>
      <trkpt lat="46.00865" lon="0.38673">
        <ele>156.78515625</ele>
        <time>2015-11-06T11:22:05Z</time>
      </trkpt>
      <trkpt lat="46.00852" lon="0.38664">
        <ele>157.7109375</ele>
        <time>2015-11-06T11:22:12Z</time>
      </trkpt>
      <trkpt lat="46.00838" lon="0.38661">
        <ele>158.4296875</ele>
        <time>2015-11-06T11:22:21Z</time>
      </trkpt>
      <trkpt lat="46.00825" lon="0.38653">
        <ele>159.48828125</ele>
        <time>2015-11-06T11:22:29Z</time>
      </trkpt>
      <trkpt lat="46.00818" lon="0.38646">
        <ele>160.296875</ele>
      </trkpt>
      <trkpt lat="46.00804" lon="0.38639">
        <ele>161.47265625</ele>
        <time>2015-11-06T11:22:34Z</time>
      </trkpt>
      <trkpt lat="46.00788" lon="0.38627">
        <ele>162.89453125</ele>
        <time>2015-11-06T11:22:43Z</time>
      </trkpt>
      <trkpt lat="46.00773" lon="0.38616">
        <ele>164.4140625</ele>
        <time>2015-11-06T11:22:51Z</time>
      </trkpt>
      <trkpt lat="46.00755" lon="0.38601">
        <ele>166.4453125</ele>
        <time>2015-11-06T11:23:00Z</time>
      </trkpt>
      <trkpt lat="46.00735" lon="0.38587">
        <ele>168.03125</ele>
        <time>2015-11-06T11:23:10Z</time>
      </trkpt>
      <trkpt lat="46.00722" lon="0.38576">
        <ele>168.8359375</ele>
        <time>2015-11-06T11:23:19Z</time>
      </trkpt>
      <trkpt lat="46.00713" lon="0.38572">
        <ele>169.1171875</ele>
        <time>2015-11-06T11:23:25Z</time>
      </trkpt>
      <trkpt lat="46.00695" lon="0.38574">
        <ele>168.99609375</ele>
        <time>2015-11-06T11:23:32Z</time>
      </trkpt>
      <trkpt lat="46.00679" lon="0.38575">
        <ele>168.8203125</ele>
        <time>2015-11-06T11:23:37Z</time>
      </trkpt>
      <trkpt lat="46.00657" lon="0.38572">
        <ele>168.9375</ele>
        <time>2015-11-06T11:23:45Z</time>
      </trkpt>
      <trkpt lat="46.00624" lon="0.38571">
        <ele>168.51953125</ele>
        <time>2015-11-06T11:23:54Z</time>
      </trkpt>
      <trkpt lat="46.00611" lon="0.3857">
        <ele>168.234375</ele>
        <time>2015-11-06T11:24:02Z</time>
      </trkpt>
      <trkpt lat="46.00571" lon="0.38578">
        <ele>166.734375</ele>
        <time>2015-11-06T11:24:09Z</time>
      </trkpt>
      <trkpt lat="46.00546" lon="0.38595">
        <ele>165.09765625</ele>
        <time>2015-11-06T11:24:16Z</time>
      </trkpt>
      <trkpt lat="46.00527" lon="0.38607">
        <ele>163.76953125</ele>
      </trkpt>
      <trkpt lat="46.00503" lon="0.38628">
        <ele>161.92578125</ele>
      </trkpt>
      <trkpt lat="46.00485" lon="0.38644">
        <ele>161.1640625</ele>
      </trkpt>
      <trkpt lat="46.00468" lon="0.38658">
        <ele>159.83984375</ele>
      </trkpt>
      <trkpt lat="46.00453" lon="0.38672">
        <ele>158.68359375</ele>
      </trkpt>
      <trkpt lat="46.00435" lon="0.38688">
        <ele>158.01953125</ele>
      </trkpt>
      <trkpt lat="46.00419" lon="0.38702">
        <ele>157.875</ele>
      </trkpt>
      <trkpt lat="46.00407" lon="0.38713">
        <ele>156.76171875</ele>
        <time>2015-11-06T11:24:27Z</time>
      </trkpt>
      <trkpt lat="46.00402" lon="0.38718">
        <ele>156.4140625</ele>
        <time>2015-11-06T11:24:31Z</time>
      </trkpt>
      <trkpt lat="46.00396" lon="0.3872">
        <ele>156.0234375</ele>
        <time>2015-11-06T11:24:32Z</time>
      </trkpt>
      <trkpt lat="46.00389" lon="0.3872">
        <ele>155.68359375</ele>
        <time>2015-11-06T11:24:33Z</time>
      </trkpt>
      <trkpt lat="46.0038" lon="0.38716">
        <ele>155.234375</ele>
        <time>2015-11-06T11:24:34Z</time>
      </trkpt>
      <trkpt lat="46.0037" lon="0.38707">
        <ele>154.5234375</ele>
        <time>2015-11-06T11:24:35Z</time>
      </trkpt>
      <trkpt lat="46.00344" lon="0.38685">
        <ele>152.09375</ele>
        <time>2015-11-06T11:24:36Z</time>
      </trkpt>
      <trkpt lat="46.00309" lon="0.38666">
        <ele>149.04296875</ele>
        <time>2015-11-06T11:24:41Z</time>
      </trkpt>
      <trkpt lat="46.00286" lon="0.38657">
        <ele>150.203125</ele>
        <time>2015-11-06T11:24:43Z</time>
      </trkpt>
      <trkpt lat="46.00265" lon="0.38654">
        <ele>151.50390625</ele>
        <time>2015-11-06T11:24:45Z</time>
      </trkpt>
      <trkpt lat="46.00247" lon="0.38651">
        <ele>153.078125</ele>
        <time>2015-11-06T11:24:48Z</time>
      </trkpt>
      <trkpt lat="46.00232" lon="0.38647">
        <ele>155.06640625</ele>
        <time>2015-11-06T11:24:50Z</time>
      </trkpt>
      <trkpt lat="46.00213" lon="0.38636">
        <ele>157.51171875</ele>
        <time>2015-11-06T11:24:58Z</time>
      </trkpt>
      <trkpt lat="46.00202" lon="0.38629">
        <ele>158.73828125</ele>
        <time>2015-11-06T11:24:59Z</time>
      </trkpt>
      <trkpt lat="46.00192" lon="0.38622">
        <ele>159.63671875</ele>
        <time>2015-11-06T11:25:00Z</time>
      </trkpt>
      <trkpt lat="46.00175" lon="0.38611">
        <ele>160.55078125</ele>
        <time>2015-11-06T11:25:09Z</time>
      </trkpt>
      <trkpt lat="46.00153" lon="0.38595">
        <ele>161.5859375</ele>
        <time>2015-11-06T11:25:17Z</time>
      </trkpt>
      <trkpt lat="46.00122" lon="0.38577">
        <ele>162.8359375</ele>
        <time>2015-11-06T11:25:26Z</time>
      </trkpt>
      <trkpt lat="46.00077" lon="0.38553">
        <ele>164</ele>
        <time>2015-11-06T11:25:37Z</time>
      </trkpt>
      <trkpt lat="46.00062" lon="0.38542">
        <ele>164</ele>
        <time>2015-11-06T11:25:44Z</time>
      </trkpt>
      <trkpt lat="46.0006" lon="0.38537">
        <ele>164</ele>
        <time>2015-11-06T11:25:48Z</time>
      </trkpt>
      <trkpt lat="46.00063" lon="0.38522">
        <ele>164.10546875</ele>
      </trkpt>
      <trkpt lat="46.00069" lon="0.38494">
        <ele>164.48046875</ele>
      </trkpt>
      <trkpt lat="46.00074" lon="0.38472">
        <ele>164.79296875</ele>
      </trkpt>
      <trkpt lat="46.00079" lon="0.38447">
        <ele>164.94140625</ele>
      </trkpt>
      <trkpt lat="46.00085" lon="0.38424">
        <ele>165</ele>
      </trkpt>
      <trkpt lat="46.0009" lon="0.38409">
        <ele>165.16015625</ele>
      </trkpt>
      <trkpt lat="46.00096" lon="0.38387">
        <ele>165.4296875</ele>
      </trkpt>
      <trkpt lat="46.00101" lon="0.38374">
        <ele>165.59375</ele>
      </trkpt>
      <trkpt lat="46.00105" lon="0.38356">
        <ele>165.65625</ele>
      </trkpt>
      <trkpt lat="46.00111" lon="0.38337">
        <ele>165.55859375</ele>
      </trkpt>
      <trkpt lat="46.00116" lon="0.38316">
        <ele>165.46875</ele>
      </trkpt>
      <trkpt lat="46.00121" lon="0.38281">
        <ele>165.3671875</ele>
      </trkpt>
      <trkpt lat="46.00123" lon="0.38262">
        <ele>165.33203125</ele>
      </trkpt>
      <trkpt lat="46.00125" lon="0.38246">
        <ele>165.25390625</ele>
      </trkpt>
      <trkpt lat="46.00127" lon="0.38224">
        <ele>165.12109375</ele>
      </trkpt>
      <trkpt lat="46.00129" lon="0.38196">
        <ele>165</ele>
      </trkpt>
      <trkpt lat="46.00131" lon="0.38184">
        <ele>165</ele>
      </trkpt>
      <trkpt lat="46.00134" lon="0.3817">
        <ele>165</ele>
      </trkpt>
      <trkpt lat="46.00137" lon="0.38159">
        <ele>165</ele>
      </trkpt>
      <trkpt lat="46.00146" lon="0.38142">
        <ele>165.10546875</ele>
      </trkpt>
      <trkpt lat="46.00151" lon="0.3813">
        <ele>165.60546875</ele>
      </trkpt>
      <trkpt lat="46.00158" lon="0.38118">
        <ele>166.078125</ele>
      </trkpt>
      <trkpt lat="46.00165" lon="0.38106">
        <ele>166.484375</ele>
      </trkpt>
      <trkpt lat="46.00184" lon="0.3808">
        <ele>167.1484375</ele>
      </trkpt>
      <trkpt lat="46.00172" lon="0.38073">
        <ele>167.265625</ele>
      </trkpt>
      <trkpt lat="46.00137" lon="0.38073">
        <ele>167.1796875</ele>
      </trkpt>
      <trkpt lat="46.00098" lon="0.38071">
        <ele>166.52734375</ele>
      </trkpt>
      <trkpt lat="46.00032" lon="0.38064">
        <ele>166.4296875</ele>
      </trkpt>
      <trkpt lat="45.99973" lon="0.38061">
        <ele>166.46484375</ele>
      </trkpt>
      <trkpt lat="45.9991" lon="0.38056">
        <ele>165.828125</ele>
      </trkpt>
      <trkpt lat="45.99883" lon="0.38055">
        <ele>165.34765625</ele>
      </trkpt>
      <trkpt lat="45.99869" lon="0.38057">
        <ele>165.0859375</ele>
      </trkpt>
      <trkpt lat="45.99852" lon="0.38063">
        <ele>165</ele>
      </trkpt>
      <trkpt lat="45.99828" lon="0.38077">
        <ele>165</ele>
      </trkpt>
      <trkpt lat="45.99804" lon="0.3809">
        <ele>164.8203125</ele>
      </trkpt>
      <trkpt lat="45.99783" lon="0.38102">
        <ele>164.03515625</ele>
      </trkpt>
      <trkpt lat="45.99771" lon="0.38108">
        <ele>163.62109375</ele>
      </trkpt>
      <trkpt lat="45.99761" lon="0.38115">
        <ele>163.1796875</ele>
      </trkpt>
      <trkpt lat="45.99754" lon="0.3812">
        <ele>162.859375</ele>
      </trkpt>
      <trkpt lat="45.9975" lon="0.38121">
        <ele>162.77734375</ele>
      </trkpt>
      <trkpt lat="45.99745" lon="0.38134">
        <ele>162.30859375</ele>
      </trkpt>
      <trkpt lat="45.99731" lon="0.38158">
        <ele>161.48828125</ele>
      </trkpt>
      <trkpt lat="45.99716" lon="0.38188">
        <ele>160.4140625</ele>
      </trkpt>
      <trkpt lat="45.99697" lon="0.3822">
        <ele>159.23828125</ele>
      </trkpt>
      <trkpt lat="45.99671" lon="0.38254">
        <ele>157.546875</ele>
      </trkpt>
      <trkpt lat="45.99641" lon="0.38281">
        <ele>156.04296875</ele>
      </trkpt>
      <trkpt lat="45.99608" lon="0.38308">
        <ele>155.05859375</ele>
      </trkpt>
      <trkpt lat="45.99581" lon="0.38333">
        <ele>153.44140625</ele>
      </trkpt>
      <trkpt lat="45.99554" lon="0.38355">
        <ele>152.3359375</ele>
      </trkpt>
      <trkpt lat="45.99531" lon="0.38371">
        <ele>151.35546875</ele>
      </trkpt>
      <trkpt lat="45.99511" lon="0.3838">
        <ele>150.65625</ele>
      </trkpt>
      <trkpt lat="45.99485" lon="0.38388">
        <ele>150.37890625</ele>
      </trkpt>
      <trkpt lat="45.99455" lon="0.38394">
        <ele>150.29296875</ele>
      </trkpt>
      <trkpt lat="45.99428" lon="0.38394">
        <ele>150.79296875</ele>
      </trkpt>
      <trkpt lat="45.99397" lon="0.38389">
        <ele>150.74609375</ele>
      </trkpt>
      <trkpt lat="45.99373" lon="0.38377">
        <ele>151.14453125</ele>
      </trkpt>
      <trkpt lat="45.99348" lon="0.38354">
        <ele>151.81640625</ele>
      </trkpt>
      <trkpt lat="45.99326" lon="0.38336">
        <ele>151.8984375</ele>
      </trkpt>
      <trkpt lat="45.99305" lon="0.38317">
        <ele>152.2265625</ele>
      </trkpt>
      <trkpt lat="45.99287" lon="0.38301">
        <ele>152.46484375</ele>
      </trkpt>
      <trkpt lat="45.99266" lon="0.38288">
        <ele>152.53515625</ele>
      </trkpt>
      <trkpt lat="45.99249" lon="0.38284">
        <ele>152.11328125</ele>
      </trkpt>
      <trkpt lat="45.9925" lon="0.38276">
        <ele>152.94140625</ele>
      </trkpt>
      <trkpt lat="45.99243" lon="0.38265">
        <ele>153.69921875</ele>
      </trkpt>
      <trkpt lat="45.9924" lon="0.38257">
        <ele>154.296875</ele>
      </trkpt>
      <trkpt lat="45.99237" lon="0.38246">
        <ele>154.6015625</ele>
      </trkpt>
      <trkpt lat="45.99231" lon="0.38229">
        <ele>154.84765625</ele>
      </trkpt>
      <trkpt lat="45.99233" lon="0.38207">
        <ele>155.4375</ele>
      </trkpt>
      <trkpt lat="45.9923" lon="0.38193">
        <ele>155.6328125</ele>
      </trkpt>
      <trkpt lat="45.99221" lon="0.38182">
        <ele>155.5859375</ele>
      </trkpt>
      <trkpt lat="45.99204" lon="0.38175">
        <ele>155.5078125</ele>
      </trkpt>
      <trkpt lat="45.99194" lon="0.38164">
        <ele>155.62890625</ele>
      </trkpt>
      <trkpt lat="45.99179" lon="0.38111">
        <ele>156</ele>
      </trkpt>
      <trkpt lat="45.99163" lon="0.38058">
        <ele>155.796875</ele>
      </trkpt>
      <trkpt lat="45.99152" lon="0.38017">
        <ele>155.2265625</ele>
      </trkpt>
      <trkpt lat="45.99141" lon="0.37952">
        <ele>153.5859375</ele>
      </trkpt>
      <trkpt lat="45.99132" lon="0.37887">
        <ele>152.234375</ele>
      </trkpt>
      <trkpt lat="45.99123" lon="0.37839">
        <ele>151.21875</ele>
      </trkpt>
      <trkpt lat="45.99127" lon="0.37798">
        <ele>149.8828125</ele>
      </trkpt>
      <trkpt lat="45.99132" lon="0.37762">
        <ele>148.90234375</ele>
      </trkpt>
      <trkpt lat="45.99132" lon="0.37745">
        <ele>148.390625</ele>
      </trkpt>
      <trkpt lat="45.99126" lon="0.37732">
        <ele>148.46484375</ele>
      </trkpt>
      <trkpt lat="45.99112" lon="0.37722">
        <ele>149.33203125</ele>
      </trkpt>
      <trkpt lat="45.99084" lon="0.37708">
        <ele>151.19140625</ele>
      </trkpt>
      <trkpt lat="45.99058" lon="0.37693">
        <ele>151.46875</ele>
      </trkpt>
      <trkpt lat="45.99035" lon="0.37682">
        <ele>151.8984375</ele>
      </trkpt>
      <trkpt lat="45.99017" lon="0.37671">
        <ele>151.1328125</ele>
      </trkpt>
      <trkpt lat="45.9901" lon="0.37667">
        <ele>150.6484375</ele>
      </trkpt>
      <trkpt lat="45.99007" lon="0.37658">
        <ele>150.34765625</ele>
      </trkpt>
      <trkpt lat="45.99003" lon="0.37631">
        <ele>149.7421875</ele>
      </trkpt>
      <trkpt lat="45.98992" lon="0.37605">
        <ele>148.77734375</ele>
      </trkpt>
      <trkpt lat="45.98987" lon="0.3757">
        <ele>148.00390625</ele>
      </trkpt>
      <trkpt lat="45.98983" lon="0.37539">
        <ele>147.2578125</ele>
      </trkpt>
      <trkpt lat="45.98977" lon="0.3751">
        <ele>146.1953125</ele>
      </trkpt>
      <trkpt lat="45.98972" lon="0.37475">
        <ele>144.5234375</ele>
      </trkpt>
      <trkpt lat="45.98966" lon="0.3745">
        <ele>143.578125</ele>
      </trkpt>
      <trkpt lat="45.98964" lon="0.37428">
        <ele>142.984375</ele>
      </trkpt>
      <trkpt lat="45.98966" lon="0.37402">
        <ele>141.8203125</ele>
      </trkpt>
      <trkpt lat="45.98973" lon="0.37374">
        <ele>140.44921875</ele>
      </trkpt>
      <trkpt lat="45.98977" lon="0.37352">
        <ele>138.40234375</ele>
      </trkpt>
      <trkpt lat="45.98977" lon="0.37337">
        <ele>136.71875</ele>
      </trkpt>
      <trkpt lat="45.98972" lon="0.37324">
        <ele>135.3203125</ele>
      </trkpt>
      <trkpt lat="45.98964" lon="0.37312">
        <ele>133.9296875</ele>
      </trkpt>
      <trkpt lat="45.98948" lon="0.373">
        <ele>132.1953125</ele>
      </trkpt>
      <trkpt lat="45.98933" lon="0.37283">
        <ele>129.79296875</ele>
      </trkpt>
      <trkpt lat="45.98919" lon="0.37273">
        <ele>128.1796875</ele>
      </trkpt>
      <trkpt lat="45.98902" lon="0.37265">
        <ele>125.46875</ele>
      </trkpt>
      <trkpt lat="45.98889" lon="0.37261">
        <ele>123.83984375</ele>
      </trkpt>
      <trkpt lat="45.9888" lon="0.3725">
        <ele>122.3515625</ele>
      </trkpt>
      <trkpt lat="45.98873" lon="0.37226">
        <ele>121.65625</ele>
      </trkpt>
      <trkpt lat="45.98868" lon="0.37203">
        <ele>121.265625</ele>
      </trkpt>
      <trkpt lat="45.98863" lon="0.37176">
        <ele>122.98046875</ele>
      </trkpt>
      <trkpt lat="45.98858" lon="0.37144">
        <ele>125.078125</ele>
      </trkpt>
      <trkpt lat="45.98856" lon="0.37116">
        <ele>127.60546875</ele>
      </trkpt>
      <trkpt lat="45.98854" lon="0.37098">
        <ele>129.015625</ele>
      </trkpt>
      <trkpt lat="45.98851" lon="0.3707">
        <ele>130.109375</ele>
      </trkpt>
      <trkpt lat="45.98845" lon="0.37045">
        <ele>129.85546875</ele>
        <time>2015-11-06T11:55:51Z</time>
      </trkpt>
      <trkpt lat="45.9884" lon="0.37022">
        <ele>129.3671875</ele>
        <time>2015-11-06T11:55:55Z</time>
      </trkpt>
      <trkpt lat="45.98839" lon="0.37009">
        <ele>129.48046875</ele>
        <time>2015-11-06T11:55:56Z</time>
      </trkpt>
      <trkpt lat="45.98839" lon="0.36997">
        <ele>129.6328125</ele>
        <time>2015-11-06T11:55:57Z</time>
      </trkpt>
      <trkpt lat="45.9884" lon="0.3698">
        <ele>130.203125</ele>
        <time>2015-11-06T11:55:59Z</time>
      </trkpt>
      <trkpt lat="45.9884" lon="0.36969">
        <ele>130.30078125</ele>
        <time>2015-11-06T11:56:00Z</time>
      </trkpt>
      <trkpt lat="45.98841" lon="0.36957">
        <ele>130.328125</ele>
        <time>2015-11-06T11:56:01Z</time>
      </trkpt>
      <trkpt lat="45.9884" lon="0.36945">
        <ele>130.11328125</ele>
        <time>2015-11-06T11:56:02Z</time>
      </trkpt>
      <trkpt lat="45.98841" lon="0.36935">
        <ele>130.15625</ele>
        <time>2015-11-06T11:56:03Z</time>
      </trkpt>
      <trkpt lat="45.98842" lon="0.36924">
        <ele>130.4609375</ele>
        <time>2015-11-06T11:56:04Z</time>
      </trkpt>
      <trkpt lat="45.98844" lon="0.36913">
        <ele>130.53125</ele>
        <time>2015-11-06T11:56:05Z</time>
      </trkpt>
      <trkpt lat="45.98845" lon="0.369">
        <ele>130.3125</ele>
        <time>2015-11-06T11:56:08Z</time>
      </trkpt>
      <trkpt lat="45.9885" lon="0.36875">
        <ele>130.34765625</ele>
        <time>2015-11-06T11:56:16Z</time>
      </trkpt>
      <trkpt lat="45.98851" lon="0.36836">
        <ele>128.75</ele>
        <time>2015-11-06T11:56:21Z</time>
      </trkpt>
      <trkpt lat="45.98852" lon="0.36784">
        <ele>125.76171875</ele>
        <time>2015-11-06T11:56:28Z</time>
      </trkpt>
      <trkpt lat="45.98854" lon="0.36767">
        <ele>124.765625</ele>
        <time>2015-11-06T11:56:30Z</time>
      </trkpt>
      <trkpt lat="45.98855" lon="0.36758">
        <ele>124.3046875</ele>
        <time>2015-11-06T11:56:31Z</time>
      </trkpt>
      <trkpt lat="45.98857" lon="0.36742">
        <ele>123.58203125</ele>
        <time>2015-11-06T11:56:33Z</time>
      </trkpt>
      <trkpt lat="45.98858" lon="0.36734">
        <ele>123.25390625</ele>
        <time>2015-11-06T11:56:34Z</time>
      </trkpt>
      <trkpt lat="45.98865" lon="0.36671">
        <ele>120.140625</ele>
        <time>2015-11-06T11:56:43Z</time>
      </trkpt>
      <trkpt lat="45.98874" lon="0.36639">
        <ele>120.42578125</ele>
        <time>2015-11-06T11:56:50Z</time>
      </trkpt>
      <trkpt lat="45.9888" lon="0.36606">
        <ele>120.96484375</ele>
        <time>2015-11-06T11:56:58Z</time>
      </trkpt>
      <trkpt lat="45.98882" lon="0.3659">
        <ele>121.12890625</ele>
        <time>2015-11-06T11:57:05Z</time>
      </trkpt>
      <trkpt lat="45.98882" lon="0.36574">
        <ele>121.09375</ele>
        <time>2015-11-06T11:57:13Z</time>
      </trkpt>
      <trkpt lat="45.98872" lon="0.36496">
        <ele>118.0546875</ele>
        <time>2015-11-06T11:57:23Z</time>
      </trkpt>
      <trkpt lat="45.98872" lon="0.36491">
        <ele>118.0234375</ele>
        <time>2015-11-06T11:57:24Z</time>
      </trkpt>
      <trkpt lat="45.98873" lon="0.36489">
        <ele>118.2421875</ele>
        <time>2015-11-06T11:57:25Z</time>
      </trkpt>
      <trkpt lat="45.98875" lon="0.36487">
        <ele>118.625</ele>
        <time>2015-11-06T11:57:26Z</time>
      </trkpt>
      <trkpt lat="45.98876" lon="0.36486">
        <ele>119</ele>
        <time>2015-11-06T11:57:27Z</time>
      </trkpt>
      <trkpt lat="45.98878" lon="0.36486">
        <ele>119.375</ele>
        <time>2015-11-06T11:57:28Z</time>
      </trkpt>
      <trkpt lat="45.9888" lon="0.36486">
        <ele>119.859375</ele>
        <time>2015-11-06T11:57:29Z</time>
      </trkpt>
      <trkpt lat="45.98882" lon="0.36486">
        <ele>120.35546875</ele>
        <time>2015-11-06T11:57:30Z</time>
      </trkpt>
      <trkpt lat="45.98883" lon="0.36486">
        <ele>120.74609375</ele>
        <time>2015-11-06T11:57:31Z</time>
      </trkpt>
      <trkpt lat="45.98885" lon="0.36486">
        <ele>121.203125</ele>
        <time>2015-11-06T11:57:32Z</time>
      </trkpt>
      <trkpt lat="45.98887" lon="0.36485">
        <ele>121.80078125</ele>
        <time>2015-11-06T11:57:33Z</time>
      </trkpt>
      <trkpt lat="45.98888" lon="0.36486">
        <ele>122.10546875</ele>
        <time>2015-11-06T11:57:34Z</time>
      </trkpt>
      <trkpt lat="45.98893" lon="0.36483">
        <ele>123.265625</ele>
        <time>2015-11-06T11:57:38Z</time>
      </trkpt>
      <trkpt lat="45.98898" lon="0.36477">
        <ele>124.5390625</ele>
        <time>2015-11-06T11:57:42Z</time>
      </trkpt>
      <trkpt lat="45.98899" lon="0.36449">
        <ele>125.4765625</ele>
        <time>2015-11-06T11:57:51Z</time>
      </trkpt>
      <trkpt lat="45.98897" lon="0.36434">
        <ele>125.20703125</ele>
        <time>2015-11-06T11:57:58Z</time>
      </trkpt>
      <trkpt lat="45.98892" lon="0.36404">
        <ele>125.81640625</ele>
        <time>2015-11-06T11:58:06Z</time>
      </trkpt>
      <trkpt lat="45.98884" lon="0.3637">
        <ele>126.23046875</ele>
        <time>2015-11-06T11:58:13Z</time>
      </trkpt>
      <trkpt lat="45.98876" lon="0.36348">
        <ele>126.2265625</ele>
        <time>2015-11-06T11:58:19Z</time>
      </trkpt>
      <trkpt lat="45.98867" lon="0.36318">
        <ele>126.84375</ele>
        <time>2015-11-06T11:58:25Z</time>
      </trkpt>
      <trkpt lat="45.98857" lon="0.36286">
        <ele>127.10546875</ele>
        <time>2015-11-06T11:58:31Z</time>
      </trkpt>
      <trkpt lat="45.98847" lon="0.36259">
        <ele>126.7265625</ele>
        <time>2015-11-06T11:58:38Z</time>
      </trkpt>
      <trkpt lat="45.98838" lon="0.36225">
        <ele>127.07421875</ele>
        <time>2015-11-06T11:58:45Z</time>
      </trkpt>
      <trkpt lat="45.98829" lon="0.36194">
        <ele>126.83203125</ele>
        <time>2015-11-06T11:58:52Z</time>
      </trkpt>
      <trkpt lat="45.98825" lon="0.36183">
        <ele>126.10546875</ele>
        <time>2015-11-06T11:58:57Z</time>
      </trkpt>
      <trkpt lat="45.98819" lon="0.36162">
        <ele>125.09765625</ele>
        <time>2015-11-06T11:59:10Z</time>
      </trkpt>
      <trkpt lat="45.98815" lon="0.36128">
        <ele>123.8828125</ele>
        <time>2015-11-06T11:59:19Z</time>
      </trkpt>
      <trkpt lat="45.98814" lon="0.36094">
        <ele>122.78125</ele>
        <time>2015-11-06T11:59:28Z</time>
      </trkpt>
      <trkpt lat="45.98818" lon="0.3607">
        <ele>121.90234375</ele>
      </trkpt>
      <trkpt lat="45.98826" lon="0.36039">
        <ele>120.36328125</ele>
      </trkpt>
      <trkpt lat="45.98822" lon="0.36027">
        <ele>119.23046875</ele>
      </trkpt>
      <trkpt lat="45.98819" lon="0.36013">
        <ele>117.94921875</ele>
        <time>2015-11-06T11:59:33Z</time>
      </trkpt>
      <trkpt lat="45.98817" lon="0.36005">
        <ele>117.30859375</ele>
        <time>2015-11-06T12:00:29Z</time>
      </trkpt>
      <trkpt lat="45.9882" lon="0.35994">
        <ele>116.578125</ele>
        <time>2015-11-06T12:00:30Z</time>
      </trkpt>
      <trkpt lat="45.98825" lon="0.3598">
        <ele>115.71484375</ele>
        <time>2015-11-06T12:00:31Z</time>
      </trkpt>
      <trkpt lat="45.98828" lon="0.35972">
        <ele>115.33203125</ele>
      </trkpt>
      <trkpt lat="45.9883" lon="0.35966">
        <ele>115</ele>
      </trkpt>
      <trkpt lat="45.98833" lon="0.35955">
        <ele>114.41015625</ele>
      </trkpt>
      <trkpt lat="45.98838" lon="0.35942">
        <ele>113.7265625</ele>
      </trkpt>
      <trkpt lat="45.98843" lon="0.3593">
        <ele>113.0625</ele>
      </trkpt>
      <trkpt lat="45.98849" lon="0.35916">
        <ele>112.34375</ele>
      </trkpt>
      <trkpt lat="45.98861" lon="0.35892">
        <ele>111.2734375</ele>
      </trkpt>
      <trkpt lat="45.98872" lon="0.35871">
        <ele>110.35546875</ele>
      </trkpt>
      <trkpt lat="45.98879" lon="0.35857">
        <ele>110.21875</ele>
      </trkpt>
      <trkpt lat="45.98889" lon="0.35837">
        <ele>110.203125</ele>
      </trkpt>
      <trkpt lat="45.98897" lon="0.35821">
        <ele>110.1015625</ele>
      </trkpt>
      <trkpt lat="45.98915" lon="0.35783">
        <ele>110.046875</ele>
      </trkpt>
      <trkpt lat="45.98928" lon="0.35756">
        <ele>109.8671875</ele>
      </trkpt>
      <trkpt lat="45.98939" lon="0.35731">
        <ele>109.7890625</ele>
      </trkpt>
      <trkpt lat="45.98947" lon="0.35712">
        <ele>109.53125</ele>
      </trkpt>
      <trkpt lat="45.98956" lon="0.35693">
        <ele>109.08203125</ele>
      </trkpt>
      <trkpt lat="45.98961" lon="0.35676">
        <ele>108.8203125</ele>
      </trkpt>
      <trkpt lat="45.98965" lon="0.35664">
        <ele>108.55859375</ele>
      </trkpt>
      <trkpt lat="45.98971" lon="0.35641">
        <ele>108.265625</ele>
        <time>2015-11-06T12:01:23Z</time>
      </trkpt>
      <trkpt lat="45.98981" lon="0.35602">
        <ele>108.1796875</ele>
        <time>2015-11-06T12:01:31Z</time>
      </trkpt>
      <trkpt lat="45.98984" lon="0.35585">
        <ele>108.3046875</ele>
      </trkpt>
      <trkpt lat="45.98986" lon="0.35576">
        <ele>108.3828125</ele>
      </trkpt>
      <trkpt lat="45.98988" lon="0.35566">
        <ele>108.453125</ele>
      </trkpt>
      <trkpt lat="45.9899" lon="0.3555">
        <ele>108.5</ele>
      </trkpt>
      <trkpt lat="45.9899" lon="0.3554">
        <ele>108.51953125</ele>
      </trkpt>
      <trkpt lat="45.98991" lon="0.35533">
        <ele>108.546875</ele>
        <time>2015-11-06T12:01:37Z</time>
      </trkpt>
      <trkpt lat="45.98991" lon="0.35522">
        <ele>108.56640625</ele>
        <time>2015-11-06T12:01:38Z</time>
      </trkpt>
      <trkpt lat="45.9899" lon="0.35518">
        <ele>108.5078125</ele>
        <time>2015-11-06T12:01:39Z</time>
      </trkpt>
      <trkpt lat="45.98987" lon="0.35513">
        <ele>108.39453125</ele>
        <time>2015-11-06T12:01:40Z</time>
      </trkpt>
      <trkpt lat="45.98982" lon="0.35511">
        <ele>108.20703125</ele>
        <time>2015-11-06T12:01:41Z</time>
      </trkpt>
      <trkpt lat="45.98976" lon="0.3551">
        <ele>108.0078125</ele>
        <time>2015-11-06T12:01:42Z</time>
      </trkpt>
      <trkpt lat="45.9897" lon="0.3551">
        <ele>108.38671875</ele>
        <time>2015-11-06T12:01:43Z</time>
      </trkpt>
      <trkpt lat="45.98959" lon="0.35505">
        <ele>109.01953125</ele>
        <time>2015-11-06T12:01:45Z</time>
      </trkpt>
      <trkpt lat="45.98953" lon="0.35499">
        <ele>109.3828125</ele>
        <time>2015-11-06T12:01:46Z</time>
      </trkpt>
      <trkpt lat="45.98948" lon="0.35492">
        <ele>109.59765625</ele>
        <time>2015-11-06T12:01:47Z</time>
      </trkpt>
      <trkpt lat="45.98944" lon="0.35484">
        <ele>109.75390625</ele>
        <time>2015-11-06T12:01:48Z</time>
      </trkpt>
      <trkpt lat="45.9894" lon="0.35476">
        <ele>109.87109375</ele>
        <time>2015-11-06T12:01:49Z</time>
      </trkpt>
      <trkpt lat="45.98937" lon="0.35467">
        <ele>109.87890625</ele>
        <time>2015-11-06T12:01:50Z</time>
      </trkpt>
      <trkpt lat="45.98934" lon="0.35461">
        <ele>109.91796875</ele>
        <time>2015-11-06T12:01:51Z</time>
      </trkpt>
      <trkpt lat="45.9893" lon="0.35451">
        <ele>109.9609375</ele>
        <time>2015-11-06T12:01:56Z</time>
      </trkpt>
      <trkpt lat="45.98925" lon="0.35444">
        <ele>110.1328125</ele>
        <time>2015-11-06T12:02:05Z</time>
      </trkpt>
      <trkpt lat="45.98908" lon="0.35418">
        <ele>111.39453125</ele>
        <time>2015-11-06T12:02:07Z</time>
      </trkpt>
      <trkpt lat="45.989" lon="0.35408">
        <ele>112.2265625</ele>
        <time>2015-11-06T12:02:11Z</time>
      </trkpt>
      <trkpt lat="45.98891" lon="0.354">
        <ele>113.046875</ele>
        <time>2015-11-06T12:02:12Z</time>
      </trkpt>
      <trkpt lat="45.98889" lon="0.35397">
        <ele>113.22265625</ele>
        <time>2015-11-06T12:02:13Z</time>
      </trkpt>
      <trkpt lat="45.98887" lon="0.35392">
        <ele>113.2421875</ele>
        <time>2015-11-06T12:02:20Z</time>
      </trkpt>
      <trkpt lat="45.98888" lon="0.35386">
        <ele>113.04296875</ele>
      </trkpt>
      <trkpt lat="45.98889" lon="0.35375">
        <ele>112.5546875</ele>
      </trkpt>
      <trkpt lat="45.98891" lon="0.35361">
        <ele>112.1015625</ele>
      </trkpt>
      <trkpt lat="45.98893" lon="0.35348">
        <ele>111.80859375</ele>
      </trkpt>
      <trkpt lat="45.98894" lon="0.3534">
        <ele>111.6328125</ele>
      </trkpt>
      <trkpt lat="45.98893" lon="0.35337">
        <ele>111.6640625</ele>
      </trkpt>
      <trkpt lat="45.98891" lon="0.35333">
        <ele>111.8125</ele>
      </trkpt>
      <trkpt lat="45.98888" lon="0.35329">
        <ele>112.1015625</ele>
      </trkpt>
      <trkpt lat="45.98886" lon="0.35325">
        <ele>112.26171875</ele>
      </trkpt>
      <trkpt lat="45.98884" lon="0.3532">
        <ele>112.3359375</ele>
      </trkpt>
      <trkpt lat="45.98884" lon="0.35313">
        <ele>112.2734375</ele>
      </trkpt>
      <trkpt lat="45.98884" lon="0.35307">
        <ele>112.1484375</ele>
      </trkpt>
      <trkpt lat="45.98885" lon="0.35301">
        <ele>111.9375</ele>
      </trkpt>
      <trkpt lat="45.98886" lon="0.35292">
        <ele>111.6328125</ele>
      </trkpt>
      <trkpt lat="45.98888" lon="0.35281">
        <ele>111.234375</ele>
      </trkpt>
      <trkpt lat="45.9889" lon="0.35272">
        <ele>110.9375</ele>
      </trkpt>
      <trkpt lat="45.98891" lon="0.35261">
        <ele>110.65234375</ele>
      </trkpt>
      <trkpt lat="45.98892" lon="0.35255">
        <ele>110.4765625</ele>
      </trkpt>
      <trkpt lat="45.98893" lon="0.35247">
        <ele>110.27734375</ele>
      </trkpt>
      <trkpt lat="45.98894" lon="0.3524">
        <ele>110.08984375</ele>
      </trkpt>
      <trkpt lat="45.98894" lon="0.3523">
        <ele>109.92578125</ele>
      </trkpt>
      <trkpt lat="45.98894" lon="0.35219">
        <ele>109.76953125</ele>
      </trkpt>
      <trkpt lat="45.98892" lon="0.35208">
        <ele>109.625</ele>
      </trkpt>
      <trkpt lat="45.98891" lon="0.352">
        <ele>109.57421875</ele>
      </trkpt>
      <trkpt lat="45.9889" lon="0.35191">
        <ele>109.6328125</ele>
      </trkpt>
      <trkpt lat="45.9889" lon="0.35178">
        <ele>109.65234375</ele>
      </trkpt>
      <trkpt lat="45.98889" lon="0.35168">
        <ele>109.6796875</ele>
      </trkpt>
      <trkpt lat="45.98889" lon="0.35159">
        <ele>109.69140625</ele>
      </trkpt>
      <trkpt lat="45.98889" lon="0.3515">
        <ele>109.7109375</ele>
      </trkpt>
      <trkpt lat="45.98892" lon="0.35138">
        <ele>109.609375</ele>
        <time>2015-11-06T12:03:00Z</time>
      </trkpt>
      <trkpt lat="45.98896" lon="0.35122">
        <ele>109.55078125</ele>
        <time>2015-11-06T12:03:08Z</time>
      </trkpt>
      <trkpt lat="45.98908" lon="0.3507">
        <ele>109.51953125</ele>
        <time>2015-11-06T12:03:10Z</time>
      </trkpt>
      <trkpt lat="45.98922" lon="0.35005">
        <ele>108.94140625</ele>
        <time>2015-11-06T12:03:11Z</time>
      </trkpt>
      <trkpt lat="45.98926" lon="0.34989">
        <ele>108.82421875</ele>
        <time>2015-11-06T12:03:16Z</time>
      </trkpt>
      <trkpt lat="45.9893" lon="0.34952">
        <ele>109.0234375</ele>
        <time>2015-11-06T12:03:22Z</time>
      </trkpt>
      <trkpt lat="45.98935" lon="0.34937">
        <ele>109.02734375</ele>
        <time>2015-11-06T12:03:31Z</time>
      </trkpt>
      <trkpt lat="45.98938" lon="0.34928">
        <ele>108.953125</ele>
        <time>2015-11-06T12:03:40Z</time>
      </trkpt>
      <trkpt lat="45.98945" lon="0.34916">
        <ele>109</ele>
      </trkpt>
      <trkpt lat="45.98949" lon="0.34907">
        <ele>109.1875</ele>
      </trkpt>
      <trkpt lat="45.98953" lon="0.349">
        <ele>109.234375</ele>
      </trkpt>
      <trkpt lat="45.9896" lon="0.3489">
        <ele>109.23046875</ele>
      </trkpt>
      <trkpt lat="45.98965" lon="0.34883">
        <ele>109.171875</ele>
      </trkpt>
      <trkpt lat="45.98967" lon="0.34879">
        <ele>109.1796875</ele>
      </trkpt>
      <trkpt lat="45.98975" lon="0.34872">
        <ele>108.921875</ele>
      </trkpt>
      <trkpt lat="45.98981" lon="0.34865">
        <ele>108.98046875</ele>
      </trkpt>
      <trkpt lat="45.98985" lon="0.3486">
        <ele>109.1484375</ele>
      </trkpt>
      <trkpt lat="45.98987" lon="0.34858">
        <ele>109.20703125</ele>
      </trkpt>
      <trkpt lat="45.98992" lon="0.34851">
        <ele>109.45703125</ele>
      </trkpt>
      <trkpt lat="45.98993" lon="0.34849">
        <ele>109.53515625</ele>
      </trkpt>
      <trkpt lat="45.98997" lon="0.34842">
        <ele>109.72265625</ele>
      </trkpt>
      <trkpt lat="45.99" lon="0.34838">
        <ele>109.8046875</ele>
      </trkpt>
      <trkpt lat="45.99004" lon="0.34831">
        <ele>109.91796875</ele>
      </trkpt>
      <trkpt lat="45.99007" lon="0.34824">
        <ele>110.1328125</ele>
      </trkpt>
      <trkpt lat="45.9901" lon="0.34815">
        <ele>110.3515625</ele>
      </trkpt>
      <trkpt lat="45.99013" lon="0.3481">
        <ele>110.609375</ele>
      </trkpt>
      <trkpt lat="45.99017" lon="0.34805">
        <ele>111.0078125</ele>
      </trkpt>
      <trkpt lat="45.99024" lon="0.34795">
        <ele>111.796875</ele>
      </trkpt>
      <trkpt lat="45.99028" lon="0.34789">
        <ele>112.125</ele>
      </trkpt>
      <trkpt lat="45.99032" lon="0.34784">
        <ele>112.44140625</ele>
      </trkpt>
      <trkpt lat="45.99036" lon="0.3478">
        <ele>112.78515625</ele>
      </trkpt>
      <trkpt lat="45.99042" lon="0.34769">
        <ele>113.5234375</ele>
      </trkpt>
      <trkpt lat="45.99046" lon="0.34762">
        <ele>114.03125</ele>
      </trkpt>
      <trkpt lat="45.99051" lon="0.34756">
        <ele>114.421875</ele>
      </trkpt>
      <trkpt lat="45.99066" lon="0.34737">
        <ele>115.9453125</ele>
      </trkpt>
      <trkpt lat="45.99075" lon="0.34728">
        <ele>116.45703125</ele>
      </trkpt>
      <trkpt lat="45.99086" lon="0.34715">
        <ele>117.0078125</ele>
        <time>2015-11-06T12:04:57Z</time>
      </trkpt>
      <trkpt lat="45.99098" lon="0.34702">
        <ele>117.4375</ele>
        <time>2015-11-06T12:05:05Z</time>
      </trkpt>
      <trkpt lat="45.99101" lon="0.34697">
        <ele>117.67578125</ele>
        <time>2015-11-06T12:05:06Z</time>
      </trkpt>
      <trkpt lat="45.99111" lon="0.34682">
        <ele>118.56640625</ele>
        <time>2015-11-06T12:05:14Z</time>
      </trkpt>
      <trkpt lat="45.99124" lon="0.34658">
        <ele>120.06640625</ele>
        <time>2015-11-06T12:05:23Z</time>
      </trkpt>
      <trkpt lat="45.99133" lon="0.34634">
        <ele>121.34375</ele>
        <time>2015-11-06T12:05:31Z</time>
      </trkpt>
      <trkpt lat="45.99141" lon="0.34607">
        <ele>122.65625</ele>
        <time>2015-11-06T12:05:39Z</time>
      </trkpt>
      <trkpt lat="45.99152" lon="0.34564">
        <ele>123.26171875</ele>
        <time>2015-11-06T12:05:50Z</time>
      </trkpt>
      <trkpt lat="45.99161" lon="0.34534">
        <ele>123.01171875</ele>
        <time>2015-11-06T12:05:57Z</time>
      </trkpt>
      <trkpt lat="45.99167" lon="0.34498">
        <ele>122.94140625</ele>
        <time>2015-11-06T12:06:06Z</time>
      </trkpt>
      <trkpt lat="45.99173" lon="0.34446">
        <ele>122.85546875</ele>
        <time>2015-11-06T12:06:15Z</time>
      </trkpt>
      <trkpt lat="45.99178" lon="0.34411">
        <ele>122.35546875</ele>
        <time>2015-11-06T12:06:23Z</time>
      </trkpt>
      <trkpt lat="45.99186" lon="0.34376">
        <ele>121.37109375</ele>
        <time>2015-11-06T12:06:30Z</time>
      </trkpt>
      <trkpt lat="45.99193" lon="0.3434">
        <ele>120.015625</ele>
        <time>2015-11-06T12:06:39Z</time>
      </trkpt>
      <trkpt lat="45.99198" lon="0.34316">
        <ele>118.87109375</ele>
        <time>2015-11-06T12:06:44Z</time>
      </trkpt>
      <trkpt lat="45.992" lon="0.34297">
        <ele>118.31640625</ele>
        <time>2015-11-06T12:06:50Z</time>
      </trkpt>
      <trkpt lat="45.992" lon="0.34282">
        <ele>118.0625</ele>
        <time>2015-11-06T12:06:58Z</time>
      </trkpt>
      <trkpt lat="45.99199" lon="0.34269">
        <ele>118.0234375</ele>
        <time>2015-11-06T12:07:05Z</time>
      </trkpt>
      <trkpt lat="45.99196" lon="0.34256">
        <ele>118.37890625</ele>
        <time>2015-11-06T12:07:10Z</time>
      </trkpt>
      <trkpt lat="45.99188" lon="0.3424">
        <ele>120.34375</ele>
      </trkpt>
      <trkpt lat="45.99185" lon="0.34216">
        <ele>121.19921875</ele>
      </trkpt>
      <trkpt lat="45.99187" lon="0.34204">
        <ele>120.91796875</ele>
      </trkpt>
      <trkpt lat="45.9919" lon="0.34193">
        <ele>120.78125</ele>
      </trkpt>
      <trkpt lat="45.99194" lon="0.34181">
        <ele>120.7265625</ele>
      </trkpt>
      <trkpt lat="45.99198" lon="0.34171">
        <ele>120.6015625</ele>
      </trkpt>
      <trkpt lat="45.99203" lon="0.34163">
        <ele>120.33203125</ele>
      </trkpt>
      <trkpt lat="45.9921" lon="0.34151">
        <ele>119.921875</ele>
      </trkpt>
      <trkpt lat="45.99213" lon="0.34146">
        <ele>119.82421875</ele>
      </trkpt>
      <trkpt lat="45.99215" lon="0.34143">
        <ele>119.73046875</ele>
      </trkpt>
      <trkpt lat="45.99218" lon="0.34141">
        <ele>119.65625</ele>
      </trkpt>
      <trkpt lat="45.99221" lon="0.34136">
        <ele>119.62890625</ele>
      </trkpt>
      <trkpt lat="45.99225" lon="0.34132">
        <ele>119.48046875</ele>
      </trkpt>
      <trkpt lat="45.99227" lon="0.3413">
        <ele>119.36328125</ele>
        <time>2015-11-06T12:07:18Z</time>
      </trkpt>
      <trkpt lat="45.99236" lon="0.34121">
        <ele>119.09765625</ele>
        <time>2015-11-06T12:07:23Z</time>
      </trkpt>
      <trkpt lat="45.99245" lon="0.3411">
        <ele>119.05078125</ele>
        <time>2015-11-06T12:07:29Z</time>
      </trkpt>
      <trkpt lat="45.99252" lon="0.34094">
        <ele>119.75390625</ele>
        <time>2015-11-06T12:07:36Z</time>
      </trkpt>
      <trkpt lat="45.99255" lon="0.34085">
        <ele>120.1953125</ele>
        <time>2015-11-06T12:07:44Z</time>
      </trkpt>
      <trkpt lat="45.99257" lon="0.34076">
        <ele>120.4375</ele>
        <time>2015-11-06T12:07:52Z</time>
      </trkpt>
      <trkpt lat="45.99261" lon="0.34062">
        <ele>120.94140625</ele>
        <time>2015-11-06T12:07:58Z</time>
      </trkpt>
      <trkpt lat="45.99265" lon="0.34052">
        <ele>121.1328125</ele>
        <time>2015-11-06T12:08:02Z</time>
      </trkpt>
      <trkpt lat="45.99269" lon="0.34043">
        <ele>121.3359375</ele>
      </trkpt>
      <trkpt lat="45.99273" lon="0.34034">
        <ele>121.4921875</ele>
      </trkpt>
      <trkpt lat="45.99276" lon="0.34029">
        <ele>121.29296875</ele>
      </trkpt>
      <trkpt lat="45.99277" lon="0.34023">
        <ele>121.3046875</ele>
      </trkpt>
      <trkpt lat="45.99278" lon="0.34016">
        <ele>121.34765625</ele>
      </trkpt>
      <trkpt lat="45.99278" lon="0.34">
        <ele>121.6875</ele>
      </trkpt>
      <trkpt lat="45.9928" lon="0.33974">
        <ele>122.02734375</ele>
      </trkpt>
      <trkpt lat="45.9928" lon="0.33968">
        <ele>121.97265625</ele>
      </trkpt>
      <trkpt lat="45.9928" lon="0.33951">
        <ele>121.859375</ele>
      </trkpt>
      <trkpt lat="45.99279" lon="0.33938">
        <ele>121.76171875</ele>
      </trkpt>
      <trkpt lat="45.99279" lon="0.33923">
        <ele>121.62890625</ele>
      </trkpt>
      <trkpt lat="45.99277" lon="0.33907">
        <ele>121.1640625</ele>
      </trkpt>
      <trkpt lat="45.99274" lon="0.33897">
        <ele>120.93359375</ele>
      </trkpt>
      <trkpt lat="45.99274" lon="0.33878">
        <ele>120.23828125</ele>
      </trkpt>
      <trkpt lat="45.99273" lon="0.33864">
        <ele>119.6796875</ele>
      </trkpt>
      <trkpt lat="45.99272" lon="0.33853">
        <ele>119.25</ele>
        <time>2015-11-06T12:08:22Z</time>
      </trkpt>
      <trkpt lat="45.99269" lon="0.33838">
        <ele>118.84765625</ele>
        <time>2015-11-06T12:08:23Z</time>
      </trkpt>
      <trkpt lat="45.99266" lon="0.33819">
        <ele>118.171875</ele>
        <time>2015-11-06T12:08:27Z</time>
      </trkpt>
      <trkpt lat="45.99268" lon="0.33813">
        <ele>117.70703125</ele>
        <time>2015-11-06T12:08:28Z</time>
      </trkpt>
      <trkpt lat="45.99271" lon="0.33807">
        <ele>116.91796875</ele>
        <time>2015-11-06T12:08:29Z</time>
      </trkpt>
      <trkpt lat="45.99275" lon="0.338">
        <ele>116.1640625</ele>
        <time>2015-11-06T12:08:30Z</time>
      </trkpt>
      <trkpt lat="45.99283" lon="0.33786">
        <ele>114.4375</ele>
        <time>2015-11-06T12:08:31Z</time>
      </trkpt>
      <trkpt lat="45.99294" lon="0.33772">
        <ele>112.42578125</ele>
        <time>2015-11-06T12:08:34Z</time>
      </trkpt>
      <trkpt lat="45.9931" lon="0.33756">
        <ele>109.83203125</ele>
        <time>2015-11-06T12:08:37Z</time>
      </trkpt>
      <trkpt lat="45.9932" lon="0.33742">
        <ele>108.10546875</ele>
        <time>2015-11-06T12:08:38Z</time>
      </trkpt>
      <trkpt lat="45.99326" lon="0.33734">
        <ele>107.22265625</ele>
        <time>2015-11-06T12:08:39Z</time>
      </trkpt>
      <trkpt lat="45.99333" lon="0.33729">
        <ele>106.51171875</ele>
        <time>2015-11-06T12:08:40Z</time>
      </trkpt>
      <trkpt lat="45.99339" lon="0.33726">
        <ele>105.984375</ele>
        <time>2015-11-06T12:08:41Z</time>
      </trkpt>
      <trkpt lat="45.99344" lon="0.33725">
        <ele>105.57421875</ele>
        <time>2015-11-06T12:08:42Z</time>
      </trkpt>
      <trkpt lat="45.99351" lon="0.33722">
        <ele>105</ele>
        <time>2015-11-06T12:08:46Z</time>
      </trkpt>
      <trkpt lat="45.99358" lon="0.33716">
        <ele>104.44140625</ele>
        <time>2015-11-06T12:08:47Z</time>
      </trkpt>
      <trkpt lat="45.9936" lon="0.33711">
        <ele>104.3046875</ele>
        <time>2015-11-06T12:08:48Z</time>
      </trkpt>
      <trkpt lat="45.9936" lon="0.33705">
        <ele>104.234375</ele>
        <time>2015-11-06T12:08:49Z</time>
      </trkpt>
      <trkpt lat="45.99361" lon="0.33701">
        <ele>104.203125</ele>
        <time>2015-11-06T12:08:50Z</time>
      </trkpt>
      <trkpt lat="45.99361" lon="0.33698">
        <ele>104.20703125</ele>
        <time>2015-11-06T12:09:00Z</time>
      </trkpt>
      <trkpt lat="45.99362" lon="0.33698">
        <ele>104.125</ele>
        <time>2015-11-06T12:09:01Z</time>
      </trkpt>
      <trkpt lat="45.99364" lon="0.33698">
        <ele>104.02734375</ele>
        <time>2015-11-06T12:09:02Z</time>
      </trkpt>
      <trkpt lat="45.99366" lon="0.33698">
        <ele>103.96875</ele>
        <time>2015-11-06T12:09:03Z</time>
      </trkpt>
      <trkpt lat="45.99368" lon="0.33699">
        <ele>103.92578125</ele>
        <time>2015-11-06T12:09:04Z</time>
      </trkpt>
      <trkpt lat="45.99374" lon="0.33697">
        <ele>103.83203125</ele>
        <time>2015-11-06T12:09:05Z</time>
      </trkpt>
      <trkpt lat="45.9938" lon="0.33698">
        <ele>103.7265625</ele>
        <time>2015-11-06T12:09:06Z</time>
      </trkpt>
      <trkpt lat="45.99387" lon="0.33698">
        <ele>103.58984375</ele>
        <time>2015-11-06T12:09:07Z</time>
      </trkpt>
      <trkpt lat="45.99397" lon="0.33699">
        <ele>103.4140625</ele>
        <time>2015-11-06T12:09:37Z</time>
      </trkpt>
      <trkpt lat="45.99403" lon="0.337">
        <ele>103.30078125</ele>
        <time>2015-11-06T12:09:38Z</time>
      </trkpt>
      <trkpt lat="45.99406" lon="0.337">
        <ele>103.25390625</ele>
        <time>2015-11-06T12:09:39Z</time>
      </trkpt>
      <trkpt lat="45.99407" lon="0.337">
        <ele>103.234375</ele>
        <time>2015-11-06T12:09:40Z</time>
      </trkpt>
      <trkpt lat="45.99408" lon="0.33699">
        <ele>103.2109375</ele>
        <time>2015-11-06T12:09:41Z</time>
      </trkpt>
      <trkpt lat="45.9941" lon="0.33699">
        <ele>103.18359375</ele>
        <time>2015-11-06T12:09:42Z</time>
      </trkpt>
      <trkpt lat="45.99411" lon="0.337">
        <ele>103.15234375</ele>
        <time>2015-11-06T12:09:43Z</time>
      </trkpt>
      <trkpt lat="45.99413" lon="0.33699">
        <ele>103.125</ele>
        <time>2015-11-06T12:09:44Z</time>
      </trkpt>
      <trkpt lat="45.99415" lon="0.33699">
        <ele>103.09765625</ele>
        <time>2015-11-06T12:09:45Z</time>
      </trkpt>
      <trkpt lat="45.99416" lon="0.33699">
        <ele>103.0625</ele>
        <time>2015-11-06T12:09:46Z</time>
      </trkpt>
      <trkpt lat="45.99418" lon="0.33699">
        <ele>103.02734375</ele>
        <time>2015-11-06T12:09:47Z</time>
      </trkpt>
      <trkpt lat="45.9943" lon="0.33698">
        <ele>103.796875</ele>
        <time>2015-11-06T12:09:53Z</time>
      </trkpt>
      <trkpt lat="45.99444" lon="0.33698">
        <ele>104.82421875</ele>
        <time>2015-11-06T12:10:00Z</time>
      </trkpt>
      <trkpt lat="45.99451" lon="0.33696">
        <ele>105.43359375</ele>
        <time>2015-11-06T12:10:08Z</time>
      </trkpt>
      <trkpt lat="45.99457" lon="0.33694">
        <ele>105.97265625</ele>
      </trkpt>
      <trkpt lat="45.9946" lon="0.33693">
        <ele>106.19140625</ele>
      </trkpt>
      <trkpt lat="45.99461" lon="0.33689">
        <ele>106.453125</ele>
      </trkpt>
      <trkpt lat="45.99459" lon="0.33661">
        <ele>107.40234375</ele>
      </trkpt>
      <trkpt lat="45.99459" lon="0.33644">
        <ele>107.9453125</ele>
      </trkpt>
      <trkpt lat="45.99459" lon="0.33628">
        <ele>108.25390625</ele>
      </trkpt>
      <trkpt lat="45.99459" lon="0.33616">
        <ele>108.46875</ele>
      </trkpt>
      <trkpt lat="45.99461" lon="0.33608">
        <ele>108.82421875</ele>
      </trkpt>
      <trkpt lat="45.99462" lon="0.33599">
        <ele>109.12890625</ele>
      </trkpt>
      <trkpt lat="45.99463" lon="0.33591">
        <ele>109.4375</ele>
      </trkpt>
      <trkpt lat="45.99469" lon="0.3358">
        <ele>109.64453125</ele>
      </trkpt>
      <trkpt lat="45.99473" lon="0.33574">
        <ele>109.87890625</ele>
      </trkpt>
      <trkpt lat="45.99479" lon="0.33568">
        <ele>110.7421875</ele>
      </trkpt>
      <trkpt lat="45.99481" lon="0.33564">
        <ele>111.1328125</ele>
      </trkpt>
      <trkpt lat="45.99486" lon="0.33555">
        <ele>111.984375</ele>
      </trkpt>
      <trkpt lat="45.99488" lon="0.33548">
        <ele>112.0546875</ele>
      </trkpt>
      <trkpt lat="45.99492" lon="0.33539">
        <ele>112.43359375</ele>
      </trkpt>
      <trkpt lat="45.99498" lon="0.33531">
        <ele>113.14453125</ele>
      </trkpt>
      <trkpt lat="45.99506" lon="0.33522">
        <ele>114.015625</ele>
      </trkpt>
      <trkpt lat="45.9951" lon="0.33516">
        <ele>114.1484375</ele>
      </trkpt>
      <trkpt lat="45.99516" lon="0.33509">
        <ele>114.25390625</ele>
      </trkpt>
      <trkpt lat="45.9952" lon="0.33507">
        <ele>114.94140625</ele>
      </trkpt>
      <trkpt lat="45.99524" lon="0.33505">
        <ele>115.42578125</ele>
      </trkpt>
      <trkpt lat="45.99526" lon="0.33505">
        <ele>115.734375</ele>
      </trkpt>
      <trkpt lat="45.99531" lon="0.335">
        <ele>115.66796875</ele>
      </trkpt>
      <trkpt lat="45.99532" lon="0.33494">
        <ele>114.72265625</ele>
      </trkpt>
      <trkpt lat="45.99537" lon="0.33489">
        <ele>114.37890625</ele>
      </trkpt>
      <trkpt lat="45.99543" lon="0.33483">
        <ele>114.140625</ele>
      </trkpt>
      <trkpt lat="45.99556" lon="0.3347">
        <ele>113.77734375</ele>
      </trkpt>
      <trkpt lat="45.99565" lon="0.33465">
        <ele>114.0390625</ele>
      </trkpt>
      <trkpt lat="45.99573" lon="0.33462">
        <ele>114.31640625</ele>
      </trkpt>
      <trkpt lat="45.99581" lon="0.33458">
        <ele>114.6015625</ele>
      </trkpt>
      <trkpt lat="45.99589" lon="0.33456">
        <ele>114.8046875</ele>
      </trkpt>
      <trkpt lat="45.99596" lon="0.33454">
        <ele>114.9375</ele>
      </trkpt>
      <trkpt lat="45.99599" lon="0.33454">
        <ele>115.0703125</ele>
      </trkpt>
      <trkpt lat="45.99605" lon="0.33454">
        <ele>115.41796875</ele>
      </trkpt>
      <trkpt lat="45.99612" lon="0.33456">
        <ele>116.109375</ele>
      </trkpt>
      <trkpt lat="45.99619" lon="0.33455">
        <ele>116.40625</ele>
      </trkpt>
      <trkpt lat="45.99626" lon="0.33454">
        <ele>116.57421875</ele>
      </trkpt>
      <trkpt lat="45.99636" lon="0.33451">
        <ele>116.46875</ele>
      </trkpt>
      <trkpt lat="45.99648" lon="0.33449">
        <ele>116.60546875</ele>
        <time>2015-11-06T12:33:48Z</time>
      </trkpt>
      <trkpt lat="45.99663" lon="0.33445">
        <ele>116.515625</ele>
        <time>2015-11-06T12:33:59Z</time>
      </trkpt>
      <trkpt lat="45.9967" lon="0.33442">
        <ele>116.1171875</ele>
        <time>2015-11-06T12:34:06Z</time>
      </trkpt>
      <trkpt lat="45.99674" lon="0.3344">
        <ele>115.80859375</ele>
        <time>2015-11-06T12:34:13Z</time>
      </trkpt>
      <trkpt lat="45.99677" lon="0.33434">
        <ele>114.45703125</ele>
        <time>2015-11-06T12:34:15Z</time>
      </trkpt>
      <trkpt lat="45.99678" lon="0.33428">
        <ele>113.26171875</ele>
        <time>2015-11-06T12:34:16Z</time>
      </trkpt>
      <trkpt lat="45.9968" lon="0.33421">
        <ele>111.9921875</ele>
        <time>2015-11-06T12:34:17Z</time>
      </trkpt>
      <trkpt lat="45.99682" lon="0.33416">
        <ele>111.4375</ele>
        <time>2015-11-06T12:34:18Z</time>
      </trkpt>
      <trkpt lat="45.99685" lon="0.33413">
        <ele>111.21484375</ele>
        <time>2015-11-06T12:34:19Z</time>
      </trkpt>
      <trkpt lat="45.99689" lon="0.33411">
        <ele>111.078125</ele>
        <time>2015-11-06T12:34:20Z</time>
      </trkpt>
      <trkpt lat="45.99693" lon="0.33409">
        <ele>110.89453125</ele>
        <time>2015-11-06T12:34:21Z</time>
      </trkpt>
      <trkpt lat="45.99698" lon="0.33405">
        <ele>110.66015625</ele>
        <time>2015-11-06T12:34:24Z</time>
      </trkpt>
      <trkpt lat="45.9972" lon="0.33387">
        <ele>109.25</ele>
        <time>2015-11-06T12:34:30Z</time>
      </trkpt>
      <trkpt lat="45.9973" lon="0.33375">
        <ele>108.109375</ele>
        <time>2015-11-06T12:34:38Z</time>
      </trkpt>
      <trkpt lat="45.99743" lon="0.33361">
        <ele>84.1953125</ele>
        <time>2015-11-06T12:34:45Z</time>
      </trkpt>
      <trkpt lat="45.99752" lon="0.33352">
        <ele>87.875</ele>
        <time>2015-11-06T12:34:47Z</time>
      </trkpt>
      <trkpt lat="45.9976" lon="0.33343">
        <ele>91.703125</ele>
      </trkpt>
      <trkpt lat="45.99769" lon="0.33337">
        <ele>94.28515625</ele>
      </trkpt>
      <trkpt lat="45.99777" lon="0.33332">
        <ele>96.55859375</ele>
      </trkpt>
      <trkpt lat="45.99783" lon="0.33328">
        <ele>98.390625</ele>
      </trkpt>
      <trkpt lat="45.99805" lon="0.33322">
        <ele>101.14453125</ele>
      </trkpt>
      <trkpt lat="45.99818" lon="0.33319">
        <ele>102.90625</ele>
      </trkpt>
      <trkpt lat="45.99832" lon="0.33316">
        <ele>104.89453125</ele>
      </trkpt>
      <trkpt lat="45.99846" lon="0.33313">
        <ele>106.91015625</ele>
        <time>2015-11-06T12:34:56Z</time>
      </trkpt>
      <trkpt lat="45.99863" lon="0.33306">
        <ele>107.44921875</ele>
        <time>2015-11-06T12:35:06Z</time>
      </trkpt>
      <trkpt lat="45.99869" lon="0.33305">
        <ele>107.94140625</ele>
      </trkpt>
      <trkpt lat="45.99877" lon="0.33295">
        <ele>107.99609375</ele>
      </trkpt>
      <trkpt lat="45.9989" lon="0.33282">
        <ele>108.0078125</ele>
        <time>2015-11-06T12:35:12Z</time>
      </trkpt>
      <trkpt lat="45.99904" lon="0.33267">
        <ele>107.85546875</ele>
        <time>2015-11-06T12:35:19Z</time>
      </trkpt>
      <trkpt lat="45.99928" lon="0.33248">
        <ele>108.921875</ele>
        <time>2015-11-06T12:35:27Z</time>
      </trkpt>
      <trkpt lat="45.99948" lon="0.33222">
        <ele>110.296875</ele>
        <time>2015-11-06T12:35:37Z</time>
      </trkpt>
      <trkpt lat="45.99952" lon="0.33218">
        <ele>110.49609375</ele>
        <time>2015-11-06T12:35:40Z</time>
      </trkpt>
      <trkpt lat="45.99958" lon="0.33201">
        <ele>109.828125</ele>
        <time>2015-11-06T12:35:50Z</time>
      </trkpt>
      <trkpt lat="45.99967" lon="0.33179">
        <ele>109.05859375</ele>
        <time>2015-11-06T12:35:56Z</time>
      </trkpt>
      <trkpt lat="45.9997" lon="0.33159">
        <ele>107.68359375</ele>
        <time>2015-11-06T12:36:01Z</time>
      </trkpt>
      <trkpt lat="45.99974" lon="0.33135">
        <ele>106.28125</ele>
        <time>2015-11-06T12:36:07Z</time>
      </trkpt>
      <trkpt lat="45.99973" lon="0.33095">
        <ele>104.125</ele>
        <time>2015-11-06T12:36:08Z</time>
      </trkpt>
      <trkpt lat="45.99978" lon="0.33077">
        <ele>104.26953125</ele>
        <time>2015-11-06T12:36:15Z</time>
      </trkpt>
      <trkpt lat="45.99982" lon="0.33068">
        <ele>104.5703125</ele>
        <time>2015-11-06T12:36:22Z</time>
      </trkpt>
      <trkpt lat="45.99987" lon="0.33056">
        <ele>104.94921875</ele>
      </trkpt>
      <trkpt lat="45.99997" lon="0.33035">
        <ele>105.578125</ele>
      </trkpt>
      <trkpt lat="46.00004" lon="0.33019">
        <ele>106.12890625</ele>
      </trkpt>
      <trkpt lat="46.00007" lon="0.33013">
        <ele>106.3203125</ele>
      </trkpt>
      <trkpt lat="46.00014" lon="0.33006">
        <ele>106.9765625</ele>
      </trkpt>
      <trkpt lat="46.00019" lon="0.33002">
        <ele>107.49609375</ele>
      </trkpt>
      <trkpt lat="46.00027" lon="0.33001">
        <ele>108.2421875</ele>
      </trkpt>
      <trkpt lat="46.0004" lon="0.33003">
        <ele>109.9140625</ele>
      </trkpt>
      <trkpt lat="46.00049" lon="0.33005">
        <ele>111.109375</ele>
      </trkpt>
      <trkpt lat="46.00056" lon="0.33006">
        <ele>111.921875</ele>
      </trkpt>
      <trkpt lat="46.0006" lon="0.33005">
        <ele>112.51953125</ele>
      </trkpt>
      <trkpt lat="46.0006" lon="0.33006">
        <ele>112.51171875</ele>
      </trkpt>
      <trkpt lat="46.00061" lon="0.33005">
        <ele>112.73828125</ele>
        <time>2015-11-06T12:36:28Z</time>
      </trkpt>
      <trkpt lat="46.00063" lon="0.33002">
        <ele>112.98046875</ele>
        <time>2015-11-06T12:36:35Z</time>
      </trkpt>
      <trkpt lat="46.00064" lon="0.32999">
        <ele>113.19921875</ele>
        <time>2015-11-06T12:36:42Z</time>
      </trkpt>
      <trkpt lat="46.00065" lon="0.32991">
        <ele>113.578125</ele>
        <time>2015-11-06T12:36:48Z</time>
      </trkpt>
      <trkpt lat="46.00069" lon="0.32965">
        <ele>114.23046875</ele>
        <time>2015-11-06T12:36:56Z</time>
      </trkpt>
      <trkpt lat="46.00074" lon="0.32939">
        <ele>114.2734375</ele>
        <time>2015-11-06T12:37:03Z</time>
      </trkpt>
      <trkpt lat="46.00079" lon="0.32896">
        <ele>114.3125</ele>
        <time>2015-11-06T12:37:12Z</time>
      </trkpt>
      <trkpt lat="46.00083" lon="0.32847">
        <ele>113.96875</ele>
        <time>2015-11-06T12:37:21Z</time>
      </trkpt>
      <trkpt lat="46.00087" lon="0.32795">
        <ele>114.484375</ele>
        <time>2015-11-06T12:37:30Z</time>
      </trkpt>
      <trkpt lat="46.00084" lon="0.32738">
        <ele>115.28515625</ele>
        <time>2015-11-06T12:37:38Z</time>
      </trkpt>
      <trkpt lat="46.00083" lon="0.3271">
        <ele>115.9140625</ele>
        <time>2015-11-06T12:37:42Z</time>
      </trkpt>
      <trkpt lat="46.00082" lon="0.32698">
        <ele>115.953125</ele>
        <time>2015-11-06T12:37:43Z</time>
      </trkpt>
      <trkpt lat="46.00082" lon="0.32688">
        <ele>116.0703125</ele>
        <time>2015-11-06T12:37:44Z</time>
      </trkpt>
      <trkpt lat="46.00081" lon="0.32674">
        <ele>116.1953125</ele>
        <time>2015-11-06T12:37:46Z</time>
      </trkpt>
      <trkpt lat="46.00082" lon="0.32664">
        <ele>116.6171875</ele>
        <time>2015-11-06T12:37:47Z</time>
      </trkpt>
      <trkpt lat="46.00084" lon="0.32643">
        <ele>117.53515625</ele>
        <time>2015-11-06T12:37:48Z</time>
      </trkpt>
      <trkpt lat="46.00088" lon="0.32607">
        <ele>119.1953125</ele>
        <time>2015-11-06T12:37:57Z</time>
      </trkpt>
      <trkpt lat="46.00087" lon="0.32567">
        <ele>119.28125</ele>
        <time>2015-11-06T12:38:04Z</time>
      </trkpt>
      <trkpt lat="46.00089" lon="0.3255">
        <ele>119.6796875</ele>
        <time>2015-11-06T12:38:05Z</time>
      </trkpt>
      <trkpt lat="46.0009" lon="0.32539">
        <ele>119.859375</ele>
        <time>2015-11-06T12:38:06Z</time>
      </trkpt>
      <trkpt lat="46.00092" lon="0.32529">
        <ele>119.4609375</ele>
        <time>2015-11-06T12:38:07Z</time>
      </trkpt>
      <trkpt lat="46.00091" lon="0.32524">
        <ele>119.01171875</ele>
        <time>2015-11-06T12:38:08Z</time>
      </trkpt>
      <trkpt lat="46.00108" lon="0.32481">
        <ele>118.015625</ele>
        <time>2015-11-06T12:38:16Z</time>
      </trkpt>
      <trkpt lat="46.00123" lon="0.32453">
        <ele>118.0625</ele>
        <time>2015-11-06T12:38:23Z</time>
      </trkpt>
      <trkpt lat="46.00138" lon="0.32432">
        <ele>118.17578125</ele>
        <time>2015-11-06T12:38:28Z</time>
      </trkpt>
      <trkpt lat="46.00141" lon="0.32427">
        <ele>118.12890625</ele>
        <time>2015-11-06T12:38:29Z</time>
      </trkpt>
      <trkpt lat="46.0015" lon="0.3243">
        <ele>119.83984375</ele>
      </trkpt>
      <trkpt lat="46.00156" lon="0.3243">
        <ele>120.7421875</ele>
      </trkpt>
      <trkpt lat="46.00164" lon="0.32425">
        <ele>121.6015625</ele>
      </trkpt>
      <trkpt lat="46.00174" lon="0.32416">
        <ele>122.54296875</ele>
      </trkpt>
      <trkpt lat="46.00183" lon="0.32407">
        <ele>123.296875</ele>
      </trkpt>
      <trkpt lat="46.00191" lon="0.324">
        <ele>123.78125</ele>
      </trkpt>
      <trkpt lat="46.00178" lon="0.3236">
        <ele>118.14453125</ele>
      </trkpt>
      <trkpt lat="46.00162" lon="0.3237">
        <ele>116.9609375</ele>
      </trkpt>
      <trkpt lat="46.00151" lon="0.32376">
        <ele>115.83984375</ele>
      </trkpt>
      <trkpt lat="46.00144" lon="0.3236">
        <ele>113.54296875</ele>
      </trkpt>
      <trkpt lat="46.0014" lon="0.32365">
        <ele>113.34765625</ele>
      </trkpt>
      <trkpt lat="46.00126" lon="0.32382">
        <ele>112.69140625</ele>
      </trkpt>
      <trkpt lat="46.00119" lon="0.32392">
        <ele>112.4375</ele>
      </trkpt>
      <trkpt lat="46.00111" lon="0.3238">
        <ele>110.40625</ele>
      </trkpt>
      <trkpt lat="46.00105" lon="0.32368">
        <ele>108.66796875</ele>
      </trkpt>
      <trkpt lat="46.00101" lon="0.32355">
        <ele>107.58984375</ele>
      </trkpt>
      <trkpt lat="46.00089" lon="0.32355">
        <ele>106.12109375</ele>
      </trkpt>
      <trkpt lat="46.00082" lon="0.32356">
        <ele>105.45703125</ele>
      </trkpt>
      <trkpt lat="46.00074" lon="0.32353">
        <ele>104.921875</ele>
      </trkpt>
      <trkpt lat="46.0007" lon="0.32352">
        <ele>104.63671875</ele>
      </trkpt>
      <trkpt lat="46.00068" lon="0.32351">
        <ele>104.46484375</ele>
      </trkpt>
      <trkpt lat="46.00067" lon="0.32349">
        <ele>104.375</ele>
      </trkpt>
      <trkpt lat="46.00067" lon="0.32347">
        <ele>104.3515625</ele>
      </trkpt>
      <trkpt lat="46.00067" lon="0.32344">
        <ele>104.32421875</ele>
      </trkpt>
      <trkpt lat="46.00068" lon="0.32336">
        <ele>104.30859375</ele>
      </trkpt>
      <trkpt lat="46.0007" lon="0.32327">
        <ele>104.296875</ele>
      </trkpt>
      <trkpt lat="46.00071" lon="0.3232">
        <ele>104.28515625</ele>
      </trkpt>
      <trkpt lat="46.00072" lon="0.32315">
        <ele>104.26953125</ele>
      </trkpt>
      <trkpt lat="46.00071" lon="0.32308">
        <ele>104.2890625</ele>
      </trkpt>
      <trkpt lat="46.00071" lon="0.32301">
        <ele>104.3515625</ele>
      </trkpt>
      <trkpt lat="46.0007" lon="0.32293">
        <ele>104.3828125</ele>
      </trkpt>
      <trkpt lat="46.00065" lon="0.32291">
        <ele>104.1328125</ele>
      </trkpt>
      <trkpt lat="46.00061" lon="0.3229">
        <ele>103.8671875</ele>
      </trkpt>
      <trkpt lat="46.00057" lon="0.32289">
        <ele>103.65625</ele>
      </trkpt>
      <trkpt lat="46.00054" lon="0.32288">
        <ele>103.4609375</ele>
      </trkpt>
      <trkpt lat="46.00051" lon="0.32285">
        <ele>103.28125</ele>
      </trkpt>
      <trkpt lat="46.00048" lon="0.32282">
        <ele>103.1328125</ele>
      </trkpt>
      <trkpt lat="46.00044" lon="0.32279">
        <ele>102.8984375</ele>
      </trkpt>
      <trkpt lat="46.0004" lon="0.32275">
        <ele>102.65234375</ele>
      </trkpt>
      <trkpt lat="46.00037" lon="0.32272">
        <ele>102.44140625</ele>
      </trkpt>
      <trkpt lat="46.00036" lon="0.32268">
        <ele>102.3515625</ele>
      </trkpt>
      <trkpt lat="46.00034" lon="0.32261">
        <ele>102.26171875</ele>
      </trkpt>
      <trkpt lat="46.00033" lon="0.32255">
        <ele>102.15625</ele>
      </trkpt>
      <trkpt lat="46.00031" lon="0.32243">
        <ele>102.0546875</ele>
      </trkpt>
      <trkpt lat="46.0003" lon="0.32235">
        <ele>101.95703125</ele>
      </trkpt>
      <trkpt lat="46.0003" lon="0.32232">
        <ele>101.95703125</ele>
      </trkpt>
      <trkpt lat="46.0003" lon="0.32219">
        <ele>101.94921875</ele>
      </trkpt>
      <trkpt lat="46.00028" lon="0.32207">
        <ele>101.86328125</ele>
      </trkpt>
      <trkpt lat="46.00029" lon="0.322">
        <ele>101.9765625</ele>
      </trkpt>
      <trkpt lat="46.00032" lon="0.32189">
        <ele>102.546875</ele>
      </trkpt>
      <trkpt lat="46.00035" lon="0.3218">
        <ele>103.0859375</ele>
      </trkpt>
      <trkpt lat="46.00036" lon="0.32168">
        <ele>103.55859375</ele>
      </trkpt>
      <trkpt lat="46.00038" lon="0.32156">
        <ele>104.203125</ele>
      </trkpt>
      <trkpt lat="46.00039" lon="0.32143">
        <ele>104.85546875</ele>
      </trkpt>
      <trkpt lat="46.0004" lon="0.32135">
        <ele>105.2265625</ele>
      </trkpt>
      <trkpt lat="46.00041" lon="0.32133">
        <ele>105.40234375</ele>
      </trkpt>
      <trkpt lat="46.00041" lon="0.32126">
        <ele>105.68359375</ele>
      </trkpt>
      <trkpt lat="46.00043" lon="0.32121">
        <ele>106.046875</ele>
      </trkpt>
      <trkpt lat="46.00045" lon="0.32111">
        <ele>106.72265625</ele>
      </trkpt>
      <trkpt lat="46.00047" lon="0.32103">
        <ele>107.46484375</ele>
      </trkpt>
      <trkpt lat="46.00048" lon="0.321">
        <ele>107.734375</ele>
      </trkpt>
      <trkpt lat="46.00048" lon="0.32094">
        <ele>108.078125</ele>
      </trkpt>
      <trkpt lat="46.00049" lon="0.32091">
        <ele>108.375</ele>
      </trkpt>
      <trkpt lat="46.0005" lon="0.32089">
        <ele>108.6796875</ele>
      </trkpt>
      <trkpt lat="46.00052" lon="0.32088">
        <ele>109.19921875</ele>
      </trkpt>
      <trkpt lat="46.00056" lon="0.32088">
        <ele>110.01171875</ele>
      </trkpt>
      <trkpt lat="46.00059" lon="0.32087">
        <ele>110.796875</ele>
      </trkpt>
      <trkpt lat="46.00063" lon="0.32086">
        <ele>111.765625</ele>
      </trkpt>
      <trkpt lat="46.00066" lon="0.32084">
        <ele>112.46875</ele>
      </trkpt>
      <trkpt lat="46.00063" lon="0.32062">
        <ele>112.3203125</ele>
      </trkpt>
      <trkpt lat="46.0006" lon="0.32034">
        <ele>112.23828125</ele>
      </trkpt>
      <trkpt lat="46.0006" lon="0.32013">
        <ele>110.7578125</ele>
      </trkpt>
      <trkpt lat="46.00059" lon="0.32006">
        <ele>110.25390625</ele>
      </trkpt>
      <trkpt lat="46.0006" lon="0.32003">
        <ele>110.25</ele>
      </trkpt>
      <trkpt lat="46.00084" lon="0.3201">
        <ele>114.80078125</ele>
      </trkpt>
      <trkpt lat="46.00105" lon="0.3201">
        <ele>117.8046875</ele>
      </trkpt>
      <trkpt lat="46.00127" lon="0.32009">
        <ele>120.515625</ele>
      </trkpt>
      <trkpt lat="46.00151" lon="0.32007">
        <ele>123.453125</ele>
      </trkpt>
      <trkpt lat="46.00172" lon="0.32006">
        <ele>126.23828125</ele>
      </trkpt>
      <trkpt lat="46.00187" lon="0.32005">
        <ele>128.20703125</ele>
      </trkpt>
      <trkpt lat="46.00195" lon="0.32004">
        <ele>129.25</ele>
      </trkpt>
      <trkpt lat="46.00194" lon="0.32007">
        <ele>129.40234375</ele>
      </trkpt>
      <trkpt lat="46.00183" lon="0.32023">
        <ele>129.796875</ele>
      </trkpt>
      <trkpt lat="46.00179" lon="0.32028">
        <ele>130.05859375</ele>
      </trkpt>
      <trkpt lat="46.00175" lon="0.32052">
        <ele>130.9921875</ele>
      </trkpt>
      <trkpt lat="46.00174" lon="0.32067">
        <ele>131.28515625</ele>
      </trkpt>
      <trkpt lat="46.00182" lon="0.32065">
        <ele>131.99609375</ele>
      </trkpt>
      <trkpt lat="46.00182" lon="0.32078">
        <ele>132.31640625</ele>
      </trkpt>
      <trkpt lat="46.00181" lon="0.32086">
        <ele>132.4296875</ele>
      </trkpt>
      <trkpt lat="46.00178" lon="0.32096">
        <ele>131.80859375</ele>
      </trkpt>
      <trkpt lat="46.00177" lon="0.32099">
        <ele>131.26953125</ele>
      </trkpt>
      <trkpt lat="46.00179" lon="0.32101">
        <ele>131.24609375</ele>
      </trkpt>
      <trkpt lat="46.00182" lon="0.32103">
        <ele>131.1875</ele>
      </trkpt>
      <trkpt lat="46.00184" lon="0.32105">
        <ele>131.12890625</ele>
      </trkpt>
      <trkpt lat="46.00187" lon="0.32107">
        <ele>131.02734375</ele>
      </trkpt>
      <trkpt lat="46.00189" lon="0.32109">
        <ele>130.93359375</ele>
      </trkpt>
      <trkpt lat="46.00191" lon="0.32111">
        <ele>130.71484375</ele>
      </trkpt>
      <trkpt lat="46.00192" lon="0.32114">
        <ele>130.4609375</ele>
      </trkpt>
      <trkpt lat="46.00194" lon="0.32116">
        <ele>130.375</ele>
      </trkpt>
      <trkpt lat="46.00198" lon="0.32117">
        <ele>130.30078125</ele>
      </trkpt>
      <trkpt lat="46.002" lon="0.32117">
        <ele>130.17578125</ele>
      </trkpt>
      <trkpt lat="46.00203" lon="0.32115">
        <ele>130.1640625</ele>
      </trkpt>
      <trkpt lat="46.00206" lon="0.32114">
        <ele>130.14453125</ele>
      </trkpt>
      <trkpt lat="46.00208" lon="0.32114">
        <ele>130.046875</ele>
      </trkpt>
      <trkpt lat="46.00211" lon="0.32114">
        <ele>129.95703125</ele>
      </trkpt>
      <trkpt lat="46.00213" lon="0.32113">
        <ele>129.95703125</ele>
      </trkpt>
      <trkpt lat="46.00215" lon="0.32109">
        <ele>130.4609375</ele>
      </trkpt>
      <trkpt lat="46.00219" lon="0.32104">
        <ele>131.03125</ele>
      </trkpt>
      <trkpt lat="46.00221" lon="0.32099">
        <ele>131.8515625</ele>
      </trkpt>
      <trkpt lat="46.00223" lon="0.32095">
        <ele>132.484375</ele>
      </trkpt>
      <trkpt lat="46.00224" lon="0.32092">
        <ele>132.91015625</ele>
      </trkpt>
      <trkpt lat="46.00226" lon="0.32086">
        <ele>133.2109375</ele>
      </trkpt>
      <trkpt lat="46.00227" lon="0.32078">
        <ele>133.609375</ele>
      </trkpt>
      <trkpt lat="46.00227" lon="0.32071">
        <ele>133.96875</ele>
      </trkpt>
      <trkpt lat="46.00227" lon="0.32065">
        <ele>134.265625</ele>
      </trkpt>
      <trkpt lat="46.00226" lon="0.32056">
        <ele>134.640625</ele>
      </trkpt>
      <trkpt lat="46.00232" lon="0.3205">
        <ele>135.23828125</ele>
      </trkpt>
      <trkpt lat="46.00236" lon="0.32046">
        <ele>135.83203125</ele>
      </trkpt>
      <trkpt lat="46.00241" lon="0.32042">
        <ele>136.4375</ele>
      </trkpt>
      <trkpt lat="46.00251" lon="0.32035">
        <ele>137.76953125</ele>
      </trkpt>
      <trkpt lat="46.00261" lon="0.32027">
        <ele>138.35546875</ele>
      </trkpt>
      <trkpt lat="46.00268" lon="0.32023">
        <ele>138.7734375</ele>
      </trkpt>
      <trkpt lat="46.00292" lon="0.32013">
        <ele>140.546875</ele>
      </trkpt>
      <trkpt lat="46.003" lon="0.32009">
        <ele>141.296875</ele>
      </trkpt>
      <trkpt lat="46.00306" lon="0.32007">
        <ele>141.80859375</ele>
      </trkpt>
      <trkpt lat="46.00317" lon="0.32004">
        <ele>142.47265625</ele>
      </trkpt>
      <trkpt lat="46.00324" lon="0.32003">
        <ele>142.90234375</ele>
      </trkpt>
      <trkpt lat="46.0033" lon="0.32002">
        <ele>143.24609375</ele>
      </trkpt>
      <trkpt lat="46.00343" lon="0.32008">
        <ele>143.91015625</ele>
      </trkpt>
      <trkpt lat="46.00356" lon="0.32012">
        <ele>144.4296875</ele>
      </trkpt>
      <trkpt lat="46.00382" lon="0.32025">
        <ele>145.05859375</ele>
      </trkpt>
      <trkpt lat="46.00391" lon="0.32029">
        <ele>145.21875</ele>
      </trkpt>
      <trkpt lat="46.00398" lon="0.32031">
        <ele>145.40625</ele>
      </trkpt>
      <trkpt lat="46.00402" lon="0.32033">
        <ele>145.5234375</ele>
      </trkpt>
      <trkpt lat="46.00407" lon="0.32035">
        <ele>145.62109375</ele>
      </trkpt>
      <trkpt lat="46.00413" lon="0.32034">
        <ele>145.84765625</ele>
      </trkpt>
      <trkpt lat="46.00428" lon="0.32031">
        <ele>146.65625</ele>
      </trkpt>
      <trkpt lat="46.00445" lon="0.32024">
        <ele>147.8203125</ele>
      </trkpt>
      <trkpt lat="46.00461" lon="0.32016">
        <ele>148.96484375</ele>
      </trkpt>
      <trkpt lat="46.00477" lon="0.32009">
        <ele>150.078125</ele>
      </trkpt>
      <trkpt lat="46.00491" lon="0.31999">
        <ele>151.12109375</ele>
      </trkpt>
      <trkpt lat="46.00513" lon="0.31982">
        <ele>152.3671875</ele>
      </trkpt>
      <trkpt lat="46.00525" lon="0.31971">
        <ele>152.62109375</ele>
      </trkpt>
      <trkpt lat="46.00536" lon="0.31959">
        <ele>152.62890625</ele>
      </trkpt>
      <trkpt lat="46.00547" lon="0.31948">
        <ele>152.35546875</ele>
      </trkpt>
      <trkpt lat="46.00577" lon="0.31915">
        <ele>150.80859375</ele>
      </trkpt>
      <trkpt lat="46.0059" lon="0.31902">
        <ele>150.05078125</ele>
      </trkpt>
      <trkpt lat="46.00601" lon="0.31891">
        <ele>149.16796875</ele>
      </trkpt>
      <trkpt lat="46.0062" lon="0.31871">
        <ele>147.22265625</ele>
      </trkpt>
      <trkpt lat="46.00629" lon="0.31857">
        <ele>145.72265625</ele>
      </trkpt>
      <trkpt lat="46.00638" lon="0.31849">
        <ele>144.671875</ele>
      </trkpt>
      <trkpt lat="46.00641" lon="0.31846">
        <ele>144.34375</ele>
      </trkpt>
      <trkpt lat="46.00646" lon="0.31842">
        <ele>143.94140625</ele>
      </trkpt>
      <trkpt lat="46.00653" lon="0.31838">
        <ele>143.5234375</ele>
      </trkpt>
      <trkpt lat="46.00656" lon="0.31833">
        <ele>143.1640625</ele>
      </trkpt>
      <trkpt lat="46.00659" lon="0.31824">
        <ele>142.62890625</ele>
      </trkpt>
      <trkpt lat="46.00659" lon="0.31817">
        <ele>142.2109375</ele>
      </trkpt>
      <trkpt lat="46.00658" lon="0.31809">
        <ele>141.96484375</ele>
      </trkpt>
      <trkpt lat="46.00657" lon="0.31784">
        <ele>141.765625</ele>
      </trkpt>
      <trkpt lat="46.0066" lon="0.31753">
        <ele>141.875</ele>
      </trkpt>
      <trkpt lat="46.00664" lon="0.31726">
        <ele>143.2421875</ele>
      </trkpt>
      <trkpt lat="46.00668" lon="0.31706">
        <ele>144.34375</ele>
      </trkpt>
      <trkpt lat="46.00682" lon="0.31689">
        <ele>146.1796875</ele>
      </trkpt>
      <trkpt lat="46.00703" lon="0.31673">
        <ele>148.30078125</ele>
      </trkpt>
      <trkpt lat="46.00715" lon="0.31658">
        <ele>149.65234375</ele>
      </trkpt>
      <trkpt lat="46.00716" lon="0.31648">
        <ele>150.296875</ele>
      </trkpt>
      <trkpt lat="46.00718" lon="0.31641">
        <ele>150.625</ele>
      </trkpt>
      <trkpt lat="46.00709" lon="0.31616">
        <ele>151.3515625</ele>
      </trkpt>
      <trkpt lat="46.00699" lon="0.31588">
        <ele>152.2265625</ele>
      </trkpt>
      <trkpt lat="46.00681" lon="0.31539">
        <ele>153.99609375</ele>
      </trkpt>
      <trkpt lat="46.00664" lon="0.31487">
        <ele>155.53125</ele>
      </trkpt>
      <trkpt lat="46.00652" lon="0.31445">
        <ele>155.484375</ele>
      </trkpt>
      <trkpt lat="46.00636" lon="0.31403">
        <ele>155.12890625</ele>
      </trkpt>
      <trkpt lat="46.00629" lon="0.31391">
        <ele>154.96875</ele>
      </trkpt>
      <trkpt lat="46.00617" lon="0.31373">
        <ele>154.62109375</ele>
      </trkpt>
      <trkpt lat="46.00606" lon="0.31358">
        <ele>153.88671875</ele>
      </trkpt>
      <trkpt lat="46.00596" lon="0.31344">
        <ele>153.10546875</ele>
      </trkpt>
      <trkpt lat="46.0059" lon="0.31336">
        <ele>152.6015625</ele>
      </trkpt>
      <trkpt lat="46.00587" lon="0.31332">
        <ele>152.3671875</ele>
      </trkpt>
      <trkpt lat="46.00585" lon="0.3133">
        <ele>152.2421875</ele>
      </trkpt>
      <trkpt lat="46.00586" lon="0.31325">
        <ele>152.234375</ele>
      </trkpt>
      <trkpt lat="46.00589" lon="0.31324">
        <ele>152.37109375</ele>
      </trkpt>
      <trkpt lat="46.00596" lon="0.31321">
        <ele>152.65234375</ele>
      </trkpt>
      <trkpt lat="46.00605" lon="0.31315">
        <ele>153.05078125</ele>
      </trkpt>
      <trkpt lat="46.00614" lon="0.31309">
        <ele>153.453125</ele>
      </trkpt>
      <trkpt lat="46.00624" lon="0.31304">
        <ele>153.8515625</ele>
      </trkpt>
      <trkpt lat="46.00651" lon="0.31286">
        <ele>154.98828125</ele>
      </trkpt>
      <trkpt lat="46.00669" lon="0.31274">
        <ele>155.76171875</ele>
      </trkpt>
      <trkpt lat="46.00681" lon="0.31267">
        <ele>156.30078125</ele>
      </trkpt>
      <trkpt lat="46.00695" lon="0.31259">
        <ele>156.89453125</ele>
      </trkpt>
      <trkpt lat="46.007" lon="0.31257">
        <ele>157.17578125</ele>
      </trkpt>
      <trkpt lat="46.00719" lon="0.31251">
        <ele>158.125</ele>
      </trkpt>
      <trkpt lat="46.0075" lon="0.31245">
        <ele>159.65234375</ele>
      </trkpt>
      <trkpt lat="46.00764" lon="0.31241">
        <ele>159.8984375</ele>
      </trkpt>
      <trkpt lat="46.00777" lon="0.31235">
        <ele>160.015625</ele>
      </trkpt>
      <trkpt lat="46.00792" lon="0.31227">
        <ele>160.140625</ele>
      </trkpt>
      <trkpt lat="46.00805" lon="0.31219">
        <ele>160.23046875</ele>
      </trkpt>
      <trkpt lat="46.00816" lon="0.31212">
        <ele>160.296875</ele>
      </trkpt>
      <trkpt lat="46.00829" lon="0.31203">
        <ele>160.3671875</ele>
      </trkpt>
      <trkpt lat="46.00843" lon="0.31193">
        <ele>160.44140625</ele>
      </trkpt>
      <trkpt lat="46.00862" lon="0.31176">
        <ele>160.4765625</ele>
      </trkpt>
      <trkpt lat="46.00866" lon="0.31172">
        <ele>160.49609375</ele>
      </trkpt>
      <trkpt lat="46.00882" lon="0.31152">
        <ele>160.41015625</ele>
      </trkpt>
      <trkpt lat="46.00897" lon="0.31134">
        <ele>160.35546875</ele>
      </trkpt>
      <trkpt lat="46.0091" lon="0.31117">
        <ele>160.28515625</ele>
      </trkpt>
      <trkpt lat="46.00916" lon="0.31109">
        <ele>160.25390625</ele>
      </trkpt>
      <trkpt lat="46.00923" lon="0.31101">
        <ele>160.21484375</ele>
      </trkpt>
      <trkpt lat="46.0093" lon="0.31091">
        <ele>160.17578125</ele>
      </trkpt>
      <trkpt lat="46.00934" lon="0.31086">
        <ele>160.13671875</ele>
      </trkpt>
      <trkpt lat="46.00942" lon="0.31081">
        <ele>160.12109375</ele>
      </trkpt>
      <trkpt lat="46.0095" lon="0.31075">
        <ele>160.0625</ele>
      </trkpt>
      <trkpt lat="46.00957" lon="0.31069">
        <ele>159.98828125</ele>
      </trkpt>
      <trkpt lat="46.00962" lon="0.31066">
        <ele>159.9296875</ele>
      </trkpt>
      <trkpt lat="46.00982" lon="0.31057">
        <ele>159.8125</ele>
      </trkpt>
      <trkpt lat="46.01002" lon="0.31048">
        <ele>159.80859375</ele>
      </trkpt>
      <trkpt lat="46.01031" lon="0.31041">
        <ele>160.09765625</ele>
      </trkpt>
      <trkpt lat="46.01055" lon="0.31037">
        <ele>160.46875</ele>
      </trkpt>
      <trkpt lat="46.01077" lon="0.31037">
        <ele>160.8828125</ele>
      </trkpt>
      <trkpt lat="46.01127" lon="0.31037">
        <ele>161.76171875</ele>
      </trkpt>
      <trkpt lat="46.01161" lon="0.31033">
        <ele>161.91796875</ele>
      </trkpt>
      <trkpt lat="46.01205" lon="0.31027">
        <ele>162.09375</ele>
      </trkpt>
      <trkpt lat="46.01256" lon="0.31024">
        <ele>162.48828125</ele>
      </trkpt>
      <trkpt lat="46.01291" lon="0.31024">
        <ele>161.99609375</ele>
      </trkpt>
      <trkpt lat="46.01302" lon="0.31027">
        <ele>161.90625</ele>
      </trkpt>
      <trkpt lat="46.01328" lon="0.31036">
        <ele>161.98046875</ele>
      </trkpt>
      <trkpt lat="46.01339" lon="0.3104">
        <ele>162.02734375</ele>
      </trkpt>
      <trkpt lat="46.01349" lon="0.31043">
        <ele>162.03125</ele>
      </trkpt>
      <trkpt lat="46.01356" lon="0.31046">
        <ele>162.01953125</ele>
      </trkpt>
      <trkpt lat="46.01364" lon="0.3105">
        <ele>161.96484375</ele>
      </trkpt>
      <trkpt lat="46.01374" lon="0.31054">
        <ele>161.51953125</ele>
      </trkpt>
      <trkpt lat="46.01391" lon="0.31061">
        <ele>160.9453125</ele>
      </trkpt>
      <trkpt lat="46.01405" lon="0.31066">
        <ele>160.55859375</ele>
      </trkpt>
      <trkpt lat="46.0142" lon="0.31072">
        <ele>160.23046875</ele>
      </trkpt>
      <trkpt lat="46.01444" lon="0.31082">
        <ele>159.7265625</ele>
      </trkpt>
      <trkpt lat="46.01454" lon="0.31087">
        <ele>159.515625</ele>
      </trkpt>
      <trkpt lat="46.0147" lon="0.311">
        <ele>159.29296875</ele>
      </trkpt>
      <trkpt lat="46.01483" lon="0.31111">
        <ele>159.27734375</ele>
      </trkpt>
      <trkpt lat="46.01492" lon="0.31119">
        <ele>159.48046875</ele>
      </trkpt>
      <trkpt lat="46.015" lon="0.31127">
        <ele>159.75390625</ele>
      </trkpt>
      <trkpt lat="46.01513" lon="0.31131">
        <ele>159.9609375</ele>
      </trkpt>
      <trkpt lat="46.0152" lon="0.31132">
        <ele>160.078125</ele>
      </trkpt>
      <trkpt lat="46.01544" lon="0.3113">
        <ele>160.46875</ele>
      </trkpt>
      <trkpt lat="46.01559" lon="0.31128">
        <ele>160.86328125</ele>
      </trkpt>
      <trkpt lat="46.01573" lon="0.31127">
        <ele>161.2421875</ele>
      </trkpt>
      <trkpt lat="46.01582" lon="0.31126">
        <ele>161.51171875</ele>
      </trkpt>
      <trkpt lat="46.01621" lon="0.31128">
        <ele>162.109375</ele>
      </trkpt>
      <trkpt lat="46.01639" lon="0.31128">
        <ele>162.3359375</ele>
      </trkpt>
      <trkpt lat="46.01667" lon="0.31123">
        <ele>163.38671875</ele>
      </trkpt>
      <trkpt lat="46.01708" lon="0.31121">
        <ele>165</ele>
      </trkpt>
      <trkpt lat="46.01727" lon="0.31119">
        <ele>165.8984375</ele>
      </trkpt>
      <trkpt lat="46.01739" lon="0.31118">
        <ele>166.4453125</ele>
      </trkpt>
      <trkpt lat="46.01758" lon="0.3111">
        <ele>167.07421875</ele>
      </trkpt>
      <trkpt lat="46.01775" lon="0.31103">
        <ele>167.16015625</ele>
      </trkpt>
      <trkpt lat="46.01788" lon="0.31096">
        <ele>167.09375</ele>
      </trkpt>
      <trkpt lat="46.01811" lon="0.31086">
        <ele>166.89453125</ele>
      </trkpt>
      <trkpt lat="46.01824" lon="0.31083">
        <ele>166.83203125</ele>
      </trkpt>
      <trkpt lat="46.01841" lon="0.31079">
        <ele>166.76171875</ele>
      </trkpt>
      <trkpt lat="46.01854" lon="0.31077">
        <ele>166.73046875</ele>
      </trkpt>
      <trkpt lat="46.01874" lon="0.31075">
        <ele>166.5703125</ele>
      </trkpt>
      <trkpt lat="46.01902" lon="0.31076">
        <ele>166.28125</ele>
      </trkpt>
      <trkpt lat="46.01915" lon="0.31073">
        <ele>165.984375</ele>
      </trkpt>
      <trkpt lat="46.01924" lon="0.3107">
        <ele>165.79296875</ele>
      </trkpt>
      <trkpt lat="46.01933" lon="0.31066">
        <ele>165.59765625</ele>
      </trkpt>
      <trkpt lat="46.01943" lon="0.31059">
        <ele>165.21875</ele>
      </trkpt>
      <trkpt lat="46.01956" lon="0.31045">
        <ele>164.4453125</ele>
      </trkpt>
      <trkpt lat="46.01973" lon="0.31025">
        <ele>163.3671875</ele>
      </trkpt>
      <trkpt lat="46.01992" lon="0.3101">
        <ele>162.3984375</ele>
      </trkpt>
      <trkpt lat="46.02012" lon="0.3099">
        <ele>160.875</ele>
      </trkpt>
      <trkpt lat="46.02022" lon="0.30976">
        <ele>160.27734375</ele>
      </trkpt>
      <trkpt lat="46.02035" lon="0.30961">
        <ele>161.09765625</ele>
      </trkpt>
      <trkpt lat="46.02042" lon="0.30952">
        <ele>161.91015625</ele>
      </trkpt>
      <trkpt lat="46.02048" lon="0.30945">
        <ele>162.65234375</ele>
      </trkpt>
      <trkpt lat="46.02059" lon="0.30934">
        <ele>163.8125</ele>
      </trkpt>
      <trkpt lat="46.02078" lon="0.30922">
        <ele>165.51171875</ele>
      </trkpt>
      <trkpt lat="46.02092" lon="0.30913">
        <ele>166.26953125</ele>
      </trkpt>
      <trkpt lat="46.02195" lon="0.30856">
        <ele>168.73828125</ele>
      </trkpt>
      <trkpt lat="46.02198" lon="0.30852">
        <ele>168.66015625</ele>
      </trkpt>
      <trkpt lat="46.022" lon="0.30848">
        <ele>168.56640625</ele>
      </trkpt>
      <trkpt lat="46.022" lon="0.30844">
        <ele>168.5</ele>
      </trkpt>
      <trkpt lat="46.02197" lon="0.30814">
        <ele>167.98046875</ele>
      </trkpt>
      <trkpt lat="46.02195" lon="0.30804">
        <ele>167.59765625</ele>
      </trkpt>
      <trkpt lat="46.02194" lon="0.30794">
        <ele>167.23046875</ele>
      </trkpt>
      <trkpt lat="46.02194" lon="0.30787">
        <ele>166.9921875</ele>
      </trkpt>
      <trkpt lat="46.02194" lon="0.30777">
        <ele>166.62890625</ele>
      </trkpt>
      <trkpt lat="46.0219" lon="0.30768">
        <ele>166.3125</ele>
      </trkpt>
      <trkpt lat="46.02164" lon="0.30714">
        <ele>165.1875</ele>
      </trkpt>
      <trkpt lat="46.02159" lon="0.30697">
        <ele>164.77734375</ele>
      </trkpt>
      <trkpt lat="46.02154" lon="0.30678">
        <ele>164.0859375</ele>
      </trkpt>
      <trkpt lat="46.02153" lon="0.3067">
        <ele>163.78515625</ele>
      </trkpt>
      <trkpt lat="46.02151" lon="0.30651">
        <ele>163.1015625</ele>
      </trkpt>
      <trkpt lat="46.02151" lon="0.30639">
        <ele>162.84375</ele>
      </trkpt>
      <trkpt lat="46.02149" lon="0.30628">
        <ele>162.6328125</ele>
      </trkpt>
      <trkpt lat="46.02146" lon="0.30611">
        <ele>162.328125</ele>
      </trkpt>
      <trkpt lat="46.02144" lon="0.306">
        <ele>162.125</ele>
      </trkpt>
      <trkpt lat="46.02141" lon="0.3059">
        <ele>161.8984375</ele>
      </trkpt>
      <trkpt lat="46.02136" lon="0.30573">
        <ele>161.234375</ele>
      </trkpt>
      <trkpt lat="46.02134" lon="0.30564">
        <ele>160.9140625</ele>
      </trkpt>
      <trkpt lat="46.0213" lon="0.30558">
        <ele>160.67578125</ele>
      </trkpt>
      <trkpt lat="46.02126" lon="0.30551">
        <ele>160.4453125</ele>
      </trkpt>
      <trkpt lat="46.02122" lon="0.30545">
        <ele>160.23046875</ele>
      </trkpt>
      <trkpt lat="46.02115" lon="0.3053">
        <ele>159.6796875</ele>
      </trkpt>
      <trkpt lat="46.02112" lon="0.3052">
        <ele>159.2578125</ele>
      </trkpt>
      <trkpt lat="46.02108" lon="0.30509">
        <ele>158.765625</ele>
      </trkpt>
      <trkpt lat="46.02106" lon="0.30502">
        <ele>158.5</ele>
      </trkpt>
      <trkpt lat="46.02103" lon="0.30491">
        <ele>158.078125</ele>
      </trkpt>
      <trkpt lat="46.02097" lon="0.30484">
        <ele>157.90234375</ele>
      </trkpt>
      <trkpt lat="46.02092" lon="0.30479">
        <ele>157.81640625</ele>
      </trkpt>
      <trkpt lat="46.02089" lon="0.3047">
        <ele>157.71484375</ele>
      </trkpt>
      <trkpt lat="46.02086" lon="0.30457">
        <ele>157.54296875</ele>
      </trkpt>
      <trkpt lat="46.02084" lon="0.3045">
        <ele>157.43359375</ele>
      </trkpt>
      <trkpt lat="46.0208" lon="0.30435">
        <ele>157.1796875</ele>
      </trkpt>
      <trkpt lat="46.02079" lon="0.30429">
        <ele>157.0703125</ele>
      </trkpt>
      <trkpt lat="46.02071" lon="0.30416">
        <ele>156.8125</ele>
      </trkpt>
      <trkpt lat="46.0206" lon="0.30399">
        <ele>156.5078125</ele>
      </trkpt>
      <trkpt lat="46.02047" lon="0.30377">
        <ele>156.109375</ele>
      </trkpt>
      <trkpt lat="46.02039" lon="0.30356">
        <ele>155.953125</ele>
      </trkpt>
      <trkpt lat="46.02036" lon="0.30345">
        <ele>155.94140625</ele>
      </trkpt>
      <trkpt lat="46.02036" lon="0.30338">
        <ele>155.92578125</ele>
      </trkpt>
      <trkpt lat="46.02037" lon="0.30328">
        <ele>155.8984375</ele>
      </trkpt>
      <trkpt lat="46.02036" lon="0.30322">
        <ele>155.890625</ele>
      </trkpt>
      <trkpt lat="46.02032" lon="0.30304">
        <ele>156.1484375</ele>
      </trkpt>
      <trkpt lat="46.02031" lon="0.30295">
        <ele>156.3203125</ele>
      </trkpt>
      <trkpt lat="46.02024" lon="0.30275">
        <ele>156.85546875</ele>
      </trkpt>
      <trkpt lat="46.02023" lon="0.30267">
        <ele>157.05078125</ele>
      </trkpt>
      <trkpt lat="46.02024" lon="0.30264">
        <ele>157.11328125</ele>
      </trkpt>
      <trkpt lat="46.02023" lon="0.30256">
        <ele>157.31640625</ele>
      </trkpt>
      <trkpt lat="46.02022" lon="0.30243">
        <ele>157.61328125</ele>
      </trkpt>
      <trkpt lat="46.02021" lon="0.30235">
        <ele>157.796875</ele>
      </trkpt>
      <trkpt lat="46.02018" lon="0.30222">
        <ele>158.2109375</ele>
      </trkpt>
      <trkpt lat="46.02014" lon="0.30204">
        <ele>158.83203125</ele>
      </trkpt>
      <trkpt lat="46.02009" lon="0.30184">
        <ele>159.90625</ele>
      </trkpt>
      <trkpt lat="46.02003" lon="0.30168">
        <ele>160.71875</ele>
      </trkpt>
      <trkpt lat="46.01999" lon="0.30154">
        <ele>161.36328125</ele>
      </trkpt>
      <trkpt lat="46.01994" lon="0.30145">
        <ele>161.69921875</ele>
      </trkpt>
      <trkpt lat="46.01993" lon="0.30136">
        <ele>161.88671875</ele>
      </trkpt>
      <trkpt lat="46.0199" lon="0.30121">
        <ele>162.20703125</ele>
      </trkpt>
      <trkpt lat="46.0199" lon="0.30098">
        <ele>162.625</ele>
      </trkpt>
      <trkpt lat="46.01989" lon="0.30085">
        <ele>162.765625</ele>
      </trkpt>
      <trkpt lat="46.01991" lon="0.30071">
        <ele>162.8203125</ele>
      </trkpt>
      <trkpt lat="46.01993" lon="0.3006">
        <ele>162.86328125</ele>
      </trkpt>
      <trkpt lat="46.01991" lon="0.30048">
        <ele>162.94140625</ele>
      </trkpt>
      <trkpt lat="46.01991" lon="0.30044">
        <ele>162.96484375</ele>
      </trkpt>
      <trkpt lat="46.01989" lon="0.30036">
        <ele>162.99609375</ele>
      </trkpt>
      <trkpt lat="46.01985" lon="0.30038">
        <ele>163</ele>
      </trkpt>
      <trkpt lat="46.0198" lon="0.30033">
        <ele>162.9921875</ele>
      </trkpt>
      <trkpt lat="46.01972" lon="0.30025">
        <ele>162.9921875</ele>
      </trkpt>
      <trkpt lat="46.01966" lon="0.30017">
        <ele>162.9453125</ele>
      </trkpt>
      <trkpt lat="46.01959" lon="0.30008">
        <ele>162.85546875</ele>
      </trkpt>
      <trkpt lat="46.01938" lon="0.2999">
        <ele>162.4453125</ele>
      </trkpt>
      <trkpt lat="46.01926" lon="0.29982">
        <ele>162.13671875</ele>
      </trkpt>
      <trkpt lat="46.01903" lon="0.29966">
        <ele>161.4375</ele>
      </trkpt>
      <trkpt lat="46.01872" lon="0.2993">
        <ele>160.21875</ele>
      </trkpt>
      <trkpt lat="46.0187" lon="0.29926">
        <ele>160.1171875</ele>
      </trkpt>
      <trkpt lat="46.01866" lon="0.29922">
        <ele>159.97265625</ele>
      </trkpt>
      <trkpt lat="46.01853" lon="0.2991">
        <ele>159.66015625</ele>
      </trkpt>
      <trkpt lat="46.0185" lon="0.29908">
        <ele>159.59375</ele>
      </trkpt>
      <trkpt lat="46.01843" lon="0.299">
        <ele>159.35546875</ele>
      </trkpt>
      <trkpt lat="46.01833" lon="0.2989">
        <ele>158.9921875</ele>
      </trkpt>
      <trkpt lat="46.01823" lon="0.29881">
        <ele>158.6015625</ele>
      </trkpt>
      <trkpt lat="46.01815" lon="0.29874">
        <ele>158.24609375</ele>
      </trkpt>
      <trkpt lat="46.01808" lon="0.29867">
        <ele>157.875</ele>
      </trkpt>
      <trkpt lat="46.018" lon="0.29859">
        <ele>157.34765625</ele>
      </trkpt>
      <trkpt lat="46.0179" lon="0.2985">
        <ele>156.74609375</ele>
      </trkpt>
      <trkpt lat="46.0178" lon="0.29841">
        <ele>156.21484375</ele>
      </trkpt>
      <trkpt lat="46.01772" lon="0.29834">
        <ele>155.82421875</ele>
      </trkpt>
      <trkpt lat="46.01764" lon="0.29828">
        <ele>155.49609375</ele>
      </trkpt>
      <trkpt lat="46.01756" lon="0.2982">
        <ele>155.15234375</ele>
      </trkpt>
      <trkpt lat="46.01745" lon="0.29812">
        <ele>154.5625</ele>
      </trkpt>
      <trkpt lat="46.01735" lon="0.29804">
        <ele>153.81640625</ele>
      </trkpt>
      <trkpt lat="46.01725" lon="0.29796">
        <ele>153.21484375</ele>
      </trkpt>
      <trkpt lat="46.01714" lon="0.29789">
        <ele>152.64453125</ele>
      </trkpt>
      <trkpt lat="46.01705" lon="0.29783">
        <ele>152.28125</ele>
      </trkpt>
      <trkpt lat="46.01697" lon="0.29779">
        <ele>152.03515625</ele>
      </trkpt>
      <trkpt lat="46.01688" lon="0.29772">
        <ele>151.85546875</ele>
      </trkpt>
      <trkpt lat="46.01679" lon="0.29767">
        <ele>151.68359375</ele>
      </trkpt>
      <trkpt lat="46.01667" lon="0.29761">
        <ele>151.47265625</ele>
      </trkpt>
      <trkpt lat="46.01657" lon="0.29754">
        <ele>151.3671875</ele>
      </trkpt>
      <trkpt lat="46.01649" lon="0.2975">
        <ele>151.296875</ele>
      </trkpt>
      <trkpt lat="46.0164" lon="0.29746">
        <ele>151.265625</ele>
      </trkpt>
      <trkpt lat="46.01632" lon="0.29741">
        <ele>151.44140625</ele>
      </trkpt>
      <trkpt lat="46.01623" lon="0.29736">
        <ele>151.609375</ele>
      </trkpt>
      <trkpt lat="46.01606" lon="0.29727">
        <ele>151.8515625</ele>
      </trkpt>
      <trkpt lat="46.01595" lon="0.29719">
        <ele>151.94921875</ele>
      </trkpt>
      <trkpt lat="46.01587" lon="0.29714">
        <ele>151.9921875</ele>
      </trkpt>
      <trkpt lat="46.01578" lon="0.29707">
        <ele>152</ele>
      </trkpt>
      <trkpt lat="46.01568" lon="0.297">
        <ele>152</ele>
      </trkpt>
      <trkpt lat="46.01558" lon="0.29694">
        <ele>152</ele>
      </trkpt>
      <trkpt lat="46.01547" lon="0.29686">
        <ele>152</ele>
      </trkpt>
      <trkpt lat="46.01536" lon="0.29679">
        <ele>152</ele>
      </trkpt>
      <trkpt lat="46.0153" lon="0.29669">
        <ele>152</ele>
      </trkpt>
      <trkpt lat="46.01526" lon="0.29662">
        <ele>151.8828125</ele>
      </trkpt>
      <trkpt lat="46.01518" lon="0.29653">
        <ele>151.59375</ele>
      </trkpt>
      <trkpt lat="46.01506" lon="0.2965">
        <ele>151.14453125</ele>
      </trkpt>
      <trkpt lat="46.0149" lon="0.29648">
        <ele>150.546875</ele>
      </trkpt>
      <trkpt lat="46.01468" lon="0.29647">
        <ele>149.3046875</ele>
      </trkpt>
      <trkpt lat="46.01455" lon="0.29648">
        <ele>147.95703125</ele>
      </trkpt>
      <trkpt lat="46.01444" lon="0.2965">
        <ele>146.703125</ele>
      </trkpt>
      <trkpt lat="46.01432" lon="0.2965">
        <ele>145.38671875</ele>
      </trkpt>
      <trkpt lat="46.0142" lon="0.29651">
        <ele>144.125</ele>
      </trkpt>
      <trkpt lat="46.01407" lon="0.29652">
        <ele>142.78515625</ele>
      </trkpt>
      <trkpt lat="46.01396" lon="0.29652">
        <ele>141.5625</ele>
      </trkpt>
      <trkpt lat="46.01384" lon="0.29654">
        <ele>140.2109375</ele>
      </trkpt>
      <trkpt lat="46.0137" lon="0.29652">
        <ele>138.78515625</ele>
      </trkpt>
      <trkpt lat="46.01356" lon="0.2965">
        <ele>138.125</ele>
      </trkpt>
      <trkpt lat="46.01345" lon="0.29648">
        <ele>138.31640625</ele>
      </trkpt>
      <trkpt lat="46.01333" lon="0.29647">
        <ele>138.52734375</ele>
      </trkpt>
      <trkpt lat="46.01321" lon="0.29647">
        <ele>138.7109375</ele>
      </trkpt>
      <trkpt lat="46.01309" lon="0.29644">
        <ele>138.90625</ele>
      </trkpt>
      <trkpt lat="46.0129" lon="0.29642">
        <ele>140.3828125</ele>
      </trkpt>
      <trkpt lat="46.01275" lon="0.29636">
        <ele>141.59375</ele>
      </trkpt>
      <trkpt lat="46.01256" lon="0.29628">
        <ele>142.90234375</ele>
      </trkpt>
      <trkpt lat="46.01237" lon="0.29619">
        <ele>143.19921875</ele>
      </trkpt>
      <trkpt lat="46.0122" lon="0.2961">
        <ele>143.19921875</ele>
      </trkpt>
      <trkpt lat="46.012" lon="0.29605">
        <ele>143.35546875</ele>
      </trkpt>
      <trkpt lat="46.01183" lon="0.29596">
        <ele>143.09375</ele>
      </trkpt>
      <trkpt lat="46.0116" lon="0.29587">
        <ele>142.75390625</ele>
      </trkpt>
      <trkpt lat="46.0115" lon="0.29585">
        <ele>142.66796875</ele>
      </trkpt>
      <trkpt lat="46.01133" lon="0.29576">
        <ele>142.1953125</ele>
      </trkpt>
      <trkpt lat="46.01119" lon="0.29564">
        <ele>141.5625</ele>
      </trkpt>
      <trkpt lat="46.01107" lon="0.29553">
        <ele>141.21484375</ele>
      </trkpt>
      <trkpt lat="46.01097" lon="0.29545">
        <ele>141.0546875</ele>
      </trkpt>
      <trkpt lat="46.0109" lon="0.29539">
        <ele>141.00390625</ele>
      </trkpt>
      <trkpt lat="46.01072" lon="0.29524">
        <ele>139.65234375</ele>
      </trkpt>
      <trkpt lat="46.01062" lon="0.29515">
        <ele>138.83984375</ele>
      </trkpt>
      <trkpt lat="46.01056" lon="0.2951">
        <ele>138.37890625</ele>
      </trkpt>
      <trkpt lat="46.01045" lon="0.29501">
        <ele>137.71484375</ele>
      </trkpt>
      <trkpt lat="46.01037" lon="0.29492">
        <ele>137.2890625</ele>
      </trkpt>
      <trkpt lat="46.01035" lon="0.29475">
        <ele>137.0390625</ele>
      </trkpt>
      <trkpt lat="46.01033" lon="0.29457">
        <ele>136.64453125</ele>
      </trkpt>
      <trkpt lat="46.01033" lon="0.29448">
        <ele>136.4765625</ele>
      </trkpt>
      <trkpt lat="46.01033" lon="0.29431">
        <ele>136.16796875</ele>
      </trkpt>
      <trkpt lat="46.01033" lon="0.29419">
        <ele>136.1015625</ele>
      </trkpt>
      <trkpt lat="46.01033" lon="0.29407">
        <ele>136.0859375</ele>
      </trkpt>
      <trkpt lat="46.01032" lon="0.29391">
        <ele>136.04296875</ele>
      </trkpt>
      <trkpt lat="46.01031" lon="0.29377">
        <ele>136.02734375</ele>
      </trkpt>
      <trkpt lat="46.01029" lon="0.29373">
        <ele>135.9609375</ele>
      </trkpt>
      <trkpt lat="46.01021" lon="0.29371">
        <ele>135.66015625</ele>
      </trkpt>
      <trkpt lat="46.01002" lon="0.29372">
        <ele>135.00390625</ele>
      </trkpt>
      <trkpt lat="46.0099" lon="0.29376">
        <ele>134.640625</ele>
      </trkpt>
      <trkpt lat="46.00983" lon="0.29379">
        <ele>134.41015625</ele>
      </trkpt>
      <trkpt lat="46.0098" lon="0.29373">
        <ele>134.234375</ele>
      </trkpt>
      <trkpt lat="46.00983" lon="0.2937">
        <ele>134.3203125</ele>
      </trkpt>
      <trkpt lat="46.00986" lon="0.29364">
        <ele>134.49609375</ele>
      </trkpt>
      <trkpt lat="46.00991" lon="0.29352">
        <ele>134.72265625</ele>
      </trkpt>
      <trkpt lat="46.00992" lon="0.29345">
        <ele>134.80078125</ele>
      </trkpt>
      <trkpt lat="46.00992" lon="0.29336">
        <ele>134.85546875</ele>
      </trkpt>
      <trkpt lat="46.00992" lon="0.29331">
        <ele>134.8984375</ele>
      </trkpt>
      <trkpt lat="46.00997" lon="0.29318">
        <ele>134.98828125</ele>
      </trkpt>
      <trkpt lat="46.01001" lon="0.29305">
        <ele>135.18359375</ele>
      </trkpt>
      <trkpt lat="46.01007" lon="0.29284">
        <ele>135.5703125</ele>
      </trkpt>
      <trkpt lat="46.01017" lon="0.29257">
        <ele>136.09375</ele>
      </trkpt>
      <trkpt lat="46.01025" lon="0.29227">
        <ele>136.70703125</ele>
      </trkpt>
      <trkpt lat="46.01033" lon="0.29191">
        <ele>137.6796875</ele>
      </trkpt>
      <trkpt lat="46.01041" lon="0.29143">
        <ele>139.8125</ele>
      </trkpt>
      <trkpt lat="46.01051" lon="0.29114">
        <ele>140.28125</ele>
      </trkpt>
      <trkpt lat="46.01067" lon="0.29081">
        <ele>140.3125</ele>
      </trkpt>
      <trkpt lat="46.01084" lon="0.29042">
        <ele>140.04296875</ele>
      </trkpt>
      <trkpt lat="46.01088" lon="0.29031">
        <ele>140.203125</ele>
      </trkpt>
      <trkpt lat="46.01096" lon="0.29001">
        <ele>141.0078125</ele>
      </trkpt>
      <trkpt lat="46.01099" lon="0.28983">
        <ele>141.4765625</ele>
      </trkpt>
      <trkpt lat="46.01106" lon="0.28949">
        <ele>142.2421875</ele>
      </trkpt>
      <trkpt lat="46.01109" lon="0.28926">
        <ele>142.76171875</ele>
      </trkpt>
      <trkpt lat="46.01099" lon="0.28881">
        <ele>143.46875</ele>
      </trkpt>
      <trkpt lat="46.01088" lon="0.28852">
        <ele>144.25</ele>
      </trkpt>
      <trkpt lat="46.01078" lon="0.28816">
        <ele>145.4140625</ele>
      </trkpt>
      <trkpt lat="46.01066" lon="0.28777">
        <ele>146.07421875</ele>
      </trkpt>
      <trkpt lat="46.01062" lon="0.28763">
        <ele>146.29296875</ele>
      </trkpt>
      <trkpt lat="46.01059" lon="0.28745">
        <ele>146.84375</ele>
      </trkpt>
      <trkpt lat="46.01058" lon="0.28732">
        <ele>147.25390625</ele>
      </trkpt>
      <trkpt lat="46.01058" lon="0.28728">
        <ele>147.359375</ele>
      </trkpt>
      <trkpt lat="46.01059" lon="0.28713">
        <ele>147.7421875</ele>
      </trkpt>
      <trkpt lat="46.01059" lon="0.28699">
        <ele>148.0078125</ele>
      </trkpt>
      <trkpt lat="46.01063" lon="0.28674">
        <ele>148.14453125</ele>
      </trkpt>
      <trkpt lat="46.01066" lon="0.28655">
        <ele>148.28515625</ele>
      </trkpt>
      <trkpt lat="46.01071" lon="0.28637">
        <ele>148.4375</ele>
      </trkpt>
      <trkpt lat="46.01073" lon="0.28623">
        <ele>148.5859375</ele>
      </trkpt>
      <trkpt lat="46.01079" lon="0.28604">
        <ele>148.84375</ele>
      </trkpt>
      <trkpt lat="46.01085" lon="0.28586">
        <ele>149</ele>
      </trkpt>
      <trkpt lat="46.01091" lon="0.28572">
        <ele>148.8046875</ele>
      </trkpt>
      <trkpt lat="46.01096" lon="0.28558">
        <ele>148.62890625</ele>
      </trkpt>
      <trkpt lat="46.011" lon="0.28546">
        <ele>148.47265625</ele>
      </trkpt>
      <trkpt lat="46.01102" lon="0.28533">
        <ele>148.328125</ele>
      </trkpt>
      <trkpt lat="46.01104" lon="0.28519">
        <ele>147.96875</ele>
      </trkpt>
      <trkpt lat="46.01105" lon="0.2851">
        <ele>147.796875</ele>
      </trkpt>
      <trkpt lat="46.01103" lon="0.28501">
        <ele>147.6953125</ele>
      </trkpt>
      <trkpt lat="46.01101" lon="0.28486">
        <ele>147.5078125</ele>
      </trkpt>
      <trkpt lat="46.01099" lon="0.28471">
        <ele>147.53125</ele>
      </trkpt>
      <trkpt lat="46.01095" lon="0.28455">
        <ele>147.67578125</ele>
      </trkpt>
      <trkpt lat="46.01092" lon="0.28437">
        <ele>147.7734375</ele>
      </trkpt>
      <trkpt lat="46.01092" lon="0.28423">
        <ele>147.78515625</ele>
      </trkpt>
      <trkpt lat="46.01092" lon="0.28411">
        <ele>147.78515625</ele>
      </trkpt>
      <trkpt lat="46.01092" lon="0.28397">
        <ele>147.78515625</ele>
      </trkpt>
      <trkpt lat="46.01091" lon="0.28382">
        <ele>147.8046875</ele>
      </trkpt>
      <trkpt lat="46.01089" lon="0.28363">
        <ele>147.8671875</ele>
      </trkpt>
      <trkpt lat="46.01088" lon="0.28346">
        <ele>147.8984375</ele>
      </trkpt>
      <trkpt lat="46.01086" lon="0.28328">
        <ele>147.953125</ele>
      </trkpt>
      <trkpt lat="46.01085" lon="0.28314">
        <ele>148.0078125</ele>
      </trkpt>
      <trkpt lat="46.01084" lon="0.28306">
        <ele>148.02734375</ele>
      </trkpt>
      <trkpt lat="46.01082" lon="0.28289">
        <ele>148.06640625</ele>
      </trkpt>
      <trkpt lat="46.01077" lon="0.28272">
        <ele>148.15234375</ele>
      </trkpt>
      <trkpt lat="46.01074" lon="0.28253">
        <ele>148.20703125</ele>
      </trkpt>
      <trkpt lat="46.01071" lon="0.2824">
        <ele>148.2578125</ele>
      </trkpt>
      <trkpt lat="46.01068" lon="0.28221">
        <ele>148.32421875</ele>
      </trkpt>
      <trkpt lat="46.01064" lon="0.28209">
        <ele>148.3828125</ele>
      </trkpt>
      <trkpt lat="46.01055" lon="0.28186">
        <ele>148.7109375</ele>
      </trkpt>
      <trkpt lat="46.01048" lon="0.28172">
        <ele>148.87109375</ele>
      </trkpt>
      <trkpt lat="46.01042" lon="0.28157">
        <ele>148.96875</ele>
      </trkpt>
      <trkpt lat="46.01035" lon="0.28139">
        <ele>149.15625</ele>
      </trkpt>
      <trkpt lat="46.01027" lon="0.28126">
        <ele>149.42578125</ele>
      </trkpt>
      <trkpt lat="46.01021" lon="0.28108">
        <ele>149.75390625</ele>
      </trkpt>
      <trkpt lat="46.01012" lon="0.28087">
        <ele>150.04296875</ele>
      </trkpt>
      <trkpt lat="46.01005" lon="0.28071">
        <ele>150.1875</ele>
      </trkpt>
      <trkpt lat="46.00997" lon="0.28055">
        <ele>150.41015625</ele>
      </trkpt>
      <trkpt lat="46.00986" lon="0.28037">
        <ele>150.7890625</ele>
      </trkpt>
      <trkpt lat="46.00978" lon="0.28029">
        <ele>150.9296875</ele>
      </trkpt>
      <trkpt lat="46.00966" lon="0.28018">
        <ele>151.0546875</ele>
      </trkpt>
      <trkpt lat="46.00955" lon="0.2801">
        <ele>151.18359375</ele>
      </trkpt>
      <trkpt lat="46.00943" lon="0.28">
        <ele>151.38671875</ele>
      </trkpt>
      <trkpt lat="46.0093" lon="0.27992">
        <ele>151.6640625</ele>
      </trkpt>
      <trkpt lat="46.00918" lon="0.27983">
        <ele>151.99609375</ele>
      </trkpt>
      <trkpt lat="46.00907" lon="0.27975">
        <ele>152.0625</ele>
      </trkpt>
      <trkpt lat="46.00895" lon="0.27964">
        <ele>152.30859375</ele>
      </trkpt>
      <trkpt lat="46.00886" lon="0.27955">
        <ele>152.59765625</ele>
      </trkpt>
      <trkpt lat="46.00876" lon="0.27942">
        <ele>153.13671875</ele>
      </trkpt>
      <trkpt lat="46.00859" lon="0.27918">
        <ele>153.85546875</ele>
      </trkpt>
      <trkpt lat="46.00841" lon="0.27895">
        <ele>153.890625</ele>
      </trkpt>
      <trkpt lat="46.00833" lon="0.27888">
        <ele>154.06640625</ele>
      </trkpt>
      <trkpt lat="46.00817" lon="0.27873">
        <ele>154.66015625</ele>
      </trkpt>
      <trkpt lat="46.00801" lon="0.2786">
        <ele>154.9375</ele>
      </trkpt>
      <trkpt lat="46.00789" lon="0.27849">
        <ele>155.05859375</ele>
      </trkpt>
      <trkpt lat="46.00771" lon="0.27829">
        <ele>155.39453125</ele>
      </trkpt>
      <trkpt lat="46.00763" lon="0.27817">
        <ele>155.609375</ele>
      </trkpt>
      <trkpt lat="46.00752" lon="0.278">
        <ele>155.703125</ele>
      </trkpt>
      <trkpt lat="46.00744" lon="0.27787">
        <ele>155.546875</ele>
      </trkpt>
      <trkpt lat="46.00736" lon="0.27772">
        <ele>155.43359375</ele>
      </trkpt>
      <trkpt lat="46.00729" lon="0.27758">
        <ele>155.3203125</ele>
      </trkpt>
      <trkpt lat="46.00723" lon="0.27744">
        <ele>154.90625</ele>
      </trkpt>
      <trkpt lat="46.00718" lon="0.27731">
        <ele>154.5390625</ele>
      </trkpt>
      <trkpt lat="46.00713" lon="0.27718">
        <ele>154.16796875</ele>
      </trkpt>
      <trkpt lat="46.00704" lon="0.27705">
        <ele>153.85546875</ele>
      </trkpt>
      <trkpt lat="46.00697" lon="0.27692">
        <ele>153.76171875</ele>
      </trkpt>
      <trkpt lat="46.0069" lon="0.27684">
        <ele>153.66796875</ele>
      </trkpt>
      <trkpt lat="46.00676" lon="0.27668">
        <ele>153.57421875</ele>
      </trkpt>
      <trkpt lat="46.0067" lon="0.2766">
        <ele>153.57421875</ele>
      </trkpt>
      <trkpt lat="46.00657" lon="0.27641">
        <ele>153.55859375</ele>
      </trkpt>
      <trkpt lat="46.00648" lon="0.2763">
        <ele>153.50390625</ele>
      </trkpt>
      <trkpt lat="46.0064" lon="0.27617">
        <ele>153.43359375</ele>
      </trkpt>
      <trkpt lat="46.0063" lon="0.27601">
        <ele>153.2890625</ele>
      </trkpt>
      <trkpt lat="46.00622" lon="0.27586">
        <ele>153.20703125</ele>
      </trkpt>
      <trkpt lat="46.00612" lon="0.27572">
        <ele>153.12890625</ele>
      </trkpt>
      <trkpt lat="46.00605" lon="0.27559">
        <ele>153.00390625</ele>
      </trkpt>
      <trkpt lat="46.00595" lon="0.27541">
        <ele>152.87890625</ele>
      </trkpt>
      <trkpt lat="46.00587" lon="0.27529">
        <ele>152.80078125</ele>
      </trkpt>
      <trkpt lat="46.00578" lon="0.27514">
        <ele>152.484375</ele>
      </trkpt>
      <trkpt lat="46.00573" lon="0.27506">
        <ele>152.2734375</ele>
      </trkpt>
      <trkpt lat="46.00573" lon="0.27503">
        <ele>152.20703125</ele>
      </trkpt>
      <trkpt lat="46.00574" lon="0.27499">
        <ele>152.140625</ele>
      </trkpt>
      <trkpt lat="46.00577" lon="0.27492">
        <ele>152.0234375</ele>
      </trkpt>
      <trkpt lat="46.00578" lon="0.27483">
        <ele>151.8515625</ele>
      </trkpt>
      <trkpt lat="46.00577" lon="0.27473">
        <ele>151.65234375</ele>
      </trkpt>
      <trkpt lat="46.0058" lon="0.27456">
        <ele>151.41015625</ele>
      </trkpt>
      <trkpt lat="46.00581" lon="0.27434">
        <ele>151.0234375</ele>
      </trkpt>
      <trkpt lat="46.00583" lon="0.27414">
        <ele>151.1875</ele>
      </trkpt>
      <trkpt lat="46.00584" lon="0.27397">
        <ele>151.5234375</ele>
      </trkpt>
      <trkpt lat="46.00585" lon="0.27383">
        <ele>151.79296875</ele>
      </trkpt>
      <trkpt lat="46.00587" lon="0.27369">
        <ele>151.97265625</ele>
      </trkpt>
      <trkpt lat="46.00589" lon="0.27353">
        <ele>151.875</ele>
      </trkpt>
      <trkpt lat="46.00592" lon="0.27336">
        <ele>151.7734375</ele>
      </trkpt>
      <trkpt lat="46.00594" lon="0.27315">
        <ele>151.7578125</ele>
      </trkpt>
      <trkpt lat="46.00598" lon="0.27291">
        <ele>152.1171875</ele>
      </trkpt>
      <trkpt lat="46.00601" lon="0.27276">
        <ele>152.3984375</ele>
      </trkpt>
      <trkpt lat="46.00605" lon="0.27256">
        <ele>152.75</ele>
      </trkpt>
      <trkpt lat="46.00609" lon="0.27238">
        <ele>153.015625</ele>
      </trkpt>
      <trkpt lat="46.00612" lon="0.27221">
        <ele>153.25390625</ele>
      </trkpt>
      <trkpt lat="46.00615" lon="0.27203">
        <ele>153.59765625</ele>
      </trkpt>
      <trkpt lat="46.0062" lon="0.27185">
        <ele>154.34765625</ele>
      </trkpt>
      <trkpt lat="46.00623" lon="0.27169">
        <ele>155.09765625</ele>
      </trkpt>
      <trkpt lat="46.00627" lon="0.27148">
        <ele>156.07421875</ele>
      </trkpt>
      <trkpt lat="46.00629" lon="0.27127">
        <ele>156.83984375</ele>
      </trkpt>
      <trkpt lat="46.00631" lon="0.27105">
        <ele>157.609375</ele>
      </trkpt>
      <trkpt lat="46.00633" lon="0.27085">
        <ele>158.31640625</ele>
      </trkpt>
      <trkpt lat="46.00636" lon="0.27062">
        <ele>159.109375</ele>
      </trkpt>
      <trkpt lat="46.00639" lon="0.27041">
        <ele>159.890625</ele>
      </trkpt>
      <trkpt lat="46.00641" lon="0.27025">
        <ele>160.25</ele>
      </trkpt>
      <trkpt lat="46.00644" lon="0.27007">
        <ele>160.57421875</ele>
      </trkpt>
      <trkpt lat="46.00647" lon="0.26989">
        <ele>160.91015625</ele>
      </trkpt>
      <trkpt lat="46.0065" lon="0.26969">
        <ele>161.21875</ele>
      </trkpt>
      <trkpt lat="46.00653" lon="0.26954">
        <ele>161.42578125</ele>
      </trkpt>
      <trkpt lat="46.00656" lon="0.2694">
        <ele>161.58203125</ele>
      </trkpt>
      <trkpt lat="46.00654" lon="0.26937">
        <ele>161.65234375</ele>
      </trkpt>
      <trkpt lat="46.0065" lon="0.26929">
        <ele>161.828125</ele>
      </trkpt>
      <trkpt lat="46.00646" lon="0.26918">
        <ele>161.91796875</ele>
      </trkpt>
      <trkpt lat="46.00634" lon="0.26892">
        <ele>162.1328125</ele>
      </trkpt>
      <trkpt lat="46.00622" lon="0.26875">
        <ele>162.35546875</ele>
      </trkpt>
      <trkpt lat="46.0061" lon="0.2686">
        <ele>162.56640625</ele>
      </trkpt>
      <trkpt lat="46.00602" lon="0.26847">
        <ele>162.703125</ele>
      </trkpt>
      <trkpt lat="46.00589" lon="0.2682">
        <ele>162.9375</ele>
      </trkpt>
      <trkpt lat="46.00584" lon="0.26813">
        <ele>162.89453125</ele>
      </trkpt>
      <trkpt lat="46.00577" lon="0.26805">
        <ele>162.62890625</ele>
      </trkpt>
      <trkpt lat="46.0057" lon="0.26796">
        <ele>162.33203125</ele>
      </trkpt>
      <trkpt lat="46.0056" lon="0.26785">
        <ele>161.94921875</ele>
      </trkpt>
      <trkpt lat="46.00552" lon="0.26774">
        <ele>161.625</ele>
      </trkpt>
      <trkpt lat="46.00543" lon="0.26757">
        <ele>161.13671875</ele>
      </trkpt>
      <trkpt lat="46.00533" lon="0.26739">
        <ele>160.6328125</ele>
      </trkpt>
      <trkpt lat="46.00524" lon="0.26721">
        <ele>159.9453125</ele>
      </trkpt>
      <trkpt lat="46.00519" lon="0.26713">
        <ele>159.51953125</ele>
      </trkpt>
      <trkpt lat="46.00512" lon="0.26706">
        <ele>159.0234375</ele>
      </trkpt>
      <trkpt lat="46.00506" lon="0.26702">
        <ele>158.71484375</ele>
      </trkpt>
      <trkpt lat="46.00502" lon="0.26696">
        <ele>158.54296875</ele>
      </trkpt>
      <trkpt lat="46.00493" lon="0.26682">
        <ele>158.28515625</ele>
      </trkpt>
      <trkpt lat="46.00476" lon="0.26652">
        <ele>158.02734375</ele>
      </trkpt>
      <trkpt lat="46.00465" lon="0.26629">
        <ele>157.3828125</ele>
      </trkpt>
      <trkpt lat="46.00458" lon="0.26615">
        <ele>157</ele>
      </trkpt>
      <trkpt lat="46.00453" lon="0.26609">
        <ele>156.7109375</ele>
      </trkpt>
      <trkpt lat="46.00445" lon="0.26597">
        <ele>156.39453125</ele>
      </trkpt>
      <trkpt lat="46.00435" lon="0.26585">
        <ele>155.765625</ele>
      </trkpt>
      <trkpt lat="46.00426" lon="0.26575">
        <ele>155.27734375</ele>
      </trkpt>
      <trkpt lat="46.0042" lon="0.26567">
        <ele>155.015625</ele>
      </trkpt>
      <trkpt lat="46.00409" lon="0.26553">
        <ele>154.2578125</ele>
      </trkpt>
      <trkpt lat="46.00401" lon="0.26546">
        <ele>153.6953125</ele>
      </trkpt>
      <trkpt lat="46.00393" lon="0.26537">
        <ele>153.05078125</ele>
      </trkpt>
      <trkpt lat="46.00383" lon="0.26533">
        <ele>152.27734375</ele>
      </trkpt>
      <trkpt lat="46.00376" lon="0.26525">
        <ele>151.78515625</ele>
      </trkpt>
      <trkpt lat="46.00375" lon="0.26516">
        <ele>151.6328125</ele>
      </trkpt>
      <trkpt lat="46.00363" lon="0.26501">
        <ele>150.9375</ele>
      </trkpt>
      <trkpt lat="46.00356" lon="0.26486">
        <ele>150.421875</ele>
      </trkpt>
      <trkpt lat="46.00343" lon="0.26482">
        <ele>149.48046875</ele>
      </trkpt>
      <trkpt lat="46.00341" lon="0.26477">
        <ele>149.18359375</ele>
      </trkpt>
      <trkpt lat="46.00339" lon="0.26464">
        <ele>148.83203125</ele>
      </trkpt>
      <trkpt lat="46.00334" lon="0.2645">
        <ele>148.30078125</ele>
      </trkpt>
      <trkpt lat="46.00324" lon="0.26433">
        <ele>147.63671875</ele>
      </trkpt>
      <trkpt lat="46.00311" lon="0.26415">
        <ele>146.85546875</ele>
      </trkpt>
      <trkpt lat="46.00298" lon="0.26401">
        <ele>145.859375</ele>
      </trkpt>
      <trkpt lat="46.00287" lon="0.26391">
        <ele>145.0859375</ele>
      </trkpt>
      <trkpt lat="46.00278" lon="0.26383">
        <ele>144.45703125</ele>
      </trkpt>
      <trkpt lat="46.00267" lon="0.2638">
        <ele>143.80078125</ele>
      </trkpt>
      <trkpt lat="46.00257" lon="0.26374">
        <ele>143.22265625</ele>
      </trkpt>
      <trkpt lat="46.00248" lon="0.26374">
        <ele>142.58984375</ele>
      </trkpt>
      <trkpt lat="46.0024" lon="0.26376">
        <ele>141.81640625</ele>
      </trkpt>
      <trkpt lat="46.00227" lon="0.26377">
        <ele>140.72265625</ele>
      </trkpt>
      <trkpt lat="46.00208" lon="0.26371">
        <ele>139.00390625</ele>
      </trkpt>
      <trkpt lat="46.00188" lon="0.26359">
        <ele>137.3046875</ele>
      </trkpt>
      <trkpt lat="46.00176" lon="0.26353">
        <ele>136.44921875</ele>
      </trkpt>
      <trkpt lat="46.00164" lon="0.26347">
        <ele>135.63671875</ele>
      </trkpt>
      <trkpt lat="46.00153" lon="0.2634">
        <ele>134.78125</ele>
      </trkpt>
      <trkpt lat="46.00139" lon="0.26333">
        <ele>133.84375</ele>
      </trkpt>
      <trkpt lat="46.00126" lon="0.26326">
        <ele>133.171875</ele>
      </trkpt>
      <trkpt lat="46.00113" lon="0.26318">
        <ele>132.46875</ele>
      </trkpt>
      <trkpt lat="46.00103" lon="0.26309">
        <ele>131.921875</ele>
      </trkpt>
      <trkpt lat="46.00095" lon="0.26298">
        <ele>131.45703125</ele>
      </trkpt>
      <trkpt lat="46.00086" lon="0.26291">
        <ele>130.9765625</ele>
      </trkpt>
      <trkpt lat="46.00079" lon="0.26285">
        <ele>130.62890625</ele>
      </trkpt>
      <trkpt lat="46.00073" lon="0.26278">
        <ele>130.2890625</ele>
      </trkpt>
      <trkpt lat="46.00065" lon="0.26263">
        <ele>129.83984375</ele>
      </trkpt>
      <trkpt lat="46.00051" lon="0.26245">
        <ele>129.12890625</ele>
      </trkpt>
      <trkpt lat="46.00035" lon="0.26224">
        <ele>128.21484375</ele>
      </trkpt>
      <trkpt lat="46.00025" lon="0.26216">
        <ele>127.73828125</ele>
      </trkpt>
      <trkpt lat="46.00013" lon="0.26207">
        <ele>127.0703125</ele>
      </trkpt>
      <trkpt lat="46.00007" lon="0.26201">
        <ele>126.6953125</ele>
      </trkpt>
      <trkpt lat="45.99998" lon="0.26195">
        <ele>126.21875</ele>
      </trkpt>
      <trkpt lat="45.99992" lon="0.2619">
        <ele>125.93359375</ele>
      </trkpt>
      <trkpt lat="45.9998" lon="0.26183">
        <ele>125.26171875</ele>
      </trkpt>
      <trkpt lat="45.99972" lon="0.26176">
        <ele>124.91015625</ele>
      </trkpt>
      <trkpt lat="45.99964" lon="0.26168">
        <ele>124.6640625</ele>
      </trkpt>
      <trkpt lat="45.99955" lon="0.2616">
        <ele>124.33984375</ele>
      </trkpt>
      <trkpt lat="45.99944" lon="0.26149">
        <ele>123.84375</ele>
      </trkpt>
      <trkpt lat="45.99935" lon="0.26138">
        <ele>123.16015625</ele>
      </trkpt>
      <trkpt lat="45.99925" lon="0.26127">
        <ele>122.375</ele>
      </trkpt>
      <trkpt lat="45.99914" lon="0.26113">
        <ele>121.64453125</ele>
      </trkpt>
      <trkpt lat="45.99905" lon="0.26097">
        <ele>121.0546875</ele>
      </trkpt>
      <trkpt lat="45.99901" lon="0.26087">
        <ele>120.9453125</ele>
      </trkpt>
      <trkpt lat="45.99895" lon="0.26077">
        <ele>120.8515625</ele>
      </trkpt>
      <trkpt lat="45.9989" lon="0.26065">
        <ele>120.703125</ele>
      </trkpt>
      <trkpt lat="45.99883" lon="0.26054">
        <ele>120.5078125</ele>
      </trkpt>
      <trkpt lat="45.99874" lon="0.26037">
        <ele>120.08984375</ele>
      </trkpt>
      <trkpt lat="45.99866" lon="0.26029">
        <ele>119.6640625</ele>
      </trkpt>
      <trkpt lat="45.99858" lon="0.26025">
        <ele>119.5703125</ele>
      </trkpt>
      <trkpt lat="45.99848" lon="0.26016">
        <ele>119.453125</ele>
      </trkpt>
      <trkpt lat="45.99839" lon="0.26009">
        <ele>119.33984375</ele>
      </trkpt>
      <trkpt lat="45.9983" lon="0.26001">
        <ele>119.22265625</ele>
      </trkpt>
      <trkpt lat="45.99817" lon="0.25995">
        <ele>119.25390625</ele>
      </trkpt>
      <trkpt lat="45.99806" lon="0.25989">
        <ele>119.20703125</ele>
      </trkpt>
      <trkpt lat="45.99795" lon="0.25984">
        <ele>119.21484375</ele>
      </trkpt>
      <trkpt lat="45.99787" lon="0.25977">
        <ele>119.171875</ele>
      </trkpt>
      <trkpt lat="45.99773" lon="0.25972">
        <ele>119.33203125</ele>
      </trkpt>
      <trkpt lat="45.9976" lon="0.25968">
        <ele>119.54296875</ele>
      </trkpt>
      <trkpt lat="45.99751" lon="0.25968">
        <ele>119.72265625</ele>
      </trkpt>
      <trkpt lat="45.99743" lon="0.25967">
        <ele>119.75</ele>
      </trkpt>
      <trkpt lat="45.99734" lon="0.25967">
        <ele>119.79296875</ele>
      </trkpt>
      <trkpt lat="45.99724" lon="0.25966">
        <ele>119.84375</ele>
      </trkpt>
      <trkpt lat="45.99711" lon="0.25963">
        <ele>119.90625</ele>
      </trkpt>
      <trkpt lat="45.99699" lon="0.2596">
        <ele>119.984375</ele>
      </trkpt>
      <trkpt lat="45.99687" lon="0.25958">
        <ele>119.80859375</ele>
      </trkpt>
      <trkpt lat="45.99675" lon="0.25955">
        <ele>119.6015625</ele>
      </trkpt>
      <trkpt lat="45.99663" lon="0.25951">
        <ele>119.375</ele>
      </trkpt>
      <trkpt lat="45.9965" lon="0.25949">
        <ele>119.1484375</ele>
      </trkpt>
      <trkpt lat="45.99644" lon="0.25949">
        <ele>119.0390625</ele>
      </trkpt>
      <trkpt lat="45.99625" lon="0.25944">
        <ele>118.6953125</ele>
      </trkpt>
      <trkpt lat="45.99607" lon="0.2594">
        <ele>118.375</ele>
      </trkpt>
      <trkpt lat="45.99583" lon="0.25932">
        <ele>117.99609375</ele>
      </trkpt>
      <trkpt lat="45.99568" lon="0.25927">
        <ele>118</ele>
      </trkpt>
      <trkpt lat="45.99547" lon="0.25915">
        <ele>118</ele>
      </trkpt>
      <trkpt lat="45.99526" lon="0.25901">
        <ele>117.90625</ele>
      </trkpt>
      <trkpt lat="45.99509" lon="0.25885">
        <ele>117.82421875</ele>
      </trkpt>
      <trkpt lat="45.99498" lon="0.25877">
        <ele>117.91796875</ele>
      </trkpt>
      <trkpt lat="45.99487" lon="0.25867">
        <ele>117.9765625</ele>
      </trkpt>
      <trkpt lat="45.99472" lon="0.25849">
        <ele>117.9140625</ele>
      </trkpt>
      <trkpt lat="45.99461" lon="0.25838">
        <ele>117.64453125</ele>
      </trkpt>
      <trkpt lat="45.99449" lon="0.25824">
        <ele>117.46484375</ele>
      </trkpt>
      <trkpt lat="45.99443" lon="0.25817">
        <ele>117.4140625</ele>
      </trkpt>
      <trkpt lat="45.9943" lon="0.25798">
        <ele>117.1171875</ele>
      </trkpt>
      <trkpt lat="45.99418" lon="0.2578">
        <ele>116.96484375</ele>
      </trkpt>
      <trkpt lat="45.9941" lon="0.25766">
        <ele>116.8203125</ele>
      </trkpt>
      <trkpt lat="45.99402" lon="0.25756">
        <ele>116.53125</ele>
      </trkpt>
      <trkpt lat="45.99387" lon="0.25736">
        <ele>116.0234375</ele>
      </trkpt>
      <trkpt lat="45.99373" lon="0.25719">
        <ele>115.91015625</ele>
      </trkpt>
      <trkpt lat="45.99363" lon="0.25707">
        <ele>115.98046875</ele>
      </trkpt>
      <trkpt lat="45.99348" lon="0.25689">
        <ele>115.265625</ele>
      </trkpt>
      <trkpt lat="45.9934" lon="0.2568">
        <ele>115.02734375</ele>
      </trkpt>
      <trkpt lat="45.99324" lon="0.25664">
        <ele>114.85546875</ele>
      </trkpt>
      <trkpt lat="45.99288" lon="0.25625">
        <ele>114.3359375</ele>
      </trkpt>
      <trkpt lat="45.99264" lon="0.25599">
        <ele>114.01171875</ele>
      </trkpt>
      <trkpt lat="45.99247" lon="0.25579">
        <ele>113.625</ele>
      </trkpt>
      <trkpt lat="45.9924" lon="0.25576">
        <ele>113.484375</ele>
      </trkpt>
      <trkpt lat="45.99229" lon="0.25575">
        <ele>113.35546875</ele>
      </trkpt>
      <trkpt lat="45.99217" lon="0.25579">
        <ele>113.2421875</ele>
      </trkpt>
      <trkpt lat="45.99208" lon="0.25582">
        <ele>113.1328125</ele>
      </trkpt>
      <trkpt lat="45.9918" lon="0.25589">
        <ele>112.37890625</ele>
      </trkpt>
      <trkpt lat="45.9915" lon="0.25598">
        <ele>111.21484375</ele>
      </trkpt>
      <trkpt lat="45.99114" lon="0.25608">
        <ele>109.75390625</ele>
      </trkpt>
      <trkpt lat="45.99088" lon="0.25617">
        <ele>108.66796875</ele>
      </trkpt>
      <trkpt lat="45.99063" lon="0.25629">
        <ele>107.71875</ele>
      </trkpt>
      <trkpt lat="45.99043" lon="0.25637">
        <ele>106.88671875</ele>
      </trkpt>
      <trkpt lat="45.99014" lon="0.25647">
        <ele>105.515625</ele>
      </trkpt>
      <trkpt lat="45.98985" lon="0.25656">
        <ele>104.140625</ele>
      </trkpt>
      <trkpt lat="45.98948" lon="0.25665">
        <ele>101.96484375</ele>
      </trkpt>
      <trkpt lat="45.98917" lon="0.25674">
        <ele>99.96484375</ele>
      </trkpt>
      <trkpt lat="45.98886" lon="0.25678">
        <ele>97.89453125</ele>
      </trkpt>
      <trkpt lat="45.98876" lon="0.25679">
        <ele>97.23046875</ele>
      </trkpt>
      <trkpt lat="45.98868" lon="0.25681">
        <ele>96.67578125</ele>
      </trkpt>
      <trkpt lat="45.98862" lon="0.25684">
        <ele>96.34375</ele>
      </trkpt>
      <trkpt lat="45.98839" lon="0.25706">
        <ele>95.5390625</ele>
      </trkpt>
      <trkpt lat="45.98822" lon="0.25726">
        <ele>95.4921875</ele>
      </trkpt>
      <trkpt lat="45.98804" lon="0.25748">
        <ele>95.80859375</ele>
      </trkpt>
      <trkpt lat="45.98781" lon="0.2576">
        <ele>96.453125</ele>
      </trkpt>
      <trkpt lat="45.98761" lon="0.25771">
        <ele>97.171875</ele>
      </trkpt>
      <trkpt lat="45.98743" lon="0.25781">
        <ele>98.19921875</ele>
      </trkpt>
      <trkpt lat="45.98728" lon="0.2579">
        <ele>99.14453125</ele>
      </trkpt>
      <trkpt lat="45.98714" lon="0.25798">
        <ele>99.96875</ele>
      </trkpt>
      <trkpt lat="45.98689" lon="0.25811">
        <ele>101.19140625</ele>
      </trkpt>
      <trkpt lat="45.98654" lon="0.2583">
        <ele>102.77734375</ele>
      </trkpt>
      <trkpt lat="45.98619" lon="0.2585">
        <ele>104.19140625</ele>
      </trkpt>
      <trkpt lat="45.98586" lon="0.25866">
        <ele>105.015625</ele>
      </trkpt>
      <trkpt lat="45.98569" lon="0.25875">
        <ele>105.35546875</ele>
      </trkpt>
      <trkpt lat="45.98556" lon="0.25881">
        <ele>105.69921875</ele>
      </trkpt>
      <trkpt lat="45.98523" lon="0.25896">
        <ele>106.66015625</ele>
      </trkpt>
      <trkpt lat="45.98491" lon="0.25908">
        <ele>107.62109375</ele>
      </trkpt>
      <trkpt lat="45.98452" lon="0.25929">
        <ele>107.56640625</ele>
      </trkpt>
      <trkpt lat="45.98429" lon="0.25946">
        <ele>106.84765625</ele>
      </trkpt>
      <trkpt lat="45.98404" lon="0.25959">
        <ele>105.85546875</ele>
      </trkpt>
      <trkpt lat="45.98371" lon="0.25963">
        <ele>104.609375</ele>
      </trkpt>
      <trkpt lat="45.98352" lon="0.25968">
        <ele>103.66796875</ele>
      </trkpt>
      <trkpt lat="45.98324" lon="0.25973">
        <ele>102.16015625</ele>
      </trkpt>
      <trkpt lat="45.98287" lon="0.25979">
        <ele>100.75</ele>
      </trkpt>
      <trkpt lat="45.98248" lon="0.25986">
        <ele>99.62890625</ele>
      </trkpt>
      <trkpt lat="45.98198" lon="0.25993">
        <ele>97.15234375</ele>
      </trkpt>
      <trkpt lat="45.98185" lon="0.25993">
        <ele>97.20703125</ele>
      </trkpt>
      <trkpt lat="45.98161" lon="0.25994">
        <ele>97.2890625</ele>
      </trkpt>
      <trkpt lat="45.98079" lon="0.26004">
        <ele>98.046875</ele>
      </trkpt>
      <trkpt lat="45.9804" lon="0.25989">
        <ele>97.24609375</ele>
      </trkpt>
      <trkpt lat="45.97998" lon="0.25966">
        <ele>96.9609375</ele>
      </trkpt>
      <trkpt lat="45.97973" lon="0.2595">
        <ele>96.828125</ele>
      </trkpt>
      <trkpt lat="45.97948" lon="0.25927">
        <ele>96.46875</ele>
      </trkpt>
      <trkpt lat="45.97909" lon="0.25884">
        <ele>95.54296875</ele>
      </trkpt>
      <trkpt lat="45.97885" lon="0.25853">
        <ele>95.64453125</ele>
      </trkpt>
      <trkpt lat="45.97865" lon="0.25821">
        <ele>96.01953125</ele>
      </trkpt>
      <trkpt lat="45.97854" lon="0.258">
        <ele>96.71484375</ele>
      </trkpt>
      <trkpt lat="45.97847" lon="0.25782">
        <ele>97.31640625</ele>
      </trkpt>
      <trkpt lat="45.97846" lon="0.25778">
        <ele>97.42578125</ele>
      </trkpt>
      <trkpt lat="45.97842" lon="0.25772">
        <ele>97.640625</ele>
      </trkpt>
      <trkpt lat="45.97836" lon="0.2577">
        <ele>97.9140625</ele>
      </trkpt>
      <trkpt lat="45.97828" lon="0.25766">
        <ele>98.29296875</ele>
      </trkpt>
      <trkpt lat="45.9781" lon="0.25766">
        <ele>98.93359375</ele>
      </trkpt>
      <trkpt lat="45.97778" lon="0.25762">
        <ele>100.15625</ele>
      </trkpt>
      <trkpt lat="45.97745" lon="0.25755">
        <ele>101.4375</ele>
      </trkpt>
      <trkpt lat="45.97716" lon="0.25752">
        <ele>102.44921875</ele>
      </trkpt>
      <trkpt lat="45.97679" lon="0.25747">
        <ele>103.4453125</ele>
      </trkpt>
      <trkpt lat="45.97651" lon="0.25746">
        <ele>104.125</ele>
      </trkpt>
      <trkpt lat="45.97632" lon="0.25736">
        <ele>104.7890625</ele>
      </trkpt>
      <trkpt lat="45.97631" lon="0.2572">
        <ele>105.03125</ele>
      </trkpt>
      <trkpt lat="45.9763" lon="0.2571">
        <ele>105.18359375</ele>
      </trkpt>
      <trkpt lat="45.97634" lon="0.25686">
        <ele>105.171875</ele>
      </trkpt>
      <trkpt lat="45.97635" lon="0.25654">
        <ele>105.140625</ele>
      </trkpt>
      <trkpt lat="45.97639" lon="0.25599">
        <ele>105.078125</ele>
      </trkpt>
      <trkpt lat="45.97643" lon="0.25545">
        <ele>105</ele>
      </trkpt>
      <trkpt lat="45.97648" lon="0.25484">
        <ele>104.81640625</ele>
      </trkpt>
      <trkpt lat="45.97652" lon="0.25411">
        <ele>103.5625</ele>
      </trkpt>
      <trkpt lat="45.97657" lon="0.25356">
        <ele>103</ele>
      </trkpt>
      <trkpt lat="45.97661" lon="0.2532">
        <ele>103</ele>
      </trkpt>
      <trkpt lat="45.97671" lon="0.25291">
        <ele>102.7578125</ele>
      </trkpt>
      <trkpt lat="45.97676" lon="0.25277">
        <ele>102.56640625</ele>
      </trkpt>
      <trkpt lat="45.97679" lon="0.2527">
        <ele>102.4453125</ele>
      </trkpt>
      <trkpt lat="45.9768" lon="0.25264">
        <ele>102.35546875</ele>
      </trkpt>
      <trkpt lat="45.97679" lon="0.25256">
        <ele>102.3828125</ele>
      </trkpt>
      <trkpt lat="45.97677" lon="0.2525">
        <ele>102.43359375</ele>
      </trkpt>
      <trkpt lat="45.97672" lon="0.25243">
        <ele>102.4921875</ele>
      </trkpt>
      <trkpt lat="45.97667" lon="0.25241">
        <ele>102.515625</ele>
      </trkpt>
      <trkpt lat="45.9766" lon="0.25242">
        <ele>102.546875</ele>
      </trkpt>
      <trkpt lat="45.97655" lon="0.25245">
        <ele>102.60546875</ele>
      </trkpt>
      <trkpt lat="45.97646" lon="0.25254">
        <ele>102.8046875</ele>
      </trkpt>
      <trkpt lat="45.97641" lon="0.25262">
        <ele>102.99609375</ele>
      </trkpt>
      <trkpt lat="45.97637" lon="0.25268">
        <ele>103</ele>
      </trkpt>
      <trkpt lat="45.97634" lon="0.25276">
        <ele>103</ele>
      </trkpt>
      <trkpt lat="45.97633" lon="0.25266">
        <ele>103</ele>
      </trkpt>
      <trkpt lat="45.97633" lon="0.25253">
        <ele>102.8046875</ele>
      </trkpt>
      <trkpt lat="45.97632" lon="0.25219">
        <ele>102.05859375</ele>
      </trkpt>
      <trkpt lat="45.97635" lon="0.25186">
        <ele>101.46484375</ele>
      </trkpt>
      <trkpt lat="45.9764" lon="0.25144">
        <ele>100.8125</ele>
      </trkpt>
      <trkpt lat="45.97653" lon="0.25089">
        <ele>100.05078125</ele>
      </trkpt>
      <trkpt lat="45.9766" lon="0.25037">
        <ele>99.2578125</ele>
      </trkpt>
      <trkpt lat="45.97662" lon="0.24997">
        <ele>98.828125</ele>
      </trkpt>
      <trkpt lat="45.97664" lon="0.24947">
        <ele>99.00390625</ele>
      </trkpt>
      <trkpt lat="45.97664" lon="0.24924">
        <ele>99.109375</ele>
      </trkpt>
      <trkpt lat="45.97664" lon="0.24911">
        <ele>99.109375</ele>
      </trkpt>
      <trkpt lat="45.9766" lon="0.24899">
        <ele>98.90625</ele>
      </trkpt>
      <trkpt lat="45.97655" lon="0.2489">
        <ele>98.61328125</ele>
      </trkpt>
      <trkpt lat="45.97639" lon="0.24879">
        <ele>97.84765625</ele>
      </trkpt>
      <trkpt lat="45.97631" lon="0.24875">
        <ele>97.56640625</ele>
      </trkpt>
      <trkpt lat="45.97623" lon="0.2487">
        <ele>97.30859375</ele>
      </trkpt>
      <trkpt lat="45.97615" lon="0.24863">
        <ele>97.08984375</ele>
      </trkpt>
      <trkpt lat="45.97606" lon="0.24853">
        <ele>96.7734375</ele>
      </trkpt>
      <trkpt lat="45.97597" lon="0.24844">
        <ele>96.40625</ele>
      </trkpt>
      <trkpt lat="45.97589" lon="0.24837">
        <ele>96.04296875</ele>
      </trkpt>
      <trkpt lat="45.97578" lon="0.24825">
        <ele>95.83203125</ele>
      </trkpt>
      <trkpt lat="45.97569" lon="0.24813">
        <ele>95.51953125</ele>
      </trkpt>
      <trkpt lat="45.97558" lon="0.24798">
        <ele>94.90234375</ele>
      </trkpt>
      <trkpt lat="45.97539" lon="0.24774">
        <ele>93.625</ele>
      </trkpt>
      <trkpt lat="45.97529" lon="0.24747">
        <ele>92.67578125</ele>
      </trkpt>
      <trkpt lat="45.97524" lon="0.24684">
        <ele>91.0703125</ele>
      </trkpt>
      <trkpt lat="45.97515" lon="0.24618">
        <ele>89.8125</ele>
      </trkpt>
      <trkpt lat="45.97505" lon="0.24572">
        <ele>89.7265625</ele>
      </trkpt>
      <trkpt lat="45.97493" lon="0.24527">
        <ele>89.828125</ele>
      </trkpt>
      <trkpt lat="45.97483" lon="0.24478">
        <ele>90.2578125</ele>
      </trkpt>
      <trkpt lat="45.97478" lon="0.2442">
        <ele>90.1015625</ele>
      </trkpt>
      <trkpt lat="45.97482" lon="0.24356">
        <ele>90.2578125</ele>
      </trkpt>
      <trkpt lat="45.97485" lon="0.24298">
        <ele>90.30859375</ele>
      </trkpt>
      <trkpt lat="45.97487" lon="0.24272">
        <ele>90.37890625</ele>
      </trkpt>
      <trkpt lat="45.9749" lon="0.24263">
        <ele>90.46484375</ele>
      </trkpt>
      <trkpt lat="45.97491" lon="0.24258">
        <ele>90.51171875</ele>
      </trkpt>
      <trkpt lat="45.97491" lon="0.24231">
        <ele>90.5234375</ele>
      </trkpt>
      <trkpt lat="45.9749" lon="0.24212">
        <ele>90.46484375</ele>
      </trkpt>
      <trkpt lat="45.9749" lon="0.24197">
        <ele>90.2421875</ele>
      </trkpt>
      <trkpt lat="45.97489" lon="0.24181">
        <ele>89.85546875</ele>
      </trkpt>
      <trkpt lat="45.97486" lon="0.24167">
        <ele>89.4921875</ele>
      </trkpt>
      <trkpt lat="45.97483" lon="0.2415">
        <ele>89.046875</ele>
      </trkpt>
      <trkpt lat="45.97476" lon="0.24133">
        <ele>88.26953125</ele>
      </trkpt>
      <trkpt lat="45.97469" lon="0.24126">
        <ele>87.8203125</ele>
      </trkpt>
      <trkpt lat="45.97464" lon="0.24119">
        <ele>87.37109375</ele>
      </trkpt>
      <trkpt lat="45.97457" lon="0.24114">
        <ele>86.95703125</ele>
      </trkpt>
      <trkpt lat="45.97452" lon="0.24108">
        <ele>86.52734375</ele>
      </trkpt>
      <trkpt lat="45.97454" lon="0.24086">
        <ele>85.43359375</ele>
      </trkpt>
      <trkpt lat="45.97458" lon="0.24079">
        <ele>85.046875</ele>
      </trkpt>
      <trkpt lat="45.97492" lon="0.24058">
        <ele>84.6796875</ele>
      </trkpt>
      <trkpt lat="45.97522" lon="0.24044">
        <ele>84.79296875</ele>
      </trkpt>
      <trkpt lat="45.97543" lon="0.24033">
        <ele>84.5390625</ele>
      </trkpt>
      <trkpt lat="45.97571" lon="0.24022">
        <ele>84.484375</ele>
      </trkpt>
      <trkpt lat="45.97596" lon="0.23996">
        <ele>83.64453125</ele>
      </trkpt>
      <trkpt lat="45.97622" lon="0.23965">
        <ele>82.390625</ele>
      </trkpt>
      <trkpt lat="45.97651" lon="0.23935">
        <ele>81.2421875</ele>
      </trkpt>
      <trkpt lat="45.97678" lon="0.23908">
        <ele>80.078125</ele>
      </trkpt>
      <trkpt lat="45.97704" lon="0.23883">
        <ele>79.28125</ele>
      </trkpt>
      <trkpt lat="45.97723" lon="0.23867">
        <ele>78.78125</ele>
      </trkpt>
      <trkpt lat="45.97747" lon="0.23868">
        <ele>78.86328125</ele>
      </trkpt>
      <trkpt lat="45.97755" lon="0.2387">
        <ele>78.9140625</ele>
      </trkpt>
      <trkpt lat="45.97764" lon="0.23869">
        <ele>78.91796875</ele>
      </trkpt>
      <trkpt lat="45.97771" lon="0.23867">
        <ele>78.90625</ele>
      </trkpt>
      <trkpt lat="45.97776" lon="0.23866">
        <ele>78.90625</ele>
      </trkpt>
      <trkpt lat="45.97781" lon="0.23862">
        <ele>78.88671875</ele>
      </trkpt>
      <trkpt lat="45.97784" lon="0.23857">
        <ele>78.85546875</ele>
      </trkpt>
      <trkpt lat="45.97787" lon="0.23853">
        <ele>78.83984375</ele>
      </trkpt>
      <trkpt lat="45.97788" lon="0.23846">
        <ele>78.80078125</ele>
      </trkpt>
      <trkpt lat="45.9779" lon="0.23826">
        <ele>78.69140625</ele>
      </trkpt>
      <trkpt lat="45.97792" lon="0.23798">
        <ele>78.30078125</ele>
      </trkpt>
      <trkpt lat="45.97794" lon="0.23769">
        <ele>77.80859375</ele>
      </trkpt>
      <trkpt lat="45.97805" lon="0.23726">
        <ele>77.8671875</ele>
      </trkpt>
      <trkpt lat="45.97829" lon="0.23683">
        <ele>77.45703125</ele>
      </trkpt>
      <trkpt lat="45.97847" lon="0.23664">
        <ele>77.09375</ele>
      </trkpt>
      <trkpt lat="45.97881" lon="0.23633">
        <ele>76.58984375</ele>
      </trkpt>
      <trkpt lat="45.97919" lon="0.23604">
        <ele>76.23046875</ele>
      </trkpt>
      <trkpt lat="45.97946" lon="0.23582">
        <ele>75.734375</ele>
      </trkpt>
      <trkpt lat="45.97979" lon="0.23555">
        <ele>75.25</ele>
      </trkpt>
      <trkpt lat="45.98015" lon="0.23525">
        <ele>75</ele>
      </trkpt>
      <trkpt lat="45.98051" lon="0.23499">
        <ele>75</ele>
      </trkpt>
      <trkpt lat="45.9809" lon="0.23475">
        <ele>75.04296875</ele>
      </trkpt>
      <trkpt lat="45.98118" lon="0.23463">
        <ele>75.32421875</ele>
      </trkpt>
      <trkpt lat="45.98123" lon="0.23458">
        <ele>75.3203125</ele>
      </trkpt>
      <trkpt lat="45.98128" lon="0.23358">
        <ele>75</ele>
      </trkpt>
      <trkpt lat="45.9813" lon="0.23311">
        <ele>75</ele>
      </trkpt>
      <trkpt lat="45.98127" lon="0.23212">
        <ele>75</ele>
      </trkpt>
      <trkpt lat="45.98122" lon="0.23145">
        <ele>76.25</ele>
      </trkpt>
      <trkpt lat="45.98121" lon="0.23125">
        <ele>77.4765625</ele>
      </trkpt>
      <trkpt lat="45.98133" lon="0.23112">
        <ele>77.66796875</ele>
      </trkpt>
      <trkpt lat="45.98146" lon="0.23097">
        <ele>78.0859375</ele>
      </trkpt>
      <trkpt lat="45.9816" lon="0.2307">
        <ele>80.51953125</ele>
      </trkpt>
      <trkpt lat="45.98167" lon="0.23061">
        <ele>81.62890625</ele>
      </trkpt>
      <trkpt lat="45.98181" lon="0.2308">
        <ele>80.8984375</ele>
      </trkpt>
      <trkpt lat="45.98191" lon="0.2309">
        <ele>80.421875</ele>
      </trkpt>
      <trkpt lat="45.98199" lon="0.23096">
        <ele>80.17578125</ele>
      </trkpt>
      <trkpt lat="45.98203" lon="0.23091">
        <ele>80.8125</ele>
      </trkpt>
      <trkpt lat="45.98206" lon="0.23062">
        <ele>84.265625</ele>
      </trkpt>
      <trkpt lat="45.98214" lon="0.23043">
        <ele>87</ele>
      </trkpt>
      <trkpt lat="45.98242" lon="0.23014">
        <ele>89.8515625</ele>
      </trkpt>
      <trkpt lat="45.98271" lon="0.22982">
        <ele>93.3046875</ele>
      </trkpt>
      <trkpt lat="45.98273" lon="0.2298">
        <ele>93.3359375</ele>
      </trkpt>
      <trkpt lat="45.98272" lon="0.22976">
        <ele>93.02734375</ele>
      </trkpt>
      <trkpt lat="45.98258" lon="0.2295">
        <ele>89.88671875</ele>
      </trkpt>
      <trkpt lat="45.98279" lon="0.22922">
        <ele>91.29296875</ele>
      </trkpt>
      <trkpt lat="45.98286" lon="0.22912">
        <ele>92.203125</ele>
      </trkpt>
      <trkpt lat="45.98289" lon="0.22904">
        <ele>92.55078125</ele>
      </trkpt>
      <trkpt lat="45.9829" lon="0.22895">
        <ele>92.734375</ele>
      </trkpt>
      <trkpt lat="45.98292" lon="0.2288">
        <ele>93.125</ele>
      </trkpt>
      <trkpt lat="45.98293" lon="0.2286">
        <ele>93.31640625</ele>
      </trkpt>
      <trkpt lat="45.98292" lon="0.22778">
        <ele>93.68359375</ele>
      </trkpt>
      <trkpt lat="45.98296" lon="0.22743">
        <ele>94.203125</ele>
      </trkpt>
      <trkpt lat="45.98306" lon="0.22694">
        <ele>94.65234375</ele>
      </trkpt>
      <trkpt lat="45.98312" lon="0.22672">
        <ele>94.4765625</ele>
      </trkpt>
      <trkpt lat="45.98315" lon="0.22649">
        <ele>94.30859375</ele>
      </trkpt>
      <trkpt lat="45.9832" lon="0.22611">
        <ele>94.15625</ele>
      </trkpt>
      <trkpt lat="45.98326" lon="0.22577">
        <ele>94.33984375</ele>
      </trkpt>
      <trkpt lat="45.98331" lon="0.22551">
        <ele>94.6328125</ele>
      </trkpt>
      <trkpt lat="45.98335" lon="0.22531">
        <ele>94.78515625</ele>
      </trkpt>
      <trkpt lat="45.98345" lon="0.225">
        <ele>95.0625</ele>
      </trkpt>
      <trkpt lat="45.98348" lon="0.22486">
        <ele>95.06640625</ele>
      </trkpt>
      <trkpt lat="45.98352" lon="0.22468">
        <ele>95.0703125</ele>
      </trkpt>
      <trkpt lat="45.98353" lon="0.22456">
        <ele>94.94140625</ele>
      </trkpt>
      <trkpt lat="45.98352" lon="0.22448">
        <ele>94.765625</ele>
      </trkpt>
      <trkpt lat="45.98346" lon="0.22435">
        <ele>94.359375</ele>
      </trkpt>
      <trkpt lat="45.98335" lon="0.22431">
        <ele>93.93359375</ele>
      </trkpt>
      <trkpt lat="45.9832" lon="0.22435">
        <ele>93.40625</ele>
      </trkpt>
      <trkpt lat="45.98307" lon="0.22445">
        <ele>93.23046875</ele>
      </trkpt>
      <trkpt lat="45.98292" lon="0.22461">
        <ele>94.67578125</ele>
      </trkpt>
      <trkpt lat="45.98282" lon="0.22472">
        <ele>95.61328125</ele>
      </trkpt>
      <trkpt lat="45.98277" lon="0.22475">
        <ele>96.015625</ele>
      </trkpt>
      <trkpt lat="45.98271" lon="0.22477">
        <ele>96.57421875</ele>
      </trkpt>
      <trkpt lat="45.98263" lon="0.22475">
        <ele>97.34375</ele>
      </trkpt>
      <trkpt lat="45.98256" lon="0.22474">
        <ele>97.99609375</ele>
      </trkpt>
      <trkpt lat="45.98253" lon="0.22466">
        <ele>98.41015625</ele>
      </trkpt>
      <trkpt lat="45.9825" lon="0.22459">
        <ele>98.734375</ele>
      </trkpt>
      <trkpt lat="45.9825" lon="0.2246">
        <ele>98.703125</ele>
      </trkpt>
      <trkpt lat="45.98244" lon="0.22439">
        <ele>99.3984375</ele>
      </trkpt>
      <trkpt lat="45.98242" lon="0.22426">
        <ele>99.58203125</ele>
      </trkpt>
      <trkpt lat="45.98242" lon="0.22413">
        <ele>99.375</ele>
      </trkpt>
      <trkpt lat="45.98245" lon="0.22396">
        <ele>98.96484375</ele>
      </trkpt>
      <trkpt lat="45.98255" lon="0.22369">
        <ele>97.828125</ele>
      </trkpt>
      <trkpt lat="45.9827" lon="0.22322">
        <ele>96.16015625</ele>
      </trkpt>
      <trkpt lat="45.98285" lon="0.22276">
        <ele>95.06640625</ele>
      </trkpt>
      <trkpt lat="45.98302" lon="0.22233">
        <ele>95</ele>
      </trkpt>
      <trkpt lat="45.98273" lon="0.22201">
        <ele>95</ele>
      </trkpt>
      <trkpt lat="45.98244" lon="0.22167">
        <ele>95.04296875</ele>
      </trkpt>
      <trkpt lat="45.98191" lon="0.22117">
        <ele>95.69921875</ele>
      </trkpt>
      <trkpt lat="45.98105" lon="0.22036">
        <ele>97.12109375</ele>
      </trkpt>
      <trkpt lat="45.9803" lon="0.21976">
        <ele>99</ele>
      </trkpt>
      <trkpt lat="45.98003" lon="0.21948">
        <ele>99</ele>
      </trkpt>
      <trkpt lat="45.97926" lon="0.21872">
        <ele>99.96484375</ele>
      </trkpt>
      <trkpt lat="45.9787" lon="0.21813">
        <ele>101.265625</ele>
      </trkpt>
      <trkpt lat="45.97795" lon="0.21756">
        <ele>102.66796875</ele>
      </trkpt>
      <trkpt lat="45.9774" lon="0.21716">
        <ele>104.37890625</ele>
      </trkpt>
      <trkpt lat="45.97685" lon="0.21676">
        <ele>106.64453125</ele>
      </trkpt>
      <trkpt lat="45.97627" lon="0.2165">
        <ele>109.63671875</ele>
      </trkpt>
      <trkpt lat="45.97582" lon="0.21636">
        <ele>111.03125</ele>
      </trkpt>
      <trkpt lat="45.97509" lon="0.21624">
        <ele>111.12109375</ele>
      </trkpt>
      <trkpt lat="45.97481" lon="0.21557">
        <ele>111.0703125</ele>
      </trkpt>
      <trkpt lat="45.97424" lon="0.21434">
        <ele>109.08984375</ele>
      </trkpt>
      <trkpt lat="45.97397" lon="0.21376">
        <ele>108.1171875</ele>
      </trkpt>
      <trkpt lat="45.97344" lon="0.21245">
        <ele>104.06640625</ele>
      </trkpt>
      <trkpt lat="45.97323" lon="0.2119">
        <ele>102.671875</ele>
      </trkpt>
      <trkpt lat="45.97304" lon="0.21145">
        <ele>101.828125</ele>
      </trkpt>
      <trkpt lat="45.9728" lon="0.21104">
        <ele>100.7734375</ele>
      </trkpt>
      <trkpt lat="45.97259" lon="0.21064">
        <ele>99.953125</ele>
      </trkpt>
      <trkpt lat="45.97239" lon="0.21011">
        <ele>98.87890625</ele>
      </trkpt>
      <trkpt lat="45.97197" lon="0.20897">
        <ele>96.203125</ele>
      </trkpt>
      <trkpt lat="45.97154" lon="0.2078">
        <ele>92.76953125</ele>
      </trkpt>
      <trkpt lat="45.97113" lon="0.20694">
        <ele>88.5078125</ele>
      </trkpt>
      <trkpt lat="45.97099" lon="0.20663">
        <ele>86.9765625</ele>
      </trkpt>
      <trkpt lat="45.97085" lon="0.20629">
        <ele>86.359375</ele>
      </trkpt>
      <trkpt lat="45.97073" lon="0.20598">
        <ele>86.45703125</ele>
      </trkpt>
      <trkpt lat="45.97069" lon="0.20586">
        <ele>86.3203125</ele>
      </trkpt>
      <trkpt lat="45.97066" lon="0.20579">
        <ele>86.21484375</ele>
      </trkpt>
      <trkpt lat="45.97064" lon="0.20571">
        <ele>86.125</ele>
      </trkpt>
      <trkpt lat="45.97054" lon="0.20541">
        <ele>85.77734375</ele>
      </trkpt>
      <trkpt lat="45.97046" lon="0.20511">
        <ele>85.64453125</ele>
      </trkpt>
      <trkpt lat="45.97034" lon="0.20458">
        <ele>86.5</ele>
      </trkpt>
      <trkpt lat="45.9708" lon="0.20446">
        <ele>85.8984375</ele>
      </trkpt>
      <trkpt lat="45.97123" lon="0.20437">
        <ele>86.5390625</ele>
      </trkpt>
      <trkpt lat="45.97125" lon="0.2043">
        <ele>86.78125</ele>
      </trkpt>
      <trkpt lat="45.97124" lon="0.20417">
        <ele>87.53515625</ele>
      </trkpt>
      <trkpt lat="45.97118" lon="0.20375">
        <ele>89.71875</ele>
      </trkpt>
      <trkpt lat="45.97113" lon="0.20351">
        <ele>90.76953125</ele>
      </trkpt>
      <trkpt lat="45.97096" lon="0.20295">
        <ele>93.09765625</ele>
      </trkpt>
      <trkpt lat="45.97089" lon="0.20271">
        <ele>93.82421875</ele>
      </trkpt>
      <trkpt lat="45.97149" lon="0.20263">
        <ele>94.88671875</ele>
      </trkpt>
      <trkpt lat="45.97235" lon="0.20252">
        <ele>92.76171875</ele>
      </trkpt>
      <trkpt lat="45.97332" lon="0.20245">
        <ele>95.40234375</ele>
      </trkpt>
      <trkpt lat="45.97435" lon="0.20229">
        <ele>94.5703125</ele>
      </trkpt>
      <trkpt lat="45.97467" lon="0.20225">
        <ele>92.97265625</ele>
      </trkpt>
      <trkpt lat="45.9751" lon="0.20207">
        <ele>92.47265625</ele>
      </trkpt>
      <trkpt lat="45.97555" lon="0.202">
        <ele>92.51953125</ele>
      </trkpt>
      <trkpt lat="45.97566" lon="0.20192">
        <ele>92.734375</ele>
      </trkpt>
      <trkpt lat="45.97565" lon="0.20174">
        <ele>92.85546875</ele>
      </trkpt>
      <trkpt lat="45.97563" lon="0.20154">
        <ele>93.015625</ele>
      </trkpt>
      <trkpt lat="45.97556" lon="0.20115">
        <ele>93.7109375</ele>
      </trkpt>
      <trkpt lat="45.97551" lon="0.20075">
        <ele>94.43359375</ele>
      </trkpt>
      <trkpt lat="45.97546" lon="0.2003">
        <ele>95.18359375</ele>
      </trkpt>
      <trkpt lat="45.97536" lon="0.19985">
        <ele>95.98046875</ele>
      </trkpt>
      <trkpt lat="45.97528" lon="0.19923">
        <ele>97.4140625</ele>
      </trkpt>
      <trkpt lat="45.97523" lon="0.19882">
        <ele>98.39453125</ele>
      </trkpt>
      <trkpt lat="45.9752" lon="0.19842">
        <ele>99.78125</ele>
      </trkpt>
      <trkpt lat="45.97516" lon="0.198">
        <ele>101.21484375</ele>
      </trkpt>
      <trkpt lat="45.97506" lon="0.19751">
        <ele>102.4609375</ele>
      </trkpt>
      <trkpt lat="45.97495" lon="0.19701">
        <ele>102.8359375</ele>
      </trkpt>
      <trkpt lat="45.97479" lon="0.19639">
        <ele>103.96875</ele>
      </trkpt>
      <trkpt lat="45.97464" lon="0.19589">
        <ele>104</ele>
      </trkpt>
      <trkpt lat="45.97445" lon="0.19514">
        <ele>104</ele>
      </trkpt>
      <trkpt lat="45.97435" lon="0.19471">
        <ele>104.07421875</ele>
      </trkpt>
      <trkpt lat="45.97423" lon="0.19424">
        <ele>104.02734375</ele>
      </trkpt>
      <trkpt lat="45.9742" lon="0.19381">
        <ele>103.97265625</ele>
      </trkpt>
      <trkpt lat="45.97412" lon="0.1933">
        <ele>103.83203125</ele>
      </trkpt>
      <trkpt lat="45.97407" lon="0.19267">
        <ele>104.73046875</ele>
      </trkpt>
      <trkpt lat="45.97403" lon="0.19195">
        <ele>104.94921875</ele>
      </trkpt>
      <trkpt lat="45.97402" lon="0.19142">
        <ele>105.734375</ele>
      </trkpt>
      <trkpt lat="45.97401" lon="0.19079">
        <ele>106.375</ele>
      </trkpt>
      <trkpt lat="45.97405" lon="0.19006">
        <ele>107.68359375</ele>
      </trkpt>
      <trkpt lat="45.97403" lon="0.18943">
        <ele>108.81640625</ele>
      </trkpt>
      <trkpt lat="45.97407" lon="0.18896">
        <ele>109.16796875</ele>
      </trkpt>
      <trkpt lat="45.97413" lon="0.18844">
        <ele>110.27734375</ele>
      </trkpt>
      <trkpt lat="45.97426" lon="0.18771">
        <ele>110.9921875</ele>
      </trkpt>
      <trkpt lat="45.97428" lon="0.1874">
        <ele>111.46875</ele>
      </trkpt>
      <trkpt lat="45.97418" lon="0.18694">
        <ele>112.625</ele>
      </trkpt>
      <trkpt lat="45.97398" lon="0.18634">
        <ele>114.37890625</ele>
      </trkpt>
      <trkpt lat="45.97384" lon="0.18576">
        <ele>115</ele>
      </trkpt>
      <trkpt lat="45.97369" lon="0.18523">
        <ele>115.37890625</ele>
      </trkpt>
      <trkpt lat="45.97369" lon="0.18478">
        <ele>116.18359375</ele>
      </trkpt>
      <trkpt lat="45.97372" lon="0.18434">
        <ele>116.98046875</ele>
      </trkpt>
      <trkpt lat="45.97384" lon="0.18402">
        <ele>117.5546875</ele>
      </trkpt>
      <trkpt lat="45.97398" lon="0.18367">
        <ele>118.375</ele>
      </trkpt>
      <trkpt lat="45.97411" lon="0.18318">
        <ele>120.0703125</ele>
      </trkpt>
      <trkpt lat="45.97415" lon="0.18291">
        <ele>120.5546875</ele>
      </trkpt>
      <trkpt lat="45.9741" lon="0.18239">
        <ele>121.60546875</ele>
      </trkpt>
      <trkpt lat="45.97405" lon="0.18178">
        <ele>123.47265625</ele>
      </trkpt>
      <trkpt lat="45.97397" lon="0.18122">
        <ele>125.38671875</ele>
      </trkpt>
      <trkpt lat="45.97391" lon="0.18063">
        <ele>126.36328125</ele>
      </trkpt>
      <trkpt lat="45.97388" lon="0.18012">
        <ele>127.421875</ele>
      </trkpt>
      <trkpt lat="45.97387" lon="0.17952">
        <ele>128</ele>
      </trkpt>
      <trkpt lat="45.97386" lon="0.17911">
        <ele>128.80078125</ele>
      </trkpt>
      <trkpt lat="45.97432" lon="0.17924">
        <ele>128.3515625</ele>
      </trkpt>
      <trkpt lat="45.97466" lon="0.17931">
        <ele>128.109375</ele>
      </trkpt>
      <trkpt lat="45.9751" lon="0.17934">
        <ele>127.39453125</ele>
      </trkpt>
      <trkpt lat="45.97539" lon="0.17946">
        <ele>126.78125</ele>
      </trkpt>
      <trkpt lat="45.97569" lon="0.17957">
        <ele>126.5703125</ele>
      </trkpt>
      <trkpt lat="45.97604" lon="0.17975">
        <ele>126.4765625</ele>
      </trkpt>
      <trkpt lat="45.97647" lon="0.1799">
        <ele>126.9921875</ele>
      </trkpt>
      <trkpt lat="45.97685" lon="0.18006">
        <ele>126.69921875</ele>
      </trkpt>
      <trkpt lat="45.97715" lon="0.18011">
        <ele>126.6015625</ele>
      </trkpt>
      <trkpt lat="45.97764" lon="0.18006">
        <ele>126.8671875</ele>
      </trkpt>
      <trkpt lat="45.97795" lon="0.18009">
        <ele>127.359375</ele>
      </trkpt>
      <trkpt lat="45.97828" lon="0.18013">
        <ele>128.03125</ele>
      </trkpt>
      <trkpt lat="45.97859" lon="0.1801">
        <ele>128.83984375</ele>
      </trkpt>
      <trkpt lat="45.97889" lon="0.18006">
        <ele>129.42578125</ele>
      </trkpt>
      <trkpt lat="45.97919" lon="0.18004">
        <ele>129.96484375</ele>
      </trkpt>
      <trkpt lat="45.97948" lon="0.18">
        <ele>129.90625</ele>
      </trkpt>
      <trkpt lat="45.97977" lon="0.17996">
        <ele>129.859375</ele>
      </trkpt>
      <trkpt lat="45.97995" lon="0.17996">
        <ele>129.54296875</ele>
      </trkpt>
      <trkpt lat="45.98019" lon="0.18">
        <ele>129.04296875</ele>
      </trkpt>
      <trkpt lat="45.98052" lon="0.18015">
        <ele>127.2734375</ele>
      </trkpt>
      <trkpt lat="45.98085" lon="0.18032">
        <ele>125.1484375</ele>
      </trkpt>
      <trkpt lat="45.98117" lon="0.18049">
        <ele>123.4140625</ele>
      </trkpt>
      <trkpt lat="45.98161" lon="0.18077">
        <ele>121.33984375</ele>
      </trkpt>
      <trkpt lat="45.98203" lon="0.18106">
        <ele>119.4296875</ele>
      </trkpt>
      <trkpt lat="45.98229" lon="0.18134">
        <ele>116.84375</ele>
      </trkpt>
      <trkpt lat="45.98252" lon="0.18159">
        <ele>114.91796875</ele>
      </trkpt>
      <trkpt lat="45.98284" lon="0.18184">
        <ele>113.44140625</ele>
      </trkpt>
      <trkpt lat="45.98313" lon="0.18208">
        <ele>112.12109375</ele>
      </trkpt>
      <trkpt lat="45.98343" lon="0.18226">
        <ele>111.46484375</ele>
      </trkpt>
      <trkpt lat="45.98369" lon="0.1824">
        <ele>110.8984375</ele>
      </trkpt>
      <trkpt lat="45.98397" lon="0.18249">
        <ele>110.0546875</ele>
      </trkpt>
      <trkpt lat="45.98423" lon="0.18265">
        <ele>108.96875</ele>
      </trkpt>
      <trkpt lat="45.98451" lon="0.18284">
        <ele>107.296875</ele>
      </trkpt>
      <trkpt lat="45.98464" lon="0.18299">
        <ele>106.23828125</ele>
      </trkpt>
      <trkpt lat="45.98479" lon="0.1831">
        <ele>105.43359375</ele>
      </trkpt>
      <trkpt lat="45.98507" lon="0.18332">
        <ele>105.1953125</ele>
      </trkpt>
      <trkpt lat="45.98546" lon="0.18348">
        <ele>106.58984375</ele>
      </trkpt>
      <trkpt lat="45.98578" lon="0.18356">
        <ele>108.38671875</ele>
      </trkpt>
      <trkpt lat="45.98619" lon="0.18359">
        <ele>111.65234375</ele>
      </trkpt>
      <trkpt lat="45.98651" lon="0.18362">
        <ele>114.2421875</ele>
      </trkpt>
      <trkpt lat="45.98679" lon="0.1836">
        <ele>115.2265625</ele>
      </trkpt>
      <trkpt lat="45.98702" lon="0.18377">
        <ele>117.11328125</ele>
      </trkpt>
      <trkpt lat="45.98712" lon="0.1839">
        <ele>118.15234375</ele>
      </trkpt>
      <trkpt lat="45.98726" lon="0.18403">
        <ele>119.35546875</ele>
      </trkpt>
      <trkpt lat="45.9875" lon="0.1843">
        <ele>121.72265625</ele>
      </trkpt>
      <trkpt lat="45.98783" lon="0.18459">
        <ele>124.44921875</ele>
      </trkpt>
      <trkpt lat="45.98831" lon="0.18489">
        <ele>127.76171875</ele>
      </trkpt>
      <trkpt lat="45.98858" lon="0.18505">
        <ele>129.3203125</ele>
      </trkpt>
      <trkpt lat="45.98892" lon="0.18527">
        <ele>131.34765625</ele>
      </trkpt>
      <trkpt lat="45.98924" lon="0.18548">
        <ele>132.99609375</ele>
      </trkpt>
      <trkpt lat="45.9896" lon="0.18572">
        <ele>132.78515625</ele>
      </trkpt>
      <trkpt lat="45.98994" lon="0.1859">
        <ele>131.76953125</ele>
      </trkpt>
      <trkpt lat="45.99036" lon="0.18617">
        <ele>130.06640625</ele>
      </trkpt>
      <trkpt lat="45.99065" lon="0.18633">
        <ele>128.76953125</ele>
      </trkpt>
      <trkpt lat="45.99076" lon="0.1863">
        <ele>128.140625</ele>
      </trkpt>
      <trkpt lat="45.9908" lon="0.18611">
        <ele>127.58203125</ele>
      </trkpt>
      <trkpt lat="45.99085" lon="0.18589">
        <ele>126.703125</ele>
      </trkpt>
      <trkpt lat="45.99102" lon="0.18593">
        <ele>126.25</ele>
      </trkpt>
      <trkpt lat="45.99124" lon="0.18605">
        <ele>125.765625</ele>
      </trkpt>
      <trkpt lat="45.99159" lon="0.1863">
        <ele>126.1484375</ele>
      </trkpt>
      <trkpt lat="45.99196" lon="0.18654">
        <ele>127.90234375</ele>
      </trkpt>
      <trkpt lat="45.99235" lon="0.18682">
        <ele>129.671875</ele>
      </trkpt>
      <trkpt lat="45.99273" lon="0.18713">
        <ele>131.72265625</ele>
      </trkpt>
      <trkpt lat="45.99326" lon="0.18754">
        <ele>133.6328125</ele>
      </trkpt>
      <trkpt lat="45.99375" lon="0.18793">
        <ele>134.91015625</ele>
      </trkpt>
      <trkpt lat="45.99415" lon="0.1883">
        <ele>135.5390625</ele>
      </trkpt>
      <trkpt lat="45.99428" lon="0.18849">
        <ele>135.0859375</ele>
      </trkpt>
      <trkpt lat="45.99452" lon="0.18878">
        <ele>134.5703125</ele>
      </trkpt>
      <trkpt lat="45.99484" lon="0.1891">
        <ele>133.74609375</ele>
      </trkpt>
      <trkpt lat="45.99512" lon="0.18935">
        <ele>132.30859375</ele>
      </trkpt>
      <trkpt lat="45.99539" lon="0.18961">
        <ele>131.71484375</ele>
      </trkpt>
      <trkpt lat="45.99577" lon="0.18973">
        <ele>132.70703125</ele>
      </trkpt>
      <trkpt lat="45.99605" lon="0.18991">
        <ele>134.0078125</ele>
      </trkpt>
      <trkpt lat="45.99634" lon="0.1901">
        <ele>135.8984375</ele>
      </trkpt>
      <trkpt lat="45.9966" lon="0.19028">
        <ele>137.6640625</ele>
      </trkpt>
      <trkpt lat="45.99692" lon="0.19054">
        <ele>139.6796875</ele>
      </trkpt>
      <trkpt lat="45.99718" lon="0.1907">
        <ele>141.109375</ele>
      </trkpt>
      <trkpt lat="45.99749" lon="0.19094">
        <ele>142.80859375</ele>
      </trkpt>
      <trkpt lat="45.99779" lon="0.19112">
        <ele>144.19140625</ele>
      </trkpt>
      <trkpt lat="45.998" lon="0.1911">
        <ele>145.34375</ele>
      </trkpt>
      <trkpt lat="45.99828" lon="0.19103">
        <ele>146.95703125</ele>
      </trkpt>
      <trkpt lat="45.99864" lon="0.19096">
        <ele>149.05859375</ele>
      </trkpt>
      <trkpt lat="45.9989" lon="0.19094">
        <ele>150.9375</ele>
      </trkpt>
      <trkpt lat="45.99926" lon="0.19091">
        <ele>153.51953125</ele>
      </trkpt>
      <trkpt lat="45.99955" lon="0.19086">
        <ele>155.3046875</ele>
      </trkpt>
      <trkpt lat="45.99988" lon="0.19079">
        <ele>156.9765625</ele>
      </trkpt>
      <trkpt lat="46.00024" lon="0.19071">
        <ele>157.921875</ele>
      </trkpt>
      <trkpt lat="46.00041" lon="0.19071">
        <ele>157.7421875</ele>
      </trkpt>
      <trkpt lat="46.00079" lon="0.19087">
        <ele>156.3828125</ele>
      </trkpt>
      <trkpt lat="46.00102" lon="0.19097">
        <ele>154.8828125</ele>
      </trkpt>
      <trkpt lat="46.00144" lon="0.19108">
        <ele>151.65234375</ele>
      </trkpt>
      <trkpt lat="46.00175" lon="0.19115">
        <ele>148.7265625</ele>
      </trkpt>
      <trkpt lat="46.00211" lon="0.19125">
        <ele>145.6640625</ele>
      </trkpt>
      <trkpt lat="46.00242" lon="0.19133">
        <ele>143.66796875</ele>
      </trkpt>
      <trkpt lat="46.00278" lon="0.19142">
        <ele>141.85546875</ele>
      </trkpt>
      <trkpt lat="46.00308" lon="0.19149">
        <ele>140.22265625</ele>
      </trkpt>
      <trkpt lat="46.00337" lon="0.19153">
        <ele>139.0078125</ele>
      </trkpt>
      <trkpt lat="46.00358" lon="0.19151">
        <ele>138.3046875</ele>
      </trkpt>
      <trkpt lat="46.00354" lon="0.19139">
        <ele>138.7109375</ele>
      </trkpt>
      <trkpt lat="46.0034" lon="0.19112">
        <ele>139.984375</ele>
      </trkpt>
      <trkpt lat="46.00321" lon="0.19071">
        <ele>141.43359375</ele>
      </trkpt>
      <trkpt lat="46.00312" lon="0.19035">
        <ele>141.54296875</ele>
      </trkpt>
      <trkpt lat="46.00307" lon="0.18999">
        <ele>140.41015625</ele>
      </trkpt>
      <trkpt lat="46.00303" lon="0.18964">
        <ele>139.71484375</ele>
      </trkpt>
      <trkpt lat="46.00298" lon="0.18935">
        <ele>139.21875</ele>
      </trkpt>
      <trkpt lat="46.00283" lon="0.1889">
        <ele>138.31640625</ele>
      </trkpt>
      <trkpt lat="46.00267" lon="0.18882">
        <ele>138.13671875</ele>
      </trkpt>
      <trkpt lat="46.00241" lon="0.18875">
        <ele>138.5703125</ele>
      </trkpt>
      <trkpt lat="46.00235" lon="0.18863">
        <ele>138.62890625</ele>
      </trkpt>
      <trkpt lat="46.0023" lon="0.18836">
        <ele>138.171875</ele>
      </trkpt>
      <trkpt lat="46.00225" lon="0.18802">
        <ele>137.265625</ele>
      </trkpt>
      <trkpt lat="46.00213" lon="0.18771">
        <ele>136.59375</ele>
      </trkpt>
      <trkpt lat="46.00187" lon="0.18739">
        <ele>136.94140625</ele>
      </trkpt>
      <trkpt lat="46.00178" lon="0.18717">
        <ele>136.96875</ele>
      </trkpt>
      <trkpt lat="46.00162" lon="0.18672">
        <ele>137.953125</ele>
      </trkpt>
      <trkpt lat="46.00143" lon="0.18614">
        <ele>139.71875</ele>
      </trkpt>
      <trkpt lat="46.00125" lon="0.18613">
        <ele>140.50390625</ele>
      </trkpt>
      <trkpt lat="46.00104" lon="0.18612">
        <ele>141.41796875</ele>
      </trkpt>
      <trkpt lat="46.00073" lon="0.18602">
        <ele>142.73046875</ele>
      </trkpt>
      <trkpt lat="46.00045" lon="0.18591">
        <ele>144.2578125</ele>
      </trkpt>
      <trkpt lat="46.00051" lon="0.18555">
        <ele>144.19140625</ele>
      </trkpt>
      <trkpt lat="46.00051" lon="0.18528">
        <ele>144.58203125</ele>
      </trkpt>
      <trkpt lat="46.00048" lon="0.18495">
        <ele>145.26171875</ele>
      </trkpt>
      <trkpt lat="46.00049" lon="0.18454">
        <ele>145.34765625</ele>
      </trkpt>
      <trkpt lat="46.0005" lon="0.18415">
        <ele>145.5390625</ele>
      </trkpt>
      <trkpt lat="46.00052" lon="0.18358">
        <ele>146.04296875</ele>
      </trkpt>
      <trkpt lat="46.00053" lon="0.18316">
        <ele>146.40625</ele>
      </trkpt>
      <trkpt lat="46.00052" lon="0.18277">
        <ele>146.46875</ele>
      </trkpt>
      <trkpt lat="46.00048" lon="0.18235">
        <ele>146.5234375</ele>
      </trkpt>
      <trkpt lat="46.00044" lon="0.18207">
        <ele>146.44140625</ele>
      </trkpt>
      <trkpt lat="46.00036" lon="0.18172">
        <ele>146.1640625</ele>
      </trkpt>
      <trkpt lat="46.00012" lon="0.18109">
        <ele>145.203125</ele>
      </trkpt>
      <trkpt lat="46.00006" lon="0.1808">
        <ele>144.63671875</ele>
      </trkpt>
      <trkpt lat="46.00014" lon="0.18063">
        <ele>144.32421875</ele>
      </trkpt>
      <trkpt lat="46.00025" lon="0.18027">
        <ele>143.65625</ele>
      </trkpt>
      <trkpt lat="46.00037" lon="0.17988">
        <ele>142.87109375</ele>
      </trkpt>
      <trkpt lat="46.00047" lon="0.17959">
        <ele>142.16015625</ele>
      </trkpt>
      <trkpt lat="46.00059" lon="0.17942">
        <ele>141.625</ele>
      </trkpt>
      <trkpt lat="46.00073" lon="0.179">
        <ele>140.95703125</ele>
      </trkpt>
      <trkpt lat="46.00086" lon="0.1785">
        <ele>140.99609375</ele>
      </trkpt>
      <trkpt lat="46.001" lon="0.17798">
        <ele>140.6015625</ele>
      </trkpt>
      <trkpt lat="46.00111" lon="0.17784">
        <ele>140.421875</ele>
      </trkpt>
      <trkpt lat="46.00122" lon="0.17783">
        <ele>140.16015625</ele>
      </trkpt>
      <trkpt lat="46.00145" lon="0.17798">
        <ele>139.21875</ele>
      </trkpt>
      <trkpt lat="46.0018" lon="0.1782">
        <ele>136.9453125</ele>
      </trkpt>
      <trkpt lat="46.00212" lon="0.17835">
        <ele>134.91796875</ele>
      </trkpt>
      <trkpt lat="46.00214" lon="0.17823">
        <ele>134.7578125</ele>
      </trkpt>
      <trkpt lat="46.00219" lon="0.17785">
        <ele>134.12890625</ele>
      </trkpt>
      <trkpt lat="46.00224" lon="0.1775">
        <ele>133.7578125</ele>
      </trkpt>
      <trkpt lat="46.00227" lon="0.17708">
        <ele>133.8046875</ele>
      </trkpt>
      <trkpt lat="46.00232" lon="0.17656">
        <ele>133.9140625</ele>
      </trkpt>
      <trkpt lat="46.00237" lon="0.17641">
        <ele>133.67578125</ele>
      </trkpt>
      <trkpt lat="46.00249" lon="0.17616">
        <ele>133.046875</ele>
      </trkpt>
      <trkpt lat="46.00255" lon="0.17601">
        <ele>132.80078125</ele>
      </trkpt>
      <trkpt lat="46.00264" lon="0.17586">
        <ele>132.25</ele>
      </trkpt>
      <trkpt lat="46.00275" lon="0.17569">
        <ele>131.6171875</ele>
      </trkpt>
      <trkpt lat="46.00287" lon="0.17556">
        <ele>131.04296875</ele>
      </trkpt>
      <trkpt lat="46.00295" lon="0.17543">
        <ele>130.78125</ele>
      </trkpt>
      <trkpt lat="46.00307" lon="0.17532">
        <ele>130.5234375</ele>
      </trkpt>
      <trkpt lat="46.00324" lon="0.17514">
        <ele>130.54296875</ele>
      </trkpt>
      <trkpt lat="46.00344" lon="0.17499">
        <ele>130.375</ele>
      </trkpt>
      <trkpt lat="46.0036" lon="0.17477">
        <ele>130.58203125</ele>
      </trkpt>
      <trkpt lat="46.00365" lon="0.17449">
        <ele>131.46875</ele>
      </trkpt>
      <trkpt lat="46.00364" lon="0.17413">
        <ele>133.1484375</ele>
      </trkpt>
      <trkpt lat="46.00366" lon="0.17378">
        <ele>135.02734375</ele>
      </trkpt>
      <trkpt lat="46.00373" lon="0.17353">
        <ele>136.0078125</ele>
      </trkpt>
      <trkpt lat="46.00383" lon="0.1732">
        <ele>137.46484375</ele>
      </trkpt>
      <trkpt lat="46.00398" lon="0.17279">
        <ele>139.67578125</ele>
      </trkpt>
      <trkpt lat="46.00409" lon="0.17251">
        <ele>141.25390625</ele>
      </trkpt>
      <trkpt lat="46.0042" lon="0.17238">
        <ele>142.0546875</ele>
      </trkpt>
      <trkpt lat="46.00432" lon="0.17237">
        <ele>141.8515625</ele>
      </trkpt>
      <trkpt lat="46.00448" lon="0.17248">
        <ele>141.1796875</ele>
      </trkpt>
      <trkpt lat="46.00473" lon="0.17274">
        <ele>139.7734375</ele>
      </trkpt>
      <trkpt lat="46.00502" lon="0.17305">
        <ele>137.6328125</ele>
      </trkpt>
      <trkpt lat="46.00523" lon="0.17324">
        <ele>136.22265625</ele>
      </trkpt>
      <trkpt lat="46.00542" lon="0.1728">
        <ele>136.71484375</ele>
      </trkpt>
      <trkpt lat="46.00573" lon="0.17225">
        <ele>136.234375</ele>
      </trkpt>
      <trkpt lat="46.00612" lon="0.17167">
        <ele>136.671875</ele>
      </trkpt>
      <trkpt lat="46.00655" lon="0.17091">
        <ele>137.796875</ele>
      </trkpt>
      <trkpt lat="46.0069" lon="0.17034">
        <ele>137.36328125</ele>
      </trkpt>
      <trkpt lat="46.0075" lon="0.16919">
        <ele>133.48828125</ele>
      </trkpt>
      <trkpt lat="46.00797" lon="0.1683">
        <ele>132</ele>
      </trkpt>
      <trkpt lat="46.00816" lon="0.16799">
        <ele>132.0859375</ele>
      </trkpt>
      <trkpt lat="46.00839" lon="0.16773">
        <ele>131.29296875</ele>
      </trkpt>
      <trkpt lat="46.00879" lon="0.16734">
        <ele>130.03515625</ele>
      </trkpt>
      <trkpt lat="46.00929" lon="0.16686">
        <ele>128.6484375</ele>
      </trkpt>
      <trkpt lat="46.00965" lon="0.16651">
        <ele>127.33203125</ele>
      </trkpt>
      <trkpt lat="46.01013" lon="0.16606">
        <ele>125.62109375</ele>
      </trkpt>
      <trkpt lat="46.01069" lon="0.16545">
        <ele>124.30078125</ele>
      </trkpt>
      <trkpt lat="46.01112" lon="0.16505">
        <ele>123.171875</ele>
      </trkpt>
      <trkpt lat="46.01154" lon="0.16461">
        <ele>122.34375</ele>
      </trkpt>
      <trkpt lat="46.01179" lon="0.16438">
        <ele>122.73046875</ele>
      </trkpt>
      <trkpt lat="46.01194" lon="0.16426">
        <ele>122.8046875</ele>
      </trkpt>
      <trkpt lat="46.01207" lon="0.16413">
        <ele>123.234375</ele>
      </trkpt>
      <trkpt lat="46.0121" lon="0.16406">
        <ele>123.3125</ele>
      </trkpt>
      <trkpt lat="46.01208" lon="0.164">
        <ele>123.09765625</ele>
      </trkpt>
      <trkpt lat="46.01202" lon="0.16389">
        <ele>122.54296875</ele>
      </trkpt>
      <trkpt lat="46.01196" lon="0.16376">
        <ele>121.9921875</ele>
      </trkpt>
      <trkpt lat="46.01192" lon="0.16363">
        <ele>121.88671875</ele>
      </trkpt>
      <trkpt lat="46.01188" lon="0.16347">
        <ele>121.765625</ele>
      </trkpt>
      <trkpt lat="46.01178" lon="0.16301">
        <ele>121.3359375</ele>
      </trkpt>
      <trkpt lat="46.0117" lon="0.1626">
        <ele>121.0546875</ele>
      </trkpt>
      <trkpt lat="46.01164" lon="0.16221">
        <ele>120.8203125</ele>
      </trkpt>
      <trkpt lat="46.01156" lon="0.16161">
        <ele>118.94140625</ele>
      </trkpt>
      <trkpt lat="46.0115" lon="0.16127">
        <ele>118.03515625</ele>
      </trkpt>
      <trkpt lat="46.01139" lon="0.16079">
        <ele>116.94921875</ele>
      </trkpt>
      <trkpt lat="46.01128" lon="0.16039">
        <ele>116.6328125</ele>
      </trkpt>
      <trkpt lat="46.01112" lon="0.15989">
        <ele>116.41796875</ele>
      </trkpt>
      <trkpt lat="46.01095" lon="0.1594">
        <ele>115.65625</ele>
      </trkpt>
      <trkpt lat="46.01081" lon="0.15902">
        <ele>115.578125</ele>
      </trkpt>
      <trkpt lat="46.0107" lon="0.15877">
        <ele>115.75</ele>
      </trkpt>
      <trkpt lat="46.01056" lon="0.1584">
        <ele>115.78515625</ele>
      </trkpt>
      <trkpt lat="46.01038" lon="0.15798">
        <ele>115.2890625</ele>
      </trkpt>
      <trkpt lat="46.01022" lon="0.15759">
        <ele>114.828125</ele>
      </trkpt>
      <trkpt lat="46.01007" lon="0.15724">
        <ele>114.2421875</ele>
      </trkpt>
      <trkpt lat="46.01005" lon="0.15708">
        <ele>114.16796875</ele>
      </trkpt>
      <trkpt lat="46.01007" lon="0.15698">
        <ele>114.4453125</ele>
      </trkpt>
      <trkpt lat="46.01014" lon="0.15685">
        <ele>114.91796875</ele>
      </trkpt>
      <trkpt lat="46.01021" lon="0.15671">
        <ele>115.4296875</ele>
      </trkpt>
      <trkpt lat="46.01025" lon="0.15662">
        <ele>115.73046875</ele>
      </trkpt>
      <trkpt lat="46.01022" lon="0.15657">
        <ele>115.70703125</ele>
      </trkpt>
      <trkpt lat="46.01016" lon="0.1566">
        <ele>115.44921875</ele>
      </trkpt>
      <trkpt lat="46.00998" lon="0.15686">
        <ele>114.3359375</ele>
      </trkpt>
      <trkpt lat="46.00976" lon="0.15709">
        <ele>113.1328125</ele>
      </trkpt>
      <trkpt lat="46.00959" lon="0.15698">
        <ele>113.11328125</ele>
      </trkpt>
      <trkpt lat="46.00932" lon="0.15645">
        <ele>112.51171875</ele>
      </trkpt>
      <trkpt lat="46.00914" lon="0.15604">
        <ele>111.91015625</ele>
      </trkpt>
      <trkpt lat="46.00864" lon="0.15517">
        <ele>111.0859375</ele>
      </trkpt>
      <trkpt lat="46.00824" lon="0.15452">
        <ele>110.7578125</ele>
      </trkpt>
      <trkpt lat="46.00759" lon="0.1535">
        <ele>110.171875</ele>
      </trkpt>
      <trkpt lat="46.00723" lon="0.15285">
        <ele>110.4921875</ele>
      </trkpt>
      <trkpt lat="46.00709" lon="0.15254">
        <ele>110.31640625</ele>
      </trkpt>
      <trkpt lat="46.00702" lon="0.15238">
        <ele>110.203125</ele>
      </trkpt>
      <trkpt lat="46.00693" lon="0.15216">
        <ele>110.0078125</ele>
      </trkpt>
      <trkpt lat="46.00688" lon="0.15202">
        <ele>110.1328125</ele>
      </trkpt>
      <trkpt lat="46.00708" lon="0.15181">
        <ele>111.265625</ele>
      </trkpt>
      <trkpt lat="46.00715" lon="0.15173">
        <ele>111.9453125</ele>
      </trkpt>
      <trkpt lat="46.00718" lon="0.15168">
        <ele>112.23046875</ele>
      </trkpt>
      <trkpt lat="46.0071" lon="0.15146">
        <ele>112.31640625</ele>
      </trkpt>
      <trkpt lat="46.00701" lon="0.15118">
        <ele>112.671875</ele>
      </trkpt>
      <trkpt lat="46.00698" lon="0.15106">
        <ele>112.91015625</ele>
      </trkpt>
      <trkpt lat="46.00682" lon="0.15048">
        <ele>114.16015625</ele>
      </trkpt>
      <trkpt lat="46.00665" lon="0.14994">
        <ele>115.203125</ele>
      </trkpt>
      <trkpt lat="46.00656" lon="0.14966">
        <ele>116.01953125</ele>
      </trkpt>
      <trkpt lat="46.00639" lon="0.14927">
        <ele>117.1640625</ele>
      </trkpt>
      <trkpt lat="46.00626" lon="0.14893">
        <ele>117.83984375</ele>
      </trkpt>
      <trkpt lat="46.00615" lon="0.14868">
        <ele>118.484375</ele>
      </trkpt>
      <trkpt lat="46.00595" lon="0.1482">
        <ele>119.4765625</ele>
      </trkpt>
      <trkpt lat="46.00586" lon="0.1479">
        <ele>120.24609375</ele>
      </trkpt>
      <trkpt lat="46.00578" lon="0.14761">
        <ele>120.45703125</ele>
      </trkpt>
      <trkpt lat="46.00574" lon="0.14723">
        <ele>120.48046875</ele>
      </trkpt>
      <trkpt lat="46.00569" lon="0.1467">
        <ele>121.96875</ele>
      </trkpt>
      <trkpt lat="46.00566" lon="0.14646">
        <ele>122.34765625</ele>
      </trkpt>
      <trkpt lat="46.00567" lon="0.1462">
        <ele>122.546875</ele>
      </trkpt>
      <trkpt lat="46.00569" lon="0.14596">
        <ele>122.8046875</ele>
      </trkpt>
      <trkpt lat="46.0057" lon="0.14572">
        <ele>123.2578125</ele>
      </trkpt>
      <trkpt lat="46.00571" lon="0.14549">
        <ele>123.6875</ele>
      </trkpt>
      <trkpt lat="46.0057" lon="0.1453">
        <ele>123.7109375</ele>
      </trkpt>
      <trkpt lat="46.00567" lon="0.1451">
        <ele>123.66015625</ele>
      </trkpt>
      <trkpt lat="46.00559" lon="0.14486">
        <ele>123.43359375</ele>
      </trkpt>
      <trkpt lat="46.00551" lon="0.14465">
        <ele>122.90625</ele>
      </trkpt>
      <trkpt lat="46.00544" lon="0.14443">
        <ele>122.37890625</ele>
      </trkpt>
      <trkpt lat="46.00533" lon="0.14415">
        <ele>122.01171875</ele>
      </trkpt>
      <trkpt lat="46.00522" lon="0.14383">
        <ele>121.84765625</ele>
      </trkpt>
      <trkpt lat="46.00515" lon="0.14368">
        <ele>121.34375</ele>
      </trkpt>
      <trkpt lat="46.00509" lon="0.14363">
        <ele>121.12890625</ele>
      </trkpt>
      <trkpt lat="46.00505" lon="0.14363">
        <ele>121.0546875</ele>
      </trkpt>
      <trkpt lat="46.00486" lon="0.14376">
        <ele>121.125</ele>
      </trkpt>
      <trkpt lat="46.00463" lon="0.14397">
        <ele>120.7890625</ele>
      </trkpt>
      <trkpt lat="46.00439" lon="0.14414">
        <ele>120.3515625</ele>
      </trkpt>
      <trkpt lat="46.00411" lon="0.14436">
        <ele>119.6875</ele>
      </trkpt>
      <trkpt lat="46.00391" lon="0.14454">
        <ele>118.48046875</ele>
      </trkpt>
      <trkpt lat="46.00367" lon="0.14476">
        <ele>116.7109375</ele>
      </trkpt>
      <trkpt lat="46.00347" lon="0.14496">
        <ele>115.29296875</ele>
      </trkpt>
      <trkpt lat="46.00331" lon="0.14513">
        <ele>114.19140625</ele>
      </trkpt>
      <trkpt lat="46.00317" lon="0.14515">
        <ele>113.53515625</ele>
      </trkpt>
      <trkpt lat="46.00308" lon="0.14509">
        <ele>113.36328125</ele>
      </trkpt>
      <trkpt lat="46.00288" lon="0.14477">
        <ele>112.66015625</ele>
      </trkpt>
      <trkpt lat="46.00262" lon="0.14469">
        <ele>110.859375</ele>
      </trkpt>
      <trkpt lat="46.00235" lon="0.14466">
        <ele>108.77734375</ele>
      </trkpt>
      <trkpt lat="46.00222" lon="0.14458">
        <ele>108.0390625</ele>
      </trkpt>
      <trkpt lat="46.00208" lon="0.14438">
        <ele>107.82421875</ele>
      </trkpt>
      <trkpt lat="46.00188" lon="0.14433">
        <ele>106.3515625</ele>
      </trkpt>
      <trkpt lat="46.00161" lon="0.14425">
        <ele>104.484375</ele>
      </trkpt>
      <trkpt lat="46.00149" lon="0.14415">
        <ele>103.61328125</ele>
      </trkpt>
      <trkpt lat="46.00129" lon="0.14391">
        <ele>103.0859375</ele>
      </trkpt>
      <trkpt lat="46.00115" lon="0.1437">
        <ele>102.52734375</ele>
      </trkpt>
      <trkpt lat="46.00097" lon="0.14346">
        <ele>101.29296875</ele>
      </trkpt>
      <trkpt lat="46.0008" lon="0.14329">
        <ele>100.26171875</ele>
      </trkpt>
      <trkpt lat="46.00055" lon="0.14324">
        <ele>99.98828125</ele>
      </trkpt>
      <trkpt lat="46.00028" lon="0.14322">
        <ele>99.83984375</ele>
      </trkpt>
      <trkpt lat="46.00009" lon="0.14328">
        <ele>99.39453125</ele>
      </trkpt>
      <trkpt lat="45.99998" lon="0.14338">
        <ele>99.65625</ele>
      </trkpt>
      <trkpt lat="45.99977" lon="0.14376">
        <ele>100.88671875</ele>
      </trkpt>
      <trkpt lat="45.9996" lon="0.14416">
        <ele>101.93359375</ele>
      </trkpt>
      <trkpt lat="45.99944" lon="0.14436">
        <ele>101.8046875</ele>
      </trkpt>
      <trkpt lat="45.99919" lon="0.14444">
        <ele>100.890625</ele>
      </trkpt>
      <trkpt lat="45.99889" lon="0.14442">
        <ele>100.03515625</ele>
      </trkpt>
      <trkpt lat="45.99869" lon="0.14443">
        <ele>99.7578125</ele>
      </trkpt>
      <trkpt lat="45.99838" lon="0.14444">
        <ele>100.08203125</ele>
      </trkpt>
      <trkpt lat="45.99812" lon="0.1444">
        <ele>100.1875</ele>
      </trkpt>
      <trkpt lat="45.99788" lon="0.14428">
        <ele>99.27734375</ele>
      </trkpt>
      <trkpt lat="45.9976" lon="0.14415">
        <ele>98.3203125</ele>
      </trkpt>
      <trkpt lat="45.99731" lon="0.14406">
        <ele>97.9375</ele>
      </trkpt>
      <trkpt lat="45.99698" lon="0.144">
        <ele>97.71484375</ele>
      </trkpt>
      <trkpt lat="45.99668" lon="0.14396">
        <ele>97.8828125</ele>
      </trkpt>
      <trkpt lat="45.9964" lon="0.14395">
        <ele>98.09375</ele>
      </trkpt>
      <trkpt lat="45.99618" lon="0.14398">
        <ele>98.265625</ele>
      </trkpt>
      <trkpt lat="45.99599" lon="0.14395">
        <ele>98.09765625</ele>
      </trkpt>
      <trkpt lat="45.99572" lon="0.14386">
        <ele>97.44921875</ele>
      </trkpt>
      <trkpt lat="45.9954" lon="0.1438">
        <ele>96.99609375</ele>
      </trkpt>
      <trkpt lat="45.99505" lon="0.14372">
        <ele>97.265625</ele>
      </trkpt>
      <trkpt lat="45.99483" lon="0.14371">
        <ele>97.5546875</ele>
      </trkpt>
      <trkpt lat="45.99454" lon="0.14371">
        <ele>96.94921875</ele>
      </trkpt>
      <trkpt lat="45.99445" lon="0.14373">
        <ele>96.73046875</ele>
      </trkpt>
      <trkpt lat="45.99425" lon="0.14374">
        <ele>96.0703125</ele>
      </trkpt>
      <trkpt lat="45.99409" lon="0.14374">
        <ele>95.87890625</ele>
      </trkpt>
      <trkpt lat="45.99409" lon="0.14368">
        <ele>95.7890625</ele>
      </trkpt>
      <trkpt lat="45.99406" lon="0.14354">
        <ele>95.5234375</ele>
      </trkpt>
      <trkpt lat="45.994" lon="0.14331">
        <ele>95.12109375</ele>
      </trkpt>
      <trkpt lat="45.99379" lon="0.14291">
        <ele>94.55078125</ele>
      </trkpt>
      <trkpt lat="45.99357" lon="0.14242">
        <ele>93.87890625</ele>
      </trkpt>
      <trkpt lat="45.99337" lon="0.14199">
        <ele>92.87890625</ele>
      </trkpt>
      <trkpt lat="45.99311" lon="0.14144">
        <ele>91.375</ele>
      </trkpt>
      <trkpt lat="45.9929" lon="0.141">
        <ele>92.140625</ele>
      </trkpt>
      <trkpt lat="45.99266" lon="0.14051">
        <ele>94.796875</ele>
      </trkpt>
      <trkpt lat="45.99257" lon="0.1403">
        <ele>95.875</ele>
      </trkpt>
      <trkpt lat="45.99246" lon="0.14006">
        <ele>97.828125</ele>
      </trkpt>
      <trkpt lat="45.99234" lon="0.13977">
        <ele>100.1953125</ele>
      </trkpt>
      <trkpt lat="45.99218" lon="0.13944">
        <ele>102.3125</ele>
      </trkpt>
      <trkpt lat="45.99205" lon="0.13917">
        <ele>103.84765625</ele>
      </trkpt>
      <trkpt lat="45.99199" lon="0.13902">
        <ele>104.49609375</ele>
      </trkpt>
      <trkpt lat="45.99189" lon="0.13873">
        <ele>105.7578125</ele>
      </trkpt>
      <trkpt lat="45.99186" lon="0.13865">
        <ele>106.0546875</ele>
      </trkpt>
      <trkpt lat="45.99177" lon="0.13862">
        <ele>106.71875</ele>
      </trkpt>
      <trkpt lat="45.99163" lon="0.13854">
        <ele>107.6875</ele>
      </trkpt>
      <trkpt lat="45.99144" lon="0.13844">
        <ele>108.88671875</ele>
      </trkpt>
      <trkpt lat="45.99132" lon="0.13837">
        <ele>109.1484375</ele>
      </trkpt>
      <trkpt lat="45.99123" lon="0.13838">
        <ele>109.2578125</ele>
      </trkpt>
      <trkpt lat="45.9912" lon="0.13843">
        <ele>109.2734375</ele>
      </trkpt>
      <trkpt lat="45.99118" lon="0.13855">
        <ele>109.203125</ele>
      </trkpt>
      <trkpt lat="45.99116" lon="0.13867">
        <ele>109.1171875</ele>
      </trkpt>
      <trkpt lat="45.99113" lon="0.1389">
        <ele>108.58984375</ele>
      </trkpt>
      <trkpt lat="45.99109" lon="0.13916">
        <ele>107.453125</ele>
      </trkpt>
      <trkpt lat="45.99106" lon="0.13936">
        <ele>106.67578125</ele>
      </trkpt>
      <trkpt lat="45.99102" lon="0.13959">
        <ele>105.59375</ele>
      </trkpt>
      <trkpt lat="45.99097" lon="0.13981">
        <ele>104.51953125</ele>
      </trkpt>
      <trkpt lat="45.99092" lon="0.14009">
        <ele>102.75</ele>
      </trkpt>
      <trkpt lat="45.9909" lon="0.1403">
        <ele>101.29296875</ele>
      </trkpt>
      <trkpt lat="45.99083" lon="0.14062">
        <ele>98.19921875</ele>
      </trkpt>
      <trkpt lat="45.9908" lon="0.14083">
        <ele>95.8359375</ele>
      </trkpt>
      <trkpt lat="45.99082" lon="0.141">
        <ele>94.125</ele>
      </trkpt>
      <trkpt lat="45.99084" lon="0.14118">
        <ele>93.08203125</ele>
      </trkpt>
      <trkpt lat="45.99087" lon="0.14139">
        <ele>92.02734375</ele>
      </trkpt>
      <trkpt lat="45.99081" lon="0.14153">
        <ele>91.24609375</ele>
      </trkpt>
      <trkpt lat="45.99069" lon="0.14168">
        <ele>91.23828125</ele>
      </trkpt>
      <trkpt lat="45.99056" lon="0.1419">
        <ele>91.8828125</ele>
      </trkpt>
      <trkpt lat="45.99039" lon="0.14181">
        <ele>91.75390625</ele>
      </trkpt>
      <trkpt lat="45.99018" lon="0.14168">
        <ele>91.41796875</ele>
      </trkpt>
      <trkpt lat="45.98997" lon="0.14166">
        <ele>91.37890625</ele>
      </trkpt>
      <trkpt lat="45.98973" lon="0.14169">
        <ele>91.578125</ele>
      </trkpt>
      <trkpt lat="45.98947" lon="0.14165">
        <ele>91.453125</ele>
      </trkpt>
      <trkpt lat="45.9893" lon="0.14163">
        <ele>91.359375</ele>
      </trkpt>
      <trkpt lat="45.9891" lon="0.14166">
        <ele>91.4140625</ele>
      </trkpt>
      <trkpt lat="45.98893" lon="0.1417">
        <ele>91.36328125</ele>
      </trkpt>
      <trkpt lat="45.98874" lon="0.14174">
        <ele>91.3046875</ele>
      </trkpt>
      <trkpt lat="45.98861" lon="0.14178">
        <ele>91.359375</ele>
      </trkpt>
      <trkpt lat="45.98855" lon="0.1418">
        <ele>91.3359375</ele>
      </trkpt>
      <trkpt lat="45.9885" lon="0.14181">
        <ele>91.2734375</ele>
      </trkpt>
      <trkpt lat="45.98838" lon="0.14179">
        <ele>90.84375</ele>
      </trkpt>
      <trkpt lat="45.98823" lon="0.14172">
        <ele>90.08984375</ele>
      </trkpt>
      <trkpt lat="45.98791" lon="0.14155">
        <ele>89.2265625</ele>
      </trkpt>
      <trkpt lat="45.98763" lon="0.14137">
        <ele>88.8046875</ele>
      </trkpt>
      <trkpt lat="45.9874" lon="0.14118">
        <ele>88.15625</ele>
      </trkpt>
      <trkpt lat="45.98707" lon="0.14107">
        <ele>88.140625</ele>
      </trkpt>
      <trkpt lat="45.98673" lon="0.14098">
        <ele>87.4765625</ele>
      </trkpt>
      <trkpt lat="45.98644" lon="0.14113">
        <ele>87.765625</ele>
      </trkpt>
      <trkpt lat="45.98627" lon="0.14113">
        <ele>87.76171875</ele>
      </trkpt>
      <trkpt lat="45.98601" lon="0.1411">
        <ele>87.51171875</ele>
      </trkpt>
      <trkpt lat="45.9856" lon="0.14104">
        <ele>87.56640625</ele>
      </trkpt>
      <trkpt lat="45.98524" lon="0.14094">
        <ele>88.1640625</ele>
      </trkpt>
      <trkpt lat="45.98509" lon="0.14077">
        <ele>88.3203125</ele>
      </trkpt>
      <trkpt lat="45.98496" lon="0.14052">
        <ele>87.60546875</ele>
      </trkpt>
      <trkpt lat="45.98483" lon="0.14025">
        <ele>87.05859375</ele>
      </trkpt>
      <trkpt lat="45.98474" lon="0.14009">
        <ele>86.76171875</ele>
      </trkpt>
      <trkpt lat="45.98485" lon="0.13995">
        <ele>86.08984375</ele>
      </trkpt>
      <trkpt lat="45.98504" lon="0.13974">
        <ele>86.5</ele>
      </trkpt>
      <trkpt lat="45.98534" lon="0.1394">
        <ele>88.9609375</ele>
      </trkpt>
      <trkpt lat="45.98555" lon="0.13909">
        <ele>92.83203125</ele>
      </trkpt>
      <trkpt lat="45.98583" lon="0.13847">
        <ele>98.0546875</ele>
      </trkpt>
      <trkpt lat="45.98605" lon="0.13817">
        <ele>100.6328125</ele>
      </trkpt>
      <trkpt lat="45.98625" lon="0.13779">
        <ele>103.0625</ele>
      </trkpt>
      <trkpt lat="45.98641" lon="0.13774">
        <ele>103.87890625</ele>
      </trkpt>
      <trkpt lat="45.98658" lon="0.13784">
        <ele>104.3046875</ele>
      </trkpt>
      <trkpt lat="45.98681" lon="0.1378">
        <ele>105.1875</ele>
      </trkpt>
      <trkpt lat="45.98692" lon="0.13768">
        <ele>105.796875</ele>
      </trkpt>
      <trkpt lat="45.98724" lon="0.13725">
        <ele>107.71875</ele>
      </trkpt>
      <trkpt lat="45.98743" lon="0.13689">
        <ele>108.625</ele>
      </trkpt>
      <trkpt lat="45.98767" lon="0.13648">
        <ele>109.68359375</ele>
      </trkpt>
      <trkpt lat="45.9879" lon="0.13601">
        <ele>111.37890625</ele>
      </trkpt>
      <trkpt lat="45.98804" lon="0.13563">
        <ele>112.60546875</ele>
      </trkpt>
      <trkpt lat="45.98825" lon="0.13482">
        <ele>114.453125</ele>
      </trkpt>
      <trkpt lat="45.98837" lon="0.13435">
        <ele>115.50390625</ele>
      </trkpt>
      <trkpt lat="45.98797" lon="0.13407">
        <ele>114.78515625</ele>
      </trkpt>
      <trkpt lat="45.98756" lon="0.13378">
        <ele>114.04296875</ele>
      </trkpt>
      <trkpt lat="45.98712" lon="0.13347">
        <ele>114.453125</ele>
      </trkpt>
      <trkpt lat="45.98668" lon="0.13316">
        <ele>115.16796875</ele>
      </trkpt>
      <trkpt lat="45.98652" lon="0.13305">
        <ele>115.36328125</ele>
      </trkpt>
      <trkpt lat="45.98634" lon="0.13289">
        <ele>115.39453125</ele>
      </trkpt>
      <trkpt lat="45.98632" lon="0.13294">
        <ele>115.265625</ele>
      </trkpt>
      <trkpt lat="45.98629" lon="0.13299">
        <ele>115.109375</ele>
      </trkpt>
      <trkpt lat="45.98621" lon="0.13313">
        <ele>114.75</ele>
      </trkpt>
      <trkpt lat="45.98609" lon="0.13309">
        <ele>114.515625</ele>
      </trkpt>
      <trkpt lat="45.98601" lon="0.13306">
        <ele>114.34375</ele>
      </trkpt>
      <trkpt lat="45.98599" lon="0.13308">
        <ele>114.2890625</ele>
      </trkpt>
      <trkpt lat="45.98597" lon="0.13308">
        <ele>114.23046875</ele>
      </trkpt>
      <trkpt lat="45.98594" lon="0.13305">
        <ele>114.171875</ele>
      </trkpt>
      <trkpt lat="45.98588" lon="0.13296">
        <ele>114.03125</ele>
      </trkpt>
      <trkpt lat="45.98588" lon="0.13297">
        <ele>114.03515625</ele>
      </trkpt>
      <trkpt lat="45.98554" lon="0.13265">
        <ele>112.89453125</ele>
      </trkpt>
      <trkpt lat="45.98548" lon="0.1326">
        <ele>112.76953125</ele>
      </trkpt>
      <trkpt lat="45.98534" lon="0.13255">
        <ele>112.34765625</ele>
      </trkpt>
      <trkpt lat="45.98512" lon="0.13251">
        <ele>111.63671875</ele>
      </trkpt>
      <trkpt lat="45.98487" lon="0.13228">
        <ele>111.13671875</ele>
      </trkpt>
      <trkpt lat="45.98456" lon="0.13208">
        <ele>109.953125</ele>
      </trkpt>
      <trkpt lat="45.98425" lon="0.13184">
        <ele>108.75390625</ele>
      </trkpt>
      <trkpt lat="45.98403" lon="0.13168">
        <ele>107.90234375</ele>
      </trkpt>
      <trkpt lat="45.9837" lon="0.13151">
        <ele>106.296875</ele>
      </trkpt>
      <trkpt lat="45.98338" lon="0.13136">
        <ele>104.265625</ele>
      </trkpt>
      <trkpt lat="45.98319" lon="0.13118">
        <ele>103.296875</ele>
      </trkpt>
      <trkpt lat="45.98303" lon="0.13113">
        <ele>102.2890625</ele>
      </trkpt>
      <trkpt lat="45.98271" lon="0.13125">
        <ele>99.27734375</ele>
      </trkpt>
      <trkpt lat="45.98245" lon="0.13136">
        <ele>96.19921875</ele>
      </trkpt>
      <trkpt lat="45.98217" lon="0.13144">
        <ele>92.32421875</ele>
      </trkpt>
      <trkpt lat="45.98188" lon="0.13151">
        <ele>88.80859375</ele>
      </trkpt>
      <trkpt lat="45.98158" lon="0.13152">
        <ele>86.5703125</ele>
      </trkpt>
      <trkpt lat="45.98135" lon="0.13145">
        <ele>85.7734375</ele>
      </trkpt>
      <trkpt lat="45.98107" lon="0.13129">
        <ele>85.79296875</ele>
      </trkpt>
      <trkpt lat="45.98079" lon="0.13114">
        <ele>85.51953125</ele>
      </trkpt>
      <trkpt lat="45.98046" lon="0.13093">
        <ele>85.75390625</ele>
      </trkpt>
      <trkpt lat="45.98018" lon="0.13072">
        <ele>85.7109375</ele>
      </trkpt>
      <trkpt lat="45.97969" lon="0.13043">
        <ele>84.390625</ele>
      </trkpt>
      <trkpt lat="45.97939" lon="0.13029">
        <ele>85.5625</ele>
      </trkpt>
      <trkpt lat="45.97925" lon="0.1304">
        <ele>86.51171875</ele>
      </trkpt>
      <trkpt lat="45.97908" lon="0.13042">
        <ele>87.890625</ele>
      </trkpt>
      <trkpt lat="45.979" lon="0.1305">
        <ele>88.99609375</ele>
      </trkpt>
      <trkpt lat="45.97881" lon="0.13069">
        <ele>91.703125</ele>
      </trkpt>
      <trkpt lat="45.97857" lon="0.13077">
        <ele>94.06640625</ele>
      </trkpt>
      <trkpt lat="45.97849" lon="0.13068">
        <ele>93.984375</ele>
      </trkpt>
      <trkpt lat="45.97832" lon="0.13057">
        <ele>94.3046875</ele>
      </trkpt>
      <trkpt lat="45.97813" lon="0.13054">
        <ele>95.16796875</ele>
      </trkpt>
      <trkpt lat="45.978" lon="0.13056">
        <ele>95.98046875</ele>
      </trkpt>
      <trkpt lat="45.97774" lon="0.13077">
        <ele>98.17578125</ele>
      </trkpt>
      <trkpt lat="45.97759" lon="0.13091">
        <ele>99.36328125</ele>
      </trkpt>
      <trkpt lat="45.97747" lon="0.1309">
        <ele>99.80859375</ele>
      </trkpt>
      <trkpt lat="45.97719" lon="0.13079">
        <ele>100.40234375</ele>
      </trkpt>
      <trkpt lat="45.97711" lon="0.1308">
        <ele>100.72265625</ele>
      </trkpt>
      <trkpt lat="45.977" lon="0.13105">
        <ele>101.9609375</ele>
      </trkpt>
      <trkpt lat="45.97685" lon="0.13143">
        <ele>102.23828125</ele>
      </trkpt>
      <trkpt lat="45.97677" lon="0.13145">
        <ele>102.3828125</ele>
      </trkpt>
      <trkpt lat="45.9765" lon="0.13134">
        <ele>102.87890625</ele>
      </trkpt>
      <trkpt lat="45.97642" lon="0.13136">
        <ele>103.046875</ele>
      </trkpt>
      <trkpt lat="45.97639" lon="0.13154">
        <ele>103.24609375</ele>
      </trkpt>
      <trkpt lat="45.97631" lon="0.13181">
        <ele>103.25</ele>
      </trkpt>
      <trkpt lat="45.97622" lon="0.13222">
        <ele>102.921875</ele>
      </trkpt>
      <trkpt lat="45.97616" lon="0.13233">
        <ele>102.95703125</ele>
      </trkpt>
      <trkpt lat="45.97613" lon="0.13237">
        <ele>103.0546875</ele>
      </trkpt>
      <trkpt lat="45.97608" lon="0.13237">
        <ele>103.375</ele>
      </trkpt>
      <trkpt lat="45.97578" lon="0.13227">
        <ele>105.671875</ele>
      </trkpt>
      <trkpt lat="45.97532" lon="0.13201">
        <ele>110.26171875</ele>
      </trkpt>
      <trkpt lat="45.97486" lon="0.13176">
        <ele>112.60546875</ele>
      </trkpt>
      <trkpt lat="45.9743" lon="0.13157">
        <ele>114.66796875</ele>
      </trkpt>
      <trkpt lat="45.9739" lon="0.13146">
        <ele>116.10546875</ele>
      </trkpt>
      <trkpt lat="45.97366" lon="0.13139">
        <ele>117.00390625</ele>
      </trkpt>
      <trkpt lat="45.97349" lon="0.13136">
        <ele>117.79296875</ele>
      </trkpt>
      <trkpt lat="45.97293" lon="0.13114">
        <ele>119.7421875</ele>
      </trkpt>
      <trkpt lat="45.97255" lon="0.131">
        <ele>120.9296875</ele>
      </trkpt>
      <trkpt lat="45.97215" lon="0.13078">
        <ele>120.546875</ele>
      </trkpt>
      <trkpt lat="45.97191" lon="0.13091">
        <ele>120.7421875</ele>
      </trkpt>
      <trkpt lat="45.97159" lon="0.13101">
        <ele>120.9453125</ele>
      </trkpt>
      <trkpt lat="45.97118" lon="0.13114">
        <ele>121.1875</ele>
      </trkpt>
      <trkpt lat="45.9708" lon="0.13122">
        <ele>121.328125</ele>
      </trkpt>
      <trkpt lat="45.97057" lon="0.13126">
        <ele>121.41796875</ele>
      </trkpt>
      <trkpt lat="45.97021" lon="0.1313">
        <ele>121.6875</ele>
      </trkpt>
      <trkpt lat="45.9699" lon="0.13126">
        <ele>122.171875</ele>
      </trkpt>
      <trkpt lat="45.96967" lon="0.13111">
        <ele>122.49609375</ele>
      </trkpt>
      <trkpt lat="45.96942" lon="0.13086">
        <ele>122.66015625</ele>
      </trkpt>
      <trkpt lat="45.96897" lon="0.13035">
        <ele>122.55078125</ele>
      </trkpt>
      <trkpt lat="45.96889" lon="0.13026">
        <ele>122.5546875</ele>
      </trkpt>
      <trkpt lat="45.96876" lon="0.13016">
        <ele>122.61328125</ele>
      </trkpt>
      <trkpt lat="45.96866" lon="0.13013">
        <ele>122.75</ele>
      </trkpt>
      <trkpt lat="45.96814" lon="0.13025">
        <ele>124.5</ele>
      </trkpt>
      <trkpt lat="45.96785" lon="0.13041">
        <ele>125.34765625</ele>
      </trkpt>
      <trkpt lat="45.96774" lon="0.13049">
        <ele>125.67578125</ele>
      </trkpt>
      <trkpt lat="45.96761" lon="0.13072">
        <ele>126.26953125</ele>
      </trkpt>
      <trkpt lat="45.96748" lon="0.1312">
        <ele>127.03515625</ele>
      </trkpt>
      <trkpt lat="45.96703" lon="0.13089">
        <ele>126.984375</ele>
      </trkpt>
      <trkpt lat="45.96643" lon="0.13047">
        <ele>126.96875</ele>
      </trkpt>
      <trkpt lat="45.96566" lon="0.12976">
        <ele>125.8828125</ele>
      </trkpt>
      <trkpt lat="45.96483" lon="0.12895">
        <ele>124.25</ele>
      </trkpt>
      <trkpt lat="45.96461" lon="0.12885">
        <ele>124.07421875</ele>
      </trkpt>
      <trkpt lat="45.96389" lon="0.12822">
        <ele>123.9140625</ele>
      </trkpt>
      <trkpt lat="45.96362" lon="0.12802">
        <ele>123.49609375</ele>
      </trkpt>
      <trkpt lat="45.96329" lon="0.12775">
        <ele>122.40625</ele>
      </trkpt>
      <trkpt lat="45.96312" lon="0.12755">
        <ele>121.7421875</ele>
      </trkpt>
      <trkpt lat="45.96272" lon="0.1272">
        <ele>121.03125</ele>
      </trkpt>
      <trkpt lat="45.96195" lon="0.12653">
        <ele>117.9140625</ele>
      </trkpt>
      <trkpt lat="45.96179" lon="0.12645">
        <ele>117.6328125</ele>
      </trkpt>
      <trkpt lat="45.96167" lon="0.12638">
        <ele>117.4140625</ele>
      </trkpt>
      <trkpt lat="45.96158" lon="0.12631">
        <ele>117.25390625</ele>
      </trkpt>
      <trkpt lat="45.96129" lon="0.12597">
        <ele>116.6015625</ele>
      </trkpt>
      <trkpt lat="45.96122" lon="0.1259">
        <ele>116.359375</ele>
      </trkpt>
      <trkpt lat="45.96114" lon="0.12585">
        <ele>116.125</ele>
      </trkpt>
      <trkpt lat="45.9611" lon="0.12584">
        <ele>116.03125</ele>
      </trkpt>
      <trkpt lat="45.96098" lon="0.12571">
        <ele>115.59765625</ele>
      </trkpt>
      <trkpt lat="45.96059" lon="0.12545">
        <ele>113.84765625</ele>
      </trkpt>
      <trkpt lat="45.96019" lon="0.12517">
        <ele>112.1875</ele>
      </trkpt>
      <trkpt lat="45.96016" lon="0.12512">
        <ele>112.0546875</ele>
      </trkpt>
      <trkpt lat="45.9602" lon="0.12499">
        <ele>111.88671875</ele>
      </trkpt>
      <trkpt lat="45.96025" lon="0.12477">
        <ele>111.81640625</ele>
      </trkpt>
      <trkpt lat="45.96027" lon="0.12452">
        <ele>111.80859375</ele>
      </trkpt>
      <trkpt lat="45.96022" lon="0.12355">
        <ele>109.33203125</ele>
      </trkpt>
      <trkpt lat="45.96019" lon="0.12268">
        <ele>106.9296875</ele>
      </trkpt>
      <trkpt lat="45.96012" lon="0.12137">
        <ele>103.21484375</ele>
      </trkpt>
      <trkpt lat="45.96007" lon="0.12146">
        <ele>103.28125</ele>
      </trkpt>
      <trkpt lat="45.96" lon="0.12191">
        <ele>104.3203125</ele>
      </trkpt>
      <trkpt lat="45.95985" lon="0.12251">
        <ele>106.296875</ele>
      </trkpt>
      <trkpt lat="45.95934" lon="0.12224">
        <ele>105.3125</ele>
      </trkpt>
      <trkpt lat="45.95895" lon="0.12201">
        <ele>104.1328125</ele>
      </trkpt>
      <trkpt lat="45.95887" lon="0.12194">
        <ele>103.84765625</ele>
      </trkpt>
      <trkpt lat="45.95884" lon="0.12182">
        <ele>103.546875</ele>
      </trkpt>
      <trkpt lat="45.95884" lon="0.12172">
        <ele>103.30859375</ele>
      </trkpt>
      <trkpt lat="45.9588" lon="0.12167">
        <ele>103.171875</ele>
      </trkpt>
      <trkpt lat="45.95875" lon="0.12161">
        <ele>103.0390625</ele>
      </trkpt>
      <trkpt lat="45.95859" lon="0.12149">
        <ele>102.87109375</ele>
      </trkpt>
      <trkpt lat="45.95829" lon="0.1213">
        <ele>102.33203125</ele>
      </trkpt>
      <trkpt lat="45.95804" lon="0.12115">
        <ele>102</ele>
      </trkpt>
      <trkpt lat="45.95766" lon="0.12096">
        <ele>101.734375</ele>
      </trkpt>
      <trkpt lat="45.95737" lon="0.12084">
        <ele>100.72265625</ele>
      </trkpt>
      <trkpt lat="45.95712" lon="0.12074">
        <ele>99.77734375</ele>
      </trkpt>
      <trkpt lat="45.9569" lon="0.12067">
        <ele>99.0859375</ele>
      </trkpt>
      <trkpt lat="45.95656" lon="0.12065">
        <ele>98.265625</ele>
      </trkpt>
      <trkpt lat="45.95626" lon="0.12064">
        <ele>97.4296875</ele>
      </trkpt>
      <trkpt lat="45.95603" lon="0.12062">
        <ele>96.67578125</ele>
      </trkpt>
      <trkpt lat="45.9559" lon="0.12061">
        <ele>96.26953125</ele>
      </trkpt>
      <trkpt lat="45.95586" lon="0.12056">
        <ele>96.046875</ele>
      </trkpt>
      <trkpt lat="45.95584" lon="0.12049">
        <ele>95.83203125</ele>
      </trkpt>
      <trkpt lat="45.95578" lon="0.12029">
        <ele>94.95703125</ele>
      </trkpt>
      <trkpt lat="45.95574" lon="0.12016">
        <ele>94.4453125</ele>
      </trkpt>
      <trkpt lat="45.95571" lon="0.1201">
        <ele>94.18359375</ele>
      </trkpt>
      <trkpt lat="45.95566" lon="0.12008">
        <ele>94.0234375</ele>
      </trkpt>
      <trkpt lat="45.95549" lon="0.12004">
        <ele>93.5546875</ele>
      </trkpt>
      <trkpt lat="45.95526" lon="0.11999">
        <ele>93.08984375</ele>
      </trkpt>
      <trkpt lat="45.95499" lon="0.11996">
        <ele>93.01953125</ele>
      </trkpt>
      <trkpt lat="45.95485" lon="0.11994">
        <ele>93.00390625</ele>
      </trkpt>
      <trkpt lat="45.95455" lon="0.11985">
        <ele>92.859375</ele>
      </trkpt>
      <trkpt lat="45.95427" lon="0.11976">
        <ele>92.6953125</ele>
      </trkpt>
      <trkpt lat="45.95405" lon="0.11968">
        <ele>92.08984375</ele>
      </trkpt>
      <trkpt lat="45.9539" lon="0.11962">
        <ele>91.5390625</ele>
      </trkpt>
      <trkpt lat="45.95374" lon="0.11957">
        <ele>90.92578125</ele>
      </trkpt>
      <trkpt lat="45.95358" lon="0.11952">
        <ele>90.4921875</ele>
      </trkpt>
      <trkpt lat="45.95342" lon="0.11949">
        <ele>90.31640625</ele>
      </trkpt>
      <trkpt lat="45.9533" lon="0.11946">
        <ele>90.2109375</ele>
      </trkpt>
      <trkpt lat="45.95314" lon="0.11939">
        <ele>90.03125</ele>
      </trkpt>
      <trkpt lat="45.95299" lon="0.11928">
        <ele>89.5</ele>
      </trkpt>
      <trkpt lat="45.95287" lon="0.1192">
        <ele>89.07421875</ele>
      </trkpt>
      <trkpt lat="45.95282" lon="0.11916">
        <ele>88.91796875</ele>
      </trkpt>
      <trkpt lat="45.9528" lon="0.11911">
        <ele>88.75390625</ele>
      </trkpt>
      <trkpt lat="45.95283" lon="0.11859">
        <ele>87.59375</ele>
      </trkpt>
      <trkpt lat="45.95287" lon="0.11801">
        <ele>86.5390625</ele>
      </trkpt>
      <trkpt lat="45.95289" lon="0.11776">
        <ele>86.09375</ele>
      </trkpt>
      <trkpt lat="45.95296" lon="0.1175">
        <ele>85.25390625</ele>
      </trkpt>
      <trkpt lat="45.95307" lon="0.11707">
        <ele>83.85546875</ele>
      </trkpt>
      <trkpt lat="45.9532" lon="0.11672">
        <ele>83.2578125</ele>
      </trkpt>
      <trkpt lat="45.95326" lon="0.1166">
        <ele>83.015625</ele>
      </trkpt>
      <trkpt lat="45.95343" lon="0.1166">
        <ele>83.01953125</ele>
      </trkpt>
      <trkpt lat="45.95373" lon="0.11664">
        <ele>83.265625</ele>
      </trkpt>
      <trkpt lat="45.95394" lon="0.11669">
        <ele>83.75</ele>
      </trkpt>
      <trkpt lat="45.95414" lon="0.11669">
        <ele>84.05859375</ele>
      </trkpt>
      <trkpt lat="45.95433" lon="0.11669">
        <ele>84.37109375</ele>
      </trkpt>
      <trkpt lat="45.95442" lon="0.11669">
        <ele>84.53515625</ele>
      </trkpt>
      <trkpt lat="45.95442" lon="0.1165">
        <ele>84.18359375</ele>
      </trkpt>
      <trkpt lat="45.95444" lon="0.11612">
        <ele>83.53515625</ele>
      </trkpt>
      <trkpt lat="45.95449" lon="0.11556">
        <ele>82.625</ele>
      </trkpt>
      <trkpt lat="45.95452" lon="0.11538">
        <ele>82.53515625</ele>
      </trkpt>
      <trkpt lat="45.95446" lon="0.11516">
        <ele>82.421875</ele>
      </trkpt>
      <trkpt lat="45.95446" lon="0.11497">
        <ele>82.421875</ele>
      </trkpt>
      <trkpt lat="45.95444" lon="0.11485">
        <ele>82.44921875</ele>
      </trkpt>
      <trkpt lat="45.95449" lon="0.11451">
        <ele>82.85546875</ele>
      </trkpt>
      <trkpt lat="45.95451" lon="0.11413">
        <ele>83.69921875</ele>
      </trkpt>
      <trkpt lat="45.95453" lon="0.11381">
        <ele>84.65625</ele>
      </trkpt>
      <trkpt lat="45.95452" lon="0.11333">
        <ele>84.6171875</ele>
      </trkpt>
      <trkpt lat="45.95453" lon="0.11302">
        <ele>84.65234375</ele>
      </trkpt>
      <trkpt lat="45.95452" lon="0.11285">
        <ele>84.6171875</ele>
      </trkpt>
      <trkpt lat="45.95452" lon="0.11271">
        <ele>84.6171875</ele>
      </trkpt>
      <trkpt lat="45.95454" lon="0.11265">
        <ele>84.734375</ele>
      </trkpt>
      <trkpt lat="45.95457" lon="0.11258">
        <ele>84.94140625</ele>
      </trkpt>
      <trkpt lat="45.95462" lon="0.11253">
        <ele>85.25</ele>
      </trkpt>
      <trkpt lat="45.95473" lon="0.11252">
        <ele>85.76953125</ele>
      </trkpt>
      <trkpt lat="45.95492" lon="0.11247">
        <ele>86.79296875</ele>
      </trkpt>
      <trkpt lat="45.95511" lon="0.11242">
        <ele>87.8125</ele>
      </trkpt>
      <trkpt lat="45.95533" lon="0.11241">
        <ele>88.96484375</ele>
      </trkpt>
      <trkpt lat="45.95552" lon="0.11241">
        <ele>89.50390625</ele>
      </trkpt>
      <trkpt lat="45.95584" lon="0.11247">
        <ele>90.3203125</ele>
      </trkpt>
      <trkpt lat="45.95614" lon="0.11254">
        <ele>90.7578125</ele>
      </trkpt>
      <trkpt lat="45.95642" lon="0.11258">
        <ele>91.18359375</ele>
      </trkpt>
      <trkpt lat="45.95665" lon="0.11262">
        <ele>91.9140625</ele>
      </trkpt>
      <trkpt lat="45.95684" lon="0.11267">
        <ele>92.48828125</ele>
      </trkpt>
      <trkpt lat="45.95706" lon="0.11267">
        <ele>93.1796875</ele>
      </trkpt>
      <trkpt lat="45.95728" lon="0.11265">
        <ele>93.609375</ele>
      </trkpt>
      <trkpt lat="45.95744" lon="0.11264">
        <ele>93.91796875</ele>
      </trkpt>
      <trkpt lat="45.95772" lon="0.1126">
        <ele>94.484375</ele>
      </trkpt>
      <trkpt lat="45.95804" lon="0.11254">
        <ele>95.1875</ele>
      </trkpt>
      <trkpt lat="45.95826" lon="0.11249">
        <ele>95.6640625</ele>
      </trkpt>
      <trkpt lat="45.95845" lon="0.11245">
        <ele>96.0859375</ele>
      </trkpt>
      <trkpt lat="45.95844" lon="0.11192">
        <ele>96.59765625</ele>
      </trkpt>
      <trkpt lat="45.95845" lon="0.1112">
        <ele>97.33203125</ele>
      </trkpt>
      <trkpt lat="45.95844" lon="0.11047">
        <ele>97.62109375</ele>
      </trkpt>
      <trkpt lat="45.95844" lon="0.10937">
        <ele>98.6171875</ele>
      </trkpt>
      <trkpt lat="45.95846" lon="0.10873">
        <ele>100</ele>
      </trkpt>
      <trkpt lat="45.95849" lon="0.10859">
        <ele>100.359375</ele>
      </trkpt>
      <trkpt lat="45.95855" lon="0.10851">
        <ele>100.82421875</ele>
      </trkpt>
      <trkpt lat="45.95864" lon="0.10852">
        <ele>101.375</ele>
      </trkpt>
      <trkpt lat="45.95883" lon="0.10855">
        <ele>102.63671875</ele>
      </trkpt>
      <trkpt lat="45.95894" lon="0.10854">
        <ele>103.48046875</ele>
      </trkpt>
      <trkpt lat="45.95901" lon="0.10843">
        <ele>104.46875</ele>
      </trkpt>
      <trkpt lat="45.95908" lon="0.10822">
        <ele>105.8671875</ele>
      </trkpt>
      <trkpt lat="45.95915" lon="0.10793">
        <ele>107.5390625</ele>
      </trkpt>
      <trkpt lat="45.95922" lon="0.10755">
        <ele>109.8828125</ele>
      </trkpt>
      <trkpt lat="45.95928" lon="0.10721">
        <ele>112.1640625</ele>
      </trkpt>
      <trkpt lat="45.95933" lon="0.10679">
        <ele>114.2421875</ele>
      </trkpt>
      <trkpt lat="45.95942" lon="0.10629">
        <ele>117.26953125</ele>
      </trkpt>
      <trkpt lat="45.95954" lon="0.10558">
        <ele>121.36328125</ele>
      </trkpt>
      <trkpt lat="45.95979" lon="0.10458">
        <ele>124.625</ele>
      </trkpt>
      <trkpt lat="45.95994" lon="0.10385">
        <ele>125.65234375</ele>
      </trkpt>
      <trkpt lat="45.96006" lon="0.10333">
        <ele>125.9296875</ele>
      </trkpt>
      <trkpt lat="45.96009" lon="0.10313">
        <ele>125.8671875</ele>
      </trkpt>
      <trkpt lat="45.96042" lon="0.10333">
        <ele>124.6484375</ele>
      </trkpt>
      <trkpt lat="45.96125" lon="0.1038">
        <ele>119.421875</ele>
      </trkpt>
      <trkpt lat="45.96177" lon="0.10411">
        <ele>113.66015625</ele>
      </trkpt>
      <trkpt lat="45.96204" lon="0.10426">
        <ele>110.6953125</ele>
      </trkpt>
      <trkpt lat="45.96209" lon="0.10431">
        <ele>110.34375</ele>
      </trkpt>
      <trkpt lat="45.96209" lon="0.10426">
        <ele>110.34375</ele>
      </trkpt>
      <trkpt lat="45.96225" lon="0.10301">
        <ele>110.44140625</ele>
      </trkpt>
      <trkpt lat="45.96244" lon="0.10147">
        <ele>111.1796875</ele>
      </trkpt>
      <trkpt lat="45.96252" lon="0.10104">
        <ele>111.26171875</ele>
      </trkpt>
      <trkpt lat="45.96255" lon="0.10092">
        <ele>111.2578125</ele>
      </trkpt>
      <trkpt lat="45.9626" lon="0.10074">
        <ele>111.32421875</ele>
      </trkpt>
      <trkpt lat="45.96269" lon="0.10043">
        <ele>111.6171875</ele>
      </trkpt>
      <trkpt lat="45.96272" lon="0.10035">
        <ele>111.65625</ele>
      </trkpt>
      <trkpt lat="45.96265" lon="0.10027">
        <ele>112.0625</ele>
      </trkpt>
      <trkpt lat="45.96241" lon="0.10005">
        <ele>113.3671875</ele>
      </trkpt>
      <trkpt lat="45.96217" lon="0.0998">
        <ele>114.36328125</ele>
      </trkpt>
      <trkpt lat="45.96189" lon="0.0996">
        <ele>115.4375</ele>
      </trkpt>
      <trkpt lat="45.96186" lon="0.09958">
        <ele>115.55859375</ele>
      </trkpt>
      <trkpt lat="45.96167" lon="0.09946">
        <ele>116.25390625</ele>
      </trkpt>
      <trkpt lat="45.96149" lon="0.09936">
        <ele>116.7578125</ele>
      </trkpt>
      <trkpt lat="45.96127" lon="0.09929">
        <ele>117.3046875</ele>
      </trkpt>
      <trkpt lat="45.96089" lon="0.09919">
        <ele>118.6484375</ele>
      </trkpt>
      <trkpt lat="45.96064" lon="0.09915">
        <ele>119.26953125</ele>
      </trkpt>
      <trkpt lat="45.96024" lon="0.09898">
        <ele>119.71875</ele>
      </trkpt>
      <trkpt lat="45.96028" lon="0.099">
        <ele>119.70703125</ele>
      </trkpt>
      <trkpt lat="45.96024" lon="0.09898">
        <ele>119.71875</ele>
      </trkpt>
      <trkpt lat="45.95966" lon="0.09872">
        <ele>119.796875</ele>
      </trkpt>
      <trkpt lat="45.95945" lon="0.09862">
        <ele>119.8359375</ele>
      </trkpt>
      <trkpt lat="45.95914" lon="0.09854">
        <ele>120.203125</ele>
      </trkpt>
      <trkpt lat="45.95886" lon="0.09845">
        <ele>120.7265625</ele>
      </trkpt>
      <trkpt lat="45.95829" lon="0.09809">
        <ele>122.48828125</ele>
      </trkpt>
      <trkpt lat="45.95798" lon="0.09792">
        <ele>123.12109375</ele>
      </trkpt>
      <trkpt lat="45.9574" lon="0.09769">
        <ele>124.50390625</ele>
      </trkpt>
      <trkpt lat="45.95717" lon="0.09757">
        <ele>125.1015625</ele>
      </trkpt>
      <trkpt lat="45.95704" lon="0.09748">
        <ele>125.41015625</ele>
      </trkpt>
      <trkpt lat="45.95689" lon="0.09733">
        <ele>125.43359375</ele>
      </trkpt>
      <trkpt lat="45.95677" lon="0.09714">
        <ele>125.375</ele>
      </trkpt>
      <trkpt lat="45.95651" lon="0.09653">
        <ele>124.7578125</ele>
      </trkpt>
      <trkpt lat="45.95643" lon="0.09639">
        <ele>124.60546875</ele>
      </trkpt>
      <trkpt lat="45.9565" lon="0.0962">
        <ele>124.23046875</ele>
      </trkpt>
      <trkpt lat="45.95632" lon="0.0961">
        <ele>124.08203125</ele>
      </trkpt>
      <trkpt lat="45.95604" lon="0.09596">
        <ele>123.83203125</ele>
      </trkpt>
      <trkpt lat="45.95515" lon="0.09557">
        <ele>122.47265625</ele>
      </trkpt>
      <trkpt lat="45.95466" lon="0.0954">
        <ele>123.03515625</ele>
      </trkpt>
      <trkpt lat="45.95452" lon="0.09535">
        <ele>123.1875</ele>
      </trkpt>
      <trkpt lat="45.95413" lon="0.09533">
        <ele>123.86328125</ele>
      </trkpt>
      <trkpt lat="45.95393" lon="0.09534">
        <ele>124.23046875</ele>
      </trkpt>
      <trkpt lat="45.9538" lon="0.0953">
        <ele>124.40625</ele>
      </trkpt>
      <trkpt lat="45.95368" lon="0.09525">
        <ele>124.54296875</ele>
      </trkpt>
      <trkpt lat="45.95318" lon="0.09504">
        <ele>124.89453125</ele>
      </trkpt>
      <trkpt lat="45.95285" lon="0.09488">
        <ele>125</ele>
      </trkpt>
      <trkpt lat="45.95258" lon="0.09468">
        <ele>125</ele>
      </trkpt>
      <trkpt lat="45.95233" lon="0.09459">
        <ele>125</ele>
      </trkpt>
      <trkpt lat="45.95211" lon="0.09451">
        <ele>125</ele>
      </trkpt>
      <trkpt lat="45.95181" lon="0.09444">
        <ele>124.68359375</ele>
      </trkpt>
      <trkpt lat="45.9514" lon="0.0943">
        <ele>123.98828125</ele>
      </trkpt>
      <trkpt lat="45.9508" lon="0.09414">
        <ele>123.45703125</ele>
      </trkpt>
      <trkpt lat="45.95052" lon="0.09408">
        <ele>123.1484375</ele>
      </trkpt>
      <trkpt lat="45.95015" lon="0.09406">
        <ele>123</ele>
      </trkpt>
      <trkpt lat="45.9498" lon="0.09396">
        <ele>123</ele>
      </trkpt>
      <trkpt lat="45.94966" lon="0.09395">
        <ele>123</ele>
      </trkpt>
      <trkpt lat="45.94959" lon="0.09395">
        <ele>123</ele>
      </trkpt>
      <trkpt lat="45.94947" lon="0.09397">
        <ele>123</ele>
      </trkpt>
      <trkpt lat="45.94936" lon="0.09399">
        <ele>123</ele>
      </trkpt>
      <trkpt lat="45.94929" lon="0.09399">
        <ele>123</ele>
      </trkpt>
      <trkpt lat="45.9492" lon="0.09396">
        <ele>122.98828125</ele>
      </trkpt>
      <trkpt lat="45.94894" lon="0.09388">
        <ele>122.95703125</ele>
      </trkpt>
      <trkpt lat="45.94875" lon="0.0938">
        <ele>123</ele>
      </trkpt>
      <trkpt lat="45.94856" lon="0.09374">
        <ele>122.83203125</ele>
      </trkpt>
      <trkpt lat="45.94838" lon="0.0937">
        <ele>122.6015625</ele>
      </trkpt>
      <trkpt lat="45.94823" lon="0.09368">
        <ele>122.41015625</ele>
      </trkpt>
      <trkpt lat="45.94801" lon="0.09368">
        <ele>122.265625</ele>
      </trkpt>
      <trkpt lat="45.94781" lon="0.09368">
        <ele>122.265625</ele>
      </trkpt>
      <trkpt lat="45.94751" lon="0.09372">
        <ele>122.20703125</ele>
      </trkpt>
      <trkpt lat="45.94739" lon="0.09373">
        <ele>122.1875</ele>
      </trkpt>
      <trkpt lat="45.94729" lon="0.09372">
        <ele>122.20703125</ele>
      </trkpt>
      <trkpt lat="45.94723" lon="0.0937">
        <ele>122.24609375</ele>
      </trkpt>
      <trkpt lat="45.94714" lon="0.09365">
        <ele>122.32421875</ele>
      </trkpt>
      <trkpt lat="45.94708" lon="0.0936">
        <ele>122.421875</ele>
      </trkpt>
      <trkpt lat="45.94699" lon="0.09349">
        <ele>122.58984375</ele>
      </trkpt>
      <trkpt lat="45.9469" lon="0.09335">
        <ele>122.66796875</ele>
      </trkpt>
      <trkpt lat="45.94675" lon="0.09304">
        <ele>122.73046875</ele>
      </trkpt>
      <trkpt lat="45.94668" lon="0.09293">
        <ele>122.77734375</ele>
      </trkpt>
      <trkpt lat="45.94661" lon="0.0928">
        <ele>122.890625</ele>
      </trkpt>
      <trkpt lat="45.9464" lon="0.09256">
        <ele>123</ele>
      </trkpt>
      <trkpt lat="45.94619" lon="0.09229">
        <ele>123</ele>
      </trkpt>
      <trkpt lat="45.94586" lon="0.09188">
        <ele>123</ele>
      </trkpt>
      <trkpt lat="45.94568" lon="0.09167">
        <ele>123</ele>
      </trkpt>
      <trkpt lat="45.94551" lon="0.09142">
        <ele>122.89453125</ele>
      </trkpt>
      <trkpt lat="45.94529" lon="0.09102">
        <ele>122.94921875</ele>
      </trkpt>
      <trkpt lat="45.94514" lon="0.09069">
        <ele>122.5859375</ele>
      </trkpt>
      <trkpt lat="45.94502" lon="0.09043">
        <ele>122.5078125</ele>
      </trkpt>
      <trkpt lat="45.9449" lon="0.09017">
        <ele>122.3125</ele>
      </trkpt>
      <trkpt lat="45.94471" lon="0.08978">
        <ele>122.140625</ele>
      </trkpt>
      <trkpt lat="45.94454" lon="0.08941">
        <ele>122.44921875</ele>
      </trkpt>
      <trkpt lat="45.94444" lon="0.08918">
        <ele>122.38671875</ele>
      </trkpt>
      <trkpt lat="45.94436" lon="0.08895">
        <ele>122.16015625</ele>
      </trkpt>
      <trkpt lat="45.94432" lon="0.08878">
        <ele>122</ele>
      </trkpt>
      <trkpt lat="45.94429" lon="0.08862">
        <ele>122</ele>
      </trkpt>
      <trkpt lat="45.94422" lon="0.08827">
        <ele>121.96484375</ele>
      </trkpt>
      <trkpt lat="45.94416" lon="0.08805">
        <ele>121.515625</ele>
      </trkpt>
      <trkpt lat="45.94411" lon="0.08789">
        <ele>121.234375</ele>
      </trkpt>
      <trkpt lat="45.94403" lon="0.08771">
        <ele>120.98828125</ele>
      </trkpt>
      <trkpt lat="45.94392" lon="0.08753">
        <ele>120.8046875</ele>
      </trkpt>
      <trkpt lat="45.94373" lon="0.08723">
        <ele>120.19140625</ele>
      </trkpt>
      <trkpt lat="45.94358" lon="0.08697">
        <ele>120</ele>
      </trkpt>
      <trkpt lat="45.94346" lon="0.08674">
        <ele>120</ele>
      </trkpt>
      <trkpt lat="45.94331" lon="0.0864">
        <ele>119.61328125</ele>
      </trkpt>
      <trkpt lat="45.94322" lon="0.08616">
        <ele>119.1875</ele>
      </trkpt>
      <trkpt lat="45.94317" lon="0.08609">
        <ele>119.0546875</ele>
      </trkpt>
      <trkpt lat="45.9431" lon="0.08599">
        <ele>119</ele>
      </trkpt>
      <trkpt lat="45.94278" lon="0.08563">
        <ele>119</ele>
      </trkpt>
      <trkpt lat="45.94266" lon="0.08548">
        <ele>118.953125</ele>
      </trkpt>
      <trkpt lat="45.94255" lon="0.08532">
        <ele>118.66015625</ele>
      </trkpt>
      <trkpt lat="45.94246" lon="0.08514">
        <ele>118.3515625</ele>
      </trkpt>
      <trkpt lat="45.94236" lon="0.0849">
        <ele>117.91015625</ele>
      </trkpt>
      <trkpt lat="45.94226" lon="0.08466">
        <ele>117.484375</ele>
      </trkpt>
      <trkpt lat="45.94213" lon="0.08425">
        <ele>117</ele>
      </trkpt>
      <trkpt lat="45.94206" lon="0.08403">
        <ele>117</ele>
      </trkpt>
      <trkpt lat="45.94199" lon="0.08386">
        <ele>117.03125</ele>
      </trkpt>
      <trkpt lat="45.94187" lon="0.08363">
        <ele>116.9609375</ele>
      </trkpt>
      <trkpt lat="45.94168" lon="0.0833">
        <ele>117.19140625</ele>
      </trkpt>
      <trkpt lat="45.94153" lon="0.08303">
        <ele>117.328125</ele>
      </trkpt>
      <trkpt lat="45.9414" lon="0.08277">
        <ele>117.17578125</ele>
      </trkpt>
      <trkpt lat="45.94129" lon="0.08253">
        <ele>117.28515625</ele>
      </trkpt>
      <trkpt lat="45.94122" lon="0.08234">
        <ele>117.421875</ele>
      </trkpt>
      <trkpt lat="45.94117" lon="0.08217">
        <ele>117.515625</ele>
      </trkpt>
      <trkpt lat="45.94113" lon="0.08201">
        <ele>117.453125</ele>
      </trkpt>
      <trkpt lat="45.94109" lon="0.0818">
        <ele>117.41796875</ele>
      </trkpt>
      <trkpt lat="45.94103" lon="0.08137">
        <ele>117.19140625</ele>
      </trkpt>
      <trkpt lat="45.94101" lon="0.0812">
        <ele>117</ele>
      </trkpt>
      <trkpt lat="45.94101" lon="0.08098">
        <ele>116.69140625</ele>
      </trkpt>
      <trkpt lat="45.94099" lon="0.08072">
        <ele>116.32421875</ele>
      </trkpt>
      <trkpt lat="45.94098" lon="0.08058">
        <ele>116.1171875</ele>
      </trkpt>
      <trkpt lat="45.94097" lon="0.08036">
        <ele>115.734375</ele>
      </trkpt>
      <trkpt lat="45.94096" lon="0.08022">
        <ele>115.48828125</ele>
      </trkpt>
      <trkpt lat="45.94094" lon="0.07998">
        <ele>115.05859375</ele>
      </trkpt>
      <trkpt lat="45.94091" lon="0.07946">
        <ele>114.109375</ele>
      </trkpt>
      <trkpt lat="45.94087" lon="0.07884">
        <ele>111.98046875</ele>
      </trkpt>
      <trkpt lat="45.94083" lon="0.07844">
        <ele>110.55078125</ele>
      </trkpt>
      <trkpt lat="45.9408" lon="0.07819">
        <ele>109.80078125</ele>
      </trkpt>
      <trkpt lat="45.94075" lon="0.07791">
        <ele>109.1484375</ele>
      </trkpt>
      <trkpt lat="45.94069" lon="0.07765">
        <ele>108.53515625</ele>
      </trkpt>
      <trkpt lat="45.94064" lon="0.07737">
        <ele>108.18359375</ele>
      </trkpt>
      <trkpt lat="45.94061" lon="0.07714">
        <ele>107.93359375</ele>
      </trkpt>
      <trkpt lat="45.94058" lon="0.07685">
        <ele>107.32421875</ele>
      </trkpt>
      <trkpt lat="45.94053" lon="0.07637">
        <ele>106.38671875</ele>
      </trkpt>
      <trkpt lat="45.94049" lon="0.07609">
        <ele>105.828125</ele>
      </trkpt>
      <trkpt lat="45.94046" lon="0.07589">
        <ele>105.23046875</ele>
      </trkpt>
      <trkpt lat="45.9404" lon="0.07564">
        <ele>104.48046875</ele>
      </trkpt>
      <trkpt lat="45.94034" lon="0.0754">
        <ele>104</ele>
      </trkpt>
      <trkpt lat="45.94026" lon="0.07515">
        <ele>103.90625</ele>
      </trkpt>
      <trkpt lat="45.94018" lon="0.07493">
        <ele>103.70703125</ele>
      </trkpt>
      <trkpt lat="45.94009" lon="0.07471">
        <ele>103.55078125</ele>
      </trkpt>
      <trkpt lat="45.93995" lon="0.07445">
        <ele>103.30078125</ele>
      </trkpt>
      <trkpt lat="45.93972" lon="0.07406">
        <ele>102.515625</ele>
      </trkpt>
      <trkpt lat="45.93936" lon="0.07349">
        <ele>102.76171875</ele>
      </trkpt>
      <trkpt lat="45.93915" lon="0.07314">
        <ele>103.0703125</ele>
      </trkpt>
      <trkpt lat="45.93878" lon="0.07246">
        <ele>104.02734375</ele>
      </trkpt>
      <trkpt lat="45.93858" lon="0.07208">
        <ele>104.6640625</ele>
      </trkpt>
      <trkpt lat="45.93851" lon="0.07194">
        <ele>105.0546875</ele>
      </trkpt>
      <trkpt lat="45.93816" lon="0.07122">
        <ele>106.0546875</ele>
      </trkpt>
      <trkpt lat="45.93783" lon="0.07055">
        <ele>107.1796875</ele>
      </trkpt>
      <trkpt lat="45.93758" lon="0.07009">
        <ele>108.1484375</ele>
      </trkpt>
      <trkpt lat="45.93743" lon="0.06985">
        <ele>108.91796875</ele>
      </trkpt>
      <trkpt lat="45.93736" lon="0.06971">
        <ele>109.3359375</ele>
      </trkpt>
      <trkpt lat="45.93721" lon="0.06949">
        <ele>110.01953125</ele>
      </trkpt>
      <trkpt lat="45.9371" lon="0.06934">
        <ele>110.41015625</ele>
      </trkpt>
      <trkpt lat="45.93698" lon="0.06923">
        <ele>110.90625</ele>
      </trkpt>
      <trkpt lat="45.93689" lon="0.06917">
        <ele>111.48828125</ele>
      </trkpt>
      <trkpt lat="45.93678" lon="0.06892">
        <ele>111.81640625</ele>
      </trkpt>
      <trkpt lat="45.93667" lon="0.06872">
        <ele>112.3125</ele>
      </trkpt>
      <trkpt lat="45.9365" lon="0.06888">
        <ele>113.75</ele>
      </trkpt>
      <trkpt lat="45.93622" lon="0.06913">
        <ele>115.78125</ele>
      </trkpt>
      <trkpt lat="45.93592" lon="0.06944">
        <ele>118.92578125</ele>
      </trkpt>
      <trkpt lat="45.93541" lon="0.06996">
        <ele>122.63671875</ele>
      </trkpt>
      <trkpt lat="45.93531" lon="0.07007">
        <ele>123.33984375</ele>
      </trkpt>
      <trkpt lat="45.93514" lon="0.07022">
        <ele>124.2265625</ele>
      </trkpt>
      <trkpt lat="45.93504" lon="0.06996">
        <ele>124.11328125</ele>
      </trkpt>
      <trkpt lat="45.93495" lon="0.06974">
        <ele>123.33984375</ele>
      </trkpt>
      <trkpt lat="45.93493" lon="0.06968">
        <ele>123.09765625</ele>
      </trkpt>
      <trkpt lat="45.93481" lon="0.06948">
        <ele>122.3671875</ele>
      </trkpt>
      <trkpt lat="45.93463" lon="0.06917">
        <ele>122.03515625</ele>
      </trkpt>
      <trkpt lat="45.93454" lon="0.06889">
        <ele>121.5703125</ele>
      </trkpt>
      <trkpt lat="45.93426" lon="0.0683">
        <ele>118.94921875</ele>
      </trkpt>
      <trkpt lat="45.93435" lon="0.06822">
        <ele>118.36328125</ele>
      </trkpt>
      <trkpt lat="45.93424" lon="0.06791">
        <ele>117.60546875</ele>
      </trkpt>
      <trkpt lat="45.93416" lon="0.06769">
        <ele>116.984375</ele>
      </trkpt>
      <trkpt lat="45.93411" lon="0.06757">
        <ele>116.6328125</ele>
      </trkpt>
      <trkpt lat="45.93405" lon="0.06745">
        <ele>116.3125</ele>
      </trkpt>
      <trkpt lat="45.934" lon="0.06737">
        <ele>116.10546875</ele>
      </trkpt>
      <trkpt lat="45.93394" lon="0.06735">
        <ele>116.1328125</ele>
      </trkpt>
      <trkpt lat="45.9339" lon="0.06755">
        <ele>116.92578125</ele>
      </trkpt>
      <trkpt lat="45.93365" lon="0.06847">
        <ele>120.65234375</ele>
      </trkpt>
      <trkpt lat="45.93345" lon="0.06918">
        <ele>123.9609375</ele>
      </trkpt>
      <trkpt lat="45.93337" lon="0.06947">
        <ele>125.171875</ele>
      </trkpt>
      <trkpt lat="45.93329" lon="0.06944">
        <ele>125.08203125</ele>
      </trkpt>
      <trkpt lat="45.93325" lon="0.06942">
        <ele>125.03125</ele>
      </trkpt>
      <trkpt lat="45.93299" lon="0.069">
        <ele>123.0390625</ele>
      </trkpt>
      <trkpt lat="45.93295" lon="0.06893">
        <ele>122.671875</ele>
      </trkpt>
      <trkpt lat="45.93282" lon="0.06867">
        <ele>121.09375</ele>
      </trkpt>
      <trkpt lat="45.93275" lon="0.06849">
        <ele>120.1796875</ele>
      </trkpt>
      <trkpt lat="45.93251" lon="0.06872">
        <ele>120.203125</ele>
      </trkpt>
      <trkpt lat="45.93241" lon="0.06884">
        <ele>120.10546875</ele>
      </trkpt>
      <trkpt lat="45.93223" lon="0.06908">
        <ele>120.0078125</ele>
      </trkpt>
      <trkpt lat="45.93209" lon="0.06878">
        <ele>118.16015625</ele>
      </trkpt>
      <trkpt lat="45.93198" lon="0.0685">
        <ele>116.66796875</ele>
      </trkpt>
      <trkpt lat="45.93185" lon="0.06828">
        <ele>115.390625</ele>
      </trkpt>
      <trkpt lat="45.93143" lon="0.06845">
        <ele>114.8203125</ele>
      </trkpt>
      <trkpt lat="45.93133" lon="0.06847">
        <ele>114.8671875</ele>
      </trkpt>
      <trkpt lat="45.93127" lon="0.06845">
        <ele>114.74609375</ele>
      </trkpt>
      <trkpt lat="45.93117" lon="0.0684">
        <ele>114.4609375</ele>
      </trkpt>
      <trkpt lat="45.93106" lon="0.06834">
        <ele>114.203125</ele>
      </trkpt>
      <trkpt lat="45.93103" lon="0.06833">
        <ele>114.1640625</ele>
      </trkpt>
      <trkpt lat="45.93096" lon="0.06833">
        <ele>114.125</ele>
      </trkpt>
      <trkpt lat="45.93089" lon="0.06818">
        <ele>113.8359375</ele>
      </trkpt>
      <trkpt lat="45.93081" lon="0.06796">
        <ele>113.6640625</ele>
      </trkpt>
      <trkpt lat="45.93076" lon="0.06786">
        <ele>113.67578125</ele>
      </trkpt>
      <trkpt lat="45.93068" lon="0.06773">
        <ele>113.828125</ele>
      </trkpt>
      <trkpt lat="45.93044" lon="0.06728">
        <ele>116.0703125</ele>
      </trkpt>
      <trkpt lat="45.93049" lon="0.06707">
        <ele>116.41796875</ele>
      </trkpt>
      <trkpt lat="45.93066" lon="0.0667">
        <ele>116.47265625</ele>
      </trkpt>
      <trkpt lat="45.93063" lon="0.06652">
        <ele>117.28125</ele>
      </trkpt>
      <trkpt lat="45.93047" lon="0.06625">
        <ele>118.9375</ele>
      </trkpt>
      <trkpt lat="45.93006" lon="0.06552">
        <ele>123.0234375</ele>
      </trkpt>
      <trkpt lat="45.92987" lon="0.0652">
        <ele>124.39453125</ele>
      </trkpt>
      <trkpt lat="45.92978" lon="0.06507">
        <ele>124.828125</ele>
      </trkpt>
      <trkpt lat="45.92972" lon="0.06486">
        <ele>125.32421875</ele>
      </trkpt>
      <trkpt lat="45.92953" lon="0.06523">
        <ele>124.99609375</ele>
      </trkpt>
      <trkpt lat="45.9295" lon="0.06538">
        <ele>124.765625</ele>
      </trkpt>
      <trkpt lat="45.92949" lon="0.06571">
        <ele>124.015625</ele>
      </trkpt>
      <trkpt lat="45.92944" lon="0.0659">
        <ele>123.70703125</ele>
      </trkpt>
      <trkpt lat="45.92937" lon="0.06605">
        <ele>123.5703125</ele>
      </trkpt>
      <trkpt lat="45.92903" lon="0.0666">
        <ele>122.48046875</ele>
      </trkpt>
      <trkpt lat="45.92898" lon="0.06667">
        <ele>122.16796875</ele>
      </trkpt>
      <trkpt lat="45.92887" lon="0.0669">
        <ele>121.04296875</ele>
      </trkpt>
      <trkpt lat="45.92882" lon="0.06706">
        <ele>120.24609375</ele>
      </trkpt>
      <trkpt lat="45.92906" lon="0.06726">
        <ele>118.44140625</ele>
      </trkpt>
      <trkpt lat="45.9293" lon="0.06746">
        <ele>117.4453125</ele>
      </trkpt>
      <trkpt lat="45.9293" lon="0.0675">
        <ele>117.3671875</ele>
      </trkpt>
      <trkpt lat="45.92928" lon="0.06751">
        <ele>117.359375</ele>
      </trkpt>
      <trkpt lat="45.92892" lon="0.0675">
        <ele>118.23046875</ele>
      </trkpt>
      <trkpt lat="45.92871" lon="0.06752">
        <ele>118.7265625</ele>
      </trkpt>
      <trkpt lat="45.9284" lon="0.06757">
        <ele>120.13671875</ele>
      </trkpt>
      <trkpt lat="45.92798" lon="0.06764">
        <ele>121.94921875</ele>
      </trkpt>
      <trkpt lat="45.92754" lon="0.06771">
        <ele>123.31640625</ele>
      </trkpt>
      <trkpt lat="45.92706" lon="0.06772">
        <ele>125.84375</ele>
      </trkpt>
      <trkpt lat="45.9269" lon="0.06772">
        <ele>126.48828125</ele>
      </trkpt>
      <trkpt lat="45.92671" lon="0.06771">
        <ele>127.16015625</ele>
      </trkpt>
      <trkpt lat="45.92654" lon="0.0677">
        <ele>127.7890625</ele>
      </trkpt>
      <trkpt lat="45.92641" lon="0.06768">
        <ele>128.19140625</ele>
      </trkpt>
      <trkpt lat="45.92622" lon="0.06764">
        <ele>128.6171875</ele>
      </trkpt>
      <trkpt lat="45.92602" lon="0.0676">
        <ele>129.04296875</ele>
      </trkpt>
      <trkpt lat="45.92572" lon="0.06755">
        <ele>129.33984375</ele>
      </trkpt>
      <trkpt lat="45.92561" lon="0.06754">
        <ele>129.359375</ele>
      </trkpt>
      <trkpt lat="45.92549" lon="0.06751">
        <ele>129.4140625</ele>
      </trkpt>
      <trkpt lat="45.92533" lon="0.06746">
        <ele>129.4921875</ele>
      </trkpt>
      <trkpt lat="45.92513" lon="0.0674">
        <ele>129.609375</ele>
      </trkpt>
      <trkpt lat="45.92483" lon="0.06735">
        <ele>129.70703125</ele>
      </trkpt>
      <trkpt lat="45.92474" lon="0.06732">
        <ele>129.7421875</ele>
      </trkpt>
      <trkpt lat="45.92465" lon="0.06729">
        <ele>129.80078125</ele>
      </trkpt>
      <trkpt lat="45.92448" lon="0.06721">
        <ele>129.95703125</ele>
      </trkpt>
      <trkpt lat="45.92429" lon="0.06711">
        <ele>130.25</ele>
      </trkpt>
      <trkpt lat="45.92417" lon="0.06707">
        <ele>130.66796875</ele>
      </trkpt>
      <trkpt lat="45.9241" lon="0.06704">
        <ele>131.015625</ele>
      </trkpt>
      <trkpt lat="45.92397" lon="0.06702">
        <ele>131.5546875</ele>
      </trkpt>
      <trkpt lat="45.92374" lon="0.067">
        <ele>132.4453125</ele>
      </trkpt>
      <trkpt lat="45.92337" lon="0.06698">
        <ele>133.875</ele>
      </trkpt>
      <trkpt lat="45.92324" lon="0.067">
        <ele>134.23046875</ele>
      </trkpt>
      <trkpt lat="45.92322" lon="0.06704">
        <ele>134.171875</ele>
      </trkpt>
      <trkpt lat="45.92321" lon="0.06712">
        <ele>133.921875</ele>
      </trkpt>
      <trkpt lat="45.92323" lon="0.06743">
        <ele>133.58203125</ele>
      </trkpt>
      <trkpt lat="45.92324" lon="0.06777">
        <ele>133.4375</ele>
      </trkpt>
      <trkpt lat="45.92324" lon="0.0684">
        <ele>133.4453125</ele>
      </trkpt>
      <trkpt lat="45.92325" lon="0.06889">
        <ele>133.70703125</ele>
      </trkpt>
      <trkpt lat="45.92325" lon="0.06942">
        <ele>135.34375</ele>
      </trkpt>
      <trkpt lat="45.92325" lon="0.06995">
        <ele>135.57421875</ele>
      </trkpt>
      <trkpt lat="45.92326" lon="0.07032">
        <ele>136.328125</ele>
      </trkpt>
      <trkpt lat="45.92325" lon="0.07059">
        <ele>136.8984375</ele>
      </trkpt>
      <trkpt lat="45.92324" lon="0.07068">
        <ele>137.046875</ele>
      </trkpt>
      <trkpt lat="45.92324" lon="0.07075">
        <ele>137.15234375</ele>
      </trkpt>
      <trkpt lat="45.92318" lon="0.07077">
        <ele>137.32421875</ele>
      </trkpt>
      <trkpt lat="45.92306" lon="0.07083">
        <ele>137.57421875</ele>
      </trkpt>
      <trkpt lat="45.92279" lon="0.07095">
        <ele>137.78515625</ele>
      </trkpt>
      <trkpt lat="45.9226" lon="0.07105">
        <ele>137.9609375</ele>
      </trkpt>
      <trkpt lat="45.92245" lon="0.07114">
        <ele>137.79296875</ele>
      </trkpt>
      <trkpt lat="45.92234" lon="0.07121">
        <ele>137.68359375</ele>
      </trkpt>
      <trkpt lat="45.9222" lon="0.07125">
        <ele>137.55078125</ele>
      </trkpt>
      <trkpt lat="45.92207" lon="0.07129">
        <ele>137.4453125</ele>
      </trkpt>
      <trkpt lat="45.92192" lon="0.07133">
        <ele>137.3828125</ele>
      </trkpt>
      <trkpt lat="45.92182" lon="0.07138">
        <ele>137.3515625</ele>
      </trkpt>
      <trkpt lat="45.92169" lon="0.07143">
        <ele>137.2578125</ele>
      </trkpt>
      <trkpt lat="45.92152" lon="0.07153">
        <ele>137.07421875</ele>
      </trkpt>
      <trkpt lat="45.92137" lon="0.0716">
        <ele>136.82421875</ele>
      </trkpt>
      <trkpt lat="45.92121" lon="0.07166">
        <ele>136.5703125</ele>
      </trkpt>
      <trkpt lat="45.92102" lon="0.07173">
        <ele>136.22265625</ele>
      </trkpt>
      <trkpt lat="45.92083" lon="0.07177">
        <ele>135.69921875</ele>
      </trkpt>
      <trkpt lat="45.92063" lon="0.07181">
        <ele>135.00390625</ele>
      </trkpt>
      <trkpt lat="45.92043" lon="0.07181">
        <ele>134.2578125</ele>
      </trkpt>
      <trkpt lat="45.92022" lon="0.07184">
        <ele>133.53125</ele>
      </trkpt>
      <trkpt lat="45.92001" lon="0.07188">
        <ele>132.76953125</ele>
      </trkpt>
      <trkpt lat="45.91981" lon="0.07191">
        <ele>132.02734375</ele>
      </trkpt>
      <trkpt lat="45.91962" lon="0.07192">
        <ele>131.1953125</ele>
      </trkpt>
      <trkpt lat="45.9195" lon="0.07197">
        <ele>130.72265625</ele>
      </trkpt>
      <trkpt lat="45.91926" lon="0.07196">
        <ele>129.69140625</ele>
      </trkpt>
      <trkpt lat="45.91908" lon="0.07197">
        <ele>129.02734375</ele>
      </trkpt>
      <trkpt lat="45.91886" lon="0.07194">
        <ele>128.17578125</ele>
      </trkpt>
      <trkpt lat="45.91874" lon="0.07193">
        <ele>127.7265625</ele>
      </trkpt>
      <trkpt lat="45.91858" lon="0.07184">
        <ele>127</ele>
      </trkpt>
      <trkpt lat="45.91841" lon="0.07177">
        <ele>126.26171875</ele>
      </trkpt>
      <trkpt lat="45.91827" lon="0.0717">
        <ele>125.64453125</ele>
      </trkpt>
      <trkpt lat="45.91814" lon="0.07164">
        <ele>125.06640625</ele>
      </trkpt>
      <trkpt lat="45.91801" lon="0.07162">
        <ele>124.54296875</ele>
      </trkpt>
      <trkpt lat="45.91783" lon="0.07155">
        <ele>123.82421875</ele>
      </trkpt>
      <trkpt lat="45.91763" lon="0.07149">
        <ele>122.95703125</ele>
      </trkpt>
      <trkpt lat="45.9175" lon="0.07144">
        <ele>122.5234375</ele>
      </trkpt>
      <trkpt lat="45.91736" lon="0.07143">
        <ele>122.2578125</ele>
      </trkpt>
      <trkpt lat="45.91715" lon="0.07143">
        <ele>121.88671875</ele>
      </trkpt>
      <trkpt lat="45.91699" lon="0.07144">
        <ele>121.609375</ele>
      </trkpt>
      <trkpt lat="45.91684" lon="0.07149">
        <ele>121.41796875</ele>
      </trkpt>
      <trkpt lat="45.9166" lon="0.07153">
        <ele>121.078125</ele>
      </trkpt>
      <trkpt lat="45.91639" lon="0.07158">
        <ele>120.65234375</ele>
      </trkpt>
      <trkpt lat="45.91622" lon="0.07162">
        <ele>120.0859375</ele>
      </trkpt>
      <trkpt lat="45.91605" lon="0.07164">
        <ele>119.50390625</ele>
      </trkpt>
      <trkpt lat="45.91591" lon="0.07164">
        <ele>119.02734375</ele>
      </trkpt>
      <trkpt lat="45.91578" lon="0.07162">
        <ele>119.00390625</ele>
      </trkpt>
      <trkpt lat="45.91565" lon="0.07162">
        <ele>119.00390625</ele>
      </trkpt>
      <trkpt lat="45.91547" lon="0.07164">
        <ele>119.0078125</ele>
      </trkpt>
      <trkpt lat="45.91536" lon="0.07166">
        <ele>119</ele>
      </trkpt>
      <trkpt lat="45.91528" lon="0.07168">
        <ele>119.1171875</ele>
      </trkpt>
      <trkpt lat="45.91524" lon="0.07167">
        <ele>119.1953125</ele>
      </trkpt>
      <trkpt lat="45.91521" lon="0.07164">
        <ele>119.2578125</ele>
      </trkpt>
      <trkpt lat="45.91518" lon="0.07159">
        <ele>119.38671875</ele>
      </trkpt>
      <trkpt lat="45.91518" lon="0.07151">
        <ele>119.5234375</ele>
      </trkpt>
      <trkpt lat="45.91522" lon="0.07137">
        <ele>119.70703125</ele>
      </trkpt>
      <trkpt lat="45.91527" lon="0.07117">
        <ele>119.984375</ele>
      </trkpt>
      <trkpt lat="45.91534" lon="0.0709">
        <ele>120.34375</ele>
      </trkpt>
      <trkpt lat="45.91546" lon="0.07042">
        <ele>121.1953125</ele>
      </trkpt>
      <trkpt lat="45.91552" lon="0.07019">
        <ele>121.7578125</ele>
      </trkpt>
      <trkpt lat="45.91561" lon="0.06962">
        <ele>123.40625</ele>
      </trkpt>
      <trkpt lat="45.91567" lon="0.06935">
        <ele>124.1484375</ele>
      </trkpt>
      <trkpt lat="45.91567" lon="0.06906">
        <ele>124.97265625</ele>
      </trkpt>
      <trkpt lat="45.91575" lon="0.06872">
        <ele>126.00390625</ele>
      </trkpt>
      <trkpt lat="45.91582" lon="0.06833">
        <ele>126.91796875</ele>
      </trkpt>
      <trkpt lat="45.91589" lon="0.06797">
        <ele>128.12890625</ele>
      </trkpt>
      <trkpt lat="45.91601" lon="0.06731">
        <ele>129.1328125</ele>
      </trkpt>
      <trkpt lat="45.91608" lon="0.06698">
        <ele>129.65625</ele>
      </trkpt>
      <trkpt lat="45.91614" lon="0.06668">
        <ele>130.3125</ele>
      </trkpt>
      <trkpt lat="45.91625" lon="0.06625">
        <ele>131.28125</ele>
      </trkpt>
      <trkpt lat="45.91634" lon="0.06584">
        <ele>132.1875</ele>
      </trkpt>
      <trkpt lat="45.91646" lon="0.0652">
        <ele>133.54296875</ele>
      </trkpt>
      <trkpt lat="45.91652" lon="0.06487">
        <ele>134.171875</ele>
      </trkpt>
      <trkpt lat="45.91658" lon="0.06453">
        <ele>134.93359375</ele>
      </trkpt>
      <trkpt lat="45.91666" lon="0.06414">
        <ele>136.29296875</ele>
      </trkpt>
      <trkpt lat="45.91675" lon="0.06381">
        <ele>137.58203125</ele>
      </trkpt>
      <trkpt lat="45.91679" lon="0.06367">
        <ele>137.90625</ele>
      </trkpt>
      <trkpt lat="45.91685" lon="0.06331">
        <ele>138.65234375</ele>
      </trkpt>
      <trkpt lat="45.91694" lon="0.06294">
        <ele>140.1171875</ele>
      </trkpt>
      <trkpt lat="45.91703" lon="0.06256">
        <ele>141.65234375</ele>
      </trkpt>
      <trkpt lat="45.91712" lon="0.06215">
        <ele>143.05078125</ele>
      </trkpt>
      <trkpt lat="45.91719" lon="0.06173">
        <ele>143.5625</ele>
      </trkpt>
      <trkpt lat="45.91726" lon="0.06141">
        <ele>143.5703125</ele>
      </trkpt>
      <trkpt lat="45.91733" lon="0.06111">
        <ele>143.44921875</ele>
      </trkpt>
      <trkpt lat="45.91738" lon="0.06089">
        <ele>143.3515625</ele>
      </trkpt>
      <trkpt lat="45.91742" lon="0.0607">
        <ele>143.28515625</ele>
      </trkpt>
      <trkpt lat="45.91746" lon="0.06048">
        <ele>143.08984375</ele>
      </trkpt>
      <trkpt lat="45.9175" lon="0.06033">
        <ele>142.5</ele>
      </trkpt>
      <trkpt lat="45.91755" lon="0.06015">
        <ele>141.77734375</ele>
      </trkpt>
      <trkpt lat="45.9176" lon="0.05992">
        <ele>140.8515625</ele>
      </trkpt>
      <trkpt lat="45.91766" lon="0.05963">
        <ele>139.99609375</ele>
      </trkpt>
      <trkpt lat="45.9177" lon="0.05941">
        <ele>139.3359375</ele>
      </trkpt>
      <trkpt lat="45.91775" lon="0.05915">
        <ele>137.9921875</ele>
      </trkpt>
      <trkpt lat="45.91779" lon="0.0589">
        <ele>136.7109375</ele>
      </trkpt>
      <trkpt lat="45.91784" lon="0.05859">
        <ele>134.88671875</ele>
      </trkpt>
      <trkpt lat="45.91789" lon="0.05829">
        <ele>133.31640625</ele>
      </trkpt>
      <trkpt lat="45.91795" lon="0.05797">
        <ele>131.6328125</ele>
      </trkpt>
      <trkpt lat="45.91799" lon="0.05774">
        <ele>130.50390625</ele>
      </trkpt>
      <trkpt lat="45.91803" lon="0.05752">
        <ele>129.97265625</ele>
      </trkpt>
      <trkpt lat="45.91806" lon="0.05733">
        <ele>129.51953125</ele>
      </trkpt>
      <trkpt lat="45.91808" lon="0.05722">
        <ele>129.23828125</ele>
      </trkpt>
      <trkpt lat="45.9181" lon="0.05718">
        <ele>129.109375</ele>
      </trkpt>
      <trkpt lat="45.9181" lon="0.05713">
        <ele>129.015625</ele>
      </trkpt>
      <trkpt lat="45.91809" lon="0.0571">
        <ele>129.01171875</ele>
      </trkpt>
      <trkpt lat="45.91803" lon="0.0571">
        <ele>129.2421875</ele>
      </trkpt>
      <trkpt lat="45.91798" lon="0.0571">
        <ele>129.44921875</ele>
      </trkpt>
      <trkpt lat="45.91781" lon="0.05707">
        <ele>130.07421875</ele>
      </trkpt>
      <trkpt lat="45.91772" lon="0.05704">
        <ele>130.41796875</ele>
      </trkpt>
      <trkpt lat="45.91768" lon="0.05699">
        <ele>130.58984375</ele>
      </trkpt>
      <trkpt lat="45.91759" lon="0.05697">
        <ele>130.94921875</ele>
      </trkpt>
      <trkpt lat="45.91731" lon="0.05686">
        <ele>131.9609375</ele>
      </trkpt>
      <trkpt lat="45.91707" lon="0.05678">
        <ele>132.8515625</ele>
      </trkpt>
      <trkpt lat="45.91683" lon="0.05669">
        <ele>134.0390625</ele>
      </trkpt>
      <trkpt lat="45.91665" lon="0.05664">
        <ele>135.03125</ele>
      </trkpt>
      <trkpt lat="45.9165" lon="0.05659">
        <ele>135.765625</ele>
      </trkpt>
      <trkpt lat="45.9164" lon="0.05656">
        <ele>136.2578125</ele>
      </trkpt>
      <trkpt lat="45.91634" lon="0.05652">
        <ele>136.48046875</ele>
      </trkpt>
      <trkpt lat="45.91629" lon="0.05651">
        <ele>136.72265625</ele>
      </trkpt>
      <trkpt lat="45.91626" lon="0.05654">
        <ele>136.953125</ele>
      </trkpt>
      <trkpt lat="45.91623" lon="0.05659">
        <ele>137.21484375</ele>
      </trkpt>
      <trkpt lat="45.9162" lon="0.05673">
        <ele>137.43359375</ele>
      </trkpt>
      <trkpt lat="45.91614" lon="0.05711">
        <ele>137.80078125</ele>
      </trkpt>
      <trkpt lat="45.91607" lon="0.05746">
        <ele>138.62109375</ele>
      </trkpt>
      <trkpt lat="45.91601" lon="0.05786">
        <ele>139.87109375</ele>
      </trkpt>
      <trkpt lat="45.91599" lon="0.05807">
        <ele>140.765625</ele>
      </trkpt>
      <trkpt lat="45.91597" lon="0.05816">
        <ele>141.21484375</ele>
      </trkpt>
      <trkpt lat="45.91591" lon="0.05827">
        <ele>141.94140625</ele>
      </trkpt>
      <trkpt lat="45.91586" lon="0.05833">
        <ele>142.4296875</ele>
      </trkpt>
      <trkpt lat="45.91575" lon="0.0584">
        <ele>143.31640625</ele>
      </trkpt>
      <trkpt lat="45.91556" lon="0.05854">
        <ele>144.7265625</ele>
      </trkpt>
      <trkpt lat="45.91539" lon="0.05864">
        <ele>145.828125</ele>
      </trkpt>
      <trkpt lat="45.91522" lon="0.05874">
        <ele>146.56640625</ele>
      </trkpt>
      <trkpt lat="45.91503" lon="0.05886">
        <ele>147.171875</ele>
      </trkpt>
      <trkpt lat="45.91485" lon="0.05898">
        <ele>147.62109375</ele>
      </trkpt>
      <trkpt lat="45.91468" lon="0.05909">
        <ele>147.7109375</ele>
      </trkpt>
      <trkpt lat="45.91453" lon="0.05918">
        <ele>147.62109375</ele>
      </trkpt>
      <trkpt lat="45.91435" lon="0.05928">
        <ele>147.4375</ele>
      </trkpt>
      <trkpt lat="45.9142" lon="0.05936">
        <ele>147.0234375</ele>
      </trkpt>
      <trkpt lat="45.91405" lon="0.05946">
        <ele>146.1171875</ele>
      </trkpt>
      <trkpt lat="45.91389" lon="0.05958">
        <ele>145.28125</ele>
      </trkpt>
      <trkpt lat="45.91372" lon="0.0597">
        <ele>144.56640625</ele>
      </trkpt>
      <trkpt lat="45.91354" lon="0.05985">
        <ele>143.4140625</ele>
      </trkpt>
      <trkpt lat="45.91339" lon="0.05997">
        <ele>142.3359375</ele>
      </trkpt>
      <trkpt lat="45.91321" lon="0.06013">
        <ele>140.8125</ele>
      </trkpt>
      <trkpt lat="45.91309" lon="0.06023">
        <ele>139.75</ele>
      </trkpt>
      <trkpt lat="45.91285" lon="0.06049">
        <ele>137.51953125</ele>
      </trkpt>
      <trkpt lat="45.91266" lon="0.06068">
        <ele>136.17578125</ele>
      </trkpt>
      <trkpt lat="45.91234" lon="0.06103">
        <ele>132.875</ele>
      </trkpt>
      <trkpt lat="45.91216" lon="0.06124">
        <ele>131.10546875</ele>
      </trkpt>
      <trkpt lat="45.91196" lon="0.06146">
        <ele>129.484375</ele>
      </trkpt>
      <trkpt lat="45.91177" lon="0.06167">
        <ele>128.05859375</ele>
      </trkpt>
      <trkpt lat="45.9116" lon="0.06187">
        <ele>126.53125</ele>
      </trkpt>
      <trkpt lat="45.91142" lon="0.06211">
        <ele>124.7578125</ele>
      </trkpt>
      <trkpt lat="45.91124" lon="0.06234">
        <ele>123.2265625</ele>
      </trkpt>
      <trkpt lat="45.91108" lon="0.06255">
        <ele>121.74609375</ele>
      </trkpt>
      <trkpt lat="45.9109" lon="0.06277">
        <ele>119.93359375</ele>
      </trkpt>
      <trkpt lat="45.91075" lon="0.06296">
        <ele>119.03515625</ele>
      </trkpt>
      <trkpt lat="45.91064" lon="0.06307">
        <ele>118.3203125</ele>
      </trkpt>
      <trkpt lat="45.91057" lon="0.06314">
        <ele>117.8125</ele>
      </trkpt>
      <trkpt lat="45.91054" lon="0.06318">
        <ele>117.53125</ele>
      </trkpt>
      <trkpt lat="45.91054" lon="0.06319">
        <ele>117.58203125</ele>
        <time>2019-07-17T12:15:06Z</time>
      </trkpt>
      <trkpt lat="45.91053" lon="0.06322">
        <ele>117.51953125</ele>
        <time>2019-07-17T12:15:11Z</time>
      </trkpt>
      <trkpt lat="45.91054" lon="0.06327">
        <ele>117.58984375</ele>
        <time>2019-07-17T12:15:25Z</time>
      </trkpt>
      <trkpt lat="45.91055" lon="0.06333">
        <ele>117.703125</ele>
        <time>2019-07-17T12:15:47Z</time>
      </trkpt>
      <trkpt lat="45.91054" lon="0.06336">
        <ele>117.65625</ele>
        <time>2019-07-17T12:15:56Z</time>
      </trkpt>
      <trkpt lat="45.91054" lon="0.06338">
        <ele>117.57421875</ele>
        <time>2019-07-17T12:16:26Z</time>
      </trkpt>
      <trkpt lat="45.91053" lon="0.06343">
        <ele>117.515625</ele>
        <time>2019-07-17T12:16:32Z</time>
      </trkpt>
      <trkpt lat="45.91053" lon="0.06345">
        <ele>117.484375</ele>
        <time>2019-07-17T12:16:33Z</time>
      </trkpt>
      <trkpt lat="45.91038" lon="0.06375">
        <ele>116.12890625</ele>
        <time>2019-07-17T12:16:41Z</time>
      </trkpt>
      <trkpt lat="45.91027" lon="0.06403">
        <ele>115.63671875</ele>
        <time>2019-07-17T12:16:47Z</time>
      </trkpt>
      <trkpt lat="45.91022" lon="0.06417">
        <ele>115.3984375</ele>
        <time>2019-07-17T12:16:51Z</time>
      </trkpt>
      <trkpt lat="45.91011" lon="0.06449">
        <ele>114.8671875</ele>
        <time>2019-07-17T12:16:56Z</time>
      </trkpt>
      <trkpt lat="45.91002" lon="0.06475">
        <ele>114.12890625</ele>
        <time>2019-07-17T12:17:01Z</time>
      </trkpt>
      <trkpt lat="45.90993" lon="0.06505">
        <ele>113.30078125</ele>
        <time>2019-07-17T12:17:06Z</time>
      </trkpt>
      <trkpt lat="45.90986" lon="0.06536">
        <ele>112.57421875</ele>
        <time>2019-07-17T12:17:09Z</time>
      </trkpt>
      <trkpt lat="45.90981" lon="0.06574">
        <ele>111.2734375</ele>
        <time>2019-07-17T12:17:13Z</time>
      </trkpt>
      <trkpt lat="45.9098" lon="0.06603">
        <ele>110.109375</ele>
        <time>2019-07-17T12:17:16Z</time>
      </trkpt>
      <trkpt lat="45.90983" lon="0.06625">
        <ele>109.640625</ele>
        <time>2019-07-17T12:17:20Z</time>
      </trkpt>
      <trkpt lat="45.90984" lon="0.06646">
        <ele>108.98828125</ele>
        <time>2019-07-17T12:17:25Z</time>
      </trkpt>
      <trkpt lat="45.90988" lon="0.0667">
        <ele>109.0703125</ele>
        <time>2019-07-17T12:17:26Z</time>
      </trkpt>
      <trkpt lat="45.90972" lon="0.0666">
        <ele>107.76171875</ele>
      </trkpt>
      <trkpt lat="45.90963" lon="0.06657">
        <ele>107.4765625</ele>
      </trkpt>
      <trkpt lat="45.90951" lon="0.06654">
        <ele>106.99609375</ele>
        <time>2019-07-17T12:17:33Z</time>
      </trkpt>
      <trkpt lat="45.90944" lon="0.06652">
        <ele>106.671875</ele>
        <time>2019-07-17T12:17:34Z</time>
      </trkpt>
      <trkpt lat="45.90938" lon="0.06652">
        <ele>106.3984375</ele>
        <time>2019-07-17T12:17:35Z</time>
      </trkpt>
      <trkpt lat="45.90901" lon="0.06657">
        <ele>105.5</ele>
        <time>2019-07-17T12:17:42Z</time>
      </trkpt>
      <trkpt lat="45.90868" lon="0.0666">
        <ele>104.96875</ele>
        <time>2019-07-17T12:17:48Z</time>
      </trkpt>
      <trkpt lat="45.90854" lon="0.06665">
        <ele>104.83203125</ele>
        <time>2019-07-17T12:17:51Z</time>
      </trkpt>
      <trkpt lat="45.9084" lon="0.06673">
        <ele>104.91796875</ele>
        <time>2019-07-17T12:17:54Z</time>
      </trkpt>
      <trkpt lat="45.90835" lon="0.06677">
        <ele>104.94921875</ele>
        <time>2019-07-17T12:17:55Z</time>
      </trkpt>
      <trkpt lat="45.90831" lon="0.06682">
        <ele>104.96484375</ele>
        <time>2019-07-17T12:17:56Z</time>
      </trkpt>
      <trkpt lat="45.90811" lon="0.06713">
        <ele>104.73828125</ele>
        <time>2019-07-17T12:18:02Z</time>
      </trkpt>
      <trkpt lat="45.908" lon="0.06729">
        <ele>105.3046875</ele>
        <time>2019-07-17T12:18:05Z</time>
      </trkpt>
      <trkpt lat="45.90796" lon="0.06734">
        <ele>105.59765625</ele>
        <time>2019-07-17T12:18:06Z</time>
      </trkpt>
      <trkpt lat="45.90792" lon="0.06741">
        <ele>106.01171875</ele>
        <time>2019-07-17T12:18:07Z</time>
      </trkpt>
      <trkpt lat="45.90781" lon="0.06757">
        <ele>107.09765625</ele>
        <time>2019-07-17T12:18:11Z</time>
      </trkpt>
      <trkpt lat="45.90776" lon="0.0676">
        <ele>107.19921875</ele>
        <time>2019-07-17T12:18:13Z</time>
      </trkpt>
      <trkpt lat="45.9075" lon="0.06788">
        <ele>108.5625</ele>
        <time>2019-07-17T12:18:20Z</time>
      </trkpt>
      <trkpt lat="45.90731" lon="0.06816">
        <ele>109.1875</ele>
        <time>2019-07-17T12:18:26Z</time>
      </trkpt>
      <trkpt lat="45.90728" lon="0.06821">
        <ele>109.3046875</ele>
        <time>2019-07-17T12:18:27Z</time>
      </trkpt>
      <trkpt lat="45.90713" lon="0.06839">
        <ele>109.21484375</ele>
        <time>2019-07-17T12:18:34Z</time>
      </trkpt>
      <trkpt lat="45.9071" lon="0.06845">
        <ele>109.29296875</ele>
        <time>2019-07-17T12:18:41Z</time>
      </trkpt>
      <trkpt lat="45.90704" lon="0.06848">
        <ele>109.0390625</ele>
        <time>2019-07-17T12:18:45Z</time>
      </trkpt>
      <trkpt lat="45.90699" lon="0.06851">
        <ele>109.01953125</ele>
        <time>2019-07-17T12:18:46Z</time>
      </trkpt>
      <trkpt lat="45.90692" lon="0.06854">
        <ele>108.8515625</ele>
        <time>2019-07-17T12:18:47Z</time>
      </trkpt>
      <trkpt lat="45.90682" lon="0.06852">
        <ele>108.27734375</ele>
        <time>2019-07-17T12:18:49Z</time>
      </trkpt>
      <trkpt lat="45.90674" lon="0.06845">
        <ele>107.4375</ele>
        <time>2019-07-17T12:18:51Z</time>
      </trkpt>
      <trkpt lat="45.90673" lon="0.0685">
        <ele>107.73046875</ele>
        <time>2019-07-17T12:18:52Z</time>
      </trkpt>
      <trkpt lat="45.90682" lon="0.06857">
        <ele>108.58203125</ele>
        <time>2019-07-17T12:18:53Z</time>
      </trkpt>
      <trkpt lat="45.90691" lon="0.06866">
        <ele>109.52734375</ele>
        <time>2019-07-17T12:18:54Z</time>
      </trkpt>
      <trkpt lat="45.9069" lon="0.06875">
        <ele>109.921875</ele>
        <time>2019-07-17T12:18:58Z</time>
      </trkpt>
      <trkpt lat="45.90692" lon="0.06882">
        <ele>110.44140625</ele>
        <time>2019-07-17T12:19:00Z</time>
      </trkpt>
      <trkpt lat="45.90692" lon="0.06882">
        <ele>110.4609375</ele>
        <time>2019-07-17T12:44:37Z</time>
      </trkpt>
      <trkpt lat="45.9069" lon="0.06883">
        <ele>110.45703125</ele>
        <time>2019-07-17T12:44:19Z</time>
      </trkpt>
      <trkpt lat="45.90685" lon="0.06891">
        <ele>110.62890625</ele>
        <time>2019-07-17T12:43:57Z</time>
      </trkpt>
      <trkpt lat="45.90679" lon="0.06896">
        <ele>110.65625</ele>
        <time>2019-07-17T12:43:49Z</time>
      </trkpt>
      <trkpt lat="45.90669" lon="0.06912">
        <ele>111.0859375</ele>
        <time>2019-07-17T12:43:42Z</time>
      </trkpt>
      <trkpt lat="45.90657" lon="0.06915">
        <ele>110.9140625</ele>
        <time>2019-07-17T12:43:34Z</time>
      </trkpt>
      <trkpt lat="45.9065" lon="0.0692">
        <ele>110.9765625</ele>
        <time>2019-07-17T12:43:30Z</time>
      </trkpt>
      <trkpt lat="45.90644" lon="0.06926">
        <ele>111.171875</ele>
        <time>2019-07-17T12:43:24Z</time>
      </trkpt>
      <trkpt lat="45.90638" lon="0.06914">
        <ele>110.3046875</ele>
        <time>2019-07-17T12:43:16Z</time>
      </trkpt>
      <trkpt lat="45.90633" lon="0.06898">
        <ele>109.25390625</ele>
        <time>2019-07-17T12:43:09Z</time>
      </trkpt>
      <trkpt lat="45.90623" lon="0.06885">
        <ele>108.12890625</ele>
        <time>2019-07-17T12:43:01Z</time>
      </trkpt>
      <trkpt lat="45.9062" lon="0.06881">
        <ele>107.703125</ele>
        <time>2019-07-17T12:42:55Z</time>
      </trkpt>
      <trkpt lat="45.90621" lon="0.06872">
        <ele>107.046875</ele>
        <time>2019-07-17T12:42:46Z</time>
      </trkpt>
      <trkpt lat="45.9062" lon="0.06858">
        <ele>105.828125</ele>
        <time>2019-07-17T12:42:38Z</time>
      </trkpt>
      <trkpt lat="45.90613" lon="0.0685">
        <ele>104.875</ele>
        <time>2019-07-17T12:42:34Z</time>
      </trkpt>
      <trkpt lat="45.90608" lon="0.06846">
        <ele>104.3125</ele>
        <time>2019-07-17T12:42:31Z</time>
      </trkpt>
      <trkpt lat="45.90596" lon="0.06838">
        <ele>102.99609375</ele>
        <time>2019-07-17T12:42:24Z</time>
      </trkpt>
      <trkpt lat="45.90587" lon="0.06839">
        <ele>102.74609375</ele>
        <time>2019-07-17T12:42:15Z</time>
      </trkpt>
      <trkpt lat="45.90576" lon="0.06834">
        <ele>102.14453125</ele>
        <time>2019-07-17T12:42:08Z</time>
      </trkpt>
      <trkpt lat="45.90563" lon="0.06834">
        <ele>101.84765625</ele>
        <time>2019-07-17T12:42:02Z</time>
      </trkpt>
      <trkpt lat="45.90551" lon="0.06835">
        <ele>101.7109375</ele>
        <time>2019-07-17T12:41:56Z</time>
      </trkpt>
      <trkpt lat="45.90542" lon="0.06834">
        <ele>101.453125</ele>
        <time>2019-07-17T12:41:50Z</time>
      </trkpt>
      <trkpt lat="45.90541" lon="0.06832">
        <ele>101.29296875</ele>
        <time>2019-07-17T12:41:49Z</time>
      </trkpt>
      <trkpt lat="45.90529" lon="0.06828">
        <ele>100.8125</ele>
        <time>2019-07-17T12:41:43Z</time>
      </trkpt>
      <trkpt lat="45.90516" lon="0.06824">
        <ele>100.25390625</ele>
        <time>2019-07-17T12:41:37Z</time>
      </trkpt>
      <trkpt lat="45.90515" lon="0.06824">
        <ele>100.2265625</ele>
        <time>2019-07-17T12:41:36Z</time>
      </trkpt>
      <trkpt lat="45.905" lon="0.06827">
        <ele>100.15625</ele>
        <time>2019-07-17T12:41:28Z</time>
      </trkpt>
      <trkpt lat="45.90491" lon="0.06825">
        <ele>99.875</ele>
        <time>2019-07-17T12:41:23Z</time>
      </trkpt>
      <trkpt lat="45.90486" lon="0.06827">
        <ele>99.94921875</ele>
        <time>2019-07-17T12:41:19Z</time>
      </trkpt>
      <trkpt lat="45.90479" lon="0.0683">
        <ele>99.96484375</ele>
        <time>2019-07-17T12:41:15Z</time>
      </trkpt>
      <trkpt lat="45.90476" lon="0.06833">
        <ele>99.93359375</ele>
        <time>2019-07-17T12:41:12Z</time>
      </trkpt>
      <trkpt lat="45.90473" lon="0.06846">
        <ele>100.46484375</ele>
        <time>2019-07-17T12:41:06Z</time>
      </trkpt>
      <trkpt lat="45.90465" lon="0.06868">
        <ele>101.02734375</ele>
        <time>2019-07-17T12:40:57Z</time>
      </trkpt>
      <trkpt lat="45.9046" lon="0.06873">
        <ele>100.90625</ele>
        <time>2019-07-17T12:40:54Z</time>
      </trkpt>
      <trkpt lat="45.90451" lon="0.06883">
        <ele>100.75390625</ele>
        <time>2019-07-17T12:40:48Z</time>
      </trkpt>
      <trkpt lat="45.90451" lon="0.06893">
        <ele>101.16015625</ele>
        <time>2019-07-17T12:40:44Z</time>
      </trkpt>
      <trkpt lat="45.9045" lon="0.069">
        <ele>101.3515625</ele>
        <time>2019-07-17T12:40:42Z</time>
      </trkpt>
      <trkpt lat="45.9045" lon="0.06903">
        <ele>101.44140625</ele>
        <time>2019-07-17T12:40:41Z</time>
      </trkpt>
      <trkpt lat="45.90454" lon="0.06922">
        <ele>102.4140625</ele>
        <time>2019-07-17T12:40:35Z</time>
      </trkpt>
      <trkpt lat="45.90454" lon="0.06925">
        <ele>102.50390625</ele>
        <time>2019-07-17T12:40:34Z</time>
      </trkpt>
      <trkpt lat="45.90452" lon="0.06951">
        <ele>103.0390625</ele>
        <time>2019-07-17T12:40:25Z</time>
      </trkpt>
      <trkpt lat="45.9045" lon="0.06958">
        <ele>102.89453125</ele>
        <time>2019-07-17T12:40:22Z</time>
      </trkpt>
      <trkpt lat="45.90446" lon="0.06969">
        <ele>102.67578125</ele>
        <time>2019-07-17T12:40:17Z</time>
      </trkpt>
      <trkpt lat="45.90443" lon="0.06972">
        <ele>102.4609375</ele>
        <time>2019-07-17T12:40:15Z</time>
      </trkpt>
      <trkpt lat="45.90434" lon="0.06989">
        <ele>101.71875</ele>
        <time>2019-07-17T12:40:08Z</time>
      </trkpt>
      <trkpt lat="45.9043" lon="0.06997">
        <ele>101.40234375</ele>
        <time>2019-07-17T12:40:05Z</time>
      </trkpt>
      <trkpt lat="45.90428" lon="0.07002">
        <ele>101.13671875</ele>
        <time>2019-07-17T12:40:03Z</time>
      </trkpt>
      <trkpt lat="45.90425" lon="0.07019">
        <ele>100.55078125</ele>
        <time>2019-07-17T12:39:56Z</time>
      </trkpt>
      <trkpt lat="45.9042" lon="0.07024">
        <ele>99.93359375</ele>
        <time>2019-07-17T12:39:52Z</time>
      </trkpt>
      <trkpt lat="45.90415" lon="0.07037">
        <ele>99.1484375</ele>
        <time>2019-07-17T12:39:45Z</time>
      </trkpt>
      <trkpt lat="45.9041" lon="0.07051">
        <ele>98.33984375</ele>
        <time>2019-07-17T12:39:38Z</time>
      </trkpt>
      <trkpt lat="45.90404" lon="0.07059">
        <ele>97.546875</ele>
        <time>2019-07-17T12:39:29Z</time>
      </trkpt>
      <trkpt lat="45.90403" lon="0.0706">
        <ele>97.46875</ele>
        <time>2019-07-17T12:39:26Z</time>
      </trkpt>
      <trkpt lat="45.90401" lon="0.07047">
        <ele>97.44140625</ele>
        <time>2019-07-17T12:39:20Z</time>
      </trkpt>
      <trkpt lat="45.90399" lon="0.07031">
        <ele>97.5</ele>
        <time>2019-07-17T12:39:14Z</time>
      </trkpt>
      <trkpt lat="45.90396" lon="0.07013">
        <ele>97.53515625</ele>
        <time>2019-07-17T12:39:07Z</time>
      </trkpt>
      <trkpt lat="45.90392" lon="0.06995">
        <ele>97.41796875</ele>
        <time>2019-07-17T12:38:59Z</time>
      </trkpt>
      <trkpt lat="45.90391" lon="0.06991">
        <ele>97.23828125</ele>
        <time>2019-07-17T12:38:56Z</time>
      </trkpt>
      <trkpt lat="45.90387" lon="0.06985">
        <ele>96.80859375</ele>
        <time>2019-07-17T12:38:51Z</time>
      </trkpt>
      <trkpt lat="45.90383" lon="0.06988">
        <ele>96.38671875</ele>
        <time>2019-07-17T12:38:45Z</time>
      </trkpt>
      <trkpt lat="45.90381" lon="0.07012">
        <ele>95.91015625</ele>
        <time>2019-07-17T12:38:36Z</time>
      </trkpt>
      <trkpt lat="45.9038" lon="0.07018">
        <ele>95.734375</ele>
        <time>2019-07-17T12:38:34Z</time>
      </trkpt>
      <trkpt lat="45.90381" lon="0.07036">
        <ele>95.49609375</ele>
        <time>2019-07-17T12:38:29Z</time>
      </trkpt>
      <trkpt lat="45.90385" lon="0.0706">
        <ele>95.66796875</ele>
        <time>2019-07-17T12:38:22Z</time>
      </trkpt>
      <trkpt lat="45.9039" lon="0.07077">
        <ele>96.1328125</ele>
        <time>2019-07-17T12:38:16Z</time>
      </trkpt>
      <trkpt lat="45.90398" lon="0.07096">
        <ele>96.625</ele>
        <time>2019-07-17T12:38:09Z</time>
      </trkpt>
      <trkpt lat="45.90399" lon="0.07101">
        <ele>96.62109375</ele>
        <time>2019-07-17T12:38:07Z</time>
      </trkpt>
      <trkpt lat="45.90398" lon="0.07111">
        <ele>96.45703125</ele>
        <time>2019-07-17T12:38:03Z</time>
      </trkpt>
      <trkpt lat="45.90399" lon="0.07116">
        <ele>96.38671875</ele>
        <time>2019-07-17T12:38:01Z</time>
      </trkpt>
      <trkpt lat="45.90399" lon="0.07118">
        <ele>96.34765625</ele>
        <time>2019-07-17T12:38:00Z</time>
      </trkpt>
      <trkpt lat="45.90398" lon="0.0712">
        <ele>96.2890625</ele>
        <time>2019-07-17T12:37:59Z</time>
      </trkpt>
      <trkpt lat="45.90397" lon="0.07123">
        <ele>96.20703125</ele>
        <time>2019-07-17T12:37:58Z</time>
      </trkpt>
      <trkpt lat="45.90397" lon="0.07125">
        <ele>96.14453125</ele>
        <time>2019-07-17T12:37:57Z</time>
      </trkpt>
      <trkpt lat="45.90396" lon="0.07127">
        <ele>96.078125</ele>
        <time>2019-07-17T12:37:56Z</time>
      </trkpt>
      <trkpt lat="45.90395" lon="0.07129">
        <ele>95.99609375</ele>
      </trkpt>
      <trkpt lat="45.90393" lon="0.0713">
        <ele>95.90625</ele>
      </trkpt>
      <trkpt lat="45.90392" lon="0.07132">
        <ele>95.81640625</ele>
      </trkpt>
      <trkpt lat="45.90412" lon="0.07164">
        <ele>95.81640625</ele>
      </trkpt>
      <trkpt lat="45.90417" lon="0.07176">
        <ele>96.359375</ele>
      </trkpt>
      <trkpt lat="45.90421" lon="0.07189">
        <ele>96.8984375</ele>
      </trkpt>
      <trkpt lat="45.9044" lon="0.07229">
        <ele>98.80078125</ele>
      </trkpt>
      <trkpt lat="45.90449" lon="0.07247">
        <ele>99.765625</ele>
      </trkpt>
      <trkpt lat="45.90458" lon="0.07246">
        <ele>99.8046875</ele>
      </trkpt>
      <trkpt lat="45.90461" lon="0.07245">
        <ele>99.8046875</ele>
      </trkpt>
      <trkpt lat="45.90466" lon="0.0724">
        <ele>99.62890625</ele>
      </trkpt>
      <trkpt lat="45.90475" lon="0.07237">
        <ele>99.609375</ele>
      </trkpt>
      <trkpt lat="45.90482" lon="0.07235">
        <ele>99.69921875</ele>
        <time>2019-07-17T12:37:55Z</time>
      </trkpt>
      <trkpt lat="45.90483" lon="0.07235">
        <ele>99.6953125</ele>
        <time>2019-07-17T12:50:44Z</time>
      </trkpt>
      <trkpt lat="45.9048" lon="0.0723">
        <ele>99.4296875</ele>
        <time>2019-07-17T12:50:34Z</time>
      </trkpt>
      <trkpt lat="45.90479" lon="0.07212">
        <ele>99.07421875</ele>
        <time>2019-07-17T12:50:31Z</time>
      </trkpt>
      <trkpt lat="45.90491" lon="0.07191">
        <ele>100.23828125</ele>
        <time>2019-07-17T12:50:26Z</time>
      </trkpt>
      <trkpt lat="45.90495" lon="0.07183">
        <ele>100.6796875</ele>
        <time>2019-07-17T12:50:25Z</time>
      </trkpt>
      <trkpt lat="45.90498" lon="0.07174">
        <ele>101.171875</ele>
        <time>2019-07-17T12:50:24Z</time>
      </trkpt>
      <trkpt lat="45.90501" lon="0.07164">
        <ele>101.78125</ele>
        <time>2019-07-17T12:50:23Z</time>
      </trkpt>
      <trkpt lat="45.90504" lon="0.07157">
        <ele>102.31640625</ele>
        <time>2019-07-17T12:50:22Z</time>
      </trkpt>
      <trkpt lat="45.90511" lon="0.07147">
        <ele>103.42578125</ele>
      </trkpt>
      <trkpt lat="45.90516" lon="0.07137">
        <ele>104.22265625</ele>
      </trkpt>
      <trkpt lat="45.9052" lon="0.07129">
        <ele>104.921875</ele>
      </trkpt>
      <trkpt lat="45.90525" lon="0.07118">
        <ele>105.7265625</ele>
      </trkpt>
      <trkpt lat="45.90529" lon="0.07111">
        <ele>106.3203125</ele>
      </trkpt>
      <trkpt lat="45.90527" lon="0.07104">
        <ele>106.39453125</ele>
        <time>2019-07-17T12:49:59Z</time>
      </trkpt>
      <trkpt lat="45.90521" lon="0.07095">
        <ele>106.30859375</ele>
        <time>2019-07-17T12:49:55Z</time>
      </trkpt>
      <trkpt lat="45.90514" lon="0.07075">
        <ele>106.51953125</ele>
        <time>2019-07-17T12:49:40Z</time>
      </trkpt>
      <trkpt lat="45.90514" lon="0.07061">
        <ele>107.03125</ele>
        <time>2019-07-17T12:49:34Z</time>
      </trkpt>
      <trkpt lat="45.90514" lon="0.0704">
        <ele>107.578125</ele>
        <time>2019-07-17T12:49:27Z</time>
      </trkpt>
      <trkpt lat="45.90514" lon="0.07023">
        <ele>107.875</ele>
        <time>2019-07-17T12:49:20Z</time>
      </trkpt>
      <trkpt lat="45.90511" lon="0.07009">
        <ele>107.96484375</ele>
        <time>2019-07-17T12:49:13Z</time>
      </trkpt>
      <trkpt lat="45.90516" lon="0.0699">
        <ele>108.41796875</ele>
        <time>2019-07-17T12:49:06Z</time>
      </trkpt>
      <trkpt lat="45.90524" lon="0.06987">
        <ele>108.97265625</ele>
        <time>2019-07-17T12:49:02Z</time>
      </trkpt>
      <trkpt lat="45.90532" lon="0.06981">
        <ele>109.38671875</ele>
        <time>2019-07-17T12:48:56Z</time>
      </trkpt>
      <trkpt lat="45.90539" lon="0.06972">
        <ele>109.6640625</ele>
        <time>2019-07-17T12:48:52Z</time>
      </trkpt>
      <trkpt lat="45.90543" lon="0.0696">
        <ele>109.6015625</ele>
        <time>2019-07-17T12:48:46Z</time>
      </trkpt>
      <trkpt lat="45.90547" lon="0.06956">
        <ele>109.68359375</ele>
        <time>2019-07-17T12:48:44Z</time>
      </trkpt>
      <trkpt lat="45.90557" lon="0.06957">
        <ele>110.03125</ele>
        <time>2019-07-17T12:48:43Z</time>
      </trkpt>
      <trkpt lat="45.9056" lon="0.06959">
        <ele>110.1796875</ele>
        <time>2019-07-17T12:48:36Z</time>
      </trkpt>
      <trkpt lat="45.90566" lon="0.06963">
        <ele>110.4609375</ele>
        <time>2019-07-17T12:48:26Z</time>
      </trkpt>
      <trkpt lat="45.90568" lon="0.06963">
        <ele>110.56640625</ele>
        <time>2019-07-17T12:48:25Z</time>
      </trkpt>
      <trkpt lat="45.90581" lon="0.06974">
        <ele>111.20703125</ele>
        <time>2019-07-17T12:48:19Z</time>
      </trkpt>
      <trkpt lat="45.90586" lon="0.06978">
        <ele>111.47265625</ele>
        <time>2019-07-17T12:48:16Z</time>
      </trkpt>
      <trkpt lat="45.90588" lon="0.06981">
        <ele>111.59375</ele>
        <time>2019-07-17T12:48:14Z</time>
      </trkpt>
      <trkpt lat="45.90603" lon="0.06985">
        <ele>112.16015625</ele>
        <time>2019-07-17T12:48:08Z</time>
      </trkpt>
      <trkpt lat="45.90616" lon="0.06994">
        <ele>112.8203125</ele>
        <time>2019-07-17T12:48:02Z</time>
      </trkpt>
      <trkpt lat="45.90621" lon="0.06995">
        <ele>113.02734375</ele>
        <time>2019-07-17T12:47:59Z</time>
      </trkpt>
      <trkpt lat="45.90624" lon="0.06995">
        <ele>113.14453125</ele>
        <time>2019-07-17T12:47:58Z</time>
      </trkpt>
      <trkpt lat="45.90627" lon="0.06996">
        <ele>113.26953125</ele>
        <time>2019-07-17T12:47:57Z</time>
      </trkpt>
      <trkpt lat="45.90628" lon="0.06996">
        <ele>113.32421875</ele>
        <time>2019-07-17T12:47:56Z</time>
      </trkpt>
      <trkpt lat="45.90642" lon="0.07">
        <ele>113.87109375</ele>
        <time>2019-07-17T12:47:52Z</time>
      </trkpt>
      <trkpt lat="45.90649" lon="0.07009">
        <ele>114.27734375</ele>
        <time>2019-07-17T12:47:49Z</time>
      </trkpt>
      <trkpt lat="45.90662" lon="0.07023">
        <ele>114.89453125</ele>
        <time>2019-07-17T12:47:42Z</time>
      </trkpt>
      <trkpt lat="45.90665" lon="0.07024">
        <ele>114.98828125</ele>
        <time>2019-07-17T12:47:41Z</time>
      </trkpt>
      <trkpt lat="45.90676" lon="0.07027">
        <ele>115.3671875</ele>
        <time>2019-07-17T12:47:36Z</time>
      </trkpt>
      <trkpt lat="45.90686" lon="0.07029">
        <ele>115.71484375</ele>
        <time>2019-07-17T12:47:31Z</time>
      </trkpt>
      <trkpt lat="45.90695" lon="0.07036">
        <ele>116.1875</ele>
        <time>2019-07-17T12:47:24Z</time>
      </trkpt>
      <trkpt lat="45.907" lon="0.07034">
        <ele>116.30859375</ele>
        <time>2019-07-17T12:47:21Z</time>
      </trkpt>
      <trkpt lat="45.90711" lon="0.07025">
        <ele>116.26953125</ele>
        <time>2019-07-17T12:47:14Z</time>
      </trkpt>
      <trkpt lat="45.90712" lon="0.07023">
        <ele>116.23828125</ele>
        <time>2019-07-17T12:47:13Z</time>
      </trkpt>
      <trkpt lat="45.90723" lon="0.07019">
        <ele>116.390625</ele>
        <time>2019-07-17T12:47:06Z</time>
      </trkpt>
      <trkpt lat="45.90721" lon="0.07044">
        <ele>117.1171875</ele>
      </trkpt>
      <trkpt lat="45.90723" lon="0.07063">
        <ele>117.36328125</ele>
      </trkpt>
      <trkpt lat="45.90726" lon="0.07083">
        <ele>117.41796875</ele>
      </trkpt>
      <trkpt lat="45.90728" lon="0.07098">
        <ele>117.45703125</ele>
      </trkpt>
      <trkpt lat="45.9073" lon="0.07114">
        <ele>117.28515625</ele>
      </trkpt>
      <trkpt lat="45.9073" lon="0.07121">
        <ele>117.09765625</ele>
      </trkpt>
      <trkpt lat="45.90728" lon="0.07141">
        <ele>116.484375</ele>
      </trkpt>
      <trkpt lat="45.9073" lon="0.07145">
        <ele>116.43359375</ele>
      </trkpt>
      <trkpt lat="45.90732" lon="0.07167">
        <ele>115.97265625</ele>
      </trkpt>
      <trkpt lat="45.90729" lon="0.07178">
        <ele>115.6640625</ele>
      </trkpt>
      <trkpt lat="45.90708" lon="0.07186">
        <ele>114.765625</ele>
      </trkpt>
      <trkpt lat="45.90688" lon="0.07188">
        <ele>113.890625</ele>
      </trkpt>
      <trkpt lat="45.90663" lon="0.07197">
        <ele>112.46875</ele>
        <time>2019-07-17T12:46:54Z</time>
      </trkpt>
      <trkpt lat="45.90663" lon="0.07198">
        <ele>112.453125</ele>
        <time>2019-07-17T12:52:31Z</time>
      </trkpt>
      <trkpt lat="45.90662" lon="0.072">
        <ele>112.3359375</ele>
        <time>2019-07-17T12:52:33Z</time>
      </trkpt>
      <trkpt lat="45.90663" lon="0.07209">
        <ele>112.12890625</ele>
        <time>2019-07-17T12:52:47Z</time>
      </trkpt>
      <trkpt lat="45.90664" lon="0.07213">
        <ele>112.03515625</ele>
        <time>2019-07-17T12:52:49Z</time>
      </trkpt>
      <trkpt lat="45.90661" lon="0.07218">
        <ele>111.6953125</ele>
        <time>2019-07-17T12:52:52Z</time>
      </trkpt>
      <trkpt lat="45.90659" lon="0.07226">
        <ele>111.29296875</ele>
        <time>2019-07-17T12:52:55Z</time>
      </trkpt>
      <trkpt lat="45.90653" lon="0.07239">
        <ele>110.50390625</ele>
        <time>2019-07-17T12:53:01Z</time>
      </trkpt>
      <trkpt lat="45.90656" lon="0.07259">
        <ele>109.99609375</ele>
        <time>2019-07-17T12:53:08Z</time>
      </trkpt>
      <trkpt lat="45.9066" lon="0.07275">
        <ele>109.62109375</ele>
        <time>2019-07-17T12:53:14Z</time>
      </trkpt>
      <trkpt lat="45.90664" lon="0.07293">
        <ele>109.4375</ele>
        <time>2019-07-17T12:53:21Z</time>
      </trkpt>
      <trkpt lat="45.9067" lon="0.07302">
        <ele>109.51953125</ele>
        <time>2019-07-17T12:53:26Z</time>
      </trkpt>
      <trkpt lat="45.90675" lon="0.07311">
        <ele>109.4921875</ele>
        <time>2019-07-17T12:53:30Z</time>
      </trkpt>
      <trkpt lat="45.90671" lon="0.07328">
        <ele>108.88671875</ele>
        <time>2019-07-17T12:53:37Z</time>
      </trkpt>
      <trkpt lat="45.90667" lon="0.07335">
        <ele>108.6953125</ele>
        <time>2019-07-17T12:53:42Z</time>
      </trkpt>
      <trkpt lat="45.90659" lon="0.07342">
        <ele>108.43359375</ele>
        <time>2019-07-17T12:53:49Z</time>
      </trkpt>
      <trkpt lat="45.90656" lon="0.07344">
        <ele>108.3046875</ele>
        <time>2019-07-17T12:53:51Z</time>
      </trkpt>
      <trkpt lat="45.90643" lon="0.07349">
        <ele>107.80859375</ele>
        <time>2019-07-17T12:53:58Z</time>
      </trkpt>
      <trkpt lat="45.90642" lon="0.0735">
        <ele>107.765625</ele>
        <time>2019-07-17T12:53:59Z</time>
      </trkpt>
      <trkpt lat="45.90624" lon="0.07354">
        <ele>107.1015625</ele>
        <time>2019-07-17T12:54:06Z</time>
      </trkpt>
      <trkpt lat="45.90621" lon="0.07354">
        <ele>107.00390625</ele>
        <time>2019-07-17T12:54:07Z</time>
      </trkpt>
      <trkpt lat="45.90615" lon="0.07364">
        <ele>106.98828125</ele>
        <time>2019-07-17T12:54:13Z</time>
      </trkpt>
      <trkpt lat="45.90609" lon="0.07365">
        <ele>106.8046875</ele>
        <time>2019-07-17T12:54:17Z</time>
      </trkpt>
      <trkpt lat="45.90595" lon="0.07358">
        <ele>106.140625</ele>
        <time>2019-07-17T12:54:24Z</time>
      </trkpt>
      <trkpt lat="45.90591" lon="0.07357">
        <ele>106.00390625</ele>
        <time>2019-07-17T12:54:26Z</time>
      </trkpt>
      <trkpt lat="45.9058" lon="0.07353">
        <ele>105.72265625</ele>
        <time>2019-07-17T12:54:32Z</time>
      </trkpt>
      <trkpt lat="45.90566" lon="0.07342">
        <ele>105.125</ele>
        <time>2019-07-17T12:54:39Z</time>
      </trkpt>
      <trkpt lat="45.90563" lon="0.0733">
        <ele>104.5078125</ele>
        <time>2019-07-17T12:54:43Z</time>
      </trkpt>
      <trkpt lat="45.90561" lon="0.07322">
        <ele>104.3515625</ele>
        <time>2019-07-17T12:54:45Z</time>
      </trkpt>
      <trkpt lat="45.9056" lon="0.07312">
        <ele>104.20703125</ele>
        <time>2019-07-17T12:54:47Z</time>
      </trkpt>
      <trkpt lat="45.90558" lon="0.07306">
        <ele>104.05859375</ele>
        <time>2019-07-17T12:54:49Z</time>
      </trkpt>
      <trkpt lat="45.90546" lon="0.0729">
        <ele>103.1640625</ele>
        <time>2019-07-17T12:54:56Z</time>
      </trkpt>
      <trkpt lat="45.9054" lon="0.07285">
        <ele>102.6484375</ele>
        <time>2019-07-17T12:55:00Z</time>
      </trkpt>
      <trkpt lat="45.90529" lon="0.0728">
        <ele>102.125</ele>
        <time>2019-07-17T12:55:06Z</time>
      </trkpt>
      <trkpt lat="45.90517" lon="0.07278">
        <ele>101.8359375</ele>
        <time>2019-07-17T12:55:12Z</time>
      </trkpt>
      <trkpt lat="45.9051" lon="0.07279">
        <ele>101.76953125</ele>
        <time>2019-07-17T12:55:15Z</time>
      </trkpt>
      <trkpt lat="45.90505" lon="0.0728">
        <ele>101.72265625</ele>
        <time>2019-07-17T12:55:18Z</time>
      </trkpt>
      <trkpt lat="45.90492" lon="0.0728">
        <ele>101.53125</ele>
        <time>2019-07-17T12:55:27Z</time>
      </trkpt>
      <trkpt lat="45.90486" lon="0.07284">
        <ele>101.625</ele>
        <time>2019-07-17T12:55:32Z</time>
      </trkpt>
      <trkpt lat="45.90475" lon="0.07299">
        <ele>102.3515625</ele>
        <time>2019-07-17T12:55:38Z</time>
      </trkpt>
      <trkpt lat="45.90468" lon="0.07295">
        <ele>102.08203125</ele>
        <time>2019-07-17T12:55:44Z</time>
      </trkpt>
      <trkpt lat="45.90476" lon="0.07325">
        <ele>103.69140625</ele>
        <time>2019-07-17T12:55:52Z</time>
      </trkpt>
      <trkpt lat="45.90483" lon="0.0735">
        <ele>105.125</ele>
        <time>2019-07-17T12:56:00Z</time>
      </trkpt>
      <trkpt lat="45.90493" lon="0.07392">
        <ele>107.0625</ele>
        <time>2019-07-17T12:56:06Z</time>
      </trkpt>
      <trkpt lat="45.90501" lon="0.07431">
        <ele>107.6015625</ele>
        <time>2019-07-17T12:56:15Z</time>
      </trkpt>
      <trkpt lat="45.90505" lon="0.07461">
        <ele>108.2421875</ele>
        <time>2019-07-17T12:56:24Z</time>
      </trkpt>
      <trkpt lat="45.90507" lon="0.0748">
        <ele>108.6484375</ele>
        <time>2019-07-17T12:56:33Z</time>
      </trkpt>
      <trkpt lat="45.9051" lon="0.07499">
        <ele>109.0859375</ele>
        <time>2019-07-17T12:56:40Z</time>
      </trkpt>
      <trkpt lat="45.90512" lon="0.07508">
        <ele>109.20703125</ele>
        <time>2019-07-17T12:56:49Z</time>
      </trkpt>
      <trkpt lat="45.90536" lon="0.07492">
        <ele>109.9375</ele>
        <time>2019-07-17T12:56:56Z</time>
      </trkpt>
      <trkpt lat="45.90551" lon="0.07482">
        <ele>110.02734375</ele>
        <time>2019-07-17T12:57:02Z</time>
      </trkpt>
      <trkpt lat="45.90559" lon="0.07477">
        <ele>110.0625</ele>
        <time>2019-07-17T12:57:05Z</time>
      </trkpt>
      <trkpt lat="45.90574" lon="0.07473">
        <ele>110.28515625</ele>
        <time>2019-07-17T12:57:11Z</time>
      </trkpt>
      <trkpt lat="45.90585" lon="0.07467">
        <ele>110.375</ele>
        <time>2019-07-17T12:57:15Z</time>
      </trkpt>
      <trkpt lat="45.90599" lon="0.0746">
        <ele>110.3671875</ele>
        <time>2019-07-17T12:57:22Z</time>
      </trkpt>
      <trkpt lat="45.90606" lon="0.07458">
        <ele>110.3203125</ele>
        <time>2019-07-17T12:57:26Z</time>
      </trkpt>
      <trkpt lat="45.90622" lon="0.07462">
        <ele>110.3984375</ele>
        <time>2019-07-17T12:57:34Z</time>
      </trkpt>
      <trkpt lat="45.90637" lon="0.07461">
        <ele>110.3828125</ele>
        <time>2019-07-17T12:57:40Z</time>
      </trkpt>
      <trkpt lat="45.90652" lon="0.07454">
        <ele>110.3359375</ele>
        <time>2019-07-17T12:57:46Z</time>
      </trkpt>
      <trkpt lat="45.90662" lon="0.07447">
        <ele>110.37890625</ele>
        <time>2019-07-17T12:57:51Z</time>
      </trkpt>
      <trkpt lat="45.90674" lon="0.07443">
        <ele>110.52734375</ele>
        <time>2019-07-17T12:57:57Z</time>
      </trkpt>
      <trkpt lat="45.90675" lon="0.07443">
        <ele>110.55859375</ele>
        <time>2019-07-17T12:57:58Z</time>
      </trkpt>
      <trkpt lat="45.90686" lon="0.07446">
        <ele>110.796875</ele>
        <time>2019-07-17T12:58:03Z</time>
      </trkpt>
      <trkpt lat="45.9069" lon="0.07441">
        <ele>110.78125</ele>
        <time>2019-07-17T12:58:07Z</time>
      </trkpt>
      <trkpt lat="45.90704" lon="0.07433">
        <ele>110.90234375</ele>
        <time>2019-07-17T12:58:13Z</time>
      </trkpt>
      <trkpt lat="45.90717" lon="0.07421">
        <ele>111.01171875</ele>
        <time>2019-07-17T12:58:19Z</time>
      </trkpt>
      <trkpt lat="45.9073" lon="0.07421">
        <ele>111.30859375</ele>
        <time>2019-07-17T12:58:26Z</time>
      </trkpt>
      <trkpt lat="45.90732" lon="0.07423">
        <ele>111.37109375</ele>
        <time>2019-07-17T12:58:27Z</time>
      </trkpt>
      <trkpt lat="45.90738" lon="0.07431">
        <ele>111.56640625</ele>
        <time>2019-07-17T12:58:32Z</time>
      </trkpt>
      <trkpt lat="45.9073" lon="0.07439">
        <ele>111.46875</ele>
        <time>2019-07-17T12:58:39Z</time>
      </trkpt>
      <trkpt lat="45.90728" lon="0.07445">
        <ele>111.5</ele>
        <time>2019-07-17T12:58:42Z</time>
      </trkpt>
      <trkpt lat="45.90732" lon="0.07453">
        <ele>111.62890625</ele>
        <time>2019-07-17T12:58:46Z</time>
      </trkpt>
      <trkpt lat="45.90733" lon="0.07456">
        <ele>111.6796875</ele>
        <time>2019-07-17T12:58:48Z</time>
      </trkpt>
      <trkpt lat="45.90745" lon="0.07469">
        <ele>111.87890625</ele>
        <time>2019-07-17T12:58:55Z</time>
      </trkpt>
      <trkpt lat="45.90748" lon="0.07479">
        <ele>111.94140625</ele>
        <time>2019-07-17T12:59:01Z</time>
      </trkpt>
      <trkpt lat="45.9075" lon="0.07489">
        <ele>111.98046875</ele>
        <time>2019-07-17T12:59:06Z</time>
      </trkpt>
      <trkpt lat="45.90753" lon="0.07511">
        <ele>111.7265625</ele>
        <time>2019-07-17T12:59:14Z</time>
      </trkpt>
      <trkpt lat="45.90754" lon="0.07517">
        <ele>111.62109375</ele>
        <time>2019-07-17T12:59:16Z</time>
      </trkpt>
      <trkpt lat="45.90755" lon="0.07534">
        <ele>111.296875</ele>
        <time>2019-07-17T12:59:23Z</time>
      </trkpt>
      <trkpt lat="45.90754" lon="0.07535">
        <ele>111.2890625</ele>
        <time>2019-07-17T12:59:24Z</time>
      </trkpt>
      <trkpt lat="45.90742" lon="0.07541">
        <ele>111.1875</ele>
        <time>2019-07-17T12:59:31Z</time>
      </trkpt>
      <trkpt lat="45.90731" lon="0.07544">
        <ele>111.12890625</ele>
        <time>2019-07-17T12:59:37Z</time>
      </trkpt>
      <trkpt lat="45.90723" lon="0.07552">
        <ele>110.9765625</ele>
        <time>2019-07-17T12:59:43Z</time>
      </trkpt>
      <trkpt lat="45.9072" lon="0.0756">
        <ele>110.828125</ele>
        <time>2019-07-17T12:59:46Z</time>
      </trkpt>
      <trkpt lat="45.90714" lon="0.07571">
        <ele>110.64453125</ele>
        <time>2019-07-17T12:59:52Z</time>
      </trkpt>
      <trkpt lat="45.90715" lon="0.0758">
        <ele>110.4765625</ele>
        <time>2019-07-17T12:59:56Z</time>
      </trkpt>
      <trkpt lat="45.90718" lon="0.07599">
        <ele>110.13671875</ele>
        <time>2019-07-17T13:00:04Z</time>
      </trkpt>
      <trkpt lat="45.90721" lon="0.07617">
        <ele>109.625</ele>
        <time>2019-07-17T13:00:12Z</time>
      </trkpt>
      <trkpt lat="45.90721" lon="0.0762">
        <ele>109.515625</ele>
        <time>2019-07-17T13:00:13Z</time>
      </trkpt>
      <trkpt lat="45.90721" lon="0.07637">
        <ele>108.8828125</ele>
        <time>2019-07-17T13:00:20Z</time>
      </trkpt>
      <trkpt lat="45.90719" lon="0.07641">
        <ele>108.76171875</ele>
        <time>2019-07-17T13:00:22Z</time>
      </trkpt>
      <trkpt lat="45.90717" lon="0.07653">
        <ele>108.328125</ele>
        <time>2019-07-17T13:00:28Z</time>
      </trkpt>
      <trkpt lat="45.9071" lon="0.07674">
        <ele>107.765625</ele>
        <time>2019-07-17T13:00:37Z</time>
      </trkpt>
      <trkpt lat="45.90702" lon="0.07686">
        <ele>107.58203125</ele>
        <time>2019-07-17T13:00:43Z</time>
      </trkpt>
      <trkpt lat="45.90694" lon="0.07692">
        <ele>107.625</ele>
        <time>2019-07-17T13:00:47Z</time>
      </trkpt>
      <trkpt lat="45.90685" lon="0.07701">
        <ele>107.625</ele>
        <time>2019-07-17T13:00:53Z</time>
      </trkpt>
      <trkpt lat="45.90683" lon="0.07706">
        <ele>107.58203125</ele>
        <time>2019-07-17T13:00:55Z</time>
      </trkpt>
      <trkpt lat="45.90679" lon="0.07721">
        <ele>107.3046875</ele>
        <time>2019-07-17T13:01:02Z</time>
      </trkpt>
      <trkpt lat="45.90679" lon="0.07747">
        <ele>106.359375</ele>
        <time>2019-07-17T13:01:10Z</time>
      </trkpt>
      <trkpt lat="45.90678" lon="0.07764">
        <ele>105.78515625</ele>
        <time>2019-07-17T13:01:16Z</time>
      </trkpt>
      <trkpt lat="45.90675" lon="0.07775">
        <ele>105.46484375</ele>
        <time>2019-07-17T13:01:25Z</time>
      </trkpt>
      <trkpt lat="45.90674" lon="0.07775">
        <ele>105.4765625</ele>
        <time>2019-07-17T13:01:26Z</time>
      </trkpt>
      <trkpt lat="45.90668" lon="0.07773">
        <ele>105.640625</ele>
        <time>2019-07-17T13:01:33Z</time>
      </trkpt>
      <trkpt lat="45.90667" lon="0.07772">
        <ele>105.7109375</ele>
        <time>2019-07-17T13:01:37Z</time>
      </trkpt>
      <trkpt lat="45.90661" lon="0.0776">
        <ele>106.2265625</ele>
        <time>2019-07-17T13:01:44Z</time>
      </trkpt>
      <trkpt lat="45.90653" lon="0.07755">
        <ele>106.55859375</ele>
        <time>2019-07-17T13:01:49Z</time>
      </trkpt>
      <trkpt lat="45.90645" lon="0.07756">
        <ele>106.6875</ele>
        <time>2019-07-17T13:01:53Z</time>
      </trkpt>
      <trkpt lat="45.90642" lon="0.07754">
        <ele>106.8125</ele>
        <time>2019-07-17T13:01:54Z</time>
      </trkpt>
      <trkpt lat="45.90637" lon="0.07747">
        <ele>107.12109375</ele>
        <time>2019-07-17T13:01:57Z</time>
      </trkpt>
      <trkpt lat="45.9063" lon="0.07727">
        <ele>107.7578125</ele>
        <time>2019-07-17T13:02:05Z</time>
      </trkpt>
      <trkpt lat="45.90628" lon="0.0772">
        <ele>107.93359375</ele>
        <time>2019-07-17T13:02:07Z</time>
      </trkpt>
      <trkpt lat="45.90619" lon="0.07719">
        <ele>107.96875</ele>
        <time>2019-07-17T13:02:13Z</time>
      </trkpt>
      <trkpt lat="45.90609" lon="0.07731">
        <ele>107.84765625</ele>
        <time>2019-07-17T13:02:20Z</time>
      </trkpt>
      <trkpt lat="45.90597" lon="0.07735">
        <ele>107.9453125</ele>
        <time>2019-07-17T13:02:25Z</time>
      </trkpt>
      <trkpt lat="45.90588" lon="0.07732">
        <ele>108.078125</ele>
        <time>2019-07-17T13:02:29Z</time>
      </trkpt>
      <trkpt lat="45.90578" lon="0.07728">
        <ele>108.25</ele>
        <time>2019-07-17T13:02:33Z</time>
      </trkpt>
      <trkpt lat="45.90561" lon="0.07733">
        <ele>108.5546875</ele>
        <time>2019-07-17T13:02:39Z</time>
      </trkpt>
      <trkpt lat="45.90558" lon="0.07733">
        <ele>108.6015625</ele>
        <time>2019-07-17T13:02:40Z</time>
      </trkpt>
      <trkpt lat="45.90545" lon="0.07734">
        <ele>108.83984375</ele>
        <time>2019-07-17T13:02:45Z</time>
      </trkpt>
      <trkpt lat="45.90535" lon="0.07736">
        <ele>109</ele>
        <time>2019-07-17T13:02:50Z</time>
      </trkpt>
      <trkpt lat="45.90523" lon="0.07736">
        <ele>109</ele>
        <time>2019-07-17T13:02:57Z</time>
      </trkpt>
      <trkpt lat="45.90517" lon="0.07735">
        <ele>109</ele>
        <time>2019-07-17T13:03:09Z</time>
      </trkpt>
      <trkpt lat="45.90506" lon="0.07738">
        <ele>109</ele>
        <time>2019-07-17T13:03:23Z</time>
      </trkpt>
      <trkpt lat="45.90505" lon="0.07727">
        <ele>109</ele>
        <time>2019-07-17T13:03:36Z</time>
      </trkpt>
      <trkpt lat="45.90507" lon="0.07717">
        <ele>109.00390625</ele>
        <time>2019-07-17T13:03:44Z</time>
      </trkpt>
      <trkpt lat="45.90505" lon="0.07714">
        <ele>109.03125</ele>
        <time>2019-07-17T13:03:45Z</time>
      </trkpt>
      <trkpt lat="45.90502" lon="0.07713">
        <ele>109.03125</ele>
        <time>2019-07-17T13:03:56Z</time>
      </trkpt>
      <trkpt lat="45.90485" lon="0.07718">
        <ele>109</ele>
        <time>2019-07-17T13:04:03Z</time>
      </trkpt>
      <trkpt lat="45.90461" lon="0.07728">
        <ele>109</ele>
        <time>2019-07-17T13:04:11Z</time>
      </trkpt>
      <trkpt lat="45.90436" lon="0.07731">
        <ele>109</ele>
        <time>2019-07-17T13:04:19Z</time>
      </trkpt>
      <trkpt lat="45.90402" lon="0.07726">
        <ele>108.51171875</ele>
        <time>2019-07-17T13:04:28Z</time>
      </trkpt>
      <trkpt lat="45.90369" lon="0.07719">
        <ele>107.92578125</ele>
        <time>2019-07-17T13:04:35Z</time>
      </trkpt>
      <trkpt lat="45.90364" lon="0.07719">
        <ele>107.765625</ele>
        <time>2019-07-17T13:04:36Z</time>
      </trkpt>
      <trkpt lat="45.90318" lon="0.07715">
        <ele>106.08984375</ele>
        <time>2019-07-17T13:04:45Z</time>
      </trkpt>
      <trkpt lat="45.90288" lon="0.07711">
        <ele>104.97265625</ele>
        <time>2019-07-17T13:04:52Z</time>
      </trkpt>
      <trkpt lat="45.90252" lon="0.07708">
        <ele>103.5859375</ele>
        <time>2019-07-17T13:04:59Z</time>
      </trkpt>
      <trkpt lat="45.90217" lon="0.07708">
        <ele>101.609375</ele>
        <time>2019-07-17T13:05:05Z</time>
      </trkpt>
      <trkpt lat="45.90211" lon="0.07708">
        <ele>101.28125</ele>
        <time>2019-07-17T13:05:06Z</time>
      </trkpt>
      <trkpt lat="45.90168" lon="0.07706">
        <ele>99.046875</ele>
        <time>2019-07-17T13:05:14Z</time>
      </trkpt>
      <trkpt lat="45.90164" lon="0.07706">
        <ele>98.83203125</ele>
        <time>2019-07-17T13:05:15Z</time>
      </trkpt>
      <trkpt lat="45.90146" lon="0.07706">
        <ele>97.8671875</ele>
        <time>2019-07-17T13:05:21Z</time>
      </trkpt>
      <trkpt lat="45.90143" lon="0.07708">
        <ele>97.609375</ele>
        <time>2019-07-17T13:05:32Z</time>
      </trkpt>
      <trkpt lat="45.9014" lon="0.07709">
        <ele>97.3984375</ele>
        <time>2019-07-17T13:05:33Z</time>
      </trkpt>
      <trkpt lat="45.90136" lon="0.07709">
        <ele>97.15625</ele>
        <time>2019-07-17T13:05:34Z</time>
      </trkpt>
      <trkpt lat="45.90102" lon="0.0771">
        <ele>94.61328125</ele>
        <time>2019-07-17T13:05:41Z</time>
      </trkpt>
      <trkpt lat="45.90073" lon="0.07709">
        <ele>92.19140625</ele>
        <time>2019-07-17T13:05:45Z</time>
      </trkpt>
      <trkpt lat="45.90057" lon="0.07708">
        <ele>90.7578125</ele>
        <time>2019-07-17T13:05:47Z</time>
      </trkpt>
      <trkpt lat="45.90039" lon="0.07708">
        <ele>89.20703125</ele>
        <time>2019-07-17T13:05:49Z</time>
      </trkpt>
      <trkpt lat="45.90011" lon="0.07706">
        <ele>87.0546875</ele>
        <time>2019-07-17T13:05:52Z</time>
      </trkpt>
      <trkpt lat="45.89973" lon="0.07703">
        <ele>84.40625</ele>
        <time>2019-07-17T13:05:56Z</time>
      </trkpt>
      <trkpt lat="45.89956" lon="0.07699">
        <ele>83.6171875</ele>
        <time>2019-07-17T13:05:58Z</time>
      </trkpt>
      <trkpt lat="45.89942" lon="0.07697">
        <ele>82.953125</ele>
        <time>2019-07-17T13:06:00Z</time>
      </trkpt>
      <trkpt lat="45.89923" lon="0.07694">
        <ele>82.10546875</ele>
      </trkpt>
      <trkpt lat="45.89915" lon="0.077">
        <ele>82.03125</ele>
      </trkpt>
      <trkpt lat="45.89894" lon="0.07704">
        <ele>81.5078125</ele>
      </trkpt>
      <trkpt lat="45.89874" lon="0.07708">
        <ele>80.95703125</ele>
      </trkpt>
      <trkpt lat="45.8985" lon="0.07709">
        <ele>80.5390625</ele>
      </trkpt>
      <trkpt lat="45.89821" lon="0.07713">
        <ele>80.11328125</ele>
      </trkpt>
      <trkpt lat="45.89792" lon="0.07716">
        <ele>79.59765625</ele>
      </trkpt>
      <trkpt lat="45.89769" lon="0.07718">
        <ele>79.19140625</ele>
      </trkpt>
      <trkpt lat="45.89745" lon="0.07721">
        <ele>79.08203125</ele>
      </trkpt>
      <trkpt lat="45.89729" lon="0.07722">
        <ele>79.1328125</ele>
      </trkpt>
      <trkpt lat="45.89713" lon="0.07723">
        <ele>79.1796875</ele>
      </trkpt>
      <trkpt lat="45.89698" lon="0.07726">
        <ele>79.3984375</ele>
      </trkpt>
      <trkpt lat="45.89682" lon="0.07727">
        <ele>79.734375</ele>
      </trkpt>
      <trkpt lat="45.8967" lon="0.07727">
        <ele>79.9375</ele>
      </trkpt>
      <trkpt lat="45.89653" lon="0.07722">
        <ele>80.06640625</ele>
      </trkpt>
      <trkpt lat="45.89634" lon="0.07715">
        <ele>79.87890625</ele>
      </trkpt>
      <trkpt lat="45.89616" lon="0.07706">
        <ele>79.47265625</ele>
      </trkpt>
      <trkpt lat="45.89593" lon="0.07696">
        <ele>78.86328125</ele>
      </trkpt>
      <trkpt lat="45.89573" lon="0.07688">
        <ele>78.046875</ele>
      </trkpt>
      <trkpt lat="45.89557" lon="0.0768">
        <ele>77.34375</ele>
      </trkpt>
      <trkpt lat="45.89536" lon="0.07672">
        <ele>76.51171875</ele>
      </trkpt>
      <trkpt lat="45.89519" lon="0.07665">
        <ele>75.8203125</ele>
      </trkpt>
      <trkpt lat="45.89502" lon="0.0766">
        <ele>75.33203125</ele>
      </trkpt>
      <trkpt lat="45.89486" lon="0.07655">
        <ele>74.95703125</ele>
      </trkpt>
      <trkpt lat="45.89452" lon="0.07645">
        <ele>74.32421875</ele>
      </trkpt>
      <trkpt lat="45.89389" lon="0.07626">
        <ele>73.33203125</ele>
      </trkpt>
      <trkpt lat="45.89354" lon="0.07616">
        <ele>73</ele>
      </trkpt>
      <trkpt lat="45.89319" lon="0.07596">
        <ele>73.015625</ele>
      </trkpt>
      <trkpt lat="45.89269" lon="0.07567">
        <ele>72.1640625</ele>
      </trkpt>
      <trkpt lat="45.89231" lon="0.07548">
        <ele>72.53125</ele>
      </trkpt>
      <trkpt lat="45.8919" lon="0.07531">
        <ele>73.87109375</ele>
      </trkpt>
      <trkpt lat="45.89169" lon="0.07515">
        <ele>74.92578125</ele>
      </trkpt>
      <trkpt lat="45.89139" lon="0.07489">
        <ele>76.3359375</ele>
      </trkpt>
      <trkpt lat="45.89116" lon="0.07468">
        <ele>77.1796875</ele>
      </trkpt>
      <trkpt lat="45.89095" lon="0.0745">
        <ele>77.90625</ele>
      </trkpt>
      <trkpt lat="45.89081" lon="0.07436">
        <ele>78.51171875</ele>
      </trkpt>
      <trkpt lat="45.89073" lon="0.07429">
        <ele>78.93359375</ele>
      </trkpt>
      <trkpt lat="45.89056" lon="0.07421">
        <ele>79.65625</ele>
      </trkpt>
      <trkpt lat="45.89041" lon="0.07411">
        <ele>80.41015625</ele>
      </trkpt>
      <trkpt lat="45.89011" lon="0.07403">
        <ele>80.65625</ele>
      </trkpt>
      <trkpt lat="45.88988" lon="0.07399">
        <ele>80.73828125</ele>
      </trkpt>
      <trkpt lat="45.8897" lon="0.07399">
        <ele>80.53125</ele>
      </trkpt>
      <trkpt lat="45.88957" lon="0.07398">
        <ele>80.3046875</ele>
      </trkpt>
      <trkpt lat="45.88954" lon="0.07399">
        <ele>80.23828125</ele>
      </trkpt>
      <trkpt lat="45.88951" lon="0.074">
        <ele>80.16015625</ele>
      </trkpt>
      <trkpt lat="45.88948" lon="0.07398">
        <ele>80.15625</ele>
      </trkpt>
      <trkpt lat="45.88947" lon="0.07393">
        <ele>80.21875</ele>
      </trkpt>
      <trkpt lat="45.88947" lon="0.07386">
        <ele>80.33203125</ele>
      </trkpt>
      <trkpt lat="45.8895" lon="0.07365">
        <ele>80.9609375</ele>
      </trkpt>
      <trkpt lat="45.88951" lon="0.07332">
        <ele>81.92578125</ele>
      </trkpt>
      <trkpt lat="45.88952" lon="0.07306">
        <ele>82.1953125</ele>
      </trkpt>
      <trkpt lat="45.88952" lon="0.0728">
        <ele>82.41796875</ele>
      </trkpt>
      <trkpt lat="45.88951" lon="0.07252">
        <ele>82.4375</ele>
      </trkpt>
      <trkpt lat="45.88949" lon="0.07217">
        <ele>82.39453125</ele>
      </trkpt>
      <trkpt lat="45.88948" lon="0.07197">
        <ele>82.25</ele>
      </trkpt>
      <trkpt lat="45.88942" lon="0.07148">
        <ele>82</ele>
      </trkpt>
      <trkpt lat="45.88938" lon="0.07133">
        <ele>82</ele>
      </trkpt>
      <trkpt lat="45.88927" lon="0.07078">
        <ele>82</ele>
      </trkpt>
      <trkpt lat="45.8892" lon="0.07039">
        <ele>82.02734375</ele>
      </trkpt>
      <trkpt lat="45.88914" lon="0.07001">
        <ele>82.19921875</ele>
      </trkpt>
      <trkpt lat="45.88908" lon="0.06961">
        <ele>82.12109375</ele>
      </trkpt>
      <trkpt lat="45.88906" lon="0.06941">
        <ele>82</ele>
      </trkpt>
      <trkpt lat="45.88899" lon="0.06903">
        <ele>81.3359375</ele>
      </trkpt>
      <trkpt lat="45.88892" lon="0.0687">
        <ele>80.7421875</ele>
      </trkpt>
      <trkpt lat="45.88889" lon="0.06842">
        <ele>80.234375</ele>
      </trkpt>
      <trkpt lat="45.88883" lon="0.06813">
        <ele>79.48046875</ele>
      </trkpt>
      <trkpt lat="45.8888" lon="0.06784">
        <ele>78.4921875</ele>
      </trkpt>
      <trkpt lat="45.88874" lon="0.06761">
        <ele>77.82421875</ele>
      </trkpt>
      <trkpt lat="45.88866" lon="0.0673">
        <ele>76.9765625</ele>
      </trkpt>
      <trkpt lat="45.88862" lon="0.06709">
        <ele>76.5078125</ele>
      </trkpt>
      <trkpt lat="45.88857" lon="0.06695">
        <ele>76.265625</ele>
      </trkpt>
      <trkpt lat="45.88854" lon="0.06679">
        <ele>76.1171875</ele>
      </trkpt>
      <trkpt lat="45.88854" lon="0.06669">
        <ele>76.1171875</ele>
      </trkpt>
      <trkpt lat="45.88855" lon="0.06657">
        <ele>76.19921875</ele>
      </trkpt>
      <trkpt lat="45.88857" lon="0.06649">
        <ele>76.3671875</ele>
      </trkpt>
      <trkpt lat="45.88861" lon="0.06642">
        <ele>76.59375</ele>
      </trkpt>
      <trkpt lat="45.88867" lon="0.06638">
        <ele>76.859375</ele>
      </trkpt>
      <trkpt lat="45.88892" lon="0.06622">
        <ele>77.37890625</ele>
      </trkpt>
      <trkpt lat="45.88907" lon="0.06614">
        <ele>77.65234375</ele>
      </trkpt>
      <trkpt lat="45.88911" lon="0.06612">
        <ele>77.7265625</ele>
      </trkpt>
      <trkpt lat="45.88934" lon="0.06591">
        <ele>78.4140625</ele>
      </trkpt>
      <trkpt lat="45.88955" lon="0.06573">
        <ele>79.140625</ele>
      </trkpt>
      <trkpt lat="45.88975" lon="0.06551">
        <ele>79.8828125</ele>
      </trkpt>
      <trkpt lat="45.88995" lon="0.06537">
        <ele>80.23828125</ele>
      </trkpt>
      <trkpt lat="45.89022" lon="0.06516">
        <ele>80.72265625</ele>
      </trkpt>
      <trkpt lat="45.89041" lon="0.06502">
        <ele>81.0078125</ele>
      </trkpt>
      <trkpt lat="45.89066" lon="0.06486">
        <ele>81</ele>
      </trkpt>
      <trkpt lat="45.89095" lon="0.06467">
        <ele>81.06640625</ele>
      </trkpt>
      <trkpt lat="45.89116" lon="0.06454">
        <ele>81.7265625</ele>
      </trkpt>
      <trkpt lat="45.89133" lon="0.06441">
        <ele>82.4375</ele>
      </trkpt>
      <trkpt lat="45.8915" lon="0.0643">
        <ele>83.234375</ele>
      </trkpt>
      <trkpt lat="45.8916" lon="0.06423">
        <ele>83.796875</ele>
      </trkpt>
      <trkpt lat="45.89173" lon="0.0641">
        <ele>84.65625</ele>
      </trkpt>
      <trkpt lat="45.89182" lon="0.06399">
        <ele>85.42578125</ele>
      </trkpt>
      <trkpt lat="45.89187" lon="0.06391">
        <ele>85.9140625</ele>
      </trkpt>
      <trkpt lat="45.89196" lon="0.06374">
        <ele>86.75390625</ele>
      </trkpt>
      <trkpt lat="45.89201" lon="0.06362">
        <ele>87.25390625</ele>
      </trkpt>
      <trkpt lat="45.89207" lon="0.06351">
        <ele>87.68359375</ele>
      </trkpt>
      <trkpt lat="45.8921" lon="0.06345">
        <ele>87.8671875</ele>
      </trkpt>
      <trkpt lat="45.89214" lon="0.06339">
        <ele>88.046875</ele>
      </trkpt>
      <trkpt lat="45.89218" lon="0.06334">
        <ele>88.18359375</ele>
      </trkpt>
      <trkpt lat="45.89219" lon="0.0633">
        <ele>88.26953125</ele>
      </trkpt>
      <trkpt lat="45.89224" lon="0.06328">
        <ele>88.328125</ele>
      </trkpt>
      <trkpt lat="45.89237" lon="0.06321">
        <ele>88.34765625</ele>
      </trkpt>
      <trkpt lat="45.89266" lon="0.06303">
        <ele>88.109375</ele>
      </trkpt>
      <trkpt lat="45.89288" lon="0.06291">
        <ele>87.9765625</ele>
      </trkpt>
      <trkpt lat="45.89299" lon="0.06285">
        <ele>87.97265625</ele>
      </trkpt>
      <trkpt lat="45.89307" lon="0.06279">
        <ele>87.94921875</ele>
      </trkpt>
      <trkpt lat="45.8931" lon="0.06273">
        <ele>87.8984375</ele>
      </trkpt>
      <trkpt lat="45.89319" lon="0.06256">
        <ele>87.83203125</ele>
      </trkpt>
      <trkpt lat="45.89326" lon="0.0623">
        <ele>87.77734375</ele>
      </trkpt>
      <trkpt lat="45.89339" lon="0.06176">
        <ele>87.8671875</ele>
      </trkpt>
      <trkpt lat="45.8935" lon="0.06138">
        <ele>88.6796875</ele>
      </trkpt>
      <trkpt lat="45.89348" lon="0.06135">
        <ele>88.59375</ele>
        <time>2017-10-13T12:00:21Z</time>
      </trkpt>
      <trkpt lat="45.89364" lon="0.06087">
        <ele>90.01953125</ele>
        <time>2017-10-13T12:00:30Z</time>
      </trkpt>
      <trkpt lat="45.89376" lon="0.06052">
        <ele>91.29296875</ele>
        <time>2017-10-13T12:00:38Z</time>
      </trkpt>
      <trkpt lat="45.89391" lon="0.06015">
        <ele>93.8671875</ele>
        <time>2017-10-13T12:00:47Z</time>
      </trkpt>
      <trkpt lat="45.89415" lon="0.05982">
        <ele>95.84375</ele>
        <time>2017-10-13T12:00:57Z</time>
      </trkpt>
      <trkpt lat="45.89435" lon="0.05962">
        <ele>96.71484375</ele>
        <time>2017-10-13T12:01:05Z</time>
      </trkpt>
      <trkpt lat="45.89464" lon="0.05931">
        <ele>97.6796875</ele>
        <time>2017-10-13T12:01:16Z</time>
      </trkpt>
      <trkpt lat="45.89488" lon="0.05904">
        <ele>98.12109375</ele>
        <time>2017-10-13T12:01:24Z</time>
      </trkpt>
      <trkpt lat="45.8951" lon="0.05882">
        <ele>98.49609375</ele>
        <time>2017-10-13T12:01:30Z</time>
      </trkpt>
      <trkpt lat="45.89515" lon="0.0588">
        <ele>98.56640625</ele>
        <time>2017-10-13T12:01:31Z</time>
      </trkpt>
      <trkpt lat="45.8952" lon="0.05879">
        <ele>98.6484375</ele>
        <time>2017-10-13T12:01:32Z</time>
      </trkpt>
      <trkpt lat="45.89524" lon="0.05878">
        <ele>98.73828125</ele>
        <time>2017-10-13T12:01:33Z</time>
      </trkpt>
      <trkpt lat="45.89528" lon="0.05879">
        <ele>98.828125</ele>
        <time>2017-10-13T12:01:34Z</time>
      </trkpt>
      <trkpt lat="45.89533" lon="0.05881">
        <ele>98.92578125</ele>
        <time>2017-10-13T12:01:35Z</time>
      </trkpt>
      <trkpt lat="45.89537" lon="0.05884">
        <ele>98.99609375</ele>
        <time>2017-10-13T12:01:36Z</time>
      </trkpt>
      <trkpt lat="45.89541" lon="0.05886">
        <ele>99.20703125</ele>
        <time>2017-10-13T12:01:37Z</time>
      </trkpt>
      <trkpt lat="45.8956" lon="0.059">
        <ele>100.23828125</ele>
        <time>2017-10-13T12:01:42Z</time>
      </trkpt>
      <trkpt lat="45.89571" lon="0.05908">
        <ele>100.8359375</ele>
        <time>2017-10-13T12:01:45Z</time>
      </trkpt>
      <trkpt lat="45.89585" lon="0.05915">
        <ele>101.578125</ele>
        <time>2017-10-13T12:01:49Z</time>
      </trkpt>
      <trkpt lat="45.89588" lon="0.05913">
        <ele>101.7734375</ele>
        <time>2017-10-13T12:01:50Z</time>
      </trkpt>
      <trkpt lat="45.89591" lon="0.05909">
        <ele>101.90625</ele>
        <time>2017-10-13T12:01:51Z</time>
      </trkpt>
      <trkpt lat="45.89592" lon="0.05905">
        <ele>101.984375</ele>
        <time>2017-10-13T12:01:52Z</time>
      </trkpt>
      <trkpt lat="45.89594" lon="0.05901">
        <ele>102.08203125</ele>
        <time>2017-10-13T12:01:53Z</time>
      </trkpt>
      <trkpt lat="45.89603" lon="0.05857">
        <ele>102.66796875</ele>
        <time>2017-10-13T12:02:01Z</time>
      </trkpt>
      <trkpt lat="45.89606" lon="0.05846">
        <ele>102.8203125</ele>
        <time>2017-10-13T12:02:03Z</time>
      </trkpt>
      <trkpt lat="45.89609" lon="0.05841">
        <ele>102.93359375</ele>
        <time>2017-10-13T12:02:04Z</time>
      </trkpt>
      <trkpt lat="45.89612" lon="0.05836">
        <ele>103.0625</ele>
        <time>2017-10-13T12:02:05Z</time>
      </trkpt>
      <trkpt lat="45.89636" lon="0.05803">
        <ele>104.15625</ele>
        <time>2017-10-13T12:02:12Z</time>
      </trkpt>
      <trkpt lat="45.89639" lon="0.05797">
        <ele>104.29296875</ele>
        <time>2017-10-13T12:02:13Z</time>
      </trkpt>
      <trkpt lat="45.8964" lon="0.05791">
        <ele>104.3515625</ele>
        <time>2017-10-13T12:02:14Z</time>
      </trkpt>
      <trkpt lat="45.89641" lon="0.05779">
        <ele>104.37109375</ele>
        <time>2017-10-13T12:02:16Z</time>
      </trkpt>
      <trkpt lat="45.8964" lon="0.05773">
        <ele>104.3046875</ele>
        <time>2017-10-13T12:02:17Z</time>
      </trkpt>
      <trkpt lat="45.8964" lon="0.05721">
        <ele>104.1328125</ele>
        <time>2017-10-13T12:02:24Z</time>
      </trkpt>
      <trkpt lat="45.89642" lon="0.05707">
        <ele>104.44921875</ele>
        <time>2017-10-13T12:02:26Z</time>
      </trkpt>
      <trkpt lat="45.89641" lon="0.05679">
        <ele>104.8125</ele>
        <time>2017-10-13T12:02:30Z</time>
      </trkpt>
      <trkpt lat="45.8964" lon="0.05672">
        <ele>104.703125</ele>
        <time>2017-10-13T12:02:31Z</time>
      </trkpt>
      <trkpt lat="45.89636" lon="0.05656">
        <ele>104.33203125</ele>
        <time>2017-10-13T12:02:33Z</time>
      </trkpt>
      <trkpt lat="45.89635" lon="0.05647">
        <ele>104.23828125</ele>
        <time>2017-10-13T12:02:34Z</time>
      </trkpt>
      <trkpt lat="45.89637" lon="0.0558">
        <ele>105.0625</ele>
        <time>2017-10-13T12:02:42Z</time>
      </trkpt>
      <trkpt lat="45.89634" lon="0.0551">
        <ele>105.43359375</ele>
        <time>2017-10-13T12:02:51Z</time>
      </trkpt>
      <trkpt lat="45.89621" lon="0.0542">
        <ele>104.53125</ele>
        <time>2017-10-13T12:03:02Z</time>
      </trkpt>
      <trkpt lat="45.8962" lon="0.05394">
        <ele>104.51953125</ele>
        <time>2017-10-13T12:03:05Z</time>
      </trkpt>
      <trkpt lat="45.89623" lon="0.05377">
        <ele>104.61328125</ele>
        <time>2017-10-13T12:03:07Z</time>
      </trkpt>
      <trkpt lat="45.89624" lon="0.05368">
        <ele>104.67578125</ele>
        <time>2017-10-13T12:03:08Z</time>
      </trkpt>
      <trkpt lat="45.89644" lon="0.05287">
        <ele>104.84765625</ele>
        <time>2017-10-13T12:03:18Z</time>
      </trkpt>
      <trkpt lat="45.89658" lon="0.05218">
        <ele>102.49609375</ele>
        <time>2017-10-13T12:03:27Z</time>
      </trkpt>
      <trkpt lat="45.8966" lon="0.0521">
        <ele>101.97265625</ele>
        <time>2017-10-13T12:03:28Z</time>
      </trkpt>
      <trkpt lat="45.89671" lon="0.0515">
        <ele>98.640625</ele>
        <time>2017-10-13T12:03:34Z</time>
      </trkpt>
      <trkpt lat="45.89688" lon="0.05061">
        <ele>94.25390625</ele>
        <time>2017-10-13T12:03:42Z</time>
      </trkpt>
      <trkpt lat="45.89688" lon="0.0505">
        <ele>93.58984375</ele>
        <time>2017-10-13T12:03:43Z</time>
      </trkpt>
      <trkpt lat="45.89687" lon="0.05039">
        <ele>93.06640625</ele>
        <time>2017-10-13T12:03:44Z</time>
      </trkpt>
      <trkpt lat="45.89685" lon="0.05029">
        <ele>92.5546875</ele>
        <time>2017-10-13T12:03:45Z</time>
      </trkpt>
      <trkpt lat="45.89683" lon="0.05019">
        <ele>92.05859375</ele>
        <time>2017-10-13T12:03:46Z</time>
      </trkpt>
      <trkpt lat="45.89681" lon="0.05009">
        <ele>91.56640625</ele>
        <time>2017-10-13T12:03:47Z</time>
      </trkpt>
      <trkpt lat="45.8968" lon="0.04999">
        <ele>91.07421875</ele>
        <time>2017-10-13T12:03:48Z</time>
      </trkpt>
      <trkpt lat="45.8968" lon="0.04988">
        <ele>90.65234375</ele>
        <time>2017-10-13T12:03:49Z</time>
      </trkpt>
      <trkpt lat="45.89681" lon="0.04978">
        <ele>90.23046875</ele>
        <time>2017-10-13T12:03:50Z</time>
      </trkpt>
      <trkpt lat="45.89683" lon="0.04967">
        <ele>89.78125</ele>
        <time>2017-10-13T12:03:51Z</time>
      </trkpt>
      <trkpt lat="45.8969" lon="0.0492">
        <ele>87.71875</ele>
        <time>2017-10-13T12:03:55Z</time>
      </trkpt>
      <trkpt lat="45.89695" lon="0.0488">
        <ele>86.01953125</ele>
        <time>2017-10-13T12:03:58Z</time>
      </trkpt>
      <trkpt lat="45.89697" lon="0.04853">
        <ele>84.46875</ele>
        <time>2017-10-13T12:04:00Z</time>
      </trkpt>
      <trkpt lat="45.89705" lon="0.04791">
        <ele>80.875</ele>
        <time>2017-10-13T12:04:05Z</time>
      </trkpt>
      <trkpt lat="45.89715" lon="0.04761">
        <ele>80.01171875</ele>
        <time>2017-10-13T12:04:08Z</time>
      </trkpt>
      <trkpt lat="45.89722" lon="0.04739">
        <ele>79.89453125</ele>
        <time>2017-10-13T12:04:11Z</time>
      </trkpt>
      <trkpt lat="45.8972" lon="0.04734">
        <ele>79.78515625</ele>
        <time>2017-10-13T12:04:12Z</time>
      </trkpt>
      <trkpt lat="45.89717" lon="0.0473">
        <ele>79.61328125</ele>
        <time>2017-10-13T12:04:13Z</time>
      </trkpt>
      <trkpt lat="45.89713" lon="0.04727">
        <ele>79.4375</ele>
        <time>2017-10-13T12:04:14Z</time>
      </trkpt>
      <trkpt lat="45.89708" lon="0.04723">
        <ele>79.22265625</ele>
        <time>2017-10-13T12:04:15Z</time>
      </trkpt>
      <trkpt lat="45.89666" lon="0.04694">
        <ele>78.46875</ele>
        <time>2017-10-13T12:04:23Z</time>
      </trkpt>
      <trkpt lat="45.89619" lon="0.04664">
        <ele>76.45703125</ele>
        <time>2017-10-13T12:04:31Z</time>
      </trkpt>
      <trkpt lat="45.89599" lon="0.04657">
        <ele>75.46875</ele>
        <time>2017-10-13T12:04:34Z</time>
      </trkpt>
      <trkpt lat="45.89592" lon="0.04653">
        <ele>75.1796875</ele>
        <time>2017-10-13T12:04:35Z</time>
      </trkpt>
      <trkpt lat="45.89585" lon="0.04649">
        <ele>75.109375</ele>
        <time>2017-10-13T12:04:36Z</time>
      </trkpt>
      <trkpt lat="45.8958" lon="0.04644">
        <ele>75.046875</ele>
        <time>2017-10-13T12:04:37Z</time>
      </trkpt>
      <trkpt lat="45.89574" lon="0.04637">
        <ele>74.9921875</ele>
        <time>2017-10-13T12:04:38Z</time>
      </trkpt>
      <trkpt lat="45.89569" lon="0.0463">
        <ele>74.9375</ele>
        <time>2017-10-13T12:04:39Z</time>
      </trkpt>
      <trkpt lat="45.89565" lon="0.04622">
        <ele>74.87109375</ele>
        <time>2017-10-13T12:04:40Z</time>
      </trkpt>
      <trkpt lat="45.8953" lon="0.04577">
        <ele>74.78125</ele>
        <time>2017-10-13T12:04:47Z</time>
      </trkpt>
      <trkpt lat="45.89478" lon="0.04547">
        <ele>73.0546875</ele>
        <time>2017-10-13T12:04:55Z</time>
      </trkpt>
      <trkpt lat="45.8944" lon="0.04525">
        <ele>72.14453125</ele>
        <time>2017-10-13T12:05:01Z</time>
      </trkpt>
      <trkpt lat="45.89414" lon="0.04508">
        <ele>71.51171875</ele>
        <time>2017-10-13T12:05:05Z</time>
      </trkpt>
      <trkpt lat="45.89346" lon="0.04473">
        <ele>70.48046875</ele>
        <time>2017-10-13T12:05:15Z</time>
      </trkpt>
      <trkpt lat="45.8929" lon="0.04455">
        <ele>69.65234375</ele>
        <time>2017-10-13T12:05:23Z</time>
      </trkpt>
      <trkpt lat="45.89227" lon="0.04435">
        <ele>68.640625</ele>
        <time>2017-10-13T12:05:32Z</time>
      </trkpt>
      <trkpt lat="45.89156" lon="0.04415">
        <ele>68.51171875</ele>
        <time>2017-10-13T12:05:42Z</time>
      </trkpt>
      <trkpt lat="45.89086" lon="0.04396">
        <ele>66.4921875</ele>
        <time>2017-10-13T12:05:52Z</time>
      </trkpt>
      <trkpt lat="45.89011" lon="0.04374">
        <ele>65.06640625</ele>
        <time>2017-10-13T12:06:03Z</time>
      </trkpt>
      <trkpt lat="45.8898" lon="0.04367">
        <ele>63.96484375</ele>
        <time>2017-10-13T12:06:09Z</time>
      </trkpt>
      <trkpt lat="45.88973" lon="0.04366">
        <ele>63.83203125</ele>
        <time>2017-10-13T12:06:13Z</time>
      </trkpt>
      <trkpt lat="45.88971" lon="0.04363">
        <ele>63.8046875</ele>
        <time>2017-10-13T12:06:14Z</time>
      </trkpt>
      <trkpt lat="45.8897" lon="0.0436">
        <ele>63.7890625</ele>
        <time>2017-10-13T12:06:15Z</time>
      </trkpt>
      <trkpt lat="45.8897" lon="0.04356">
        <ele>63.78515625</ele>
        <time>2017-10-13T12:06:16Z</time>
      </trkpt>
      <trkpt lat="45.88969" lon="0.04351">
        <ele>63.77734375</ele>
        <time>2017-10-13T12:06:17Z</time>
      </trkpt>
      <trkpt lat="45.88969" lon="0.04347">
        <ele>63.76171875</ele>
        <time>2017-10-13T12:06:18Z</time>
      </trkpt>
      <trkpt lat="45.88968" lon="0.04341">
        <ele>63.7421875</ele>
        <time>2017-10-13T12:06:19Z</time>
      </trkpt>
      <trkpt lat="45.8896" lon="0.04317">
        <ele>64.078125</ele>
        <time>2017-10-13T12:06:24Z</time>
      </trkpt>
      <trkpt lat="45.88958" lon="0.04316">
        <ele>64.078125</ele>
        <time>2017-10-13T12:06:25Z</time>
      </trkpt>
      <trkpt lat="45.88956" lon="0.04317">
        <ele>64.015625</ele>
        <time>2017-10-13T12:06:29Z</time>
      </trkpt>
      <trkpt lat="45.88953" lon="0.04318">
        <ele>63.921875</ele>
        <time>2017-10-13T12:06:31Z</time>
      </trkpt>
      <trkpt lat="45.88951" lon="0.04321">
        <ele>63.7890625</ele>
        <time>2017-10-13T12:06:32Z</time>
      </trkpt>
      <trkpt lat="45.88951" lon="0.04326">
        <ele>63.62109375</ele>
        <time>2017-10-13T12:06:33Z</time>
      </trkpt>
      <trkpt lat="45.88951" lon="0.0433">
        <ele>63.453125</ele>
        <time>2017-10-13T12:06:34Z</time>
      </trkpt>
      <trkpt lat="45.88951" lon="0.04336">
        <ele>63.4453125</ele>
        <time>2017-10-13T12:06:35Z</time>
      </trkpt>
      <trkpt lat="45.88952" lon="0.04355">
        <ele>63.46875</ele>
        <time>2017-10-13T12:06:38Z</time>
      </trkpt>
      <trkpt lat="45.88955" lon="0.04418">
        <ele>64.0859375</ele>
        <time>2017-10-13T12:06:47Z</time>
      </trkpt>
      <trkpt lat="45.88957" lon="0.04475">
        <ele>64.875</ele>
        <time>2017-10-13T12:06:55Z</time>
      </trkpt>
      <trkpt lat="45.88958" lon="0.04538">
        <ele>65.5546875</ele>
        <time>2017-10-13T12:07:04Z</time>
      </trkpt>
      <trkpt lat="45.88958" lon="0.046">
        <ele>64.84375</ele>
        <time>2017-10-13T12:07:12Z</time>
      </trkpt>
      <trkpt lat="45.88954" lon="0.04666">
        <ele>64.515625</ele>
        <time>2017-10-13T12:07:21Z</time>
      </trkpt>
      <trkpt lat="45.88945" lon="0.04732">
        <ele>64.64453125</ele>
        <time>2017-10-13T12:07:31Z</time>
      </trkpt>
      <trkpt lat="45.88942" lon="0.04744">
        <ele>64.92578125</ele>
        <time>2017-10-13T12:07:33Z</time>
      </trkpt>
      <trkpt lat="45.88939" lon="0.04749">
        <ele>65.04296875</ele>
        <time>2017-10-13T12:07:34Z</time>
      </trkpt>
      <trkpt lat="45.88935" lon="0.04752">
        <ele>65.140625</ele>
        <time>2017-10-13T12:07:35Z</time>
      </trkpt>
      <trkpt lat="45.88931" lon="0.04753">
        <ele>65.1953125</ele>
        <time>2017-10-13T12:07:36Z</time>
      </trkpt>
      <trkpt lat="45.88926" lon="0.04752">
        <ele>65.1875</ele>
        <time>2017-10-13T12:07:37Z</time>
      </trkpt>
      <trkpt lat="45.88922" lon="0.04751">
        <ele>65.12890625</ele>
        <time>2017-10-13T12:07:38Z</time>
      </trkpt>
      <trkpt lat="45.88917" lon="0.04748">
        <ele>65.046875</ele>
        <time>2017-10-13T12:07:39Z</time>
      </trkpt>
      <trkpt lat="45.88878" lon="0.04724">
        <ele>64.16796875</ele>
        <time>2017-10-13T12:07:47Z</time>
      </trkpt>
      <trkpt lat="45.88838" lon="0.04689">
        <ele>64.09375</ele>
        <time>2017-10-13T12:07:56Z</time>
      </trkpt>
      <trkpt lat="45.88804" lon="0.0465">
        <ele>64.7265625</ele>
        <time>2017-10-13T12:08:04Z</time>
      </trkpt>
      <trkpt lat="45.8878" lon="0.04622">
        <ele>66.03515625</ele>
        <time>2017-10-13T12:08:10Z</time>
      </trkpt>
      <trkpt lat="45.88744" lon="0.04591">
        <ele>66.95703125</ele>
        <time>2017-10-13T12:08:19Z</time>
      </trkpt>
      <trkpt lat="45.88708" lon="0.04566">
        <ele>67.359375</ele>
        <time>2017-10-13T12:08:28Z</time>
      </trkpt>
      <trkpt lat="45.88707" lon="0.04565">
        <ele>67.34375</ele>
        <time>2017-10-13T12:08:29Z</time>
      </trkpt>
      <trkpt lat="45.88707" lon="0.04564">
        <ele>67.2890625</ele>
        <time>2017-10-13T12:08:30Z</time>
      </trkpt>
      <trkpt lat="45.88709" lon="0.04554">
        <ele>66.8671875</ele>
        <time>2017-10-13T12:08:33Z</time>
      </trkpt>
      <trkpt lat="45.88709" lon="0.04549">
        <ele>66.6875</ele>
        <time>2017-10-13T12:08:34Z</time>
      </trkpt>
      <trkpt lat="45.88708" lon="0.04543">
        <ele>66.515625</ele>
        <time>2017-10-13T12:08:35Z</time>
      </trkpt>
      <trkpt lat="45.88706" lon="0.04517">
        <ele>65.65625</ele>
        <time>2017-10-13T12:08:39Z</time>
      </trkpt>
      <trkpt lat="45.88707" lon="0.0451">
        <ele>65.37109375</ele>
        <time>2017-10-13T12:08:40Z</time>
      </trkpt>
      <trkpt lat="45.8871" lon="0.04503">
        <ele>64.99609375</ele>
        <time>2017-10-13T12:08:41Z</time>
      </trkpt>
      <trkpt lat="45.88714" lon="0.04498">
        <ele>64.66796875</ele>
        <time>2017-10-13T12:08:42Z</time>
      </trkpt>
      <trkpt lat="45.88726" lon="0.04479">
        <ele>63.70703125</ele>
        <time>2017-10-13T12:08:45Z</time>
      </trkpt>
      <trkpt lat="45.88728" lon="0.04471">
        <ele>63.3984375</ele>
        <time>2017-10-13T12:08:46Z</time>
      </trkpt>
      <trkpt lat="45.8873" lon="0.04463">
        <ele>63.125</ele>
        <time>2017-10-13T12:08:47Z</time>
      </trkpt>
      <trkpt lat="45.88732" lon="0.04445">
        <ele>62.6015625</ele>
        <time>2017-10-13T12:08:49Z</time>
      </trkpt>
      <trkpt lat="45.88729" lon="0.04438">
        <ele>62.51953125</ele>
        <time>2017-10-13T12:08:50Z</time>
      </trkpt>
      <trkpt lat="45.88724" lon="0.04433">
        <ele>62.54296875</ele>
        <time>2017-10-13T12:08:51Z</time>
      </trkpt>
      <trkpt lat="45.88691" lon="0.04411">
        <ele>62.546875</ele>
        <time>2017-10-13T12:08:58Z</time>
      </trkpt>
      <trkpt lat="45.88677" lon="0.04407">
        <ele>62.5625</ele>
        <time>2017-10-13T12:09:01Z</time>
      </trkpt>
      <trkpt lat="45.88672" lon="0.04406">
        <ele>62.57421875</ele>
        <time>2017-10-13T12:09:02Z</time>
      </trkpt>
      <trkpt lat="45.88657" lon="0.04403">
        <ele>62.54296875</ele>
        <time>2017-10-13T12:09:05Z</time>
      </trkpt>
      <trkpt lat="45.8864" lon="0.04393">
        <ele>62.234375</ele>
        <time>2017-10-13T12:09:09Z</time>
      </trkpt>
      <trkpt lat="45.88636" lon="0.0439">
        <ele>62.109375</ele>
        <time>2017-10-13T12:09:10Z</time>
      </trkpt>
      <trkpt lat="45.88633" lon="0.04386">
        <ele>62</ele>
        <time>2017-10-13T12:09:11Z</time>
      </trkpt>
      <trkpt lat="45.88622" lon="0.04374">
        <ele>62</ele>
        <time>2017-10-13T12:09:14Z</time>
      </trkpt>
      <trkpt lat="45.88586" lon="0.04329">
        <ele>61.85546875</ele>
        <time>2017-10-13T12:09:24Z</time>
      </trkpt>
      <trkpt lat="45.88578" lon="0.04325">
        <ele>61.6484375</ele>
        <time>2017-10-13T12:09:26Z</time>
      </trkpt>
      <trkpt lat="45.88574" lon="0.04323">
        <ele>61.5546875</ele>
        <time>2017-10-13T12:09:27Z</time>
      </trkpt>
      <trkpt lat="45.8857" lon="0.04319">
        <ele>61.47265625</ele>
        <time>2017-10-13T12:09:28Z</time>
      </trkpt>
      <trkpt lat="45.88568" lon="0.04315">
        <ele>61.390625</ele>
        <time>2017-10-13T12:09:29Z</time>
      </trkpt>
      <trkpt lat="45.88566" lon="0.04313">
        <ele>61.34765625</ele>
        <time>2017-10-13T12:09:30Z</time>
      </trkpt>
      <trkpt lat="45.88565" lon="0.04311">
        <ele>61.31640625</ele>
        <time>2017-10-13T12:09:31Z</time>
      </trkpt>
      <trkpt lat="45.88565" lon="0.04308">
        <ele>61.2890625</ele>
        <time>2017-10-13T12:09:32Z</time>
      </trkpt>
      <trkpt lat="45.88565" lon="0.04305">
        <ele>61.265625</ele>
        <time>2017-10-13T12:09:33Z</time>
      </trkpt>
      <trkpt lat="45.88566" lon="0.04302">
        <ele>61.2421875</ele>
        <time>2017-10-13T12:09:34Z</time>
      </trkpt>
      <trkpt lat="45.88566" lon="0.04298">
        <ele>61.20703125</ele>
        <time>2017-10-13T12:09:35Z</time>
      </trkpt>
      <trkpt lat="45.88566" lon="0.04294">
        <ele>61.171875</ele>
        <time>2017-10-13T12:09:36Z</time>
      </trkpt>
      <trkpt lat="45.88566" lon="0.0429">
        <ele>61.1328125</ele>
        <time>2017-10-13T12:09:37Z</time>
      </trkpt>
      <trkpt lat="45.88566" lon="0.04251">
        <ele>61</ele>
        <time>2017-10-13T12:09:45Z</time>
      </trkpt>
      <trkpt lat="45.88569" lon="0.04211">
        <ele>60.93359375</ele>
        <time>2017-10-13T12:09:52Z</time>
      </trkpt>
      <trkpt lat="45.88574" lon="0.04156">
        <ele>60.6484375</ele>
        <time>2017-10-13T12:10:02Z</time>
      </trkpt>
      <trkpt lat="45.88582" lon="0.04114">
        <ele>60.8046875</ele>
        <time>2017-10-13T12:10:10Z</time>
      </trkpt>
      <trkpt lat="45.88591" lon="0.04071">
        <ele>60.96484375</ele>
        <time>2017-10-13T12:10:18Z</time>
      </trkpt>
      <trkpt lat="45.88602" lon="0.04021">
        <ele>61</ele>
        <time>2017-10-13T12:10:27Z</time>
      </trkpt>
      <trkpt lat="45.88617" lon="0.03969">
        <ele>61.2265625</ele>
        <time>2017-10-13T12:10:36Z</time>
      </trkpt>
      <trkpt lat="45.88631" lon="0.03921">
        <ele>61.421875</ele>
        <time>2017-10-13T12:10:45Z</time>
      </trkpt>
      <trkpt lat="45.88639" lon="0.0388">
        <ele>60.98046875</ele>
        <time>2017-10-13T12:10:54Z</time>
      </trkpt>
      <trkpt lat="45.88638" lon="0.03877">
        <ele>60.96875</ele>
        <time>2017-10-13T12:10:55Z</time>
      </trkpt>
      <trkpt lat="45.88638" lon="0.03875">
        <ele>60.9609375</ele>
        <time>2017-10-13T12:10:56Z</time>
      </trkpt>
      <trkpt lat="45.88639" lon="0.03873">
        <ele>60.95703125</ele>
        <time>2017-10-13T12:10:57Z</time>
      </trkpt>
      <trkpt lat="45.8864" lon="0.03871">
        <ele>60.95703125</ele>
        <time>2017-10-13T12:10:58Z</time>
      </trkpt>
      <trkpt lat="45.88643" lon="0.03869">
        <ele>60.96875</ele>
        <time>2017-10-13T12:10:59Z</time>
      </trkpt>
      <trkpt lat="45.88646" lon="0.03868">
        <ele>60.984375</ele>
        <time>2017-10-13T12:11:00Z</time>
      </trkpt>
      <trkpt lat="45.88661" lon="0.03868">
        <ele>61.37890625</ele>
        <time>2017-10-13T12:11:05Z</time>
      </trkpt>
      <trkpt lat="45.88688" lon="0.03881">
        <ele>62.33984375</ele>
        <time>2017-10-13T12:11:13Z</time>
      </trkpt>
      <trkpt lat="45.88714" lon="0.03891">
        <ele>63.35546875</ele>
        <time>2017-10-13T12:11:21Z</time>
      </trkpt>
      <trkpt lat="45.88717" lon="0.03891">
        <ele>63.46875</ele>
        <time>2017-10-13T12:11:23Z</time>
      </trkpt>
      <trkpt lat="45.88719" lon="0.0389">
        <ele>63.51953125</ele>
        <time>2017-10-13T12:11:24Z</time>
      </trkpt>
      <trkpt lat="45.8872" lon="0.03889">
        <ele>63.56640625</ele>
        <time>2017-10-13T12:11:25Z</time>
      </trkpt>
      <trkpt lat="45.88721" lon="0.03887">
        <ele>63.6015625</ele>
        <time>2017-10-13T12:11:26Z</time>
      </trkpt>
      <trkpt lat="45.88722" lon="0.03884">
        <ele>63.609375</ele>
        <time>2017-10-13T12:11:27Z</time>
      </trkpt>
      <trkpt lat="45.88723" lon="0.03882">
        <ele>63.58984375</ele>
        <time>2017-10-13T12:11:28Z</time>
      </trkpt>
      <trkpt lat="45.88731" lon="0.03845">
        <ele>63.22265625</ele>
        <time>2017-10-13T12:11:36Z</time>
      </trkpt>
      <trkpt lat="45.88737" lon="0.03799">
        <ele>62.96875</ele>
        <time>2017-10-13T12:11:44Z</time>
      </trkpt>
      <trkpt lat="45.88746" lon="0.03757">
        <ele>62.734375</ele>
        <time>2017-10-13T12:11:52Z</time>
      </trkpt>
      <trkpt lat="45.88758" lon="0.03715">
        <ele>61.88671875</ele>
        <time>2017-10-13T12:12:00Z</time>
      </trkpt>
      <trkpt lat="45.8876" lon="0.0371">
        <ele>61.81640625</ele>
        <time>2017-10-13T12:12:01Z</time>
      </trkpt>
      <trkpt lat="45.88762" lon="0.03705">
        <ele>61.82421875</ele>
        <time>2017-10-13T12:12:02Z</time>
      </trkpt>
      <trkpt lat="45.88764" lon="0.037">
        <ele>61.85546875</ele>
        <time>2017-10-13T12:12:03Z</time>
      </trkpt>
      <trkpt lat="45.88767" lon="0.03696">
        <ele>61.8984375</ele>
        <time>2017-10-13T12:12:04Z</time>
      </trkpt>
      <trkpt lat="45.8877" lon="0.03692">
        <ele>61.95703125</ele>
        <time>2017-10-13T12:12:05Z</time>
      </trkpt>
      <trkpt lat="45.88774" lon="0.03688">
        <ele>62.0390625</ele>
        <time>2017-10-13T12:12:06Z</time>
      </trkpt>
      <trkpt lat="45.88796" lon="0.03671">
        <ele>62.5078125</ele>
        <time>2017-10-13T12:12:13Z</time>
      </trkpt>
      <trkpt lat="45.88818" lon="0.03652">
        <ele>63.18359375</ele>
        <time>2017-10-13T12:12:19Z</time>
      </trkpt>
      <trkpt lat="45.88821" lon="0.03647">
        <ele>63.3828125</ele>
        <time>2017-10-13T12:12:20Z</time>
      </trkpt>
      <trkpt lat="45.88823" lon="0.03642">
        <ele>63.5390625</ele>
        <time>2017-10-13T12:12:21Z</time>
      </trkpt>
      <trkpt lat="45.88824" lon="0.03636">
        <ele>63.6640625</ele>
        <time>2017-10-13T12:12:22Z</time>
      </trkpt>
      <trkpt lat="45.88826" lon="0.03631">
        <ele>63.74609375</ele>
        <time>2017-10-13T12:12:23Z</time>
      </trkpt>
      <trkpt lat="45.88826" lon="0.03625">
        <ele>63.80078125</ele>
        <time>2017-10-13T12:12:24Z</time>
      </trkpt>
      <trkpt lat="45.88827" lon="0.03619">
        <ele>63.81640625</ele>
        <time>2017-10-13T12:12:25Z</time>
      </trkpt>
      <trkpt lat="45.8883" lon="0.03591">
        <ele>64.04296875</ele>
        <time>2017-10-13T12:12:30Z</time>
      </trkpt>
      <trkpt lat="45.8884" lon="0.0355">
        <ele>64.65234375</ele>
        <time>2017-10-13T12:12:38Z</time>
      </trkpt>
      <trkpt lat="45.88855" lon="0.03499">
        <ele>64.1796875</ele>
        <time>2017-10-13T12:12:48Z</time>
      </trkpt>
      <trkpt lat="45.88867" lon="0.03468">
        <ele>64.25390625</ele>
        <time>2017-10-13T12:12:55Z</time>
      </trkpt>
      <trkpt lat="45.88881" lon="0.03434">
        <ele>64.421875</ele>
        <time>2017-10-13T12:14:24Z</time>
      </trkpt>
      <trkpt lat="45.88884" lon="0.03432">
        <ele>64.53515625</ele>
        <time>2017-10-13T12:14:25Z</time>
      </trkpt>
      <trkpt lat="45.88884" lon="0.0343">
        <ele>64.44140625</ele>
        <time>2017-10-13T12:14:26Z</time>
      </trkpt>
      <trkpt lat="45.88878" lon="0.03427">
        <ele>63.89453125</ele>
        <time>2017-10-13T12:14:27Z</time>
      </trkpt>
      <trkpt lat="45.88868" lon="0.03418">
        <ele>63.01953125</ele>
      </trkpt>
      <trkpt lat="45.88851" lon="0.03401">
        <ele>61.984375</ele>
      </trkpt>
      <trkpt lat="45.88832" lon="0.03382">
        <ele>61.2734375</ele>
      </trkpt>
      <trkpt lat="45.88806" lon="0.03356">
        <ele>61</ele>
      </trkpt>
      <trkpt lat="45.88784" lon="0.03335">
        <ele>61</ele>
      </trkpt>
      <trkpt lat="45.88776" lon="0.03328">
        <ele>61</ele>
      </trkpt>
      <trkpt lat="45.88772" lon="0.03325">
        <ele>61</ele>
      </trkpt>
      <trkpt lat="45.88768" lon="0.03324">
        <ele>61</ele>
      </trkpt>
      <trkpt lat="45.8876" lon="0.03324">
        <ele>61</ele>
      </trkpt>
      <trkpt lat="45.88748" lon="0.03327">
        <ele>61</ele>
      </trkpt>
      <trkpt lat="45.88729" lon="0.03332">
        <ele>61</ele>
      </trkpt>
      <trkpt lat="45.88721" lon="0.03335">
        <ele>61</ele>
      </trkpt>
      <trkpt lat="45.88714" lon="0.03342">
        <ele>61</ele>
      </trkpt>
      <trkpt lat="45.8871" lon="0.03345">
        <ele>61</ele>
      </trkpt>
      <trkpt lat="45.88706" lon="0.03347">
        <ele>61</ele>
      </trkpt>
      <trkpt lat="45.88702" lon="0.03346">
        <ele>61</ele>
      </trkpt>
      <trkpt lat="45.88699" lon="0.03345">
        <ele>61</ele>
      </trkpt>
      <trkpt lat="45.88693" lon="0.03338">
        <ele>61</ele>
      </trkpt>
      <trkpt lat="45.88685" lon="0.03321">
        <ele>61</ele>
      </trkpt>
      <trkpt lat="45.88682" lon="0.0331">
        <ele>61</ele>
      </trkpt>
      <trkpt lat="45.88673" lon="0.03298">
        <ele>61</ele>
      </trkpt>
      <trkpt lat="45.88666" lon="0.03292">
        <ele>61</ele>
      </trkpt>
      <trkpt lat="45.88655" lon="0.03281">
        <ele>61</ele>
      </trkpt>
      <trkpt lat="45.88638" lon="0.03252">
        <ele>60.80859375</ele>
      </trkpt>
      <trkpt lat="45.88613" lon="0.03209">
        <ele>60.3671875</ele>
      </trkpt>
      <trkpt lat="45.88595" lon="0.0318">
        <ele>60.04296875</ele>
      </trkpt>
      <trkpt lat="45.88644" lon="0.03114">
        <ele>60.91015625</ele>
      </trkpt>
      <trkpt lat="45.88687" lon="0.03054">
        <ele>61</ele>
      </trkpt>
      <trkpt lat="45.88741" lon="0.02981">
        <ele>61</ele>
      </trkpt>
      <trkpt lat="45.88776" lon="0.02932">
        <ele>61</ele>
      </trkpt>
      <trkpt lat="45.88797" lon="0.02905">
        <ele>61</ele>
      </trkpt>
      <trkpt lat="45.88805" lon="0.02889">
        <ele>61</ele>
      </trkpt>
      <trkpt lat="45.88807" lon="0.02883">
        <ele>61</ele>
      </trkpt>
      <trkpt lat="45.88808" lon="0.02876">
        <ele>61</ele>
      </trkpt>
      <trkpt lat="45.88806" lon="0.02871">
        <ele>61</ele>
      </trkpt>
      <trkpt lat="45.88805" lon="0.02865">
        <ele>61</ele>
      </trkpt>
      <trkpt lat="45.88803" lon="0.02862">
        <ele>61</ele>
      </trkpt>
      <trkpt lat="45.88793" lon="0.02845">
        <ele>61</ele>
      </trkpt>
      <trkpt lat="45.88777" lon="0.02818">
        <ele>61</ele>
      </trkpt>
      <trkpt lat="45.88763" lon="0.02796">
        <ele>61</ele>
      </trkpt>
      <trkpt lat="45.88748" lon="0.02771">
        <ele>61</ele>
      </trkpt>
      <trkpt lat="45.88741" lon="0.02761">
        <ele>61</ele>
      </trkpt>
      <trkpt lat="45.88737" lon="0.02754">
        <ele>61</ele>
      </trkpt>
      <trkpt lat="45.88735" lon="0.02748">
        <ele>61</ele>
      </trkpt>
      <trkpt lat="45.88734" lon="0.02744">
        <ele>61</ele>
      </trkpt>
      <trkpt lat="45.88734" lon="0.02738">
        <ele>61</ele>
      </trkpt>
      <trkpt lat="45.88736" lon="0.02731">
        <ele>61</ele>
      </trkpt>
      <trkpt lat="45.88738" lon="0.02726">
        <ele>61</ele>
      </trkpt>
      <trkpt lat="45.88742" lon="0.02721">
        <ele>61</ele>
      </trkpt>
      <trkpt lat="45.88767" lon="0.0269">
        <ele>61</ele>
      </trkpt>
      <trkpt lat="45.88798" lon="0.02647">
        <ele>61</ele>
      </trkpt>
      <trkpt lat="45.88801" lon="0.02636">
        <ele>61</ele>
      </trkpt>
      <trkpt lat="45.88801" lon="0.0263">
        <ele>61</ele>
      </trkpt>
      <trkpt lat="45.88799" lon="0.02622">
        <ele>61</ele>
      </trkpt>
      <trkpt lat="45.88797" lon="0.02614">
        <ele>61</ele>
      </trkpt>
      <trkpt lat="45.88793" lon="0.02605">
        <ele>61</ele>
      </trkpt>
      <trkpt lat="45.88778" lon="0.02587">
        <ele>61</ele>
      </trkpt>
      <trkpt lat="45.88766" lon="0.0257">
        <ele>61</ele>
      </trkpt>
      <trkpt lat="45.88757" lon="0.02559">
        <ele>61</ele>
      </trkpt>
      <trkpt lat="45.88739" lon="0.02538">
        <ele>61.109375</ele>
      </trkpt>
      <trkpt lat="45.88734" lon="0.02534">
        <ele>61.16796875</ele>
      </trkpt>
      <trkpt lat="45.88723" lon="0.02526">
        <ele>61.33984375</ele>
      </trkpt>
      <trkpt lat="45.88705" lon="0.02509">
        <ele>61.8046875</ele>
      </trkpt>
      <trkpt lat="45.88692" lon="0.02494">
        <ele>62.3203125</ele>
      </trkpt>
      <trkpt lat="45.88678" lon="0.02476">
        <ele>63.24609375</ele>
      </trkpt>
      <trkpt lat="45.88697" lon="0.02447">
        <ele>63.28125</ele>
      </trkpt>
      <trkpt lat="45.88728" lon="0.024">
        <ele>63.44140625</ele>
      </trkpt>
      <trkpt lat="45.88747" lon="0.02369">
        <ele>63.45703125</ele>
      </trkpt>
      <trkpt lat="45.88766" lon="0.02337">
        <ele>63.6171875</ele>
      </trkpt>
      <trkpt lat="45.88776" lon="0.02321">
        <ele>63.5703125</ele>
      </trkpt>
      <trkpt lat="45.88793" lon="0.02296">
        <ele>63.0546875</ele>
      </trkpt>
      <trkpt lat="45.88809" lon="0.02276">
        <ele>62.390625</ele>
      </trkpt>
      <trkpt lat="45.88817" lon="0.0226">
        <ele>62.5625</ele>
      </trkpt>
      <trkpt lat="45.88825" lon="0.02244">
        <ele>62.9765625</ele>
      </trkpt>
      <trkpt lat="45.88833" lon="0.0222">
        <ele>63.3828125</ele>
      </trkpt>
      <trkpt lat="45.8884" lon="0.02194">
        <ele>63.6328125</ele>
      </trkpt>
      <trkpt lat="45.88845" lon="0.02172">
        <ele>63.7265625</ele>
      </trkpt>
      <trkpt lat="45.88856" lon="0.02136">
        <ele>63.58984375</ele>
      </trkpt>
      <trkpt lat="45.88861" lon="0.02126">
        <ele>63.40625</ele>
      </trkpt>
      <trkpt lat="45.88873" lon="0.02104">
        <ele>63.09375</ele>
      </trkpt>
      <trkpt lat="45.88881" lon="0.0208">
        <ele>63.43359375</ele>
      </trkpt>
      <trkpt lat="45.88884" lon="0.02068">
        <ele>63.578125</ele>
      </trkpt>
      <trkpt lat="45.88885" lon="0.02052">
        <ele>63.76953125</ele>
      </trkpt>
      <trkpt lat="45.88887" lon="0.02049">
        <ele>63.77734375</ele>
        <time>2017-10-13T12:19:47Z</time>
      </trkpt>
      <trkpt lat="45.88888" lon="0.02049">
        <ele>63.76953125</ele>
        <time>2017-10-13T12:19:48Z</time>
      </trkpt>
      <trkpt lat="45.88888" lon="0.02045">
        <ele>63.8046875</ele>
        <time>2017-10-13T12:19:49Z</time>
      </trkpt>
      <trkpt lat="45.88889" lon="0.02041">
        <ele>63.83203125</ele>
        <time>2017-10-13T12:19:50Z</time>
      </trkpt>
      <trkpt lat="45.8889" lon="0.02037">
        <ele>63.8671875</ele>
        <time>2017-10-13T12:19:51Z</time>
      </trkpt>
      <trkpt lat="45.8889" lon="0.02033">
        <ele>63.91015625</ele>
        <time>2017-10-13T12:19:52Z</time>
      </trkpt>
      <trkpt lat="45.88895" lon="0.02001">
        <ele>64.109375</ele>
        <time>2017-10-13T12:19:59Z</time>
      </trkpt>
      <trkpt lat="45.88902" lon="0.01951">
        <ele>64.23828125</ele>
        <time>2017-10-13T12:20:07Z</time>
      </trkpt>
      <trkpt lat="45.88906" lon="0.01921">
        <ele>64.46875</ele>
        <time>2017-10-13T12:20:11Z</time>
      </trkpt>
      <trkpt lat="45.88916" lon="0.01858">
        <ele>65.09375</ele>
        <time>2017-10-13T12:20:19Z</time>
      </trkpt>
      <trkpt lat="45.88924" lon="0.01802">
        <ele>65.125</ele>
        <time>2017-10-13T12:20:26Z</time>
      </trkpt>
      <trkpt lat="45.88932" lon="0.01753">
        <ele>64.90625</ele>
        <time>2017-10-13T12:20:32Z</time>
      </trkpt>
      <trkpt lat="45.88943" lon="0.01678">
        <ele>64.9375</ele>
        <time>2017-10-13T12:20:41Z</time>
      </trkpt>
      <trkpt lat="45.88956" lon="0.01588">
        <ele>65.46484375</ele>
        <time>2017-10-13T12:20:52Z</time>
      </trkpt>
      <trkpt lat="45.88969" lon="0.01493">
        <ele>66.2265625</ele>
        <time>2017-10-13T12:21:04Z</time>
      </trkpt>
      <trkpt lat="45.8898" lon="0.0143">
        <ele>66.03515625</ele>
        <time>2017-10-13T12:21:12Z</time>
      </trkpt>
      <trkpt lat="45.88983" lon="0.01416">
        <ele>65.984375</ele>
        <time>2017-10-13T12:21:14Z</time>
      </trkpt>
      <trkpt lat="45.88982" lon="0.01408">
        <ele>66</ele>
        <time>2017-10-13T12:21:15Z</time>
      </trkpt>
      <trkpt lat="45.88979" lon="0.01401">
        <ele>66.046875</ele>
        <time>2017-10-13T12:21:16Z</time>
      </trkpt>
      <trkpt lat="45.88976" lon="0.01396">
        <ele>66.11328125</ele>
        <time>2017-10-13T12:21:17Z</time>
      </trkpt>
      <trkpt lat="45.88971" lon="0.01392">
        <ele>66.1953125</ele>
        <time>2017-10-13T12:21:18Z</time>
      </trkpt>
      <trkpt lat="45.88966" lon="0.01388">
        <ele>66.28515625</ele>
        <time>2017-10-13T12:21:19Z</time>
      </trkpt>
      <trkpt lat="45.88932" lon="0.01365">
        <ele>66.89453125</ele>
        <time>2017-10-13T12:21:26Z</time>
      </trkpt>
      <trkpt lat="45.88921" lon="0.01358">
        <ele>67.1328125</ele>
        <time>2017-10-13T12:21:28Z</time>
      </trkpt>
      <trkpt lat="45.88916" lon="0.01355">
        <ele>67.25390625</ele>
        <time>2017-10-13T12:21:29Z</time>
      </trkpt>
      <trkpt lat="45.88871" lon="0.01329">
        <ele>68</ele>
        <time>2017-10-13T12:21:38Z</time>
      </trkpt>
      <trkpt lat="45.88867" lon="0.01325">
        <ele>68.06640625</ele>
        <time>2017-10-13T12:21:39Z</time>
      </trkpt>
      <trkpt lat="45.88865" lon="0.01318">
        <ele>68.1015625</ele>
        <time>2017-10-13T12:21:40Z</time>
      </trkpt>
      <trkpt lat="45.88866" lon="0.01311">
        <ele>68.0859375</ele>
        <time>2017-10-13T12:21:41Z</time>
      </trkpt>
      <trkpt lat="45.88869" lon="0.01303">
        <ele>68.03515625</ele>
        <time>2017-10-13T12:21:42Z</time>
      </trkpt>
      <trkpt lat="45.88871" lon="0.01297">
        <ele>67.9921875</ele>
        <time>2017-10-13T12:21:43Z</time>
      </trkpt>
      <trkpt lat="45.88874" lon="0.0129">
        <ele>67.94921875</ele>
        <time>2017-10-13T12:21:44Z</time>
      </trkpt>
      <trkpt lat="45.88884" lon="0.01265">
        <ele>67.76171875</ele>
        <time>2017-10-13T12:21:48Z</time>
      </trkpt>
      <trkpt lat="45.88889" lon="0.01254">
        <ele>67.6796875</ele>
        <time>2017-10-13T12:21:50Z</time>
      </trkpt>
      <trkpt lat="45.88891" lon="0.01248">
        <ele>67.6328125</ele>
        <time>2017-10-13T12:21:51Z</time>
      </trkpt>
      <trkpt lat="45.88905" lon="0.01211">
        <ele>67.3828125</ele>
        <time>2017-10-13T12:21:57Z</time>
      </trkpt>
      <trkpt lat="45.88906" lon="0.01204">
        <ele>67.35546875</ele>
        <time>2017-10-13T12:21:58Z</time>
      </trkpt>
      <trkpt lat="45.88908" lon="0.01189">
        <ele>67.33203125</ele>
        <time>2017-10-13T12:22:00Z</time>
      </trkpt>
      <trkpt lat="45.88908" lon="0.01173">
        <ele>67.328125</ele>
        <time>2017-10-13T12:22:02Z</time>
      </trkpt>
      <trkpt lat="45.88908" lon="0.01165">
        <ele>67.3359375</ele>
        <time>2017-10-13T12:22:03Z</time>
      </trkpt>
      <trkpt lat="45.88898" lon="0.01096">
        <ele>67.50390625</ele>
        <time>2017-10-13T12:22:12Z</time>
      </trkpt>
      <trkpt lat="45.88899" lon="0.01034">
        <ele>67.48828125</ele>
        <time>2017-10-13T12:22:20Z</time>
      </trkpt>
      <trkpt lat="45.889" lon="0.00991">
        <ele>67.55078125</ele>
        <time>2017-10-13T12:22:27Z</time>
      </trkpt>
      <trkpt lat="45.88898" lon="0.00987">
        <ele>67.61328125</ele>
        <time>2017-10-13T12:22:28Z</time>
      </trkpt>
      <trkpt lat="45.88895" lon="0.00985">
        <ele>67.67578125</ele>
        <time>2017-10-13T12:22:29Z</time>
      </trkpt>
      <trkpt lat="45.88891" lon="0.00985">
        <ele>67.7265625</ele>
        <time>2017-10-13T12:22:30Z</time>
      </trkpt>
      <trkpt lat="45.88888" lon="0.00985">
        <ele>67.77734375</ele>
        <time>2017-10-13T12:22:31Z</time>
      </trkpt>
      <trkpt lat="45.88883" lon="0.00986">
        <ele>67.828125</ele>
        <time>2017-10-13T12:22:32Z</time>
      </trkpt>
      <trkpt lat="45.88879" lon="0.00988">
        <ele>67.8828125</ele>
        <time>2017-10-13T12:22:33Z</time>
      </trkpt>
      <trkpt lat="45.88874" lon="0.00989">
        <ele>67.94921875</ele>
        <time>2017-10-13T12:22:34Z</time>
      </trkpt>
      <trkpt lat="45.88852" lon="0.00991">
        <ele>68.38671875</ele>
        <time>2017-10-13T12:22:39Z</time>
      </trkpt>
      <trkpt lat="45.88815" lon="0.0098">
        <ele>69.3515625</ele>
        <time>2017-10-13T12:22:48Z</time>
      </trkpt>
      <trkpt lat="45.88782" lon="0.00966">
        <ele>70.80859375</ele>
        <time>2017-10-13T12:22:57Z</time>
      </trkpt>
      <trkpt lat="45.88746" lon="0.00952">
        <ele>72.8359375</ele>
        <time>2017-10-13T12:23:07Z</time>
      </trkpt>
      <trkpt lat="45.88709" lon="0.00936">
        <ele>75.9453125</ele>
        <time>2017-10-13T12:23:17Z</time>
      </trkpt>
      <trkpt lat="45.88678" lon="0.00914">
        <ele>78.23046875</ele>
        <time>2017-10-13T12:23:26Z</time>
      </trkpt>
      <trkpt lat="45.88663" lon="0.00907">
        <ele>79.0546875</ele>
        <time>2017-10-13T12:23:30Z</time>
      </trkpt>
      <trkpt lat="45.88633" lon="0.00896">
        <ele>80.1484375</ele>
        <time>2017-10-13T12:23:38Z</time>
      </trkpt>
      <trkpt lat="45.88596" lon="0.00887">
        <ele>80.984375</ele>
        <time>2017-10-13T12:23:48Z</time>
      </trkpt>
      <trkpt lat="45.88574" lon="0.00874">
        <ele>81.51953125</ele>
        <time>2017-10-13T12:23:55Z</time>
      </trkpt>
      <trkpt lat="45.8855" lon="0.00853">
        <ele>81.91796875</ele>
        <time>2017-10-13T12:24:03Z</time>
      </trkpt>
      <trkpt lat="45.88522" lon="0.00816">
        <ele>82</ele>
        <time>2017-10-13T12:24:13Z</time>
      </trkpt>
      <trkpt lat="45.8851" lon="0.008">
        <ele>82</ele>
        <time>2017-10-13T12:24:17Z</time>
      </trkpt>
      <trkpt lat="45.88483" lon="0.00757">
        <ele>81.29296875</ele>
        <time>2017-10-13T12:24:25Z</time>
      </trkpt>
      <trkpt lat="45.88454" lon="0.00711">
        <ele>79.203125</ele>
        <time>2017-10-13T12:24:32Z</time>
      </trkpt>
      <trkpt lat="45.88418" lon="0.00657">
        <ele>78.17578125</ele>
        <time>2017-10-13T12:24:41Z</time>
      </trkpt>
      <trkpt lat="45.88386" lon="0.00615">
        <ele>79.3984375</ele>
        <time>2017-10-13T12:24:50Z</time>
      </trkpt>
      <trkpt lat="45.88358" lon="0.00579">
        <ele>81.8671875</ele>
        <time>2017-10-13T12:24:59Z</time>
      </trkpt>
      <trkpt lat="45.88334" lon="0.00551">
        <ele>84.09375</ele>
        <time>2017-10-13T12:25:07Z</time>
      </trkpt>
      <trkpt lat="45.88309" lon="0.00519">
        <ele>85.94140625</ele>
        <time>2017-10-13T12:25:16Z</time>
      </trkpt>
      <trkpt lat="45.88286" lon="0.00484">
        <ele>88.01953125</ele>
        <time>2017-10-13T12:25:26Z</time>
      </trkpt>
      <trkpt lat="45.88266" lon="0.00453">
        <ele>90.30078125</ele>
        <time>2017-10-13T12:25:35Z</time>
      </trkpt>
      <trkpt lat="45.8824" lon="0.00413">
        <ele>93.22265625</ele>
        <time>2017-10-13T12:25:47Z</time>
      </trkpt>
      <trkpt lat="45.8822" lon="0.00375">
        <ele>95.6484375</ele>
        <time>2017-10-13T12:25:58Z</time>
      </trkpt>
      <trkpt lat="45.88198" lon="0.00339">
        <ele>98.11328125</ele>
        <time>2017-10-13T12:26:09Z</time>
      </trkpt>
      <trkpt lat="45.88176" lon="0.00311">
        <ele>100.1171875</ele>
        <time>2017-10-13T12:26:19Z</time>
      </trkpt>
      <trkpt lat="45.88156" lon="0.00286">
        <ele>101.56640625</ele>
        <time>2017-10-13T12:26:28Z</time>
      </trkpt>
      <trkpt lat="45.88152" lon="0.00277">
        <ele>101.9140625</ele>
        <time>2017-10-13T12:26:31Z</time>
      </trkpt>
      <trkpt lat="45.88153" lon="0.00274">
        <ele>101.98828125</ele>
        <time>2017-10-13T12:26:32Z</time>
      </trkpt>
      <trkpt lat="45.88144" lon="0.00269">
        <ele>102.65625</ele>
        <time>2017-10-13T12:26:33Z</time>
      </trkpt>
      <trkpt lat="45.88126" lon="0.0026">
        <ele>104.0390625</ele>
        <time>2017-10-13T12:26:40Z</time>
      </trkpt>
      <trkpt lat="45.88113" lon="0.00204">
        <ele>105.28515625</ele>
        <time>2017-10-13T12:26:41Z</time>
      </trkpt>
      <trkpt lat="45.88105" lon="0.00169">
        <ele>105.57421875</ele>
        <time>2017-10-13T12:26:46Z</time>
      </trkpt>
      <trkpt lat="45.88085" lon="0.00114">
        <ele>104.58203125</ele>
      </trkpt>
      <trkpt lat="45.88071" lon="0.00087">
        <ele>104.59765625</ele>
      </trkpt>
      <trkpt lat="45.88046" lon="0.00053">
        <ele>104.625</ele>
      </trkpt>
      <trkpt lat="45.88005" lon="2.0E-5">
        <ele>102.515625</ele>
      </trkpt>
      <trkpt lat="45.87967" lon="-0.00041">
        <ele>99.2890625</ele>
      </trkpt>
      <trkpt lat="45.87947" lon="-0.00068">
        <ele>98.3359375</ele>
      </trkpt>
      <trkpt lat="45.87921" lon="-0.00112">
        <ele>98.20703125</ele>
      </trkpt>
      <trkpt lat="45.87889" lon="-0.0017">
        <ele>99.28515625</ele>
      </trkpt>
      <trkpt lat="45.87856" lon="-0.00235">
        <ele>99.50390625</ele>
      </trkpt>
      <trkpt lat="45.87874" lon="-0.00264">
        <ele>98.08203125</ele>
      </trkpt>
      <trkpt lat="45.87908" lon="-0.00302">
        <ele>95.328125</ele>
      </trkpt>
      <trkpt lat="45.87938" lon="-0.00337">
        <ele>92.46484375</ele>
      </trkpt>
      <trkpt lat="45.87968" lon="-0.00381">
        <ele>89.8046875</ele>
      </trkpt>
      <trkpt lat="45.87997" lon="-0.00424">
        <ele>88.69140625</ele>
      </trkpt>
      <trkpt lat="45.87998" lon="-0.00435">
        <ele>88.640625</ele>
      </trkpt>
      <trkpt lat="45.87957" lon="-0.00467">
        <ele>89.35546875</ele>
      </trkpt>
      <trkpt lat="45.87976" lon="-0.00503">
        <ele>90.125</ele>
      </trkpt>
      <trkpt lat="45.88006" lon="-0.00555">
        <ele>92.4296875</ele>
      </trkpt>
      <trkpt lat="45.88032" lon="-0.00603">
        <ele>93.8515625</ele>
      </trkpt>
      <trkpt lat="45.88057" lon="-0.00644">
        <ele>95.796875</ele>
      </trkpt>
      <trkpt lat="45.88097" lon="-0.00722">
        <ele>96.0078125</ele>
      </trkpt>
      <trkpt lat="45.88131" lon="-0.00805">
        <ele>93.8359375</ele>
      </trkpt>
      <trkpt lat="45.88142" lon="-0.00831">
        <ele>92.359375</ele>
      </trkpt>
      <trkpt lat="45.8816" lon="-0.00884">
        <ele>89.74609375</ele>
      </trkpt>
      <trkpt lat="45.88181" lon="-0.00962">
        <ele>91.265625</ele>
      </trkpt>
      <trkpt lat="45.88199" lon="-0.0102">
        <ele>94.0625</ele>
      </trkpt>
      <trkpt lat="45.88217" lon="-0.01067">
        <ele>95.265625</ele>
      </trkpt>
      <trkpt lat="45.88231" lon="-0.01102">
        <ele>96.2578125</ele>
      </trkpt>
      <trkpt lat="45.88242" lon="-0.01144">
        <ele>97.2734375</ele>
      </trkpt>
      <trkpt lat="45.8831" lon="-0.01111">
        <ele>96.12109375</ele>
      </trkpt>
      <trkpt lat="45.88409" lon="-0.01057">
        <ele>95.4140625</ele>
      </trkpt>
      <trkpt lat="45.88508" lon="-0.00999">
        <ele>95.46875</ele>
      </trkpt>
      <trkpt lat="45.88593" lon="-0.00956">
        <ele>95.4453125</ele>
      </trkpt>
      <trkpt lat="45.88651" lon="-0.00926">
        <ele>98.859375</ele>
      </trkpt>
      <trkpt lat="45.88657" lon="-0.00952">
        <ele>99.88671875</ele>
      </trkpt>
      <trkpt lat="45.8868" lon="-0.01021">
        <ele>103.38671875</ele>
      </trkpt>
      <trkpt lat="45.88695" lon="-0.01056">
        <ele>105.31640625</ele>
      </trkpt>
      <trkpt lat="45.88717" lon="-0.0109">
        <ele>107.3359375</ele>
      </trkpt>
      <trkpt lat="45.8874" lon="-0.01118">
        <ele>108.9765625</ele>
      </trkpt>
      <trkpt lat="45.88749" lon="-0.01131">
        <ele>109.50390625</ele>
      </trkpt>
      <trkpt lat="45.88794" lon="-0.01065">
        <ele>110.296875</ele>
      </trkpt>
      <trkpt lat="45.88825" lon="-0.01008">
        <ele>110.6875</ele>
      </trkpt>
      <trkpt lat="45.88857" lon="-0.00947">
        <ele>109.50390625</ele>
      </trkpt>
      <trkpt lat="45.88888" lon="-0.00875">
        <ele>108.39453125</ele>
      </trkpt>
      <trkpt lat="45.88905" lon="-0.0083">
        <ele>107.8125</ele>
      </trkpt>
      <trkpt lat="45.88937" lon="-0.00774">
        <ele>107.48828125</ele>
      </trkpt>
      <trkpt lat="45.88987" lon="-0.00699">
        <ele>107.140625</ele>
      </trkpt>
      <trkpt lat="45.89042" lon="-0.00621">
        <ele>106.7265625</ele>
      </trkpt>
      <trkpt lat="45.89095" lon="-0.00543">
        <ele>108.3984375</ele>
      </trkpt>
      <trkpt lat="45.89115" lon="-0.00512">
        <ele>108.84765625</ele>
      </trkpt>
      <trkpt lat="45.89134" lon="-0.00497">
        <ele>108.4765625</ele>
      </trkpt>
      <trkpt lat="45.89153" lon="-0.00472">
        <ele>107.22265625</ele>
      </trkpt>
      <trkpt lat="45.89165" lon="-0.00448">
        <ele>106.15234375</ele>
      </trkpt>
      <trkpt lat="45.89172" lon="-0.00447">
        <ele>105.75390625</ele>
        <time>2017-10-13T12:34:44Z</time>
      </trkpt>
      <trkpt lat="45.89174" lon="-0.00452">
        <ele>105.765625</ele>
        <time>2017-10-13T12:34:46Z</time>
      </trkpt>
      <trkpt lat="45.89175" lon="-0.00456">
        <ele>105.75390625</ele>
        <time>2017-10-13T12:34:48Z</time>
      </trkpt>
      <trkpt lat="45.89175" lon="-0.00461">
        <ele>105.8359375</ele>
        <time>2017-10-13T12:34:50Z</time>
      </trkpt>
      <trkpt lat="45.89175" lon="-0.00464">
        <ele>105.9375</ele>
        <time>2017-10-13T12:34:51Z</time>
      </trkpt>
      <trkpt lat="45.89174" lon="-0.00467">
        <ele>106.01171875</ele>
        <time>2017-10-13T12:34:52Z</time>
      </trkpt>
      <trkpt lat="45.89175" lon="-0.00482">
        <ele>106.2109375</ele>
        <time>2017-10-13T12:34:56Z</time>
      </trkpt>
      <trkpt lat="45.89178" lon="-0.0052">
        <ele>106.25</ele>
        <time>2017-10-13T12:35:05Z</time>
      </trkpt>
      <trkpt lat="45.8918" lon="-0.00556">
        <ele>105.85546875</ele>
        <time>2017-10-13T12:35:12Z</time>
      </trkpt>
      <trkpt lat="45.8918" lon="-0.00562">
        <ele>105.625</ele>
        <time>2017-10-13T12:35:13Z</time>
      </trkpt>
      <trkpt lat="45.8918" lon="-0.00574">
        <ele>105.16796875</ele>
        <time>2017-10-13T12:35:15Z</time>
      </trkpt>
      <trkpt lat="45.89181" lon="-0.00636">
        <ele>102.91796875</ele>
        <time>2017-10-13T12:35:24Z</time>
      </trkpt>
      <trkpt lat="45.89193" lon="-0.0069">
        <ele>100.54296875</ele>
        <time>2017-10-13T12:35:31Z</time>
      </trkpt>
      <trkpt lat="45.89207" lon="-0.00745">
        <ele>98.03125</ele>
        <time>2017-10-13T12:35:37Z</time>
      </trkpt>
      <trkpt lat="45.89209" lon="-0.00756">
        <ele>97.5390625</ele>
        <time>2017-10-13T12:35:38Z</time>
      </trkpt>
      <trkpt lat="45.89213" lon="-0.00777">
        <ele>96.53515625</ele>
        <time>2017-10-13T12:35:40Z</time>
      </trkpt>
      <trkpt lat="45.89214" lon="-0.00788">
        <ele>95.90625</ele>
        <time>2017-10-13T12:35:41Z</time>
      </trkpt>
      <trkpt lat="45.89214" lon="-0.00799">
        <ele>95.34375</ele>
        <time>2017-10-13T12:35:42Z</time>
      </trkpt>
      <trkpt lat="45.89214" lon="-0.0081">
        <ele>94.8125</ele>
        <time>2017-10-13T12:35:43Z</time>
      </trkpt>
      <trkpt lat="45.89214" lon="-0.0082">
        <ele>94.30859375</ele>
        <time>2017-10-13T12:35:44Z</time>
      </trkpt>
      <trkpt lat="45.89213" lon="-0.00829">
        <ele>93.85546875</ele>
        <time>2017-10-13T12:35:45Z</time>
      </trkpt>
      <trkpt lat="45.89212" lon="-0.00839">
        <ele>93.74609375</ele>
        <time>2017-10-13T12:35:46Z</time>
      </trkpt>
      <trkpt lat="45.89204" lon="-0.00888">
        <ele>94</ele>
        <time>2017-10-13T12:35:52Z</time>
      </trkpt>
      <trkpt lat="45.89203" lon="-0.00894">
        <ele>94.19140625</ele>
        <time>2017-10-13T12:35:53Z</time>
      </trkpt>
      <trkpt lat="45.89194" lon="-0.00923">
        <ele>95.26171875</ele>
        <time>2017-10-13T12:35:59Z</time>
      </trkpt>
      <trkpt lat="45.89192" lon="-0.00937">
        <ele>95.75390625</ele>
        <time>2017-10-13T12:36:03Z</time>
      </trkpt>
      <trkpt lat="45.89192" lon="-0.00951">
        <ele>96.34765625</ele>
        <time>2017-10-13T12:36:08Z</time>
      </trkpt>
      <trkpt lat="45.89193" lon="-0.00956">
        <ele>96.62109375</ele>
        <time>2017-10-13T12:36:11Z</time>
      </trkpt>
      <trkpt lat="45.89185" lon="-0.00974">
        <ele>97.4453125</ele>
        <time>2017-10-13T12:36:44Z</time>
      </trkpt>
      <trkpt lat="45.8917" lon="-0.00992">
        <ele>98.06640625</ele>
        <time>2017-10-13T12:36:49Z</time>
      </trkpt>
      <trkpt lat="45.89142" lon="-0.01028">
        <ele>99.50390625</ele>
        <time>2017-10-13T12:36:58Z</time>
      </trkpt>
      <trkpt lat="45.89124" lon="-0.01057">
        <ele>101.078125</ele>
        <time>2017-10-13T12:37:05Z</time>
      </trkpt>
      <trkpt lat="45.89109" lon="-0.01084">
        <ele>102.02734375</ele>
        <time>2017-10-13T12:37:13Z</time>
      </trkpt>
      <trkpt lat="45.89097" lon="-0.0111">
        <ele>102.9765625</ele>
        <time>2017-10-13T12:37:21Z</time>
      </trkpt>
      <trkpt lat="45.89092" lon="-0.01124">
        <ele>103.51953125</ele>
        <time>2017-10-13T12:37:25Z</time>
      </trkpt>
      <trkpt lat="45.89092" lon="-0.01128">
        <ele>103.65625</ele>
        <time>2017-10-13T12:37:26Z</time>
      </trkpt>
      <trkpt lat="45.89092" lon="-0.01132">
        <ele>103.77734375</ele>
        <time>2017-10-13T12:37:27Z</time>
      </trkpt>
      <trkpt lat="45.89092" lon="-0.01136">
        <ele>103.921875</ele>
        <time>2017-10-13T12:37:28Z</time>
      </trkpt>
      <trkpt lat="45.89092" lon="-0.0114">
        <ele>104.05859375</ele>
        <time>2017-10-13T12:37:29Z</time>
      </trkpt>
      <trkpt lat="45.89092" lon="-0.01143">
        <ele>104.1953125</ele>
        <time>2017-10-13T12:37:30Z</time>
      </trkpt>
      <trkpt lat="45.89087" lon="-0.01167">
        <ele>105.15234375</ele>
        <time>2017-10-13T12:37:37Z</time>
      </trkpt>
      <trkpt lat="45.8908" lon="-0.01191">
        <ele>106.02734375</ele>
        <time>2017-10-13T12:37:45Z</time>
      </trkpt>
      <trkpt lat="45.89074" lon="-0.01225">
        <ele>107.11328125</ele>
        <time>2017-10-13T12:37:54Z</time>
      </trkpt>
      <trkpt lat="45.8907" lon="-0.01255">
        <ele>108.20703125</ele>
        <time>2017-10-13T12:38:02Z</time>
      </trkpt>
      <trkpt lat="45.89068" lon="-0.01266">
        <ele>108.609375</ele>
        <time>2017-10-13T12:38:08Z</time>
      </trkpt>
      <trkpt lat="45.89068" lon="-0.01268">
        <ele>108.66015625</ele>
        <time>2017-10-13T12:38:16Z</time>
      </trkpt>
      <trkpt lat="45.89067" lon="-0.01281">
        <ele>109.13671875</ele>
        <time>2017-10-13T12:38:22Z</time>
      </trkpt>
      <trkpt lat="45.89065" lon="-0.01315">
        <ele>110.375</ele>
        <time>2017-10-13T12:38:30Z</time>
      </trkpt>
      <trkpt lat="45.89068" lon="-0.01364">
        <ele>111.5703125</ele>
        <time>2017-10-13T12:38:40Z</time>
      </trkpt>
      <trkpt lat="45.89075" lon="-0.01409">
        <ele>112</ele>
        <time>2017-10-13T12:38:48Z</time>
      </trkpt>
      <trkpt lat="45.89077" lon="-0.01414">
        <ele>112</ele>
        <time>2017-10-13T12:38:49Z</time>
      </trkpt>
      <trkpt lat="45.89084" lon="-0.01466">
        <ele>112.4140625</ele>
        <time>2017-10-13T12:38:57Z</time>
      </trkpt>
      <trkpt lat="45.89084" lon="-0.01527">
        <ele>112.91796875</ele>
        <time>2017-10-13T12:39:05Z</time>
      </trkpt>
      <trkpt lat="45.8908" lon="-0.01605">
        <ele>112.06640625</ele>
        <time>2017-10-13T12:39:15Z</time>
      </trkpt>
      <trkpt lat="45.89077" lon="-0.01672">
        <ele>110.85546875</ele>
        <time>2017-10-13T12:39:23Z</time>
      </trkpt>
      <trkpt lat="45.89078" lon="-0.01715">
        <ele>109.86328125</ele>
        <time>2017-10-13T12:39:28Z</time>
      </trkpt>
      <trkpt lat="45.89082" lon="-0.01741">
        <ele>109.16796875</ele>
        <time>2017-10-13T12:39:31Z</time>
      </trkpt>
      <trkpt lat="45.89106" lon="-0.01829">
        <ele>104.9375</ele>
        <time>2017-10-13T12:39:41Z</time>
      </trkpt>
      <trkpt lat="45.89129" lon="-0.01901">
        <ele>101.9609375</ele>
        <time>2017-10-13T12:39:48Z</time>
      </trkpt>
      <trkpt lat="45.8915" lon="-0.01956">
        <ele>99.46875</ele>
        <time>2017-10-13T12:39:53Z</time>
      </trkpt>
      <trkpt lat="45.89162" lon="-0.02008">
        <ele>96.953125</ele>
        <time>2017-10-13T12:39:57Z</time>
      </trkpt>
      <trkpt lat="45.89166" lon="-0.02053">
        <ele>95.40234375</ele>
        <time>2017-10-13T12:40:00Z</time>
      </trkpt>
      <trkpt lat="45.89172" lon="-0.02127">
        <ele>91.41796875</ele>
        <time>2017-10-13T12:40:05Z</time>
      </trkpt>
      <trkpt lat="45.89181" lon="-0.02213">
        <ele>86.98828125</ele>
        <time>2017-10-13T12:40:11Z</time>
      </trkpt>
      <trkpt lat="45.89181" lon="-0.02227">
        <ele>86.4296875</ele>
        <time>2017-10-13T12:40:12Z</time>
      </trkpt>
      <trkpt lat="45.89176" lon="-0.02283">
        <ele>84.68359375</ele>
        <time>2017-10-13T12:40:16Z</time>
      </trkpt>
      <trkpt lat="45.89171" lon="-0.0235">
        <ele>81.9921875</ele>
        <time>2017-10-13T12:40:21Z</time>
      </trkpt>
      <trkpt lat="45.89167" lon="-0.0242">
        <ele>79.48828125</ele>
        <time>2017-10-13T12:40:27Z</time>
      </trkpt>
      <trkpt lat="45.89166" lon="-0.02429">
        <ele>79.2109375</ele>
        <time>2017-10-13T12:40:28Z</time>
      </trkpt>
      <trkpt lat="45.89168" lon="-0.02442">
        <ele>78.64453125</ele>
        <time>2017-10-13T12:40:30Z</time>
      </trkpt>
      <trkpt lat="45.89169" lon="-0.02445">
        <ele>78.453125</ele>
        <time>2017-10-13T12:40:31Z</time>
      </trkpt>
      <trkpt lat="45.89172" lon="-0.02446">
        <ele>78.2578125</ele>
        <time>2017-10-13T12:40:32Z</time>
      </trkpt>
      <trkpt lat="45.89174" lon="-0.02444">
        <ele>78.15234375</ele>
        <time>2017-10-13T12:40:33Z</time>
      </trkpt>
      <trkpt lat="45.89175" lon="-0.02439">
        <ele>78.26171875</ele>
        <time>2017-10-13T12:40:34Z</time>
      </trkpt>
      <trkpt lat="45.89175" lon="-0.02435">
        <ele>78.375</ele>
        <time>2017-10-13T12:40:35Z</time>
      </trkpt>
      <trkpt lat="45.89176" lon="-0.0243">
        <ele>78.48046875</ele>
        <time>2017-10-13T12:40:36Z</time>
      </trkpt>
      <trkpt lat="45.89177" lon="-0.02426">
        <ele>78.56640625</ele>
        <time>2017-10-13T12:40:37Z</time>
      </trkpt>
      <trkpt lat="45.89178" lon="-0.02421">
        <ele>78.6484375</ele>
        <time>2017-10-13T12:40:38Z</time>
      </trkpt>
      <trkpt lat="45.89189" lon="-0.02386">
        <ele>79.125</ele>
        <time>2017-10-13T12:40:46Z</time>
      </trkpt>
      <trkpt lat="45.89207" lon="-0.02356">
        <ele>79.359375</ele>
        <time>2017-10-13T12:40:53Z</time>
      </trkpt>
      <trkpt lat="45.89239" lon="-0.02312">
        <ele>78.3671875</ele>
        <time>2017-10-13T12:41:02Z</time>
      </trkpt>
      <trkpt lat="45.89273" lon="-0.02266">
        <ele>78.3046875</ele>
        <time>2017-10-13T12:41:10Z</time>
      </trkpt>
      <trkpt lat="45.89329" lon="-0.02192">
        <ele>77.921875</ele>
        <time>2017-10-13T12:41:22Z</time>
      </trkpt>
      <trkpt lat="45.89371" lon="-0.02136">
        <ele>80.11328125</ele>
        <time>2017-10-13T12:41:31Z</time>
      </trkpt>
      <trkpt lat="45.89416" lon="-0.02077">
        <ele>84.44140625</ele>
        <time>2017-10-13T12:41:42Z</time>
      </trkpt>
      <trkpt lat="45.8944" lon="-0.02046">
        <ele>85.75</ele>
        <time>2017-10-13T12:41:50Z</time>
      </trkpt>
      <trkpt lat="45.89456" lon="-0.02029">
        <ele>86.01171875</ele>
        <time>2017-10-13T12:41:57Z</time>
      </trkpt>
      <trkpt lat="45.89463" lon="-0.02027">
        <ele>85.80859375</ele>
        <time>2017-10-13T12:41:59Z</time>
      </trkpt>
      <trkpt lat="45.89465" lon="-0.02029">
        <ele>85.52734375</ele>
        <time>2017-10-13T12:42:00Z</time>
      </trkpt>
      <trkpt lat="45.89468" lon="-0.02034">
        <ele>85.12109375</ele>
        <time>2017-10-13T12:42:01Z</time>
      </trkpt>
      <trkpt lat="45.8948" lon="-0.02061">
        <ele>82.703125</ele>
        <time>2017-10-13T12:42:05Z</time>
      </trkpt>
      <trkpt lat="45.89495" lon="-0.02096">
        <ele>80.2890625</ele>
        <time>2017-10-13T12:42:09Z</time>
      </trkpt>
      <trkpt lat="45.89509" lon="-0.0214">
        <ele>76.56640625</ele>
        <time>2017-10-13T12:42:13Z</time>
      </trkpt>
      <trkpt lat="45.89527" lon="-0.02192">
        <ele>72.359375</ele>
        <time>2017-10-13T12:42:17Z</time>
      </trkpt>
      <trkpt lat="45.89549" lon="-0.02242">
        <ele>69.34375</ele>
        <time>2017-10-13T12:42:21Z</time>
      </trkpt>
      <trkpt lat="45.89574" lon="-0.02286">
        <ele>69.34765625</ele>
        <time>2017-10-13T12:42:25Z</time>
      </trkpt>
      <trkpt lat="45.89596" lon="-0.02313">
        <ele>71.1171875</ele>
        <time>2017-10-13T12:42:29Z</time>
      </trkpt>
      <trkpt lat="45.89606" lon="-0.0233">
        <ele>72.36328125</ele>
        <time>2017-10-13T12:42:33Z</time>
      </trkpt>
      <trkpt lat="45.89619" lon="-0.02349">
        <ele>73.57421875</ele>
        <time>2017-10-13T12:42:41Z</time>
      </trkpt>
      <trkpt lat="45.8963" lon="-0.02363">
        <ele>74.65234375</ele>
        <time>2017-10-13T12:42:47Z</time>
      </trkpt>
      <trkpt lat="45.89641" lon="-0.02378">
        <ele>76.0625</ele>
        <time>2017-10-13T12:42:54Z</time>
      </trkpt>
      <trkpt lat="45.89654" lon="-0.02404">
        <ele>77.40625</ele>
        <time>2017-10-13T12:43:03Z</time>
      </trkpt>
      <trkpt lat="45.89666" lon="-0.0243">
        <ele>78.1015625</ele>
        <time>2017-10-13T12:43:11Z</time>
      </trkpt>
      <trkpt lat="45.89682" lon="-0.02462">
        <ele>79.015625</ele>
        <time>2017-10-13T12:43:20Z</time>
      </trkpt>
      <trkpt lat="45.897" lon="-0.0247">
        <ele>79.828125</ele>
        <time>2017-10-13T12:43:26Z</time>
      </trkpt>
      <trkpt lat="45.89733" lon="-0.02478">
        <ele>80.984375</ele>
        <time>2017-10-13T12:43:37Z</time>
      </trkpt>
      <trkpt lat="45.89753" lon="-0.02496">
        <ele>81.83984375</ele>
        <time>2017-10-13T12:43:44Z</time>
      </trkpt>
      <trkpt lat="45.89773" lon="-0.02527">
        <ele>83.671875</ele>
        <time>2017-10-13T12:43:53Z</time>
      </trkpt>
      <trkpt lat="45.89793" lon="-0.02562">
        <ele>85.4765625</ele>
        <time>2017-10-13T12:44:03Z</time>
      </trkpt>
      <trkpt lat="45.89809" lon="-0.0259">
        <ele>86.99609375</ele>
        <time>2017-10-13T12:44:11Z</time>
      </trkpt>
      <trkpt lat="45.89826" lon="-0.02619">
        <ele>88.62109375</ele>
        <time>2017-10-13T12:44:20Z</time>
      </trkpt>
      <trkpt lat="45.89845" lon="-0.02653">
        <ele>90.31640625</ele>
        <time>2017-10-13T12:44:31Z</time>
      </trkpt>
      <trkpt lat="45.89865" lon="-0.02687">
        <ele>92.125</ele>
        <time>2017-10-13T12:44:42Z</time>
      </trkpt>
      <trkpt lat="45.89883" lon="-0.02718">
        <ele>93.65625</ele>
        <time>2017-10-13T12:44:53Z</time>
      </trkpt>
      <trkpt lat="45.89898" lon="-0.02743">
        <ele>95.51953125</ele>
        <time>2017-10-13T12:45:02Z</time>
      </trkpt>
      <trkpt lat="45.89912" lon="-0.02766">
        <ele>97.5546875</ele>
        <time>2017-10-13T12:45:11Z</time>
      </trkpt>
      <trkpt lat="45.89926" lon="-0.0279">
        <ele>99.5234375</ele>
        <time>2017-10-13T12:45:20Z</time>
      </trkpt>
      <trkpt lat="45.89941" lon="-0.02818">
        <ele>101.3203125</ele>
        <time>2017-10-13T12:45:30Z</time>
      </trkpt>
      <trkpt lat="45.89954" lon="-0.0284">
        <ele>102.72265625</ele>
        <time>2017-10-13T12:45:38Z</time>
      </trkpt>
      <trkpt lat="45.89969" lon="-0.02866">
        <ele>104.1171875</ele>
        <time>2017-10-13T12:45:48Z</time>
      </trkpt>
      <trkpt lat="45.89987" lon="-0.02897">
        <ele>105.6953125</ele>
        <time>2017-10-13T12:45:59Z</time>
      </trkpt>
      <trkpt lat="45.89997" lon="-0.02912">
        <ele>106.6484375</ele>
        <time>2017-10-13T12:46:05Z</time>
      </trkpt>
      <trkpt lat="45.90025" lon="-0.02925">
        <ele>107.54296875</ele>
        <time>2017-10-13T12:46:15Z</time>
      </trkpt>
      <trkpt lat="45.90058" lon="-0.02939">
        <ele>107.95703125</ele>
        <time>2017-10-13T12:46:25Z</time>
      </trkpt>
      <trkpt lat="45.90104" lon="-0.02957">
        <ele>107.796875</ele>
        <time>2017-10-13T12:46:36Z</time>
      </trkpt>
      <trkpt lat="45.90117" lon="-0.02962">
        <ele>107.5546875</ele>
        <time>2017-10-13T12:46:39Z</time>
      </trkpt>
      <trkpt lat="45.90122" lon="-0.02964">
        <ele>107.47265625</ele>
        <time>2017-10-13T12:46:40Z</time>
      </trkpt>
      <trkpt lat="45.90126" lon="-0.02966">
        <ele>107.39453125</ele>
        <time>2017-10-13T12:46:41Z</time>
      </trkpt>
      <trkpt lat="45.90135" lon="-0.02969">
        <ele>107.2265625</ele>
        <time>2017-10-13T12:46:43Z</time>
      </trkpt>
      <trkpt lat="45.90179" lon="-0.02984">
        <ele>106.01953125</ele>
        <time>2017-10-13T12:46:52Z</time>
      </trkpt>
      <trkpt lat="45.90224" lon="-0.02997">
        <ele>104.27734375</ele>
        <time>2017-10-13T12:47:00Z</time>
      </trkpt>
      <trkpt lat="45.90286" lon="-0.03014">
        <ele>101.59765625</ele>
        <time>2017-10-13T12:47:10Z</time>
      </trkpt>
      <trkpt lat="45.90342" lon="-0.03032">
        <ele>98.4140625</ele>
        <time>2017-10-13T12:47:18Z</time>
      </trkpt>
      <trkpt lat="45.90349" lon="-0.03036">
        <ele>97.9921875</ele>
        <time>2017-10-13T12:47:19Z</time>
      </trkpt>
      <trkpt lat="45.90356" lon="-0.03042">
        <ele>97.6015625</ele>
        <time>2017-10-13T12:47:20Z</time>
      </trkpt>
      <trkpt lat="45.90378" lon="-0.03062">
        <ele>96.2890625</ele>
        <time>2017-10-13T12:47:23Z</time>
      </trkpt>
      <trkpt lat="45.90428" lon="-0.03107">
        <ele>91.859375</ele>
        <time>2017-10-13T12:47:30Z</time>
      </trkpt>
      <trkpt lat="45.90452" lon="-0.0313">
        <ele>89.70703125</ele>
        <time>2017-10-13T12:47:35Z</time>
      </trkpt>
      <trkpt lat="45.90454" lon="-0.03136">
        <ele>89.4453125</ele>
        <time>2017-10-13T12:47:36Z</time>
      </trkpt>
      <trkpt lat="45.90454" lon="-0.03142">
        <ele>89.31640625</ele>
        <time>2017-10-13T12:47:37Z</time>
      </trkpt>
      <trkpt lat="45.90453" lon="-0.03149">
        <ele>89.2890625</ele>
        <time>2017-10-13T12:47:38Z</time>
      </trkpt>
      <trkpt lat="45.90451" lon="-0.03156">
        <ele>89.3125</ele>
        <time>2017-10-13T12:47:39Z</time>
      </trkpt>
      <trkpt lat="45.90449" lon="-0.03163">
        <ele>89.359375</ele>
        <time>2017-10-13T12:47:40Z</time>
      </trkpt>
      <trkpt lat="45.90428" lon="-0.03222">
        <ele>90.76953125</ele>
        <time>2017-10-13T12:47:49Z</time>
      </trkpt>
      <trkpt lat="45.90402" lon="-0.03282">
        <ele>91.140625</ele>
        <time>2017-10-13T12:47:58Z</time>
      </trkpt>
      <trkpt lat="45.90374" lon="-0.03329">
        <ele>91.78515625</ele>
        <time>2017-10-13T12:48:06Z</time>
      </trkpt>
      <trkpt lat="45.90341" lon="-0.03395">
        <ele>92.34375</ele>
        <time>2017-10-13T12:48:17Z</time>
      </trkpt>
      <trkpt lat="45.90316" lon="-0.03451">
        <ele>91.9453125</ele>
        <time>2017-10-13T12:48:26Z</time>
      </trkpt>
      <trkpt lat="45.90296" lon="-0.03512">
        <ele>92.53125</ele>
        <time>2017-10-13T12:48:35Z</time>
      </trkpt>
      <trkpt lat="45.90274" lon="-0.03593">
        <ele>91.640625</ele>
        <time>2017-10-13T12:48:46Z</time>
      </trkpt>
      <trkpt lat="45.90249" lon="-0.03685">
        <ele>91.30859375</ele>
        <time>2017-10-13T12:48:58Z</time>
      </trkpt>
      <trkpt lat="45.9023" lon="-0.03758">
        <ele>91.02734375</ele>
        <time>2017-10-13T12:49:07Z</time>
      </trkpt>
      <trkpt lat="45.90214" lon="-0.0385">
        <ele>90.97265625</ele>
        <time>2017-10-13T12:49:18Z</time>
      </trkpt>
      <trkpt lat="45.90192" lon="-0.03942">
        <ele>90.61328125</ele>
        <time>2017-10-13T12:49:29Z</time>
      </trkpt>
      <trkpt lat="45.90183" lon="-0.04011">
        <ele>90.73828125</ele>
        <time>2017-10-13T12:49:37Z</time>
      </trkpt>
      <trkpt lat="45.90184" lon="-0.04086">
        <ele>91.078125</ele>
        <time>2017-10-13T12:49:46Z</time>
      </trkpt>
      <trkpt lat="45.90192" lon="-0.04175">
        <ele>91.203125</ele>
        <time>2017-10-13T12:49:57Z</time>
      </trkpt>
      <trkpt lat="45.9019" lon="-0.0424">
        <ele>90.875</ele>
        <time>2017-10-13T12:50:05Z</time>
      </trkpt>
      <trkpt lat="45.90188" lon="-0.04313">
        <ele>89.59375</ele>
        <time>2017-10-13T12:50:14Z</time>
      </trkpt>
      <trkpt lat="45.90185" lon="-0.04403">
        <ele>89.02734375</ele>
        <time>2017-10-13T12:50:25Z</time>
      </trkpt>
      <trkpt lat="45.90185" lon="-0.04419">
        <ele>88.74609375</ele>
        <time>2017-10-13T12:50:27Z</time>
      </trkpt>
      <trkpt lat="45.90188" lon="-0.04475">
        <ele>88.27734375</ele>
        <time>2017-10-13T12:50:34Z</time>
      </trkpt>
      <trkpt lat="45.90186" lon="-0.04532">
        <ele>87.67578125</ele>
        <time>2017-10-13T12:50:41Z</time>
      </trkpt>
      <trkpt lat="45.90179" lon="-0.046">
        <ele>86.13671875</ele>
        <time>2017-10-13T12:50:49Z</time>
      </trkpt>
      <trkpt lat="45.90173" lon="-0.04659">
        <ele>85.1953125</ele>
        <time>2017-10-13T12:50:56Z</time>
      </trkpt>
      <trkpt lat="45.90172" lon="-0.04667">
        <ele>85.0703125</ele>
        <time>2017-10-13T12:50:57Z</time>
      </trkpt>
      <trkpt lat="45.90171" lon="-0.04676">
        <ele>84.9453125</ele>
        <time>2017-10-13T12:50:58Z</time>
      </trkpt>
      <trkpt lat="45.90165" lon="-0.04755">
        <ele>83.74609375</ele>
        <time>2017-10-13T12:51:07Z</time>
      </trkpt>
      <trkpt lat="45.90158" lon="-0.04821">
        <ele>82.79296875</ele>
        <time>2017-10-13T12:51:15Z</time>
      </trkpt>
      <trkpt lat="45.90152" lon="-0.04876">
        <ele>81.2578125</ele>
        <time>2017-10-13T12:51:22Z</time>
      </trkpt>
      <trkpt lat="45.90152" lon="-0.04885">
        <ele>80.953125</ele>
        <time>2017-10-13T12:51:23Z</time>
      </trkpt>
      <trkpt lat="45.90154" lon="-0.04917">
        <ele>80.87890625</ele>
        <time>2017-10-13T12:51:27Z</time>
      </trkpt>
      <trkpt lat="45.90166" lon="-0.04983">
        <ele>80.16796875</ele>
        <time>2017-10-13T12:51:35Z</time>
      </trkpt>
      <trkpt lat="45.90177" lon="-0.05042">
        <ele>79.57421875</ele>
        <time>2017-10-13T12:51:42Z</time>
      </trkpt>
      <trkpt lat="45.90191" lon="-0.05108">
        <ele>78.43359375</ele>
        <time>2017-10-13T12:51:50Z</time>
      </trkpt>
      <trkpt lat="45.90211" lon="-0.05172">
        <ele>77.703125</ele>
        <time>2017-10-13T12:51:58Z</time>
      </trkpt>
      <trkpt lat="45.90213" lon="-0.05181">
        <ele>77.51171875</ele>
        <time>2017-10-13T12:51:59Z</time>
      </trkpt>
      <trkpt lat="45.90221" lon="-0.05244">
        <ele>76.23046875</ele>
        <time>2017-10-13T12:52:06Z</time>
      </trkpt>
      <trkpt lat="45.9022" lon="-0.05302">
        <ele>75.69921875</ele>
        <time>2017-10-13T12:52:12Z</time>
      </trkpt>
      <trkpt lat="45.90217" lon="-0.0531">
        <ele>75.7578125</ele>
        <time>2017-10-13T12:52:13Z</time>
      </trkpt>
      <trkpt lat="45.90212" lon="-0.05315">
        <ele>75.83984375</ele>
        <time>2017-10-13T12:52:14Z</time>
      </trkpt>
      <trkpt lat="45.90207" lon="-0.05318">
        <ele>75.93359375</ele>
        <time>2017-10-13T12:52:15Z</time>
      </trkpt>
      <trkpt lat="45.90202" lon="-0.0532">
        <ele>76.03515625</ele>
        <time>2017-10-13T12:52:16Z</time>
      </trkpt>
      <trkpt lat="45.90197" lon="-0.05323">
        <ele>76.1328125</ele>
        <time>2017-10-13T12:52:17Z</time>
      </trkpt>
      <trkpt lat="45.90192" lon="-0.05328">
        <ele>76.203125</ele>
        <time>2017-10-13T12:52:18Z</time>
      </trkpt>
      <trkpt lat="45.90189" lon="-0.05334">
        <ele>76.18359375</ele>
        <time>2017-10-13T12:52:19Z</time>
      </trkpt>
      <trkpt lat="45.90187" lon="-0.05341">
        <ele>76.1015625</ele>
        <time>2017-10-13T12:52:20Z</time>
      </trkpt>
      <trkpt lat="45.90185" lon="-0.05348">
        <ele>76.0078125</ele>
        <time>2017-10-13T12:52:21Z</time>
      </trkpt>
      <trkpt lat="45.90183" lon="-0.05356">
        <ele>75.90625</ele>
        <time>2017-10-13T12:52:22Z</time>
      </trkpt>
      <trkpt lat="45.90164" lon="-0.0542">
        <ele>75.0859375</ele>
        <time>2017-10-13T12:52:31Z</time>
      </trkpt>
      <trkpt lat="45.90153" lon="-0.05459">
        <ele>74.90625</ele>
        <time>2017-10-13T12:52:37Z</time>
      </trkpt>
      <trkpt lat="45.9015" lon="-0.05463">
        <ele>74.95703125</ele>
        <time>2017-10-13T12:52:38Z</time>
      </trkpt>
      <trkpt lat="45.90147" lon="-0.05467">
        <ele>75.03125</ele>
        <time>2017-10-13T12:52:39Z</time>
      </trkpt>
      <trkpt lat="45.90142" lon="-0.05467">
        <ele>75.15234375</ele>
        <time>2017-10-13T12:52:40Z</time>
      </trkpt>
      <trkpt lat="45.90138" lon="-0.05465">
        <ele>75.28515625</ele>
        <time>2017-10-13T12:52:41Z</time>
      </trkpt>
      <trkpt lat="45.90134" lon="-0.05462">
        <ele>75.38671875</ele>
        <time>2017-10-13T12:52:42Z</time>
      </trkpt>
      <trkpt lat="45.90131" lon="-0.05459">
        <ele>75.51953125</ele>
        <time>2017-10-13T12:52:43Z</time>
      </trkpt>
      <trkpt lat="45.90097" lon="-0.05429">
        <ele>77.02734375</ele>
        <time>2017-10-13T12:52:52Z</time>
      </trkpt>
      <trkpt lat="45.90068" lon="-0.05403">
        <ele>78.8828125</ele>
        <time>2017-10-13T12:53:01Z</time>
      </trkpt>
      <trkpt lat="45.90039" lon="-0.05377">
        <ele>81.0234375</ele>
        <time>2017-10-13T12:53:10Z</time>
      </trkpt>
      <trkpt lat="45.90023" lon="-0.05365">
        <ele>81.8671875</ele>
        <time>2017-10-13T12:53:15Z</time>
      </trkpt>
      <trkpt lat="45.90019" lon="-0.05367">
        <ele>81.9765625</ele>
        <time>2017-10-13T12:53:16Z</time>
      </trkpt>
      <trkpt lat="45.90016" lon="-0.0537">
        <ele>82.0390625</ele>
        <time>2017-10-13T12:53:17Z</time>
      </trkpt>
      <trkpt lat="45.90013" lon="-0.05374">
        <ele>82.0625</ele>
        <time>2017-10-13T12:53:18Z</time>
      </trkpt>
      <trkpt lat="45.90011" lon="-0.05378">
        <ele>82.0703125</ele>
        <time>2017-10-13T12:53:19Z</time>
      </trkpt>
      <trkpt lat="45.90004" lon="-0.05393">
        <ele>82.01171875</ele>
        <time>2017-10-13T12:53:22Z</time>
      </trkpt>
      <trkpt lat="45.89985" lon="-0.05437">
        <ele>81.86328125</ele>
        <time>2017-10-13T12:53:30Z</time>
      </trkpt>
      <trkpt lat="45.89964" lon="-0.0549">
        <ele>82.01953125</ele>
        <time>2017-10-13T12:53:39Z</time>
      </trkpt>
      <trkpt lat="45.89939" lon="-0.05554">
        <ele>82.25</ele>
        <time>2017-10-13T12:53:49Z</time>
      </trkpt>
      <trkpt lat="45.89911" lon="-0.05631">
        <ele>82.4296875</ele>
        <time>2017-10-13T12:54:01Z</time>
      </trkpt>
      <trkpt lat="45.89882" lon="-0.0571">
        <ele>82.625</ele>
        <time>2017-10-13T12:54:13Z</time>
      </trkpt>
      <trkpt lat="45.89851" lon="-0.05766">
        <ele>82.84765625</ele>
        <time>2017-10-13T12:54:22Z</time>
      </trkpt>
      <trkpt lat="45.89831" lon="-0.05827">
        <ele>81.52734375</ele>
        <time>2017-10-13T12:54:30Z</time>
      </trkpt>
      <trkpt lat="45.89818" lon="-0.05897">
        <ele>80.72265625</ele>
        <time>2017-10-13T12:54:38Z</time>
      </trkpt>
      <trkpt lat="45.89815" lon="-0.05916">
        <ele>80.44140625</ele>
        <time>2017-10-13T12:54:40Z</time>
      </trkpt>
      <trkpt lat="45.89812" lon="-0.05924">
        <ele>80.30859375</ele>
        <time>2017-10-13T12:54:41Z</time>
      </trkpt>
      <trkpt lat="45.89809" lon="-0.05933">
        <ele>80.1640625</ele>
        <time>2017-10-13T12:54:42Z</time>
      </trkpt>
      <trkpt lat="45.89805" lon="-0.0594">
        <ele>80.01171875</ele>
        <time>2017-10-13T12:54:43Z</time>
      </trkpt>
      <trkpt lat="45.89801" lon="-0.05948">
        <ele>79.7890625</ele>
        <time>2017-10-13T12:54:44Z</time>
      </trkpt>
      <trkpt lat="45.89779" lon="-0.05992">
        <ele>78.7421875</ele>
        <time>2017-10-13T12:54:50Z</time>
      </trkpt>
      <trkpt lat="45.89776" lon="-0.06001">
        <ele>78.640625</ele>
        <time>2017-10-13T12:54:51Z</time>
      </trkpt>
      <trkpt lat="45.89774" lon="-0.06009">
        <ele>78.56640625</ele>
        <time>2017-10-13T12:54:52Z</time>
      </trkpt>
      <trkpt lat="45.89772" lon="-0.06018">
        <ele>78.46875</ele>
        <time>2017-10-13T12:54:53Z</time>
      </trkpt>
      <trkpt lat="45.89771" lon="-0.06027">
        <ele>78.35546875</ele>
        <time>2017-10-13T12:54:54Z</time>
      </trkpt>
      <trkpt lat="45.89766" lon="-0.06054">
        <ele>77.96484375</ele>
        <time>2017-10-13T12:54:57Z</time>
      </trkpt>
      <trkpt lat="45.89763" lon="-0.06062">
        <ele>77.828125</ele>
        <time>2017-10-13T12:54:58Z</time>
      </trkpt>
      <trkpt lat="45.89757" lon="-0.06067">
        <ele>77.7265625</ele>
        <time>2017-10-13T12:54:59Z</time>
      </trkpt>
      <trkpt lat="45.89751" lon="-0.06071">
        <ele>77.6640625</ele>
        <time>2017-10-13T12:55:00Z</time>
      </trkpt>
      <trkpt lat="45.89744" lon="-0.06072">
        <ele>77.640625</ele>
        <time>2017-10-13T12:55:01Z</time>
      </trkpt>
      <trkpt lat="45.89738" lon="-0.06072">
        <ele>77.6328125</ele>
        <time>2017-10-13T12:55:02Z</time>
      </trkpt>
      <trkpt lat="45.89707" lon="-0.06071">
        <ele>77.6640625</ele>
        <time>2017-10-13T12:55:07Z</time>
      </trkpt>
      <trkpt lat="45.8969" lon="-0.0607">
        <ele>77.9921875</ele>
        <time>2017-10-13T12:55:10Z</time>
      </trkpt>
      <trkpt lat="45.89645" lon="-0.06068">
        <ele>79.0703125</ele>
        <time>2017-10-13T12:55:19Z</time>
      </trkpt>
      <trkpt lat="45.89599" lon="-0.06066">
        <ele>80.10546875</ele>
        <time>2017-10-13T12:55:29Z</time>
      </trkpt>
      <trkpt lat="45.89553" lon="-0.06071">
        <ele>80.34765625</ele>
        <time>2017-10-13T12:55:39Z</time>
      </trkpt>
      <trkpt lat="45.89503" lon="-0.06083">
        <ele>80.55078125</ele>
        <time>2017-10-13T12:55:50Z</time>
      </trkpt>
      <trkpt lat="45.89494" lon="-0.06086">
        <ele>80.61328125</ele>
        <time>2017-10-13T12:55:52Z</time>
      </trkpt>
      <trkpt lat="45.89486" lon="-0.06091">
        <ele>80.70703125</ele>
        <time>2017-10-13T12:55:54Z</time>
      </trkpt>
      <trkpt lat="45.89482" lon="-0.06094">
        <ele>80.765625</ele>
        <time>2017-10-13T12:55:55Z</time>
      </trkpt>
      <trkpt lat="45.89478" lon="-0.06098">
        <ele>80.88671875</ele>
        <time>2017-10-13T12:55:56Z</time>
      </trkpt>
      <trkpt lat="45.89453" lon="-0.06136">
        <ele>82.546875</ele>
        <time>2017-10-13T12:56:04Z</time>
      </trkpt>
      <trkpt lat="45.89424" lon="-0.06178">
        <ele>84.8125</ele>
        <time>2017-10-13T12:56:13Z</time>
      </trkpt>
      <trkpt lat="45.8942" lon="-0.06181">
        <ele>84.99609375</ele>
        <time>2017-10-13T12:56:14Z</time>
      </trkpt>
      <trkpt lat="45.89416" lon="-0.06184">
        <ele>85.14453125</ele>
        <time>2017-10-13T12:56:15Z</time>
      </trkpt>
      <trkpt lat="45.89377" lon="-0.06217">
        <ele>86.89453125</ele>
        <time>2017-10-13T12:56:25Z</time>
      </trkpt>
      <trkpt lat="45.89327" lon="-0.06258">
        <ele>87.71484375</ele>
        <time>2017-10-13T12:56:38Z</time>
      </trkpt>
      <trkpt lat="45.89289" lon="-0.06277">
        <ele>88.9765625</ele>
        <time>2017-10-13T12:56:47Z</time>
      </trkpt>
      <trkpt lat="45.89234" lon="-0.06299">
        <ele>90.91796875</ele>
        <time>2017-10-13T12:57:00Z</time>
      </trkpt>
      <trkpt lat="45.89185" lon="-0.06321">
        <ele>91.83984375</ele>
        <time>2017-10-13T12:57:12Z</time>
      </trkpt>
      <trkpt lat="45.89181" lon="-0.06326">
        <ele>91.9296875</ele>
        <time>2017-10-13T12:57:13Z</time>
      </trkpt>
      <trkpt lat="45.8918" lon="-0.06332">
        <ele>92.05078125</ele>
        <time>2017-10-13T12:57:14Z</time>
      </trkpt>
      <trkpt lat="45.8918" lon="-0.06338">
        <ele>92.15234375</ele>
        <time>2017-10-13T12:57:15Z</time>
      </trkpt>
      <trkpt lat="45.89182" lon="-0.06344">
        <ele>92.25390625</ele>
        <time>2017-10-13T12:57:16Z</time>
      </trkpt>
      <trkpt lat="45.89183" lon="-0.06349">
        <ele>92.35546875</ele>
        <time>2017-10-13T12:57:17Z</time>
      </trkpt>
      <trkpt lat="45.89196" lon="-0.06411">
        <ele>93</ele>
        <time>2017-10-13T12:57:27Z</time>
      </trkpt>
      <trkpt lat="45.89212" lon="-0.06478">
        <ele>92.85546875</ele>
        <time>2017-10-13T12:57:37Z</time>
      </trkpt>
      <trkpt lat="45.89227" lon="-0.06534">
        <ele>91.890625</ele>
        <time>2017-10-13T12:57:44Z</time>
      </trkpt>
      <trkpt lat="45.8923" lon="-0.06542">
        <ele>91.69921875</ele>
        <time>2017-10-13T12:57:45Z</time>
      </trkpt>
      <trkpt lat="45.8925" lon="-0.06604">
        <ele>90.0703125</ele>
        <time>2017-10-13T12:57:52Z</time>
      </trkpt>
      <trkpt lat="45.89253" lon="-0.06613">
        <ele>89.79296875</ele>
        <time>2017-10-13T12:57:53Z</time>
      </trkpt>
      <trkpt lat="45.89255" lon="-0.06622">
        <ele>89.49609375</ele>
        <time>2017-10-13T12:57:54Z</time>
      </trkpt>
      <trkpt lat="45.89254" lon="-0.06629">
        <ele>89.2421875</ele>
        <time>2017-10-13T12:57:55Z</time>
      </trkpt>
      <trkpt lat="45.89251" lon="-0.06635">
        <ele>89.05859375</ele>
        <time>2017-10-13T12:57:56Z</time>
      </trkpt>
      <trkpt lat="45.89247" lon="-0.0664">
        <ele>88.94921875</ele>
        <time>2017-10-13T12:57:57Z</time>
      </trkpt>
      <trkpt lat="45.89242" lon="-0.06643">
        <ele>88.90234375</ele>
        <time>2017-10-13T12:57:58Z</time>
      </trkpt>
      <trkpt lat="45.89237" lon="-0.06646">
        <ele>88.875</ele>
        <time>2017-10-13T12:57:59Z</time>
      </trkpt>
      <trkpt lat="45.89191" lon="-0.06677">
        <ele>89.18359375</ele>
        <time>2017-10-13T12:58:09Z</time>
      </trkpt>
      <trkpt lat="45.89187" lon="-0.06681">
        <ele>89.2734375</ele>
        <time>2017-10-13T12:58:10Z</time>
      </trkpt>
      <trkpt lat="45.89161" lon="-0.06705">
        <ele>89.7734375</ele>
        <time>2017-10-13T12:58:16Z</time>
      </trkpt>
      <trkpt lat="45.89157" lon="-0.06709">
        <ele>89.84375</ele>
        <time>2017-10-13T12:58:17Z</time>
      </trkpt>
      <trkpt lat="45.89117" lon="-0.06746">
        <ele>90.06640625</ele>
        <time>2017-10-13T12:58:26Z</time>
      </trkpt>
      <trkpt lat="45.89066" lon="-0.06796">
        <ele>90.09375</ele>
        <time>2017-10-13T12:58:37Z</time>
      </trkpt>
      <trkpt lat="45.89046" lon="-0.06814">
        <ele>90.109375</ele>
        <time>2017-10-13T12:58:41Z</time>
      </trkpt>
      <trkpt lat="45.89004" lon="-0.06841">
        <ele>89.09375</ele>
        <time>2017-10-13T12:58:49Z</time>
      </trkpt>
      <trkpt lat="45.88948" lon="-0.06868">
        <ele>88.3046875</ele>
        <time>2017-10-13T12:58:59Z</time>
      </trkpt>
      <trkpt lat="45.88897" lon="-0.06891">
        <ele>87.94140625</ele>
        <time>2017-10-13T12:59:08Z</time>
      </trkpt>
      <trkpt lat="45.88837" lon="-0.0692">
        <ele>88</ele>
        <time>2017-10-13T12:59:19Z</time>
      </trkpt>
      <trkpt lat="45.88786" lon="-0.06945">
        <ele>87.44140625</ele>
        <time>2017-10-13T12:59:28Z</time>
      </trkpt>
      <trkpt lat="45.88767" lon="-0.06953">
        <ele>87.10546875</ele>
        <time>2017-10-13T12:59:32Z</time>
      </trkpt>
      <trkpt lat="45.88764" lon="-0.06953">
        <ele>87.05078125</ele>
        <time>2017-10-13T12:59:33Z</time>
      </trkpt>
      <trkpt lat="45.8876" lon="-0.0695">
        <ele>87.00390625</ele>
        <time>2017-10-13T12:59:34Z</time>
      </trkpt>
      <trkpt lat="45.88758" lon="-0.06945">
        <ele>86.99609375</ele>
        <time>2017-10-13T12:59:35Z</time>
      </trkpt>
      <trkpt lat="45.88758" lon="-0.06941">
        <ele>87</ele>
        <time>2017-10-13T12:59:36Z</time>
      </trkpt>
      <trkpt lat="45.88759" lon="-0.06935">
        <ele>87.09375</ele>
        <time>2017-10-13T12:59:37Z</time>
      </trkpt>
      <trkpt lat="45.88764" lon="-0.06902">
        <ele>87.703125</ele>
        <time>2017-10-13T12:59:43Z</time>
      </trkpt>
      <trkpt lat="45.88762" lon="-0.06898">
        <ele>87.76171875</ele>
        <time>2017-10-13T12:59:44Z</time>
      </trkpt>
      <trkpt lat="45.88758" lon="-0.06897">
        <ele>87.78125</ele>
        <time>2017-10-13T12:59:45Z</time>
      </trkpt>
      <trkpt lat="45.88753" lon="-0.06898">
        <ele>87.765625</ele>
        <time>2017-10-13T12:59:46Z</time>
      </trkpt>
      <trkpt lat="45.88749" lon="-0.06899">
        <ele>87.73828125</ele>
        <time>2017-10-13T12:59:47Z</time>
      </trkpt>
      <trkpt lat="45.88715" lon="-0.06911">
        <ele>87.5234375</ele>
        <time>2017-10-13T12:59:54Z</time>
      </trkpt>
      <trkpt lat="45.88697" lon="-0.06918">
        <ele>87.3984375</ele>
        <time>2017-10-13T12:59:58Z</time>
      </trkpt>
      <trkpt lat="45.88693" lon="-0.0692">
        <ele>87.359375</ele>
        <time>2017-10-13T12:59:59Z</time>
      </trkpt>
      <trkpt lat="45.88652" lon="-0.06944">
        <ele>86.92578125</ele>
        <time>2017-10-13T13:00:08Z</time>
      </trkpt>
      <trkpt lat="45.88622" lon="-0.06966">
        <ele>86.53125</ele>
        <time>2017-10-13T13:00:15Z</time>
      </trkpt>
      <trkpt lat="45.88592" lon="-0.06988">
        <ele>86.14453125</ele>
        <time>2017-10-13T13:00:22Z</time>
      </trkpt>
      <trkpt lat="45.88576" lon="-0.06995">
        <ele>86.0078125</ele>
        <time>2017-10-13T13:00:26Z</time>
      </trkpt>
      <trkpt lat="45.88572" lon="-0.06993">
        <ele>86.03125</ele>
        <time>2017-10-13T13:00:27Z</time>
      </trkpt>
      <trkpt lat="45.8857" lon="-0.06988">
        <ele>86.078125</ele>
        <time>2017-10-13T13:00:28Z</time>
      </trkpt>
      <trkpt lat="45.88568" lon="-0.06983">
        <ele>86.12890625</ele>
        <time>2017-10-13T13:00:29Z</time>
      </trkpt>
      <trkpt lat="45.88567" lon="-0.06977">
        <ele>86.1796875</ele>
        <time>2017-10-13T13:00:30Z</time>
      </trkpt>
      <trkpt lat="45.88553" lon="-0.06925">
        <ele>86.48046875</ele>
        <time>2017-10-13T13:00:39Z</time>
      </trkpt>
      <trkpt lat="45.88534" lon="-0.06881">
        <ele>87</ele>
        <time>2017-10-13T13:00:47Z</time>
      </trkpt>
      <trkpt lat="45.88522" lon="-0.06857">
        <ele>87</ele>
        <time>2017-10-13T13:00:53Z</time>
      </trkpt>
      <trkpt lat="45.88516" lon="-0.06842">
        <ele>87</ele>
        <time>2017-10-13T13:00:59Z</time>
      </trkpt>
      <trkpt lat="45.88504" lon="-0.06822">
        <ele>87</ele>
        <time>2017-10-13T13:01:05Z</time>
      </trkpt>
      <trkpt lat="45.885" lon="-0.06823">
        <ele>87</ele>
        <time>2017-10-13T13:01:06Z</time>
      </trkpt>
      <trkpt lat="45.88498" lon="-0.06825">
        <ele>87</ele>
        <time>2017-10-13T13:01:07Z</time>
      </trkpt>
      <trkpt lat="45.88476" lon="-0.06839">
        <ele>87.11328125</ele>
        <time>2017-10-13T13:01:13Z</time>
      </trkpt>
      <trkpt lat="45.88436" lon="-0.06864">
        <ele>87.8359375</ele>
        <time>2017-10-13T13:01:23Z</time>
      </trkpt>
      <trkpt lat="45.88425" lon="-0.06872">
        <ele>88.0390625</ele>
        <time>2017-10-13T13:01:26Z</time>
      </trkpt>
      <trkpt lat="45.88391" lon="-0.06899">
        <ele>88.640625</ele>
        <time>2017-10-13T13:01:35Z</time>
      </trkpt>
      <trkpt lat="45.88357" lon="-0.06917">
        <ele>89</ele>
        <time>2017-10-13T13:01:43Z</time>
      </trkpt>
      <trkpt lat="45.88352" lon="-0.06919">
        <ele>89</ele>
        <time>2017-10-13T13:01:44Z</time>
      </trkpt>
      <trkpt lat="45.8831" lon="-0.06939">
        <ele>89</ele>
        <time>2017-10-13T13:01:53Z</time>
      </trkpt>
      <trkpt lat="45.8826" lon="-0.06963">
        <ele>89</ele>
        <time>2017-10-13T13:02:03Z</time>
      </trkpt>
      <trkpt lat="45.88223" lon="-0.06981">
        <ele>88.33203125</ele>
        <time>2017-10-13T13:02:10Z</time>
      </trkpt>
      <trkpt lat="45.88179" lon="-0.07002">
        <ele>87.546875</ele>
        <time>2017-10-13T13:02:18Z</time>
      </trkpt>
      <trkpt lat="45.88157" lon="-0.07013">
        <ele>87.140625</ele>
        <time>2017-10-13T13:02:22Z</time>
      </trkpt>
      <trkpt lat="45.88118" lon="-0.07046">
        <ele>85.8671875</ele>
        <time>2017-10-13T13:02:29Z</time>
      </trkpt>
      <trkpt lat="45.88065" lon="-0.07094">
        <ele>84.48046875</ele>
        <time>2017-10-13T13:02:39Z</time>
      </trkpt>
      <trkpt lat="45.88001" lon="-0.07151">
        <ele>82.65625</ele>
        <time>2017-10-13T13:02:50Z</time>
      </trkpt>
      <trkpt lat="45.8798" lon="-0.07171">
        <ele>81.95703125</ele>
        <time>2017-10-13T13:02:54Z</time>
      </trkpt>
      <trkpt lat="45.87975" lon="-0.07174">
        <ele>81.859375</ele>
        <time>2017-10-13T13:02:55Z</time>
      </trkpt>
      <trkpt lat="45.87969" lon="-0.07174">
        <ele>81.75390625</ele>
        <time>2017-10-13T13:02:56Z</time>
      </trkpt>
      <trkpt lat="45.87963" lon="-0.07169">
        <ele>81.6484375</ele>
        <time>2017-10-13T13:02:57Z</time>
      </trkpt>
      <trkpt lat="45.8796" lon="-0.07164">
        <ele>81.58984375</ele>
        <time>2017-10-13T13:02:58Z</time>
      </trkpt>
      <trkpt lat="45.87957" lon="-0.07156">
        <ele>81.53515625</ele>
        <time>2017-10-13T13:02:59Z</time>
      </trkpt>
      <trkpt lat="45.87954" lon="-0.07148">
        <ele>81.49609375</ele>
        <time>2017-10-13T13:03:00Z</time>
      </trkpt>
      <trkpt lat="45.87935" lon="-0.07076">
        <ele>81.140625</ele>
        <time>2017-10-13T13:03:09Z</time>
      </trkpt>
      <trkpt lat="45.8792" lon="-0.07021">
        <ele>80.8671875</ele>
        <time>2017-10-13T13:03:16Z</time>
      </trkpt>
      <trkpt lat="45.87897" lon="-0.06961">
        <ele>80.45703125</ele>
        <time>2017-10-13T13:03:24Z</time>
      </trkpt>
      <trkpt lat="45.87862" lon="-0.06896">
        <ele>79.8359375</ele>
        <time>2017-10-13T13:03:33Z</time>
      </trkpt>
      <trkpt lat="45.87822" lon="-0.06823">
        <ele>80.109375</ele>
        <time>2017-10-13T13:03:43Z</time>
      </trkpt>
      <trkpt lat="45.87811" lon="-0.06804">
        <ele>79.94921875</ele>
        <time>2017-10-13T13:03:46Z</time>
      </trkpt>
      <trkpt lat="45.87805" lon="-0.068">
        <ele>79.9140625</ele>
        <time>2017-10-13T13:03:47Z</time>
      </trkpt>
      <trkpt lat="45.878" lon="-0.06798">
        <ele>79.87109375</ele>
        <time>2017-10-13T13:03:48Z</time>
      </trkpt>
      <trkpt lat="45.87796" lon="-0.06799">
        <ele>79.83203125</ele>
        <time>2017-10-13T13:03:49Z</time>
      </trkpt>
      <trkpt lat="45.8779" lon="-0.06801">
        <ele>79.7734375</ele>
        <time>2017-10-13T13:03:50Z</time>
      </trkpt>
      <trkpt lat="45.87751" lon="-0.0681">
        <ele>79.4453125</ele>
        <time>2017-10-13T13:03:57Z</time>
      </trkpt>
      <trkpt lat="45.87702" lon="-0.06821">
        <ele>80</ele>
        <time>2017-10-13T13:04:06Z</time>
      </trkpt>
      <trkpt lat="45.87646" lon="-0.06834">
        <ele>80</ele>
        <time>2017-10-13T13:04:16Z</time>
      </trkpt>
      <trkpt lat="45.87636" lon="-0.06838">
        <ele>80</ele>
        <time>2017-10-13T13:04:18Z</time>
      </trkpt>
      <trkpt lat="45.87592" lon="-0.0686">
        <ele>80</ele>
        <time>2017-10-13T13:04:26Z</time>
      </trkpt>
      <trkpt lat="45.87548" lon="-0.06873">
        <ele>80</ele>
        <time>2017-10-13T13:04:34Z</time>
      </trkpt>
      <trkpt lat="45.87508" lon="-0.06884">
        <ele>80.5390625</ele>
        <time>2017-10-13T13:04:42Z</time>
      </trkpt>
      <trkpt lat="45.87459" lon="-0.06898">
        <ele>81.421875</ele>
        <time>2017-10-13T13:04:52Z</time>
      </trkpt>
      <trkpt lat="45.87446" lon="-0.06902">
        <ele>81.66796875</ele>
        <time>2017-10-13T13:04:55Z</time>
      </trkpt>
      <trkpt lat="45.87442" lon="-0.06904">
        <ele>81.73828125</ele>
        <time>2017-10-13T13:04:56Z</time>
      </trkpt>
      <trkpt lat="45.87438" lon="-0.06908">
        <ele>81.80078125</ele>
        <time>2017-10-13T13:04:57Z</time>
      </trkpt>
      <trkpt lat="45.87436" lon="-0.06913">
        <ele>81.8359375</ele>
        <time>2017-10-13T13:04:58Z</time>
      </trkpt>
      <trkpt lat="45.87436" lon="-0.06918">
        <ele>81.84765625</ele>
        <time>2017-10-13T13:04:59Z</time>
      </trkpt>
      <trkpt lat="45.87436" lon="-0.06924">
        <ele>81.84375</ele>
        <time>2017-10-13T13:05:00Z</time>
      </trkpt>
      <trkpt lat="45.87438" lon="-0.06979">
        <ele>81.80078125</ele>
        <time>2017-10-13T13:05:08Z</time>
      </trkpt>
      <trkpt lat="45.87441" lon="-0.07035">
        <ele>82.46484375</ele>
        <time>2017-10-13T13:05:16Z</time>
      </trkpt>
      <trkpt lat="45.87442" lon="-0.07043">
        <ele>82.5859375</ele>
        <time>2017-10-13T13:05:17Z</time>
      </trkpt>
      <trkpt lat="45.87442" lon="-0.0705">
        <ele>82.71875</ele>
        <time>2017-10-13T13:05:18Z</time>
      </trkpt>
      <trkpt lat="45.87442" lon="-0.07058">
        <ele>82.73828125</ele>
        <time>2017-10-13T13:05:19Z</time>
      </trkpt>
      <trkpt lat="45.87442" lon="-0.07065">
        <ele>82.734375</ele>
        <time>2017-10-13T13:05:20Z</time>
      </trkpt>
      <trkpt lat="45.87444" lon="-0.07104">
        <ele>82.69140625</ele>
        <time>2017-10-13T13:05:25Z</time>
      </trkpt>
      <trkpt lat="45.87445" lon="-0.07113">
        <ele>82.6796875</ele>
        <time>2017-10-13T13:05:26Z</time>
      </trkpt>
      <trkpt lat="45.87445" lon="-0.07121">
        <ele>82.67578125</ele>
        <time>2017-10-13T13:05:27Z</time>
      </trkpt>
      <trkpt lat="45.87448" lon="-0.07208">
        <ele>82.93359375</ele>
        <time>2017-10-13T13:05:38Z</time>
      </trkpt>
      <trkpt lat="45.87456" lon="-0.07272">
        <ele>83.47265625</ele>
        <time>2017-10-13T13:05:46Z</time>
      </trkpt>
      <trkpt lat="45.87467" lon="-0.07342">
        <ele>83.28125</ele>
        <time>2017-10-13T13:05:55Z</time>
      </trkpt>
      <trkpt lat="45.87477" lon="-0.07397">
        <ele>83.09765625</ele>
        <time>2017-10-13T13:06:02Z</time>
      </trkpt>
      <trkpt lat="45.87489" lon="-0.0746">
        <ele>83.32421875</ele>
        <time>2017-10-13T13:06:10Z</time>
      </trkpt>
      <trkpt lat="45.87507" lon="-0.07547">
        <ele>83.5703125</ele>
        <time>2017-10-13T13:06:21Z</time>
      </trkpt>
      <trkpt lat="45.87515" lon="-0.07607">
        <ele>84.015625</ele>
        <time>2017-10-13T13:06:30Z</time>
      </trkpt>
      <trkpt lat="45.87511" lon="-0.0761">
        <ele>84.0625</ele>
        <time>2017-10-13T13:06:31Z</time>
      </trkpt>
      <trkpt lat="45.87508" lon="-0.0761">
        <ele>84.06640625</ele>
        <time>2017-10-13T13:06:32Z</time>
      </trkpt>
      <trkpt lat="45.87504" lon="-0.0761">
        <ele>84.05859375</ele>
        <time>2017-10-13T13:06:33Z</time>
      </trkpt>
      <trkpt lat="45.875" lon="-0.07609">
        <ele>84.046875</ele>
        <time>2017-10-13T13:06:34Z</time>
      </trkpt>
      <trkpt lat="45.87495" lon="-0.07609">
        <ele>84.04296875</ele>
        <time>2017-10-13T13:06:35Z</time>
      </trkpt>
      <trkpt lat="45.87491" lon="-0.07609">
        <ele>84.0390625</ele>
        <time>2017-10-13T13:06:36Z</time>
      </trkpt>
      <trkpt lat="45.87442" lon="-0.07605">
        <ele>84.7109375</ele>
        <time>2017-10-13T13:06:46Z</time>
      </trkpt>
      <trkpt lat="45.87399" lon="-0.07601">
        <ele>84.953125</ele>
        <time>2017-10-13T13:06:54Z</time>
      </trkpt>
      <trkpt lat="45.87345" lon="-0.07597">
        <ele>85</ele>
        <time>2017-10-13T13:07:04Z</time>
      </trkpt>
      <trkpt lat="45.87279" lon="-0.07596">
        <ele>85.6640625</ele>
        <time>2017-10-13T13:07:16Z</time>
      </trkpt>
      <trkpt lat="45.87263" lon="-0.07598">
        <ele>85.95703125</ele>
        <time>2017-10-13T13:07:19Z</time>
      </trkpt>
      <trkpt lat="45.87258" lon="-0.07599">
        <ele>86.05078125</ele>
        <time>2017-10-13T13:07:20Z</time>
      </trkpt>
      <trkpt lat="45.87252" lon="-0.076">
        <ele>86.1484375</ele>
        <time>2017-10-13T13:07:21Z</time>
      </trkpt>
      <trkpt lat="45.87212" lon="-0.07617">
        <ele>86.87890625</ele>
        <time>2017-10-13T13:07:29Z</time>
      </trkpt>
      <trkpt lat="45.87165" lon="-0.07646">
        <ele>88.2265625</ele>
        <time>2017-10-13T13:07:39Z</time>
      </trkpt>
      <trkpt lat="45.87125" lon="-0.07672">
        <ele>89.69921875</ele>
        <time>2017-10-13T13:07:49Z</time>
      </trkpt>
      <trkpt lat="45.87098" lon="-0.07691">
        <ele>90.921875</ele>
        <time>2017-10-13T13:07:56Z</time>
      </trkpt>
      <trkpt lat="45.87063" lon="-0.0772">
        <ele>92.0703125</ele>
        <time>2017-10-13T13:08:05Z</time>
      </trkpt>
      <trkpt lat="45.8705" lon="-0.07736">
        <ele>92.59375</ele>
        <time>2017-10-13T13:08:09Z</time>
      </trkpt>
      <trkpt lat="45.87046" lon="-0.07739">
        <ele>92.7109375</ele>
        <time>2017-10-13T13:08:10Z</time>
      </trkpt>
      <trkpt lat="45.87042" lon="-0.07741">
        <ele>92.8046875</ele>
        <time>2017-10-13T13:08:11Z</time>
      </trkpt>
      <trkpt lat="45.87038" lon="-0.07741">
        <ele>92.85546875</ele>
        <time>2017-10-13T13:08:12Z</time>
      </trkpt>
      <trkpt lat="45.87034" lon="-0.07742">
        <ele>92.91015625</ele>
        <time>2017-10-13T13:08:13Z</time>
      </trkpt>
      <trkpt lat="45.86998" lon="-0.07743">
        <ele>93.32421875</ele>
        <time>2017-10-13T13:08:21Z</time>
      </trkpt>
      <trkpt lat="45.86955" lon="-0.0774">
        <ele>94.890625</ele>
        <time>2017-10-13T13:08:32Z</time>
      </trkpt>
      <trkpt lat="45.86926" lon="-0.07744">
        <ele>96.5859375</ele>
        <time>2017-10-13T13:08:41Z</time>
      </trkpt>
      <trkpt lat="45.86902" lon="-0.07757">
        <ele>98.6875</ele>
        <time>2017-10-13T13:08:49Z</time>
      </trkpt>
      <trkpt lat="45.86868" lon="-0.07778">
        <ele>101.22265625</ele>
        <time>2017-10-13T13:09:00Z</time>
      </trkpt>
      <trkpt lat="45.86831" lon="-0.07802">
        <ele>103.23046875</ele>
        <time>2017-10-13T13:09:12Z</time>
      </trkpt>
      <trkpt lat="45.86805" lon="-0.0782">
        <ele>104.40625</ele>
        <time>2017-10-13T13:09:20Z</time>
      </trkpt>
      <trkpt lat="45.86776" lon="-0.07848">
        <ele>105.72265625</ele>
        <time>2017-10-13T13:09:30Z</time>
      </trkpt>
      <trkpt lat="45.86751" lon="-0.07876">
        <ele>107.0234375</ele>
        <time>2017-10-13T13:09:38Z</time>
      </trkpt>
      <trkpt lat="45.86712" lon="-0.0791">
        <ele>108.23046875</ele>
        <time>2017-10-13T13:09:49Z</time>
      </trkpt>
      <trkpt lat="45.86669" lon="-0.07939">
        <ele>110.28515625</ele>
        <time>2017-10-13T13:10:00Z</time>
      </trkpt>
      <trkpt lat="45.86626" lon="-0.07953">
        <ele>111.53125</ele>
        <time>2017-10-13T13:10:11Z</time>
      </trkpt>
      <trkpt lat="45.8659" lon="-0.07964">
        <ele>112.5078125</ele>
        <time>2017-10-13T13:10:20Z</time>
      </trkpt>
      <trkpt lat="45.86553" lon="-0.07974">
        <ele>113.36328125</ele>
        <time>2017-10-13T13:10:29Z</time>
      </trkpt>
      <trkpt lat="45.86519" lon="-0.07985">
        <ele>113.8125</ele>
        <time>2017-10-13T13:10:38Z</time>
      </trkpt>
      <trkpt lat="45.86517" lon="-0.07989">
        <ele>113.88671875</ele>
        <time>2017-10-13T13:10:39Z</time>
      </trkpt>
      <trkpt lat="45.86516" lon="-0.07995">
        <ele>114.00390625</ele>
        <time>2017-10-13T13:10:40Z</time>
      </trkpt>
      <trkpt lat="45.86515" lon="-0.07999">
        <ele>114.10546875</ele>
        <time>2017-10-13T13:10:41Z</time>
      </trkpt>
      <trkpt lat="45.86515" lon="-0.08047">
        <ele>115.3515625</ele>
        <time>2017-10-13T13:10:49Z</time>
      </trkpt>
      <trkpt lat="45.86512" lon="-0.08095">
        <ele>115.4765625</ele>
        <time>2017-10-13T13:10:57Z</time>
      </trkpt>
      <trkpt lat="45.86511" lon="-0.0816">
        <ele>115.50390625</ele>
        <time>2017-10-13T13:11:07Z</time>
      </trkpt>
      <trkpt lat="45.86509" lon="-0.08225">
        <ele>115.72265625</ele>
        <time>2017-10-13T13:11:18Z</time>
      </trkpt>
      <trkpt lat="45.86511" lon="-0.08237">
        <ele>115.86328125</ele>
        <time>2017-10-13T13:11:20Z</time>
      </trkpt>
      <trkpt lat="45.8652" lon="-0.08304">
        <ele>116.80859375</ele>
        <time>2017-10-13T13:11:31Z</time>
      </trkpt>
      <trkpt lat="45.86528" lon="-0.0837">
        <ele>118.109375</ele>
        <time>2017-10-13T13:11:41Z</time>
      </trkpt>
      <trkpt lat="45.86536" lon="-0.08434">
        <ele>119.953125</ele>
        <time>2017-10-13T13:11:51Z</time>
      </trkpt>
      <trkpt lat="45.86542" lon="-0.08499">
        <ele>121.8828125</ele>
        <time>2017-10-13T13:12:01Z</time>
      </trkpt>
      <trkpt lat="45.86552" lon="-0.08562">
        <ele>122.34765625</ele>
        <time>2017-10-13T13:12:11Z</time>
      </trkpt>
      <trkpt lat="45.86566" lon="-0.08649">
        <ele>123.30859375</ele>
        <time>2017-10-13T13:12:24Z</time>
      </trkpt>
      <trkpt lat="45.86582" lon="-0.08724">
        <ele>123.63671875</ele>
        <time>2017-10-13T13:12:34Z</time>
      </trkpt>
      <trkpt lat="45.86597" lon="-0.0879">
        <ele>122.8046875</ele>
        <time>2017-10-13T13:12:42Z</time>
      </trkpt>
      <trkpt lat="45.86616" lon="-0.08887">
        <ele>121.82421875</ele>
        <time>2017-10-13T13:12:53Z</time>
      </trkpt>
      <trkpt lat="45.86638" lon="-0.08994">
        <ele>121.43359375</ele>
        <time>2017-10-13T13:13:05Z</time>
      </trkpt>
      <trkpt lat="45.86663" lon="-0.09094">
        <ele>121.1015625</ele>
        <time>2017-10-13T13:13:16Z</time>
      </trkpt>
      <trkpt lat="45.86697" lon="-0.09209">
        <ele>120.1640625</ele>
        <time>2017-10-13T13:13:29Z</time>
      </trkpt>
      <trkpt lat="45.86724" lon="-0.09306">
        <ele>121.48046875</ele>
        <time>2017-10-13T13:13:40Z</time>
      </trkpt>
      <trkpt lat="45.86737" lon="-0.09346">
        <ele>122.19140625</ele>
        <time>2017-10-13T13:13:45Z</time>
      </trkpt>
      <trkpt lat="45.86763" lon="-0.0943">
        <ele>123.84375</ele>
        <time>2017-10-13T13:13:56Z</time>
      </trkpt>
      <trkpt lat="45.86779" lon="-0.09489">
        <ele>124.8984375</ele>
        <time>2017-10-13T13:14:04Z</time>
      </trkpt>
      <trkpt lat="45.86783" lon="-0.09509">
        <ele>125.10546875</ele>
        <time>2017-10-13T13:14:07Z</time>
      </trkpt>
      <trkpt lat="45.8678" lon="-0.09518">
        <ele>125.14453125</ele>
        <time>2017-10-13T13:14:08Z</time>
      </trkpt>
      <trkpt lat="45.86777" lon="-0.09521">
        <ele>125.13671875</ele>
        <time>2017-10-13T13:14:09Z</time>
      </trkpt>
      <trkpt lat="45.86772" lon="-0.09524">
        <ele>125.1015625</ele>
        <time>2017-10-13T13:14:10Z</time>
      </trkpt>
      <trkpt lat="45.86766" lon="-0.09526">
        <ele>125.0546875</ele>
        <time>2017-10-13T13:14:11Z</time>
      </trkpt>
      <trkpt lat="45.86761" lon="-0.09528">
        <ele>124.9921875</ele>
        <time>2017-10-13T13:14:12Z</time>
      </trkpt>
      <trkpt lat="45.86705" lon="-0.09548">
        <ele>123</ele>
        <time>2017-10-13T13:14:21Z</time>
      </trkpt>
      <trkpt lat="45.86699" lon="-0.09551">
        <ele>122.87890625</ele>
        <time>2017-10-13T13:14:22Z</time>
      </trkpt>
      <trkpt lat="45.86629" lon="-0.09575">
        <ele>120.69140625</ele>
        <time>2017-10-13T13:14:32Z</time>
      </trkpt>
      <trkpt lat="45.86582" lon="-0.0959">
        <ele>117.52734375</ele>
        <time>2017-10-13T13:14:38Z</time>
      </trkpt>
      <trkpt lat="45.86573" lon="-0.09591">
        <ele>116.99609375</ele>
        <time>2017-10-13T13:14:39Z</time>
      </trkpt>
      <trkpt lat="45.86564" lon="-0.09591">
        <ele>116.47265625</ele>
        <time>2017-10-13T13:14:40Z</time>
      </trkpt>
      <trkpt lat="45.86516" lon="-0.09588">
        <ele>113.37890625</ele>
        <time>2017-10-13T13:14:45Z</time>
      </trkpt>
      <trkpt lat="45.86497" lon="-0.09587">
        <ele>111.97265625</ele>
        <time>2017-10-13T13:14:47Z</time>
      </trkpt>
      <trkpt lat="45.86415" lon="-0.09582">
        <ele>108.8984375</ele>
        <time>2017-10-13T13:14:56Z</time>
      </trkpt>
      <trkpt lat="45.86334" lon="-0.09575">
        <ele>108.1484375</ele>
        <time>2017-10-13T13:15:06Z</time>
      </trkpt>
      <trkpt lat="45.86308" lon="-0.09566">
        <ele>108.11328125</ele>
        <time>2017-10-13T13:15:10Z</time>
      </trkpt>
      <trkpt lat="45.86275" lon="-0.09545">
        <ele>108.88671875</ele>
        <time>2017-10-13T13:15:16Z</time>
      </trkpt>
      <trkpt lat="45.86247" lon="-0.09521">
        <ele>110.28125</ele>
        <time>2017-10-13T13:15:23Z</time>
      </trkpt>
      <trkpt lat="45.86243" lon="-0.09519">
        <ele>110.44140625</ele>
        <time>2017-10-13T13:15:24Z</time>
      </trkpt>
      <trkpt lat="45.86239" lon="-0.09518">
        <ele>110.5390625</ele>
        <time>2017-10-13T13:15:25Z</time>
      </trkpt>
      <trkpt lat="45.86236" lon="-0.09519">
        <ele>110.5625</ele>
        <time>2017-10-13T13:15:26Z</time>
      </trkpt>
      <trkpt lat="45.86233" lon="-0.09522">
        <ele>110.5</ele>
        <time>2017-10-13T13:15:27Z</time>
      </trkpt>
      <trkpt lat="45.8623" lon="-0.09527">
        <ele>110.390625</ele>
        <time>2017-10-13T13:15:28Z</time>
      </trkpt>
      <trkpt lat="45.86227" lon="-0.09531">
        <ele>110.28125</ele>
        <time>2017-10-13T13:15:29Z</time>
      </trkpt>
      <trkpt lat="45.86224" lon="-0.09536">
        <ele>110.17578125</ele>
        <time>2017-10-13T13:15:30Z</time>
      </trkpt>
      <trkpt lat="45.86192" lon="-0.09576">
        <ele>108.6875</ele>
        <time>2017-10-13T13:15:40Z</time>
      </trkpt>
      <trkpt lat="45.86188" lon="-0.09577">
        <ele>108.69921875</ele>
        <time>2017-10-13T13:15:41Z</time>
      </trkpt>
      <trkpt lat="45.86185" lon="-0.09574">
        <ele>108.84765625</ele>
        <time>2017-10-13T13:15:42Z</time>
      </trkpt>
      <trkpt lat="45.86182" lon="-0.0957">
        <ele>109.078125</ele>
        <time>2017-10-13T13:15:43Z</time>
      </trkpt>
      <trkpt lat="45.86181" lon="-0.09565">
        <ele>109.30859375</ele>
        <time>2017-10-13T13:15:44Z</time>
      </trkpt>
      <trkpt lat="45.8618" lon="-0.0956">
        <ele>109.546875</ele>
        <time>2017-10-13T13:15:45Z</time>
      </trkpt>
      <trkpt lat="45.86178" lon="-0.09555">
        <ele>109.75</ele>
        <time>2017-10-13T13:15:46Z</time>
      </trkpt>
      <trkpt lat="45.86176" lon="-0.09552">
        <ele>109.88671875</ele>
        <time>2017-10-13T13:15:47Z</time>
      </trkpt>
      <trkpt lat="45.86172" lon="-0.09551">
        <ele>109.9375</ele>
        <time>2017-10-13T13:15:48Z</time>
      </trkpt>
      <trkpt lat="45.86169" lon="-0.09551">
        <ele>109.9296875</ele>
        <time>2017-10-13T13:15:49Z</time>
      </trkpt>
      <trkpt lat="45.86165" lon="-0.09552">
        <ele>109.90234375</ele>
        <time>2017-10-13T13:15:50Z</time>
      </trkpt>
      <trkpt lat="45.8613" lon="-0.09563">
        <ele>109.1640625</ele>
        <time>2017-10-13T13:15:59Z</time>
      </trkpt>
      <trkpt lat="45.86126" lon="-0.09564">
        <ele>109.04296875</ele>
        <time>2017-10-13T13:16:00Z</time>
      </trkpt>
      <trkpt lat="45.861" lon="-0.09572">
        <ele>108.2890625</ele>
        <time>2017-10-13T13:16:05Z</time>
      </trkpt>
      <trkpt lat="45.8607" lon="-0.09584">
        <ele>106.88671875</ele>
        <time>2017-10-13T13:16:10Z</time>
      </trkpt>
      <trkpt lat="45.86039" lon="-0.09607">
        <ele>104.95703125</ele>
        <time>2017-10-13T13:16:15Z</time>
      </trkpt>
      <trkpt lat="45.86024" lon="-0.09615">
        <ele>104.5390625</ele>
        <time>2017-10-13T13:16:17Z</time>
      </trkpt>
      <trkpt lat="45.86016" lon="-0.09618">
        <ele>104.36328125</ele>
        <time>2017-10-13T13:16:18Z</time>
      </trkpt>
      <trkpt lat="45.85965" lon="-0.09638">
        <ele>103.21875</ele>
        <time>2017-10-13T13:16:25Z</time>
      </trkpt>
      <trkpt lat="45.85914" lon="-0.09653">
        <ele>102.27734375</ele>
        <time>2017-10-13T13:16:33Z</time>
      </trkpt>
      <trkpt lat="45.85862" lon="-0.09654">
        <ele>102.4375</ele>
        <time>2017-10-13T13:16:41Z</time>
      </trkpt>
      <trkpt lat="45.858" lon="-0.09653">
        <ele>103.9140625</ele>
        <time>2017-10-13T13:16:51Z</time>
      </trkpt>
      <trkpt lat="45.85789" lon="-0.09656">
        <ele>104.234375</ele>
        <time>2017-10-13T13:16:53Z</time>
      </trkpt>
      <trkpt lat="45.85784" lon="-0.09658">
        <ele>104.33984375</ele>
        <time>2017-10-13T13:16:54Z</time>
      </trkpt>
      <trkpt lat="45.85741" lon="-0.09682">
        <ele>105.921875</ele>
        <time>2017-10-13T13:17:03Z</time>
      </trkpt>
      <trkpt lat="45.85693" lon="-0.09713">
        <ele>108.31640625</ele>
        <time>2017-10-13T13:17:15Z</time>
      </trkpt>
      <trkpt lat="45.85653" lon="-0.09734">
        <ele>110.53515625</ele>
        <time>2017-10-13T13:17:25Z</time>
      </trkpt>
      <trkpt lat="45.85605" lon="-0.09756">
        <ele>111</ele>
        <time>2017-10-13T13:17:36Z</time>
      </trkpt>
      <trkpt lat="45.85561" lon="-0.0977">
        <ele>111.36328125</ele>
        <time>2017-10-13T13:17:45Z</time>
      </trkpt>
      <trkpt lat="45.8552" lon="-0.09778">
        <ele>111.1015625</ele>
        <time>2017-10-13T13:17:53Z</time>
      </trkpt>
      <trkpt lat="45.85466" lon="-0.09788">
        <ele>109.296875</ele>
        <time>2017-10-13T13:18:03Z</time>
      </trkpt>
      <trkpt lat="45.85408" lon="-0.09783">
        <ele>107.28125</ele>
        <time>2017-10-13T13:18:12Z</time>
      </trkpt>
      <trkpt lat="45.85378" lon="-0.09787">
        <ele>105.46875</ele>
        <time>2017-10-13T13:18:16Z</time>
      </trkpt>
      <trkpt lat="45.85317" lon="-0.09796">
        <ele>102.109375</ele>
        <time>2017-10-13T13:18:24Z</time>
      </trkpt>
      <trkpt lat="45.85279" lon="-0.09803">
        <ele>100.109375</ele>
        <time>2017-10-13T13:18:29Z</time>
      </trkpt>
      <trkpt lat="45.85256" lon="-0.09802">
        <ele>99.3359375</ele>
        <time>2017-10-13T13:18:32Z</time>
      </trkpt>
      <trkpt lat="45.85227" lon="-0.098">
        <ele>99.484375</ele>
        <time>2017-10-13T13:18:36Z</time>
      </trkpt>
      <trkpt lat="45.85211" lon="-0.09798">
        <ele>99.65234375</ele>
        <time>2017-10-13T13:18:40Z</time>
      </trkpt>
      <trkpt lat="45.85206" lon="-0.09793">
        <ele>100.06640625</ele>
        <time>2017-10-13T13:18:42Z</time>
      </trkpt>
      <trkpt lat="45.85205" lon="-0.09789">
        <ele>100.41796875</ele>
        <time>2017-10-13T13:18:43Z</time>
      </trkpt>
      <trkpt lat="45.85205" lon="-0.09785">
        <ele>100.70703125</ele>
        <time>2017-10-13T13:18:44Z</time>
      </trkpt>
      <trkpt lat="45.85204" lon="-0.0978">
        <ele>101.1171875</ele>
        <time>2017-10-13T13:18:45Z</time>
      </trkpt>
      <trkpt lat="45.85203" lon="-0.09776">
        <ele>101.4375</ele>
        <time>2017-10-13T13:18:46Z</time>
      </trkpt>
      <trkpt lat="45.85201" lon="-0.09772">
        <ele>101.7578125</ele>
        <time>2017-10-13T13:18:47Z</time>
      </trkpt>
      <trkpt lat="45.852" lon="-0.09767">
        <ele>101.95703125</ele>
        <time>2017-10-13T13:18:48Z</time>
      </trkpt>
      <trkpt lat="45.85189" lon="-0.09737">
        <ele>103.375</ele>
        <time>2017-10-13T13:18:55Z</time>
      </trkpt>
      <trkpt lat="45.85174" lon="-0.09697">
        <ele>104</ele>
        <time>2017-10-13T13:19:04Z</time>
      </trkpt>
      <trkpt lat="45.85157" lon="-0.09678">
        <ele>103.1171875</ele>
        <time>2017-10-13T13:19:10Z</time>
      </trkpt>
      <trkpt lat="45.85153" lon="-0.09678">
        <ele>102.828125</ele>
        <time>2017-10-13T13:19:11Z</time>
      </trkpt>
      <trkpt lat="45.85148" lon="-0.09677">
        <ele>102.46484375</ele>
        <time>2017-10-13T13:19:12Z</time>
      </trkpt>
      <trkpt lat="45.85144" lon="-0.09676">
        <ele>102.11328125</ele>
        <time>2017-10-13T13:19:13Z</time>
      </trkpt>
      <trkpt lat="45.85139" lon="-0.09673">
        <ele>101.80859375</ele>
        <time>2017-10-13T13:19:14Z</time>
      </trkpt>
      <trkpt lat="45.85136" lon="-0.0967">
        <ele>101.53125</ele>
        <time>2017-10-13T13:19:15Z</time>
      </trkpt>
      <trkpt lat="45.85132" lon="-0.09667">
        <ele>101.23046875</ele>
        <time>2017-10-13T13:19:16Z</time>
      </trkpt>
      <trkpt lat="45.85128" lon="-0.09668">
        <ele>100.890625</ele>
        <time>2017-10-13T13:19:17Z</time>
      </trkpt>
      <trkpt lat="45.85125" lon="-0.09669">
        <ele>100.609375</ele>
        <time>2017-10-13T13:19:18Z</time>
      </trkpt>
      <trkpt lat="45.85101" lon="-0.09684">
        <ele>98.46484375</ele>
        <time>2017-10-13T13:19:25Z</time>
      </trkpt>
      <trkpt lat="45.85089" lon="-0.09694">
        <ele>97.58203125</ele>
        <time>2017-10-13T13:19:28Z</time>
      </trkpt>
      <trkpt lat="45.85079" lon="-0.097">
        <ele>96.91015625</ele>
        <time>2017-10-13T13:19:30Z</time>
      </trkpt>
      <trkpt lat="45.85064" lon="-0.09707">
        <ele>95.8046875</ele>
        <time>2017-10-13T13:19:33Z</time>
      </trkpt>
      <trkpt lat="45.85051" lon="-0.0971">
        <ele>94.90234375</ele>
        <time>2017-10-13T13:19:40Z</time>
      </trkpt>
      <trkpt lat="45.85034" lon="-0.09715">
        <ele>93.69140625</ele>
        <time>2017-10-13T13:19:46Z</time>
      </trkpt>
      <trkpt lat="45.85043" lon="-0.0968">
        <ele>94.86328125</ele>
        <time>2017-10-13T13:19:52Z</time>
      </trkpt>
      <trkpt lat="45.8504" lon="-0.09661">
        <ele>94.98828125</ele>
        <time>2017-10-13T13:19:58Z</time>
      </trkpt>
      <trkpt lat="45.85037" lon="-0.09637">
        <ele>94.828125</ele>
      </trkpt>
      <trkpt lat="45.85036" lon="-0.09618">
        <ele>94.77734375</ele>
      </trkpt>
      <trkpt lat="45.85037" lon="-0.09588">
        <ele>95.15234375</ele>
      </trkpt>
      <trkpt lat="45.85038" lon="-0.0955">
        <ele>95.88671875</ele>
      </trkpt>
      <trkpt lat="45.85036" lon="-0.09476">
        <ele>97.10546875</ele>
      </trkpt>
      <trkpt lat="45.85034" lon="-0.09444">
        <ele>97.578125</ele>
      </trkpt>
      <trkpt lat="45.85033" lon="-0.09434">
        <ele>97.6328125</ele>
      </trkpt>
      <trkpt lat="45.85021" lon="-0.09398">
        <ele>96.9921875</ele>
      </trkpt>
      <trkpt lat="45.85003" lon="-0.09355">
        <ele>95.49609375</ele>
      </trkpt>
      <trkpt lat="45.84991" lon="-0.09324">
        <ele>94.14453125</ele>
      </trkpt>
      <trkpt lat="45.84974" lon="-0.09267">
        <ele>90.51953125</ele>
      </trkpt>
      <trkpt lat="45.84952" lon="-0.09206">
        <ele>88.64453125</ele>
      </trkpt>
      <trkpt lat="45.84935" lon="-0.09169">
        <ele>87.37109375</ele>
      </trkpt>
      <trkpt lat="45.84928" lon="-0.0915">
        <ele>86.78515625</ele>
      </trkpt>
      <trkpt lat="45.84904" lon="-0.09097">
        <ele>85.40234375</ele>
      </trkpt>
      <trkpt lat="45.84874" lon="-0.09023">
        <ele>84.01171875</ele>
      </trkpt>
      <trkpt lat="45.84863" lon="-0.08993">
        <ele>84.00390625</ele>
      </trkpt>
      <trkpt lat="45.84845" lon="-0.08972">
        <ele>84.203125</ele>
      </trkpt>
      <trkpt lat="45.84836" lon="-0.08966">
        <ele>84.33984375</ele>
      </trkpt>
      <trkpt lat="45.84813" lon="-0.08958">
        <ele>84.6796875</ele>
      </trkpt>
      <trkpt lat="45.84789" lon="-0.08945">
        <ele>84.94921875</ele>
      </trkpt>
      <trkpt lat="45.84719" lon="-0.08897">
        <ele>86.71484375</ele>
      </trkpt>
      <trkpt lat="45.84713" lon="-0.08886">
        <ele>86.87109375</ele>
      </trkpt>
      <trkpt lat="45.84711" lon="-0.08874">
        <ele>87.09375</ele>
      </trkpt>
      <trkpt lat="45.84684" lon="-0.08985">
        <ele>87.3984375</ele>
      </trkpt>
      <trkpt lat="45.84675" lon="-0.09024">
        <ele>87.390625</ele>
      </trkpt>
      <trkpt lat="45.84669" lon="-0.09047">
        <ele>87.38671875</ele>
      </trkpt>
      <trkpt lat="45.84663" lon="-0.09065">
        <ele>87.10546875</ele>
      </trkpt>
      <trkpt lat="45.84648" lon="-0.09087">
        <ele>86.78515625</ele>
      </trkpt>
      <trkpt lat="45.84631" lon="-0.09107">
        <ele>86.703125</ele>
      </trkpt>
      <trkpt lat="45.84621" lon="-0.0913">
        <ele>86.66015625</ele>
      </trkpt>
      <trkpt lat="45.84607" lon="-0.09207">
        <ele>85.9296875</ele>
      </trkpt>
      <trkpt lat="45.84605" lon="-0.09227">
        <ele>85.98046875</ele>
      </trkpt>
      <trkpt lat="45.84606" lon="-0.0924">
        <ele>86.140625</ele>
      </trkpt>
      <trkpt lat="45.84606" lon="-0.09246">
        <ele>86.23046875</ele>
      </trkpt>
      <trkpt lat="45.84614" lon="-0.09271">
        <ele>86.33203125</ele>
      </trkpt>
      <trkpt lat="45.84625" lon="-0.09318">
        <ele>86.37890625</ele>
      </trkpt>
      <trkpt lat="45.84628" lon="-0.09338">
        <ele>86.48828125</ele>
      </trkpt>
      <trkpt lat="45.84624" lon="-0.09341">
        <ele>86.59765625</ele>
      </trkpt>
      <trkpt lat="45.84621" lon="-0.09344">
        <ele>86.70703125</ele>
        <time>2017-10-13T13:22:26Z</time>
      </trkpt>
      <trkpt lat="45.84618" lon="-0.09347">
        <ele>86.80078125</ele>
        <time>2017-10-13T13:22:27Z</time>
      </trkpt>
      <trkpt lat="45.84615" lon="-0.09352">
        <ele>86.9296875</ele>
        <time>2017-10-13T13:22:28Z</time>
      </trkpt>
      <trkpt lat="45.84581" lon="-0.09388">
        <ele>88.5390625</ele>
        <time>2017-10-13T13:22:37Z</time>
      </trkpt>
      <trkpt lat="45.84573" lon="-0.09397">
        <ele>88.8203125</ele>
        <time>2017-10-13T13:22:39Z</time>
      </trkpt>
      <trkpt lat="45.84532" lon="-0.0944">
        <ele>90.39453125</ele>
        <time>2017-10-13T13:22:50Z</time>
      </trkpt>
      <trkpt lat="45.84499" lon="-0.09475">
        <ele>92.04296875</ele>
        <time>2017-10-13T13:23:00Z</time>
      </trkpt>
      <trkpt lat="45.84459" lon="-0.09518">
        <ele>94.13671875</ele>
        <time>2017-10-13T13:23:12Z</time>
      </trkpt>
      <trkpt lat="45.84421" lon="-0.09559">
        <ele>96.30859375</ele>
        <time>2017-10-13T13:23:24Z</time>
      </trkpt>
      <trkpt lat="45.84391" lon="-0.09592">
        <ele>97.8984375</ele>
        <time>2017-10-13T13:23:34Z</time>
      </trkpt>
      <trkpt lat="45.84361" lon="-0.09622">
        <ele>99.43359375</ele>
        <time>2017-10-13T13:23:43Z</time>
      </trkpt>
      <trkpt lat="45.8432" lon="-0.09662">
        <ele>100.90234375</ele>
        <time>2017-10-13T13:23:55Z</time>
      </trkpt>
      <trkpt lat="45.84267" lon="-0.09711">
        <ele>101.84765625</ele>
        <time>2017-10-13T13:24:10Z</time>
      </trkpt>
      <trkpt lat="45.84231" lon="-0.09748">
        <ele>102.328125</ele>
        <time>2017-10-13T13:24:19Z</time>
      </trkpt>
      <trkpt lat="45.84227" lon="-0.09753">
        <ele>102.3984375</ele>
        <time>2017-10-13T13:24:20Z</time>
      </trkpt>
      <trkpt lat="45.84189" lon="-0.0981">
        <ele>104.3125</ele>
        <time>2017-10-13T13:24:31Z</time>
      </trkpt>
      <trkpt lat="45.84157" lon="-0.09857">
        <ele>106.58984375</ele>
        <time>2017-10-13T13:24:41Z</time>
      </trkpt>
      <trkpt lat="45.84141" lon="-0.09882">
        <ele>107.984375</ele>
        <time>2017-10-13T13:24:49Z</time>
      </trkpt>
      <trkpt lat="45.84124" lon="-0.09905">
        <ele>109.828125</ele>
        <time>2017-10-13T13:24:58Z</time>
      </trkpt>
      <trkpt lat="45.84107" lon="-0.09922">
        <ele>111.71875</ele>
        <time>2017-10-13T13:25:07Z</time>
      </trkpt>
      <trkpt lat="45.84088" lon="-0.09938">
        <ele>113.51953125</ele>
        <time>2017-10-13T13:25:16Z</time>
      </trkpt>
      <trkpt lat="45.84066" lon="-0.09953">
        <ele>115.15625</ele>
        <time>2017-10-13T13:25:26Z</time>
      </trkpt>
      <trkpt lat="45.84045" lon="-0.09964">
        <ele>116.65234375</ele>
        <time>2017-10-13T13:25:35Z</time>
      </trkpt>
      <trkpt lat="45.84024" lon="-0.09981">
        <ele>117.98046875</ele>
        <time>2017-10-13T13:25:44Z</time>
      </trkpt>
      <trkpt lat="45.83997" lon="-0.10009">
        <ele>119.125</ele>
        <time>2017-10-13T13:25:54Z</time>
      </trkpt>
      <trkpt lat="45.8397" lon="-0.10045">
        <ele>119.0859375</ele>
        <time>2017-10-13T13:26:03Z</time>
      </trkpt>
      <trkpt lat="45.83949" lon="-0.10073">
        <ele>118.57421875</ele>
        <time>2017-10-13T13:26:09Z</time>
      </trkpt>
      <trkpt lat="45.83911" lon="-0.10122">
        <ele>117.42578125</ele>
        <time>2017-10-13T13:26:18Z</time>
      </trkpt>
      <trkpt lat="45.83867" lon="-0.10168">
        <ele>116.85546875</ele>
        <time>2017-10-13T13:26:27Z</time>
      </trkpt>
      <trkpt lat="45.8383" lon="-0.10212">
        <ele>115.6015625</ele>
        <time>2017-10-13T13:26:34Z</time>
      </trkpt>
      <trkpt lat="45.83824" lon="-0.1022">
        <ele>115.3203125</ele>
        <time>2017-10-13T13:26:35Z</time>
      </trkpt>
      <trkpt lat="45.8378" lon="-0.1028">
        <ele>112.43359375</ele>
        <time>2017-10-13T13:26:43Z</time>
      </trkpt>
      <trkpt lat="45.83744" lon="-0.10315">
        <ele>111.51953125</ele>
        <time>2017-10-13T13:26:50Z</time>
      </trkpt>
      <trkpt lat="45.83708" lon="-0.10356">
        <ele>112.09765625</ele>
        <time>2017-10-13T13:26:58Z</time>
      </trkpt>
      <trkpt lat="45.83676" lon="-0.10398">
        <ele>112.00390625</ele>
        <time>2017-10-13T13:27:05Z</time>
      </trkpt>
      <trkpt lat="45.83642" lon="-0.10444">
        <ele>110.3125</ele>
        <time>2017-10-13T13:27:12Z</time>
      </trkpt>
      <trkpt lat="45.83596" lon="-0.10515">
        <ele>108.7734375</ele>
        <time>2017-10-13T13:27:22Z</time>
      </trkpt>
      <trkpt lat="45.8356" lon="-0.10576">
        <ele>109.015625</ele>
        <time>2017-10-13T13:27:31Z</time>
      </trkpt>
      <trkpt lat="45.83521" lon="-0.10645">
        <ele>108.42578125</ele>
        <time>2017-10-13T13:27:41Z</time>
      </trkpt>
      <trkpt lat="45.83495" lon="-0.10707">
        <ele>107.4765625</ele>
        <time>2017-10-13T13:27:48Z</time>
      </trkpt>
      <trkpt lat="45.83491" lon="-0.10716">
        <ele>107.44921875</ele>
        <time>2017-10-13T13:27:49Z</time>
      </trkpt>
      <trkpt lat="45.83462" lon="-0.1077">
        <ele>106.7109375</ele>
        <time>2017-10-13T13:27:56Z</time>
      </trkpt>
      <trkpt lat="45.8342" lon="-0.10836">
        <ele>107.54296875</ele>
        <time>2017-10-13T13:28:06Z</time>
      </trkpt>
      <trkpt lat="45.83392" lon="-0.10892">
        <ele>107.796875</ele>
        <time>2017-10-13T13:28:15Z</time>
      </trkpt>
      <trkpt lat="45.83379" lon="-0.10929">
        <ele>108.87890625</ele>
        <time>2017-10-13T13:28:21Z</time>
      </trkpt>
      <trkpt lat="45.83374" lon="-0.1096">
        <ele>109.39453125</ele>
        <time>2017-10-13T13:28:27Z</time>
      </trkpt>
      <trkpt lat="45.83371" lon="-0.10965">
        <ele>109.2109375</ele>
        <time>2017-10-13T13:28:28Z</time>
      </trkpt>
      <trkpt lat="45.83367" lon="-0.10969">
        <ele>108.953125</ele>
        <time>2017-10-13T13:28:29Z</time>
      </trkpt>
      <trkpt lat="45.83335" lon="-0.11005">
        <ele>106.69921875</ele>
        <time>2017-10-13T13:28:36Z</time>
      </trkpt>
      <trkpt lat="45.83319" lon="-0.11023">
        <ele>105.578125</ele>
        <time>2017-10-13T13:28:39Z</time>
      </trkpt>
      <trkpt lat="45.83289" lon="-0.11058">
        <ele>103.9453125</ele>
        <time>2017-10-13T13:28:45Z</time>
      </trkpt>
      <trkpt lat="45.83285" lon="-0.11059">
        <ele>103.71875</ele>
        <time>2017-10-13T13:28:46Z</time>
      </trkpt>
      <trkpt lat="45.83281" lon="-0.11056">
        <ele>103.41796875</ele>
        <time>2017-10-13T13:28:47Z</time>
      </trkpt>
      <trkpt lat="45.83275" lon="-0.11051">
        <ele>102.86328125</ele>
        <time>2017-10-13T13:28:49Z</time>
      </trkpt>
      <trkpt lat="45.83269" lon="-0.11051">
        <ele>102.4765625</ele>
        <time>2017-10-13T13:28:50Z</time>
      </trkpt>
      <trkpt lat="45.83264" lon="-0.11051">
        <ele>102.09765625</ele>
        <time>2017-10-13T13:28:51Z</time>
      </trkpt>
      <trkpt lat="45.83252" lon="-0.11051">
        <ele>101.4453125</ele>
        <time>2017-10-13T13:28:53Z</time>
      </trkpt>
      <trkpt lat="45.83246" lon="-0.11049">
        <ele>101.09765625</ele>
        <time>2017-10-13T13:28:54Z</time>
      </trkpt>
      <trkpt lat="45.8324" lon="-0.11046">
        <ele>100.765625</ele>
        <time>2017-10-13T13:28:55Z</time>
      </trkpt>
      <trkpt lat="45.83229" lon="-0.11037">
        <ele>100.14453125</ele>
        <time>2017-10-13T13:28:57Z</time>
      </trkpt>
      <trkpt lat="45.83217" lon="-0.11027">
        <ele>99.53515625</ele>
        <time>2017-10-13T13:28:59Z</time>
      </trkpt>
      <trkpt lat="45.83211" lon="-0.11026">
        <ele>99.1875</ele>
        <time>2017-10-13T13:29:00Z</time>
      </trkpt>
      <trkpt lat="45.8318" lon="-0.11021">
        <ele>100.4921875</ele>
        <time>2017-10-13T13:29:06Z</time>
      </trkpt>
      <trkpt lat="45.83144" lon="-0.11016">
        <ele>102.38671875</ele>
        <time>2017-10-13T13:29:15Z</time>
      </trkpt>
      <trkpt lat="45.83108" lon="-0.11009">
        <ele>104.0390625</ele>
        <time>2017-10-13T13:29:25Z</time>
      </trkpt>
      <trkpt lat="45.83104" lon="-0.11007">
        <ele>104.1328125</ele>
        <time>2017-10-13T13:29:26Z</time>
      </trkpt>
      <trkpt lat="45.831" lon="-0.11003">
        <ele>104.19140625</ele>
        <time>2017-10-13T13:29:27Z</time>
      </trkpt>
      <trkpt lat="45.83086" lon="-0.10991">
        <ele>103.921875</ele>
        <time>2017-10-13T13:29:30Z</time>
      </trkpt>
      <trkpt lat="45.83036" lon="-0.10965">
        <ele>102.34375</ele>
        <time>2017-10-13T13:29:39Z</time>
      </trkpt>
      <trkpt lat="45.83032" lon="-0.10961">
        <ele>102.02734375</ele>
        <time>2017-10-13T13:29:40Z</time>
      </trkpt>
      <trkpt lat="45.83028" lon="-0.10956">
        <ele>101.6875</ele>
        <time>2017-10-13T13:29:41Z</time>
      </trkpt>
      <trkpt lat="45.83018" lon="-0.10943">
        <ele>100.81640625</ele>
        <time>2017-10-13T13:29:44Z</time>
      </trkpt>
      <trkpt lat="45.82981" lon="-0.1091">
        <ele>100.71875</ele>
        <time>2017-10-13T13:29:53Z</time>
      </trkpt>
      <trkpt lat="45.82944" lon="-0.1088">
        <ele>104.04296875</ele>
        <time>2017-10-13T13:30:02Z</time>
      </trkpt>
      <trkpt lat="45.82938" lon="-0.10876">
        <ele>104.62890625</ele>
        <time>2017-10-13T13:30:04Z</time>
      </trkpt>
      <trkpt lat="45.82933" lon="-0.10871">
        <ele>105.12890625</ele>
        <time>2017-10-13T13:30:05Z</time>
      </trkpt>
      <trkpt lat="45.82933" lon="-0.10879">
        <ele>104.875</ele>
        <time>2017-10-13T13:30:06Z</time>
      </trkpt>
      <trkpt lat="45.82931" lon="-0.10887">
        <ele>104.62890625</ele>
        <time>2017-10-13T13:30:07Z</time>
      </trkpt>
      <trkpt lat="45.82897" lon="-0.10954">
        <ele>105.03515625</ele>
        <time>2017-10-13T13:30:08Z</time>
      </trkpt>
      <trkpt lat="45.82893" lon="-0.10961">
        <ele>105.26953125</ele>
        <time>2017-10-13T13:30:25Z</time>
      </trkpt>
      <trkpt lat="45.82883" lon="-0.10975">
        <ele>105.85546875</ele>
        <time>2017-10-13T13:30:31Z</time>
      </trkpt>
      <trkpt lat="45.82873" lon="-0.10984">
        <ele>106.46875</ele>
        <time>2017-10-13T13:30:38Z</time>
      </trkpt>
      <trkpt lat="45.8286" lon="-0.10996">
        <ele>107.2109375</ele>
        <time>2017-10-13T13:30:46Z</time>
      </trkpt>
      <trkpt lat="45.82852" lon="-0.10998">
        <ele>107.8125</ele>
        <time>2017-10-13T13:30:54Z</time>
      </trkpt>
      <trkpt lat="45.82832" lon="-0.10992">
        <ele>109.91796875</ele>
        <time>2017-10-13T13:31:03Z</time>
      </trkpt>
      <trkpt lat="45.82815" lon="-0.10981">
        <ele>111.85546875</ele>
        <time>2017-10-13T13:31:12Z</time>
      </trkpt>
      <trkpt lat="45.82801" lon="-0.1097">
        <ele>113.2578125</ele>
        <time>2017-10-13T13:31:21Z</time>
      </trkpt>
      <trkpt lat="45.82779" lon="-0.10982">
        <ele>113.76953125</ele>
        <time>2017-10-13T13:31:27Z</time>
      </trkpt>
      <trkpt lat="45.82775" lon="-0.10983">
        <ele>113.9765625</ele>
        <time>2017-10-13T13:31:28Z</time>
      </trkpt>
      <trkpt lat="45.82778" lon="-0.10962">
        <ele>114.9140625</ele>
        <time>2017-10-13T13:31:29Z</time>
      </trkpt>
      <trkpt lat="45.82785" lon="-0.10937">
        <ele>115.89453125</ele>
        <time>2017-10-13T13:31:30Z</time>
      </trkpt>
      <trkpt lat="45.82794" lon="-0.10916">
        <ele>116.34375</ele>
        <time>2017-10-13T13:31:44Z</time>
      </trkpt>
      <trkpt lat="45.82806" lon="-0.10884">
        <ele>116.8671875</ele>
        <time>2017-10-13T13:31:54Z</time>
      </trkpt>
      <trkpt lat="45.82813" lon="-0.10869">
        <ele>116.88671875</ele>
        <time>2017-10-13T13:31:58Z</time>
      </trkpt>
      <trkpt lat="45.82814" lon="-0.10865">
        <ele>117.01171875</ele>
        <time>2017-10-13T13:31:59Z</time>
      </trkpt>
      <trkpt lat="45.82812" lon="-0.10862">
        <ele>117.2421875</ele>
        <time>2017-10-13T13:32:00Z</time>
      </trkpt>
      <trkpt lat="45.82794" lon="-0.10835">
        <ele>119.4765625</ele>
        <time>2017-10-13T13:32:09Z</time>
      </trkpt>
      <trkpt lat="45.82779" lon="-0.1081">
        <ele>121.19921875</ele>
        <time>2017-10-13T13:32:17Z</time>
      </trkpt>
      <trkpt lat="45.82762" lon="-0.10786">
        <ele>122.76171875</ele>
        <time>2017-10-13T13:32:25Z</time>
      </trkpt>
      <trkpt lat="45.82746" lon="-0.10765">
        <ele>123.39453125</ele>
        <time>2017-10-13T13:32:35Z</time>
      </trkpt>
      <trkpt lat="45.82721" lon="-0.1074">
        <ele>124.60546875</ele>
        <time>2017-10-13T13:32:43Z</time>
      </trkpt>
      <trkpt lat="45.82695" lon="-0.10713">
        <ele>126</ele>
        <time>2017-10-13T13:32:51Z</time>
      </trkpt>
      <trkpt lat="45.82671" lon="-0.1069">
        <ele>126</ele>
        <time>2017-10-13T13:33:00Z</time>
      </trkpt>
      <trkpt lat="45.82669" lon="-0.10674">
        <ele>126</ele>
        <time>2017-10-13T13:33:04Z</time>
      </trkpt>
      <trkpt lat="45.8267" lon="-0.10653">
        <ele>125.87109375</ele>
        <time>2017-10-13T13:33:08Z</time>
      </trkpt>
      <trkpt lat="45.82675" lon="-0.10614">
        <ele>125.16796875</ele>
        <time>2017-10-13T13:33:13Z</time>
      </trkpt>
      <trkpt lat="45.82658" lon="-0.106">
        <ele>124.83203125</ele>
        <time>2017-10-13T13:33:14Z</time>
      </trkpt>
      <trkpt lat="45.82635" lon="-0.10576">
        <ele>123.96484375</ele>
        <time>2017-10-13T13:33:15Z</time>
      </trkpt>
      <trkpt lat="45.82603" lon="-0.10542">
        <ele>122.59765625</ele>
        <time>2017-10-13T13:33:16Z</time>
      </trkpt>
      <trkpt lat="45.82585" lon="-0.10523">
        <ele>121.66796875</ele>
        <time>2017-10-13T13:33:36Z</time>
      </trkpt>
      <trkpt lat="45.82536" lon="-0.1047">
        <ele>120.2890625</ele>
        <time>2017-10-13T13:33:46Z</time>
      </trkpt>
      <trkpt lat="45.8249" lon="-0.10418">
        <ele>120.8359375</ele>
        <time>2017-10-13T13:33:55Z</time>
      </trkpt>
      <trkpt lat="45.82452" lon="-0.10374">
        <ele>122.23046875</ele>
        <time>2017-10-13T13:34:04Z</time>
      </trkpt>
      <trkpt lat="45.82418" lon="-0.10338">
        <ele>123.265625</ele>
        <time>2017-10-13T13:34:13Z</time>
      </trkpt>
      <trkpt lat="45.82377" lon="-0.10296">
        <ele>123.40625</ele>
        <time>2017-10-13T13:34:23Z</time>
      </trkpt>
      <trkpt lat="45.82334" lon="-0.10256">
        <ele>122.7109375</ele>
        <time>2017-10-13T13:34:33Z</time>
      </trkpt>
      <trkpt lat="45.82284" lon="-0.10209">
        <ele>120.45703125</ele>
        <time>2017-10-13T13:34:41Z</time>
      </trkpt>
      <trkpt lat="45.82289" lon="-0.10195">
        <ele>120.171875</ele>
        <time>2017-10-13T13:34:42Z</time>
      </trkpt>
      <trkpt lat="45.82297" lon="-0.10174">
        <ele>119.68359375</ele>
        <time>2017-10-13T13:34:47Z</time>
      </trkpt>
      <trkpt lat="45.82327" lon="-0.10096">
        <ele>117.96484375</ele>
        <time>2017-10-13T13:34:57Z</time>
      </trkpt>
      <trkpt lat="45.82347" lon="-0.10034">
        <ele>116.45703125</ele>
        <time>2017-10-13T13:35:05Z</time>
      </trkpt>
      <trkpt lat="45.82346" lon="-0.10026">
        <ele>116.14453125</ele>
        <time>2017-10-13T13:35:06Z</time>
      </trkpt>
      <trkpt lat="45.82343" lon="-0.10019">
        <ele>115.76171875</ele>
        <time>2017-10-13T13:35:07Z</time>
      </trkpt>
      <trkpt lat="45.8234" lon="-0.10014">
        <ele>115.45703125</ele>
        <time>2017-10-13T13:35:08Z</time>
      </trkpt>
      <trkpt lat="45.82334" lon="-0.10011">
        <ele>115.15625</ele>
        <time>2017-10-13T13:35:09Z</time>
      </trkpt>
      <trkpt lat="45.82329" lon="-0.10008">
        <ele>114.890625</ele>
        <time>2017-10-13T13:35:10Z</time>
      </trkpt>
      <trkpt lat="45.82291" lon="-0.09984">
        <ele>114.33203125</ele>
        <time>2017-10-13T13:35:17Z</time>
      </trkpt>
      <trkpt lat="45.82286" lon="-0.09979">
        <ele>114.375</ele>
        <time>2017-10-13T13:35:18Z</time>
      </trkpt>
      <trkpt lat="45.82282" lon="-0.09974">
        <ele>114.43359375</ele>
        <time>2017-10-13T13:35:19Z</time>
      </trkpt>
      <trkpt lat="45.82278" lon="-0.09968">
        <ele>114.5078125</ele>
        <time>2017-10-13T13:35:20Z</time>
      </trkpt>
      <trkpt lat="45.82274" lon="-0.09962">
        <ele>114.59375</ele>
        <time>2017-10-13T13:35:21Z</time>
      </trkpt>
      <trkpt lat="45.82271" lon="-0.09955">
        <ele>114.6796875</ele>
        <time>2017-10-13T13:35:22Z</time>
      </trkpt>
      <trkpt lat="45.82268" lon="-0.09948">
        <ele>114.7734375</ele>
        <time>2017-10-13T13:35:23Z</time>
      </trkpt>
      <trkpt lat="45.82259" lon="-0.09923">
        <ele>115.125</ele>
        <time>2017-10-13T13:35:27Z</time>
      </trkpt>
      <trkpt lat="45.82258" lon="-0.09916">
        <ele>115.12109375</ele>
        <time>2017-10-13T13:35:28Z</time>
      </trkpt>
      <trkpt lat="45.82259" lon="-0.09909">
        <ele>115.08203125</ele>
        <time>2017-10-13T13:35:29Z</time>
      </trkpt>
      <trkpt lat="45.82261" lon="-0.09902">
        <ele>115.03515625</ele>
        <time>2017-10-13T13:35:30Z</time>
      </trkpt>
      <trkpt lat="45.82264" lon="-0.09896">
        <ele>114.9765625</ele>
        <time>2017-10-13T13:35:31Z</time>
      </trkpt>
      <trkpt lat="45.82268" lon="-0.0989">
        <ele>114.64453125</ele>
        <time>2017-10-13T13:35:32Z</time>
      </trkpt>
      <trkpt lat="45.82291" lon="-0.09844">
        <ele>111.4921875</ele>
        <time>2017-10-13T13:35:39Z</time>
      </trkpt>
      <trkpt lat="45.82316" lon="-0.09791">
        <ele>107.8671875</ele>
        <time>2017-10-13T13:35:46Z</time>
      </trkpt>
      <trkpt lat="45.82324" lon="-0.0977">
        <ele>106.68359375</ele>
        <time>2017-10-13T13:35:48Z</time>
      </trkpt>
      <trkpt lat="45.82326" lon="-0.09757">
        <ele>106.08203125</ele>
        <time>2017-10-13T13:35:49Z</time>
      </trkpt>
      <trkpt lat="45.82328" lon="-0.09744">
        <ele>105.51171875</ele>
        <time>2017-10-13T13:35:50Z</time>
      </trkpt>
      <trkpt lat="45.82334" lon="-0.09703">
        <ele>103.515625</ele>
        <time>2017-10-13T13:35:53Z</time>
      </trkpt>
      <trkpt lat="45.82342" lon="-0.09642">
        <ele>101.19140625</ele>
        <time>2017-10-13T13:35:57Z</time>
      </trkpt>
      <trkpt lat="45.82342" lon="-0.09597">
        <ele>101.4765625</ele>
        <time>2017-10-13T13:36:00Z</time>
      </trkpt>
      <trkpt lat="45.82338" lon="-0.09518">
        <ele>104.2734375</ele>
        <time>2017-10-13T13:36:06Z</time>
      </trkpt>
      <trkpt lat="45.82337" lon="-0.09499">
        <ele>104.85546875</ele>
        <time>2017-10-13T13:36:08Z</time>
      </trkpt>
      <trkpt lat="45.82333" lon="-0.09472">
        <ele>105.10546875</ele>
        <time>2017-10-13T13:36:12Z</time>
      </trkpt>
      <trkpt lat="45.8233" lon="-0.09462">
        <ele>105.1171875</ele>
        <time>2017-10-13T13:36:14Z</time>
      </trkpt>
      <trkpt lat="45.82334" lon="-0.09457">
        <ele>105.18359375</ele>
        <time>2017-10-13T13:36:15Z</time>
      </trkpt>
      <trkpt lat="45.82346" lon="-0.09455">
        <ele>105.33984375</ele>
        <time>2017-10-13T13:36:16Z</time>
      </trkpt>
      <trkpt lat="45.82361" lon="-0.09449">
        <ele>105.6171875</ele>
        <time>2017-10-13T13:36:17Z</time>
      </trkpt>
      <trkpt lat="45.82388" lon="-0.09438">
        <ele>105.734375</ele>
        <time>2017-10-13T13:36:18Z</time>
      </trkpt>
      <trkpt lat="45.82394" lon="-0.09432">
        <ele>105.49609375</ele>
      </trkpt>
      <trkpt lat="45.82399" lon="-0.09424">
        <ele>105.265625</ele>
      </trkpt>
      <trkpt lat="45.82404" lon="-0.09413">
        <ele>105.0390625</ele>
      </trkpt>
      <trkpt lat="45.82426" lon="-0.09389">
        <ele>104.9375</ele>
      </trkpt>
      <trkpt lat="45.8244" lon="-0.09376">
        <ele>104.4296875</ele>
      </trkpt>
      <trkpt lat="45.82466" lon="-0.09352">
        <ele>102.94921875</ele>
      </trkpt>
      <trkpt lat="45.82479" lon="-0.09341">
        <ele>102.3984375</ele>
      </trkpt>
      <trkpt lat="45.82481" lon="-0.0934">
        <ele>102.32421875</ele>
      </trkpt>
      <trkpt lat="45.82492" lon="-0.09339">
        <ele>101.83203125</ele>
      </trkpt>
      <trkpt lat="45.825" lon="-0.09344">
        <ele>101.453125</ele>
      </trkpt>
      <trkpt lat="45.82507" lon="-0.09345">
        <ele>101.015625</ele>
      </trkpt>
      <trkpt lat="45.82511" lon="-0.09344">
        <ele>100.8125</ele>
      </trkpt>
      <trkpt lat="45.82517" lon="-0.09334">
        <ele>100.36328125</ele>
      </trkpt>
      <trkpt lat="45.8252" lon="-0.09325">
        <ele>100.0546875</ele>
      </trkpt>
      <trkpt lat="45.82525" lon="-0.09304">
        <ele>99.22265625</ele>
      </trkpt>
      <trkpt lat="45.8253" lon="-0.09289">
        <ele>98.6328125</ele>
      </trkpt>
      <trkpt lat="45.82537" lon="-0.09274">
        <ele>98.109375</ele>
      </trkpt>
      <trkpt lat="45.82567" lon="-0.09244">
        <ele>96.30859375</ele>
      </trkpt>
      <trkpt lat="45.82596" lon="-0.09211">
        <ele>94.90625</ele>
      </trkpt>
      <trkpt lat="45.82617" lon="-0.09189">
        <ele>94.3203125</ele>
      </trkpt>
      <trkpt lat="45.82627" lon="-0.09177">
        <ele>94.13671875</ele>
      </trkpt>
      <trkpt lat="45.8263" lon="-0.09167">
        <ele>94.04296875</ele>
      </trkpt>
      <trkpt lat="45.82632" lon="-0.09158">
        <ele>94</ele>
      </trkpt>
      <trkpt lat="45.82618" lon="-0.09127">
        <ele>94</ele>
      </trkpt>
      <trkpt lat="45.82615" lon="-0.09116">
        <ele>94</ele>
      </trkpt>
      <trkpt lat="45.82611" lon="-0.09107">
        <ele>94</ele>
      </trkpt>
      <trkpt lat="45.82605" lon="-0.09088">
        <ele>94</ele>
      </trkpt>
      <trkpt lat="45.82602" lon="-0.09071">
        <ele>94</ele>
      </trkpt>
      <trkpt lat="45.82596" lon="-0.09038">
        <ele>94.22265625</ele>
      </trkpt>
      <trkpt lat="45.8259" lon="-0.08988">
        <ele>95.015625</ele>
      </trkpt>
      <trkpt lat="45.82581" lon="-0.08916">
        <ele>95.953125</ele>
      </trkpt>
      <trkpt lat="45.82574" lon="-0.08858">
        <ele>98.1796875</ele>
      </trkpt>
      <trkpt lat="45.8256" lon="-0.08863">
        <ele>98.74609375</ele>
      </trkpt>
      <trkpt lat="45.82537" lon="-0.08874">
        <ele>99.66796875</ele>
      </trkpt>
      <trkpt lat="45.82521" lon="-0.08885">
        <ele>100.359375</ele>
      </trkpt>
      <trkpt lat="45.82504" lon="-0.089">
        <ele>100.58984375</ele>
      </trkpt>
      <trkpt lat="45.82491" lon="-0.08915">
        <ele>100.421875</ele>
      </trkpt>
      <trkpt lat="45.82471" lon="-0.08942">
        <ele>100.484375</ele>
      </trkpt>
      <trkpt lat="45.82457" lon="-0.08964">
        <ele>101.015625</ele>
      </trkpt>
      <trkpt lat="45.82443" lon="-0.0898">
        <ele>101.5859375</ele>
      </trkpt>
      <trkpt lat="45.82427" lon="-0.08996">
        <ele>102.08203125</ele>
      </trkpt>
      <trkpt lat="45.82412" lon="-0.0901">
        <ele>102.08203125</ele>
      </trkpt>
      <trkpt lat="45.82395" lon="-0.09024">
        <ele>101.96875</ele>
      </trkpt>
      <trkpt lat="45.82385" lon="-0.09033">
        <ele>101.7890625</ele>
      </trkpt>
      <trkpt lat="45.82372" lon="-0.09041">
        <ele>101.8359375</ele>
      </trkpt>
      <trkpt lat="45.82358" lon="-0.09052">
        <ele>102.12890625</ele>
      </trkpt>
      <trkpt lat="45.82342" lon="-0.09068">
        <ele>102.203125</ele>
      </trkpt>
      <trkpt lat="45.82331" lon="-0.09078">
        <ele>102.23828125</ele>
      </trkpt>
      <trkpt lat="45.82321" lon="-0.09082">
        <ele>102.59765625</ele>
      </trkpt>
      <trkpt lat="45.82309" lon="-0.09084">
        <ele>103.08203125</ele>
      </trkpt>
      <trkpt lat="45.82291" lon="-0.09084">
        <ele>104.05078125</ele>
      </trkpt>
      <trkpt lat="45.8227" lon="-0.09079">
        <ele>105.59375</ele>
      </trkpt>
      <trkpt lat="45.82253" lon="-0.09076">
        <ele>106.0546875</ele>
      </trkpt>
      <trkpt lat="45.82239" lon="-0.09072">
        <ele>106.25</ele>
      </trkpt>
      <trkpt lat="45.82233" lon="-0.09069">
        <ele>106.42578125</ele>
        <time>2017-10-13T13:41:57Z</time>
      </trkpt>
      <trkpt lat="45.82232" lon="-0.09062">
        <ele>107.0078125</ele>
        <time>2017-10-13T13:41:58Z</time>
      </trkpt>
      <trkpt lat="45.82241" lon="-0.09047">
        <ele>108.27734375</ele>
        <time>2017-10-13T13:42:05Z</time>
      </trkpt>
      <trkpt lat="45.8225" lon="-0.0903">
        <ele>109.83984375</ele>
        <time>2017-10-13T13:42:14Z</time>
      </trkpt>
      <trkpt lat="45.82255" lon="-0.09012">
        <ele>111.44140625</ele>
        <time>2017-10-13T13:42:22Z</time>
      </trkpt>
      <trkpt lat="45.82257" lon="-0.0899">
        <ele>113.35546875</ele>
        <time>2017-10-13T13:42:31Z</time>
      </trkpt>
      <trkpt lat="45.82264" lon="-0.0896">
        <ele>115.43359375</ele>
        <time>2017-10-13T13:42:43Z</time>
      </trkpt>
      <trkpt lat="45.82273" lon="-0.08936">
        <ele>116.5703125</ele>
        <time>2017-10-13T13:42:52Z</time>
      </trkpt>
      <trkpt lat="45.82281" lon="-0.08901">
        <ele>118.31640625</ele>
        <time>2017-10-13T13:43:03Z</time>
      </trkpt>
      <trkpt lat="45.82286" lon="-0.08869">
        <ele>120.0546875</ele>
        <time>2017-10-13T13:43:13Z</time>
      </trkpt>
      <trkpt lat="45.8229" lon="-0.08839">
        <ele>121.78125</ele>
        <time>2017-10-13T13:43:23Z</time>
      </trkpt>
      <trkpt lat="45.82294" lon="-0.08812">
        <ele>122.9609375</ele>
        <time>2017-10-13T13:43:32Z</time>
      </trkpt>
      <trkpt lat="45.82297" lon="-0.08779">
        <ele>124.31640625</ele>
        <time>2017-10-13T13:43:43Z</time>
      </trkpt>
      <trkpt lat="45.82297" lon="-0.08756">
        <ele>125.4921875</ele>
        <time>2017-10-13T13:43:50Z</time>
      </trkpt>
      <trkpt lat="45.82296" lon="-0.08722">
        <ele>127.41796875</ele>
        <time>2017-10-13T13:44:01Z</time>
      </trkpt>
      <trkpt lat="45.82293" lon="-0.08697">
        <ele>128.62109375</ele>
        <time>2017-10-13T13:44:09Z</time>
      </trkpt>
      <trkpt lat="45.82289" lon="-0.08672">
        <ele>129.73046875</ele>
        <time>2017-10-13T13:44:17Z</time>
      </trkpt>
      <trkpt lat="45.82278" lon="-0.08643">
        <ele>131.1328125</ele>
        <time>2017-10-13T13:44:26Z</time>
      </trkpt>
      <trkpt lat="45.82265" lon="-0.0861">
        <ele>132.80859375</ele>
        <time>2017-10-13T13:44:36Z</time>
      </trkpt>
      <trkpt lat="45.8225" lon="-0.08571">
        <ele>133.24609375</ele>
        <time>2017-10-13T13:44:47Z</time>
      </trkpt>
      <trkpt lat="45.82235" lon="-0.08532">
        <ele>133.51171875</ele>
        <time>2017-10-13T13:44:57Z</time>
      </trkpt>
      <trkpt lat="45.82217" lon="-0.08486">
        <ele>133.6796875</ele>
        <time>2017-10-13T13:45:07Z</time>
      </trkpt>
      <trkpt lat="45.82198" lon="-0.08429">
        <ele>132.82421875</ele>
        <time>2017-10-13T13:45:17Z</time>
      </trkpt>
      <trkpt lat="45.82195" lon="-0.08417">
        <ele>132.42578125</ele>
        <time>2017-10-13T13:45:19Z</time>
      </trkpt>
      <trkpt lat="45.82178" lon="-0.08354">
        <ele>130.1640625</ele>
        <time>2017-10-13T13:45:28Z</time>
      </trkpt>
      <trkpt lat="45.82169" lon="-0.08324">
        <ele>128.8203125</ele>
        <time>2017-10-13T13:45:32Z</time>
      </trkpt>
      <trkpt lat="45.82151" lon="-0.08253">
        <ele>125.95703125</ele>
        <time>2017-10-13T13:45:41Z</time>
      </trkpt>
      <trkpt lat="45.82127" lon="-0.08159">
        <ele>122.328125</ele>
        <time>2017-10-13T13:45:52Z</time>
      </trkpt>
      <trkpt lat="45.82116" lon="-0.08121">
        <ele>120.46484375</ele>
        <time>2017-10-13T13:45:58Z</time>
      </trkpt>
      <trkpt lat="45.82111" lon="-0.08105">
        <ele>119.69140625</ele>
        <time>2017-10-13T13:46:02Z</time>
      </trkpt>
      <trkpt lat="45.82112" lon="-0.081">
        <ele>119.4140625</ele>
        <time>2017-10-13T13:46:03Z</time>
      </trkpt>
      <trkpt lat="45.82116" lon="-0.08079">
        <ele>118.16796875</ele>
        <time>2017-10-13T13:46:06Z</time>
      </trkpt>
      <trkpt lat="45.82117" lon="-0.0807">
        <ele>117.69140625</ele>
        <time>2017-10-13T13:46:07Z</time>
      </trkpt>
      <trkpt lat="45.82117" lon="-0.08061">
        <ele>117.1796875</ele>
        <time>2017-10-13T13:46:08Z</time>
      </trkpt>
      <trkpt lat="45.82118" lon="-0.08008">
        <ele>114.33984375</ele>
        <time>2017-10-13T13:46:13Z</time>
      </trkpt>
      <trkpt lat="45.82126" lon="-0.07951">
        <ele>111.12890625</ele>
        <time>2017-10-13T13:46:18Z</time>
      </trkpt>
      <trkpt lat="45.82148" lon="-0.07898">
        <ele>108.65234375</ele>
        <time>2017-10-13T13:46:23Z</time>
      </trkpt>
      <trkpt lat="45.82158" lon="-0.07876">
        <ele>107.484375</ele>
        <time>2017-10-13T13:46:26Z</time>
      </trkpt>
      <trkpt lat="45.82158" lon="-0.07869">
        <ele>106.98046875</ele>
        <time>2017-10-13T13:46:27Z</time>
      </trkpt>
      <trkpt lat="45.82155" lon="-0.07862">
        <ele>106.44140625</ele>
        <time>2017-10-13T13:46:28Z</time>
      </trkpt>
      <trkpt lat="45.82151" lon="-0.07856">
        <ele>105.94140625</ele>
        <time>2017-10-13T13:46:29Z</time>
      </trkpt>
      <trkpt lat="45.82146" lon="-0.07849">
        <ele>105.43359375</ele>
        <time>2017-10-13T13:46:30Z</time>
      </trkpt>
      <trkpt lat="45.82127" lon="-0.07819">
        <ele>103.73828125</ele>
        <time>2017-10-13T13:46:34Z</time>
      </trkpt>
      <trkpt lat="45.82118" lon="-0.07807">
        <ele>103.46484375</ele>
        <time>2017-10-13T13:46:36Z</time>
      </trkpt>
      <trkpt lat="45.82112" lon="-0.07804">
        <ele>103.44140625</ele>
        <time>2017-10-13T13:46:37Z</time>
      </trkpt>
      <trkpt lat="45.82107" lon="-0.07804">
        <ele>103.48828125</ele>
        <time>2017-10-13T13:46:38Z</time>
      </trkpt>
      <trkpt lat="45.82102" lon="-0.07805">
        <ele>103.54296875</ele>
        <time>2017-10-13T13:46:39Z</time>
      </trkpt>
      <trkpt lat="45.82097" lon="-0.07806">
        <ele>103.6015625</ele>
        <time>2017-10-13T13:46:40Z</time>
      </trkpt>
      <trkpt lat="45.82051" lon="-0.07815">
        <ele>104.15625</ele>
        <time>2017-10-13T13:46:49Z</time>
      </trkpt>
      <trkpt lat="45.82006" lon="-0.07835">
        <ele>104.78515625</ele>
        <time>2017-10-13T13:46:59Z</time>
      </trkpt>
      <trkpt lat="45.81981" lon="-0.07846">
        <ele>105.453125</ele>
        <time>2017-10-13T13:47:05Z</time>
      </trkpt>
      <trkpt lat="45.81949" lon="-0.07859">
        <ele>106.51171875</ele>
        <time>2017-10-13T13:47:14Z</time>
      </trkpt>
      <trkpt lat="45.81915" lon="-0.0787">
        <ele>107.64453125</ele>
        <time>2017-10-13T13:47:25Z</time>
      </trkpt>
      <trkpt lat="45.8189" lon="-0.07876">
        <ele>108.56640625</ele>
        <time>2017-10-13T13:47:33Z</time>
      </trkpt>
      <trkpt lat="45.81866" lon="-0.0788">
        <ele>109.2578125</ele>
        <time>2017-10-13T13:47:42Z</time>
      </trkpt>
      <trkpt lat="45.81843" lon="-0.07886">
        <ele>109.6953125</ele>
        <time>2017-10-13T13:47:51Z</time>
      </trkpt>
      <trkpt lat="45.81823" lon="-0.07891">
        <ele>110.40625</ele>
        <time>2017-10-13T13:48:00Z</time>
      </trkpt>
      <trkpt lat="45.81808" lon="-0.07895">
        <ele>110.8046875</ele>
        <time>2017-10-13T13:48:07Z</time>
      </trkpt>
      <trkpt lat="45.8179" lon="-0.07902">
        <ele>111.2734375</ele>
        <time>2017-10-13T13:48:16Z</time>
      </trkpt>
      <trkpt lat="45.81773" lon="-0.07908">
        <ele>111.7421875</ele>
        <time>2017-10-13T13:48:25Z</time>
      </trkpt>
      <trkpt lat="45.81754" lon="-0.07917">
        <ele>112.56640625</ele>
        <time>2017-10-13T13:48:34Z</time>
      </trkpt>
      <trkpt lat="45.81739" lon="-0.07926">
        <ele>113.47265625</ele>
        <time>2017-10-13T13:48:41Z</time>
      </trkpt>
      <trkpt lat="45.81722" lon="-0.07939">
        <ele>114.69921875</ele>
        <time>2017-10-13T13:48:49Z</time>
      </trkpt>
      <trkpt lat="45.81704" lon="-0.0795">
        <ele>116.37109375</ele>
        <time>2017-10-13T13:48:57Z</time>
      </trkpt>
      <trkpt lat="45.81684" lon="-0.07956">
        <ele>117.453125</ele>
        <time>2017-10-13T13:49:05Z</time>
      </trkpt>
      <trkpt lat="45.81657" lon="-0.07963">
        <ele>118.859375</ele>
        <time>2017-10-13T13:49:14Z</time>
      </trkpt>
      <trkpt lat="45.81632" lon="-0.07958">
        <ele>119.69140625</ele>
        <time>2017-10-13T13:49:21Z</time>
      </trkpt>
      <trkpt lat="45.81609" lon="-0.07935">
        <ele>119.75390625</ele>
        <time>2017-10-13T13:49:29Z</time>
      </trkpt>
      <trkpt lat="45.81585" lon="-0.07913">
        <ele>120.9140625</ele>
        <time>2017-10-13T13:49:38Z</time>
      </trkpt>
      <trkpt lat="45.81559" lon="-0.07898">
        <ele>122.28515625</ele>
        <time>2017-10-13T13:49:48Z</time>
      </trkpt>
      <trkpt lat="45.81539" lon="-0.07883">
        <ele>123.1640625</ele>
        <time>2017-10-13T13:49:56Z</time>
      </trkpt>
      <trkpt lat="45.81518" lon="-0.07872">
        <ele>124.27734375</ele>
        <time>2017-10-13T13:50:04Z</time>
      </trkpt>
      <trkpt lat="45.81485" lon="-0.07874">
        <ele>126.12109375</ele>
        <time>2017-10-13T13:50:15Z</time>
      </trkpt>
      <trkpt lat="45.8145" lon="-0.07872">
        <ele>128.58203125</ele>
        <time>2017-10-13T13:50:26Z</time>
      </trkpt>
      <trkpt lat="45.81418" lon="-0.07863">
        <ele>130.69140625</ele>
        <time>2017-10-13T13:50:37Z</time>
      </trkpt>
      <trkpt lat="45.81393" lon="-0.07852">
        <ele>132.03515625</ele>
        <time>2017-10-13T13:50:46Z</time>
      </trkpt>
      <trkpt lat="45.81362" lon="-0.07835">
        <ele>134.17578125</ele>
        <time>2017-10-13T13:50:58Z</time>
      </trkpt>
      <trkpt lat="45.81342" lon="-0.07824">
        <ele>136.05078125</ele>
        <time>2017-10-13T13:51:06Z</time>
      </trkpt>
      <trkpt lat="45.81332" lon="-0.07816">
        <ele>137.1171875</ele>
        <time>2017-10-13T13:51:11Z</time>
      </trkpt>
      <trkpt lat="45.81332" lon="-0.07812">
        <ele>137.1953125</ele>
        <time>2017-10-13T13:51:12Z</time>
      </trkpt>
      <trkpt lat="45.81333" lon="-0.07809">
        <ele>137.19140625</ele>
        <time>2017-10-13T13:51:13Z</time>
      </trkpt>
      <trkpt lat="45.81334" lon="-0.07805">
        <ele>137.16015625</ele>
        <time>2017-10-13T13:51:14Z</time>
      </trkpt>
      <trkpt lat="45.81335" lon="-0.07801">
        <ele>137.15234375</ele>
        <time>2017-10-13T13:51:15Z</time>
      </trkpt>
      <trkpt lat="45.81336" lon="-0.07797">
        <ele>137.1484375</ele>
        <time>2017-10-13T13:51:16Z</time>
      </trkpt>
      <trkpt lat="45.81337" lon="-0.07793">
        <ele>137.125</ele>
        <time>2017-10-13T13:51:17Z</time>
      </trkpt>
      <trkpt lat="45.81338" lon="-0.07788">
        <ele>137.10546875</ele>
        <time>2017-10-13T13:51:18Z</time>
      </trkpt>
      <trkpt lat="45.81339" lon="-0.07783">
        <ele>137.11328125</ele>
        <time>2017-10-13T13:51:19Z</time>
      </trkpt>
      <trkpt lat="45.81346" lon="-0.07735">
        <ele>136.9765625</ele>
        <time>2017-10-13T13:51:28Z</time>
      </trkpt>
      <trkpt lat="45.81346" lon="-0.07684">
        <ele>137.1015625</ele>
        <time>2017-10-13T13:51:37Z</time>
      </trkpt>
      <trkpt lat="45.81344" lon="-0.07619">
        <ele>136.4609375</ele>
        <time>2017-10-13T13:51:48Z</time>
      </trkpt>
      <trkpt lat="45.81343" lon="-0.07564">
        <ele>136.0078125</ele>
        <time>2017-10-13T13:51:57Z</time>
      </trkpt>
      <trkpt lat="45.81338" lon="-0.07505">
        <ele>135.5078125</ele>
        <time>2017-10-13T13:52:06Z</time>
      </trkpt>
      <trkpt lat="45.81325" lon="-0.07438">
        <ele>136.49609375</ele>
        <time>2017-10-13T13:52:16Z</time>
      </trkpt>
      <trkpt lat="45.81309" lon="-0.07353">
        <ele>137.73828125</ele>
        <time>2017-10-13T13:52:28Z</time>
      </trkpt>
      <trkpt lat="45.81301" lon="-0.07287">
        <ele>139.9453125</ele>
        <time>2017-10-13T13:52:37Z</time>
      </trkpt>
      <trkpt lat="45.813" lon="-0.07273">
        <ele>140.42578125</ele>
        <time>2017-10-13T13:52:39Z</time>
      </trkpt>
      <trkpt lat="45.81303" lon="-0.07234">
        <ele>141.2109375</ele>
        <time>2017-10-13T13:52:45Z</time>
      </trkpt>
      <trkpt lat="45.81309" lon="-0.07191">
        <ele>142.328125</ele>
        <time>2017-10-13T13:52:53Z</time>
      </trkpt>
      <trkpt lat="45.81307" lon="-0.07149">
        <ele>143.83203125</ele>
        <time>2017-10-13T13:53:01Z</time>
      </trkpt>
      <trkpt lat="45.81298" lon="-0.07104">
        <ele>145.02734375</ele>
        <time>2017-10-13T13:53:10Z</time>
      </trkpt>
      <trkpt lat="45.81305" lon="-0.07082">
        <ele>145.3203125</ele>
        <time>2017-10-13T13:53:15Z</time>
      </trkpt>
      <trkpt lat="45.81323" lon="-0.07077">
        <ele>145.48046875</ele>
        <time>2017-10-13T13:53:20Z</time>
      </trkpt>
      <trkpt lat="45.81346" lon="-0.07071">
        <ele>145.171875</ele>
        <time>2017-10-13T13:53:27Z</time>
      </trkpt>
      <trkpt lat="45.81351" lon="-0.07066">
        <ele>145.171875</ele>
        <time>2017-10-13T13:53:29Z</time>
      </trkpt>
      <trkpt lat="45.81352" lon="-0.07063">
        <ele>145.20703125</ele>
        <time>2017-10-13T13:53:30Z</time>
      </trkpt>
      <trkpt lat="45.81354" lon="-0.07059">
        <ele>145.2578125</ele>
        <time>2017-10-13T13:53:31Z</time>
      </trkpt>
      <trkpt lat="45.81354" lon="-0.07055">
        <ele>145.3125</ele>
        <time>2017-10-13T13:53:32Z</time>
      </trkpt>
      <trkpt lat="45.81355" lon="-0.07052">
        <ele>145.36328125</ele>
        <time>2017-10-13T13:53:33Z</time>
      </trkpt>
      <trkpt lat="45.81355" lon="-0.07043">
        <ele>145.453125</ele>
        <time>2017-10-13T13:54:42Z</time>
      </trkpt>
      <trkpt lat="45.81356" lon="-0.0704">
        <ele>145.48828125</ele>
        <time>2017-10-13T14:03:49Z</time>
      </trkpt>
      <trkpt lat="45.81356" lon="-0.07038">
        <ele>145.50390625</ele>
        <time>2017-10-13T14:04:00Z</time>
      </trkpt>
      <trkpt lat="45.81358" lon="-0.07014">
        <ele>145.765625</ele>
        <time>2017-10-13T14:04:08Z</time>
      </trkpt>
      <trkpt lat="45.81364" lon="-0.06981">
        <ele>145.9453125</ele>
        <time>2017-10-13T14:04:16Z</time>
      </trkpt>
      <trkpt lat="45.81373" lon="-0.0694">
        <ele>145.94921875</ele>
        <time>2017-10-13T14:04:24Z</time>
      </trkpt>
      <trkpt lat="45.81381" lon="-0.069">
        <ele>145.13671875</ele>
        <time>2017-10-13T14:04:31Z</time>
      </trkpt>
      <trkpt lat="45.81389" lon="-0.0687">
        <ele>144.28125</ele>
        <time>2017-10-13T14:04:36Z</time>
      </trkpt>
      <trkpt lat="45.81394" lon="-0.06851">
        <ele>143.65234375</ele>
        <time>2017-10-13T14:04:39Z</time>
      </trkpt>
      <trkpt lat="45.81397" lon="-0.06845">
        <ele>143.46484375</ele>
        <time>2017-10-13T14:04:40Z</time>
      </trkpt>
      <trkpt lat="45.814" lon="-0.0684">
        <ele>143.2890625</ele>
        <time>2017-10-13T14:04:41Z</time>
      </trkpt>
      <trkpt lat="45.81433" lon="-0.0679">
        <ele>142.16015625</ele>
        <time>2017-10-13T14:04:51Z</time>
      </trkpt>
      <trkpt lat="45.81437" lon="-0.06785">
        <ele>141.875</ele>
        <time>2017-10-13T14:04:52Z</time>
      </trkpt>
      <trkpt lat="45.8147" lon="-0.06741">
        <ele>138.9296875</ele>
        <time>2017-10-13T14:05:01Z</time>
      </trkpt>
      <trkpt lat="45.81505" lon="-0.06705">
        <ele>136.59375</ele>
        <time>2017-10-13T14:05:09Z</time>
      </trkpt>
      <trkpt lat="45.81542" lon="-0.0667">
        <ele>134.12109375</ele>
        <time>2017-10-13T14:05:16Z</time>
      </trkpt>
      <trkpt lat="45.8158" lon="-0.06634">
        <ele>131.28125</ele>
        <time>2017-10-13T14:05:22Z</time>
      </trkpt>
      <trkpt lat="45.81616" lon="-0.06599">
        <ele>129.1875</ele>
        <time>2017-10-13T14:05:27Z</time>
      </trkpt>
      <trkpt lat="45.81623" lon="-0.06592">
        <ele>128.8046875</ele>
        <time>2017-10-13T14:05:28Z</time>
      </trkpt>
      <trkpt lat="45.81637" lon="-0.06576">
        <ele>127.9921875</ele>
        <time>2017-10-13T14:05:31Z</time>
      </trkpt>
      <trkpt lat="45.81639" lon="-0.06568">
        <ele>127.7890625</ele>
        <time>2017-10-13T14:05:32Z</time>
      </trkpt>
      <trkpt lat="45.81638" lon="-0.06562">
        <ele>127.72265625</ele>
        <time>2017-10-13T14:05:33Z</time>
      </trkpt>
      <trkpt lat="45.81637" lon="-0.06558">
        <ele>127.70703125</ele>
        <time>2017-10-13T14:05:34Z</time>
      </trkpt>
      <trkpt lat="45.81634" lon="-0.06553">
        <ele>127.6953125</ele>
        <time>2017-10-13T14:05:35Z</time>
      </trkpt>
      <trkpt lat="45.81632" lon="-0.06548">
        <ele>127.66015625</ele>
        <time>2017-10-13T14:05:36Z</time>
      </trkpt>
      <trkpt lat="45.8163" lon="-0.06542">
        <ele>127.609375</ele>
        <time>2017-10-13T14:05:37Z</time>
      </trkpt>
      <trkpt lat="45.81616" lon="-0.06514">
        <ele>127.19921875</ele>
        <time>2017-10-13T14:05:42Z</time>
      </trkpt>
      <trkpt lat="45.81613" lon="-0.06508">
        <ele>127.0859375</ele>
        <time>2017-10-13T14:05:43Z</time>
      </trkpt>
      <trkpt lat="45.81601" lon="-0.06474">
        <ele>125.28125</ele>
        <time>2017-10-13T14:05:48Z</time>
      </trkpt>
      <trkpt lat="45.81591" lon="-0.06396">
        <ele>120.234375</ele>
        <time>2017-10-13T14:05:57Z</time>
      </trkpt>
      <trkpt lat="45.81586" lon="-0.06359">
        <ele>118.00390625</ele>
        <time>2017-10-13T14:06:01Z</time>
      </trkpt>
      <trkpt lat="45.81582" lon="-0.06351">
        <ele>117.67578125</ele>
        <time>2017-10-13T14:06:02Z</time>
      </trkpt>
      <trkpt lat="45.81577" lon="-0.06345">
        <ele>117.59765625</ele>
        <time>2017-10-13T14:06:03Z</time>
      </trkpt>
      <trkpt lat="45.81568" lon="-0.06337">
        <ele>117.65234375</ele>
        <time>2017-10-13T14:06:05Z</time>
      </trkpt>
      <trkpt lat="45.81565" lon="-0.06332">
        <ele>117.5390625</ele>
        <time>2017-10-13T14:06:06Z</time>
      </trkpt>
      <trkpt lat="45.81563" lon="-0.06325">
        <ele>117.1328125</ele>
        <time>2017-10-13T14:06:07Z</time>
      </trkpt>
      <trkpt lat="45.81563" lon="-0.06318">
        <ele>116.5546875</ele>
        <time>2017-10-13T14:06:08Z</time>
      </trkpt>
      <trkpt lat="45.81566" lon="-0.0631">
        <ele>115.82421875</ele>
        <time>2017-10-13T14:06:09Z</time>
      </trkpt>
      <trkpt lat="45.81569" lon="-0.06302">
        <ele>115.0390625</ele>
        <time>2017-10-13T14:06:10Z</time>
      </trkpt>
      <trkpt lat="45.81581" lon="-0.06271">
        <ele>112.375</ele>
        <time>2017-10-13T14:06:13Z</time>
      </trkpt>
      <trkpt lat="45.816" lon="-0.06222">
        <ele>108.19921875</ele>
        <time>2017-10-13T14:06:18Z</time>
      </trkpt>
      <trkpt lat="45.81606" lon="-0.06203">
        <ele>106.6171875</ele>
        <time>2017-10-13T14:06:21Z</time>
      </trkpt>
      <trkpt lat="45.81606" lon="-0.06198">
        <ele>106.296875</ele>
        <time>2017-10-13T14:06:22Z</time>
      </trkpt>
      <trkpt lat="45.81604" lon="-0.06194">
        <ele>106.03515625</ele>
        <time>2017-10-13T14:06:23Z</time>
      </trkpt>
      <trkpt lat="45.81601" lon="-0.06191">
        <ele>105.921875</ele>
        <time>2017-10-13T14:06:24Z</time>
      </trkpt>
      <trkpt lat="45.81597" lon="-0.0619">
        <ele>105.9765625</ele>
        <time>2017-10-13T14:06:25Z</time>
      </trkpt>
      <trkpt lat="45.81593" lon="-0.06191">
        <ele>106.0703125</ele>
        <time>2017-10-13T14:06:26Z</time>
      </trkpt>
      <trkpt lat="45.8159" lon="-0.06191">
        <ele>106.19140625</ele>
        <time>2017-10-13T14:06:27Z</time>
      </trkpt>
      <trkpt lat="45.81554" lon="-0.06197">
        <ele>107.23046875</ele>
        <time>2017-10-13T14:06:37Z</time>
      </trkpt>
      <trkpt lat="45.81538" lon="-0.06198">
        <ele>107.5390625</ele>
        <time>2017-10-13T14:06:42Z</time>
      </trkpt>
      <trkpt lat="45.81536" lon="-0.06195">
        <ele>107.3359375</ele>
        <time>2017-10-13T14:06:43Z</time>
      </trkpt>
      <trkpt lat="45.81534" lon="-0.06192">
        <ele>107.0859375</ele>
        <time>2017-10-13T14:06:44Z</time>
      </trkpt>
      <trkpt lat="45.81532" lon="-0.06188">
        <ele>106.76953125</ele>
        <time>2017-10-13T14:06:45Z</time>
      </trkpt>
      <trkpt lat="45.8153" lon="-0.06182">
        <ele>106.34765625</ele>
        <time>2017-10-13T14:06:46Z</time>
      </trkpt>
      <trkpt lat="45.81528" lon="-0.06174">
        <ele>105.8125</ele>
        <time>2017-10-13T14:06:47Z</time>
      </trkpt>
      <trkpt lat="45.81527" lon="-0.06166">
        <ele>105.19921875</ele>
        <time>2017-10-13T14:06:48Z</time>
      </trkpt>
      <trkpt lat="45.81521" lon="-0.06126">
        <ele>105.50390625</ele>
        <time>2017-10-13T14:06:52Z</time>
      </trkpt>
      <trkpt lat="45.81518" lon="-0.06116">
        <ele>105.70703125</ele>
        <time>2017-10-13T14:06:53Z</time>
      </trkpt>
      <trkpt lat="45.81509" lon="-0.06077">
        <ele>108.73828125</ele>
        <time>2017-10-13T14:06:58Z</time>
      </trkpt>
      <trkpt lat="45.81504" lon="-0.06065">
        <ele>109.953125</ele>
        <time>2017-10-13T14:07:00Z</time>
      </trkpt>
      <trkpt lat="45.81492" lon="-0.06041">
        <ele>112.66015625</ele>
        <time>2017-10-13T14:07:05Z</time>
      </trkpt>
      <trkpt lat="45.81477" lon="-0.06017">
        <ele>114.83984375</ele>
        <time>2017-10-13T14:07:12Z</time>
      </trkpt>
      <trkpt lat="45.81458" lon="-0.05989">
        <ele>116.31640625</ele>
        <time>2017-10-13T14:07:21Z</time>
      </trkpt>
      <trkpt lat="45.81434" lon="-0.05957">
        <ele>117.1953125</ele>
        <time>2017-10-13T14:07:31Z</time>
      </trkpt>
      <trkpt lat="45.81404" lon="-0.05919">
        <ele>117.0234375</ele>
        <time>2017-10-13T14:07:42Z</time>
      </trkpt>
      <trkpt lat="45.81383" lon="-0.05909">
        <ele>116.6328125</ele>
        <time>2017-10-13T14:07:48Z</time>
      </trkpt>
      <trkpt lat="45.81347" lon="-0.05922">
        <ele>116.94140625</ele>
        <time>2017-10-13T14:07:57Z</time>
      </trkpt>
      <trkpt lat="45.81313" lon="-0.05937">
        <ele>117.04296875</ele>
        <time>2017-10-13T14:08:06Z</time>
      </trkpt>
      <trkpt lat="45.8129" lon="-0.05949">
        <ele>117.32421875</ele>
        <time>2017-10-13T14:08:12Z</time>
      </trkpt>
      <trkpt lat="45.81249" lon="-0.05977">
        <ele>117.3046875</ele>
        <time>2017-10-13T14:08:22Z</time>
      </trkpt>
      <trkpt lat="45.81215" lon="-0.06001">
        <ele>117.19921875</ele>
        <time>2017-10-13T14:08:30Z</time>
      </trkpt>
      <trkpt lat="45.812" lon="-0.06011">
        <ele>117.31640625</ele>
        <time>2017-10-13T14:08:34Z</time>
      </trkpt>
      <trkpt lat="45.81196" lon="-0.06014">
        <ele>117.37890625</ele>
        <time>2017-10-13T14:08:35Z</time>
      </trkpt>
      <trkpt lat="45.81158" lon="-0.0603">
        <ele>118.6328125</ele>
        <time>2017-10-13T14:08:45Z</time>
      </trkpt>
      <trkpt lat="45.81111" lon="-0.06048">
        <ele>118.83203125</ele>
        <time>2017-10-13T14:08:57Z</time>
      </trkpt>
      <trkpt lat="45.81083" lon="-0.06059">
        <ele>119.33984375</ele>
        <time>2017-10-13T14:09:05Z</time>
      </trkpt>
      <trkpt lat="45.81058" lon="-0.06068">
        <ele>120.12890625</ele>
        <time>2017-10-13T14:09:13Z</time>
      </trkpt>
      <trkpt lat="45.81034" lon="-0.06076">
        <ele>121.4765625</ele>
        <time>2017-10-13T14:09:23Z</time>
      </trkpt>
      <trkpt lat="45.81017" lon="-0.06083">
        <ele>122.9296875</ele>
        <time>2017-10-13T14:09:32Z</time>
      </trkpt>
      <trkpt lat="45.80994" lon="-0.06091">
        <ele>124.90625</ele>
        <time>2017-10-13T14:09:43Z</time>
      </trkpt>
      <trkpt lat="45.80978" lon="-0.06096">
        <ele>126.3125</ele>
        <time>2017-10-13T14:09:50Z</time>
      </trkpt>
      <trkpt lat="45.80957" lon="-0.06103">
        <ele>128.50390625</ele>
        <time>2017-10-13T14:10:00Z</time>
      </trkpt>
      <trkpt lat="45.80939" lon="-0.06109">
        <ele>130.44140625</ele>
        <time>2017-10-13T14:10:09Z</time>
      </trkpt>
      <trkpt lat="45.80922" lon="-0.06115">
        <ele>132.1953125</ele>
        <time>2017-10-13T14:10:18Z</time>
      </trkpt>
      <trkpt lat="45.80909" lon="-0.06119">
        <ele>133.44921875</ele>
        <time>2017-10-13T14:10:25Z</time>
      </trkpt>
      <trkpt lat="45.80893" lon="-0.06124">
        <ele>134.9140625</ele>
        <time>2017-10-13T14:10:33Z</time>
      </trkpt>
      <trkpt lat="45.80871" lon="-0.0613">
        <ele>136.828125</ele>
        <time>2017-10-13T14:10:43Z</time>
      </trkpt>
      <trkpt lat="45.80848" lon="-0.06136">
        <ele>138.57421875</ele>
        <time>2017-10-13T14:10:53Z</time>
      </trkpt>
      <trkpt lat="45.80827" lon="-0.06142">
        <ele>140.1015625</ele>
        <time>2017-10-13T14:11:02Z</time>
      </trkpt>
      <trkpt lat="45.80804" lon="-0.06147">
        <ele>142.19921875</ele>
        <time>2017-10-13T14:11:12Z</time>
      </trkpt>
      <trkpt lat="45.80788" lon="-0.06151">
        <ele>143.88671875</ele>
        <time>2017-10-13T14:11:19Z</time>
      </trkpt>
      <trkpt lat="45.8077" lon="-0.06158">
        <ele>146.12109375</ele>
        <time>2017-10-13T14:11:28Z</time>
      </trkpt>
      <trkpt lat="45.80756" lon="-0.06163">
        <ele>147.765625</ele>
        <time>2017-10-13T14:11:35Z</time>
      </trkpt>
      <trkpt lat="45.80735" lon="-0.06171">
        <ele>150.17578125</ele>
        <time>2017-10-13T14:11:45Z</time>
      </trkpt>
      <trkpt lat="45.80717" lon="-0.06178">
        <ele>152.12890625</ele>
        <time>2017-10-13T14:11:53Z</time>
      </trkpt>
      <trkpt lat="45.80698" lon="-0.06186">
        <ele>154.1171875</ele>
        <time>2017-10-13T14:12:00Z</time>
      </trkpt>
      <trkpt lat="45.80669" lon="-0.06197">
        <ele>156.5859375</ele>
        <time>2017-10-13T14:12:10Z</time>
      </trkpt>
      <trkpt lat="45.80636" lon="-0.06208">
        <ele>158.1796875</ele>
        <time>2017-10-13T14:12:21Z</time>
      </trkpt>
      <trkpt lat="45.80608" lon="-0.06217">
        <ele>158.80859375</ele>
        <time>2017-10-13T14:12:30Z</time>
      </trkpt>
      <trkpt lat="45.80574" lon="-0.06215">
        <ele>158.5703125</ele>
        <time>2017-10-13T14:12:39Z</time>
      </trkpt>
      <trkpt lat="45.80558" lon="-0.06212">
        <ele>158.28125</ele>
        <time>2017-10-13T14:12:43Z</time>
      </trkpt>
      <trkpt lat="45.80554" lon="-0.0621">
        <ele>158.2109375</ele>
        <time>2017-10-13T14:12:44Z</time>
      </trkpt>
      <trkpt lat="45.80551" lon="-0.06207">
        <ele>158.16015625</ele>
        <time>2017-10-13T14:12:45Z</time>
      </trkpt>
      <trkpt lat="45.8055" lon="-0.06201">
        <ele>158.12890625</ele>
        <time>2017-10-13T14:12:46Z</time>
      </trkpt>
      <trkpt lat="45.8055" lon="-0.06196">
        <ele>158.1328125</ele>
        <time>2017-10-13T14:12:47Z</time>
      </trkpt>
      <trkpt lat="45.80551" lon="-0.06191">
        <ele>158.15234375</ele>
        <time>2017-10-13T14:12:48Z</time>
      </trkpt>
      <trkpt lat="45.80553" lon="-0.06186">
        <ele>158.18359375</ele>
        <time>2017-10-13T14:12:49Z</time>
      </trkpt>
      <trkpt lat="45.80555" lon="-0.06182">
        <ele>158.22265625</ele>
        <time>2017-10-13T14:12:50Z</time>
      </trkpt>
      <trkpt lat="45.80557" lon="-0.06177">
        <ele>158.265625</ele>
        <time>2017-10-13T14:12:51Z</time>
      </trkpt>
      <trkpt lat="45.80572" lon="-0.06154">
        <ele>158.2890625</ele>
        <time>2017-10-13T14:12:57Z</time>
      </trkpt>
      <trkpt lat="45.80594" lon="-0.06125">
        <ele>157.609375</ele>
        <time>2017-10-13T14:13:05Z</time>
      </trkpt>
      <trkpt lat="45.80616" lon="-0.06095">
        <ele>156.20703125</ele>
        <time>2017-10-13T14:13:12Z</time>
      </trkpt>
      <trkpt lat="45.80639" lon="-0.0606">
        <ele>154.265625</ele>
        <time>2017-10-13T14:13:19Z</time>
      </trkpt>
      <trkpt lat="45.80661" lon="-0.06023">
        <ele>151.5078125</ele>
        <time>2017-10-13T14:13:26Z</time>
      </trkpt>
      <trkpt lat="45.80667" lon="-0.06011">
        <ele>150.48046875</ele>
        <time>2017-10-13T14:13:28Z</time>
      </trkpt>
      <trkpt lat="45.8067" lon="-0.06006">
        <ele>150.015625</ele>
        <time>2017-10-13T14:13:29Z</time>
      </trkpt>
      <trkpt lat="45.80697" lon="-0.05956">
        <ele>147.43359375</ele>
        <time>2017-10-13T14:13:37Z</time>
      </trkpt>
      <trkpt lat="45.80711" lon="-0.05911">
        <ele>146.87890625</ele>
        <time>2017-10-13T14:13:44Z</time>
      </trkpt>
      <trkpt lat="45.80723" lon="-0.05871">
        <ele>146.97265625</ele>
        <time>2017-10-13T14:13:50Z</time>
      </trkpt>
      <trkpt lat="45.80744" lon="-0.05839">
        <ele>146.5390625</ele>
        <time>2017-10-13T14:13:56Z</time>
      </trkpt>
      <trkpt lat="45.80781" lon="-0.05796">
        <ele>146.9375</ele>
        <time>2017-10-13T14:14:05Z</time>
      </trkpt>
      <trkpt lat="45.808" lon="-0.05773">
        <ele>148.19140625</ele>
        <time>2017-10-13T14:14:10Z</time>
      </trkpt>
      <trkpt lat="45.80826" lon="-0.05749">
        <ele>148.7890625</ele>
        <time>2017-10-13T14:14:16Z</time>
      </trkpt>
      <trkpt lat="45.80852" lon="-0.05733">
        <ele>149.5625</ele>
        <time>2017-10-13T14:14:22Z</time>
      </trkpt>
      <trkpt lat="45.80885" lon="-0.05709">
        <ele>150.31640625</ele>
        <time>2017-10-13T14:14:30Z</time>
      </trkpt>
      <trkpt lat="45.8091" lon="-0.05687">
        <ele>150.796875</ele>
        <time>2017-10-13T14:14:37Z</time>
      </trkpt>
      <trkpt lat="45.80937" lon="-0.05666">
        <ele>150.64453125</ele>
        <time>2017-10-13T14:14:44Z</time>
      </trkpt>
      <trkpt lat="45.80957" lon="-0.05647">
        <ele>149.6015625</ele>
        <time>2017-10-13T14:14:50Z</time>
      </trkpt>
      <trkpt lat="45.80977" lon="-0.0563">
        <ele>148.5390625</ele>
        <time>2017-10-13T14:14:55Z</time>
      </trkpt>
      <trkpt lat="45.80995" lon="-0.05612">
        <ele>147.40234375</ele>
        <time>2017-10-13T14:14:59Z</time>
      </trkpt>
      <trkpt lat="45.81004" lon="-0.05603">
        <ele>146.796875</ele>
        <time>2017-10-13T14:15:01Z</time>
      </trkpt>
      <trkpt lat="45.81032" lon="-0.05573">
        <ele>145.2578125</ele>
        <time>2017-10-13T14:15:06Z</time>
      </trkpt>
      <trkpt lat="45.81062" lon="-0.05529">
        <ele>143.7109375</ele>
        <time>2017-10-13T14:15:12Z</time>
      </trkpt>
      <trkpt lat="45.811" lon="-0.05488">
        <ele>142.08984375</ele>
        <time>2017-10-13T14:15:19Z</time>
      </trkpt>
      <trkpt lat="45.81139" lon="-0.05446">
        <ele>141.4296875</ele>
        <time>2017-10-13T14:15:27Z</time>
      </trkpt>
      <trkpt lat="45.81186" lon="-0.05395">
        <ele>139.22265625</ele>
        <time>2017-10-13T14:15:37Z</time>
      </trkpt>
      <trkpt lat="45.8121" lon="-0.05364">
        <ele>137.49609375</ele>
        <time>2017-10-13T14:15:43Z</time>
      </trkpt>
      <trkpt lat="45.81214" lon="-0.05358">
        <ele>137.0859375</ele>
        <time>2017-10-13T14:15:44Z</time>
      </trkpt>
      <trkpt lat="45.81218" lon="-0.05352">
        <ele>136.66796875</ele>
        <time>2017-10-13T14:15:45Z</time>
      </trkpt>
      <trkpt lat="45.81222" lon="-0.05346">
        <ele>136.3046875</ele>
        <time>2017-10-13T14:15:46Z</time>
      </trkpt>
      <trkpt lat="45.81226" lon="-0.0534">
        <ele>135.91796875</ele>
        <time>2017-10-13T14:15:47Z</time>
      </trkpt>
      <trkpt lat="45.81234" lon="-0.05328">
        <ele>135.1328125</ele>
        <time>2017-10-13T14:15:49Z</time>
      </trkpt>
      <trkpt lat="45.81239" lon="-0.05321">
        <ele>134.76953125</ele>
        <time>2017-10-13T14:15:50Z</time>
      </trkpt>
      <trkpt lat="45.81265" lon="-0.05271">
        <ele>132.96484375</ele>
        <time>2017-10-13T14:15:57Z</time>
      </trkpt>
      <trkpt lat="45.81269" lon="-0.0526">
        <ele>132.85546875</ele>
        <time>2017-10-13T14:15:59Z</time>
      </trkpt>
      <trkpt lat="45.81268" lon="-0.05255">
        <ele>132.89453125</ele>
        <time>2017-10-13T14:16:00Z</time>
      </trkpt>
      <trkpt lat="45.81266" lon="-0.05253">
        <ele>132.9609375</ele>
        <time>2017-10-13T14:16:01Z</time>
      </trkpt>
      <trkpt lat="45.81265" lon="-0.05252">
        <ele>132.98828125</ele>
        <time>2017-10-13T14:16:02Z</time>
      </trkpt>
      <trkpt lat="45.81262" lon="-0.05252">
        <ele>133.08203125</ele>
        <time>2017-10-13T14:16:03Z</time>
      </trkpt>
      <trkpt lat="45.81259" lon="-0.05253">
        <ele>133.19921875</ele>
        <time>2017-10-13T14:16:04Z</time>
      </trkpt>
      <trkpt lat="45.81256" lon="-0.05253">
        <ele>133.3203125</ele>
        <time>2017-10-13T14:16:05Z</time>
      </trkpt>
      <trkpt lat="45.81227" lon="-0.05257">
        <ele>134.58984375</ele>
        <time>2017-10-13T14:16:14Z</time>
      </trkpt>
      <trkpt lat="45.8121" lon="-0.05261">
        <ele>135.4375</ele>
        <time>2017-10-13T14:16:19Z</time>
      </trkpt>
      <trkpt lat="45.81175" lon="-0.05268">
        <ele>136.97265625</ele>
        <time>2017-10-13T14:16:21Z</time>
      </trkpt>
      <trkpt lat="45.81107" lon="-0.05279">
        <ele>139.04296875</ele>
      </trkpt>
      <trkpt lat="45.81056" lon="-0.05285">
        <ele>141.67578125</ele>
      </trkpt>
      <trkpt lat="45.81006" lon="-0.0529">
        <ele>144.30078125</ele>
      </trkpt>
      <trkpt lat="45.8095" lon="-0.05295">
        <ele>146.02734375</ele>
        <time>2017-10-13T14:17:51Z</time>
      </trkpt>
      <trkpt lat="45.80948" lon="-0.05295">
        <ele>146.0625</ele>
        <time>2017-10-13T14:17:52Z</time>
      </trkpt>
      <trkpt lat="45.80945" lon="-0.05295">
        <ele>146.12109375</ele>
        <time>2017-10-13T14:17:53Z</time>
      </trkpt>
      <trkpt lat="45.80942" lon="-0.05295">
        <ele>146.18359375</ele>
        <time>2017-10-13T14:17:54Z</time>
      </trkpt>
      <trkpt lat="45.80917" lon="-0.05296">
        <ele>146.13671875</ele>
        <time>2017-10-13T14:18:02Z</time>
      </trkpt>
      <trkpt lat="45.80881" lon="-0.05299">
        <ele>145.546875</ele>
        <time>2017-10-13T14:18:11Z</time>
      </trkpt>
      <trkpt lat="45.80842" lon="-0.05302">
        <ele>143.96875</ele>
        <time>2017-10-13T14:18:21Z</time>
      </trkpt>
      <trkpt lat="45.8082" lon="-0.05301">
        <ele>142.9609375</ele>
        <time>2017-10-13T14:18:26Z</time>
      </trkpt>
      <trkpt lat="45.80776" lon="-0.05288">
        <ele>142.46875</ele>
        <time>2017-10-13T14:18:36Z</time>
      </trkpt>
      <trkpt lat="45.80733" lon="-0.05266">
        <ele>142.97265625</ele>
        <time>2017-10-13T14:18:46Z</time>
      </trkpt>
      <trkpt lat="45.807" lon="-0.05249">
        <ele>143.93359375</ele>
        <time>2017-10-13T14:18:54Z</time>
      </trkpt>
      <trkpt lat="45.80669" lon="-0.05235">
        <ele>144.94921875</ele>
        <time>2017-10-13T14:19:00Z</time>
      </trkpt>
      <trkpt lat="45.80663" lon="-0.05232">
        <ele>145.109375</ele>
        <time>2017-12-05T13:15:50Z</time>
      </trkpt>
      <trkpt lat="45.80652" lon="-0.05228">
        <ele>145.375</ele>
        <time>2017-12-05T13:15:51Z</time>
      </trkpt>
      <trkpt lat="45.8064" lon="-0.05221">
        <ele>145.796875</ele>
        <time>2017-12-05T13:15:57Z</time>
      </trkpt>
      <trkpt lat="45.80606" lon="-0.05202">
        <ele>146.92578125</ele>
        <time>2017-12-05T13:16:06Z</time>
      </trkpt>
      <trkpt lat="45.80576" lon="-0.0518">
        <ele>147.75</ele>
        <time>2017-12-05T13:16:15Z</time>
      </trkpt>
      <trkpt lat="45.80554" lon="-0.05154">
        <ele>148.32421875</ele>
        <time>2017-12-05T13:16:23Z</time>
      </trkpt>
      <trkpt lat="45.80548" lon="-0.05146">
        <ele>148.68359375</ele>
      </trkpt>
      <trkpt lat="45.8054" lon="-0.05151">
        <ele>149.15234375</ele>
        <time>2017-12-05T13:16:34Z</time>
      </trkpt>
      <trkpt lat="45.80531" lon="-0.05136">
        <ele>149.63671875</ele>
        <time>2017-12-05T13:16:36Z</time>
      </trkpt>
      <trkpt lat="45.80523" lon="-0.05118">
        <ele>150.07421875</ele>
        <time>2017-12-05T13:16:37Z</time>
      </trkpt>
      <trkpt lat="45.80515" lon="-0.05104">
        <ele>150.4765625</ele>
        <time>2017-12-05T13:16:44Z</time>
      </trkpt>
      <trkpt lat="45.80506" lon="-0.05087">
        <ele>150.87109375</ele>
        <time>2017-12-05T13:16:52Z</time>
      </trkpt>
      <trkpt lat="45.80498" lon="-0.05064">
        <ele>151.22265625</ele>
        <time>2017-12-05T13:16:59Z</time>
      </trkpt>
      <trkpt lat="45.80488" lon="-0.05044">
        <ele>151.890625</ele>
        <time>2017-12-05T13:17:06Z</time>
      </trkpt>
      <trkpt lat="45.80479" lon="-0.05022">
        <ele>152.453125</ele>
        <time>2017-12-05T13:17:13Z</time>
      </trkpt>
      <trkpt lat="45.80468" lon="-0.05008">
        <ele>153.03515625</ele>
        <time>2017-12-05T13:17:19Z</time>
      </trkpt>
      <trkpt lat="45.80449" lon="-0.04986">
        <ele>153.9921875</ele>
        <time>2017-12-05T13:17:26Z</time>
      </trkpt>
      <trkpt lat="45.80428" lon="-0.04961">
        <ele>155.171875</ele>
        <time>2017-12-05T13:17:34Z</time>
      </trkpt>
      <trkpt lat="45.80411" lon="-0.04942">
        <ele>156.09375</ele>
        <time>2017-12-05T13:17:41Z</time>
      </trkpt>
      <trkpt lat="45.80402" lon="-0.04929">
        <ele>156.23046875</ele>
        <time>2017-12-05T13:17:47Z</time>
      </trkpt>
      <trkpt lat="45.80387" lon="-0.04906">
        <ele>156.6171875</ele>
        <time>2017-12-05T13:17:54Z</time>
      </trkpt>
      <trkpt lat="45.80381" lon="-0.04886">
        <ele>156.63671875</ele>
        <time>2017-12-05T13:18:01Z</time>
      </trkpt>
      <trkpt lat="45.8037" lon="-0.04859">
        <ele>156.98046875</ele>
        <time>2017-12-05T13:18:09Z</time>
      </trkpt>
      <trkpt lat="45.80361" lon="-0.04838">
        <ele>157.453125</ele>
        <time>2017-12-05T13:18:16Z</time>
      </trkpt>
      <trkpt lat="45.80351" lon="-0.04806">
        <ele>157.78125</ele>
        <time>2017-12-05T13:18:23Z</time>
      </trkpt>
      <trkpt lat="45.80339" lon="-0.04768">
        <ele>158.58984375</ele>
        <time>2017-12-05T13:18:31Z</time>
      </trkpt>
      <trkpt lat="45.80332" lon="-0.04741">
        <ele>159.0546875</ele>
        <time>2017-12-05T13:18:37Z</time>
      </trkpt>
      <trkpt lat="45.80326" lon="-0.04716">
        <ele>159.36328125</ele>
        <time>2017-12-05T13:18:42Z</time>
      </trkpt>
      <trkpt lat="45.80314" lon="-0.0468">
        <ele>159.57421875</ele>
        <time>2017-12-05T13:18:50Z</time>
      </trkpt>
      <trkpt lat="45.80301" lon="-0.04642">
        <ele>160.4609375</ele>
        <time>2017-12-05T13:18:59Z</time>
      </trkpt>
      <trkpt lat="45.80291" lon="-0.04616">
        <ele>161.4765625</ele>
        <time>2017-12-05T13:19:07Z</time>
      </trkpt>
      <trkpt lat="45.80282" lon="-0.046">
        <ele>162.0546875</ele>
      </trkpt>
      <trkpt lat="45.80292" lon="-0.04589">
        <ele>161.51171875</ele>
      </trkpt>
      <trkpt lat="45.80286" lon="-0.04571">
        <ele>161.8828125</ele>
        <time>2017-12-05T13:19:17Z</time>
      </trkpt>
      <trkpt lat="45.80256" lon="-0.04522">
        <ele>162.53125</ele>
        <time>2017-12-05T13:19:28Z</time>
      </trkpt>
      <trkpt lat="45.80229" lon="-0.04485">
        <ele>162.5</ele>
        <time>2017-12-05T13:19:38Z</time>
      </trkpt>
      <trkpt lat="45.80212" lon="-0.04454">
        <ele>162.203125</ele>
        <time>2017-12-05T13:19:45Z</time>
      </trkpt>
      <trkpt lat="45.80206" lon="-0.04437">
        <ele>161.8515625</ele>
        <time>2017-12-05T13:19:48Z</time>
      </trkpt>
      <trkpt lat="45.80197" lon="-0.04415">
        <ele>161.29296875</ele>
        <time>2017-12-05T13:19:52Z</time>
      </trkpt>
      <trkpt lat="45.80194" lon="-0.04412">
        <ele>161.1796875</ele>
        <time>2017-12-05T13:19:53Z</time>
      </trkpt>
      <trkpt lat="45.8019" lon="-0.04411">
        <ele>161.08984375</ele>
        <time>2017-12-05T13:19:54Z</time>
      </trkpt>
      <trkpt lat="45.80186" lon="-0.04412">
        <ele>161.046875</ele>
        <time>2017-12-05T13:19:55Z</time>
      </trkpt>
      <trkpt lat="45.80183" lon="-0.04415">
        <ele>161.03515625</ele>
        <time>2017-12-05T13:19:56Z</time>
      </trkpt>
      <trkpt lat="45.80179" lon="-0.04418">
        <ele>161.03125</ele>
        <time>2017-12-05T13:19:57Z</time>
      </trkpt>
      <trkpt lat="45.8015" lon="-0.04437">
        <ele>160.83984375</ele>
        <time>2017-12-05T13:20:05Z</time>
      </trkpt>
      <trkpt lat="45.80146" lon="-0.04438">
        <ele>160.77734375</ele>
        <time>2017-12-05T13:20:06Z</time>
      </trkpt>
      <trkpt lat="45.80141" lon="-0.04437">
        <ele>160.671875</ele>
        <time>2017-12-05T13:20:07Z</time>
      </trkpt>
      <trkpt lat="45.80137" lon="-0.04434">
        <ele>160.51171875</ele>
        <time>2017-12-05T13:20:08Z</time>
      </trkpt>
      <trkpt lat="45.80131" lon="-0.04431">
        <ele>160.30859375</ele>
        <time>2017-12-05T13:20:09Z</time>
      </trkpt>
      <trkpt lat="45.80121" lon="-0.04423">
        <ele>159.8515625</ele>
        <time>2017-12-05T13:20:11Z</time>
      </trkpt>
      <trkpt lat="45.80115" lon="-0.04419">
        <ele>159.609375</ele>
        <time>2017-12-05T13:20:12Z</time>
      </trkpt>
      <trkpt lat="45.80109" lon="-0.04416">
        <ele>159.3671875</ele>
        <time>2017-12-05T13:20:13Z</time>
      </trkpt>
      <trkpt lat="45.80103" lon="-0.04414">
        <ele>159.1328125</ele>
        <time>2017-12-05T13:20:14Z</time>
      </trkpt>
      <trkpt lat="45.80098" lon="-0.04412">
        <ele>158.87890625</ele>
        <time>2017-12-05T13:20:15Z</time>
      </trkpt>
      <trkpt lat="45.80092" lon="-0.04411">
        <ele>158.46484375</ele>
        <time>2017-12-05T13:20:16Z</time>
      </trkpt>
      <trkpt lat="45.80085" lon="-0.0441">
        <ele>158.05078125</ele>
        <time>2017-12-05T13:20:17Z</time>
      </trkpt>
      <trkpt lat="45.80052" lon="-0.04402">
        <ele>155.8359375</ele>
        <time>2017-12-05T13:20:22Z</time>
      </trkpt>
      <trkpt lat="45.8003" lon="-0.04397">
        <ele>154.52734375</ele>
        <time>2017-12-05T13:20:25Z</time>
      </trkpt>
      <trkpt lat="45.80023" lon="-0.04396">
        <ele>154.109375</ele>
        <time>2017-12-05T13:20:26Z</time>
      </trkpt>
      <trkpt lat="45.79952" lon="-0.04394">
        <ele>150.2578125</ele>
        <time>2017-12-05T13:20:35Z</time>
      </trkpt>
      <trkpt lat="45.79935" lon="-0.04397">
        <ele>149.390625</ele>
        <time>2017-12-05T13:20:37Z</time>
      </trkpt>
      <trkpt lat="45.79912" lon="-0.04405">
        <ele>147.6796875</ele>
        <time>2017-12-05T13:20:40Z</time>
      </trkpt>
      <trkpt lat="45.79906" lon="-0.04409">
        <ele>147.25390625</ele>
        <time>2017-12-05T13:20:41Z</time>
      </trkpt>
      <trkpt lat="45.79896" lon="-0.04415">
        <ele>146.60546875</ele>
        <time>2017-12-05T13:20:43Z</time>
      </trkpt>
      <trkpt lat="45.79892" lon="-0.04415">
        <ele>146.2578125</ele>
        <time>2017-12-05T13:20:44Z</time>
      </trkpt>
      <trkpt lat="45.79888" lon="-0.04411">
        <ele>145.875</ele>
        <time>2017-12-05T13:20:45Z</time>
      </trkpt>
      <trkpt lat="45.79886" lon="-0.04406">
        <ele>145.484375</ele>
        <time>2017-12-05T13:20:46Z</time>
      </trkpt>
      <trkpt lat="45.79884" lon="-0.04399">
        <ele>145.12890625</ele>
        <time>2017-12-05T13:20:47Z</time>
      </trkpt>
      <trkpt lat="45.79883" lon="-0.04392">
        <ele>144.81640625</ele>
        <time>2017-12-05T13:20:48Z</time>
      </trkpt>
      <trkpt lat="45.79882" lon="-0.04385">
        <ele>144.51171875</ele>
        <time>2017-12-05T13:20:49Z</time>
      </trkpt>
      <trkpt lat="45.79881" lon="-0.04377">
        <ele>144.25390625</ele>
        <time>2017-12-05T13:20:50Z</time>
      </trkpt>
      <trkpt lat="45.79871" lon="-0.04312">
        <ele>142.09375</ele>
        <time>2017-12-05T13:20:58Z</time>
      </trkpt>
      <trkpt lat="45.7986" lon="-0.04241">
        <ele>139.078125</ele>
        <time>2017-12-05T13:21:07Z</time>
      </trkpt>
      <trkpt lat="45.79855" lon="-0.04214">
        <ele>138.13671875</ele>
        <time>2017-12-05T13:21:11Z</time>
      </trkpt>
      <trkpt lat="45.79853" lon="-0.04209">
        <ele>137.9453125</ele>
        <time>2017-12-05T13:21:12Z</time>
      </trkpt>
      <trkpt lat="45.79849" lon="-0.04206">
        <ele>137.76171875</ele>
        <time>2017-12-05T13:21:13Z</time>
      </trkpt>
      <trkpt lat="45.79845" lon="-0.04205">
        <ele>137.6015625</ele>
        <time>2017-12-05T13:21:14Z</time>
      </trkpt>
      <trkpt lat="45.7984" lon="-0.04206">
        <ele>137.45703125</ele>
        <time>2017-12-05T13:21:15Z</time>
      </trkpt>
      <trkpt lat="45.79836" lon="-0.04207">
        <ele>137.3203125</ele>
        <time>2017-12-05T13:21:16Z</time>
      </trkpt>
      <trkpt lat="45.79799" lon="-0.04216">
        <ele>136.546875</ele>
        <time>2017-12-05T13:21:24Z</time>
      </trkpt>
      <trkpt lat="45.79758" lon="-0.04227">
        <ele>136.51953125</ele>
        <time>2017-12-05T13:21:33Z</time>
      </trkpt>
      <trkpt lat="45.79739" lon="-0.0423">
        <ele>137.31640625</ele>
        <time>2017-12-05T13:21:38Z</time>
      </trkpt>
      <trkpt lat="45.79718" lon="-0.04221">
        <ele>137.7421875</ele>
        <time>2017-12-05T13:21:44Z</time>
      </trkpt>
      <trkpt lat="45.79717" lon="-0.04217">
        <ele>137.6953125</ele>
        <time>2017-12-05T13:21:45Z</time>
      </trkpt>
      <trkpt lat="45.79712" lon="-0.04191">
        <ele>137.390625</ele>
        <time>2017-12-05T13:21:50Z</time>
      </trkpt>
      <trkpt lat="45.79712" lon="-0.04185">
        <ele>137.27734375</ele>
        <time>2017-12-05T13:21:51Z</time>
      </trkpt>
      <trkpt lat="45.79713" lon="-0.04172">
        <ele>137.01171875</ele>
        <time>2017-12-05T13:21:53Z</time>
      </trkpt>
      <trkpt lat="45.79714" lon="-0.0415">
        <ele>136.58203125</ele>
        <time>2017-12-05T13:21:56Z</time>
      </trkpt>
      <trkpt lat="45.79715" lon="-0.04093">
        <ele>135.51953125</ele>
        <time>2017-12-05T13:22:04Z</time>
      </trkpt>
      <trkpt lat="45.79715" lon="-0.04085">
        <ele>135.37109375</ele>
        <time>2017-12-05T13:22:05Z</time>
      </trkpt>
      <trkpt lat="45.79716" lon="-0.04078">
        <ele>135.23828125</ele>
        <time>2017-12-05T13:22:06Z</time>
      </trkpt>
      <trkpt lat="45.79714" lon="-0.04021">
        <ele>134.84375</ele>
        <time>2017-12-05T13:22:14Z</time>
      </trkpt>
      <trkpt lat="45.79711" lon="-0.03983">
        <ele>134.95703125</ele>
        <time>2017-12-05T13:22:19Z</time>
      </trkpt>
      <trkpt lat="45.79709" lon="-0.03976">
        <ele>135.0390625</ele>
        <time>2017-12-05T13:22:20Z</time>
      </trkpt>
      <trkpt lat="45.79707" lon="-0.0397">
        <ele>135.19921875</ele>
        <time>2017-12-05T13:22:21Z</time>
      </trkpt>
      <trkpt lat="45.79704" lon="-0.03964">
        <ele>135.37109375</ele>
        <time>2017-12-05T13:22:22Z</time>
      </trkpt>
      <trkpt lat="45.797" lon="-0.03958">
        <ele>135.546875</ele>
        <time>2017-12-05T13:22:23Z</time>
      </trkpt>
      <trkpt lat="45.79697" lon="-0.03953">
        <ele>135.71484375</ele>
        <time>2017-12-05T13:22:24Z</time>
      </trkpt>
      <trkpt lat="45.79685" lon="-0.03925">
        <ele>136.5234375</ele>
        <time>2017-12-05T13:22:29Z</time>
      </trkpt>
      <trkpt lat="45.79683" lon="-0.03919">
        <ele>136.66796875</ele>
        <time>2017-12-05T13:22:30Z</time>
      </trkpt>
      <trkpt lat="45.79663" lon="-0.03871">
        <ele>137.67578125</ele>
        <time>2017-12-05T13:22:39Z</time>
      </trkpt>
      <trkpt lat="45.79657" lon="-0.03858">
        <ele>137.91015625</ele>
        <time>2017-12-05T13:22:42Z</time>
      </trkpt>
      <trkpt lat="45.79654" lon="-0.03856">
        <ele>138.02734375</ele>
        <time>2017-12-05T13:22:43Z</time>
      </trkpt>
      <trkpt lat="45.7965" lon="-0.03857">
        <ele>138.1640625</ele>
        <time>2017-12-05T13:22:44Z</time>
      </trkpt>
      <trkpt lat="45.79648" lon="-0.03859">
        <ele>138.28515625</ele>
        <time>2017-12-05T13:22:45Z</time>
      </trkpt>
      <trkpt lat="45.79646" lon="-0.03863">
        <ele>138.3984375</ele>
        <time>2017-12-05T13:22:46Z</time>
      </trkpt>
      <trkpt lat="45.79623" lon="-0.039">
        <ele>139.84375</ele>
        <time>2017-12-05T13:22:55Z</time>
      </trkpt>
      <trkpt lat="45.796" lon="-0.03939">
        <ele>141.84765625</ele>
        <time>2017-12-05T13:23:04Z</time>
      </trkpt>
      <trkpt lat="45.79585" lon="-0.03963">
        <ele>142.94140625</ele>
        <time>2017-12-05T13:23:10Z</time>
      </trkpt>
      <trkpt lat="45.79576" lon="-0.03985">
        <ele>143.90234375</ele>
        <time>2017-12-05T13:23:16Z</time>
      </trkpt>
      <trkpt lat="45.79574" lon="-0.03985">
        <ele>144.0234375</ele>
        <time>2017-12-05T13:23:17Z</time>
      </trkpt>
      <trkpt lat="45.79571" lon="-0.03983">
        <ele>144.078125</ele>
        <time>2017-12-05T13:23:18Z</time>
      </trkpt>
      <trkpt lat="45.79569" lon="-0.03979">
        <ele>144.0703125</ele>
        <time>2017-12-05T13:23:19Z</time>
      </trkpt>
      <trkpt lat="45.79568" lon="-0.03975">
        <ele>144</ele>
        <time>2017-12-05T13:23:20Z</time>
      </trkpt>
      <trkpt lat="45.79568" lon="-0.0397">
        <ele>143.90234375</ele>
        <time>2017-12-05T13:23:21Z</time>
      </trkpt>
      <trkpt lat="45.79567" lon="-0.03966">
        <ele>143.80078125</ele>
        <time>2017-12-05T13:23:22Z</time>
      </trkpt>
      <trkpt lat="45.79565" lon="-0.03938">
        <ele>143.08984375</ele>
        <time>2017-12-05T13:23:27Z</time>
      </trkpt>
      <trkpt lat="45.79565" lon="-0.03933">
        <ele>142.94921875</ele>
        <time>2017-12-05T13:23:28Z</time>
      </trkpt>
      <trkpt lat="45.79565" lon="-0.03926">
        <ele>142.75390625</ele>
        <time>2017-12-05T13:23:29Z</time>
      </trkpt>
      <trkpt lat="45.79561" lon="-0.03898">
        <ele>142.00390625</ele>
        <time>2017-12-05T13:23:33Z</time>
      </trkpt>
      <trkpt lat="45.79553" lon="-0.03837">
        <ele>140.921875</ele>
        <time>2017-12-05T13:23:41Z</time>
      </trkpt>
      <trkpt lat="45.79548" lon="-0.03805">
        <ele>139.96484375</ele>
        <time>2017-12-05T13:23:45Z</time>
      </trkpt>
      <trkpt lat="45.79546" lon="-0.03797">
        <ele>139.734375</ele>
        <time>2017-12-05T13:23:46Z</time>
      </trkpt>
      <trkpt lat="45.79532" lon="-0.03766">
        <ele>138.15625</ele>
        <time>2017-12-05T13:23:51Z</time>
      </trkpt>
      <trkpt lat="45.79529" lon="-0.03763">
        <ele>137.92578125</ele>
        <time>2017-12-05T13:23:52Z</time>
      </trkpt>
      <trkpt lat="45.79524" lon="-0.03762">
        <ele>137.76953125</ele>
        <time>2017-12-05T13:23:53Z</time>
      </trkpt>
      <trkpt lat="45.7952" lon="-0.03763">
        <ele>137.69140625</ele>
        <time>2017-12-05T13:23:54Z</time>
      </trkpt>
      <trkpt lat="45.79516" lon="-0.03765">
        <ele>137.64453125</ele>
        <time>2017-12-05T13:23:55Z</time>
      </trkpt>
      <trkpt lat="45.79511" lon="-0.03768">
        <ele>137.59765625</ele>
        <time>2017-12-05T13:23:56Z</time>
      </trkpt>
      <trkpt lat="45.79466" lon="-0.03789">
        <ele>136.8828125</ele>
        <time>2017-12-05T13:24:05Z</time>
      </trkpt>
      <trkpt lat="45.79422" lon="-0.03811">
        <ele>135.94140625</ele>
        <time>2017-12-05T13:24:13Z</time>
      </trkpt>
      <trkpt lat="45.79381" lon="-0.03831">
        <ele>135.14453125</ele>
        <time>2017-12-05T13:24:21Z</time>
      </trkpt>
      <trkpt lat="45.79341" lon="-0.03849">
        <ele>134.3671875</ele>
        <time>2017-12-05T13:24:29Z</time>
      </trkpt>
      <trkpt lat="45.79337" lon="-0.03849">
        <ele>134.203125</ele>
        <time>2017-12-05T13:24:30Z</time>
      </trkpt>
      <trkpt lat="45.79332" lon="-0.03847">
        <ele>133.96484375</ele>
        <time>2017-12-05T13:24:31Z</time>
      </trkpt>
      <trkpt lat="45.79329" lon="-0.03843">
        <ele>133.6953125</ele>
        <time>2017-12-05T13:24:32Z</time>
      </trkpt>
      <trkpt lat="45.79327" lon="-0.03837">
        <ele>133.42578125</ele>
        <time>2017-12-05T13:24:33Z</time>
      </trkpt>
      <trkpt lat="45.79326" lon="-0.03831">
        <ele>133.15625</ele>
        <time>2017-12-05T13:24:34Z</time>
      </trkpt>
      <trkpt lat="45.79325" lon="-0.03824">
        <ele>132.87890625</ele>
        <time>2017-12-05T13:24:35Z</time>
      </trkpt>
      <trkpt lat="45.79324" lon="-0.03817">
        <ele>132.6015625</ele>
        <time>2017-12-05T13:24:36Z</time>
      </trkpt>
      <trkpt lat="45.79316" lon="-0.03756">
        <ele>130.1328125</ele>
        <time>2017-12-05T13:24:44Z</time>
      </trkpt>
      <trkpt lat="45.79313" lon="-0.0375">
        <ele>129.80859375</ele>
        <time>2017-12-05T13:24:45Z</time>
      </trkpt>
      <trkpt lat="45.79309" lon="-0.03747">
        <ele>129.52734375</ele>
        <time>2017-12-05T13:24:46Z</time>
      </trkpt>
      <trkpt lat="45.79304" lon="-0.03746">
        <ele>129.34375</ele>
        <time>2017-12-05T13:24:47Z</time>
      </trkpt>
      <trkpt lat="45.79299" lon="-0.03748">
        <ele>129.22265625</ele>
        <time>2017-12-05T13:24:48Z</time>
      </trkpt>
      <trkpt lat="45.79294" lon="-0.0375">
        <ele>129.125</ele>
        <time>2017-12-05T13:24:49Z</time>
      </trkpt>
      <trkpt lat="45.79267" lon="-0.03763">
        <ele>128.6015625</ele>
        <time>2017-12-05T13:24:54Z</time>
      </trkpt>
      <trkpt lat="45.79261" lon="-0.03764">
        <ele>128.5703125</ele>
        <time>2017-12-05T13:24:55Z</time>
      </trkpt>
      <trkpt lat="45.79255" lon="-0.03764">
        <ele>128.5703125</ele>
        <time>2017-12-05T13:24:56Z</time>
      </trkpt>
      <trkpt lat="45.79239" lon="-0.03761">
        <ele>128.47265625</ele>
        <time>2017-12-05T13:24:59Z</time>
      </trkpt>
      <trkpt lat="45.79234" lon="-0.03758">
        <ele>128.3671875</ele>
        <time>2017-12-05T13:25:00Z</time>
      </trkpt>
      <trkpt lat="45.7923" lon="-0.03754">
        <ele>128.23046875</ele>
        <time>2017-12-05T13:25:01Z</time>
      </trkpt>
      <trkpt lat="45.79226" lon="-0.0375">
        <ele>128.078125</ele>
        <time>2017-12-05T13:25:02Z</time>
      </trkpt>
      <trkpt lat="45.79222" lon="-0.03746">
        <ele>127.9296875</ele>
        <time>2017-12-05T13:25:03Z</time>
      </trkpt>
      <trkpt lat="45.79215" lon="-0.03737">
        <ele>127.6015625</ele>
        <time>2017-12-05T13:25:05Z</time>
      </trkpt>
      <trkpt lat="45.79209" lon="-0.03726">
        <ele>127.27734375</ele>
        <time>2017-12-05T13:25:07Z</time>
      </trkpt>
      <trkpt lat="45.7919" lon="-0.03692">
        <ele>127.75390625</ele>
        <time>2017-12-05T13:25:13Z</time>
      </trkpt>
      <trkpt lat="45.79181" lon="-0.0368">
        <ele>128.22265625</ele>
        <time>2017-12-05T13:25:16Z</time>
      </trkpt>
      <trkpt lat="45.79179" lon="-0.03675">
        <ele>128.34765625</ele>
        <time>2017-12-05T13:25:17Z</time>
      </trkpt>
      <trkpt lat="45.79159" lon="-0.0363">
        <ele>129.63671875</ele>
        <time>2017-12-05T13:25:25Z</time>
      </trkpt>
      <trkpt lat="45.79156" lon="-0.03626">
        <ele>129.86328125</ele>
        <time>2017-12-05T13:25:26Z</time>
      </trkpt>
      <trkpt lat="45.79154" lon="-0.03621">
        <ele>130.015625</ele>
        <time>2017-12-05T13:25:27Z</time>
      </trkpt>
      <trkpt lat="45.79152" lon="-0.03615">
        <ele>130.05859375</ele>
        <time>2017-12-05T13:25:28Z</time>
      </trkpt>
      <trkpt lat="45.7915" lon="-0.03609">
        <ele>130.07421875</ele>
        <time>2017-12-05T13:25:29Z</time>
      </trkpt>
      <trkpt lat="45.79149" lon="-0.03603">
        <ele>129.78125</ele>
        <time>2017-12-05T13:25:30Z</time>
      </trkpt>
      <trkpt lat="45.79146" lon="-0.03572">
        <ele>128.24609375</ele>
        <time>2017-12-05T13:25:35Z</time>
      </trkpt>
      <trkpt lat="45.79146" lon="-0.03566">
        <ele>127.92578125</ele>
        <time>2017-12-05T13:25:36Z</time>
      </trkpt>
      <trkpt lat="45.79146" lon="-0.03559">
        <ele>127.59375</ele>
        <time>2017-12-05T13:25:37Z</time>
      </trkpt>
      <trkpt lat="45.79145" lon="-0.03545">
        <ele>127.19140625</ele>
        <time>2017-12-05T13:25:39Z</time>
      </trkpt>
      <trkpt lat="45.79145" lon="-0.03538">
        <ele>127.07421875</ele>
        <time>2017-12-05T13:25:40Z</time>
      </trkpt>
      <trkpt lat="45.79144" lon="-0.03531">
        <ele>126.95703125</ele>
        <time>2017-12-05T13:25:41Z</time>
      </trkpt>
      <trkpt lat="45.79143" lon="-0.03482">
        <ele>125.7734375</ele>
        <time>2017-12-05T13:25:47Z</time>
      </trkpt>
      <trkpt lat="45.79145" lon="-0.03424">
        <ele>123.1796875</ele>
        <time>2017-12-05T13:25:54Z</time>
      </trkpt>
      <trkpt lat="45.79144" lon="-0.0341">
        <ele>122.42578125</ele>
        <time>2017-12-05T13:25:56Z</time>
      </trkpt>
      <trkpt lat="45.79143" lon="-0.03403">
        <ele>122.0703125</ele>
        <time>2017-12-05T13:25:57Z</time>
      </trkpt>
      <trkpt lat="45.7914" lon="-0.03396">
        <ele>121.75390625</ele>
        <time>2017-12-05T13:25:58Z</time>
      </trkpt>
      <trkpt lat="45.79137" lon="-0.03391">
        <ele>121.51953125</ele>
        <time>2017-12-05T13:25:59Z</time>
      </trkpt>
      <trkpt lat="45.79133" lon="-0.03387">
        <ele>121.3984375</ele>
        <time>2017-12-05T13:26:00Z</time>
      </trkpt>
      <trkpt lat="45.79129" lon="-0.03386">
        <ele>121.39453125</ele>
        <time>2017-12-05T13:26:01Z</time>
      </trkpt>
      <trkpt lat="45.79124" lon="-0.03385">
        <ele>121.4453125</ele>
        <time>2017-12-05T13:26:02Z</time>
      </trkpt>
      <trkpt lat="45.7912" lon="-0.03385">
        <ele>121.5234375</ele>
        <time>2017-12-05T13:26:03Z</time>
      </trkpt>
      <trkpt lat="45.79115" lon="-0.03385">
        <ele>121.59765625</ele>
        <time>2017-12-05T13:26:04Z</time>
      </trkpt>
      <trkpt lat="45.79107" lon="-0.03385">
        <ele>121.75390625</ele>
        <time>2017-12-05T13:26:06Z</time>
      </trkpt>
      <trkpt lat="45.79085" lon="-0.03383">
        <ele>122.046875</ele>
        <time>2017-12-05T13:26:12Z</time>
      </trkpt>
      <trkpt lat="45.79082" lon="-0.03379">
        <ele>121.85546875</ele>
        <time>2017-12-05T13:26:13Z</time>
      </trkpt>
      <trkpt lat="45.79081" lon="-0.03374">
        <ele>121.60546875</ele>
        <time>2017-12-05T13:26:14Z</time>
      </trkpt>
      <trkpt lat="45.79081" lon="-0.03369">
        <ele>121.34765625</ele>
        <time>2017-12-05T13:26:15Z</time>
      </trkpt>
      <trkpt lat="45.79081" lon="-0.03363">
        <ele>121.0625</ele>
        <time>2017-12-05T13:26:16Z</time>
      </trkpt>
      <trkpt lat="45.79078" lon="-0.03324">
        <ele>118.859375</ele>
        <time>2017-12-05T13:26:22Z</time>
      </trkpt>
      <trkpt lat="45.79077" lon="-0.03307">
        <ele>117.71875</ele>
        <time>2017-12-05T13:26:24Z</time>
      </trkpt>
      <trkpt lat="45.79076" lon="-0.03298">
        <ele>117.125</ele>
        <time>2017-12-05T13:26:25Z</time>
      </trkpt>
      <trkpt lat="45.79077" lon="-0.03281">
        <ele>115.93359375</ele>
        <time>2017-12-05T13:26:27Z</time>
      </trkpt>
      <trkpt lat="45.79081" lon="-0.03262">
        <ele>115.1953125</ele>
        <time>2017-12-05T13:26:29Z</time>
      </trkpt>
      <trkpt lat="45.79081" lon="-0.03226">
        <ele>113.89453125</ele>
        <time>2017-12-05T13:26:33Z</time>
      </trkpt>
      <trkpt lat="45.79071" lon="-0.03176">
        <ele>115.09375</ele>
        <time>2017-12-05T13:26:40Z</time>
      </trkpt>
      <trkpt lat="45.7907" lon="-0.03163">
        <ele>115.73828125</ele>
        <time>2017-12-05T13:26:43Z</time>
      </trkpt>
      <trkpt lat="45.79074" lon="-0.03146">
        <ele>117.30859375</ele>
        <time>2017-12-05T13:26:48Z</time>
      </trkpt>
      <trkpt lat="45.79074" lon="-0.0314">
        <ele>117.890625</ele>
        <time>2017-12-05T13:26:50Z</time>
      </trkpt>
      <trkpt lat="45.79069" lon="-0.03122">
        <ele>119.8046875</ele>
        <time>2017-12-05T13:26:56Z</time>
      </trkpt>
      <trkpt lat="45.79064" lon="-0.03109">
        <ele>121.33203125</ele>
        <time>2017-12-05T13:27:01Z</time>
      </trkpt>
      <trkpt lat="45.79059" lon="-0.03094">
        <ele>123.2734375</ele>
        <time>2017-12-05T13:27:08Z</time>
      </trkpt>
      <trkpt lat="45.79056" lon="-0.03084">
        <ele>124.49609375</ele>
        <time>2017-12-05T13:27:15Z</time>
      </trkpt>
      <trkpt lat="45.79055" lon="-0.03079">
        <ele>125.1328125</ele>
        <time>2017-12-05T13:27:18Z</time>
      </trkpt>
      <trkpt lat="45.79052" lon="-0.0306">
        <ele>127.33203125</ele>
        <time>2017-12-05T13:27:26Z</time>
      </trkpt>
      <trkpt lat="45.79049" lon="-0.03036">
        <ele>129.3515625</ele>
        <time>2017-12-05T13:27:27Z</time>
      </trkpt>
      <trkpt lat="45.79046" lon="-0.03011">
        <ele>131.16796875</ele>
        <time>2017-12-05T13:27:35Z</time>
      </trkpt>
      <trkpt lat="45.79046" lon="-0.02977">
        <ele>133.234375</ele>
        <time>2017-12-05T13:27:45Z</time>
      </trkpt>
      <trkpt lat="45.79045" lon="-0.02936">
        <ele>135.56640625</ele>
        <time>2017-12-05T13:27:54Z</time>
      </trkpt>
      <trkpt lat="45.79045" lon="-0.02915">
        <ele>137.0546875</ele>
        <time>2017-12-05T13:28:03Z</time>
      </trkpt>
      <trkpt lat="45.79043" lon="-0.02905">
        <ele>137.70703125</ele>
        <time>2017-12-05T13:28:12Z</time>
      </trkpt>
      <trkpt lat="45.79029" lon="-0.02869">
        <ele>139.12109375</ele>
        <time>2017-12-05T13:28:20Z</time>
      </trkpt>
      <trkpt lat="45.79015" lon="-0.02831">
        <ele>139.98828125</ele>
        <time>2017-12-05T13:28:26Z</time>
      </trkpt>
      <trkpt lat="45.79007" lon="-0.02813">
        <ele>140.03515625</ele>
        <time>2017-12-05T13:28:33Z</time>
      </trkpt>
      <trkpt lat="45.79" lon="-0.02792">
        <ele>140.1484375</ele>
        <time>2017-12-05T13:28:41Z</time>
      </trkpt>
      <trkpt lat="45.78996" lon="-0.02779">
        <ele>140.24609375</ele>
        <time>2017-12-05T13:28:51Z</time>
      </trkpt>
      <trkpt lat="45.78992" lon="-0.02754">
        <ele>139.76171875</ele>
        <time>2017-12-05T13:29:02Z</time>
      </trkpt>
      <trkpt lat="45.7899" lon="-0.02744">
        <ele>139.51171875</ele>
        <time>2017-12-05T13:29:10Z</time>
      </trkpt>
      <trkpt lat="45.78988" lon="-0.02718">
        <ele>138.88671875</ele>
        <time>2017-12-05T13:29:13Z</time>
      </trkpt>
      <trkpt lat="45.78986" lon="-0.02704">
        <ele>138.1875</ele>
        <time>2017-12-05T13:29:17Z</time>
      </trkpt>
      <trkpt lat="45.78983" lon="-0.02696">
        <ele>137.625</ele>
        <time>2017-12-05T13:29:22Z</time>
      </trkpt>
      <trkpt lat="45.78971" lon="-0.0267">
        <ele>135.10546875</ele>
        <time>2017-12-05T13:29:23Z</time>
      </trkpt>
      <trkpt lat="45.78965" lon="-0.02655">
        <ele>133.34765625</ele>
        <time>2017-12-05T13:29:28Z</time>
      </trkpt>
      <trkpt lat="45.78962" lon="-0.02649">
        <ele>132.609375</ele>
        <time>2017-12-05T13:29:29Z</time>
      </trkpt>
      <trkpt lat="45.7896" lon="-0.02648">
        <ele>132.19921875</ele>
        <time>2017-12-05T13:29:30Z</time>
      </trkpt>
      <trkpt lat="45.78959" lon="-0.0265">
        <ele>132.18359375</ele>
        <time>2017-12-05T13:29:31Z</time>
      </trkpt>
      <trkpt lat="45.78955" lon="-0.02653">
        <ele>132.05078125</ele>
        <time>2017-12-05T13:29:32Z</time>
      </trkpt>
      <trkpt lat="45.78953" lon="-0.02657">
        <ele>132.00390625</ele>
        <time>2017-12-05T13:29:33Z</time>
      </trkpt>
      <trkpt lat="45.78949" lon="-0.02663">
        <ele>131.8984375</ele>
        <time>2017-12-05T13:29:34Z</time>
      </trkpt>
      <trkpt lat="45.78947" lon="-0.0267">
        <ele>132.07421875</ele>
        <time>2017-12-05T13:29:35Z</time>
      </trkpt>
      <trkpt lat="45.78943" lon="-0.02678">
        <ele>132.2109375</ele>
        <time>2017-12-05T13:29:39Z</time>
      </trkpt>
      <trkpt lat="45.78934" lon="-0.02686">
        <ele>131.64453125</ele>
        <time>2017-12-05T13:29:40Z</time>
      </trkpt>
      <trkpt lat="45.78929" lon="-0.02687">
        <ele>131.23828125</ele>
        <time>2017-12-05T13:29:41Z</time>
      </trkpt>
      <trkpt lat="45.78918" lon="-0.02691">
        <ele>130.1796875</ele>
        <time>2017-12-05T13:29:43Z</time>
      </trkpt>
      <trkpt lat="45.78911" lon="-0.02692">
        <ele>129.4609375</ele>
        <time>2017-12-05T13:29:44Z</time>
      </trkpt>
      <trkpt lat="45.78898" lon="-0.02692">
        <ele>127.8828125</ele>
        <time>2017-12-05T13:29:46Z</time>
      </trkpt>
      <trkpt lat="45.7889" lon="-0.02693">
        <ele>127.12890625</ele>
        <time>2017-12-05T13:29:47Z</time>
      </trkpt>
      <trkpt lat="45.78883" lon="-0.02695">
        <ele>126.4921875</ele>
        <time>2017-12-05T13:29:48Z</time>
      </trkpt>
      <trkpt lat="45.78877" lon="-0.02697">
        <ele>125.90234375</ele>
        <time>2017-12-05T13:29:49Z</time>
      </trkpt>
      <trkpt lat="45.78851" lon="-0.02701">
        <ele>123.64453125</ele>
        <time>2017-12-05T13:29:53Z</time>
      </trkpt>
      <trkpt lat="45.78838" lon="-0.02702">
        <ele>122.33203125</ele>
        <time>2017-12-05T13:29:55Z</time>
      </trkpt>
      <trkpt lat="45.78831" lon="-0.02699">
        <ele>121.40234375</ele>
        <time>2017-12-05T13:29:56Z</time>
      </trkpt>
      <trkpt lat="45.78824" lon="-0.02692">
        <ele>120.21484375</ele>
        <time>2017-12-05T13:29:57Z</time>
      </trkpt>
      <trkpt lat="45.78817" lon="-0.02683">
        <ele>119.12890625</ele>
        <time>2017-12-05T13:29:58Z</time>
      </trkpt>
      <trkpt lat="45.78811" lon="-0.02672">
        <ele>118.24609375</ele>
        <time>2017-12-05T13:29:59Z</time>
      </trkpt>
      <trkpt lat="45.788" lon="-0.02651">
        <ele>118.6484375</ele>
        <time>2017-12-05T13:30:01Z</time>
      </trkpt>
      <trkpt lat="45.78781" lon="-0.0262">
        <ele>121.44921875</ele>
        <time>2017-12-05T13:30:05Z</time>
      </trkpt>
      <trkpt lat="45.78772" lon="-0.02608">
        <ele>122.9375</ele>
        <time>2017-12-05T13:30:07Z</time>
      </trkpt>
      <trkpt lat="45.78768" lon="-0.02603">
        <ele>123.55859375</ele>
        <time>2017-12-05T13:30:08Z</time>
      </trkpt>
      <trkpt lat="45.78764" lon="-0.02598">
        <ele>123.91015625</ele>
        <time>2017-12-05T13:30:09Z</time>
      </trkpt>
      <trkpt lat="45.78754" lon="-0.02585">
        <ele>124.29296875</ele>
        <time>2017-12-05T13:30:12Z</time>
      </trkpt>
      <trkpt lat="45.78748" lon="-0.02577">
        <ele>124.48046875</ele>
        <time>2017-12-05T13:30:14Z</time>
      </trkpt>
      <trkpt lat="45.78741" lon="-0.02565">
        <ele>124.84765625</ele>
        <time>2017-12-05T13:30:17Z</time>
      </trkpt>
      <trkpt lat="45.78725" lon="-0.02539">
        <ele>124.0078125</ele>
        <time>2017-12-05T13:30:23Z</time>
      </trkpt>
      <trkpt lat="45.78714" lon="-0.0252">
        <ele>122.73046875</ele>
        <time>2017-12-05T13:30:26Z</time>
      </trkpt>
      <trkpt lat="45.78703" lon="-0.025">
        <ele>121.484375</ele>
        <time>2017-12-05T13:30:29Z</time>
      </trkpt>
      <trkpt lat="45.78672" lon="-0.02451">
        <ele>118.390625</ele>
        <time>2017-12-05T13:30:37Z</time>
      </trkpt>
      <trkpt lat="45.78632" lon="-0.02405">
        <ele>115.09765625</ele>
        <time>2017-12-05T13:30:46Z</time>
      </trkpt>
      <trkpt lat="45.78626" lon="-0.02402">
        <ele>114.703125</ele>
        <time>2017-12-05T13:30:47Z</time>
      </trkpt>
      <trkpt lat="45.78606" lon="-0.02392">
        <ele>113.45703125</ele>
        <time>2017-12-05T13:30:50Z</time>
      </trkpt>
      <trkpt lat="45.78592" lon="-0.02384">
        <ele>112.55078125</ele>
        <time>2017-12-05T13:30:52Z</time>
      </trkpt>
      <trkpt lat="45.78585" lon="-0.02379">
        <ele>112.1875</ele>
        <time>2017-12-05T13:30:53Z</time>
      </trkpt>
      <trkpt lat="45.78579" lon="-0.02372">
        <ele>111.93359375</ele>
        <time>2017-12-05T13:30:54Z</time>
      </trkpt>
      <trkpt lat="45.78548" lon="-0.02328">
        <ele>112.21484375</ele>
        <time>2017-12-05T13:31:01Z</time>
      </trkpt>
      <trkpt lat="45.78538" lon="-0.02312">
        <ele>113.20703125</ele>
        <time>2017-12-05T13:31:04Z</time>
      </trkpt>
      <trkpt lat="45.78528" lon="-0.02296">
        <ele>114.21875</ele>
        <time>2017-12-05T13:31:07Z</time>
      </trkpt>
      <trkpt lat="45.78504" lon="-0.02255">
        <ele>117.28515625</ele>
        <time>2017-12-05T13:31:16Z</time>
      </trkpt>
      <trkpt lat="45.78491" lon="-0.02218">
        <ele>120.109375</ele>
        <time>2017-12-05T13:31:24Z</time>
      </trkpt>
      <trkpt lat="45.78488" lon="-0.02204">
        <ele>120.91796875</ele>
        <time>2017-12-05T13:31:27Z</time>
      </trkpt>
      <trkpt lat="45.7849" lon="-0.02176">
        <ele>122.40625</ele>
        <time>2017-12-05T13:31:33Z</time>
      </trkpt>
      <trkpt lat="45.78493" lon="-0.02135">
        <ele>123.4609375</ele>
        <time>2017-12-05T13:31:42Z</time>
      </trkpt>
      <trkpt lat="45.785" lon="-0.02114">
        <ele>123.7265625</ele>
        <time>2017-12-05T13:31:47Z</time>
      </trkpt>
      <trkpt lat="45.7852" lon="-0.02084">
        <ele>123.87890625</ele>
        <time>2017-12-05T13:31:56Z</time>
      </trkpt>
      <trkpt lat="45.78536" lon="-0.02056">
        <ele>124.10546875</ele>
        <time>2017-12-05T13:32:04Z</time>
      </trkpt>
      <trkpt lat="45.78537" lon="-0.02034">
        <ele>124.4765625</ele>
        <time>2017-12-05T13:32:09Z</time>
      </trkpt>
      <trkpt lat="45.78541" lon="-0.02014">
        <ele>124.77734375</ele>
        <time>2017-12-05T13:32:14Z</time>
      </trkpt>
      <trkpt lat="45.78559" lon="-0.02">
        <ele>124.703125</ele>
        <time>2017-12-05T13:32:20Z</time>
      </trkpt>
      <trkpt lat="45.78579" lon="-0.01986">
        <ele>124.453125</ele>
        <time>2017-12-05T13:32:27Z</time>
      </trkpt>
      <trkpt lat="45.78597" lon="-0.01971">
        <ele>124.0546875</ele>
        <time>2017-12-05T13:32:33Z</time>
      </trkpt>
      <trkpt lat="45.78604" lon="-0.01967">
        <ele>123.8125</ele>
        <time>2017-12-05T13:32:35Z</time>
      </trkpt>
      <trkpt lat="45.78638" lon="-0.01948">
        <ele>122.52734375</ele>
        <time>2017-12-05T13:32:43Z</time>
      </trkpt>
      <trkpt lat="45.78643" lon="-0.01946">
        <ele>122.37890625</ele>
        <time>2017-12-05T13:32:44Z</time>
      </trkpt>
      <trkpt lat="45.78694" lon="-0.01911">
        <ele>121.87890625</ele>
        <time>2017-12-05T13:32:54Z</time>
      </trkpt>
      <trkpt lat="45.78747" lon="-0.01861">
        <ele>123.63671875</ele>
        <time>2017-12-05T13:33:06Z</time>
      </trkpt>
      <trkpt lat="45.78777" lon="-0.01824">
        <ele>125.18359375</ele>
        <time>2017-12-05T13:33:14Z</time>
      </trkpt>
      <trkpt lat="45.78805" lon="-0.01787">
        <ele>126.38671875</ele>
        <time>2017-12-05T13:33:23Z</time>
      </trkpt>
      <trkpt lat="45.78822" lon="-0.01759">
        <ele>127.328125</ele>
        <time>2017-12-05T13:33:30Z</time>
      </trkpt>
      <trkpt lat="45.78821" lon="-0.01754">
        <ele>127.4140625</ele>
        <time>2017-12-05T13:33:31Z</time>
      </trkpt>
      <trkpt lat="45.78819" lon="-0.01749">
        <ele>127.47265625</ele>
        <time>2017-12-05T13:33:32Z</time>
      </trkpt>
      <trkpt lat="45.78789" lon="-0.01714">
        <ele>128</ele>
        <time>2017-12-05T13:33:41Z</time>
      </trkpt>
      <trkpt lat="45.78762" lon="-0.01678">
        <ele>127.984375</ele>
        <time>2017-12-05T13:33:50Z</time>
      </trkpt>
      <trkpt lat="45.78739" lon="-0.01646">
        <ele>128</ele>
        <time>2017-12-05T13:33:58Z</time>
      </trkpt>
      <trkpt lat="45.78735" lon="-0.01642">
        <ele>128</ele>
        <time>2017-12-05T13:33:59Z</time>
      </trkpt>
      <trkpt lat="45.78729" lon="-0.01635">
        <ele>128</ele>
        <time>2017-12-05T13:34:01Z</time>
      </trkpt>
      <trkpt lat="45.78697" lon="-0.016">
        <ele>127.62109375</ele>
        <time>2017-12-05T13:34:10Z</time>
      </trkpt>
      <trkpt lat="45.7865" lon="-0.01555">
        <ele>126.91796875</ele>
        <time>2017-12-05T13:34:21Z</time>
      </trkpt>
      <trkpt lat="45.78646" lon="-0.01552">
        <ele>126.7578125</ele>
        <time>2017-12-05T13:34:22Z</time>
      </trkpt>
      <trkpt lat="45.7864" lon="-0.0155">
        <ele>126.61328125</ele>
        <time>2017-12-05T13:34:23Z</time>
      </trkpt>
      <trkpt lat="45.78635" lon="-0.01548">
        <ele>126.49609375</ele>
        <time>2017-12-05T13:34:24Z</time>
      </trkpt>
      <trkpt lat="45.78629" lon="-0.01547">
        <ele>126.3984375</ele>
        <time>2017-12-05T13:34:25Z</time>
      </trkpt>
      <trkpt lat="45.78618" lon="-0.01545">
        <ele>126.2265625</ele>
        <time>2017-12-05T13:34:27Z</time>
      </trkpt>
      <trkpt lat="45.7856" lon="-0.01539">
        <ele>125.28515625</ele>
        <time>2017-12-05T13:34:37Z</time>
      </trkpt>
      <trkpt lat="45.78544" lon="-0.01537">
        <ele>125</ele>
        <time>2017-12-05T13:34:40Z</time>
      </trkpt>
      <trkpt lat="45.78538" lon="-0.01538">
        <ele>125</ele>
        <time>2017-12-05T13:34:41Z</time>
      </trkpt>
      <trkpt lat="45.78494" lon="-0.0155">
        <ele>125</ele>
        <time>2017-12-05T13:34:49Z</time>
      </trkpt>
      <trkpt lat="45.78461" lon="-0.01562">
        <ele>124.796875</ele>
        <time>2017-12-05T13:34:55Z</time>
      </trkpt>
      <trkpt lat="45.78455" lon="-0.01563">
        <ele>124.7578125</ele>
        <time>2017-12-05T13:34:56Z</time>
      </trkpt>
      <trkpt lat="45.78449" lon="-0.01563">
        <ele>124.734375</ele>
        <time>2017-12-05T13:34:57Z</time>
      </trkpt>
      <trkpt lat="45.78444" lon="-0.01562">
        <ele>124.7578125</ele>
        <time>2017-12-05T13:34:58Z</time>
      </trkpt>
      <trkpt lat="45.78439" lon="-0.01559">
        <ele>124.83984375</ele>
        <time>2017-12-05T13:34:59Z</time>
      </trkpt>
      <trkpt lat="45.78434" lon="-0.01556">
        <ele>124.96484375</ele>
        <time>2017-12-05T13:35:00Z</time>
      </trkpt>
      <trkpt lat="45.78429" lon="-0.01551">
        <ele>125.125</ele>
        <time>2017-12-05T13:35:01Z</time>
      </trkpt>
      <trkpt lat="45.78425" lon="-0.01546">
        <ele>125.30078125</ele>
        <time>2017-12-05T13:35:02Z</time>
      </trkpt>
      <trkpt lat="45.784" lon="-0.01514">
        <ele>126.7578125</ele>
        <time>2017-12-05T13:35:09Z</time>
      </trkpt>
      <trkpt lat="45.78371" lon="-0.01474">
        <ele>128.56640625</ele>
        <time>2017-12-05T13:35:19Z</time>
      </trkpt>
      <trkpt lat="45.7834" lon="-0.01431">
        <ele>129.67578125</ele>
        <time>2017-12-05T13:35:30Z</time>
      </trkpt>
      <trkpt lat="45.7831" lon="-0.01394">
        <ele>130.2109375</ele>
        <time>2017-12-05T13:35:40Z</time>
      </trkpt>
      <trkpt lat="45.7827" lon="-0.01345">
        <ele>131.640625</ele>
        <time>2017-12-05T13:35:53Z</time>
      </trkpt>
      <trkpt lat="45.78243" lon="-0.01303">
        <ele>132.41796875</ele>
        <time>2017-12-05T13:36:03Z</time>
      </trkpt>
      <trkpt lat="45.7824" lon="-0.01299">
        <ele>132.4765625</ele>
        <time>2017-12-05T13:36:04Z</time>
      </trkpt>
      <trkpt lat="45.78236" lon="-0.01295">
        <ele>132.53515625</ele>
        <time>2017-12-05T13:36:05Z</time>
      </trkpt>
      <trkpt lat="45.78233" lon="-0.01291">
        <ele>132.5859375</ele>
        <time>2017-12-05T13:36:06Z</time>
      </trkpt>
      <trkpt lat="45.78231" lon="-0.01287">
        <ele>132.640625</ele>
        <time>2017-12-05T13:36:07Z</time>
      </trkpt>
      <trkpt lat="45.78228" lon="-0.01283">
        <ele>132.6953125</ele>
        <time>2017-12-05T13:36:08Z</time>
      </trkpt>
      <trkpt lat="45.78202" lon="-0.01243">
        <ele>133.03515625</ele>
        <time>2017-12-05T13:36:17Z</time>
      </trkpt>
      <trkpt lat="45.78179" lon="-0.01195">
        <ele>134.328125</ele>
        <time>2017-12-05T13:36:27Z</time>
      </trkpt>
      <trkpt lat="45.78169" lon="-0.01164">
        <ele>135.58203125</ele>
        <time>2017-12-05T13:36:33Z</time>
      </trkpt>
      <trkpt lat="45.78161" lon="-0.01128">
        <ele>137.13671875</ele>
        <time>2017-12-05T13:36:40Z</time>
      </trkpt>
      <trkpt lat="45.78163" lon="-0.01124">
        <ele>137.22265625</ele>
        <time>2017-12-05T13:36:41Z</time>
      </trkpt>
      <trkpt lat="45.78166" lon="-0.01121">
        <ele>137.2421875</ele>
        <time>2017-12-05T13:36:42Z</time>
      </trkpt>
      <trkpt lat="45.78169" lon="-0.01119">
        <ele>137.2109375</ele>
        <time>2017-12-05T13:36:43Z</time>
      </trkpt>
      <trkpt lat="45.78172" lon="-0.01117">
        <ele>137.14453125</ele>
        <time>2017-12-05T13:36:44Z</time>
      </trkpt>
      <trkpt lat="45.78175" lon="-0.01116">
        <ele>137.05859375</ele>
        <time>2017-12-05T13:36:45Z</time>
      </trkpt>
      <trkpt lat="45.782" lon="-0.01105">
        <ele>136.5859375</ele>
        <time>2017-12-05T13:36:52Z</time>
      </trkpt>
      <trkpt lat="45.78236" lon="-0.01088">
        <ele>134.6953125</ele>
        <time>2017-12-05T13:37:01Z</time>
      </trkpt>
      <trkpt lat="45.7824" lon="-0.01086">
        <ele>134.421875</ele>
        <time>2017-12-05T13:37:02Z</time>
      </trkpt>
      <trkpt lat="45.78266" lon="-0.0107">
        <ele>133.21875</ele>
        <time>2017-12-05T13:37:07Z</time>
      </trkpt>
      <trkpt lat="45.7827" lon="-0.01064">
        <ele>133.1796875</ele>
        <time>2017-12-05T13:37:08Z</time>
      </trkpt>
      <trkpt lat="45.78273" lon="-0.01057">
        <ele>133.30078125</ele>
        <time>2017-12-05T13:37:09Z</time>
      </trkpt>
      <trkpt lat="45.78281" lon="-0.0103">
        <ele>133.59765625</ele>
        <time>2017-12-05T13:37:13Z</time>
      </trkpt>
      <trkpt lat="45.78282" lon="-0.01024">
        <ele>133.69921875</ele>
        <time>2017-12-05T13:37:14Z</time>
      </trkpt>
      <trkpt lat="45.78283" lon="-0.01019">
        <ele>133.80859375</ele>
        <time>2017-12-05T13:37:15Z</time>
      </trkpt>
      <trkpt lat="45.78284" lon="-0.01014">
        <ele>133.87109375</ele>
        <time>2017-12-05T13:37:16Z</time>
      </trkpt>
      <trkpt lat="45.78286" lon="-0.01008">
        <ele>133.93359375</ele>
        <time>2017-12-05T13:37:17Z</time>
      </trkpt>
      <trkpt lat="45.78293" lon="-0.00965">
        <ele>134.8671875</ele>
        <time>2017-12-05T13:37:25Z</time>
      </trkpt>
      <trkpt lat="45.78295" lon="-0.00948">
        <ele>135.2265625</ele>
        <time>2017-12-05T13:37:28Z</time>
      </trkpt>
      <trkpt lat="45.78309" lon="-0.00898">
        <ele>134.99609375</ele>
        <time>2017-12-05T13:37:37Z</time>
      </trkpt>
      <trkpt lat="45.78316" lon="-0.00857">
        <ele>135.22265625</ele>
        <time>2017-12-05T13:37:44Z</time>
      </trkpt>
      <trkpt lat="45.78325" lon="-0.00822">
        <ele>134.84765625</ele>
        <time>2017-12-05T13:37:50Z</time>
      </trkpt>
      <trkpt lat="45.78334" lon="-0.00776">
        <ele>134.8828125</ele>
        <time>2017-12-05T13:37:58Z</time>
      </trkpt>
      <trkpt lat="45.78335" lon="-0.00752">
        <ele>133.78125</ele>
        <time>2017-12-05T13:38:00Z</time>
      </trkpt>
      <trkpt lat="45.78333" lon="-0.00741">
        <ele>133.3984375</ele>
        <time>2017-12-05T13:38:01Z</time>
      </trkpt>
      <trkpt lat="45.78331" lon="-0.0073">
        <ele>133.0390625</ele>
        <time>2017-12-05T13:38:06Z</time>
      </trkpt>
      <trkpt lat="45.78327" lon="-0.00715">
        <ele>132</ele>
        <time>2017-12-05T13:38:12Z</time>
      </trkpt>
      <trkpt lat="45.78324" lon="-0.0071">
        <ele>131.4375</ele>
      </trkpt>
      <trkpt lat="45.78319" lon="-0.00714">
        <ele>132.3203125</ele>
        <time>2017-12-05T13:38:20Z</time>
      </trkpt>
      <trkpt lat="45.78312" lon="-0.00714">
        <ele>132.984375</ele>
        <time>2017-12-05T13:38:26Z</time>
      </trkpt>
      <trkpt lat="45.78304" lon="-0.00713">
        <ele>133.703125</ele>
        <time>2017-12-05T13:38:33Z</time>
      </trkpt>
      <trkpt lat="45.78291" lon="-0.00712">
        <ele>134.93359375</ele>
        <time>2017-12-05T13:38:42Z</time>
      </trkpt>
      <trkpt lat="45.78282" lon="-0.0071">
        <ele>135.67578125</ele>
        <time>2017-12-05T13:39:03Z</time>
      </trkpt>
      <trkpt lat="45.78275" lon="-0.00709">
        <ele>136.296875</ele>
        <time>2017-12-05T13:39:26Z</time>
      </trkpt>
      <trkpt lat="45.78266" lon="-0.00709">
        <ele>137.265625</ele>
        <time>2017-12-05T13:39:32Z</time>
      </trkpt>
      <trkpt lat="45.78257" lon="-0.0071">
        <ele>138.484375</ele>
        <time>2017-12-05T13:39:41Z</time>
      </trkpt>
      <trkpt lat="45.78249" lon="-0.00712">
        <ele>139.84375</ele>
        <time>2017-12-05T13:39:43Z</time>
      </trkpt>
      <trkpt lat="45.78239" lon="-0.00714">
        <ele>141.55078125</ele>
        <time>2017-12-05T13:39:47Z</time>
      </trkpt>
      <trkpt lat="45.78223" lon="-0.00717">
        <ele>144.296875</ele>
        <time>2017-12-05T13:39:55Z</time>
      </trkpt>
      <trkpt lat="45.78211" lon="-0.00717">
        <ele>145.9453125</ele>
        <time>2017-12-05T13:40:01Z</time>
      </trkpt>
      <trkpt lat="45.78198" lon="-0.00711">
        <ele>146.2109375</ele>
        <time>2017-12-05T13:40:03Z</time>
      </trkpt>
      <trkpt lat="45.7819" lon="-0.00711">
        <ele>147.12109375</ele>
        <time>2017-12-05T13:40:08Z</time>
      </trkpt>
      <trkpt lat="45.7818" lon="-0.00709">
        <ele>147.83203125</ele>
        <time>2017-12-05T13:40:13Z</time>
      </trkpt>
      <trkpt lat="45.78167" lon="-0.00702">
        <ele>148.0546875</ele>
        <time>2017-12-05T13:40:21Z</time>
      </trkpt>
      <trkpt lat="45.78155" lon="-0.00701">
        <ele>149.32421875</ele>
        <time>2017-12-05T13:41:35Z</time>
      </trkpt>
      <trkpt lat="45.7815" lon="-0.00706">
        <ele>150.53515625</ele>
        <time>2017-12-05T13:41:41Z</time>
      </trkpt>
      <trkpt lat="45.78142" lon="-0.00714">
        <ele>152.4921875</ele>
        <time>2017-12-05T13:41:49Z</time>
      </trkpt>
      <trkpt lat="45.78136" lon="-0.00722">
        <ele>154.03515625</ele>
        <time>2017-12-05T13:41:55Z</time>
      </trkpt>
      <trkpt lat="45.78127" lon="-0.00727">
        <ele>154.91796875</ele>
        <time>2017-12-05T13:41:59Z</time>
      </trkpt>
      <trkpt lat="45.78116" lon="-0.00733">
        <ele>155.78125</ele>
        <time>2017-12-05T13:42:04Z</time>
      </trkpt>
      <trkpt lat="45.78093" lon="-0.00735">
        <ele>156.1171875</ele>
        <time>2017-12-05T13:42:08Z</time>
      </trkpt>
      <trkpt lat="45.78078" lon="-0.00736">
        <ele>155.359375</ele>
        <time>2017-12-05T13:42:09Z</time>
      </trkpt>
      <trkpt lat="45.78068" lon="-0.0074">
        <ele>154.76171875</ele>
        <time>2017-12-05T13:42:10Z</time>
      </trkpt>
      <trkpt lat="45.78064" lon="-0.00743">
        <ele>154.48828125</ele>
        <time>2017-12-05T13:42:11Z</time>
      </trkpt>
      <trkpt lat="45.78059" lon="-0.00748">
        <ele>154.109375</ele>
        <time>2017-12-05T13:42:12Z</time>
      </trkpt>
      <trkpt lat="45.78057" lon="-0.00752">
        <ele>153.89453125</ele>
        <time>2017-12-05T13:42:13Z</time>
      </trkpt>
      <trkpt lat="45.78054" lon="-0.00756">
        <ele>153.60546875</ele>
        <time>2017-12-05T13:42:14Z</time>
      </trkpt>
      <trkpt lat="45.78051" lon="-0.0076">
        <ele>153.234375</ele>
        <time>2017-12-05T13:42:15Z</time>
      </trkpt>
      <trkpt lat="45.78047" lon="-0.00764">
        <ele>152.80859375</ele>
        <time>2017-12-05T13:42:16Z</time>
      </trkpt>
      <trkpt lat="45.7804" lon="-0.00774">
        <ele>151.54296875</ele>
        <time>2017-12-05T13:42:18Z</time>
      </trkpt>
      <trkpt lat="45.78037" lon="-0.00778">
        <ele>150.7578125</ele>
        <time>2017-12-05T13:42:19Z</time>
      </trkpt>
      <trkpt lat="45.78032" lon="-0.00782">
        <ele>149.9453125</ele>
        <time>2017-12-05T13:42:20Z</time>
      </trkpt>
      <trkpt lat="45.78028" lon="-0.00785">
        <ele>149.08203125</ele>
        <time>2017-12-05T13:42:21Z</time>
      </trkpt>
      <trkpt lat="45.78024" lon="-0.00788">
        <ele>148.46875</ele>
        <time>2017-12-05T13:42:22Z</time>
      </trkpt>
      <trkpt lat="45.78022" lon="-0.00789">
        <ele>148.0390625</ele>
        <time>2017-12-05T13:42:23Z</time>
      </trkpt>
      <trkpt lat="45.78017" lon="-0.00791">
        <ele>147.2578125</ele>
        <time>2017-12-05T13:42:24Z</time>
      </trkpt>
      <trkpt lat="45.78008" lon="-0.00797">
        <ele>145.6953125</ele>
        <time>2017-12-05T13:42:25Z</time>
      </trkpt>
      <trkpt lat="45.77999" lon="-0.00805">
        <ele>144.0703125</ele>
        <time>2017-12-05T13:42:29Z</time>
      </trkpt>
      <trkpt lat="45.77997" lon="-0.00811">
        <ele>143.62109375</ele>
        <time>2017-12-05T13:42:30Z</time>
      </trkpt>
      <trkpt lat="45.77996" lon="-0.00819">
        <ele>143.35546875</ele>
        <time>2017-12-05T13:42:31Z</time>
      </trkpt>
      <trkpt lat="45.77997" lon="-0.00828">
        <ele>143.37890625</ele>
        <time>2017-12-05T13:42:33Z</time>
      </trkpt>
      <trkpt lat="45.77998" lon="-0.00836">
        <ele>143.328125</ele>
        <time>2017-12-05T13:42:34Z</time>
      </trkpt>
      <trkpt lat="45.77996" lon="-0.00841">
        <ele>143.06640625</ele>
        <time>2017-12-05T13:42:35Z</time>
      </trkpt>
      <trkpt lat="45.77993" lon="-0.00846">
        <ele>142.59375</ele>
        <time>2017-12-05T13:42:36Z</time>
      </trkpt>
      <trkpt lat="45.77989" lon="-0.00849">
        <ele>142.02734375</ele>
        <time>2017-12-05T13:42:37Z</time>
      </trkpt>
      <trkpt lat="45.77984" lon="-0.00853">
        <ele>141.44140625</ele>
        <time>2017-12-05T13:42:38Z</time>
      </trkpt>
      <trkpt lat="45.77952" lon="-0.00887">
        <ele>137.41796875</ele>
        <time>2017-12-05T13:42:45Z</time>
      </trkpt>
      <trkpt lat="45.7792" lon="-0.00919">
        <ele>135.04296875</ele>
        <time>2017-12-05T13:42:51Z</time>
      </trkpt>
      <trkpt lat="45.77914" lon="-0.00925">
        <ele>134.7421875</ele>
        <time>2017-12-05T13:42:52Z</time>
      </trkpt>
      <trkpt lat="45.77896" lon="-0.00942">
        <ele>133.62109375</ele>
        <time>2017-12-05T13:42:55Z</time>
      </trkpt>
      <trkpt lat="45.77889" lon="-0.00948">
        <ele>133.06640625</ele>
        <time>2017-12-05T13:42:56Z</time>
      </trkpt>
      <trkpt lat="45.77839" lon="-0.00986">
        <ele>129.7578125</ele>
        <time>2017-12-05T13:43:03Z</time>
      </trkpt>
      <trkpt lat="45.77831" lon="-0.00992">
        <ele>129.40234375</ele>
        <time>2017-12-05T13:43:04Z</time>
      </trkpt>
      <trkpt lat="45.77789" lon="-0.01021">
        <ele>126.6015625</ele>
        <time>2017-12-05T13:43:10Z</time>
      </trkpt>
      <trkpt lat="45.77758" lon="-0.01043">
        <ele>124.5390625</ele>
        <time>2017-12-05T13:43:16Z</time>
      </trkpt>
      <trkpt lat="45.77718" lon="-0.01073">
        <ele>122.34765625</ele>
        <time>2017-12-05T13:43:24Z</time>
      </trkpt>
      <trkpt lat="45.7768" lon="-0.01109">
        <ele>120.87890625</ele>
        <time>2017-12-05T13:43:32Z</time>
      </trkpt>
      <trkpt lat="45.77679" lon="-0.01115">
        <ele>120.78515625</ele>
        <time>2017-12-05T13:43:33Z</time>
      </trkpt>
      <trkpt lat="45.7768" lon="-0.01122">
        <ele>120.71484375</ele>
        <time>2017-12-05T13:43:34Z</time>
      </trkpt>
      <trkpt lat="45.77682" lon="-0.01128">
        <ele>120.67578125</ele>
        <time>2017-12-05T13:43:35Z</time>
      </trkpt>
      <trkpt lat="45.77685" lon="-0.01133">
        <ele>120.62890625</ele>
        <time>2017-12-05T13:43:36Z</time>
      </trkpt>
      <trkpt lat="45.77708" lon="-0.01185">
        <ele>119.30859375</ele>
        <time>2017-12-05T13:43:43Z</time>
      </trkpt>
      <trkpt lat="45.7772" lon="-0.01213">
        <ele>118.46875</ele>
        <time>2017-12-05T13:43:46Z</time>
      </trkpt>
      <trkpt lat="45.77751" lon="-0.01283">
        <ele>116.32421875</ele>
        <time>2017-12-05T13:43:54Z</time>
      </trkpt>
      <trkpt lat="45.7778" lon="-0.01338">
        <ele>116.54296875</ele>
        <time>2017-12-05T13:44:01Z</time>
      </trkpt>
      <trkpt lat="45.77815" lon="-0.01401">
        <ele>115.30078125</ele>
        <time>2017-12-05T13:44:09Z</time>
      </trkpt>
      <trkpt lat="45.77826" lon="-0.01424">
        <ele>115</ele>
        <time>2017-12-05T13:44:12Z</time>
      </trkpt>
      <trkpt lat="45.77831" lon="-0.01438">
        <ele>114.87890625</ele>
        <time>2017-12-05T13:44:14Z</time>
      </trkpt>
      <trkpt lat="45.77855" lon="-0.01481">
        <ele>115.26953125</ele>
        <time>2017-12-05T13:44:21Z</time>
      </trkpt>
      <trkpt lat="45.77877" lon="-0.01535">
        <ele>115.99609375</ele>
        <time>2017-12-05T13:44:30Z</time>
      </trkpt>
      <trkpt lat="45.77892" lon="-0.01571">
        <ele>116.6171875</ele>
        <time>2017-12-05T13:44:36Z</time>
      </trkpt>
      <trkpt lat="45.77898" lon="-0.01586">
        <ele>117.14453125</ele>
        <time>2017-12-05T13:44:39Z</time>
      </trkpt>
      <trkpt lat="45.77914" lon="-0.01621">
        <ele>118.68359375</ele>
        <time>2017-12-05T13:44:47Z</time>
      </trkpt>
      <trkpt lat="45.77926" lon="-0.01658">
        <ele>120.453125</ele>
        <time>2017-12-05T13:44:55Z</time>
      </trkpt>
      <trkpt lat="45.77931" lon="-0.01701">
        <ele>121.6015625</ele>
        <time>2017-12-05T13:45:04Z</time>
      </trkpt>
      <trkpt lat="45.77925" lon="-0.01749">
        <ele>121.859375</ele>
        <time>2017-12-05T13:45:13Z</time>
      </trkpt>
      <trkpt lat="45.77916" lon="-0.01799">
        <ele>121.29296875</ele>
        <time>2017-12-05T13:45:21Z</time>
      </trkpt>
      <trkpt lat="45.77909" lon="-0.01834">
        <ele>120.52734375</ele>
        <time>2017-12-05T13:45:26Z</time>
      </trkpt>
      <trkpt lat="45.77896" lon="-0.01902">
        <ele>118.0703125</ele>
        <time>2017-12-05T13:45:35Z</time>
      </trkpt>
      <trkpt lat="45.77891" lon="-0.01931">
        <ele>117.46484375</ele>
        <time>2017-12-05T13:45:39Z</time>
      </trkpt>
      <trkpt lat="45.77889" lon="-0.01937">
        <ele>117.31640625</ele>
        <time>2017-12-05T13:45:40Z</time>
      </trkpt>
      <trkpt lat="45.77886" lon="-0.01943">
        <ele>117.16796875</ele>
        <time>2017-12-05T13:45:41Z</time>
      </trkpt>
      <trkpt lat="45.77882" lon="-0.01945">
        <ele>117.078125</ele>
        <time>2017-12-05T13:45:42Z</time>
      </trkpt>
      <trkpt lat="45.77878" lon="-0.01947">
        <ele>117.01171875</ele>
        <time>2017-12-05T13:45:43Z</time>
      </trkpt>
      <trkpt lat="45.77875" lon="-0.01948">
        <ele>116.8984375</ele>
        <time>2017-12-05T13:45:44Z</time>
      </trkpt>
      <trkpt lat="45.77871" lon="-0.0195">
        <ele>116.76171875</ele>
        <time>2017-12-05T13:45:45Z</time>
      </trkpt>
      <trkpt lat="45.77867" lon="-0.01952">
        <ele>116.62109375</ele>
        <time>2017-12-05T13:45:46Z</time>
      </trkpt>
      <trkpt lat="45.77822" lon="-0.01981">
        <ele>115.01953125</ele>
        <time>2017-12-05T13:45:56Z</time>
      </trkpt>
      <trkpt lat="45.77779" lon="-0.02003">
        <ele>112.6015625</ele>
        <time>2017-12-05T13:46:05Z</time>
      </trkpt>
      <trkpt lat="45.77736" lon="-0.02028">
        <ele>111.734375</ele>
        <time>2017-12-05T13:46:15Z</time>
      </trkpt>
      <trkpt lat="45.7771" lon="-0.02042">
        <ele>111.484375</ele>
        <time>2017-12-05T13:46:22Z</time>
      </trkpt>
      <trkpt lat="45.77678" lon="-0.02057">
        <ele>112.05859375</ele>
        <time>2017-12-05T13:46:31Z</time>
      </trkpt>
      <trkpt lat="45.77652" lon="-0.02067">
        <ele>112.4609375</ele>
        <time>2017-12-05T13:46:39Z</time>
      </trkpt>
      <trkpt lat="45.77628" lon="-0.02079">
        <ele>112.625</ele>
        <time>2017-12-05T13:46:47Z</time>
      </trkpt>
      <trkpt lat="45.77601" lon="-0.02094">
        <ele>112.85546875</ele>
        <time>2017-12-05T13:46:57Z</time>
      </trkpt>
      <trkpt lat="45.77566" lon="-0.02105">
        <ele>113.9609375</ele>
        <time>2017-12-05T13:47:08Z</time>
      </trkpt>
      <trkpt lat="45.77541" lon="-0.02112">
        <ele>114.89453125</ele>
        <time>2017-12-05T13:47:16Z</time>
      </trkpt>
      <trkpt lat="45.775" lon="-0.0212">
        <ele>114.59765625</ele>
        <time>2017-12-05T13:47:26Z</time>
      </trkpt>
      <trkpt lat="45.77466" lon="-0.02125">
        <ele>114.16015625</ele>
        <time>2017-12-05T13:47:33Z</time>
      </trkpt>
      <trkpt lat="45.77424" lon="-0.02131">
        <ele>113.45703125</ele>
        <time>2017-12-05T13:47:42Z</time>
      </trkpt>
      <trkpt lat="45.77411" lon="-0.02134">
        <ele>113.16796875</ele>
        <time>2017-12-05T13:47:45Z</time>
      </trkpt>
      <trkpt lat="45.77407" lon="-0.02135">
        <ele>113.07421875</ele>
        <time>2017-12-05T13:47:46Z</time>
      </trkpt>
      <trkpt lat="45.77377" lon="-0.02139">
        <ele>112.46484375</ele>
        <time>2017-12-05T13:47:54Z</time>
      </trkpt>
      <trkpt lat="45.77343" lon="-0.02142">
        <ele>111.5234375</ele>
        <time>2017-12-05T13:48:03Z</time>
      </trkpt>
      <trkpt lat="45.773" lon="-0.02146">
        <ele>109.5</ele>
        <time>2017-12-05T13:48:13Z</time>
      </trkpt>
      <trkpt lat="45.77284" lon="-0.02148">
        <ele>108.5390625</ele>
        <time>2017-12-05T13:48:16Z</time>
      </trkpt>
      <trkpt lat="45.77247" lon="-0.02161">
        <ele>106.71875</ele>
        <time>2017-12-05T13:48:24Z</time>
      </trkpt>
      <trkpt lat="45.77213" lon="-0.02181">
        <ele>105.63671875</ele>
        <time>2017-12-05T13:48:33Z</time>
      </trkpt>
      <trkpt lat="45.77178" lon="-0.02197">
        <ele>103.7421875</ele>
        <time>2017-12-05T13:48:42Z</time>
      </trkpt>
      <trkpt lat="45.77174" lon="-0.02198">
        <ele>103.49609375</ele>
        <time>2017-12-05T13:48:43Z</time>
      </trkpt>
      <trkpt lat="45.7717" lon="-0.022">
        <ele>103.26953125</ele>
        <time>2017-12-05T13:48:44Z</time>
      </trkpt>
      <trkpt lat="45.77154" lon="-0.02207">
        <ele>102.390625</ele>
        <time>2017-12-05T13:48:48Z</time>
      </trkpt>
      <trkpt lat="45.7715" lon="-0.02208">
        <ele>102.22265625</ele>
        <time>2017-12-05T13:48:49Z</time>
      </trkpt>
      <trkpt lat="45.7712" lon="-0.02222">
        <ele>101.08984375</ele>
        <time>2017-12-05T13:48:57Z</time>
      </trkpt>
      <trkpt lat="45.77092" lon="-0.02226">
        <ele>99.51953125</ele>
        <time>2017-12-05T13:49:03Z</time>
      </trkpt>
      <trkpt lat="45.77068" lon="-0.0223">
        <ele>97.93359375</ele>
        <time>2017-12-05T13:49:09Z</time>
      </trkpt>
      <trkpt lat="45.77067" lon="-0.02234">
        <ele>97.9921875</ele>
        <time>2017-12-05T13:49:10Z</time>
      </trkpt>
      <trkpt lat="45.77068" lon="-0.02237">
        <ele>98.1484375</ele>
        <time>2017-12-05T13:49:11Z</time>
      </trkpt>
      <trkpt lat="45.7707" lon="-0.02242">
        <ele>98.3984375</ele>
        <time>2017-12-05T13:49:12Z</time>
      </trkpt>
      <trkpt lat="45.77072" lon="-0.02246">
        <ele>98.61328125</ele>
        <time>2017-12-05T13:49:13Z</time>
      </trkpt>
      <trkpt lat="45.77073" lon="-0.02249">
        <ele>98.8125</ele>
        <time>2017-12-05T13:49:14Z</time>
      </trkpt>
      <trkpt lat="45.77075" lon="-0.02253">
        <ele>99.0078125</ele>
        <time>2017-12-05T13:49:15Z</time>
      </trkpt>
      <trkpt lat="45.77084" lon="-0.0228">
        <ele>100.03125</ele>
        <time>2017-12-05T13:49:22Z</time>
      </trkpt>
      <trkpt lat="45.77096" lon="-0.02316">
        <ele>99.390625</ele>
        <time>2017-12-05T13:49:30Z</time>
      </trkpt>
      <trkpt lat="45.77104" lon="-0.02338">
        <ele>98.6171875</ele>
        <time>2017-12-05T13:49:34Z</time>
      </trkpt>
      <trkpt lat="45.77106" lon="-0.02344">
        <ele>98.25390625</ele>
        <time>2017-12-05T13:49:35Z</time>
      </trkpt>
      <trkpt lat="45.77108" lon="-0.0235">
        <ele>97.859375</ele>
        <time>2017-12-05T13:49:36Z</time>
      </trkpt>
      <trkpt lat="45.77113" lon="-0.02372">
        <ele>96.54296875</ele>
        <time>2017-12-05T13:49:39Z</time>
      </trkpt>
      <trkpt lat="45.77116" lon="-0.02379">
        <ele>96.1484375</ele>
        <time>2017-12-05T13:49:40Z</time>
      </trkpt>
      <trkpt lat="45.7712" lon="-0.02384">
        <ele>95.921875</ele>
        <time>2017-12-05T13:49:41Z</time>
      </trkpt>
      <trkpt lat="45.77124" lon="-0.02387">
        <ele>95.8984375</ele>
        <time>2017-12-05T13:49:42Z</time>
      </trkpt>
      <trkpt lat="45.7713" lon="-0.02388">
        <ele>96.05078125</ele>
        <time>2017-12-05T13:49:43Z</time>
      </trkpt>
      <trkpt lat="45.77135" lon="-0.02387">
        <ele>96.296875</ele>
        <time>2017-12-05T13:49:44Z</time>
      </trkpt>
      <trkpt lat="45.77139" lon="-0.02385">
        <ele>96.546875</ele>
        <time>2017-12-05T13:49:45Z</time>
      </trkpt>
      <trkpt lat="45.7717" lon="-0.02375">
        <ele>98.234375</ele>
        <time>2017-12-05T13:49:52Z</time>
      </trkpt>
      <trkpt lat="45.77183" lon="-0.0237">
        <ele>98.9375</ele>
        <time>2017-12-05T13:49:55Z</time>
      </trkpt>
      <trkpt lat="45.77197" lon="-0.02365">
        <ele>99.72265625</ele>
        <time>2017-12-05T13:49:59Z</time>
      </trkpt>
      <trkpt lat="45.77205" lon="-0.02365">
        <ele>100.0078125</ele>
        <time>2017-12-05T13:50:00Z</time>
      </trkpt>
      <trkpt lat="45.77203" lon="-0.0237">
        <ele>99.640625</ele>
        <time>2017-12-05T13:50:01Z</time>
      </trkpt>
      <trkpt lat="45.77202" lon="-0.02382">
        <ele>98.9765625</ele>
        <time>2017-12-05T13:50:02Z</time>
      </trkpt>
      <trkpt lat="45.77216" lon="-0.02489">
        <ele>91.578125</ele>
        <time>2017-12-05T13:50:03Z</time>
      </trkpt>
      <trkpt lat="45.77216" lon="-0.0249">
        <ele>91.53515625</ele>
        <time>2017-12-05T13:50:14Z</time>
      </trkpt>
      <trkpt lat="45.77135" lon="-0.02512">
        <ele>90.5</ele>
        <time>2017-12-05T13:50:15Z</time>
      </trkpt>
      <trkpt lat="45.77102" lon="-0.02522">
        <ele>90.16015625</ele>
        <time>2017-12-05T13:50:40Z</time>
      </trkpt>
      <trkpt lat="45.771" lon="-0.02544">
        <ele>89.36328125</ele>
        <time>2017-12-05T13:50:41Z</time>
      </trkpt>
      <trkpt lat="45.77097" lon="-0.0262">
        <ele>89</ele>
        <time>2017-12-05T13:50:42Z</time>
      </trkpt>
      <trkpt lat="45.77099" lon="-0.02636">
        <ele>89</ele>
        <time>2017-12-05T13:50:43Z</time>
      </trkpt>
      <trkpt lat="45.77111" lon="-0.02689">
        <ele>89.19140625</ele>
        <time>2017-12-05T13:50:44Z</time>
      </trkpt>
      <trkpt lat="45.77111" lon="-0.027">
        <ele>89.1953125</ele>
        <time>2017-12-05T13:50:45Z</time>
      </trkpt>
      <trkpt lat="45.7711" lon="-0.02707">
        <ele>89.1796875</ele>
        <time>2017-12-05T13:50:46Z</time>
      </trkpt>
      <trkpt lat="45.77106" lon="-0.02716">
        <ele>89.1015625</ele>
        <time>2017-12-05T13:50:54Z</time>
      </trkpt>
      <trkpt lat="45.77077" lon="-0.02745">
        <ele>89</ele>
        <time>2017-12-05T13:51:21Z</time>
      </trkpt>
      <trkpt lat="45.77064" lon="-0.02756">
        <ele>89</ele>
      </trkpt>
      <trkpt lat="45.7705" lon="-0.02761">
        <ele>89</ele>
      </trkpt>
      <trkpt lat="45.77012" lon="-0.02769">
        <ele>89</ele>
        <time>2017-12-05T13:51:30Z</time>
      </trkpt>
      <trkpt lat="45.76972" lon="-0.02768">
        <ele>89</ele>
        <time>2017-12-05T13:51:37Z</time>
      </trkpt>
      <trkpt lat="45.7694" lon="-0.02762">
        <ele>89</ele>
        <time>2017-12-05T13:51:43Z</time>
      </trkpt>
      <trkpt lat="45.76935" lon="-0.02762">
        <ele>89</ele>
        <time>2017-12-05T13:51:44Z</time>
      </trkpt>
      <trkpt lat="45.76931" lon="-0.02765">
        <ele>88.9921875</ele>
        <time>2017-12-05T13:51:45Z</time>
      </trkpt>
      <trkpt lat="45.76929" lon="-0.0277">
        <ele>88.9921875</ele>
        <time>2017-12-05T13:51:46Z</time>
      </trkpt>
      <trkpt lat="45.76929" lon="-0.02777">
        <ele>89</ele>
        <time>2017-12-05T13:51:47Z</time>
      </trkpt>
      <trkpt lat="45.7693" lon="-0.02784">
        <ele>89</ele>
        <time>2017-12-05T13:51:48Z</time>
      </trkpt>
      <trkpt lat="45.76938" lon="-0.02847">
        <ele>89</ele>
        <time>2017-12-05T13:51:57Z</time>
      </trkpt>
      <trkpt lat="45.76941" lon="-0.0289">
        <ele>89</ele>
        <time>2017-12-05T13:52:04Z</time>
      </trkpt>
      <trkpt lat="45.76939" lon="-0.02894">
        <ele>89</ele>
        <time>2017-12-05T13:52:05Z</time>
      </trkpt>
      <trkpt lat="45.76936" lon="-0.02897">
        <ele>89</ele>
        <time>2017-12-05T13:52:06Z</time>
      </trkpt>
      <trkpt lat="45.76932" lon="-0.02899">
        <ele>89</ele>
        <time>2017-12-05T13:52:07Z</time>
      </trkpt>
      <trkpt lat="45.76927" lon="-0.02901">
        <ele>89</ele>
        <time>2017-12-05T13:52:08Z</time>
      </trkpt>
      <trkpt lat="45.76923" lon="-0.02902">
        <ele>89</ele>
        <time>2017-12-05T13:52:09Z</time>
      </trkpt>
      <trkpt lat="45.76918" lon="-0.02904">
        <ele>89</ele>
        <time>2017-12-05T13:52:10Z</time>
      </trkpt>
      <trkpt lat="45.76909" lon="-0.02909">
        <ele>89</ele>
        <time>2017-12-05T13:52:12Z</time>
      </trkpt>
      <trkpt lat="45.76905" lon="-0.02913">
        <ele>89</ele>
        <time>2017-12-05T13:52:13Z</time>
      </trkpt>
      <trkpt lat="45.76902" lon="-0.02918">
        <ele>89</ele>
        <time>2017-12-05T13:52:14Z</time>
      </trkpt>
      <trkpt lat="45.76882" lon="-0.02948">
        <ele>89</ele>
        <time>2017-12-05T13:52:20Z</time>
      </trkpt>
      <trkpt lat="45.7688" lon="-0.02954">
        <ele>89</ele>
        <time>2017-12-05T13:52:21Z</time>
      </trkpt>
      <trkpt lat="45.76878" lon="-0.02961">
        <ele>89</ele>
        <time>2017-12-05T13:52:22Z</time>
      </trkpt>
      <trkpt lat="45.76878" lon="-0.02968">
        <ele>89.00390625</ele>
        <time>2017-12-05T13:52:23Z</time>
      </trkpt>
      <trkpt lat="45.76877" lon="-0.02975">
        <ele>89.0078125</ele>
        <time>2017-12-05T13:52:24Z</time>
      </trkpt>
      <trkpt lat="45.76875" lon="-0.0298">
        <ele>89.03125</ele>
        <time>2017-12-05T13:52:25Z</time>
      </trkpt>
      <trkpt lat="45.76873" lon="-0.02985">
        <ele>89.07421875</ele>
        <time>2017-12-05T13:52:26Z</time>
      </trkpt>
      <trkpt lat="45.76869" lon="-0.02989">
        <ele>89.12890625</ele>
        <time>2017-12-05T13:52:27Z</time>
      </trkpt>
      <trkpt lat="45.76854" lon="-0.03011">
        <ele>89.43359375</ele>
        <time>2017-12-05T13:52:33Z</time>
      </trkpt>
      <trkpt lat="45.76851" lon="-0.03012">
        <ele>89.48046875</ele>
        <time>2017-12-05T13:52:34Z</time>
      </trkpt>
      <trkpt lat="45.76848" lon="-0.03011">
        <ele>89.53515625</ele>
        <time>2017-12-05T13:52:35Z</time>
      </trkpt>
      <trkpt lat="45.76845" lon="-0.03009">
        <ele>89.59375</ele>
        <time>2017-12-05T13:52:36Z</time>
      </trkpt>
      <trkpt lat="45.76842" lon="-0.03006">
        <ele>89.65234375</ele>
        <time>2017-12-05T13:52:37Z</time>
      </trkpt>
      <trkpt lat="45.76831" lon="-0.02996">
        <ele>89.8046875</ele>
        <time>2017-12-05T13:52:40Z</time>
      </trkpt>
      <trkpt lat="45.76807" lon="-0.02979">
        <ele>89.66015625</ele>
        <time>2017-12-05T13:52:46Z</time>
      </trkpt>
      <trkpt lat="45.76803" lon="-0.02979">
        <ele>89.65625</ele>
        <time>2017-12-05T13:52:47Z</time>
      </trkpt>
      <trkpt lat="45.768" lon="-0.02981">
        <ele>89.69921875</ele>
        <time>2017-12-05T13:52:48Z</time>
      </trkpt>
      <trkpt lat="45.76797" lon="-0.02986">
        <ele>89.7734375</ele>
        <time>2017-12-05T13:52:49Z</time>
      </trkpt>
      <trkpt lat="45.76794" lon="-0.02991">
        <ele>89.87109375</ele>
        <time>2017-12-05T13:52:50Z</time>
      </trkpt>
      <trkpt lat="45.76792" lon="-0.02997">
        <ele>89.97265625</ele>
        <time>2017-12-05T13:52:51Z</time>
      </trkpt>
      <trkpt lat="45.76791" lon="-0.03003">
        <ele>90.046875</ele>
        <time>2017-12-05T13:52:52Z</time>
      </trkpt>
      <trkpt lat="45.76768" lon="-0.03079">
        <ele>91.4375</ele>
        <time>2017-12-05T13:53:04Z</time>
      </trkpt>
      <trkpt lat="45.76766" lon="-0.03086">
        <ele>91.578125</ele>
        <time>2017-12-05T13:53:05Z</time>
      </trkpt>
      <trkpt lat="45.76746" lon="-0.03142">
        <ele>92.2265625</ele>
        <time>2017-12-05T13:53:14Z</time>
      </trkpt>
      <trkpt lat="45.76736" lon="-0.03167">
        <ele>92.59765625</ele>
        <time>2017-12-05T13:53:18Z</time>
      </trkpt>
      <trkpt lat="45.7671" lon="-0.03241">
        <ele>94.77734375</ele>
        <time>2017-12-05T13:53:30Z</time>
      </trkpt>
      <trkpt lat="45.76692" lon="-0.03292">
        <ele>96.85546875</ele>
        <time>2017-12-05T13:53:39Z</time>
      </trkpt>
      <trkpt lat="45.76675" lon="-0.03337">
        <ele>99.3515625</ele>
        <time>2017-12-05T13:53:49Z</time>
      </trkpt>
      <trkpt lat="45.76663" lon="-0.03375">
        <ele>101.46875</ele>
        <time>2017-12-05T13:53:58Z</time>
      </trkpt>
      <trkpt lat="45.76655" lon="-0.03415">
        <ele>103.51171875</ele>
        <time>2017-12-05T13:54:08Z</time>
      </trkpt>
      <trkpt lat="45.76651" lon="-0.03436">
        <ele>104.671875</ele>
        <time>2017-12-05T13:54:15Z</time>
      </trkpt>
      <trkpt lat="45.76647" lon="-0.03459">
        <ele>105.95703125</ele>
        <time>2017-12-05T13:54:23Z</time>
      </trkpt>
      <trkpt lat="45.76639" lon="-0.03493">
        <ele>108.015625</ele>
        <time>2017-12-05T13:54:35Z</time>
      </trkpt>
      <trkpt lat="45.76632" lon="-0.03522">
        <ele>109.71875</ele>
        <time>2017-12-05T13:54:45Z</time>
      </trkpt>
      <trkpt lat="45.76627" lon="-0.03546">
        <ele>111.08984375</ele>
        <time>2017-12-05T13:54:53Z</time>
      </trkpt>
      <trkpt lat="45.76621" lon="-0.03579">
        <ele>113</ele>
        <time>2017-12-05T13:55:04Z</time>
      </trkpt>
      <trkpt lat="45.76616" lon="-0.0361">
        <ele>114.74609375</ele>
        <time>2017-12-05T13:55:14Z</time>
      </trkpt>
      <trkpt lat="45.76612" lon="-0.03645">
        <ele>115.95703125</ele>
        <time>2017-12-05T13:55:25Z</time>
      </trkpt>
      <trkpt lat="45.76607" lon="-0.03685">
        <ele>116.77734375</ele>
        <time>2017-12-05T13:55:36Z</time>
      </trkpt>
      <trkpt lat="45.76599" lon="-0.03736">
        <ele>117.38671875</ele>
        <time>2017-12-05T13:55:48Z</time>
      </trkpt>
      <trkpt lat="45.7659" lon="-0.03782">
        <ele>118.71484375</ele>
        <time>2017-12-05T13:55:59Z</time>
      </trkpt>
      <trkpt lat="45.7658" lon="-0.03826">
        <ele>119.99609375</ele>
        <time>2017-12-05T13:56:09Z</time>
      </trkpt>
      <trkpt lat="45.76569" lon="-0.03882">
        <ele>121.09765625</ele>
        <time>2017-12-05T13:56:21Z</time>
      </trkpt>
      <trkpt lat="45.76564" lon="-0.03922">
        <ele>121.3203125</ele>
        <time>2017-12-05T13:56:29Z</time>
      </trkpt>
      <trkpt lat="45.76561" lon="-0.03965">
        <ele>121.421875</ele>
        <time>2017-12-05T13:56:37Z</time>
      </trkpt>
      <trkpt lat="45.76559" lon="-0.04028">
        <ele>121.48046875</ele>
        <time>2017-12-05T13:56:47Z</time>
      </trkpt>
      <trkpt lat="45.76555" lon="-0.04094">
        <ele>121.48828125</ele>
        <time>2017-12-05T13:56:56Z</time>
      </trkpt>
      <trkpt lat="45.76554" lon="-0.04109">
        <ele>121.5078125</ele>
        <time>2017-12-05T13:56:58Z</time>
      </trkpt>
      <trkpt lat="45.76547" lon="-0.04173">
        <ele>120.6015625</ele>
        <time>2017-12-05T13:57:06Z</time>
      </trkpt>
      <trkpt lat="45.76543" lon="-0.0421">
        <ele>119.36328125</ele>
        <time>2017-12-05T13:57:10Z</time>
      </trkpt>
      <trkpt lat="45.76539" lon="-0.04253">
        <ele>117.7734375</ele>
        <time>2017-12-05T13:57:14Z</time>
      </trkpt>
      <trkpt lat="45.76537" lon="-0.04277">
        <ele>116.734375</ele>
        <time>2017-12-05T13:57:16Z</time>
      </trkpt>
      <trkpt lat="45.76534" lon="-0.04315">
        <ele>114.08984375</ele>
        <time>2017-12-05T13:57:19Z</time>
      </trkpt>
      <trkpt lat="45.76531" lon="-0.04398">
        <ele>111.30859375</ele>
        <time>2017-12-05T13:57:26Z</time>
      </trkpt>
      <trkpt lat="45.76531" lon="-0.04437">
        <ele>111.46875</ele>
        <time>2017-12-05T13:57:30Z</time>
      </trkpt>
      <trkpt lat="45.76532" lon="-0.04484">
        <ele>113.00390625</ele>
        <time>2017-12-05T13:57:36Z</time>
      </trkpt>
      <trkpt lat="45.76532" lon="-0.04492">
        <ele>113.265625</ele>
        <time>2017-12-05T13:57:37Z</time>
      </trkpt>
      <trkpt lat="45.7653" lon="-0.04533">
        <ele>114.8046875</ele>
        <time>2017-12-05T13:57:43Z</time>
      </trkpt>
      <trkpt lat="45.76524" lon="-0.04605">
        <ele>114.81640625</ele>
        <time>2017-12-05T13:57:53Z</time>
      </trkpt>
      <trkpt lat="45.76521" lon="-0.04623">
        <ele>113.7734375</ele>
        <time>2017-12-05T13:57:55Z</time>
      </trkpt>
      <trkpt lat="45.7652" lon="-0.04634">
        <ele>113.0625</ele>
        <time>2017-12-05T13:57:56Z</time>
      </trkpt>
      <trkpt lat="45.76519" lon="-0.04645">
        <ele>112.27734375</ele>
        <time>2017-12-05T13:57:57Z</time>
      </trkpt>
      <trkpt lat="45.76519" lon="-0.04658">
        <ele>111.39453125</ele>
        <time>2017-12-05T13:57:58Z</time>
      </trkpt>
      <trkpt lat="45.76519" lon="-0.04671">
        <ele>110.1640625</ele>
        <time>2017-12-05T13:57:59Z</time>
      </trkpt>
      <trkpt lat="45.76522" lon="-0.04684">
        <ele>108.66796875</ele>
        <time>2017-12-05T13:58:00Z</time>
      </trkpt>
      <trkpt lat="45.76526" lon="-0.04698">
        <ele>107.234375</ele>
        <time>2017-12-05T13:58:01Z</time>
      </trkpt>
      <trkpt lat="45.7653" lon="-0.04711">
        <ele>105.8515625</ele>
        <time>2017-12-05T13:58:02Z</time>
      </trkpt>
      <trkpt lat="45.76533" lon="-0.04725">
        <ele>104.96875</ele>
        <time>2017-12-05T13:58:03Z</time>
      </trkpt>
      <trkpt lat="45.76534" lon="-0.04738">
        <ele>104.859375</ele>
        <time>2017-12-05T13:58:04Z</time>
      </trkpt>
      <trkpt lat="45.76533" lon="-0.04751">
        <ele>104.78515625</ele>
        <time>2017-12-05T13:58:05Z</time>
      </trkpt>
      <trkpt lat="45.76531" lon="-0.04762">
        <ele>104.796875</ele>
        <time>2017-12-05T13:58:06Z</time>
      </trkpt>
      <trkpt lat="45.76528" lon="-0.04771">
        <ele>104.8984375</ele>
        <time>2017-12-05T13:58:07Z</time>
      </trkpt>
      <trkpt lat="45.76525" lon="-0.04779">
        <ele>105.21484375</ele>
        <time>2017-12-05T13:58:08Z</time>
      </trkpt>
      <trkpt lat="45.76523" lon="-0.04785">
        <ele>105.65234375</ele>
        <time>2017-12-05T13:58:09Z</time>
      </trkpt>
      <trkpt lat="45.7652" lon="-0.04791">
        <ele>106.0546875</ele>
        <time>2017-12-05T13:58:10Z</time>
      </trkpt>
      <trkpt lat="45.76518" lon="-0.04797">
        <ele>106.4296875</ele>
        <time>2017-12-05T13:58:11Z</time>
      </trkpt>
      <trkpt lat="45.76512" lon="-0.04811">
        <ele>107.4453125</ele>
        <time>2017-12-05T13:58:14Z</time>
      </trkpt>
      <trkpt lat="45.7651" lon="-0.04819">
        <ele>107.98046875</ele>
        <time>2017-12-05T13:58:16Z</time>
      </trkpt>
      <trkpt lat="45.76506" lon="-0.04855">
        <ele>109.7109375</ele>
        <time>2017-12-05T13:58:24Z</time>
      </trkpt>
      <trkpt lat="45.76508" lon="-0.04898">
        <ele>111.1875</ele>
        <time>2017-12-05T13:58:32Z</time>
      </trkpt>
      <trkpt lat="45.76509" lon="-0.04925">
        <ele>112.2421875</ele>
        <time>2017-12-05T13:58:37Z</time>
      </trkpt>
      <trkpt lat="45.7651" lon="-0.04988">
        <ele>115.1328125</ele>
        <time>2017-12-05T13:58:49Z</time>
      </trkpt>
      <trkpt lat="45.76512" lon="-0.05038">
        <ele>117.3046875</ele>
        <time>2017-12-05T13:58:59Z</time>
      </trkpt>
      <trkpt lat="45.7651" lon="-0.05059">
        <ele>118.33984375</ele>
        <time>2017-12-05T13:59:04Z</time>
      </trkpt>
      <trkpt lat="45.76498" lon="-0.05066">
        <ele>119.51171875</ele>
        <time>2017-12-05T13:59:09Z</time>
      </trkpt>
      <trkpt lat="45.76481" lon="-0.05063">
        <ele>120.62890625</ele>
        <time>2017-12-05T13:59:16Z</time>
      </trkpt>
      <trkpt lat="45.76472" lon="-0.05044">
        <ele>120.484375</ele>
        <time>2017-12-05T13:59:22Z</time>
      </trkpt>
      <trkpt lat="45.76456" lon="-0.05023">
        <ele>120.57421875</ele>
        <time>2017-12-05T13:59:29Z</time>
      </trkpt>
      <trkpt lat="45.76428" lon="-0.05022">
        <ele>122.1328125</ele>
        <time>2017-12-05T13:59:38Z</time>
      </trkpt>
      <trkpt lat="45.76395" lon="-0.05026">
        <ele>123.79296875</ele>
        <time>2017-12-05T13:59:49Z</time>
      </trkpt>
      <trkpt lat="45.76368" lon="-0.05026">
        <ele>124.8125</ele>
        <time>2017-12-05T13:59:58Z</time>
      </trkpt>
      <trkpt lat="45.76344" lon="-0.05017">
        <ele>125.21875</ele>
        <time>2017-12-05T14:00:06Z</time>
      </trkpt>
      <trkpt lat="45.76319" lon="-0.05007">
        <ele>125.41015625</ele>
        <time>2017-12-05T14:00:14Z</time>
      </trkpt>
      <trkpt lat="45.76297" lon="-0.05011">
        <ele>125.9765625</ele>
        <time>2017-12-05T14:00:21Z</time>
      </trkpt>
      <trkpt lat="45.76276" lon="-0.05028">
        <ele>126.9453125</ele>
        <time>2017-12-05T14:00:28Z</time>
      </trkpt>
      <trkpt lat="45.76254" lon="-0.05054">
        <ele>128.0234375</ele>
        <time>2017-12-05T14:00:36Z</time>
      </trkpt>
      <trkpt lat="45.76228" lon="-0.05086">
        <ele>129.0390625</ele>
        <time>2017-12-05T14:00:46Z</time>
      </trkpt>
      <trkpt lat="45.76203" lon="-0.05119">
        <ele>130.40234375</ele>
        <time>2017-12-05T14:00:56Z</time>
      </trkpt>
      <trkpt lat="45.7618" lon="-0.05143">
        <ele>131.2421875</ele>
        <time>2017-12-05T14:01:04Z</time>
      </trkpt>
      <trkpt lat="45.76162" lon="-0.05138">
        <ele>131.078125</ele>
        <time>2017-12-05T14:01:09Z</time>
      </trkpt>
      <trkpt lat="45.76148" lon="-0.05129">
        <ele>130.69921875</ele>
        <time>2017-12-05T14:01:14Z</time>
      </trkpt>
      <trkpt lat="45.76132" lon="-0.05147">
        <ele>131.1015625</ele>
        <time>2017-12-05T14:01:20Z</time>
      </trkpt>
      <trkpt lat="45.76107" lon="-0.05177">
        <ele>131.83984375</ele>
        <time>2017-12-05T14:01:28Z</time>
      </trkpt>
      <trkpt lat="45.76074" lon="-0.05218">
        <ele>132.47265625</ele>
        <time>2017-12-05T14:01:38Z</time>
      </trkpt>
      <trkpt lat="45.76041" lon="-0.05256">
        <ele>131.35546875</ele>
        <time>2017-12-05T14:01:47Z</time>
      </trkpt>
      <trkpt lat="45.76018" lon="-0.05283">
        <ele>130.33984375</ele>
        <time>2017-12-05T14:01:53Z</time>
      </trkpt>
      <trkpt lat="45.75981" lon="-0.05327">
        <ele>129.57421875</ele>
        <time>2017-12-05T14:02:04Z</time>
      </trkpt>
      <trkpt lat="45.75974" lon="-0.05331">
        <ele>129.48046875</ele>
        <time>2017-12-05T14:02:06Z</time>
      </trkpt>
      <trkpt lat="45.7597" lon="-0.0533">
        <ele>129.29296875</ele>
        <time>2017-12-05T14:02:07Z</time>
      </trkpt>
      <trkpt lat="45.75966" lon="-0.05327">
        <ele>129.05078125</ele>
        <time>2017-12-05T14:02:08Z</time>
      </trkpt>
      <trkpt lat="45.75963" lon="-0.05323">
        <ele>128.7578125</ele>
        <time>2017-12-05T14:02:09Z</time>
      </trkpt>
      <trkpt lat="45.75959" lon="-0.05317">
        <ele>128.44140625</ele>
        <time>2017-12-05T14:02:10Z</time>
      </trkpt>
      <trkpt lat="45.75955" lon="-0.05312">
        <ele>128.1171875</ele>
        <time>2017-12-05T14:02:11Z</time>
      </trkpt>
      <trkpt lat="45.75951" lon="-0.05307">
        <ele>127.80078125</ele>
        <time>2017-12-05T14:02:12Z</time>
      </trkpt>
      <trkpt lat="45.75948" lon="-0.05302">
        <ele>127.484375</ele>
        <time>2017-12-05T14:02:13Z</time>
      </trkpt>
      <trkpt lat="45.75917" lon="-0.0526">
        <ele>125.79296875</ele>
        <time>2017-12-05T14:02:22Z</time>
      </trkpt>
      <trkpt lat="45.75887" lon="-0.05219">
        <ele>124.86328125</ele>
        <time>2017-12-05T14:02:30Z</time>
      </trkpt>
      <trkpt lat="45.75852" lon="-0.05173">
        <ele>123.2109375</ele>
        <time>2017-12-05T14:02:38Z</time>
      </trkpt>
      <trkpt lat="45.75843" lon="-0.05159">
        <ele>123.34765625</ele>
        <time>2017-12-05T14:02:40Z</time>
      </trkpt>
      <trkpt lat="45.75822" lon="-0.05131">
        <ele>124.63671875</ele>
        <time>2017-12-05T14:02:46Z</time>
      </trkpt>
      <trkpt lat="45.7582" lon="-0.05128">
        <ele>124.83203125</ele>
        <time>2017-12-05T14:02:47Z</time>
      </trkpt>
      <trkpt lat="45.75807" lon="-0.05112">
        <ele>126.0546875</ele>
        <time>2017-12-05T14:02:54Z</time>
      </trkpt>
      <trkpt lat="45.75796" lon="-0.05104">
        <ele>127.0703125</ele>
        <time>2017-12-05T14:03:00Z</time>
      </trkpt>
      <trkpt lat="45.75795" lon="-0.05106">
        <ele>127.11328125</ele>
        <time>2017-12-05T14:03:01Z</time>
      </trkpt>
      <trkpt lat="45.75793" lon="-0.05109">
        <ele>127.1328125</ele>
        <time>2017-12-05T14:03:02Z</time>
      </trkpt>
      <trkpt lat="45.75792" lon="-0.05112">
        <ele>127.14453125</ele>
        <time>2017-12-05T14:03:03Z</time>
      </trkpt>
      <trkpt lat="45.75791" lon="-0.05115">
        <ele>127.1484375</ele>
        <time>2017-12-05T14:03:04Z</time>
      </trkpt>
      <trkpt lat="45.75774" lon="-0.0515">
        <ele>127.09765625</ele>
        <time>2017-12-05T14:03:13Z</time>
      </trkpt>
      <trkpt lat="45.75761" lon="-0.05181">
        <ele>126.76171875</ele>
        <time>2017-12-05T14:03:20Z</time>
      </trkpt>
      <trkpt lat="45.75744" lon="-0.05224">
        <ele>126.27734375</ele>
        <time>2017-12-05T14:03:29Z</time>
      </trkpt>
      <trkpt lat="45.75731" lon="-0.05265">
        <ele>126.96484375</ele>
        <time>2017-12-05T14:03:37Z</time>
      </trkpt>
      <trkpt lat="45.7572" lon="-0.05299">
        <ele>127.66015625</ele>
        <time>2017-12-05T14:03:44Z</time>
      </trkpt>
      <trkpt lat="45.75709" lon="-0.05327">
        <ele>128.1796875</ele>
        <time>2017-12-05T14:03:50Z</time>
      </trkpt>
      <trkpt lat="45.75695" lon="-0.05359">
        <ele>128.390625</ele>
        <time>2017-12-05T14:03:57Z</time>
      </trkpt>
      <trkpt lat="45.75682" lon="-0.05407">
        <ele>128.81640625</ele>
        <time>2017-12-05T14:04:06Z</time>
      </trkpt>
      <trkpt lat="45.75681" lon="-0.05459">
        <ele>129.3984375</ele>
        <time>2017-12-05T14:04:15Z</time>
      </trkpt>
      <trkpt lat="45.75682" lon="-0.05521">
        <ele>130.86328125</ele>
        <time>2017-12-05T14:04:26Z</time>
      </trkpt>
      <trkpt lat="45.7567" lon="-0.05571">
        <ele>132.76953125</ele>
        <time>2017-12-05T14:04:36Z</time>
      </trkpt>
      <trkpt lat="45.75654" lon="-0.05606">
        <ele>133.953125</ele>
        <time>2017-12-05T14:04:45Z</time>
      </trkpt>
      <trkpt lat="45.75632" lon="-0.05648">
        <ele>135.12109375</ele>
        <time>2017-12-05T14:04:56Z</time>
      </trkpt>
      <trkpt lat="45.75617" lon="-0.05681">
        <ele>135.92578125</ele>
        <time>2017-12-05T14:05:04Z</time>
      </trkpt>
      <trkpt lat="45.75597" lon="-0.05724">
        <ele>137.171875</ele>
        <time>2017-12-05T14:05:15Z</time>
      </trkpt>
      <trkpt lat="45.75578" lon="-0.05755">
        <ele>138.03515625</ele>
        <time>2017-12-05T14:05:24Z</time>
      </trkpt>
      <trkpt lat="45.75555" lon="-0.05788">
        <ele>138.71875</ele>
        <time>2017-12-05T14:05:34Z</time>
      </trkpt>
      <trkpt lat="45.75532" lon="-0.05822">
        <ele>139.57421875</ele>
        <time>2017-12-05T14:05:44Z</time>
      </trkpt>
      <trkpt lat="45.75513" lon="-0.05852">
        <ele>140.21875</ele>
        <time>2017-12-05T14:05:53Z</time>
      </trkpt>
      <trkpt lat="45.75495" lon="-0.05882">
        <ele>140.94921875</ele>
        <time>2017-12-05T14:06:02Z</time>
      </trkpt>
      <trkpt lat="45.75479" lon="-0.05909">
        <ele>142.19140625</ele>
        <time>2017-12-05T14:06:11Z</time>
      </trkpt>
      <trkpt lat="45.75466" lon="-0.0593">
        <ele>143.0625</ele>
        <time>2017-12-05T14:06:18Z</time>
      </trkpt>
      <trkpt lat="45.75451" lon="-0.05951">
        <ele>143.6640625</ele>
        <time>2017-12-05T14:06:26Z</time>
      </trkpt>
      <trkpt lat="45.75437" lon="-0.0597">
        <ele>144.08203125</ele>
        <time>2017-12-05T14:06:33Z</time>
      </trkpt>
      <trkpt lat="45.75422" lon="-0.06006">
        <ele>145.4921875</ele>
        <time>2017-12-05T14:06:44Z</time>
      </trkpt>
      <trkpt lat="45.75414" lon="-0.06039">
        <ele>147.30859375</ele>
        <time>2017-12-05T14:06:54Z</time>
      </trkpt>
      <trkpt lat="45.75409" lon="-0.06068">
        <ele>148.875</ele>
        <time>2017-12-05T14:07:03Z</time>
      </trkpt>
      <trkpt lat="45.75407" lon="-0.06092">
        <ele>150.18359375</ele>
        <time>2017-12-05T14:07:11Z</time>
      </trkpt>
      <trkpt lat="45.75403" lon="-0.06124">
        <ele>151.90625</ele>
        <time>2017-12-05T14:07:23Z</time>
      </trkpt>
      <trkpt lat="45.75401" lon="-0.0615">
        <ele>153.32421875</ele>
        <time>2017-12-05T14:07:33Z</time>
      </trkpt>
      <trkpt lat="45.75398" lon="-0.06175">
        <ele>154.44921875</ele>
        <time>2017-12-05T14:07:43Z</time>
      </trkpt>
      <trkpt lat="45.75389" lon="-0.06193">
        <ele>155.07421875</ele>
        <time>2017-12-05T14:07:50Z</time>
      </trkpt>
      <trkpt lat="45.75382" lon="-0.06208">
        <ele>155.640625</ele>
        <time>2017-12-05T14:07:57Z</time>
      </trkpt>
      <trkpt lat="45.75367" lon="-0.06228">
        <ele>156.6015625</ele>
        <time>2017-12-05T14:08:07Z</time>
      </trkpt>
      <trkpt lat="45.75351" lon="-0.06241">
        <ele>157.52734375</ele>
        <time>2017-12-05T14:08:15Z</time>
      </trkpt>
      <trkpt lat="45.75337" lon="-0.06253">
        <ele>158.484375</ele>
        <time>2017-12-05T14:08:22Z</time>
      </trkpt>
      <trkpt lat="45.7532" lon="-0.06265">
        <ele>159.609375</ele>
        <time>2017-12-05T14:08:30Z</time>
      </trkpt>
      <trkpt lat="45.75303" lon="-0.06278">
        <ele>160.53125</ele>
        <time>2017-12-05T14:08:38Z</time>
      </trkpt>
      <trkpt lat="45.75282" lon="-0.06297">
        <ele>161.578125</ele>
        <time>2017-12-05T14:08:47Z</time>
      </trkpt>
      <trkpt lat="45.75254" lon="-0.06325">
        <ele>163.0859375</ele>
        <time>2017-12-05T14:08:56Z</time>
      </trkpt>
      <trkpt lat="45.75235" lon="-0.06347">
        <ele>164.0390625</ele>
        <time>2017-12-05T14:09:02Z</time>
      </trkpt>
      <trkpt lat="45.75223" lon="-0.06366">
        <ele>164.59375</ele>
        <time>2017-12-05T14:09:08Z</time>
      </trkpt>
    </trkseg>
  </trk>
</gpx>